<?xml version="1.0" encoding="UTF-8" standalone="no" ?>
<gpx xmlns="http://www.topografix.com/GPX/1/1" creator="www.cicloide.com" version="1.1" xmlns:xsi="http://www.w3.org/2001/XMLSchema-instance" xsi:schemaLocation="http://www.topografix.com/GPX/1/1 http://www.topografix.com/GPX/1/1/gpx.xsd">
  <trk>
    <name>www.cicloide.com 342819</name>
    <desc>www.cicloide.com 342819</desc>
    <trkseg>
      <trkpt lat="42.459710000" lon="-2.464572000">
        <ele>401.20</ele>
        <time>2017-02-11T05:55:31Z</time>
      </trkpt>
      <trkpt lat="42.459187000" lon="-2.465228000">
        <ele>401.20</ele>
        <time>2017-02-11T05:56:02Z</time>
      </trkpt>
      <trkpt lat="42.459073000" lon="-2.465302000">
        <ele>401.20</ele>
        <time>2017-02-11T05:56:11Z</time>
      </trkpt>
      <trkpt lat="42.459069000" lon="-2.465313000">
        <ele>401.20</ele>
        <time>2017-02-11T05:56:12Z</time>
      </trkpt>
      <trkpt lat="42.459064000" lon="-2.465323000">
        <ele>401.20</ele>
        <time>2017-02-11T05:56:13Z</time>
      </trkpt>
      <trkpt lat="42.459060000" lon="-2.465332000">
        <ele>401.20</ele>
        <time>2017-02-11T05:56:14Z</time>
      </trkpt>
      <trkpt lat="42.459057000" lon="-2.465339000">
        <ele>401.20</ele>
        <time>2017-02-11T05:56:15Z</time>
      </trkpt>
      <trkpt lat="42.459055000" lon="-2.465342000">
        <ele>401.20</ele>
        <time>2017-02-11T05:56:16Z</time>
      </trkpt>
      <trkpt lat="42.459053000" lon="-2.465346000">
        <ele>401.20</ele>
        <time>2017-02-11T05:56:17Z</time>
      </trkpt>
      <trkpt lat="42.459051000" lon="-2.465349000">
        <ele>401.20</ele>
        <time>2017-02-11T05:56:18Z</time>
      </trkpt>
      <trkpt lat="42.459046000" lon="-2.465352000">
        <ele>401.20</ele>
        <time>2017-02-11T05:56:20Z</time>
      </trkpt>
      <trkpt lat="42.459041000" lon="-2.465347000">
        <ele>401.20</ele>
        <time>2017-02-11T05:56:23Z</time>
      </trkpt>
      <trkpt lat="42.459042000" lon="-2.465348000">
        <ele>401.20</ele>
        <time>2017-02-11T05:56:24Z</time>
      </trkpt>
      <trkpt lat="42.459045000" lon="-2.465351000">
        <ele>401.20</ele>
        <time>2017-02-11T05:56:25Z</time>
      </trkpt>
      <trkpt lat="42.459047000" lon="-2.465355000">
        <ele>401.20</ele>
        <time>2017-02-11T05:56:26Z</time>
      </trkpt>
      <trkpt lat="42.459049000" lon="-2.465357000">
        <ele>401.20</ele>
        <time>2017-02-11T05:56:27Z</time>
      </trkpt>
      <trkpt lat="42.459049000" lon="-2.465350000">
        <ele>401.20</ele>
        <time>2017-02-11T05:56:28Z</time>
      </trkpt>
      <trkpt lat="42.459047000" lon="-2.465335000">
        <ele>401.20</ele>
        <time>2017-02-11T05:56:29Z</time>
      </trkpt>
      <trkpt lat="42.459048000" lon="-2.465326000">
        <ele>401.20</ele>
        <time>2017-02-11T05:56:30Z</time>
      </trkpt>
      <trkpt lat="42.459043000" lon="-2.465311000">
        <ele>401.20</ele>
        <time>2017-02-11T05:56:31Z</time>
      </trkpt>
      <trkpt lat="42.459041000" lon="-2.465297000">
        <ele>401.20</ele>
        <time>2017-02-11T05:56:32Z</time>
      </trkpt>
      <trkpt lat="42.459040000" lon="-2.465284000">
        <ele>401.20</ele>
        <time>2017-02-11T05:56:33Z</time>
      </trkpt>
      <trkpt lat="42.459041000" lon="-2.465272000">
        <ele>401.20</ele>
        <time>2017-02-11T05:56:34Z</time>
      </trkpt>
      <trkpt lat="42.459042000" lon="-2.465261000">
        <ele>401.20</ele>
        <time>2017-02-11T05:56:35Z</time>
      </trkpt>
      <trkpt lat="42.459041000" lon="-2.465252000">
        <ele>401.20</ele>
        <time>2017-02-11T05:56:36Z</time>
      </trkpt>
      <trkpt lat="42.459040000" lon="-2.465247000">
        <ele>401.20</ele>
        <time>2017-02-11T05:56:37Z</time>
      </trkpt>
      <trkpt lat="42.459038000" lon="-2.465240000">
        <ele>401.20</ele>
        <time>2017-02-11T05:56:38Z</time>
      </trkpt>
      <trkpt lat="42.459040000" lon="-2.465241000">
        <ele>401.20</ele>
        <time>2017-02-11T05:56:39Z</time>
      </trkpt>
      <trkpt lat="42.459042000" lon="-2.465229000">
        <ele>401.20</ele>
        <time>2017-02-11T05:56:40Z</time>
      </trkpt>
      <trkpt lat="42.459040000" lon="-2.465218000">
        <ele>401.20</ele>
        <time>2017-02-11T05:56:41Z</time>
      </trkpt>
      <trkpt lat="42.459036000" lon="-2.465208000">
        <ele>401.20</ele>
        <time>2017-02-11T05:56:42Z</time>
      </trkpt>
      <trkpt lat="42.459029000" lon="-2.465198000">
        <ele>401.20</ele>
        <time>2017-02-11T05:56:43Z</time>
      </trkpt>
      <trkpt lat="42.459014000" lon="-2.465180000">
        <ele>401.20</ele>
        <time>2017-02-11T05:56:44Z</time>
      </trkpt>
      <trkpt lat="42.459003000" lon="-2.465167000">
        <ele>401.20</ele>
        <time>2017-02-11T05:56:45Z</time>
      </trkpt>
      <trkpt lat="42.458996000" lon="-2.465162000">
        <ele>401.20</ele>
        <time>2017-02-11T05:56:46Z</time>
      </trkpt>
      <trkpt lat="42.458994000" lon="-2.465166000">
        <ele>401.20</ele>
        <time>2017-02-11T05:56:47Z</time>
      </trkpt>
      <trkpt lat="42.458992000" lon="-2.465167000">
        <ele>401.20</ele>
        <time>2017-02-11T05:56:48Z</time>
      </trkpt>
      <trkpt lat="42.458987000" lon="-2.465170000">
        <ele>401.20</ele>
        <time>2017-02-11T05:56:49Z</time>
      </trkpt>
      <trkpt lat="42.458983000" lon="-2.465172000">
        <ele>401.20</ele>
        <time>2017-02-11T05:56:50Z</time>
      </trkpt>
      <trkpt lat="42.458980000" lon="-2.465175000">
        <ele>401.20</ele>
        <time>2017-02-11T05:56:51Z</time>
      </trkpt>
      <trkpt lat="42.458977000" lon="-2.465176000">
        <ele>401.20</ele>
        <time>2017-02-11T05:56:52Z</time>
      </trkpt>
      <trkpt lat="42.458972000" lon="-2.465182000">
        <ele>401.20</ele>
        <time>2017-02-11T05:56:53Z</time>
      </trkpt>
      <trkpt lat="42.458967000" lon="-2.465182000">
        <ele>401.20</ele>
        <time>2017-02-11T05:56:54Z</time>
      </trkpt>
      <trkpt lat="42.458961000" lon="-2.465179000">
        <ele>401.20</ele>
        <time>2017-02-11T05:56:55Z</time>
      </trkpt>
      <trkpt lat="42.458956000" lon="-2.465174000">
        <ele>401.20</ele>
        <time>2017-02-11T05:56:56Z</time>
      </trkpt>
      <trkpt lat="42.458954000" lon="-2.465172000">
        <ele>401.20</ele>
        <time>2017-02-11T05:56:57Z</time>
      </trkpt>
      <trkpt lat="42.458951000" lon="-2.465168000">
        <ele>401.20</ele>
        <time>2017-02-11T05:56:58Z</time>
      </trkpt>
      <trkpt lat="42.458949000" lon="-2.465162000">
        <ele>401.20</ele>
        <time>2017-02-11T05:56:59Z</time>
      </trkpt>
      <trkpt lat="42.458945000" lon="-2.465153000">
        <ele>401.20</ele>
        <time>2017-02-11T05:57:00Z</time>
      </trkpt>
      <trkpt lat="42.458942000" lon="-2.465146000">
        <ele>401.20</ele>
        <time>2017-02-11T05:57:01Z</time>
      </trkpt>
      <trkpt lat="42.458939000" lon="-2.465142000">
        <ele>401.20</ele>
        <time>2017-02-11T05:57:02Z</time>
      </trkpt>
      <trkpt lat="42.458939000" lon="-2.465139000">
        <ele>401.20</ele>
        <time>2017-02-11T05:57:03Z</time>
      </trkpt>
      <trkpt lat="42.458942000" lon="-2.465135000">
        <ele>401.20</ele>
        <time>2017-02-11T05:57:04Z</time>
      </trkpt>
      <trkpt lat="42.458943000" lon="-2.465131000">
        <ele>401.20</ele>
        <time>2017-02-11T05:57:05Z</time>
      </trkpt>
      <trkpt lat="42.458944000" lon="-2.465127000">
        <ele>401.20</ele>
        <time>2017-02-11T05:57:06Z</time>
      </trkpt>
      <trkpt lat="42.458944000" lon="-2.465122000">
        <ele>401.20</ele>
        <time>2017-02-11T05:57:07Z</time>
      </trkpt>
      <trkpt lat="42.458948000" lon="-2.465117000">
        <ele>401.20</ele>
        <time>2017-02-11T05:57:08Z</time>
      </trkpt>
      <trkpt lat="42.458951000" lon="-2.465113000">
        <ele>401.20</ele>
        <time>2017-02-11T05:57:09Z</time>
      </trkpt>
      <trkpt lat="42.458953000" lon="-2.465111000">
        <ele>401.20</ele>
        <time>2017-02-11T05:57:10Z</time>
      </trkpt>
      <trkpt lat="42.458956000" lon="-2.465110000">
        <ele>401.20</ele>
        <time>2017-02-11T05:57:11Z</time>
      </trkpt>
      <trkpt lat="42.458955000" lon="-2.465116000">
        <ele>401.20</ele>
        <time>2017-02-11T05:57:13Z</time>
      </trkpt>
      <trkpt lat="42.458956000" lon="-2.465113000">
        <ele>401.20</ele>
        <time>2017-02-11T05:57:14Z</time>
      </trkpt>
      <trkpt lat="42.458957000" lon="-2.465110000">
        <ele>401.20</ele>
        <time>2017-02-11T05:57:15Z</time>
      </trkpt>
      <trkpt lat="42.458958000" lon="-2.465106000">
        <ele>401.20</ele>
        <time>2017-02-11T05:57:16Z</time>
      </trkpt>
      <trkpt lat="42.458957000" lon="-2.465102000">
        <ele>401.20</ele>
        <time>2017-02-11T05:57:17Z</time>
      </trkpt>
      <trkpt lat="42.458957000" lon="-2.465098000">
        <ele>401.20</ele>
        <time>2017-02-11T05:57:18Z</time>
      </trkpt>
      <trkpt lat="42.458956000" lon="-2.465089000">
        <ele>401.20</ele>
        <time>2017-02-11T05:57:19Z</time>
      </trkpt>
      <trkpt lat="42.458954000" lon="-2.465081000">
        <ele>401.20</ele>
        <time>2017-02-11T05:57:20Z</time>
      </trkpt>
      <trkpt lat="42.458954000" lon="-2.465071000">
        <ele>401.30</ele>
        <time>2017-02-11T05:57:21Z</time>
      </trkpt>
      <trkpt lat="42.458953000" lon="-2.465062000">
        <ele>401.40</ele>
        <time>2017-02-11T05:57:22Z</time>
      </trkpt>
      <trkpt lat="42.458949000" lon="-2.465061000">
        <ele>401.30</ele>
        <time>2017-02-11T05:57:23Z</time>
      </trkpt>
      <trkpt lat="42.458945000" lon="-2.465075000">
        <ele>401.30</ele>
        <time>2017-02-11T05:57:24Z</time>
      </trkpt>
      <trkpt lat="42.458944000" lon="-2.465086000">
        <ele>401.30</ele>
        <time>2017-02-11T05:57:25Z</time>
      </trkpt>
      <trkpt lat="42.458944000" lon="-2.465096000">
        <ele>401.20</ele>
        <time>2017-02-11T05:57:26Z</time>
      </trkpt>
      <trkpt lat="42.458940000" lon="-2.465095000">
        <ele>401.20</ele>
        <time>2017-02-11T05:57:27Z</time>
      </trkpt>
      <trkpt lat="42.458937000" lon="-2.465095000">
        <ele>401.20</ele>
        <time>2017-02-11T05:57:28Z</time>
      </trkpt>
      <trkpt lat="42.458934000" lon="-2.465096000">
        <ele>401.10</ele>
        <time>2017-02-11T05:57:29Z</time>
      </trkpt>
      <trkpt lat="42.458930000" lon="-2.465096000">
        <ele>401.10</ele>
        <time>2017-02-11T05:57:30Z</time>
      </trkpt>
      <trkpt lat="42.458925000" lon="-2.465096000">
        <ele>401.20</ele>
        <time>2017-02-11T05:57:31Z</time>
      </trkpt>
      <trkpt lat="42.458921000" lon="-2.465098000">
        <ele>401.20</ele>
        <time>2017-02-11T05:57:32Z</time>
      </trkpt>
      <trkpt lat="42.458914000" lon="-2.465097000">
        <ele>401.10</ele>
        <time>2017-02-11T05:57:33Z</time>
      </trkpt>
      <trkpt lat="42.458909000" lon="-2.465097000">
        <ele>401.10</ele>
        <time>2017-02-11T05:57:34Z</time>
      </trkpt>
      <trkpt lat="42.458903000" lon="-2.465100000">
        <ele>401.00</ele>
        <time>2017-02-11T05:57:35Z</time>
      </trkpt>
      <trkpt lat="42.458897000" lon="-2.465096000">
        <ele>401.00</ele>
        <time>2017-02-11T05:57:36Z</time>
      </trkpt>
      <trkpt lat="42.458892000" lon="-2.465098000">
        <ele>400.90</ele>
        <time>2017-02-11T05:57:37Z</time>
      </trkpt>
      <trkpt lat="42.458890000" lon="-2.465100000">
        <ele>400.90</ele>
        <time>2017-02-11T05:57:38Z</time>
      </trkpt>
      <trkpt lat="42.458889000" lon="-2.465105000">
        <ele>400.90</ele>
        <time>2017-02-11T05:57:39Z</time>
      </trkpt>
      <trkpt lat="42.458891000" lon="-2.465110000">
        <ele>400.90</ele>
        <time>2017-02-11T05:57:40Z</time>
      </trkpt>
      <trkpt lat="42.458893000" lon="-2.465115000">
        <ele>400.90</ele>
        <time>2017-02-11T05:57:41Z</time>
      </trkpt>
      <trkpt lat="42.458892000" lon="-2.465119000">
        <ele>400.90</ele>
        <time>2017-02-11T05:57:42Z</time>
      </trkpt>
      <trkpt lat="42.458891000" lon="-2.465123000">
        <ele>400.80</ele>
        <time>2017-02-11T05:57:43Z</time>
      </trkpt>
      <trkpt lat="42.458890000" lon="-2.465126000">
        <ele>400.70</ele>
        <time>2017-02-11T05:57:44Z</time>
      </trkpt>
      <trkpt lat="42.458887000" lon="-2.465128000">
        <ele>400.70</ele>
        <time>2017-02-11T05:57:45Z</time>
      </trkpt>
      <trkpt lat="42.458886000" lon="-2.465132000">
        <ele>400.70</ele>
        <time>2017-02-11T05:57:46Z</time>
      </trkpt>
      <trkpt lat="42.458888000" lon="-2.465138000">
        <ele>400.80</ele>
        <time>2017-02-11T05:57:47Z</time>
      </trkpt>
      <trkpt lat="42.458888000" lon="-2.465145000">
        <ele>400.80</ele>
        <time>2017-02-11T05:57:48Z</time>
      </trkpt>
      <trkpt lat="42.458886000" lon="-2.465149000">
        <ele>400.90</ele>
        <time>2017-02-11T05:57:49Z</time>
      </trkpt>
      <trkpt lat="42.458889000" lon="-2.465148000">
        <ele>400.90</ele>
        <time>2017-02-11T05:57:50Z</time>
      </trkpt>
      <trkpt lat="42.458891000" lon="-2.465151000">
        <ele>401.00</ele>
        <time>2017-02-11T05:57:51Z</time>
      </trkpt>
      <trkpt lat="42.458894000" lon="-2.465154000">
        <ele>401.00</ele>
        <time>2017-02-11T05:57:52Z</time>
      </trkpt>
      <trkpt lat="42.458895000" lon="-2.465152000">
        <ele>401.00</ele>
        <time>2017-02-11T05:57:53Z</time>
      </trkpt>
      <trkpt lat="42.458894000" lon="-2.465151000">
        <ele>401.00</ele>
        <time>2017-02-11T05:57:54Z</time>
      </trkpt>
      <trkpt lat="42.458893000" lon="-2.465149000">
        <ele>401.00</ele>
        <time>2017-02-11T05:57:55Z</time>
      </trkpt>
      <trkpt lat="42.458893000" lon="-2.465145000">
        <ele>401.00</ele>
        <time>2017-02-11T05:57:56Z</time>
      </trkpt>
      <trkpt lat="42.458894000" lon="-2.465143000">
        <ele>401.00</ele>
        <time>2017-02-11T05:57:57Z</time>
      </trkpt>
      <trkpt lat="42.458896000" lon="-2.465138000">
        <ele>401.00</ele>
        <time>2017-02-11T05:57:58Z</time>
      </trkpt>
      <trkpt lat="42.458898000" lon="-2.465132000">
        <ele>401.00</ele>
        <time>2017-02-11T05:57:59Z</time>
      </trkpt>
      <trkpt lat="42.458901000" lon="-2.465127000">
        <ele>401.00</ele>
        <time>2017-02-11T05:58:00Z</time>
      </trkpt>
      <trkpt lat="42.458906000" lon="-2.465123000">
        <ele>400.90</ele>
        <time>2017-02-11T05:58:01Z</time>
      </trkpt>
      <trkpt lat="42.458909000" lon="-2.465118000">
        <ele>400.90</ele>
        <time>2017-02-11T05:58:02Z</time>
      </trkpt>
      <trkpt lat="42.458912000" lon="-2.465115000">
        <ele>400.90</ele>
        <time>2017-02-11T05:58:03Z</time>
      </trkpt>
      <trkpt lat="42.458914000" lon="-2.465112000">
        <ele>400.80</ele>
        <time>2017-02-11T05:58:04Z</time>
      </trkpt>
      <trkpt lat="42.458911000" lon="-2.465108000">
        <ele>400.90</ele>
        <time>2017-02-11T05:58:05Z</time>
      </trkpt>
      <trkpt lat="42.458908000" lon="-2.465102000">
        <ele>400.90</ele>
        <time>2017-02-11T05:58:06Z</time>
      </trkpt>
      <trkpt lat="42.458901000" lon="-2.465095000">
        <ele>401.00</ele>
        <time>2017-02-11T05:58:07Z</time>
      </trkpt>
      <trkpt lat="42.458895000" lon="-2.465089000">
        <ele>401.00</ele>
        <time>2017-02-11T05:58:08Z</time>
      </trkpt>
      <trkpt lat="42.458888000" lon="-2.465084000">
        <ele>401.10</ele>
        <time>2017-02-11T05:58:09Z</time>
      </trkpt>
      <trkpt lat="42.458884000" lon="-2.465082000">
        <ele>401.10</ele>
        <time>2017-02-11T05:58:10Z</time>
      </trkpt>
      <trkpt lat="42.458881000" lon="-2.465081000">
        <ele>401.20</ele>
        <time>2017-02-11T05:58:11Z</time>
      </trkpt>
      <trkpt lat="42.458879000" lon="-2.465081000">
        <ele>401.20</ele>
        <time>2017-02-11T05:58:12Z</time>
      </trkpt>
      <trkpt lat="42.458876000" lon="-2.465076000">
        <ele>401.30</ele>
        <time>2017-02-11T05:58:13Z</time>
      </trkpt>
      <trkpt lat="42.458872000" lon="-2.465069000">
        <ele>401.30</ele>
        <time>2017-02-11T05:58:15Z</time>
      </trkpt>
      <trkpt lat="42.458870000" lon="-2.465069000">
        <ele>401.30</ele>
        <time>2017-02-11T05:58:16Z</time>
      </trkpt>
      <trkpt lat="42.458872000" lon="-2.465069000">
        <ele>401.20</ele>
        <time>2017-02-11T05:58:17Z</time>
      </trkpt>
      <trkpt lat="42.458874000" lon="-2.465076000">
        <ele>401.20</ele>
        <time>2017-02-11T05:58:18Z</time>
      </trkpt>
      <trkpt lat="42.458877000" lon="-2.465081000">
        <ele>401.20</ele>
        <time>2017-02-11T05:58:19Z</time>
      </trkpt>
      <trkpt lat="42.458881000" lon="-2.465082000">
        <ele>401.20</ele>
        <time>2017-02-11T05:58:20Z</time>
      </trkpt>
      <trkpt lat="42.458888000" lon="-2.465087000">
        <ele>401.20</ele>
        <time>2017-02-11T05:58:21Z</time>
      </trkpt>
      <trkpt lat="42.458892000" lon="-2.465091000">
        <ele>401.30</ele>
        <time>2017-02-11T05:58:22Z</time>
      </trkpt>
      <trkpt lat="42.458896000" lon="-2.465095000">
        <ele>401.30</ele>
        <time>2017-02-11T05:58:23Z</time>
      </trkpt>
      <trkpt lat="42.458901000" lon="-2.465099000">
        <ele>401.30</ele>
        <time>2017-02-11T05:58:24Z</time>
      </trkpt>
      <trkpt lat="42.458903000" lon="-2.465101000">
        <ele>401.30</ele>
        <time>2017-02-11T05:58:25Z</time>
      </trkpt>
      <trkpt lat="42.458906000" lon="-2.465105000">
        <ele>401.30</ele>
        <time>2017-02-11T05:58:26Z</time>
      </trkpt>
      <trkpt lat="42.458913000" lon="-2.465108000">
        <ele>401.30</ele>
        <time>2017-02-11T05:58:27Z</time>
      </trkpt>
      <trkpt lat="42.458917000" lon="-2.465106000">
        <ele>401.30</ele>
        <time>2017-02-11T05:58:28Z</time>
      </trkpt>
      <trkpt lat="42.458920000" lon="-2.465107000">
        <ele>401.20</ele>
        <time>2017-02-11T05:58:29Z</time>
      </trkpt>
      <trkpt lat="42.458923000" lon="-2.465110000">
        <ele>401.00</ele>
        <time>2017-02-11T05:58:30Z</time>
      </trkpt>
      <trkpt lat="42.458928000" lon="-2.465118000">
        <ele>401.00</ele>
        <time>2017-02-11T05:58:31Z</time>
      </trkpt>
      <trkpt lat="42.458932000" lon="-2.465124000">
        <ele>400.90</ele>
        <time>2017-02-11T05:58:32Z</time>
      </trkpt>
      <trkpt lat="42.458936000" lon="-2.465130000">
        <ele>400.90</ele>
        <time>2017-02-11T05:58:33Z</time>
      </trkpt>
      <trkpt lat="42.458936000" lon="-2.465136000">
        <ele>400.90</ele>
        <time>2017-02-11T05:58:34Z</time>
      </trkpt>
      <trkpt lat="42.458937000" lon="-2.465138000">
        <ele>401.00</ele>
        <time>2017-02-11T05:58:35Z</time>
      </trkpt>
      <trkpt lat="42.458942000" lon="-2.465141000">
        <ele>401.10</ele>
        <time>2017-02-11T05:58:36Z</time>
      </trkpt>
      <trkpt lat="42.458945000" lon="-2.465145000">
        <ele>401.20</ele>
        <time>2017-02-11T05:58:37Z</time>
      </trkpt>
      <trkpt lat="42.458944000" lon="-2.465152000">
        <ele>401.20</ele>
        <time>2017-02-11T05:58:38Z</time>
      </trkpt>
      <trkpt lat="42.458943000" lon="-2.465158000">
        <ele>401.20</ele>
        <time>2017-02-11T05:58:39Z</time>
      </trkpt>
      <trkpt lat="42.458942000" lon="-2.465160000">
        <ele>401.30</ele>
        <time>2017-02-11T05:58:40Z</time>
      </trkpt>
      <trkpt lat="42.458944000" lon="-2.465162000">
        <ele>401.20</ele>
        <time>2017-02-11T05:58:41Z</time>
      </trkpt>
      <trkpt lat="42.458944000" lon="-2.465163000">
        <ele>401.20</ele>
        <time>2017-02-11T05:58:42Z</time>
      </trkpt>
      <trkpt lat="42.458945000" lon="-2.465166000">
        <ele>401.10</ele>
        <time>2017-02-11T05:58:43Z</time>
      </trkpt>
      <trkpt lat="42.458945000" lon="-2.465170000">
        <ele>401.10</ele>
        <time>2017-02-11T05:58:44Z</time>
      </trkpt>
      <trkpt lat="42.458944000" lon="-2.465172000">
        <ele>401.10</ele>
        <time>2017-02-11T05:58:45Z</time>
      </trkpt>
      <trkpt lat="42.458945000" lon="-2.465173000">
        <ele>401.10</ele>
        <time>2017-02-11T05:58:46Z</time>
      </trkpt>
      <trkpt lat="42.458944000" lon="-2.465173000">
        <ele>401.00</ele>
        <time>2017-02-11T05:58:47Z</time>
      </trkpt>
      <trkpt lat="42.458942000" lon="-2.465173000">
        <ele>401.00</ele>
        <time>2017-02-11T05:58:48Z</time>
      </trkpt>
      <trkpt lat="42.458943000" lon="-2.465172000">
        <ele>401.00</ele>
        <time>2017-02-11T05:58:49Z</time>
      </trkpt>
      <trkpt lat="42.458942000" lon="-2.465174000">
        <ele>400.90</ele>
        <time>2017-02-11T05:58:50Z</time>
      </trkpt>
      <trkpt lat="42.458943000" lon="-2.465180000">
        <ele>400.90</ele>
        <time>2017-02-11T05:58:51Z</time>
      </trkpt>
      <trkpt lat="42.458942000" lon="-2.465184000">
        <ele>400.80</ele>
        <time>2017-02-11T05:58:52Z</time>
      </trkpt>
      <trkpt lat="42.458947000" lon="-2.465193000">
        <ele>400.90</ele>
        <time>2017-02-11T05:58:53Z</time>
      </trkpt>
      <trkpt lat="42.458950000" lon="-2.465202000">
        <ele>401.00</ele>
        <time>2017-02-11T05:58:54Z</time>
      </trkpt>
      <trkpt lat="42.458953000" lon="-2.465210000">
        <ele>401.10</ele>
        <time>2017-02-11T05:58:55Z</time>
      </trkpt>
      <trkpt lat="42.458953000" lon="-2.465213000">
        <ele>401.10</ele>
        <time>2017-02-11T05:58:56Z</time>
      </trkpt>
      <trkpt lat="42.458950000" lon="-2.465218000">
        <ele>401.20</ele>
        <time>2017-02-11T05:58:57Z</time>
      </trkpt>
      <trkpt lat="42.458948000" lon="-2.465221000">
        <ele>401.20</ele>
        <time>2017-02-11T05:58:58Z</time>
      </trkpt>
      <trkpt lat="42.458947000" lon="-2.465223000">
        <ele>401.10</ele>
        <time>2017-02-11T05:58:59Z</time>
      </trkpt>
      <trkpt lat="42.458947000" lon="-2.465226000">
        <ele>401.00</ele>
        <time>2017-02-11T05:59:00Z</time>
      </trkpt>
      <trkpt lat="42.458946000" lon="-2.465228000">
        <ele>400.70</ele>
        <time>2017-02-11T05:59:01Z</time>
      </trkpt>
      <trkpt lat="42.458944000" lon="-2.465225000">
        <ele>400.50</ele>
        <time>2017-02-11T05:59:02Z</time>
      </trkpt>
      <trkpt lat="42.458942000" lon="-2.465224000">
        <ele>400.40</ele>
        <time>2017-02-11T05:59:03Z</time>
      </trkpt>
      <trkpt lat="42.458941000" lon="-2.465226000">
        <ele>400.20</ele>
        <time>2017-02-11T05:59:04Z</time>
      </trkpt>
      <trkpt lat="42.458939000" lon="-2.465227000">
        <ele>400.30</ele>
        <time>2017-02-11T05:59:05Z</time>
      </trkpt>
      <trkpt lat="42.458936000" lon="-2.465232000">
        <ele>400.30</ele>
        <time>2017-02-11T05:59:06Z</time>
      </trkpt>
      <trkpt lat="42.458933000" lon="-2.465232000">
        <ele>400.30</ele>
        <time>2017-02-11T05:59:07Z</time>
      </trkpt>
      <trkpt lat="42.458933000" lon="-2.465230000">
        <ele>400.40</ele>
        <time>2017-02-11T05:59:08Z</time>
      </trkpt>
      <trkpt lat="42.458933000" lon="-2.465230000">
        <ele>400.30</ele>
        <time>2017-02-11T05:59:09Z</time>
      </trkpt>
      <trkpt lat="42.458934000" lon="-2.465231000">
        <ele>400.30</ele>
        <time>2017-02-11T05:59:10Z</time>
      </trkpt>
      <trkpt lat="42.458933000" lon="-2.465235000">
        <ele>400.20</ele>
        <time>2017-02-11T05:59:11Z</time>
      </trkpt>
      <trkpt lat="42.458934000" lon="-2.465240000">
        <ele>400.20</ele>
        <time>2017-02-11T05:59:12Z</time>
      </trkpt>
      <trkpt lat="42.458933000" lon="-2.465244000">
        <ele>400.20</ele>
        <time>2017-02-11T05:59:13Z</time>
      </trkpt>
      <trkpt lat="42.458931000" lon="-2.465248000">
        <ele>400.20</ele>
        <time>2017-02-11T05:59:14Z</time>
      </trkpt>
      <trkpt lat="42.458927000" lon="-2.465255000">
        <ele>400.30</ele>
        <time>2017-02-11T05:59:16Z</time>
      </trkpt>
      <trkpt lat="42.458927000" lon="-2.465256000">
        <ele>400.30</ele>
        <time>2017-02-11T05:59:17Z</time>
      </trkpt>
      <trkpt lat="42.458926000" lon="-2.465255000">
        <ele>400.30</ele>
        <time>2017-02-11T05:59:18Z</time>
      </trkpt>
      <trkpt lat="42.458925000" lon="-2.465252000">
        <ele>400.40</ele>
        <time>2017-02-11T05:59:19Z</time>
      </trkpt>
      <trkpt lat="42.458924000" lon="-2.465249000">
        <ele>400.40</ele>
        <time>2017-02-11T05:59:20Z</time>
      </trkpt>
      <trkpt lat="42.458923000" lon="-2.465245000">
        <ele>400.40</ele>
        <time>2017-02-11T05:59:21Z</time>
      </trkpt>
      <trkpt lat="42.458924000" lon="-2.465242000">
        <ele>400.30</ele>
        <time>2017-02-11T05:59:22Z</time>
      </trkpt>
      <trkpt lat="42.458924000" lon="-2.465237000">
        <ele>400.30</ele>
        <time>2017-02-11T05:59:23Z</time>
      </trkpt>
      <trkpt lat="42.458924000" lon="-2.465235000">
        <ele>400.30</ele>
        <time>2017-02-11T05:59:24Z</time>
      </trkpt>
      <trkpt lat="42.458926000" lon="-2.465232000">
        <ele>400.30</ele>
        <time>2017-02-11T05:59:25Z</time>
      </trkpt>
      <trkpt lat="42.458928000" lon="-2.465229000">
        <ele>400.30</ele>
        <time>2017-02-11T05:59:26Z</time>
      </trkpt>
      <trkpt lat="42.458929000" lon="-2.465227000">
        <ele>400.50</ele>
        <time>2017-02-11T05:59:27Z</time>
      </trkpt>
      <trkpt lat="42.458929000" lon="-2.465228000">
        <ele>400.60</ele>
        <time>2017-02-11T05:59:28Z</time>
      </trkpt>
      <trkpt lat="42.458928000" lon="-2.465226000">
        <ele>400.60</ele>
        <time>2017-02-11T05:59:29Z</time>
      </trkpt>
      <trkpt lat="42.458927000" lon="-2.465224000">
        <ele>400.60</ele>
        <time>2017-02-11T05:59:30Z</time>
      </trkpt>
      <trkpt lat="42.458928000" lon="-2.465223000">
        <ele>400.60</ele>
        <time>2017-02-11T05:59:31Z</time>
      </trkpt>
      <trkpt lat="42.458929000" lon="-2.465225000">
        <ele>400.60</ele>
        <time>2017-02-11T05:59:32Z</time>
      </trkpt>
      <trkpt lat="42.458930000" lon="-2.465225000">
        <ele>400.50</ele>
        <time>2017-02-11T05:59:33Z</time>
      </trkpt>
      <trkpt lat="42.458934000" lon="-2.465227000">
        <ele>400.50</ele>
        <time>2017-02-11T05:59:34Z</time>
      </trkpt>
      <trkpt lat="42.458940000" lon="-2.465224000">
        <ele>400.40</ele>
        <time>2017-02-11T05:59:35Z</time>
      </trkpt>
      <trkpt lat="42.458945000" lon="-2.465225000">
        <ele>400.30</ele>
        <time>2017-02-11T05:59:36Z</time>
      </trkpt>
      <trkpt lat="42.458950000" lon="-2.465227000">
        <ele>400.20</ele>
        <time>2017-02-11T05:59:37Z</time>
      </trkpt>
      <trkpt lat="42.458955000" lon="-2.465225000">
        <ele>400.20</ele>
        <time>2017-02-11T05:59:38Z</time>
      </trkpt>
      <trkpt lat="42.458959000" lon="-2.465223000">
        <ele>400.20</ele>
        <time>2017-02-11T05:59:39Z</time>
      </trkpt>
      <trkpt lat="42.458962000" lon="-2.465224000">
        <ele>400.10</ele>
        <time>2017-02-11T05:59:40Z</time>
      </trkpt>
      <trkpt lat="42.458965000" lon="-2.465226000">
        <ele>400.20</ele>
        <time>2017-02-11T05:59:41Z</time>
      </trkpt>
      <trkpt lat="42.458968000" lon="-2.465226000">
        <ele>400.30</ele>
        <time>2017-02-11T05:59:42Z</time>
      </trkpt>
      <trkpt lat="42.458971000" lon="-2.465229000">
        <ele>400.30</ele>
        <time>2017-02-11T05:59:43Z</time>
      </trkpt>
      <trkpt lat="42.458975000" lon="-2.465230000">
        <ele>400.40</ele>
        <time>2017-02-11T05:59:44Z</time>
      </trkpt>
      <trkpt lat="42.458975000" lon="-2.465224000">
        <ele>400.50</ele>
        <time>2017-02-11T05:59:45Z</time>
      </trkpt>
      <trkpt lat="42.458980000" lon="-2.465223000">
        <ele>400.50</ele>
        <time>2017-02-11T05:59:46Z</time>
      </trkpt>
      <trkpt lat="42.458982000" lon="-2.465214000">
        <ele>400.60</ele>
        <time>2017-02-11T05:59:47Z</time>
      </trkpt>
      <trkpt lat="42.458982000" lon="-2.465208000">
        <ele>400.60</ele>
        <time>2017-02-11T05:59:48Z</time>
      </trkpt>
      <trkpt lat="42.458980000" lon="-2.465202000">
        <ele>400.60</ele>
        <time>2017-02-11T05:59:49Z</time>
      </trkpt>
      <trkpt lat="42.458980000" lon="-2.465196000">
        <ele>400.60</ele>
        <time>2017-02-11T05:59:50Z</time>
      </trkpt>
      <trkpt lat="42.458976000" lon="-2.465190000">
        <ele>400.60</ele>
        <time>2017-02-11T05:59:51Z</time>
      </trkpt>
      <trkpt lat="42.458973000" lon="-2.465189000">
        <ele>400.50</ele>
        <time>2017-02-11T05:59:52Z</time>
      </trkpt>
      <trkpt lat="42.458971000" lon="-2.465186000">
        <ele>400.50</ele>
        <time>2017-02-11T05:59:53Z</time>
      </trkpt>
      <trkpt lat="42.458966000" lon="-2.465185000">
        <ele>400.50</ele>
        <time>2017-02-11T05:59:54Z</time>
      </trkpt>
      <trkpt lat="42.458960000" lon="-2.465183000">
        <ele>400.40</ele>
        <time>2017-02-11T05:59:55Z</time>
      </trkpt>
      <trkpt lat="42.458956000" lon="-2.465180000">
        <ele>400.40</ele>
        <time>2017-02-11T05:59:56Z</time>
      </trkpt>
      <trkpt lat="42.458952000" lon="-2.465182000">
        <ele>400.40</ele>
        <time>2017-02-11T05:59:57Z</time>
      </trkpt>
      <trkpt lat="42.458950000" lon="-2.465181000">
        <ele>400.30</ele>
        <time>2017-02-11T05:59:58Z</time>
      </trkpt>
      <trkpt lat="42.458950000" lon="-2.465179000">
        <ele>400.30</ele>
        <time>2017-02-11T05:59:59Z</time>
      </trkpt>
      <trkpt lat="42.458949000" lon="-2.465176000">
        <ele>400.30</ele>
        <time>2017-02-11T06:00:00Z</time>
      </trkpt>
      <trkpt lat="42.458952000" lon="-2.465174000">
        <ele>400.30</ele>
        <time>2017-02-11T06:00:01Z</time>
      </trkpt>
      <trkpt lat="42.458960000" lon="-2.465172000">
        <ele>400.30</ele>
        <time>2017-02-11T06:00:02Z</time>
      </trkpt>
      <trkpt lat="42.458962000" lon="-2.465173000">
        <ele>400.30</ele>
        <time>2017-02-11T06:00:03Z</time>
      </trkpt>
      <trkpt lat="42.458967000" lon="-2.465175000">
        <ele>400.20</ele>
        <time>2017-02-11T06:00:04Z</time>
      </trkpt>
      <trkpt lat="42.458969000" lon="-2.465183000">
        <ele>400.20</ele>
        <time>2017-02-11T06:00:05Z</time>
      </trkpt>
      <trkpt lat="42.458971000" lon="-2.465188000">
        <ele>400.20</ele>
        <time>2017-02-11T06:00:06Z</time>
      </trkpt>
      <trkpt lat="42.458972000" lon="-2.465191000">
        <ele>400.20</ele>
        <time>2017-02-11T06:00:07Z</time>
      </trkpt>
      <trkpt lat="42.458972000" lon="-2.465195000">
        <ele>400.20</ele>
        <time>2017-02-11T06:00:08Z</time>
      </trkpt>
      <trkpt lat="42.458975000" lon="-2.465199000">
        <ele>400.30</ele>
        <time>2017-02-11T06:00:09Z</time>
      </trkpt>
      <trkpt lat="42.458983000" lon="-2.465198000">
        <ele>400.30</ele>
        <time>2017-02-11T06:00:10Z</time>
      </trkpt>
      <trkpt lat="42.458992000" lon="-2.465203000">
        <ele>400.40</ele>
        <time>2017-02-11T06:00:11Z</time>
      </trkpt>
      <trkpt lat="42.459001000" lon="-2.465206000">
        <ele>400.40</ele>
        <time>2017-02-11T06:00:12Z</time>
      </trkpt>
      <trkpt lat="42.459007000" lon="-2.465210000">
        <ele>400.40</ele>
        <time>2017-02-11T06:00:13Z</time>
      </trkpt>
      <trkpt lat="42.459011000" lon="-2.465217000">
        <ele>400.50</ele>
        <time>2017-02-11T06:00:14Z</time>
      </trkpt>
      <trkpt lat="42.459014000" lon="-2.465226000">
        <ele>400.50</ele>
        <time>2017-02-11T06:00:15Z</time>
      </trkpt>
      <trkpt lat="42.459016000" lon="-2.465232000">
        <ele>400.50</ele>
        <time>2017-02-11T06:00:16Z</time>
      </trkpt>
      <trkpt lat="42.459020000" lon="-2.465245000">
        <ele>400.40</ele>
        <time>2017-02-11T06:00:18Z</time>
      </trkpt>
      <trkpt lat="42.459024000" lon="-2.465251000">
        <ele>400.40</ele>
        <time>2017-02-11T06:00:19Z</time>
      </trkpt>
      <trkpt lat="42.459027000" lon="-2.465255000">
        <ele>400.30</ele>
        <time>2017-02-11T06:00:20Z</time>
      </trkpt>
      <trkpt lat="42.459030000" lon="-2.465265000">
        <ele>400.30</ele>
        <time>2017-02-11T06:00:21Z</time>
      </trkpt>
      <trkpt lat="42.459032000" lon="-2.465275000">
        <ele>400.20</ele>
        <time>2017-02-11T06:00:22Z</time>
      </trkpt>
      <trkpt lat="42.459033000" lon="-2.465280000">
        <ele>400.20</ele>
        <time>2017-02-11T06:00:23Z</time>
      </trkpt>
      <trkpt lat="42.459034000" lon="-2.465284000">
        <ele>400.20</ele>
        <time>2017-02-11T06:00:24Z</time>
      </trkpt>
      <trkpt lat="42.459032000" lon="-2.465282000">
        <ele>400.30</ele>
        <time>2017-02-11T06:00:25Z</time>
      </trkpt>
      <trkpt lat="42.459033000" lon="-2.465282000">
        <ele>400.30</ele>
        <time>2017-02-11T06:00:26Z</time>
      </trkpt>
      <trkpt lat="42.459035000" lon="-2.465280000">
        <ele>400.30</ele>
        <time>2017-02-11T06:00:27Z</time>
      </trkpt>
      <trkpt lat="42.459035000" lon="-2.465278000">
        <ele>400.20</ele>
        <time>2017-02-11T06:00:28Z</time>
      </trkpt>
      <trkpt lat="42.459041000" lon="-2.465277000">
        <ele>400.20</ele>
        <time>2017-02-11T06:00:29Z</time>
      </trkpt>
      <trkpt lat="42.459044000" lon="-2.465276000">
        <ele>400.20</ele>
        <time>2017-02-11T06:00:30Z</time>
      </trkpt>
      <trkpt lat="42.459047000" lon="-2.465275000">
        <ele>400.20</ele>
        <time>2017-02-11T06:00:31Z</time>
      </trkpt>
      <trkpt lat="42.459048000" lon="-2.465276000">
        <ele>400.20</ele>
        <time>2017-02-11T06:00:32Z</time>
      </trkpt>
      <trkpt lat="42.459050000" lon="-2.465275000">
        <ele>400.20</ele>
        <time>2017-02-11T06:00:33Z</time>
      </trkpt>
      <trkpt lat="42.459051000" lon="-2.465275000">
        <ele>400.20</ele>
        <time>2017-02-11T06:00:34Z</time>
      </trkpt>
      <trkpt lat="42.459051000" lon="-2.465276000">
        <ele>400.20</ele>
        <time>2017-02-11T06:00:35Z</time>
      </trkpt>
      <trkpt lat="42.459050000" lon="-2.465276000">
        <ele>400.30</ele>
        <time>2017-02-11T06:00:36Z</time>
      </trkpt>
      <trkpt lat="42.459050000" lon="-2.465275000">
        <ele>400.40</ele>
        <time>2017-02-11T06:00:37Z</time>
      </trkpt>
      <trkpt lat="42.459049000" lon="-2.465277000">
        <ele>400.40</ele>
        <time>2017-02-11T06:00:38Z</time>
      </trkpt>
      <trkpt lat="42.459049000" lon="-2.465274000">
        <ele>400.60</ele>
        <time>2017-02-11T06:00:39Z</time>
      </trkpt>
      <trkpt lat="42.459045000" lon="-2.465273000">
        <ele>400.70</ele>
        <time>2017-02-11T06:00:40Z</time>
      </trkpt>
      <trkpt lat="42.459040000" lon="-2.465270000">
        <ele>400.70</ele>
        <time>2017-02-11T06:00:41Z</time>
      </trkpt>
      <trkpt lat="42.459032000" lon="-2.465269000">
        <ele>400.80</ele>
        <time>2017-02-11T06:00:42Z</time>
      </trkpt>
      <trkpt lat="42.459024000" lon="-2.465267000">
        <ele>400.90</ele>
        <time>2017-02-11T06:00:43Z</time>
      </trkpt>
      <trkpt lat="42.459015000" lon="-2.465266000">
        <ele>401.00</ele>
        <time>2017-02-11T06:00:44Z</time>
      </trkpt>
      <trkpt lat="42.459003000" lon="-2.465268000">
        <ele>400.90</ele>
        <time>2017-02-11T06:00:45Z</time>
      </trkpt>
      <trkpt lat="42.458994000" lon="-2.465272000">
        <ele>400.90</ele>
        <time>2017-02-11T06:00:46Z</time>
      </trkpt>
      <trkpt lat="42.458985000" lon="-2.465274000">
        <ele>400.90</ele>
        <time>2017-02-11T06:00:47Z</time>
      </trkpt>
      <trkpt lat="42.458978000" lon="-2.465276000">
        <ele>400.90</ele>
        <time>2017-02-11T06:00:48Z</time>
      </trkpt>
      <trkpt lat="42.458972000" lon="-2.465281000">
        <ele>400.90</ele>
        <time>2017-02-11T06:00:49Z</time>
      </trkpt>
      <trkpt lat="42.458966000" lon="-2.465285000">
        <ele>400.90</ele>
        <time>2017-02-11T06:00:50Z</time>
      </trkpt>
      <trkpt lat="42.458961000" lon="-2.465290000">
        <ele>400.90</ele>
        <time>2017-02-11T06:00:51Z</time>
      </trkpt>
      <trkpt lat="42.458959000" lon="-2.465296000">
        <ele>401.00</ele>
        <time>2017-02-11T06:00:52Z</time>
      </trkpt>
      <trkpt lat="42.458957000" lon="-2.465302000">
        <ele>401.00</ele>
        <time>2017-02-11T06:00:53Z</time>
      </trkpt>
      <trkpt lat="42.458957000" lon="-2.465305000">
        <ele>401.00</ele>
        <time>2017-02-11T06:00:54Z</time>
      </trkpt>
      <trkpt lat="42.458956000" lon="-2.465307000">
        <ele>401.00</ele>
        <time>2017-02-11T06:00:55Z</time>
      </trkpt>
      <trkpt lat="42.458956000" lon="-2.465310000">
        <ele>401.10</ele>
        <time>2017-02-11T06:00:56Z</time>
      </trkpt>
      <trkpt lat="42.458958000" lon="-2.465310000">
        <ele>401.00</ele>
        <time>2017-02-11T06:00:57Z</time>
      </trkpt>
      <trkpt lat="42.458959000" lon="-2.465307000">
        <ele>401.00</ele>
        <time>2017-02-11T06:00:58Z</time>
      </trkpt>
      <trkpt lat="42.458959000" lon="-2.465302000">
        <ele>400.90</ele>
        <time>2017-02-11T06:00:59Z</time>
      </trkpt>
      <trkpt lat="42.458959000" lon="-2.465298000">
        <ele>400.90</ele>
        <time>2017-02-11T06:01:00Z</time>
      </trkpt>
      <trkpt lat="42.458958000" lon="-2.465294000">
        <ele>400.90</ele>
        <time>2017-02-11T06:01:01Z</time>
      </trkpt>
      <trkpt lat="42.458955000" lon="-2.465282000">
        <ele>400.90</ele>
        <time>2017-02-11T06:01:02Z</time>
      </trkpt>
      <trkpt lat="42.458954000" lon="-2.465274000">
        <ele>400.90</ele>
        <time>2017-02-11T06:01:03Z</time>
      </trkpt>
      <trkpt lat="42.458951000" lon="-2.465263000">
        <ele>400.90</ele>
        <time>2017-02-11T06:01:04Z</time>
      </trkpt>
      <trkpt lat="42.458946000" lon="-2.465253000">
        <ele>400.90</ele>
        <time>2017-02-11T06:01:05Z</time>
      </trkpt>
      <trkpt lat="42.458945000" lon="-2.465247000">
        <ele>400.90</ele>
        <time>2017-02-11T06:01:06Z</time>
      </trkpt>
      <trkpt lat="42.458946000" lon="-2.465242000">
        <ele>400.80</ele>
        <time>2017-02-11T06:01:07Z</time>
      </trkpt>
      <trkpt lat="42.458946000" lon="-2.465235000">
        <ele>400.80</ele>
        <time>2017-02-11T06:01:08Z</time>
      </trkpt>
      <trkpt lat="42.458944000" lon="-2.465227000">
        <ele>400.80</ele>
        <time>2017-02-11T06:01:09Z</time>
      </trkpt>
      <trkpt lat="42.458940000" lon="-2.465226000">
        <ele>400.80</ele>
        <time>2017-02-11T06:01:10Z</time>
      </trkpt>
      <trkpt lat="42.458936000" lon="-2.465219000">
        <ele>400.80</ele>
        <time>2017-02-11T06:01:11Z</time>
      </trkpt>
      <trkpt lat="42.458934000" lon="-2.465210000">
        <ele>400.80</ele>
        <time>2017-02-11T06:01:12Z</time>
      </trkpt>
      <trkpt lat="42.458933000" lon="-2.465200000">
        <ele>400.80</ele>
        <time>2017-02-11T06:01:13Z</time>
      </trkpt>
      <trkpt lat="42.458929000" lon="-2.465194000">
        <ele>400.80</ele>
        <time>2017-02-11T06:01:14Z</time>
      </trkpt>
      <trkpt lat="42.458927000" lon="-2.465186000">
        <ele>400.80</ele>
        <time>2017-02-11T06:01:15Z</time>
      </trkpt>
      <trkpt lat="42.458924000" lon="-2.465177000">
        <ele>400.80</ele>
        <time>2017-02-11T06:01:16Z</time>
      </trkpt>
      <trkpt lat="42.458921000" lon="-2.465169000">
        <ele>400.80</ele>
        <time>2017-02-11T06:01:17Z</time>
      </trkpt>
      <trkpt lat="42.458921000" lon="-2.465155000">
        <ele>400.70</ele>
        <time>2017-02-11T06:01:19Z</time>
      </trkpt>
      <trkpt lat="42.458920000" lon="-2.465149000">
        <ele>400.70</ele>
        <time>2017-02-11T06:01:20Z</time>
      </trkpt>
      <trkpt lat="42.458915000" lon="-2.465147000">
        <ele>400.80</ele>
        <time>2017-02-11T06:01:21Z</time>
      </trkpt>
      <trkpt lat="42.458913000" lon="-2.465143000">
        <ele>400.90</ele>
        <time>2017-02-11T06:01:22Z</time>
      </trkpt>
      <trkpt lat="42.458911000" lon="-2.465140000">
        <ele>401.10</ele>
        <time>2017-02-11T06:01:23Z</time>
      </trkpt>
      <trkpt lat="42.458913000" lon="-2.465138000">
        <ele>401.20</ele>
        <time>2017-02-11T06:01:24Z</time>
      </trkpt>
      <trkpt lat="42.458915000" lon="-2.465135000">
        <ele>401.20</ele>
        <time>2017-02-11T06:01:25Z</time>
      </trkpt>
      <trkpt lat="42.458920000" lon="-2.465131000">
        <ele>401.20</ele>
        <time>2017-02-11T06:01:26Z</time>
      </trkpt>
      <trkpt lat="42.458924000" lon="-2.465127000">
        <ele>401.20</ele>
        <time>2017-02-11T06:01:27Z</time>
      </trkpt>
      <trkpt lat="42.458927000" lon="-2.465125000">
        <ele>401.10</ele>
        <time>2017-02-11T06:01:28Z</time>
      </trkpt>
      <trkpt lat="42.458931000" lon="-2.465124000">
        <ele>401.00</ele>
        <time>2017-02-11T06:01:29Z</time>
      </trkpt>
      <trkpt lat="42.458934000" lon="-2.465120000">
        <ele>401.00</ele>
        <time>2017-02-11T06:01:30Z</time>
      </trkpt>
      <trkpt lat="42.458937000" lon="-2.465115000">
        <ele>400.80</ele>
        <time>2017-02-11T06:01:31Z</time>
      </trkpt>
      <trkpt lat="42.458938000" lon="-2.465108000">
        <ele>400.60</ele>
        <time>2017-02-11T06:01:32Z</time>
      </trkpt>
      <trkpt lat="42.458939000" lon="-2.465105000">
        <ele>400.50</ele>
        <time>2017-02-11T06:01:33Z</time>
      </trkpt>
      <trkpt lat="42.458938000" lon="-2.465102000">
        <ele>400.50</ele>
        <time>2017-02-11T06:01:34Z</time>
      </trkpt>
      <trkpt lat="42.458936000" lon="-2.465102000">
        <ele>400.50</ele>
        <time>2017-02-11T06:01:35Z</time>
      </trkpt>
      <trkpt lat="42.458934000" lon="-2.465103000">
        <ele>400.60</ele>
        <time>2017-02-11T06:01:36Z</time>
      </trkpt>
      <trkpt lat="42.458935000" lon="-2.465103000">
        <ele>400.60</ele>
        <time>2017-02-11T06:01:37Z</time>
      </trkpt>
      <trkpt lat="42.458934000" lon="-2.465103000">
        <ele>400.70</ele>
        <time>2017-02-11T06:01:38Z</time>
      </trkpt>
      <trkpt lat="42.458934000" lon="-2.465105000">
        <ele>400.70</ele>
        <time>2017-02-11T06:01:39Z</time>
      </trkpt>
      <trkpt lat="42.458935000" lon="-2.465107000">
        <ele>400.70</ele>
        <time>2017-02-11T06:01:40Z</time>
      </trkpt>
      <trkpt lat="42.458937000" lon="-2.465110000">
        <ele>400.60</ele>
        <time>2017-02-11T06:01:41Z</time>
      </trkpt>
      <trkpt lat="42.458939000" lon="-2.465110000">
        <ele>400.60</ele>
        <time>2017-02-11T06:01:42Z</time>
      </trkpt>
      <trkpt lat="42.458941000" lon="-2.465108000">
        <ele>400.60</ele>
        <time>2017-02-11T06:01:43Z</time>
      </trkpt>
      <trkpt lat="42.458940000" lon="-2.465107000">
        <ele>400.70</ele>
        <time>2017-02-11T06:01:44Z</time>
      </trkpt>
      <trkpt lat="42.458941000" lon="-2.465107000">
        <ele>400.70</ele>
        <time>2017-02-11T06:01:45Z</time>
      </trkpt>
      <trkpt lat="42.458941000" lon="-2.465108000">
        <ele>400.80</ele>
        <time>2017-02-11T06:01:46Z</time>
      </trkpt>
      <trkpt lat="42.458940000" lon="-2.465106000">
        <ele>400.80</ele>
        <time>2017-02-11T06:01:47Z</time>
      </trkpt>
      <trkpt lat="42.458937000" lon="-2.465101000">
        <ele>400.80</ele>
        <time>2017-02-11T06:01:48Z</time>
      </trkpt>
      <trkpt lat="42.458935000" lon="-2.465096000">
        <ele>400.90</ele>
        <time>2017-02-11T06:01:49Z</time>
      </trkpt>
      <trkpt lat="42.458929000" lon="-2.465092000">
        <ele>400.90</ele>
        <time>2017-02-11T06:01:50Z</time>
      </trkpt>
      <trkpt lat="42.458924000" lon="-2.465090000">
        <ele>401.00</ele>
        <time>2017-02-11T06:01:51Z</time>
      </trkpt>
      <trkpt lat="42.458918000" lon="-2.465086000">
        <ele>401.00</ele>
        <time>2017-02-11T06:01:52Z</time>
      </trkpt>
      <trkpt lat="42.458913000" lon="-2.465083000">
        <ele>401.10</ele>
        <time>2017-02-11T06:01:53Z</time>
      </trkpt>
      <trkpt lat="42.458911000" lon="-2.465079000">
        <ele>401.10</ele>
        <time>2017-02-11T06:01:54Z</time>
      </trkpt>
      <trkpt lat="42.458909000" lon="-2.465078000">
        <ele>401.10</ele>
        <time>2017-02-11T06:01:55Z</time>
      </trkpt>
      <trkpt lat="42.458905000" lon="-2.465082000">
        <ele>401.10</ele>
        <time>2017-02-11T06:01:56Z</time>
      </trkpt>
      <trkpt lat="42.458900000" lon="-2.465081000">
        <ele>401.10</ele>
        <time>2017-02-11T06:01:57Z</time>
      </trkpt>
      <trkpt lat="42.458895000" lon="-2.465087000">
        <ele>401.00</ele>
        <time>2017-02-11T06:01:58Z</time>
      </trkpt>
      <trkpt lat="42.458890000" lon="-2.465092000">
        <ele>401.10</ele>
        <time>2017-02-11T06:01:59Z</time>
      </trkpt>
      <trkpt lat="42.458886000" lon="-2.465097000">
        <ele>401.10</ele>
        <time>2017-02-11T06:02:00Z</time>
      </trkpt>
      <trkpt lat="42.458885000" lon="-2.465099000">
        <ele>401.10</ele>
        <time>2017-02-11T06:02:01Z</time>
      </trkpt>
      <trkpt lat="42.458885000" lon="-2.465103000">
        <ele>401.00</ele>
        <time>2017-02-11T06:02:02Z</time>
      </trkpt>
      <trkpt lat="42.458885000" lon="-2.465109000">
        <ele>401.00</ele>
        <time>2017-02-11T06:02:03Z</time>
      </trkpt>
      <trkpt lat="42.458885000" lon="-2.465108000">
        <ele>401.00</ele>
        <time>2017-02-11T06:02:04Z</time>
      </trkpt>
      <trkpt lat="42.458885000" lon="-2.465109000">
        <ele>400.80</ele>
        <time>2017-02-11T06:02:05Z</time>
      </trkpt>
      <trkpt lat="42.458886000" lon="-2.465105000">
        <ele>400.60</ele>
        <time>2017-02-11T06:02:06Z</time>
      </trkpt>
      <trkpt lat="42.458886000" lon="-2.465103000">
        <ele>400.50</ele>
        <time>2017-02-11T06:02:07Z</time>
      </trkpt>
      <trkpt lat="42.458887000" lon="-2.465101000">
        <ele>400.40</ele>
        <time>2017-02-11T06:02:08Z</time>
      </trkpt>
      <trkpt lat="42.458887000" lon="-2.465099000">
        <ele>400.30</ele>
        <time>2017-02-11T06:02:09Z</time>
      </trkpt>
      <trkpt lat="42.458887000" lon="-2.465095000">
        <ele>400.30</ele>
        <time>2017-02-11T06:02:10Z</time>
      </trkpt>
      <trkpt lat="42.458886000" lon="-2.465092000">
        <ele>400.30</ele>
        <time>2017-02-11T06:02:11Z</time>
      </trkpt>
      <trkpt lat="42.458886000" lon="-2.465086000">
        <ele>400.30</ele>
        <time>2017-02-11T06:02:12Z</time>
      </trkpt>
      <trkpt lat="42.458887000" lon="-2.465081000">
        <ele>400.30</ele>
        <time>2017-02-11T06:02:13Z</time>
      </trkpt>
      <trkpt lat="42.458888000" lon="-2.465078000">
        <ele>400.30</ele>
        <time>2017-02-11T06:02:14Z</time>
      </trkpt>
      <trkpt lat="42.458891000" lon="-2.465074000">
        <ele>400.40</ele>
        <time>2017-02-11T06:02:15Z</time>
      </trkpt>
      <trkpt lat="42.458893000" lon="-2.465073000">
        <ele>400.40</ele>
        <time>2017-02-11T06:02:16Z</time>
      </trkpt>
      <trkpt lat="42.458895000" lon="-2.465073000">
        <ele>400.50</ele>
        <time>2017-02-11T06:02:17Z</time>
      </trkpt>
      <trkpt lat="42.458899000" lon="-2.465071000">
        <ele>400.50</ele>
        <time>2017-02-11T06:02:18Z</time>
      </trkpt>
      <trkpt lat="42.458902000" lon="-2.465073000">
        <ele>400.60</ele>
        <time>2017-02-11T06:02:19Z</time>
      </trkpt>
      <trkpt lat="42.458914000" lon="-2.465062000">
        <ele>400.70</ele>
        <time>2017-02-11T06:02:21Z</time>
      </trkpt>
      <trkpt lat="42.458919000" lon="-2.465057000">
        <ele>400.70</ele>
        <time>2017-02-11T06:02:22Z</time>
      </trkpt>
      <trkpt lat="42.458925000" lon="-2.465053000">
        <ele>400.70</ele>
        <time>2017-02-11T06:02:23Z</time>
      </trkpt>
      <trkpt lat="42.458931000" lon="-2.465052000">
        <ele>400.70</ele>
        <time>2017-02-11T06:02:24Z</time>
      </trkpt>
      <trkpt lat="42.458938000" lon="-2.465050000">
        <ele>400.80</ele>
        <time>2017-02-11T06:02:25Z</time>
      </trkpt>
      <trkpt lat="42.458945000" lon="-2.465050000">
        <ele>400.80</ele>
        <time>2017-02-11T06:02:26Z</time>
      </trkpt>
      <trkpt lat="42.458950000" lon="-2.465054000">
        <ele>400.90</ele>
        <time>2017-02-11T06:02:27Z</time>
      </trkpt>
      <trkpt lat="42.458953000" lon="-2.465060000">
        <ele>400.90</ele>
        <time>2017-02-11T06:02:28Z</time>
      </trkpt>
      <trkpt lat="42.458954000" lon="-2.465068000">
        <ele>401.00</ele>
        <time>2017-02-11T06:02:29Z</time>
      </trkpt>
      <trkpt lat="42.458955000" lon="-2.465074000">
        <ele>401.00</ele>
        <time>2017-02-11T06:02:30Z</time>
      </trkpt>
      <trkpt lat="42.458956000" lon="-2.465083000">
        <ele>401.00</ele>
        <time>2017-02-11T06:02:31Z</time>
      </trkpt>
      <trkpt lat="42.458958000" lon="-2.465087000">
        <ele>401.00</ele>
        <time>2017-02-11T06:02:32Z</time>
      </trkpt>
      <trkpt lat="42.458960000" lon="-2.465093000">
        <ele>400.90</ele>
        <time>2017-02-11T06:02:33Z</time>
      </trkpt>
      <trkpt lat="42.458960000" lon="-2.465099000">
        <ele>400.90</ele>
        <time>2017-02-11T06:02:34Z</time>
      </trkpt>
      <trkpt lat="42.458962000" lon="-2.465102000">
        <ele>400.70</ele>
        <time>2017-02-11T06:02:35Z</time>
      </trkpt>
      <trkpt lat="42.458962000" lon="-2.465109000">
        <ele>400.60</ele>
        <time>2017-02-11T06:02:36Z</time>
      </trkpt>
      <trkpt lat="42.458963000" lon="-2.465114000">
        <ele>400.50</ele>
        <time>2017-02-11T06:02:37Z</time>
      </trkpt>
      <trkpt lat="42.458962000" lon="-2.465121000">
        <ele>400.40</ele>
        <time>2017-02-11T06:02:38Z</time>
      </trkpt>
      <trkpt lat="42.458961000" lon="-2.465130000">
        <ele>400.40</ele>
        <time>2017-02-11T06:02:39Z</time>
      </trkpt>
      <trkpt lat="42.458962000" lon="-2.465138000">
        <ele>400.40</ele>
        <time>2017-02-11T06:02:40Z</time>
      </trkpt>
      <trkpt lat="42.458962000" lon="-2.465145000">
        <ele>400.50</ele>
        <time>2017-02-11T06:02:41Z</time>
      </trkpt>
      <trkpt lat="42.458959000" lon="-2.465152000">
        <ele>400.50</ele>
        <time>2017-02-11T06:02:42Z</time>
      </trkpt>
      <trkpt lat="42.458956000" lon="-2.465160000">
        <ele>400.60</ele>
        <time>2017-02-11T06:02:43Z</time>
      </trkpt>
      <trkpt lat="42.458953000" lon="-2.465166000">
        <ele>400.60</ele>
        <time>2017-02-11T06:02:44Z</time>
      </trkpt>
      <trkpt lat="42.458949000" lon="-2.465172000">
        <ele>400.70</ele>
        <time>2017-02-11T06:02:45Z</time>
      </trkpt>
      <trkpt lat="42.458946000" lon="-2.465177000">
        <ele>400.70</ele>
        <time>2017-02-11T06:02:46Z</time>
      </trkpt>
      <trkpt lat="42.458943000" lon="-2.465178000">
        <ele>400.70</ele>
        <time>2017-02-11T06:02:47Z</time>
      </trkpt>
      <trkpt lat="42.458940000" lon="-2.465180000">
        <ele>400.70</ele>
        <time>2017-02-11T06:02:48Z</time>
      </trkpt>
      <trkpt lat="42.458938000" lon="-2.465177000">
        <ele>400.70</ele>
        <time>2017-02-11T06:02:49Z</time>
      </trkpt>
      <trkpt lat="42.458937000" lon="-2.465176000">
        <ele>400.70</ele>
        <time>2017-02-11T06:02:50Z</time>
      </trkpt>
      <trkpt lat="42.458935000" lon="-2.465178000">
        <ele>400.70</ele>
        <time>2017-02-11T06:02:51Z</time>
      </trkpt>
      <trkpt lat="42.458933000" lon="-2.465180000">
        <ele>400.70</ele>
        <time>2017-02-11T06:02:52Z</time>
      </trkpt>
      <trkpt lat="42.458930000" lon="-2.465181000">
        <ele>400.70</ele>
        <time>2017-02-11T06:02:53Z</time>
      </trkpt>
      <trkpt lat="42.458928000" lon="-2.465181000">
        <ele>400.70</ele>
        <time>2017-02-11T06:02:54Z</time>
      </trkpt>
      <trkpt lat="42.458925000" lon="-2.465177000">
        <ele>400.70</ele>
        <time>2017-02-11T06:02:55Z</time>
      </trkpt>
      <trkpt lat="42.458921000" lon="-2.465174000">
        <ele>400.70</ele>
        <time>2017-02-11T06:02:56Z</time>
      </trkpt>
      <trkpt lat="42.458919000" lon="-2.465171000">
        <ele>400.70</ele>
        <time>2017-02-11T06:02:57Z</time>
      </trkpt>
      <trkpt lat="42.458917000" lon="-2.465169000">
        <ele>400.70</ele>
        <time>2017-02-11T06:02:58Z</time>
      </trkpt>
      <trkpt lat="42.458914000" lon="-2.465167000">
        <ele>400.60</ele>
        <time>2017-02-11T06:02:59Z</time>
      </trkpt>
      <trkpt lat="42.458912000" lon="-2.465164000">
        <ele>400.60</ele>
        <time>2017-02-11T06:03:00Z</time>
      </trkpt>
      <trkpt lat="42.458912000" lon="-2.465161000">
        <ele>400.60</ele>
        <time>2017-02-11T06:03:01Z</time>
      </trkpt>
      <trkpt lat="42.458912000" lon="-2.465158000">
        <ele>400.60</ele>
        <time>2017-02-11T06:03:02Z</time>
      </trkpt>
      <trkpt lat="42.458912000" lon="-2.465155000">
        <ele>400.60</ele>
        <time>2017-02-11T06:03:03Z</time>
      </trkpt>
      <trkpt lat="42.458910000" lon="-2.465154000">
        <ele>400.70</ele>
        <time>2017-02-11T06:03:04Z</time>
      </trkpt>
      <trkpt lat="42.458908000" lon="-2.465153000">
        <ele>400.80</ele>
        <time>2017-02-11T06:03:05Z</time>
      </trkpt>
      <trkpt lat="42.458905000" lon="-2.465151000">
        <ele>400.70</ele>
        <time>2017-02-11T06:03:06Z</time>
      </trkpt>
      <trkpt lat="42.458902000" lon="-2.465151000">
        <ele>400.70</ele>
        <time>2017-02-11T06:03:07Z</time>
      </trkpt>
      <trkpt lat="42.458899000" lon="-2.465151000">
        <ele>400.60</ele>
        <time>2017-02-11T06:03:08Z</time>
      </trkpt>
      <trkpt lat="42.458900000" lon="-2.465150000">
        <ele>400.60</ele>
        <time>2017-02-11T06:03:09Z</time>
      </trkpt>
      <trkpt lat="42.458903000" lon="-2.465148000">
        <ele>400.50</ele>
        <time>2017-02-11T06:03:10Z</time>
      </trkpt>
      <trkpt lat="42.458906000" lon="-2.465145000">
        <ele>400.40</ele>
        <time>2017-02-11T06:03:11Z</time>
      </trkpt>
      <trkpt lat="42.458907000" lon="-2.465143000">
        <ele>400.40</ele>
        <time>2017-02-11T06:03:12Z</time>
      </trkpt>
      <trkpt lat="42.458908000" lon="-2.465145000">
        <ele>400.40</ele>
        <time>2017-02-11T06:03:13Z</time>
      </trkpt>
      <trkpt lat="42.458907000" lon="-2.465142000">
        <ele>400.30</ele>
        <time>2017-02-11T06:03:14Z</time>
      </trkpt>
      <trkpt lat="42.458908000" lon="-2.465138000">
        <ele>400.30</ele>
        <time>2017-02-11T06:03:15Z</time>
      </trkpt>
      <trkpt lat="42.458907000" lon="-2.465132000">
        <ele>400.40</ele>
        <time>2017-02-11T06:03:16Z</time>
      </trkpt>
      <trkpt lat="42.458907000" lon="-2.465130000">
        <ele>400.60</ele>
        <time>2017-02-11T06:03:17Z</time>
      </trkpt>
      <trkpt lat="42.458904000" lon="-2.465129000">
        <ele>400.70</ele>
        <time>2017-02-11T06:03:18Z</time>
      </trkpt>
      <trkpt lat="42.458901000" lon="-2.465129000">
        <ele>400.70</ele>
        <time>2017-02-11T06:03:19Z</time>
      </trkpt>
      <trkpt lat="42.458897000" lon="-2.465128000">
        <ele>400.80</ele>
        <time>2017-02-11T06:03:20Z</time>
      </trkpt>
      <trkpt lat="42.458894000" lon="-2.465129000">
        <ele>401.00</ele>
        <time>2017-02-11T06:03:22Z</time>
      </trkpt>
      <trkpt lat="42.458892000" lon="-2.465129000">
        <ele>401.00</ele>
        <time>2017-02-11T06:03:23Z</time>
      </trkpt>
      <trkpt lat="42.458890000" lon="-2.465128000">
        <ele>400.90</ele>
        <time>2017-02-11T06:03:24Z</time>
      </trkpt>
      <trkpt lat="42.458886000" lon="-2.465127000">
        <ele>400.80</ele>
        <time>2017-02-11T06:03:25Z</time>
      </trkpt>
      <trkpt lat="42.458885000" lon="-2.465125000">
        <ele>400.70</ele>
        <time>2017-02-11T06:03:26Z</time>
      </trkpt>
      <trkpt lat="42.458881000" lon="-2.465124000">
        <ele>400.60</ele>
        <time>2017-02-11T06:03:27Z</time>
      </trkpt>
      <trkpt lat="42.458878000" lon="-2.465122000">
        <ele>400.60</ele>
        <time>2017-02-11T06:03:28Z</time>
      </trkpt>
      <trkpt lat="42.458878000" lon="-2.465118000">
        <ele>400.50</ele>
        <time>2017-02-11T06:03:29Z</time>
      </trkpt>
      <trkpt lat="42.458876000" lon="-2.465115000">
        <ele>400.70</ele>
        <time>2017-02-11T06:03:30Z</time>
      </trkpt>
      <trkpt lat="42.458873000" lon="-2.465113000">
        <ele>400.80</ele>
        <time>2017-02-11T06:03:31Z</time>
      </trkpt>
      <trkpt lat="42.458870000" lon="-2.465110000">
        <ele>400.70</ele>
        <time>2017-02-11T06:03:32Z</time>
      </trkpt>
      <trkpt lat="42.458867000" lon="-2.465107000">
        <ele>400.70</ele>
        <time>2017-02-11T06:03:33Z</time>
      </trkpt>
      <trkpt lat="42.458863000" lon="-2.465104000">
        <ele>400.70</ele>
        <time>2017-02-11T06:03:34Z</time>
      </trkpt>
      <trkpt lat="42.458860000" lon="-2.465102000">
        <ele>400.80</ele>
        <time>2017-02-11T06:03:35Z</time>
      </trkpt>
      <trkpt lat="42.458861000" lon="-2.465099000">
        <ele>400.70</ele>
        <time>2017-02-11T06:03:36Z</time>
      </trkpt>
      <trkpt lat="42.458863000" lon="-2.465097000">
        <ele>400.70</ele>
        <time>2017-02-11T06:03:37Z</time>
      </trkpt>
      <trkpt lat="42.458865000" lon="-2.465095000">
        <ele>400.70</ele>
        <time>2017-02-11T06:03:38Z</time>
      </trkpt>
      <trkpt lat="42.458864000" lon="-2.465094000">
        <ele>400.70</ele>
        <time>2017-02-11T06:03:39Z</time>
      </trkpt>
      <trkpt lat="42.458868000" lon="-2.465092000">
        <ele>400.60</ele>
        <time>2017-02-11T06:03:40Z</time>
      </trkpt>
      <trkpt lat="42.458872000" lon="-2.465092000">
        <ele>400.40</ele>
        <time>2017-02-11T06:03:41Z</time>
      </trkpt>
      <trkpt lat="42.458876000" lon="-2.465091000">
        <ele>400.50</ele>
        <time>2017-02-11T06:03:42Z</time>
      </trkpt>
      <trkpt lat="42.458881000" lon="-2.465092000">
        <ele>400.60</ele>
        <time>2017-02-11T06:03:43Z</time>
      </trkpt>
      <trkpt lat="42.458888000" lon="-2.465092000">
        <ele>400.70</ele>
        <time>2017-02-11T06:03:44Z</time>
      </trkpt>
      <trkpt lat="42.458897000" lon="-2.465092000">
        <ele>400.70</ele>
        <time>2017-02-11T06:03:45Z</time>
      </trkpt>
      <trkpt lat="42.458906000" lon="-2.465093000">
        <ele>400.80</ele>
        <time>2017-02-11T06:03:46Z</time>
      </trkpt>
      <trkpt lat="42.458913000" lon="-2.465095000">
        <ele>400.90</ele>
        <time>2017-02-11T06:03:47Z</time>
      </trkpt>
      <trkpt lat="42.458918000" lon="-2.465099000">
        <ele>400.90</ele>
        <time>2017-02-11T06:03:48Z</time>
      </trkpt>
      <trkpt lat="42.458921000" lon="-2.465103000">
        <ele>401.00</ele>
        <time>2017-02-11T06:03:49Z</time>
      </trkpt>
      <trkpt lat="42.458923000" lon="-2.465106000">
        <ele>400.90</ele>
        <time>2017-02-11T06:03:50Z</time>
      </trkpt>
      <trkpt lat="42.458923000" lon="-2.465108000">
        <ele>400.80</ele>
        <time>2017-02-11T06:03:51Z</time>
      </trkpt>
      <trkpt lat="42.458921000" lon="-2.465110000">
        <ele>400.70</ele>
        <time>2017-02-11T06:03:52Z</time>
      </trkpt>
      <trkpt lat="42.458917000" lon="-2.465111000">
        <ele>400.70</ele>
        <time>2017-02-11T06:03:53Z</time>
      </trkpt>
      <trkpt lat="42.458914000" lon="-2.465113000">
        <ele>400.70</ele>
        <time>2017-02-11T06:03:54Z</time>
      </trkpt>
      <trkpt lat="42.458912000" lon="-2.465116000">
        <ele>400.60</ele>
        <time>2017-02-11T06:03:55Z</time>
      </trkpt>
      <trkpt lat="42.458909000" lon="-2.465123000">
        <ele>400.70</ele>
        <time>2017-02-11T06:03:56Z</time>
      </trkpt>
      <trkpt lat="42.458908000" lon="-2.465129000">
        <ele>400.70</ele>
        <time>2017-02-11T06:03:57Z</time>
      </trkpt>
      <trkpt lat="42.458905000" lon="-2.465136000">
        <ele>400.80</ele>
        <time>2017-02-11T06:03:58Z</time>
      </trkpt>
      <trkpt lat="42.458903000" lon="-2.465139000">
        <ele>400.80</ele>
        <time>2017-02-11T06:03:59Z</time>
      </trkpt>
      <trkpt lat="42.458901000" lon="-2.465143000">
        <ele>400.80</ele>
        <time>2017-02-11T06:04:00Z</time>
      </trkpt>
      <trkpt lat="42.458900000" lon="-2.465149000">
        <ele>400.80</ele>
        <time>2017-02-11T06:04:01Z</time>
      </trkpt>
      <trkpt lat="42.458898000" lon="-2.465153000">
        <ele>400.60</ele>
        <time>2017-02-11T06:04:02Z</time>
      </trkpt>
      <trkpt lat="42.458898000" lon="-2.465156000">
        <ele>400.50</ele>
        <time>2017-02-11T06:04:03Z</time>
      </trkpt>
      <trkpt lat="42.458898000" lon="-2.465157000">
        <ele>400.40</ele>
        <time>2017-02-11T06:04:04Z</time>
      </trkpt>
      <trkpt lat="42.458898000" lon="-2.465160000">
        <ele>400.30</ele>
        <time>2017-02-11T06:04:05Z</time>
      </trkpt>
      <trkpt lat="42.458900000" lon="-2.465166000">
        <ele>400.30</ele>
        <time>2017-02-11T06:04:06Z</time>
      </trkpt>
      <trkpt lat="42.458901000" lon="-2.465168000">
        <ele>400.20</ele>
        <time>2017-02-11T06:04:07Z</time>
      </trkpt>
      <trkpt lat="42.458901000" lon="-2.465171000">
        <ele>400.10</ele>
        <time>2017-02-11T06:04:08Z</time>
      </trkpt>
      <trkpt lat="42.458898000" lon="-2.465177000">
        <ele>400.00</ele>
        <time>2017-02-11T06:04:09Z</time>
      </trkpt>
      <trkpt lat="42.458897000" lon="-2.465180000">
        <ele>400.00</ele>
        <time>2017-02-11T06:04:10Z</time>
      </trkpt>
      <trkpt lat="42.458899000" lon="-2.465186000">
        <ele>400.00</ele>
        <time>2017-02-11T06:04:11Z</time>
      </trkpt>
      <trkpt lat="42.458899000" lon="-2.465192000">
        <ele>400.00</ele>
        <time>2017-02-11T06:04:12Z</time>
      </trkpt>
      <trkpt lat="42.458899000" lon="-2.465194000">
        <ele>400.10</ele>
        <time>2017-02-11T06:04:13Z</time>
      </trkpt>
      <trkpt lat="42.458898000" lon="-2.465199000">
        <ele>400.20</ele>
        <time>2017-02-11T06:04:14Z</time>
      </trkpt>
      <trkpt lat="42.458897000" lon="-2.465201000">
        <ele>400.40</ele>
        <time>2017-02-11T06:04:15Z</time>
      </trkpt>
      <trkpt lat="42.458895000" lon="-2.465204000">
        <ele>400.50</ele>
        <time>2017-02-11T06:04:16Z</time>
      </trkpt>
      <trkpt lat="42.458897000" lon="-2.465208000">
        <ele>400.60</ele>
        <time>2017-02-11T06:04:17Z</time>
      </trkpt>
      <trkpt lat="42.458897000" lon="-2.465208000">
        <ele>400.50</ele>
        <time>2017-02-11T06:04:18Z</time>
      </trkpt>
      <trkpt lat="42.458900000" lon="-2.465210000">
        <ele>400.40</ele>
        <time>2017-02-11T06:04:19Z</time>
      </trkpt>
      <trkpt lat="42.458901000" lon="-2.465210000">
        <ele>400.30</ele>
        <time>2017-02-11T06:04:20Z</time>
      </trkpt>
      <trkpt lat="42.458903000" lon="-2.465212000">
        <ele>400.20</ele>
        <time>2017-02-11T06:04:21Z</time>
      </trkpt>
      <trkpt lat="42.458904000" lon="-2.465215000">
        <ele>400.30</ele>
        <time>2017-02-11T06:04:22Z</time>
      </trkpt>
      <trkpt lat="42.458904000" lon="-2.465222000">
        <ele>400.30</ele>
        <time>2017-02-11T06:04:24Z</time>
      </trkpt>
      <trkpt lat="42.458903000" lon="-2.465226000">
        <ele>400.40</ele>
        <time>2017-02-11T06:04:25Z</time>
      </trkpt>
      <trkpt lat="42.458904000" lon="-2.465224000">
        <ele>400.40</ele>
        <time>2017-02-11T06:04:26Z</time>
      </trkpt>
      <trkpt lat="42.458907000" lon="-2.465221000">
        <ele>400.40</ele>
        <time>2017-02-11T06:04:27Z</time>
      </trkpt>
      <trkpt lat="42.458912000" lon="-2.465216000">
        <ele>400.40</ele>
        <time>2017-02-11T06:04:28Z</time>
      </trkpt>
      <trkpt lat="42.458919000" lon="-2.465210000">
        <ele>400.40</ele>
        <time>2017-02-11T06:04:29Z</time>
      </trkpt>
      <trkpt lat="42.458927000" lon="-2.465200000">
        <ele>400.40</ele>
        <time>2017-02-11T06:04:30Z</time>
      </trkpt>
      <trkpt lat="42.458936000" lon="-2.465193000">
        <ele>400.50</ele>
        <time>2017-02-11T06:04:31Z</time>
      </trkpt>
      <trkpt lat="42.458945000" lon="-2.465188000">
        <ele>400.50</ele>
        <time>2017-02-11T06:04:32Z</time>
      </trkpt>
      <trkpt lat="42.458950000" lon="-2.465182000">
        <ele>400.60</ele>
        <time>2017-02-11T06:04:33Z</time>
      </trkpt>
      <trkpt lat="42.458958000" lon="-2.465178000">
        <ele>400.60</ele>
        <time>2017-02-11T06:04:34Z</time>
      </trkpt>
      <trkpt lat="42.458965000" lon="-2.465175000">
        <ele>400.70</ele>
        <time>2017-02-11T06:04:35Z</time>
      </trkpt>
      <trkpt lat="42.458969000" lon="-2.465174000">
        <ele>400.70</ele>
        <time>2017-02-11T06:04:36Z</time>
      </trkpt>
      <trkpt lat="42.458973000" lon="-2.465171000">
        <ele>400.70</ele>
        <time>2017-02-11T06:04:37Z</time>
      </trkpt>
      <trkpt lat="42.458974000" lon="-2.465171000">
        <ele>400.70</ele>
        <time>2017-02-11T06:04:38Z</time>
      </trkpt>
      <trkpt lat="42.458975000" lon="-2.465169000">
        <ele>400.70</ele>
        <time>2017-02-11T06:04:39Z</time>
      </trkpt>
      <trkpt lat="42.458976000" lon="-2.465170000">
        <ele>400.60</ele>
        <time>2017-02-11T06:04:40Z</time>
      </trkpt>
      <trkpt lat="42.458977000" lon="-2.465169000">
        <ele>400.50</ele>
        <time>2017-02-11T06:04:41Z</time>
      </trkpt>
      <trkpt lat="42.458975000" lon="-2.465170000">
        <ele>400.50</ele>
        <time>2017-02-11T06:04:42Z</time>
      </trkpt>
      <trkpt lat="42.458973000" lon="-2.465172000">
        <ele>400.40</ele>
        <time>2017-02-11T06:04:43Z</time>
      </trkpt>
      <trkpt lat="42.458972000" lon="-2.465176000">
        <ele>400.60</ele>
        <time>2017-02-11T06:04:44Z</time>
      </trkpt>
      <trkpt lat="42.458970000" lon="-2.465180000">
        <ele>400.70</ele>
        <time>2017-02-11T06:04:45Z</time>
      </trkpt>
      <trkpt lat="42.458969000" lon="-2.465183000">
        <ele>400.80</ele>
        <time>2017-02-11T06:04:46Z</time>
      </trkpt>
      <trkpt lat="42.458967000" lon="-2.465190000">
        <ele>400.80</ele>
        <time>2017-02-11T06:04:47Z</time>
      </trkpt>
      <trkpt lat="42.458964000" lon="-2.465192000">
        <ele>400.70</ele>
        <time>2017-02-11T06:04:48Z</time>
      </trkpt>
      <trkpt lat="42.458961000" lon="-2.465193000">
        <ele>400.60</ele>
        <time>2017-02-11T06:04:49Z</time>
      </trkpt>
      <trkpt lat="42.458957000" lon="-2.465194000">
        <ele>400.50</ele>
        <time>2017-02-11T06:04:50Z</time>
      </trkpt>
      <trkpt lat="42.458955000" lon="-2.465194000">
        <ele>400.40</ele>
        <time>2017-02-11T06:04:51Z</time>
      </trkpt>
      <trkpt lat="42.458955000" lon="-2.465193000">
        <ele>400.30</ele>
        <time>2017-02-11T06:04:52Z</time>
      </trkpt>
      <trkpt lat="42.458953000" lon="-2.465196000">
        <ele>400.30</ele>
        <time>2017-02-11T06:04:53Z</time>
      </trkpt>
      <trkpt lat="42.458951000" lon="-2.465199000">
        <ele>400.20</ele>
        <time>2017-02-11T06:04:54Z</time>
      </trkpt>
      <trkpt lat="42.458949000" lon="-2.465204000">
        <ele>400.10</ele>
        <time>2017-02-11T06:04:55Z</time>
      </trkpt>
      <trkpt lat="42.458951000" lon="-2.465204000">
        <ele>400.10</ele>
        <time>2017-02-11T06:04:56Z</time>
      </trkpt>
      <trkpt lat="42.458954000" lon="-2.465203000">
        <ele>400.10</ele>
        <time>2017-02-11T06:04:57Z</time>
      </trkpt>
      <trkpt lat="42.458957000" lon="-2.465202000">
        <ele>400.00</ele>
        <time>2017-02-11T06:04:58Z</time>
      </trkpt>
      <trkpt lat="42.458959000" lon="-2.465202000">
        <ele>400.00</ele>
        <time>2017-02-11T06:04:59Z</time>
      </trkpt>
      <trkpt lat="42.458960000" lon="-2.465202000">
        <ele>400.10</ele>
        <time>2017-02-11T06:05:00Z</time>
      </trkpt>
      <trkpt lat="42.458963000" lon="-2.465197000">
        <ele>400.20</ele>
        <time>2017-02-11T06:05:01Z</time>
      </trkpt>
      <trkpt lat="42.458967000" lon="-2.465193000">
        <ele>400.30</ele>
        <time>2017-02-11T06:05:02Z</time>
      </trkpt>
      <trkpt lat="42.458967000" lon="-2.465192000">
        <ele>400.30</ele>
        <time>2017-02-11T06:05:03Z</time>
      </trkpt>
      <trkpt lat="42.458966000" lon="-2.465190000">
        <ele>400.40</ele>
        <time>2017-02-11T06:05:04Z</time>
      </trkpt>
      <trkpt lat="42.458964000" lon="-2.465189000">
        <ele>400.40</ele>
        <time>2017-02-11T06:05:05Z</time>
      </trkpt>
      <trkpt lat="42.458965000" lon="-2.465190000">
        <ele>400.40</ele>
        <time>2017-02-11T06:05:06Z</time>
      </trkpt>
      <trkpt lat="42.458967000" lon="-2.465191000">
        <ele>400.40</ele>
        <time>2017-02-11T06:05:07Z</time>
      </trkpt>
      <trkpt lat="42.458968000" lon="-2.465188000">
        <ele>400.50</ele>
        <time>2017-02-11T06:05:08Z</time>
      </trkpt>
      <trkpt lat="42.458965000" lon="-2.465187000">
        <ele>400.50</ele>
        <time>2017-02-11T06:05:09Z</time>
      </trkpt>
      <trkpt lat="42.458963000" lon="-2.465186000">
        <ele>400.50</ele>
        <time>2017-02-11T06:05:10Z</time>
      </trkpt>
      <trkpt lat="42.458960000" lon="-2.465182000">
        <ele>400.50</ele>
        <time>2017-02-11T06:05:11Z</time>
      </trkpt>
      <trkpt lat="42.458958000" lon="-2.465178000">
        <ele>400.50</ele>
        <time>2017-02-11T06:05:12Z</time>
      </trkpt>
      <trkpt lat="42.458957000" lon="-2.465176000">
        <ele>400.50</ele>
        <time>2017-02-11T06:05:13Z</time>
      </trkpt>
      <trkpt lat="42.458947000" lon="-2.465182000">
        <ele>400.50</ele>
        <time>2017-02-11T06:05:14Z</time>
      </trkpt>
      <trkpt lat="42.458941000" lon="-2.465185000">
        <ele>400.50</ele>
        <time>2017-02-11T06:05:15Z</time>
      </trkpt>
      <trkpt lat="42.458940000" lon="-2.465189000">
        <ele>400.50</ele>
        <time>2017-02-11T06:05:16Z</time>
      </trkpt>
      <trkpt lat="42.458936000" lon="-2.465196000">
        <ele>400.50</ele>
        <time>2017-02-11T06:05:17Z</time>
      </trkpt>
      <trkpt lat="42.458931000" lon="-2.465211000">
        <ele>400.40</ele>
        <time>2017-02-11T06:05:18Z</time>
      </trkpt>
      <trkpt lat="42.458926000" lon="-2.465227000">
        <ele>400.40</ele>
        <time>2017-02-11T06:05:19Z</time>
      </trkpt>
      <trkpt lat="42.458924000" lon="-2.465241000">
        <ele>400.30</ele>
        <time>2017-02-11T06:05:20Z</time>
      </trkpt>
      <trkpt lat="42.458914000" lon="-2.465252000">
        <ele>400.30</ele>
        <time>2017-02-11T06:05:21Z</time>
      </trkpt>
      <trkpt lat="42.458913000" lon="-2.465250000">
        <ele>400.30</ele>
        <time>2017-02-11T06:05:22Z</time>
      </trkpt>
      <trkpt lat="42.458918000" lon="-2.465252000">
        <ele>400.30</ele>
        <time>2017-02-11T06:05:23Z</time>
      </trkpt>
      <trkpt lat="42.458923000" lon="-2.465256000">
        <ele>400.30</ele>
        <time>2017-02-11T06:05:24Z</time>
      </trkpt>
      <trkpt lat="42.458929000" lon="-2.465248000">
        <ele>400.30</ele>
        <time>2017-02-11T06:05:26Z</time>
      </trkpt>
      <trkpt lat="42.458928000" lon="-2.465248000">
        <ele>400.20</ele>
        <time>2017-02-11T06:05:27Z</time>
      </trkpt>
      <trkpt lat="42.458929000" lon="-2.465251000">
        <ele>400.40</ele>
        <time>2017-02-11T06:05:28Z</time>
      </trkpt>
      <trkpt lat="42.458928000" lon="-2.465252000">
        <ele>400.50</ele>
        <time>2017-02-11T06:05:29Z</time>
      </trkpt>
      <trkpt lat="42.458926000" lon="-2.465250000">
        <ele>400.70</ele>
        <time>2017-02-11T06:05:30Z</time>
      </trkpt>
      <trkpt lat="42.458923000" lon="-2.465247000">
        <ele>400.80</ele>
        <time>2017-02-11T06:05:31Z</time>
      </trkpt>
      <trkpt lat="42.458919000" lon="-2.465245000">
        <ele>400.80</ele>
        <time>2017-02-11T06:05:32Z</time>
      </trkpt>
      <trkpt lat="42.458916000" lon="-2.465240000">
        <ele>400.80</ele>
        <time>2017-02-11T06:05:33Z</time>
      </trkpt>
      <trkpt lat="42.458922000" lon="-2.465239000">
        <ele>400.70</ele>
        <time>2017-02-11T06:05:34Z</time>
      </trkpt>
      <trkpt lat="42.458917000" lon="-2.465264000">
        <ele>400.70</ele>
        <time>2017-02-11T06:05:35Z</time>
      </trkpt>
      <trkpt lat="42.458923000" lon="-2.465300000">
        <ele>400.50</ele>
        <time>2017-02-11T06:05:36Z</time>
      </trkpt>
      <trkpt lat="42.458939000" lon="-2.465327000">
        <ele>400.40</ele>
        <time>2017-02-11T06:05:37Z</time>
      </trkpt>
      <trkpt lat="42.458951000" lon="-2.465330000">
        <ele>400.30</ele>
        <time>2017-02-11T06:05:38Z</time>
      </trkpt>
      <trkpt lat="42.458965000" lon="-2.465330000">
        <ele>400.20</ele>
        <time>2017-02-11T06:05:39Z</time>
      </trkpt>
      <trkpt lat="42.458977000" lon="-2.465324000">
        <ele>400.20</ele>
        <time>2017-02-11T06:05:40Z</time>
      </trkpt>
      <trkpt lat="42.458989000" lon="-2.465326000">
        <ele>400.20</ele>
        <time>2017-02-11T06:05:41Z</time>
      </trkpt>
      <trkpt lat="42.459002000" lon="-2.465329000">
        <ele>400.30</ele>
        <time>2017-02-11T06:05:42Z</time>
      </trkpt>
      <trkpt lat="42.459018000" lon="-2.465342000">
        <ele>400.30</ele>
        <time>2017-02-11T06:05:43Z</time>
      </trkpt>
      <trkpt lat="42.459033000" lon="-2.465350000">
        <ele>400.40</ele>
        <time>2017-02-11T06:05:44Z</time>
      </trkpt>
      <trkpt lat="42.459051000" lon="-2.465360000">
        <ele>400.40</ele>
        <time>2017-02-11T06:05:45Z</time>
      </trkpt>
      <trkpt lat="42.459073000" lon="-2.465372000">
        <ele>400.50</ele>
        <time>2017-02-11T06:05:46Z</time>
      </trkpt>
      <trkpt lat="42.459091000" lon="-2.465388000">
        <ele>400.50</ele>
        <time>2017-02-11T06:05:47Z</time>
      </trkpt>
      <trkpt lat="42.459109000" lon="-2.465403000">
        <ele>400.60</ele>
        <time>2017-02-11T06:05:48Z</time>
      </trkpt>
      <trkpt lat="42.459127000" lon="-2.465421000">
        <ele>400.60</ele>
        <time>2017-02-11T06:05:49Z</time>
      </trkpt>
      <trkpt lat="42.459142000" lon="-2.465441000">
        <ele>400.60</ele>
        <time>2017-02-11T06:05:50Z</time>
      </trkpt>
      <trkpt lat="42.459158000" lon="-2.465462000">
        <ele>400.60</ele>
        <time>2017-02-11T06:05:51Z</time>
      </trkpt>
      <trkpt lat="42.459174000" lon="-2.465489000">
        <ele>400.60</ele>
        <time>2017-02-11T06:05:52Z</time>
      </trkpt>
      <trkpt lat="42.459188000" lon="-2.465512000">
        <ele>400.60</ele>
        <time>2017-02-11T06:05:53Z</time>
      </trkpt>
      <trkpt lat="42.459198000" lon="-2.465541000">
        <ele>400.60</ele>
        <time>2017-02-11T06:05:54Z</time>
      </trkpt>
      <trkpt lat="42.459205000" lon="-2.465569000">
        <ele>400.70</ele>
        <time>2017-02-11T06:05:55Z</time>
      </trkpt>
      <trkpt lat="42.459214000" lon="-2.465601000">
        <ele>400.70</ele>
        <time>2017-02-11T06:05:56Z</time>
      </trkpt>
      <trkpt lat="42.459223000" lon="-2.465628000">
        <ele>400.70</ele>
        <time>2017-02-11T06:05:57Z</time>
      </trkpt>
      <trkpt lat="42.459229000" lon="-2.465654000">
        <ele>400.60</ele>
        <time>2017-02-11T06:05:58Z</time>
      </trkpt>
      <trkpt lat="42.459238000" lon="-2.465685000">
        <ele>400.50</ele>
        <time>2017-02-11T06:05:59Z</time>
      </trkpt>
      <trkpt lat="42.459256000" lon="-2.465713000">
        <ele>400.60</ele>
        <time>2017-02-11T06:06:00Z</time>
      </trkpt>
      <trkpt lat="42.459278000" lon="-2.465732000">
        <ele>400.60</ele>
        <time>2017-02-11T06:06:01Z</time>
      </trkpt>
      <trkpt lat="42.459306000" lon="-2.465748000">
        <ele>400.60</ele>
        <time>2017-02-11T06:06:02Z</time>
      </trkpt>
      <trkpt lat="42.459334000" lon="-2.465764000">
        <ele>400.50</ele>
        <time>2017-02-11T06:06:03Z</time>
      </trkpt>
      <trkpt lat="42.459364000" lon="-2.465773000">
        <ele>400.40</ele>
        <time>2017-02-11T06:06:04Z</time>
      </trkpt>
      <trkpt lat="42.459402000" lon="-2.465783000">
        <ele>400.20</ele>
        <time>2017-02-11T06:06:05Z</time>
      </trkpt>
      <trkpt lat="42.459447000" lon="-2.465787000">
        <ele>400.10</ele>
        <time>2017-02-11T06:06:06Z</time>
      </trkpt>
      <trkpt lat="42.459488000" lon="-2.465795000">
        <ele>400.00</ele>
        <time>2017-02-11T06:06:07Z</time>
      </trkpt>
      <trkpt lat="42.459524000" lon="-2.465801000">
        <ele>399.90</ele>
        <time>2017-02-11T06:06:08Z</time>
      </trkpt>
      <trkpt lat="42.459558000" lon="-2.465808000">
        <ele>399.80</ele>
        <time>2017-02-11T06:06:09Z</time>
      </trkpt>
      <trkpt lat="42.459598000" lon="-2.465817000">
        <ele>399.60</ele>
        <time>2017-02-11T06:06:10Z</time>
      </trkpt>
      <trkpt lat="42.459635000" lon="-2.465830000">
        <ele>399.50</ele>
        <time>2017-02-11T06:06:11Z</time>
      </trkpt>
      <trkpt lat="42.459675000" lon="-2.465844000">
        <ele>399.30</ele>
        <time>2017-02-11T06:06:12Z</time>
      </trkpt>
      <trkpt lat="42.459706000" lon="-2.465860000">
        <ele>399.20</ele>
        <time>2017-02-11T06:06:13Z</time>
      </trkpt>
      <trkpt lat="42.459738000" lon="-2.465878000">
        <ele>399.00</ele>
        <time>2017-02-11T06:06:14Z</time>
      </trkpt>
      <trkpt lat="42.459769000" lon="-2.465887000">
        <ele>398.80</ele>
        <time>2017-02-11T06:06:15Z</time>
      </trkpt>
      <trkpt lat="42.459803000" lon="-2.465899000">
        <ele>398.70</ele>
        <time>2017-02-11T06:06:16Z</time>
      </trkpt>
      <trkpt lat="42.459834000" lon="-2.465911000">
        <ele>398.60</ele>
        <time>2017-02-11T06:06:17Z</time>
      </trkpt>
      <trkpt lat="42.459869000" lon="-2.465924000">
        <ele>398.50</ele>
        <time>2017-02-11T06:06:18Z</time>
      </trkpt>
      <trkpt lat="42.459905000" lon="-2.465937000">
        <ele>398.50</ele>
        <time>2017-02-11T06:06:19Z</time>
      </trkpt>
      <trkpt lat="42.459939000" lon="-2.465954000">
        <ele>398.50</ele>
        <time>2017-02-11T06:06:20Z</time>
      </trkpt>
      <trkpt lat="42.459978000" lon="-2.465971000">
        <ele>398.50</ele>
        <time>2017-02-11T06:06:21Z</time>
      </trkpt>
      <trkpt lat="42.460015000" lon="-2.465990000">
        <ele>398.30</ele>
        <time>2017-02-11T06:06:22Z</time>
      </trkpt>
      <trkpt lat="42.460048000" lon="-2.466008000">
        <ele>398.20</ele>
        <time>2017-02-11T06:06:23Z</time>
      </trkpt>
      <trkpt lat="42.460080000" lon="-2.466027000">
        <ele>398.00</ele>
        <time>2017-02-11T06:06:24Z</time>
      </trkpt>
      <trkpt lat="42.460109000" lon="-2.466049000">
        <ele>397.90</ele>
        <time>2017-02-11T06:06:25Z</time>
      </trkpt>
      <trkpt lat="42.460140000" lon="-2.466076000">
        <ele>397.70</ele>
        <time>2017-02-11T06:06:26Z</time>
      </trkpt>
      <trkpt lat="42.460216000" lon="-2.466123000">
        <ele>397.40</ele>
        <time>2017-02-11T06:06:28Z</time>
      </trkpt>
      <trkpt lat="42.460254000" lon="-2.466145000">
        <ele>397.30</ele>
        <time>2017-02-11T06:06:29Z</time>
      </trkpt>
      <trkpt lat="42.460294000" lon="-2.466167000">
        <ele>397.20</ele>
        <time>2017-02-11T06:06:30Z</time>
      </trkpt>
      <trkpt lat="42.460336000" lon="-2.466191000">
        <ele>397.20</ele>
        <time>2017-02-11T06:06:31Z</time>
      </trkpt>
      <trkpt lat="42.460381000" lon="-2.466211000">
        <ele>397.20</ele>
        <time>2017-02-11T06:06:32Z</time>
      </trkpt>
      <trkpt lat="42.460427000" lon="-2.466232000">
        <ele>397.10</ele>
        <time>2017-02-11T06:06:33Z</time>
      </trkpt>
      <trkpt lat="42.460474000" lon="-2.466254000">
        <ele>397.00</ele>
        <time>2017-02-11T06:06:34Z</time>
      </trkpt>
      <trkpt lat="42.460521000" lon="-2.466272000">
        <ele>396.90</ele>
        <time>2017-02-11T06:06:35Z</time>
      </trkpt>
      <trkpt lat="42.460567000" lon="-2.466287000">
        <ele>396.70</ele>
        <time>2017-02-11T06:06:36Z</time>
      </trkpt>
      <trkpt lat="42.460619000" lon="-2.466303000">
        <ele>396.60</ele>
        <time>2017-02-11T06:06:37Z</time>
      </trkpt>
      <trkpt lat="42.460669000" lon="-2.466326000">
        <ele>396.40</ele>
        <time>2017-02-11T06:06:38Z</time>
      </trkpt>
      <trkpt lat="42.460719000" lon="-2.466342000">
        <ele>396.30</ele>
        <time>2017-02-11T06:06:39Z</time>
      </trkpt>
      <trkpt lat="42.460768000" lon="-2.466364000">
        <ele>395.90</ele>
        <time>2017-02-11T06:06:40Z</time>
      </trkpt>
      <trkpt lat="42.460822000" lon="-2.466383000">
        <ele>395.70</ele>
        <time>2017-02-11T06:06:41Z</time>
      </trkpt>
      <trkpt lat="42.460875000" lon="-2.466404000">
        <ele>395.40</ele>
        <time>2017-02-11T06:06:42Z</time>
      </trkpt>
      <trkpt lat="42.460931000" lon="-2.466429000">
        <ele>395.20</ele>
        <time>2017-02-11T06:06:43Z</time>
      </trkpt>
      <trkpt lat="42.460985000" lon="-2.466457000">
        <ele>395.10</ele>
        <time>2017-02-11T06:06:44Z</time>
      </trkpt>
      <trkpt lat="42.461041000" lon="-2.466480000">
        <ele>395.00</ele>
        <time>2017-02-11T06:06:45Z</time>
      </trkpt>
      <trkpt lat="42.461096000" lon="-2.466501000">
        <ele>394.90</ele>
        <time>2017-02-11T06:06:46Z</time>
      </trkpt>
      <trkpt lat="42.461152000" lon="-2.466524000">
        <ele>394.90</ele>
        <time>2017-02-11T06:06:47Z</time>
      </trkpt>
      <trkpt lat="42.461208000" lon="-2.466550000">
        <ele>394.80</ele>
        <time>2017-02-11T06:06:48Z</time>
      </trkpt>
      <trkpt lat="42.461259000" lon="-2.466572000">
        <ele>394.80</ele>
        <time>2017-02-11T06:06:49Z</time>
      </trkpt>
      <trkpt lat="42.461306000" lon="-2.466592000">
        <ele>394.60</ele>
        <time>2017-02-11T06:06:50Z</time>
      </trkpt>
      <trkpt lat="42.461351000" lon="-2.466607000">
        <ele>394.50</ele>
        <time>2017-02-11T06:06:51Z</time>
      </trkpt>
      <trkpt lat="42.461398000" lon="-2.466622000">
        <ele>394.40</ele>
        <time>2017-02-11T06:06:52Z</time>
      </trkpt>
      <trkpt lat="42.461445000" lon="-2.466642000">
        <ele>394.40</ele>
        <time>2017-02-11T06:06:53Z</time>
      </trkpt>
      <trkpt lat="42.461486000" lon="-2.466667000">
        <ele>394.30</ele>
        <time>2017-02-11T06:06:54Z</time>
      </trkpt>
      <trkpt lat="42.461526000" lon="-2.466687000">
        <ele>394.30</ele>
        <time>2017-02-11T06:06:55Z</time>
      </trkpt>
      <trkpt lat="42.461568000" lon="-2.466703000">
        <ele>394.30</ele>
        <time>2017-02-11T06:06:56Z</time>
      </trkpt>
      <trkpt lat="42.461610000" lon="-2.466720000">
        <ele>394.20</ele>
        <time>2017-02-11T06:06:57Z</time>
      </trkpt>
      <trkpt lat="42.461651000" lon="-2.466738000">
        <ele>394.10</ele>
        <time>2017-02-11T06:06:58Z</time>
      </trkpt>
      <trkpt lat="42.461704000" lon="-2.466753000">
        <ele>394.10</ele>
        <time>2017-02-11T06:06:59Z</time>
      </trkpt>
      <trkpt lat="42.461746000" lon="-2.466768000">
        <ele>394.00</ele>
        <time>2017-02-11T06:07:00Z</time>
      </trkpt>
      <trkpt lat="42.461787000" lon="-2.466784000">
        <ele>394.00</ele>
        <time>2017-02-11T06:07:01Z</time>
      </trkpt>
      <trkpt lat="42.461829000" lon="-2.466805000">
        <ele>394.00</ele>
        <time>2017-02-11T06:07:02Z</time>
      </trkpt>
      <trkpt lat="42.461872000" lon="-2.466821000">
        <ele>394.00</ele>
        <time>2017-02-11T06:07:03Z</time>
      </trkpt>
      <trkpt lat="42.461917000" lon="-2.466836000">
        <ele>394.00</ele>
        <time>2017-02-11T06:07:04Z</time>
      </trkpt>
      <trkpt lat="42.461962000" lon="-2.466855000">
        <ele>394.10</ele>
        <time>2017-02-11T06:07:05Z</time>
      </trkpt>
      <trkpt lat="42.462009000" lon="-2.466872000">
        <ele>393.80</ele>
        <time>2017-02-11T06:07:06Z</time>
      </trkpt>
      <trkpt lat="42.462054000" lon="-2.466895000">
        <ele>393.60</ele>
        <time>2017-02-11T06:07:07Z</time>
      </trkpt>
      <trkpt lat="42.462097000" lon="-2.466908000">
        <ele>393.50</ele>
        <time>2017-02-11T06:07:08Z</time>
      </trkpt>
      <trkpt lat="42.462143000" lon="-2.466905000">
        <ele>393.40</ele>
        <time>2017-02-11T06:07:09Z</time>
      </trkpt>
      <trkpt lat="42.462186000" lon="-2.466890000">
        <ele>393.30</ele>
        <time>2017-02-11T06:07:10Z</time>
      </trkpt>
      <trkpt lat="42.462229000" lon="-2.466879000">
        <ele>393.20</ele>
        <time>2017-02-11T06:07:11Z</time>
      </trkpt>
      <trkpt lat="42.462275000" lon="-2.466881000">
        <ele>393.30</ele>
        <time>2017-02-11T06:07:12Z</time>
      </trkpt>
      <trkpt lat="42.462320000" lon="-2.466899000">
        <ele>393.30</ele>
        <time>2017-02-11T06:07:13Z</time>
      </trkpt>
      <trkpt lat="42.462362000" lon="-2.466930000">
        <ele>393.20</ele>
        <time>2017-02-11T06:07:14Z</time>
      </trkpt>
      <trkpt lat="42.462399000" lon="-2.466970000">
        <ele>393.20</ele>
        <time>2017-02-11T06:07:15Z</time>
      </trkpt>
      <trkpt lat="42.462428000" lon="-2.467014000">
        <ele>393.20</ele>
        <time>2017-02-11T06:07:16Z</time>
      </trkpt>
      <trkpt lat="42.462457000" lon="-2.467064000">
        <ele>393.20</ele>
        <time>2017-02-11T06:07:17Z</time>
      </trkpt>
      <trkpt lat="42.462495000" lon="-2.467100000">
        <ele>393.20</ele>
        <time>2017-02-11T06:07:18Z</time>
      </trkpt>
      <trkpt lat="42.462534000" lon="-2.467128000">
        <ele>393.20</ele>
        <time>2017-02-11T06:07:19Z</time>
      </trkpt>
      <trkpt lat="42.462579000" lon="-2.467141000">
        <ele>393.30</ele>
        <time>2017-02-11T06:07:20Z</time>
      </trkpt>
      <trkpt lat="42.462623000" lon="-2.467157000">
        <ele>393.40</ele>
        <time>2017-02-11T06:07:21Z</time>
      </trkpt>
      <trkpt lat="42.462669000" lon="-2.467175000">
        <ele>393.80</ele>
        <time>2017-02-11T06:07:22Z</time>
      </trkpt>
      <trkpt lat="42.462709000" lon="-2.467196000">
        <ele>394.00</ele>
        <time>2017-02-11T06:07:23Z</time>
      </trkpt>
      <trkpt lat="42.462751000" lon="-2.467215000">
        <ele>394.20</ele>
        <time>2017-02-11T06:07:24Z</time>
      </trkpt>
      <trkpt lat="42.462796000" lon="-2.467230000">
        <ele>394.30</ele>
        <time>2017-02-11T06:07:25Z</time>
      </trkpt>
      <trkpt lat="42.462841000" lon="-2.467238000">
        <ele>394.70</ele>
        <time>2017-02-11T06:07:26Z</time>
      </trkpt>
      <trkpt lat="42.462888000" lon="-2.467245000">
        <ele>395.00</ele>
        <time>2017-02-11T06:07:27Z</time>
      </trkpt>
      <trkpt lat="42.462931000" lon="-2.467254000">
        <ele>395.20</ele>
        <time>2017-02-11T06:07:28Z</time>
      </trkpt>
      <trkpt lat="42.463022000" lon="-2.467289000">
        <ele>395.30</ele>
        <time>2017-02-11T06:07:30Z</time>
      </trkpt>
      <trkpt lat="42.463065000" lon="-2.467298000">
        <ele>395.30</ele>
        <time>2017-02-11T06:07:31Z</time>
      </trkpt>
      <trkpt lat="42.463110000" lon="-2.467304000">
        <ele>395.10</ele>
        <time>2017-02-11T06:07:32Z</time>
      </trkpt>
      <trkpt lat="42.463152000" lon="-2.467309000">
        <ele>395.00</ele>
        <time>2017-02-11T06:07:33Z</time>
      </trkpt>
      <trkpt lat="42.463189000" lon="-2.467306000">
        <ele>394.90</ele>
        <time>2017-02-11T06:07:34Z</time>
      </trkpt>
      <trkpt lat="42.463222000" lon="-2.467289000">
        <ele>394.90</ele>
        <time>2017-02-11T06:07:35Z</time>
      </trkpt>
      <trkpt lat="42.463263000" lon="-2.467270000">
        <ele>395.10</ele>
        <time>2017-02-11T06:07:36Z</time>
      </trkpt>
      <trkpt lat="42.463308000" lon="-2.467260000">
        <ele>395.20</ele>
        <time>2017-02-11T06:07:37Z</time>
      </trkpt>
      <trkpt lat="42.463353000" lon="-2.467260000">
        <ele>395.40</ele>
        <time>2017-02-11T06:07:38Z</time>
      </trkpt>
      <trkpt lat="42.463395000" lon="-2.467275000">
        <ele>395.60</ele>
        <time>2017-02-11T06:07:39Z</time>
      </trkpt>
      <trkpt lat="42.463436000" lon="-2.467301000">
        <ele>395.70</ele>
        <time>2017-02-11T06:07:40Z</time>
      </trkpt>
      <trkpt lat="42.463475000" lon="-2.467332000">
        <ele>395.80</ele>
        <time>2017-02-11T06:07:41Z</time>
      </trkpt>
      <trkpt lat="42.463512000" lon="-2.467364000">
        <ele>395.90</ele>
        <time>2017-02-11T06:07:42Z</time>
      </trkpt>
      <trkpt lat="42.463550000" lon="-2.467388000">
        <ele>396.00</ele>
        <time>2017-02-11T06:07:43Z</time>
      </trkpt>
      <trkpt lat="42.463589000" lon="-2.467402000">
        <ele>396.10</ele>
        <time>2017-02-11T06:07:44Z</time>
      </trkpt>
      <trkpt lat="42.463628000" lon="-2.467413000">
        <ele>396.20</ele>
        <time>2017-02-11T06:07:45Z</time>
      </trkpt>
      <trkpt lat="42.463671000" lon="-2.467424000">
        <ele>396.60</ele>
        <time>2017-02-11T06:07:46Z</time>
      </trkpt>
      <trkpt lat="42.463717000" lon="-2.467427000">
        <ele>397.00</ele>
        <time>2017-02-11T06:07:47Z</time>
      </trkpt>
      <trkpt lat="42.463760000" lon="-2.467427000">
        <ele>397.30</ele>
        <time>2017-02-11T06:07:48Z</time>
      </trkpt>
      <trkpt lat="42.463798000" lon="-2.467429000">
        <ele>397.50</ele>
        <time>2017-02-11T06:07:49Z</time>
      </trkpt>
      <trkpt lat="42.463835000" lon="-2.467424000">
        <ele>397.90</ele>
        <time>2017-02-11T06:07:50Z</time>
      </trkpt>
      <trkpt lat="42.463867000" lon="-2.467421000">
        <ele>398.20</ele>
        <time>2017-02-11T06:07:51Z</time>
      </trkpt>
      <trkpt lat="42.463902000" lon="-2.467419000">
        <ele>398.40</ele>
        <time>2017-02-11T06:07:52Z</time>
      </trkpt>
      <trkpt lat="42.463934000" lon="-2.467419000">
        <ele>398.50</ele>
        <time>2017-02-11T06:07:53Z</time>
      </trkpt>
      <trkpt lat="42.463968000" lon="-2.467416000">
        <ele>398.90</ele>
        <time>2017-02-11T06:07:54Z</time>
      </trkpt>
      <trkpt lat="42.464003000" lon="-2.467411000">
        <ele>399.20</ele>
        <time>2017-02-11T06:07:55Z</time>
      </trkpt>
      <trkpt lat="42.464036000" lon="-2.467402000">
        <ele>399.40</ele>
        <time>2017-02-11T06:07:56Z</time>
      </trkpt>
      <trkpt lat="42.464069000" lon="-2.467397000">
        <ele>399.50</ele>
        <time>2017-02-11T06:07:57Z</time>
      </trkpt>
      <trkpt lat="42.464102000" lon="-2.467392000">
        <ele>399.60</ele>
        <time>2017-02-11T06:07:58Z</time>
      </trkpt>
      <trkpt lat="42.464135000" lon="-2.467421000">
        <ele>399.60</ele>
        <time>2017-02-11T06:07:59Z</time>
      </trkpt>
      <trkpt lat="42.464165000" lon="-2.467431000">
        <ele>399.50</ele>
        <time>2017-02-11T06:08:00Z</time>
      </trkpt>
      <trkpt lat="42.464192000" lon="-2.467432000">
        <ele>399.40</ele>
        <time>2017-02-11T06:08:01Z</time>
      </trkpt>
      <trkpt lat="42.464221000" lon="-2.467430000">
        <ele>399.30</ele>
        <time>2017-02-11T06:08:02Z</time>
      </trkpt>
      <trkpt lat="42.464248000" lon="-2.467425000">
        <ele>399.30</ele>
        <time>2017-02-11T06:08:03Z</time>
      </trkpt>
      <trkpt lat="42.464278000" lon="-2.467419000">
        <ele>399.20</ele>
        <time>2017-02-11T06:08:04Z</time>
      </trkpt>
      <trkpt lat="42.464310000" lon="-2.467412000">
        <ele>399.20</ele>
        <time>2017-02-11T06:08:05Z</time>
      </trkpt>
      <trkpt lat="42.464343000" lon="-2.467404000">
        <ele>399.20</ele>
        <time>2017-02-11T06:08:06Z</time>
      </trkpt>
      <trkpt lat="42.464375000" lon="-2.467399000">
        <ele>399.20</ele>
        <time>2017-02-11T06:08:07Z</time>
      </trkpt>
      <trkpt lat="42.464407000" lon="-2.467395000">
        <ele>399.20</ele>
        <time>2017-02-11T06:08:08Z</time>
      </trkpt>
      <trkpt lat="42.464441000" lon="-2.467392000">
        <ele>399.10</ele>
        <time>2017-02-11T06:08:09Z</time>
      </trkpt>
      <trkpt lat="42.464475000" lon="-2.467384000">
        <ele>399.10</ele>
        <time>2017-02-11T06:08:10Z</time>
      </trkpt>
      <trkpt lat="42.464504000" lon="-2.467377000">
        <ele>399.10</ele>
        <time>2017-02-11T06:08:11Z</time>
      </trkpt>
      <trkpt lat="42.464529000" lon="-2.467372000">
        <ele>399.20</ele>
        <time>2017-02-11T06:08:12Z</time>
      </trkpt>
      <trkpt lat="42.464549000" lon="-2.467366000">
        <ele>399.20</ele>
        <time>2017-02-11T06:08:13Z</time>
      </trkpt>
      <trkpt lat="42.464566000" lon="-2.467361000">
        <ele>399.20</ele>
        <time>2017-02-11T06:08:14Z</time>
      </trkpt>
      <trkpt lat="42.464582000" lon="-2.467358000">
        <ele>399.20</ele>
        <time>2017-02-11T06:08:15Z</time>
      </trkpt>
      <trkpt lat="42.464599000" lon="-2.467355000">
        <ele>399.20</ele>
        <time>2017-02-11T06:08:16Z</time>
      </trkpt>
      <trkpt lat="42.464614000" lon="-2.467360000">
        <ele>399.30</ele>
        <time>2017-02-11T06:08:17Z</time>
      </trkpt>
      <trkpt lat="42.464626000" lon="-2.467357000">
        <ele>399.30</ele>
        <time>2017-02-11T06:08:18Z</time>
      </trkpt>
      <trkpt lat="42.464643000" lon="-2.467351000">
        <ele>399.30</ele>
        <time>2017-02-11T06:08:19Z</time>
      </trkpt>
      <trkpt lat="42.464657000" lon="-2.467347000">
        <ele>399.10</ele>
        <time>2017-02-11T06:08:20Z</time>
      </trkpt>
      <trkpt lat="42.464668000" lon="-2.467342000">
        <ele>399.00</ele>
        <time>2017-02-11T06:08:21Z</time>
      </trkpt>
      <trkpt lat="42.464679000" lon="-2.467330000">
        <ele>399.00</ele>
        <time>2017-02-11T06:08:22Z</time>
      </trkpt>
      <trkpt lat="42.464685000" lon="-2.467318000">
        <ele>398.90</ele>
        <time>2017-02-11T06:08:23Z</time>
      </trkpt>
      <trkpt lat="42.464698000" lon="-2.467310000">
        <ele>398.90</ele>
        <time>2017-02-11T06:08:24Z</time>
      </trkpt>
      <trkpt lat="42.464711000" lon="-2.467303000">
        <ele>398.90</ele>
        <time>2017-02-11T06:08:25Z</time>
      </trkpt>
      <trkpt lat="42.464723000" lon="-2.467301000">
        <ele>399.00</ele>
        <time>2017-02-11T06:08:26Z</time>
      </trkpt>
      <trkpt lat="42.464735000" lon="-2.467299000">
        <ele>399.10</ele>
        <time>2017-02-11T06:08:27Z</time>
      </trkpt>
      <trkpt lat="42.464748000" lon="-2.467300000">
        <ele>399.20</ele>
        <time>2017-02-11T06:08:28Z</time>
      </trkpt>
      <trkpt lat="42.464759000" lon="-2.467292000">
        <ele>399.30</ele>
        <time>2017-02-11T06:08:29Z</time>
      </trkpt>
      <trkpt lat="42.464769000" lon="-2.467288000">
        <ele>399.20</ele>
        <time>2017-02-11T06:08:30Z</time>
      </trkpt>
      <trkpt lat="42.464785000" lon="-2.467289000">
        <ele>399.20</ele>
        <time>2017-02-11T06:08:32Z</time>
      </trkpt>
      <trkpt lat="42.464793000" lon="-2.467291000">
        <ele>399.20</ele>
        <time>2017-02-11T06:08:33Z</time>
      </trkpt>
      <trkpt lat="42.464802000" lon="-2.467292000">
        <ele>399.10</ele>
        <time>2017-02-11T06:08:34Z</time>
      </trkpt>
      <trkpt lat="42.464812000" lon="-2.467294000">
        <ele>399.00</ele>
        <time>2017-02-11T06:08:35Z</time>
      </trkpt>
      <trkpt lat="42.464831000" lon="-2.467295000">
        <ele>398.90</ele>
        <time>2017-02-11T06:08:36Z</time>
      </trkpt>
      <trkpt lat="42.464846000" lon="-2.467290000">
        <ele>398.80</ele>
        <time>2017-02-11T06:08:37Z</time>
      </trkpt>
      <trkpt lat="42.464864000" lon="-2.467291000">
        <ele>398.80</ele>
        <time>2017-02-11T06:08:38Z</time>
      </trkpt>
      <trkpt lat="42.464886000" lon="-2.467287000">
        <ele>398.70</ele>
        <time>2017-02-11T06:08:39Z</time>
      </trkpt>
      <trkpt lat="42.464906000" lon="-2.467280000">
        <ele>398.70</ele>
        <time>2017-02-11T06:08:40Z</time>
      </trkpt>
      <trkpt lat="42.464930000" lon="-2.467275000">
        <ele>398.70</ele>
        <time>2017-02-11T06:08:41Z</time>
      </trkpt>
      <trkpt lat="42.464956000" lon="-2.467274000">
        <ele>398.80</ele>
        <time>2017-02-11T06:08:42Z</time>
      </trkpt>
      <trkpt lat="42.464982000" lon="-2.467266000">
        <ele>398.90</ele>
        <time>2017-02-11T06:08:43Z</time>
      </trkpt>
      <trkpt lat="42.465006000" lon="-2.467262000">
        <ele>398.90</ele>
        <time>2017-02-11T06:08:44Z</time>
      </trkpt>
      <trkpt lat="42.465033000" lon="-2.467257000">
        <ele>399.00</ele>
        <time>2017-02-11T06:08:45Z</time>
      </trkpt>
      <trkpt lat="42.465059000" lon="-2.467254000">
        <ele>399.10</ele>
        <time>2017-02-11T06:08:46Z</time>
      </trkpt>
      <trkpt lat="42.465088000" lon="-2.467249000">
        <ele>399.20</ele>
        <time>2017-02-11T06:08:47Z</time>
      </trkpt>
      <trkpt lat="42.465116000" lon="-2.467244000">
        <ele>399.30</ele>
        <time>2017-02-11T06:08:48Z</time>
      </trkpt>
      <trkpt lat="42.465143000" lon="-2.467239000">
        <ele>399.40</ele>
        <time>2017-02-11T06:08:49Z</time>
      </trkpt>
      <trkpt lat="42.465168000" lon="-2.467233000">
        <ele>399.40</ele>
        <time>2017-02-11T06:08:50Z</time>
      </trkpt>
      <trkpt lat="42.465193000" lon="-2.467230000">
        <ele>399.40</ele>
        <time>2017-02-11T06:08:51Z</time>
      </trkpt>
      <trkpt lat="42.465220000" lon="-2.467230000">
        <ele>399.30</ele>
        <time>2017-02-11T06:08:52Z</time>
      </trkpt>
      <trkpt lat="42.465248000" lon="-2.467229000">
        <ele>399.20</ele>
        <time>2017-02-11T06:08:53Z</time>
      </trkpt>
      <trkpt lat="42.465280000" lon="-2.467227000">
        <ele>399.20</ele>
        <time>2017-02-11T06:08:54Z</time>
      </trkpt>
      <trkpt lat="42.465306000" lon="-2.467226000">
        <ele>399.10</ele>
        <time>2017-02-11T06:08:55Z</time>
      </trkpt>
      <trkpt lat="42.465332000" lon="-2.467221000">
        <ele>399.30</ele>
        <time>2017-02-11T06:08:56Z</time>
      </trkpt>
      <trkpt lat="42.465361000" lon="-2.467220000">
        <ele>399.40</ele>
        <time>2017-02-11T06:08:57Z</time>
      </trkpt>
      <trkpt lat="42.465388000" lon="-2.467215000">
        <ele>399.60</ele>
        <time>2017-02-11T06:08:58Z</time>
      </trkpt>
      <trkpt lat="42.465414000" lon="-2.467205000">
        <ele>399.70</ele>
        <time>2017-02-11T06:08:59Z</time>
      </trkpt>
      <trkpt lat="42.465439000" lon="-2.467198000">
        <ele>399.70</ele>
        <time>2017-02-11T06:09:00Z</time>
      </trkpt>
      <trkpt lat="42.465469000" lon="-2.467192000">
        <ele>399.70</ele>
        <time>2017-02-11T06:09:01Z</time>
      </trkpt>
      <trkpt lat="42.465497000" lon="-2.467183000">
        <ele>399.70</ele>
        <time>2017-02-11T06:09:02Z</time>
      </trkpt>
      <trkpt lat="42.465527000" lon="-2.467177000">
        <ele>399.70</ele>
        <time>2017-02-11T06:09:03Z</time>
      </trkpt>
      <trkpt lat="42.465556000" lon="-2.467171000">
        <ele>399.70</ele>
        <time>2017-02-11T06:09:04Z</time>
      </trkpt>
      <trkpt lat="42.465585000" lon="-2.467161000">
        <ele>399.70</ele>
        <time>2017-02-11T06:09:05Z</time>
      </trkpt>
      <trkpt lat="42.465614000" lon="-2.467148000">
        <ele>399.80</ele>
        <time>2017-02-11T06:09:06Z</time>
      </trkpt>
      <trkpt lat="42.465638000" lon="-2.467135000">
        <ele>399.90</ele>
        <time>2017-02-11T06:09:07Z</time>
      </trkpt>
      <trkpt lat="42.465666000" lon="-2.467125000">
        <ele>400.10</ele>
        <time>2017-02-11T06:09:08Z</time>
      </trkpt>
      <trkpt lat="42.465692000" lon="-2.467114000">
        <ele>400.30</ele>
        <time>2017-02-11T06:09:09Z</time>
      </trkpt>
      <trkpt lat="42.465719000" lon="-2.467104000">
        <ele>400.40</ele>
        <time>2017-02-11T06:09:10Z</time>
      </trkpt>
      <trkpt lat="42.465744000" lon="-2.467095000">
        <ele>400.40</ele>
        <time>2017-02-11T06:09:11Z</time>
      </trkpt>
      <trkpt lat="42.465771000" lon="-2.467082000">
        <ele>400.50</ele>
        <time>2017-02-11T06:09:12Z</time>
      </trkpt>
      <trkpt lat="42.465798000" lon="-2.467070000">
        <ele>400.50</ele>
        <time>2017-02-11T06:09:13Z</time>
      </trkpt>
      <trkpt lat="42.465821000" lon="-2.467054000">
        <ele>400.50</ele>
        <time>2017-02-11T06:09:14Z</time>
      </trkpt>
      <trkpt lat="42.465848000" lon="-2.467044000">
        <ele>400.50</ele>
        <time>2017-02-11T06:09:15Z</time>
      </trkpt>
      <trkpt lat="42.465872000" lon="-2.467036000">
        <ele>400.50</ele>
        <time>2017-02-11T06:09:16Z</time>
      </trkpt>
      <trkpt lat="42.465898000" lon="-2.467028000">
        <ele>400.40</ele>
        <time>2017-02-11T06:09:17Z</time>
      </trkpt>
      <trkpt lat="42.465923000" lon="-2.467018000">
        <ele>400.20</ele>
        <time>2017-02-11T06:09:18Z</time>
      </trkpt>
      <trkpt lat="42.465948000" lon="-2.467008000">
        <ele>400.10</ele>
        <time>2017-02-11T06:09:19Z</time>
      </trkpt>
      <trkpt lat="42.465975000" lon="-2.466996000">
        <ele>400.20</ele>
        <time>2017-02-11T06:09:20Z</time>
      </trkpt>
      <trkpt lat="42.465998000" lon="-2.466983000">
        <ele>400.30</ele>
        <time>2017-02-11T06:09:21Z</time>
      </trkpt>
      <trkpt lat="42.466025000" lon="-2.466968000">
        <ele>400.30</ele>
        <time>2017-02-11T06:09:22Z</time>
      </trkpt>
      <trkpt lat="42.466049000" lon="-2.466957000">
        <ele>400.30</ele>
        <time>2017-02-11T06:09:23Z</time>
      </trkpt>
      <trkpt lat="42.466074000" lon="-2.466944000">
        <ele>400.40</ele>
        <time>2017-02-11T06:09:24Z</time>
      </trkpt>
      <trkpt lat="42.466101000" lon="-2.466936000">
        <ele>400.40</ele>
        <time>2017-02-11T06:09:25Z</time>
      </trkpt>
      <trkpt lat="42.466127000" lon="-2.466930000">
        <ele>400.70</ele>
        <time>2017-02-11T06:09:26Z</time>
      </trkpt>
      <trkpt lat="42.466153000" lon="-2.466920000">
        <ele>400.80</ele>
        <time>2017-02-11T06:09:27Z</time>
      </trkpt>
      <trkpt lat="42.466174000" lon="-2.466906000">
        <ele>401.00</ele>
        <time>2017-02-11T06:09:28Z</time>
      </trkpt>
      <trkpt lat="42.466199000" lon="-2.466894000">
        <ele>401.10</ele>
        <time>2017-02-11T06:09:29Z</time>
      </trkpt>
      <trkpt lat="42.466221000" lon="-2.466879000">
        <ele>401.10</ele>
        <time>2017-02-11T06:09:30Z</time>
      </trkpt>
      <trkpt lat="42.466244000" lon="-2.466866000">
        <ele>401.20</ele>
        <time>2017-02-11T06:09:31Z</time>
      </trkpt>
      <trkpt lat="42.466268000" lon="-2.466848000">
        <ele>401.20</ele>
        <time>2017-02-11T06:09:32Z</time>
      </trkpt>
      <trkpt lat="42.466319000" lon="-2.466818000">
        <ele>401.30</ele>
        <time>2017-02-11T06:09:34Z</time>
      </trkpt>
      <trkpt lat="42.466345000" lon="-2.466804000">
        <ele>401.30</ele>
        <time>2017-02-11T06:09:35Z</time>
      </trkpt>
      <trkpt lat="42.466367000" lon="-2.466790000">
        <ele>401.40</ele>
        <time>2017-02-11T06:09:36Z</time>
      </trkpt>
      <trkpt lat="42.466391000" lon="-2.466779000">
        <ele>401.50</ele>
        <time>2017-02-11T06:09:37Z</time>
      </trkpt>
      <trkpt lat="42.466415000" lon="-2.466771000">
        <ele>401.40</ele>
        <time>2017-02-11T06:09:38Z</time>
      </trkpt>
      <trkpt lat="42.466436000" lon="-2.466755000">
        <ele>401.30</ele>
        <time>2017-02-11T06:09:39Z</time>
      </trkpt>
      <trkpt lat="42.466459000" lon="-2.466743000">
        <ele>401.20</ele>
        <time>2017-02-11T06:09:40Z</time>
      </trkpt>
      <trkpt lat="42.466478000" lon="-2.466731000">
        <ele>401.20</ele>
        <time>2017-02-11T06:09:41Z</time>
      </trkpt>
      <trkpt lat="42.466495000" lon="-2.466720000">
        <ele>401.10</ele>
        <time>2017-02-11T06:09:42Z</time>
      </trkpt>
      <trkpt lat="42.466513000" lon="-2.466710000">
        <ele>401.10</ele>
        <time>2017-02-11T06:09:43Z</time>
      </trkpt>
      <trkpt lat="42.466532000" lon="-2.466696000">
        <ele>401.10</ele>
        <time>2017-02-11T06:09:44Z</time>
      </trkpt>
      <trkpt lat="42.466548000" lon="-2.466685000">
        <ele>401.20</ele>
        <time>2017-02-11T06:09:45Z</time>
      </trkpt>
      <trkpt lat="42.466569000" lon="-2.466674000">
        <ele>401.20</ele>
        <time>2017-02-11T06:09:46Z</time>
      </trkpt>
      <trkpt lat="42.466588000" lon="-2.466658000">
        <ele>401.20</ele>
        <time>2017-02-11T06:09:47Z</time>
      </trkpt>
      <trkpt lat="42.466607000" lon="-2.466646000">
        <ele>401.10</ele>
        <time>2017-02-11T06:09:48Z</time>
      </trkpt>
      <trkpt lat="42.466629000" lon="-2.466633000">
        <ele>401.00</ele>
        <time>2017-02-11T06:09:49Z</time>
      </trkpt>
      <trkpt lat="42.466650000" lon="-2.466616000">
        <ele>400.90</ele>
        <time>2017-02-11T06:09:50Z</time>
      </trkpt>
      <trkpt lat="42.466672000" lon="-2.466601000">
        <ele>400.90</ele>
        <time>2017-02-11T06:09:51Z</time>
      </trkpt>
      <trkpt lat="42.466693000" lon="-2.466589000">
        <ele>400.90</ele>
        <time>2017-02-11T06:09:52Z</time>
      </trkpt>
      <trkpt lat="42.466714000" lon="-2.466573000">
        <ele>400.90</ele>
        <time>2017-02-11T06:09:53Z</time>
      </trkpt>
      <trkpt lat="42.466737000" lon="-2.466559000">
        <ele>400.90</ele>
        <time>2017-02-11T06:09:54Z</time>
      </trkpt>
      <trkpt lat="42.466760000" lon="-2.466541000">
        <ele>400.90</ele>
        <time>2017-02-11T06:09:55Z</time>
      </trkpt>
      <trkpt lat="42.466783000" lon="-2.466529000">
        <ele>401.00</ele>
        <time>2017-02-11T06:09:56Z</time>
      </trkpt>
      <trkpt lat="42.466809000" lon="-2.466512000">
        <ele>401.00</ele>
        <time>2017-02-11T06:09:57Z</time>
      </trkpt>
      <trkpt lat="42.466830000" lon="-2.466498000">
        <ele>401.10</ele>
        <time>2017-02-11T06:09:58Z</time>
      </trkpt>
      <trkpt lat="42.466855000" lon="-2.466489000">
        <ele>401.10</ele>
        <time>2017-02-11T06:09:59Z</time>
      </trkpt>
      <trkpt lat="42.466881000" lon="-2.466482000">
        <ele>401.20</ele>
        <time>2017-02-11T06:10:00Z</time>
      </trkpt>
      <trkpt lat="42.466904000" lon="-2.466473000">
        <ele>401.30</ele>
        <time>2017-02-11T06:10:01Z</time>
      </trkpt>
      <trkpt lat="42.466927000" lon="-2.466465000">
        <ele>401.40</ele>
        <time>2017-02-11T06:10:02Z</time>
      </trkpt>
      <trkpt lat="42.466949000" lon="-2.466456000">
        <ele>401.50</ele>
        <time>2017-02-11T06:10:03Z</time>
      </trkpt>
      <trkpt lat="42.466971000" lon="-2.466444000">
        <ele>401.50</ele>
        <time>2017-02-11T06:10:04Z</time>
      </trkpt>
      <trkpt lat="42.466989000" lon="-2.466428000">
        <ele>401.50</ele>
        <time>2017-02-11T06:10:05Z</time>
      </trkpt>
      <trkpt lat="42.467011000" lon="-2.466414000">
        <ele>401.50</ele>
        <time>2017-02-11T06:10:06Z</time>
      </trkpt>
      <trkpt lat="42.467035000" lon="-2.466401000">
        <ele>401.50</ele>
        <time>2017-02-11T06:10:07Z</time>
      </trkpt>
      <trkpt lat="42.467064000" lon="-2.466389000">
        <ele>401.40</ele>
        <time>2017-02-11T06:10:08Z</time>
      </trkpt>
      <trkpt lat="42.467095000" lon="-2.466389000">
        <ele>401.40</ele>
        <time>2017-02-11T06:10:09Z</time>
      </trkpt>
      <trkpt lat="42.467127000" lon="-2.466385000">
        <ele>401.30</ele>
        <time>2017-02-11T06:10:10Z</time>
      </trkpt>
      <trkpt lat="42.467161000" lon="-2.466381000">
        <ele>401.30</ele>
        <time>2017-02-11T06:10:11Z</time>
      </trkpt>
      <trkpt lat="42.467194000" lon="-2.466375000">
        <ele>401.30</ele>
        <time>2017-02-11T06:10:12Z</time>
      </trkpt>
      <trkpt lat="42.467223000" lon="-2.466365000">
        <ele>401.30</ele>
        <time>2017-02-11T06:10:13Z</time>
      </trkpt>
      <trkpt lat="42.467253000" lon="-2.466362000">
        <ele>401.30</ele>
        <time>2017-02-11T06:10:14Z</time>
      </trkpt>
      <trkpt lat="42.467284000" lon="-2.466359000">
        <ele>401.20</ele>
        <time>2017-02-11T06:10:15Z</time>
      </trkpt>
      <trkpt lat="42.467317000" lon="-2.466358000">
        <ele>401.10</ele>
        <time>2017-02-11T06:10:16Z</time>
      </trkpt>
      <trkpt lat="42.467353000" lon="-2.466350000">
        <ele>401.10</ele>
        <time>2017-02-11T06:10:17Z</time>
      </trkpt>
      <trkpt lat="42.467392000" lon="-2.466348000">
        <ele>401.00</ele>
        <time>2017-02-11T06:10:18Z</time>
      </trkpt>
      <trkpt lat="42.467427000" lon="-2.466345000">
        <ele>401.00</ele>
        <time>2017-02-11T06:10:19Z</time>
      </trkpt>
      <trkpt lat="42.467461000" lon="-2.466339000">
        <ele>400.70</ele>
        <time>2017-02-11T06:10:20Z</time>
      </trkpt>
      <trkpt lat="42.467499000" lon="-2.466331000">
        <ele>400.60</ele>
        <time>2017-02-11T06:10:21Z</time>
      </trkpt>
      <trkpt lat="42.467537000" lon="-2.466328000">
        <ele>400.40</ele>
        <time>2017-02-11T06:10:22Z</time>
      </trkpt>
      <trkpt lat="42.467575000" lon="-2.466325000">
        <ele>400.30</ele>
        <time>2017-02-11T06:10:23Z</time>
      </trkpt>
      <trkpt lat="42.467615000" lon="-2.466320000">
        <ele>400.30</ele>
        <time>2017-02-11T06:10:24Z</time>
      </trkpt>
      <trkpt lat="42.467655000" lon="-2.466322000">
        <ele>400.20</ele>
        <time>2017-02-11T06:10:25Z</time>
      </trkpt>
      <trkpt lat="42.467690000" lon="-2.466321000">
        <ele>400.10</ele>
        <time>2017-02-11T06:10:26Z</time>
      </trkpt>
      <trkpt lat="42.467718000" lon="-2.466327000">
        <ele>399.90</ele>
        <time>2017-02-11T06:10:27Z</time>
      </trkpt>
      <trkpt lat="42.467738000" lon="-2.466347000">
        <ele>399.90</ele>
        <time>2017-02-11T06:10:28Z</time>
      </trkpt>
      <trkpt lat="42.467746000" lon="-2.466375000">
        <ele>399.90</ele>
        <time>2017-02-11T06:10:29Z</time>
      </trkpt>
      <trkpt lat="42.467754000" lon="-2.466405000">
        <ele>400.00</ele>
        <time>2017-02-11T06:10:30Z</time>
      </trkpt>
      <trkpt lat="42.467761000" lon="-2.466440000">
        <ele>400.00</ele>
        <time>2017-02-11T06:10:31Z</time>
      </trkpt>
      <trkpt lat="42.467768000" lon="-2.466473000">
        <ele>400.00</ele>
        <time>2017-02-11T06:10:32Z</time>
      </trkpt>
      <trkpt lat="42.467773000" lon="-2.466508000">
        <ele>400.00</ele>
        <time>2017-02-11T06:10:33Z</time>
      </trkpt>
      <trkpt lat="42.467779000" lon="-2.466540000">
        <ele>400.00</ele>
        <time>2017-02-11T06:10:34Z</time>
      </trkpt>
      <trkpt lat="42.467786000" lon="-2.466610000">
        <ele>400.10</ele>
        <time>2017-02-11T06:10:36Z</time>
      </trkpt>
      <trkpt lat="42.467789000" lon="-2.466645000">
        <ele>400.20</ele>
        <time>2017-02-11T06:10:37Z</time>
      </trkpt>
      <trkpt lat="42.467790000" lon="-2.466678000">
        <ele>400.40</ele>
        <time>2017-02-11T06:10:38Z</time>
      </trkpt>
      <trkpt lat="42.467790000" lon="-2.466711000">
        <ele>400.60</ele>
        <time>2017-02-11T06:10:39Z</time>
      </trkpt>
      <trkpt lat="42.467792000" lon="-2.466744000">
        <ele>400.60</ele>
        <time>2017-02-11T06:10:40Z</time>
      </trkpt>
      <trkpt lat="42.467795000" lon="-2.466777000">
        <ele>400.60</ele>
        <time>2017-02-11T06:10:41Z</time>
      </trkpt>
      <trkpt lat="42.467796000" lon="-2.466813000">
        <ele>400.90</ele>
        <time>2017-02-11T06:10:42Z</time>
      </trkpt>
      <trkpt lat="42.467797000" lon="-2.466849000">
        <ele>401.10</ele>
        <time>2017-02-11T06:10:43Z</time>
      </trkpt>
      <trkpt lat="42.467795000" lon="-2.466884000">
        <ele>401.50</ele>
        <time>2017-02-11T06:10:44Z</time>
      </trkpt>
      <trkpt lat="42.467798000" lon="-2.466920000">
        <ele>401.80</ele>
        <time>2017-02-11T06:10:45Z</time>
      </trkpt>
      <trkpt lat="42.467800000" lon="-2.466953000">
        <ele>402.00</ele>
        <time>2017-02-11T06:10:46Z</time>
      </trkpt>
      <trkpt lat="42.467800000" lon="-2.466988000">
        <ele>402.10</ele>
        <time>2017-02-11T06:10:47Z</time>
      </trkpt>
      <trkpt lat="42.467798000" lon="-2.467022000">
        <ele>402.20</ele>
        <time>2017-02-11T06:10:48Z</time>
      </trkpt>
      <trkpt lat="42.467797000" lon="-2.467062000">
        <ele>402.30</ele>
        <time>2017-02-11T06:10:49Z</time>
      </trkpt>
      <trkpt lat="42.467797000" lon="-2.467096000">
        <ele>402.20</ele>
        <time>2017-02-11T06:10:50Z</time>
      </trkpt>
      <trkpt lat="42.467800000" lon="-2.467129000">
        <ele>402.20</ele>
        <time>2017-02-11T06:10:51Z</time>
      </trkpt>
      <trkpt lat="42.467805000" lon="-2.467163000">
        <ele>402.30</ele>
        <time>2017-02-11T06:10:52Z</time>
      </trkpt>
      <trkpt lat="42.467808000" lon="-2.467195000">
        <ele>402.30</ele>
        <time>2017-02-11T06:10:53Z</time>
      </trkpt>
      <trkpt lat="42.467811000" lon="-2.467227000">
        <ele>402.50</ele>
        <time>2017-02-11T06:10:54Z</time>
      </trkpt>
      <trkpt lat="42.467812000" lon="-2.467258000">
        <ele>402.60</ele>
        <time>2017-02-11T06:10:55Z</time>
      </trkpt>
      <trkpt lat="42.467815000" lon="-2.467287000">
        <ele>402.70</ele>
        <time>2017-02-11T06:10:56Z</time>
      </trkpt>
      <trkpt lat="42.467821000" lon="-2.467314000">
        <ele>402.80</ele>
        <time>2017-02-11T06:10:57Z</time>
      </trkpt>
      <trkpt lat="42.467830000" lon="-2.467342000">
        <ele>402.90</ele>
        <time>2017-02-11T06:10:58Z</time>
      </trkpt>
      <trkpt lat="42.467835000" lon="-2.467371000">
        <ele>403.00</ele>
        <time>2017-02-11T06:10:59Z</time>
      </trkpt>
      <trkpt lat="42.467840000" lon="-2.467401000">
        <ele>403.10</ele>
        <time>2017-02-11T06:11:00Z</time>
      </trkpt>
      <trkpt lat="42.467846000" lon="-2.467428000">
        <ele>403.10</ele>
        <time>2017-02-11T06:11:01Z</time>
      </trkpt>
      <trkpt lat="42.467851000" lon="-2.467457000">
        <ele>403.30</ele>
        <time>2017-02-11T06:11:02Z</time>
      </trkpt>
      <trkpt lat="42.467854000" lon="-2.467486000">
        <ele>403.40</ele>
        <time>2017-02-11T06:11:03Z</time>
      </trkpt>
      <trkpt lat="42.467855000" lon="-2.467518000">
        <ele>403.60</ele>
        <time>2017-02-11T06:11:04Z</time>
      </trkpt>
      <trkpt lat="42.467855000" lon="-2.467550000">
        <ele>403.70</ele>
        <time>2017-02-11T06:11:05Z</time>
      </trkpt>
      <trkpt lat="42.467858000" lon="-2.467581000">
        <ele>403.90</ele>
        <time>2017-02-11T06:11:06Z</time>
      </trkpt>
      <trkpt lat="42.467859000" lon="-2.467612000">
        <ele>404.10</ele>
        <time>2017-02-11T06:11:07Z</time>
      </trkpt>
      <trkpt lat="42.467860000" lon="-2.467644000">
        <ele>404.20</ele>
        <time>2017-02-11T06:11:08Z</time>
      </trkpt>
      <trkpt lat="42.467858000" lon="-2.467675000">
        <ele>404.30</ele>
        <time>2017-02-11T06:11:09Z</time>
      </trkpt>
      <trkpt lat="42.467859000" lon="-2.467703000">
        <ele>404.40</ele>
        <time>2017-02-11T06:11:10Z</time>
      </trkpt>
      <trkpt lat="42.467862000" lon="-2.467729000">
        <ele>404.50</ele>
        <time>2017-02-11T06:11:11Z</time>
      </trkpt>
      <trkpt lat="42.467865000" lon="-2.467761000">
        <ele>404.80</ele>
        <time>2017-02-11T06:11:12Z</time>
      </trkpt>
      <trkpt lat="42.467867000" lon="-2.467793000">
        <ele>405.00</ele>
        <time>2017-02-11T06:11:13Z</time>
      </trkpt>
      <trkpt lat="42.467865000" lon="-2.467831000">
        <ele>405.20</ele>
        <time>2017-02-11T06:11:14Z</time>
      </trkpt>
      <trkpt lat="42.467867000" lon="-2.467864000">
        <ele>405.30</ele>
        <time>2017-02-11T06:11:15Z</time>
      </trkpt>
      <trkpt lat="42.467870000" lon="-2.467895000">
        <ele>405.40</ele>
        <time>2017-02-11T06:11:16Z</time>
      </trkpt>
      <trkpt lat="42.467869000" lon="-2.467928000">
        <ele>405.50</ele>
        <time>2017-02-11T06:11:17Z</time>
      </trkpt>
      <trkpt lat="42.467870000" lon="-2.467963000">
        <ele>405.80</ele>
        <time>2017-02-11T06:11:18Z</time>
      </trkpt>
      <trkpt lat="42.467873000" lon="-2.468003000">
        <ele>406.00</ele>
        <time>2017-02-11T06:11:19Z</time>
      </trkpt>
      <trkpt lat="42.467873000" lon="-2.468040000">
        <ele>406.20</ele>
        <time>2017-02-11T06:11:20Z</time>
      </trkpt>
      <trkpt lat="42.467878000" lon="-2.468076000">
        <ele>406.40</ele>
        <time>2017-02-11T06:11:21Z</time>
      </trkpt>
      <trkpt lat="42.467878000" lon="-2.468108000">
        <ele>406.60</ele>
        <time>2017-02-11T06:11:22Z</time>
      </trkpt>
      <trkpt lat="42.467878000" lon="-2.468142000">
        <ele>406.70</ele>
        <time>2017-02-11T06:11:23Z</time>
      </trkpt>
      <trkpt lat="42.467882000" lon="-2.468175000">
        <ele>406.90</ele>
        <time>2017-02-11T06:11:24Z</time>
      </trkpt>
      <trkpt lat="42.467887000" lon="-2.468209000">
        <ele>407.00</ele>
        <time>2017-02-11T06:11:25Z</time>
      </trkpt>
      <trkpt lat="42.467889000" lon="-2.468246000">
        <ele>407.20</ele>
        <time>2017-02-11T06:11:26Z</time>
      </trkpt>
      <trkpt lat="42.467893000" lon="-2.468282000">
        <ele>407.40</ele>
        <time>2017-02-11T06:11:27Z</time>
      </trkpt>
      <trkpt lat="42.467898000" lon="-2.468313000">
        <ele>407.50</ele>
        <time>2017-02-11T06:11:28Z</time>
      </trkpt>
      <trkpt lat="42.467902000" lon="-2.468347000">
        <ele>407.60</ele>
        <time>2017-02-11T06:11:29Z</time>
      </trkpt>
      <trkpt lat="42.467902000" lon="-2.468385000">
        <ele>407.70</ele>
        <time>2017-02-11T06:11:30Z</time>
      </trkpt>
      <trkpt lat="42.467904000" lon="-2.468423000">
        <ele>407.70</ele>
        <time>2017-02-11T06:11:31Z</time>
      </trkpt>
      <trkpt lat="42.467902000" lon="-2.468457000">
        <ele>407.90</ele>
        <time>2017-02-11T06:11:32Z</time>
      </trkpt>
      <trkpt lat="42.467903000" lon="-2.468493000">
        <ele>408.00</ele>
        <time>2017-02-11T06:11:33Z</time>
      </trkpt>
      <trkpt lat="42.467907000" lon="-2.468531000">
        <ele>408.10</ele>
        <time>2017-02-11T06:11:34Z</time>
      </trkpt>
      <trkpt lat="42.467910000" lon="-2.468566000">
        <ele>408.20</ele>
        <time>2017-02-11T06:11:35Z</time>
      </trkpt>
      <trkpt lat="42.467921000" lon="-2.468634000">
        <ele>408.50</ele>
        <time>2017-02-11T06:11:37Z</time>
      </trkpt>
      <trkpt lat="42.467924000" lon="-2.468668000">
        <ele>408.70</ele>
        <time>2017-02-11T06:11:38Z</time>
      </trkpt>
      <trkpt lat="42.467926000" lon="-2.468709000">
        <ele>408.90</ele>
        <time>2017-02-11T06:11:39Z</time>
      </trkpt>
      <trkpt lat="42.467927000" lon="-2.468749000">
        <ele>409.00</ele>
        <time>2017-02-11T06:11:40Z</time>
      </trkpt>
      <trkpt lat="42.467927000" lon="-2.468781000">
        <ele>409.10</ele>
        <time>2017-02-11T06:11:41Z</time>
      </trkpt>
      <trkpt lat="42.467928000" lon="-2.468812000">
        <ele>409.20</ele>
        <time>2017-02-11T06:11:42Z</time>
      </trkpt>
      <trkpt lat="42.467929000" lon="-2.468842000">
        <ele>409.30</ele>
        <time>2017-02-11T06:11:43Z</time>
      </trkpt>
      <trkpt lat="42.467933000" lon="-2.468874000">
        <ele>409.40</ele>
        <time>2017-02-11T06:11:44Z</time>
      </trkpt>
      <trkpt lat="42.467939000" lon="-2.468905000">
        <ele>409.50</ele>
        <time>2017-02-11T06:11:45Z</time>
      </trkpt>
      <trkpt lat="42.467944000" lon="-2.468939000">
        <ele>409.60</ele>
        <time>2017-02-11T06:11:46Z</time>
      </trkpt>
      <trkpt lat="42.467946000" lon="-2.468975000">
        <ele>409.70</ele>
        <time>2017-02-11T06:11:47Z</time>
      </trkpt>
      <trkpt lat="42.467944000" lon="-2.469011000">
        <ele>409.70</ele>
        <time>2017-02-11T06:11:48Z</time>
      </trkpt>
      <trkpt lat="42.467946000" lon="-2.469047000">
        <ele>409.70</ele>
        <time>2017-02-11T06:11:49Z</time>
      </trkpt>
      <trkpt lat="42.467946000" lon="-2.469079000">
        <ele>409.90</ele>
        <time>2017-02-11T06:11:50Z</time>
      </trkpt>
      <trkpt lat="42.467947000" lon="-2.469110000">
        <ele>410.10</ele>
        <time>2017-02-11T06:11:51Z</time>
      </trkpt>
      <trkpt lat="42.467950000" lon="-2.469141000">
        <ele>410.30</ele>
        <time>2017-02-11T06:11:52Z</time>
      </trkpt>
      <trkpt lat="42.467949000" lon="-2.469171000">
        <ele>410.40</ele>
        <time>2017-02-11T06:11:53Z</time>
      </trkpt>
      <trkpt lat="42.467951000" lon="-2.469204000">
        <ele>410.60</ele>
        <time>2017-02-11T06:11:54Z</time>
      </trkpt>
      <trkpt lat="42.467950000" lon="-2.469240000">
        <ele>410.70</ele>
        <time>2017-02-11T06:11:55Z</time>
      </trkpt>
      <trkpt lat="42.467953000" lon="-2.469275000">
        <ele>410.90</ele>
        <time>2017-02-11T06:11:56Z</time>
      </trkpt>
      <trkpt lat="42.467957000" lon="-2.469306000">
        <ele>411.00</ele>
        <time>2017-02-11T06:11:57Z</time>
      </trkpt>
      <trkpt lat="42.467962000" lon="-2.469341000">
        <ele>411.10</ele>
        <time>2017-02-11T06:11:58Z</time>
      </trkpt>
      <trkpt lat="42.467969000" lon="-2.469375000">
        <ele>411.20</ele>
        <time>2017-02-11T06:11:59Z</time>
      </trkpt>
      <trkpt lat="42.467976000" lon="-2.469409000">
        <ele>411.40</ele>
        <time>2017-02-11T06:12:00Z</time>
      </trkpt>
      <trkpt lat="42.467974000" lon="-2.469440000">
        <ele>411.50</ele>
        <time>2017-02-11T06:12:01Z</time>
      </trkpt>
      <trkpt lat="42.467975000" lon="-2.469471000">
        <ele>411.80</ele>
        <time>2017-02-11T06:12:02Z</time>
      </trkpt>
      <trkpt lat="42.467974000" lon="-2.469503000">
        <ele>412.00</ele>
        <time>2017-02-11T06:12:03Z</time>
      </trkpt>
      <trkpt lat="42.467978000" lon="-2.469536000">
        <ele>412.20</ele>
        <time>2017-02-11T06:12:04Z</time>
      </trkpt>
      <trkpt lat="42.467983000" lon="-2.469569000">
        <ele>412.40</ele>
        <time>2017-02-11T06:12:05Z</time>
      </trkpt>
      <trkpt lat="42.467987000" lon="-2.469607000">
        <ele>412.50</ele>
        <time>2017-02-11T06:12:06Z</time>
      </trkpt>
      <trkpt lat="42.467991000" lon="-2.469640000">
        <ele>412.50</ele>
        <time>2017-02-11T06:12:07Z</time>
      </trkpt>
      <trkpt lat="42.467992000" lon="-2.469674000">
        <ele>412.60</ele>
        <time>2017-02-11T06:12:08Z</time>
      </trkpt>
      <trkpt lat="42.467993000" lon="-2.469708000">
        <ele>412.60</ele>
        <time>2017-02-11T06:12:09Z</time>
      </trkpt>
      <trkpt lat="42.467996000" lon="-2.469742000">
        <ele>412.70</ele>
        <time>2017-02-11T06:12:10Z</time>
      </trkpt>
      <trkpt lat="42.467996000" lon="-2.469777000">
        <ele>412.80</ele>
        <time>2017-02-11T06:12:11Z</time>
      </trkpt>
      <trkpt lat="42.467995000" lon="-2.469809000">
        <ele>413.10</ele>
        <time>2017-02-11T06:12:12Z</time>
      </trkpt>
      <trkpt lat="42.467998000" lon="-2.469847000">
        <ele>413.30</ele>
        <time>2017-02-11T06:12:13Z</time>
      </trkpt>
      <trkpt lat="42.467996000" lon="-2.469885000">
        <ele>413.40</ele>
        <time>2017-02-11T06:12:14Z</time>
      </trkpt>
      <trkpt lat="42.467999000" lon="-2.469921000">
        <ele>413.50</ele>
        <time>2017-02-11T06:12:15Z</time>
      </trkpt>
      <trkpt lat="42.468004000" lon="-2.469956000">
        <ele>413.60</ele>
        <time>2017-02-11T06:12:16Z</time>
      </trkpt>
      <trkpt lat="42.468006000" lon="-2.469993000">
        <ele>413.60</ele>
        <time>2017-02-11T06:12:17Z</time>
      </trkpt>
      <trkpt lat="42.468009000" lon="-2.470032000">
        <ele>413.70</ele>
        <time>2017-02-11T06:12:18Z</time>
      </trkpt>
      <trkpt lat="42.468007000" lon="-2.470069000">
        <ele>413.80</ele>
        <time>2017-02-11T06:12:19Z</time>
      </trkpt>
      <trkpt lat="42.468004000" lon="-2.470109000">
        <ele>413.80</ele>
        <time>2017-02-11T06:12:20Z</time>
      </trkpt>
      <trkpt lat="42.468003000" lon="-2.470147000">
        <ele>413.90</ele>
        <time>2017-02-11T06:12:21Z</time>
      </trkpt>
      <trkpt lat="42.468004000" lon="-2.470187000">
        <ele>414.00</ele>
        <time>2017-02-11T06:12:22Z</time>
      </trkpt>
      <trkpt lat="42.468005000" lon="-2.470227000">
        <ele>414.00</ele>
        <time>2017-02-11T06:12:23Z</time>
      </trkpt>
      <trkpt lat="42.468008000" lon="-2.470262000">
        <ele>414.20</ele>
        <time>2017-02-11T06:12:24Z</time>
      </trkpt>
      <trkpt lat="42.468011000" lon="-2.470295000">
        <ele>414.40</ele>
        <time>2017-02-11T06:12:25Z</time>
      </trkpt>
      <trkpt lat="42.468014000" lon="-2.470328000">
        <ele>414.30</ele>
        <time>2017-02-11T06:12:26Z</time>
      </trkpt>
      <trkpt lat="42.468016000" lon="-2.470362000">
        <ele>414.30</ele>
        <time>2017-02-11T06:12:27Z</time>
      </trkpt>
      <trkpt lat="42.468018000" lon="-2.470397000">
        <ele>414.50</ele>
        <time>2017-02-11T06:12:28Z</time>
      </trkpt>
      <trkpt lat="42.468020000" lon="-2.470429000">
        <ele>414.60</ele>
        <time>2017-02-11T06:12:29Z</time>
      </trkpt>
      <trkpt lat="42.468022000" lon="-2.470462000">
        <ele>414.70</ele>
        <time>2017-02-11T06:12:30Z</time>
      </trkpt>
      <trkpt lat="42.468025000" lon="-2.470496000">
        <ele>414.80</ele>
        <time>2017-02-11T06:12:31Z</time>
      </trkpt>
      <trkpt lat="42.468031000" lon="-2.470534000">
        <ele>414.90</ele>
        <time>2017-02-11T06:12:32Z</time>
      </trkpt>
      <trkpt lat="42.468030000" lon="-2.470573000">
        <ele>415.00</ele>
        <time>2017-02-11T06:12:33Z</time>
      </trkpt>
      <trkpt lat="42.468034000" lon="-2.470612000">
        <ele>415.10</ele>
        <time>2017-02-11T06:12:34Z</time>
      </trkpt>
      <trkpt lat="42.468038000" lon="-2.470648000">
        <ele>415.20</ele>
        <time>2017-02-11T06:12:35Z</time>
      </trkpt>
      <trkpt lat="42.468042000" lon="-2.470685000">
        <ele>415.40</ele>
        <time>2017-02-11T06:12:36Z</time>
      </trkpt>
      <trkpt lat="42.468045000" lon="-2.470761000">
        <ele>415.50</ele>
        <time>2017-02-11T06:12:38Z</time>
      </trkpt>
      <trkpt lat="42.468046000" lon="-2.470798000">
        <ele>415.60</ele>
        <time>2017-02-11T06:12:39Z</time>
      </trkpt>
      <trkpt lat="42.468046000" lon="-2.470838000">
        <ele>415.60</ele>
        <time>2017-02-11T06:12:40Z</time>
      </trkpt>
      <trkpt lat="42.468048000" lon="-2.470875000">
        <ele>415.60</ele>
        <time>2017-02-11T06:12:41Z</time>
      </trkpt>
      <trkpt lat="42.468049000" lon="-2.470910000">
        <ele>415.70</ele>
        <time>2017-02-11T06:12:42Z</time>
      </trkpt>
      <trkpt lat="42.468053000" lon="-2.470944000">
        <ele>415.80</ele>
        <time>2017-02-11T06:12:43Z</time>
      </trkpt>
      <trkpt lat="42.468054000" lon="-2.470981000">
        <ele>415.80</ele>
        <time>2017-02-11T06:12:44Z</time>
      </trkpt>
      <trkpt lat="42.468056000" lon="-2.471015000">
        <ele>415.90</ele>
        <time>2017-02-11T06:12:45Z</time>
      </trkpt>
      <trkpt lat="42.468060000" lon="-2.471053000">
        <ele>415.80</ele>
        <time>2017-02-11T06:12:46Z</time>
      </trkpt>
      <trkpt lat="42.468061000" lon="-2.471091000">
        <ele>415.70</ele>
        <time>2017-02-11T06:12:47Z</time>
      </trkpt>
      <trkpt lat="42.468058000" lon="-2.471133000">
        <ele>415.60</ele>
        <time>2017-02-11T06:12:48Z</time>
      </trkpt>
      <trkpt lat="42.468057000" lon="-2.471173000">
        <ele>415.60</ele>
        <time>2017-02-11T06:12:49Z</time>
      </trkpt>
      <trkpt lat="42.468055000" lon="-2.471211000">
        <ele>415.60</ele>
        <time>2017-02-11T06:12:50Z</time>
      </trkpt>
      <trkpt lat="42.468055000" lon="-2.471252000">
        <ele>415.50</ele>
        <time>2017-02-11T06:12:51Z</time>
      </trkpt>
      <trkpt lat="42.468058000" lon="-2.471298000">
        <ele>415.60</ele>
        <time>2017-02-11T06:12:52Z</time>
      </trkpt>
      <trkpt lat="42.468060000" lon="-2.471339000">
        <ele>415.70</ele>
        <time>2017-02-11T06:12:53Z</time>
      </trkpt>
      <trkpt lat="42.468059000" lon="-2.471379000">
        <ele>415.80</ele>
        <time>2017-02-11T06:12:54Z</time>
      </trkpt>
      <trkpt lat="42.468060000" lon="-2.471417000">
        <ele>415.80</ele>
        <time>2017-02-11T06:12:55Z</time>
      </trkpt>
      <trkpt lat="42.468059000" lon="-2.471459000">
        <ele>415.90</ele>
        <time>2017-02-11T06:12:56Z</time>
      </trkpt>
      <trkpt lat="42.468058000" lon="-2.471499000">
        <ele>416.00</ele>
        <time>2017-02-11T06:12:57Z</time>
      </trkpt>
      <trkpt lat="42.468058000" lon="-2.471541000">
        <ele>416.20</ele>
        <time>2017-02-11T06:12:58Z</time>
      </trkpt>
      <trkpt lat="42.468056000" lon="-2.471579000">
        <ele>416.30</ele>
        <time>2017-02-11T06:12:59Z</time>
      </trkpt>
      <trkpt lat="42.468056000" lon="-2.471617000">
        <ele>416.40</ele>
        <time>2017-02-11T06:13:00Z</time>
      </trkpt>
      <trkpt lat="42.468058000" lon="-2.471656000">
        <ele>416.50</ele>
        <time>2017-02-11T06:13:01Z</time>
      </trkpt>
      <trkpt lat="42.468059000" lon="-2.471693000">
        <ele>416.50</ele>
        <time>2017-02-11T06:13:02Z</time>
      </trkpt>
      <trkpt lat="42.468058000" lon="-2.471732000">
        <ele>416.50</ele>
        <time>2017-02-11T06:13:03Z</time>
      </trkpt>
      <trkpt lat="42.468060000" lon="-2.471774000">
        <ele>416.30</ele>
        <time>2017-02-11T06:13:04Z</time>
      </trkpt>
      <trkpt lat="42.468061000" lon="-2.471814000">
        <ele>416.20</ele>
        <time>2017-02-11T06:13:05Z</time>
      </trkpt>
      <trkpt lat="42.468067000" lon="-2.471849000">
        <ele>416.00</ele>
        <time>2017-02-11T06:13:06Z</time>
      </trkpt>
      <trkpt lat="42.468073000" lon="-2.471889000">
        <ele>416.00</ele>
        <time>2017-02-11T06:13:07Z</time>
      </trkpt>
      <trkpt lat="42.468078000" lon="-2.471926000">
        <ele>416.00</ele>
        <time>2017-02-11T06:13:08Z</time>
      </trkpt>
      <trkpt lat="42.468081000" lon="-2.471969000">
        <ele>416.00</ele>
        <time>2017-02-11T06:13:09Z</time>
      </trkpt>
      <trkpt lat="42.468081000" lon="-2.472008000">
        <ele>416.10</ele>
        <time>2017-02-11T06:13:10Z</time>
      </trkpt>
      <trkpt lat="42.468087000" lon="-2.472047000">
        <ele>416.10</ele>
        <time>2017-02-11T06:13:11Z</time>
      </trkpt>
      <trkpt lat="42.468097000" lon="-2.472083000">
        <ele>416.10</ele>
        <time>2017-02-11T06:13:12Z</time>
      </trkpt>
      <trkpt lat="42.468105000" lon="-2.472120000">
        <ele>416.10</ele>
        <time>2017-02-11T06:13:13Z</time>
      </trkpt>
      <trkpt lat="42.468117000" lon="-2.472154000">
        <ele>416.10</ele>
        <time>2017-02-11T06:13:14Z</time>
      </trkpt>
      <trkpt lat="42.468130000" lon="-2.472188000">
        <ele>416.10</ele>
        <time>2017-02-11T06:13:15Z</time>
      </trkpt>
      <trkpt lat="42.468145000" lon="-2.472222000">
        <ele>416.20</ele>
        <time>2017-02-11T06:13:16Z</time>
      </trkpt>
      <trkpt lat="42.468160000" lon="-2.472255000">
        <ele>416.30</ele>
        <time>2017-02-11T06:13:17Z</time>
      </trkpt>
      <trkpt lat="42.468176000" lon="-2.472285000">
        <ele>416.40</ele>
        <time>2017-02-11T06:13:18Z</time>
      </trkpt>
      <trkpt lat="42.468191000" lon="-2.472317000">
        <ele>416.60</ele>
        <time>2017-02-11T06:13:19Z</time>
      </trkpt>
      <trkpt lat="42.468203000" lon="-2.472352000">
        <ele>416.70</ele>
        <time>2017-02-11T06:13:20Z</time>
      </trkpt>
      <trkpt lat="42.468217000" lon="-2.472387000">
        <ele>416.70</ele>
        <time>2017-02-11T06:13:21Z</time>
      </trkpt>
      <trkpt lat="42.468230000" lon="-2.472422000">
        <ele>416.80</ele>
        <time>2017-02-11T06:13:22Z</time>
      </trkpt>
      <trkpt lat="42.468239000" lon="-2.472459000">
        <ele>416.80</ele>
        <time>2017-02-11T06:13:23Z</time>
      </trkpt>
      <trkpt lat="42.468247000" lon="-2.472496000">
        <ele>416.80</ele>
        <time>2017-02-11T06:13:24Z</time>
      </trkpt>
      <trkpt lat="42.468253000" lon="-2.472533000">
        <ele>416.90</ele>
        <time>2017-02-11T06:13:25Z</time>
      </trkpt>
      <trkpt lat="42.468262000" lon="-2.472566000">
        <ele>416.80</ele>
        <time>2017-02-11T06:13:26Z</time>
      </trkpt>
      <trkpt lat="42.468269000" lon="-2.472602000">
        <ele>416.80</ele>
        <time>2017-02-11T06:13:27Z</time>
      </trkpt>
      <trkpt lat="42.468272000" lon="-2.472639000">
        <ele>416.80</ele>
        <time>2017-02-11T06:13:28Z</time>
      </trkpt>
      <trkpt lat="42.468273000" lon="-2.472674000">
        <ele>416.90</ele>
        <time>2017-02-11T06:13:29Z</time>
      </trkpt>
      <trkpt lat="42.468279000" lon="-2.472710000">
        <ele>417.10</ele>
        <time>2017-02-11T06:13:30Z</time>
      </trkpt>
      <trkpt lat="42.468281000" lon="-2.472741000">
        <ele>417.30</ele>
        <time>2017-02-11T06:13:31Z</time>
      </trkpt>
      <trkpt lat="42.468285000" lon="-2.472776000">
        <ele>417.50</ele>
        <time>2017-02-11T06:13:32Z</time>
      </trkpt>
      <trkpt lat="42.468288000" lon="-2.472814000">
        <ele>417.70</ele>
        <time>2017-02-11T06:13:33Z</time>
      </trkpt>
      <trkpt lat="42.468293000" lon="-2.472847000">
        <ele>417.80</ele>
        <time>2017-02-11T06:13:34Z</time>
      </trkpt>
      <trkpt lat="42.468306000" lon="-2.472878000">
        <ele>417.90</ele>
        <time>2017-02-11T06:13:35Z</time>
      </trkpt>
      <trkpt lat="42.468325000" lon="-2.472901000">
        <ele>417.90</ele>
        <time>2017-02-11T06:13:36Z</time>
      </trkpt>
      <trkpt lat="42.468347000" lon="-2.472924000">
        <ele>418.00</ele>
        <time>2017-02-11T06:13:37Z</time>
      </trkpt>
      <trkpt lat="42.468400000" lon="-2.472942000">
        <ele>417.70</ele>
        <time>2017-02-11T06:13:39Z</time>
      </trkpt>
      <trkpt lat="42.468428000" lon="-2.472938000">
        <ele>417.60</ele>
        <time>2017-02-11T06:13:40Z</time>
      </trkpt>
      <trkpt lat="42.468456000" lon="-2.472933000">
        <ele>417.60</ele>
        <time>2017-02-11T06:13:41Z</time>
      </trkpt>
      <trkpt lat="42.468485000" lon="-2.472927000">
        <ele>417.60</ele>
        <time>2017-02-11T06:13:42Z</time>
      </trkpt>
      <trkpt lat="42.468514000" lon="-2.472918000">
        <ele>417.60</ele>
        <time>2017-02-11T06:13:43Z</time>
      </trkpt>
      <trkpt lat="42.468542000" lon="-2.472914000">
        <ele>417.70</ele>
        <time>2017-02-11T06:13:44Z</time>
      </trkpt>
      <trkpt lat="42.468569000" lon="-2.472918000">
        <ele>417.70</ele>
        <time>2017-02-11T06:13:45Z</time>
      </trkpt>
      <trkpt lat="42.468597000" lon="-2.472918000">
        <ele>417.80</ele>
        <time>2017-02-11T06:13:46Z</time>
      </trkpt>
      <trkpt lat="42.468627000" lon="-2.472922000">
        <ele>417.80</ele>
        <time>2017-02-11T06:13:47Z</time>
      </trkpt>
      <trkpt lat="42.468659000" lon="-2.472926000">
        <ele>417.80</ele>
        <time>2017-02-11T06:13:48Z</time>
      </trkpt>
      <trkpt lat="42.468689000" lon="-2.472930000">
        <ele>417.80</ele>
        <time>2017-02-11T06:13:49Z</time>
      </trkpt>
      <trkpt lat="42.468719000" lon="-2.472931000">
        <ele>417.90</ele>
        <time>2017-02-11T06:13:50Z</time>
      </trkpt>
      <trkpt lat="42.468749000" lon="-2.472934000">
        <ele>418.00</ele>
        <time>2017-02-11T06:13:51Z</time>
      </trkpt>
      <trkpt lat="42.468777000" lon="-2.472934000">
        <ele>418.00</ele>
        <time>2017-02-11T06:13:52Z</time>
      </trkpt>
      <trkpt lat="42.468805000" lon="-2.472938000">
        <ele>418.00</ele>
        <time>2017-02-11T06:13:53Z</time>
      </trkpt>
      <trkpt lat="42.468836000" lon="-2.472943000">
        <ele>418.10</ele>
        <time>2017-02-11T06:13:54Z</time>
      </trkpt>
      <trkpt lat="42.468864000" lon="-2.472952000">
        <ele>418.10</ele>
        <time>2017-02-11T06:13:55Z</time>
      </trkpt>
      <trkpt lat="42.468892000" lon="-2.472955000">
        <ele>417.90</ele>
        <time>2017-02-11T06:13:56Z</time>
      </trkpt>
      <trkpt lat="42.468919000" lon="-2.472955000">
        <ele>417.80</ele>
        <time>2017-02-11T06:13:57Z</time>
      </trkpt>
      <trkpt lat="42.468947000" lon="-2.472961000">
        <ele>417.70</ele>
        <time>2017-02-11T06:13:58Z</time>
      </trkpt>
      <trkpt lat="42.468978000" lon="-2.472960000">
        <ele>417.60</ele>
        <time>2017-02-11T06:13:59Z</time>
      </trkpt>
      <trkpt lat="42.469011000" lon="-2.472961000">
        <ele>417.50</ele>
        <time>2017-02-11T06:14:00Z</time>
      </trkpt>
      <trkpt lat="42.469043000" lon="-2.472957000">
        <ele>417.50</ele>
        <time>2017-02-11T06:14:01Z</time>
      </trkpt>
      <trkpt lat="42.469076000" lon="-2.472954000">
        <ele>417.50</ele>
        <time>2017-02-11T06:14:02Z</time>
      </trkpt>
      <trkpt lat="42.469110000" lon="-2.472952000">
        <ele>417.40</ele>
        <time>2017-02-11T06:14:03Z</time>
      </trkpt>
      <trkpt lat="42.469143000" lon="-2.472952000">
        <ele>417.50</ele>
        <time>2017-02-11T06:14:04Z</time>
      </trkpt>
      <trkpt lat="42.469174000" lon="-2.472952000">
        <ele>417.50</ele>
        <time>2017-02-11T06:14:05Z</time>
      </trkpt>
      <trkpt lat="42.469208000" lon="-2.472955000">
        <ele>417.50</ele>
        <time>2017-02-11T06:14:06Z</time>
      </trkpt>
      <trkpt lat="42.469239000" lon="-2.472959000">
        <ele>417.50</ele>
        <time>2017-02-11T06:14:07Z</time>
      </trkpt>
      <trkpt lat="42.469272000" lon="-2.472961000">
        <ele>417.50</ele>
        <time>2017-02-11T06:14:08Z</time>
      </trkpt>
      <trkpt lat="42.469306000" lon="-2.472960000">
        <ele>417.40</ele>
        <time>2017-02-11T06:14:09Z</time>
      </trkpt>
      <trkpt lat="42.469338000" lon="-2.472958000">
        <ele>417.30</ele>
        <time>2017-02-11T06:14:10Z</time>
      </trkpt>
      <trkpt lat="42.469371000" lon="-2.472958000">
        <ele>417.20</ele>
        <time>2017-02-11T06:14:11Z</time>
      </trkpt>
      <trkpt lat="42.469401000" lon="-2.472959000">
        <ele>417.00</ele>
        <time>2017-02-11T06:14:12Z</time>
      </trkpt>
      <trkpt lat="42.469430000" lon="-2.472956000">
        <ele>416.90</ele>
        <time>2017-02-11T06:14:13Z</time>
      </trkpt>
      <trkpt lat="42.469462000" lon="-2.472954000">
        <ele>416.80</ele>
        <time>2017-02-11T06:14:14Z</time>
      </trkpt>
      <trkpt lat="42.469491000" lon="-2.472951000">
        <ele>416.80</ele>
        <time>2017-02-11T06:14:15Z</time>
      </trkpt>
      <trkpt lat="42.469525000" lon="-2.472947000">
        <ele>416.70</ele>
        <time>2017-02-11T06:14:16Z</time>
      </trkpt>
      <trkpt lat="42.469560000" lon="-2.472945000">
        <ele>416.70</ele>
        <time>2017-02-11T06:14:17Z</time>
      </trkpt>
      <trkpt lat="42.469595000" lon="-2.472944000">
        <ele>416.70</ele>
        <time>2017-02-11T06:14:18Z</time>
      </trkpt>
      <trkpt lat="42.469630000" lon="-2.472942000">
        <ele>416.80</ele>
        <time>2017-02-11T06:14:19Z</time>
      </trkpt>
      <trkpt lat="42.469664000" lon="-2.472940000">
        <ele>416.80</ele>
        <time>2017-02-11T06:14:20Z</time>
      </trkpt>
      <trkpt lat="42.469695000" lon="-2.472938000">
        <ele>416.80</ele>
        <time>2017-02-11T06:14:21Z</time>
      </trkpt>
      <trkpt lat="42.469725000" lon="-2.472931000">
        <ele>416.80</ele>
        <time>2017-02-11T06:14:22Z</time>
      </trkpt>
      <trkpt lat="42.469756000" lon="-2.472928000">
        <ele>416.80</ele>
        <time>2017-02-11T06:14:23Z</time>
      </trkpt>
      <trkpt lat="42.469788000" lon="-2.472926000">
        <ele>416.80</ele>
        <time>2017-02-11T06:14:24Z</time>
      </trkpt>
      <trkpt lat="42.469816000" lon="-2.472924000">
        <ele>416.80</ele>
        <time>2017-02-11T06:14:25Z</time>
      </trkpt>
      <trkpt lat="42.469848000" lon="-2.472924000">
        <ele>416.90</ele>
        <time>2017-02-11T06:14:26Z</time>
      </trkpt>
      <trkpt lat="42.469877000" lon="-2.472923000">
        <ele>417.00</ele>
        <time>2017-02-11T06:14:27Z</time>
      </trkpt>
      <trkpt lat="42.469905000" lon="-2.472923000">
        <ele>417.20</ele>
        <time>2017-02-11T06:14:28Z</time>
      </trkpt>
      <trkpt lat="42.469934000" lon="-2.472929000">
        <ele>417.30</ele>
        <time>2017-02-11T06:14:29Z</time>
      </trkpt>
      <trkpt lat="42.469963000" lon="-2.472936000">
        <ele>417.40</ele>
        <time>2017-02-11T06:14:30Z</time>
      </trkpt>
      <trkpt lat="42.469988000" lon="-2.472951000">
        <ele>417.50</ele>
        <time>2017-02-11T06:14:31Z</time>
      </trkpt>
      <trkpt lat="42.470010000" lon="-2.472968000">
        <ele>417.60</ele>
        <time>2017-02-11T06:14:32Z</time>
      </trkpt>
      <trkpt lat="42.470027000" lon="-2.473000000">
        <ele>417.70</ele>
        <time>2017-02-11T06:14:33Z</time>
      </trkpt>
      <trkpt lat="42.470035000" lon="-2.473037000">
        <ele>417.80</ele>
        <time>2017-02-11T06:14:34Z</time>
      </trkpt>
      <trkpt lat="42.470040000" lon="-2.473078000">
        <ele>417.80</ele>
        <time>2017-02-11T06:14:35Z</time>
      </trkpt>
      <trkpt lat="42.470046000" lon="-2.473119000">
        <ele>417.90</ele>
        <time>2017-02-11T06:14:36Z</time>
      </trkpt>
      <trkpt lat="42.470049000" lon="-2.473164000">
        <ele>418.00</ele>
        <time>2017-02-11T06:14:37Z</time>
      </trkpt>
      <trkpt lat="42.470053000" lon="-2.473216000">
        <ele>418.10</ele>
        <time>2017-02-11T06:14:38Z</time>
      </trkpt>
      <trkpt lat="42.470050000" lon="-2.473308000">
        <ele>418.10</ele>
        <time>2017-02-11T06:14:40Z</time>
      </trkpt>
      <trkpt lat="42.470050000" lon="-2.473357000">
        <ele>418.20</ele>
        <time>2017-02-11T06:14:41Z</time>
      </trkpt>
      <trkpt lat="42.470051000" lon="-2.473407000">
        <ele>418.10</ele>
        <time>2017-02-11T06:14:42Z</time>
      </trkpt>
      <trkpt lat="42.470051000" lon="-2.473456000">
        <ele>418.10</ele>
        <time>2017-02-11T06:14:43Z</time>
      </trkpt>
      <trkpt lat="42.470052000" lon="-2.473508000">
        <ele>418.00</ele>
        <time>2017-02-11T06:14:44Z</time>
      </trkpt>
      <trkpt lat="42.470053000" lon="-2.473558000">
        <ele>418.00</ele>
        <time>2017-02-11T06:14:45Z</time>
      </trkpt>
      <trkpt lat="42.470056000" lon="-2.473607000">
        <ele>417.90</ele>
        <time>2017-02-11T06:14:46Z</time>
      </trkpt>
      <trkpt lat="42.470056000" lon="-2.473658000">
        <ele>417.90</ele>
        <time>2017-02-11T06:14:47Z</time>
      </trkpt>
      <trkpt lat="42.470057000" lon="-2.473708000">
        <ele>417.80</ele>
        <time>2017-02-11T06:14:48Z</time>
      </trkpt>
      <trkpt lat="42.470058000" lon="-2.473759000">
        <ele>417.80</ele>
        <time>2017-02-11T06:14:49Z</time>
      </trkpt>
      <trkpt lat="42.470059000" lon="-2.473807000">
        <ele>417.80</ele>
        <time>2017-02-11T06:14:50Z</time>
      </trkpt>
      <trkpt lat="42.470059000" lon="-2.473860000">
        <ele>417.80</ele>
        <time>2017-02-11T06:14:51Z</time>
      </trkpt>
      <trkpt lat="42.470061000" lon="-2.473912000">
        <ele>417.60</ele>
        <time>2017-02-11T06:14:52Z</time>
      </trkpt>
      <trkpt lat="42.470060000" lon="-2.473965000">
        <ele>417.50</ele>
        <time>2017-02-11T06:14:53Z</time>
      </trkpt>
      <trkpt lat="42.470062000" lon="-2.474016000">
        <ele>417.60</ele>
        <time>2017-02-11T06:14:54Z</time>
      </trkpt>
      <trkpt lat="42.470060000" lon="-2.474071000">
        <ele>417.70</ele>
        <time>2017-02-11T06:14:55Z</time>
      </trkpt>
      <trkpt lat="42.470060000" lon="-2.474125000">
        <ele>417.40</ele>
        <time>2017-02-11T06:14:56Z</time>
      </trkpt>
      <trkpt lat="42.470057000" lon="-2.474182000">
        <ele>417.20</ele>
        <time>2017-02-11T06:14:57Z</time>
      </trkpt>
      <trkpt lat="42.470055000" lon="-2.474234000">
        <ele>417.40</ele>
        <time>2017-02-11T06:14:58Z</time>
      </trkpt>
      <trkpt lat="42.470057000" lon="-2.474283000">
        <ele>417.50</ele>
        <time>2017-02-11T06:14:59Z</time>
      </trkpt>
      <trkpt lat="42.470056000" lon="-2.474328000">
        <ele>417.50</ele>
        <time>2017-02-11T06:15:00Z</time>
      </trkpt>
      <trkpt lat="42.470061000" lon="-2.474378000">
        <ele>417.50</ele>
        <time>2017-02-11T06:15:01Z</time>
      </trkpt>
      <trkpt lat="42.470064000" lon="-2.474425000">
        <ele>417.40</ele>
        <time>2017-02-11T06:15:02Z</time>
      </trkpt>
      <trkpt lat="42.470067000" lon="-2.474472000">
        <ele>417.40</ele>
        <time>2017-02-11T06:15:03Z</time>
      </trkpt>
      <trkpt lat="42.470072000" lon="-2.474520000">
        <ele>417.40</ele>
        <time>2017-02-11T06:15:04Z</time>
      </trkpt>
      <trkpt lat="42.470078000" lon="-2.474566000">
        <ele>417.40</ele>
        <time>2017-02-11T06:15:05Z</time>
      </trkpt>
      <trkpt lat="42.470080000" lon="-2.474612000">
        <ele>417.40</ele>
        <time>2017-02-11T06:15:06Z</time>
      </trkpt>
      <trkpt lat="42.470079000" lon="-2.474662000">
        <ele>417.40</ele>
        <time>2017-02-11T06:15:07Z</time>
      </trkpt>
      <trkpt lat="42.470079000" lon="-2.474712000">
        <ele>417.30</ele>
        <time>2017-02-11T06:15:08Z</time>
      </trkpt>
      <trkpt lat="42.470081000" lon="-2.474763000">
        <ele>417.20</ele>
        <time>2017-02-11T06:15:09Z</time>
      </trkpt>
      <trkpt lat="42.470082000" lon="-2.474814000">
        <ele>417.10</ele>
        <time>2017-02-11T06:15:10Z</time>
      </trkpt>
      <trkpt lat="42.470078000" lon="-2.474866000">
        <ele>417.10</ele>
        <time>2017-02-11T06:15:11Z</time>
      </trkpt>
      <trkpt lat="42.470076000" lon="-2.474922000">
        <ele>417.00</ele>
        <time>2017-02-11T06:15:12Z</time>
      </trkpt>
      <trkpt lat="42.470079000" lon="-2.474977000">
        <ele>417.00</ele>
        <time>2017-02-11T06:15:13Z</time>
      </trkpt>
      <trkpt lat="42.470082000" lon="-2.475031000">
        <ele>416.90</ele>
        <time>2017-02-11T06:15:14Z</time>
      </trkpt>
      <trkpt lat="42.470085000" lon="-2.475082000">
        <ele>416.90</ele>
        <time>2017-02-11T06:15:15Z</time>
      </trkpt>
      <trkpt lat="42.470088000" lon="-2.475134000">
        <ele>417.00</ele>
        <time>2017-02-11T06:15:16Z</time>
      </trkpt>
      <trkpt lat="42.470085000" lon="-2.475184000">
        <ele>417.10</ele>
        <time>2017-02-11T06:15:17Z</time>
      </trkpt>
      <trkpt lat="42.470085000" lon="-2.475233000">
        <ele>417.10</ele>
        <time>2017-02-11T06:15:18Z</time>
      </trkpt>
      <trkpt lat="42.470086000" lon="-2.475286000">
        <ele>417.20</ele>
        <time>2017-02-11T06:15:19Z</time>
      </trkpt>
      <trkpt lat="42.470086000" lon="-2.475335000">
        <ele>417.00</ele>
        <time>2017-02-11T06:15:20Z</time>
      </trkpt>
      <trkpt lat="42.470087000" lon="-2.475387000">
        <ele>416.90</ele>
        <time>2017-02-11T06:15:21Z</time>
      </trkpt>
      <trkpt lat="42.470094000" lon="-2.475439000">
        <ele>416.80</ele>
        <time>2017-02-11T06:15:22Z</time>
      </trkpt>
      <trkpt lat="42.470111000" lon="-2.475488000">
        <ele>416.70</ele>
        <time>2017-02-11T06:15:23Z</time>
      </trkpt>
      <trkpt lat="42.470129000" lon="-2.475531000">
        <ele>416.60</ele>
        <time>2017-02-11T06:15:24Z</time>
      </trkpt>
      <trkpt lat="42.470149000" lon="-2.475576000">
        <ele>416.50</ele>
        <time>2017-02-11T06:15:25Z</time>
      </trkpt>
      <trkpt lat="42.470167000" lon="-2.475626000">
        <ele>416.50</ele>
        <time>2017-02-11T06:15:26Z</time>
      </trkpt>
      <trkpt lat="42.470185000" lon="-2.475678000">
        <ele>416.40</ele>
        <time>2017-02-11T06:15:27Z</time>
      </trkpt>
      <trkpt lat="42.470201000" lon="-2.475728000">
        <ele>416.30</ele>
        <time>2017-02-11T06:15:28Z</time>
      </trkpt>
      <trkpt lat="42.470220000" lon="-2.475782000">
        <ele>416.20</ele>
        <time>2017-02-11T06:15:29Z</time>
      </trkpt>
      <trkpt lat="42.470237000" lon="-2.475841000">
        <ele>416.10</ele>
        <time>2017-02-11T06:15:30Z</time>
      </trkpt>
      <trkpt lat="42.470258000" lon="-2.475899000">
        <ele>416.00</ele>
        <time>2017-02-11T06:15:31Z</time>
      </trkpt>
      <trkpt lat="42.470279000" lon="-2.475958000">
        <ele>415.80</ele>
        <time>2017-02-11T06:15:32Z</time>
      </trkpt>
      <trkpt lat="42.470301000" lon="-2.476015000">
        <ele>415.70</ele>
        <time>2017-02-11T06:15:33Z</time>
      </trkpt>
      <trkpt lat="42.470324000" lon="-2.476075000">
        <ele>415.60</ele>
        <time>2017-02-11T06:15:34Z</time>
      </trkpt>
      <trkpt lat="42.470347000" lon="-2.476133000">
        <ele>415.50</ele>
        <time>2017-02-11T06:15:35Z</time>
      </trkpt>
      <trkpt lat="42.470370000" lon="-2.476190000">
        <ele>415.50</ele>
        <time>2017-02-11T06:15:36Z</time>
      </trkpt>
      <trkpt lat="42.470394000" lon="-2.476250000">
        <ele>415.40</ele>
        <time>2017-02-11T06:15:37Z</time>
      </trkpt>
      <trkpt lat="42.470421000" lon="-2.476309000">
        <ele>415.30</ele>
        <time>2017-02-11T06:15:38Z</time>
      </trkpt>
      <trkpt lat="42.470446000" lon="-2.476374000">
        <ele>415.20</ele>
        <time>2017-02-11T06:15:39Z</time>
      </trkpt>
      <trkpt lat="42.470496000" lon="-2.476508000">
        <ele>415.00</ele>
        <time>2017-02-11T06:15:41Z</time>
      </trkpt>
      <trkpt lat="42.470523000" lon="-2.476578000">
        <ele>414.90</ele>
        <time>2017-02-11T06:15:42Z</time>
      </trkpt>
      <trkpt lat="42.470546000" lon="-2.476649000">
        <ele>414.70</ele>
        <time>2017-02-11T06:15:43Z</time>
      </trkpt>
      <trkpt lat="42.470569000" lon="-2.476727000">
        <ele>414.50</ele>
        <time>2017-02-11T06:15:44Z</time>
      </trkpt>
      <trkpt lat="42.470593000" lon="-2.476802000">
        <ele>414.30</ele>
        <time>2017-02-11T06:15:45Z</time>
      </trkpt>
      <trkpt lat="42.470614000" lon="-2.476885000">
        <ele>414.10</ele>
        <time>2017-02-11T06:15:46Z</time>
      </trkpt>
      <trkpt lat="42.470634000" lon="-2.476972000">
        <ele>414.00</ele>
        <time>2017-02-11T06:15:47Z</time>
      </trkpt>
      <trkpt lat="42.470649000" lon="-2.477062000">
        <ele>413.80</ele>
        <time>2017-02-11T06:15:48Z</time>
      </trkpt>
      <trkpt lat="42.470663000" lon="-2.477160000">
        <ele>413.70</ele>
        <time>2017-02-11T06:15:49Z</time>
      </trkpt>
      <trkpt lat="42.470675000" lon="-2.477260000">
        <ele>413.40</ele>
        <time>2017-02-11T06:15:50Z</time>
      </trkpt>
      <trkpt lat="42.470684000" lon="-2.477362000">
        <ele>413.20</ele>
        <time>2017-02-11T06:15:51Z</time>
      </trkpt>
      <trkpt lat="42.470692000" lon="-2.477467000">
        <ele>412.90</ele>
        <time>2017-02-11T06:15:52Z</time>
      </trkpt>
      <trkpt lat="42.470702000" lon="-2.477571000">
        <ele>412.80</ele>
        <time>2017-02-11T06:15:53Z</time>
      </trkpt>
      <trkpt lat="42.470713000" lon="-2.477676000">
        <ele>412.50</ele>
        <time>2017-02-11T06:15:54Z</time>
      </trkpt>
      <trkpt lat="42.470725000" lon="-2.477781000">
        <ele>412.30</ele>
        <time>2017-02-11T06:15:55Z</time>
      </trkpt>
      <trkpt lat="42.470741000" lon="-2.477887000">
        <ele>411.80</ele>
        <time>2017-02-11T06:15:56Z</time>
      </trkpt>
      <trkpt lat="42.470758000" lon="-2.477990000">
        <ele>411.40</ele>
        <time>2017-02-11T06:15:57Z</time>
      </trkpt>
      <trkpt lat="42.470778000" lon="-2.478095000">
        <ele>411.10</ele>
        <time>2017-02-11T06:15:58Z</time>
      </trkpt>
      <trkpt lat="42.470797000" lon="-2.478204000">
        <ele>410.80</ele>
        <time>2017-02-11T06:15:59Z</time>
      </trkpt>
      <trkpt lat="42.470817000" lon="-2.478309000">
        <ele>410.50</ele>
        <time>2017-02-11T06:16:00Z</time>
      </trkpt>
      <trkpt lat="42.470836000" lon="-2.478411000">
        <ele>410.20</ele>
        <time>2017-02-11T06:16:01Z</time>
      </trkpt>
      <trkpt lat="42.470856000" lon="-2.478510000">
        <ele>410.00</ele>
        <time>2017-02-11T06:16:02Z</time>
      </trkpt>
      <trkpt lat="42.470877000" lon="-2.478610000">
        <ele>409.80</ele>
        <time>2017-02-11T06:16:03Z</time>
      </trkpt>
      <trkpt lat="42.470907000" lon="-2.478702000">
        <ele>409.50</ele>
        <time>2017-02-11T06:16:04Z</time>
      </trkpt>
      <trkpt lat="42.470944000" lon="-2.478783000">
        <ele>409.40</ele>
        <time>2017-02-11T06:16:05Z</time>
      </trkpt>
      <trkpt lat="42.470981000" lon="-2.478857000">
        <ele>409.40</ele>
        <time>2017-02-11T06:16:06Z</time>
      </trkpt>
      <trkpt lat="42.471020000" lon="-2.478931000">
        <ele>409.40</ele>
        <time>2017-02-11T06:16:07Z</time>
      </trkpt>
      <trkpt lat="42.471059000" lon="-2.478994000">
        <ele>409.40</ele>
        <time>2017-02-11T06:16:08Z</time>
      </trkpt>
      <trkpt lat="42.471094000" lon="-2.479057000">
        <ele>409.30</ele>
        <time>2017-02-11T06:16:09Z</time>
      </trkpt>
      <trkpt lat="42.471124000" lon="-2.479116000">
        <ele>409.50</ele>
        <time>2017-02-11T06:16:10Z</time>
      </trkpt>
      <trkpt lat="42.471156000" lon="-2.479169000">
        <ele>409.60</ele>
        <time>2017-02-11T06:16:11Z</time>
      </trkpt>
      <trkpt lat="42.471184000" lon="-2.479220000">
        <ele>409.70</ele>
        <time>2017-02-11T06:16:12Z</time>
      </trkpt>
      <trkpt lat="42.471207000" lon="-2.479268000">
        <ele>409.80</ele>
        <time>2017-02-11T06:16:13Z</time>
      </trkpt>
      <trkpt lat="42.471229000" lon="-2.479313000">
        <ele>410.00</ele>
        <time>2017-02-11T06:16:14Z</time>
      </trkpt>
      <trkpt lat="42.471250000" lon="-2.479359000">
        <ele>410.10</ele>
        <time>2017-02-11T06:16:15Z</time>
      </trkpt>
      <trkpt lat="42.471269000" lon="-2.479403000">
        <ele>410.30</ele>
        <time>2017-02-11T06:16:16Z</time>
      </trkpt>
      <trkpt lat="42.471289000" lon="-2.479443000">
        <ele>410.50</ele>
        <time>2017-02-11T06:16:17Z</time>
      </trkpt>
      <trkpt lat="42.471301000" lon="-2.479487000">
        <ele>410.80</ele>
        <time>2017-02-11T06:16:18Z</time>
      </trkpt>
      <trkpt lat="42.471311000" lon="-2.479530000">
        <ele>411.00</ele>
        <time>2017-02-11T06:16:19Z</time>
      </trkpt>
      <trkpt lat="42.471322000" lon="-2.479574000">
        <ele>411.20</ele>
        <time>2017-02-11T06:16:20Z</time>
      </trkpt>
      <trkpt lat="42.471330000" lon="-2.479624000">
        <ele>411.30</ele>
        <time>2017-02-11T06:16:21Z</time>
      </trkpt>
      <trkpt lat="42.471338000" lon="-2.479672000">
        <ele>411.50</ele>
        <time>2017-02-11T06:16:22Z</time>
      </trkpt>
      <trkpt lat="42.471346000" lon="-2.479714000">
        <ele>411.70</ele>
        <time>2017-02-11T06:16:23Z</time>
      </trkpt>
      <trkpt lat="42.471353000" lon="-2.479759000">
        <ele>412.00</ele>
        <time>2017-02-11T06:16:24Z</time>
      </trkpt>
      <trkpt lat="42.471356000" lon="-2.479801000">
        <ele>412.20</ele>
        <time>2017-02-11T06:16:25Z</time>
      </trkpt>
      <trkpt lat="42.471359000" lon="-2.479846000">
        <ele>412.60</ele>
        <time>2017-02-11T06:16:26Z</time>
      </trkpt>
      <trkpt lat="42.471364000" lon="-2.479893000">
        <ele>412.90</ele>
        <time>2017-02-11T06:16:27Z</time>
      </trkpt>
      <trkpt lat="42.471368000" lon="-2.479939000">
        <ele>413.20</ele>
        <time>2017-02-11T06:16:28Z</time>
      </trkpt>
      <trkpt lat="42.471370000" lon="-2.479989000">
        <ele>413.40</ele>
        <time>2017-02-11T06:16:29Z</time>
      </trkpt>
      <trkpt lat="42.471372000" lon="-2.480037000">
        <ele>413.60</ele>
        <time>2017-02-11T06:16:30Z</time>
      </trkpt>
      <trkpt lat="42.471374000" lon="-2.480082000">
        <ele>413.80</ele>
        <time>2017-02-11T06:16:31Z</time>
      </trkpt>
      <trkpt lat="42.471377000" lon="-2.480129000">
        <ele>414.00</ele>
        <time>2017-02-11T06:16:32Z</time>
      </trkpt>
      <trkpt lat="42.471381000" lon="-2.480172000">
        <ele>414.20</ele>
        <time>2017-02-11T06:16:33Z</time>
      </trkpt>
      <trkpt lat="42.471383000" lon="-2.480220000">
        <ele>414.50</ele>
        <time>2017-02-11T06:16:34Z</time>
      </trkpt>
      <trkpt lat="42.471389000" lon="-2.480269000">
        <ele>414.60</ele>
        <time>2017-02-11T06:16:35Z</time>
      </trkpt>
      <trkpt lat="42.471395000" lon="-2.480318000">
        <ele>414.80</ele>
        <time>2017-02-11T06:16:36Z</time>
      </trkpt>
      <trkpt lat="42.471401000" lon="-2.480366000">
        <ele>414.90</ele>
        <time>2017-02-11T06:16:37Z</time>
      </trkpt>
      <trkpt lat="42.471410000" lon="-2.480414000">
        <ele>415.00</ele>
        <time>2017-02-11T06:16:38Z</time>
      </trkpt>
      <trkpt lat="42.471419000" lon="-2.480461000">
        <ele>415.00</ele>
        <time>2017-02-11T06:16:39Z</time>
      </trkpt>
      <trkpt lat="42.471428000" lon="-2.480505000">
        <ele>415.10</ele>
        <time>2017-02-11T06:16:40Z</time>
      </trkpt>
      <trkpt lat="42.471451000" lon="-2.480595000">
        <ele>415.50</ele>
        <time>2017-02-11T06:16:42Z</time>
      </trkpt>
      <trkpt lat="42.471466000" lon="-2.480635000">
        <ele>415.60</ele>
        <time>2017-02-11T06:16:43Z</time>
      </trkpt>
      <trkpt lat="42.471481000" lon="-2.480678000">
        <ele>415.80</ele>
        <time>2017-02-11T06:16:44Z</time>
      </trkpt>
      <trkpt lat="42.471498000" lon="-2.480722000">
        <ele>415.90</ele>
        <time>2017-02-11T06:16:45Z</time>
      </trkpt>
      <trkpt lat="42.471516000" lon="-2.480766000">
        <ele>415.90</ele>
        <time>2017-02-11T06:16:46Z</time>
      </trkpt>
      <trkpt lat="42.471531000" lon="-2.480806000">
        <ele>416.00</ele>
        <time>2017-02-11T06:16:47Z</time>
      </trkpt>
      <trkpt lat="42.471549000" lon="-2.480847000">
        <ele>416.00</ele>
        <time>2017-02-11T06:16:48Z</time>
      </trkpt>
      <trkpt lat="42.471569000" lon="-2.480885000">
        <ele>416.10</ele>
        <time>2017-02-11T06:16:49Z</time>
      </trkpt>
      <trkpt lat="42.471591000" lon="-2.480922000">
        <ele>416.20</ele>
        <time>2017-02-11T06:16:50Z</time>
      </trkpt>
      <trkpt lat="42.471614000" lon="-2.480961000">
        <ele>416.30</ele>
        <time>2017-02-11T06:16:51Z</time>
      </trkpt>
      <trkpt lat="42.471637000" lon="-2.480997000">
        <ele>416.70</ele>
        <time>2017-02-11T06:16:52Z</time>
      </trkpt>
      <trkpt lat="42.471659000" lon="-2.481031000">
        <ele>416.90</ele>
        <time>2017-02-11T06:16:53Z</time>
      </trkpt>
      <trkpt lat="42.471681000" lon="-2.481066000">
        <ele>417.20</ele>
        <time>2017-02-11T06:16:54Z</time>
      </trkpt>
      <trkpt lat="42.471705000" lon="-2.481100000">
        <ele>417.40</ele>
        <time>2017-02-11T06:16:55Z</time>
      </trkpt>
      <trkpt lat="42.471731000" lon="-2.481133000">
        <ele>417.70</ele>
        <time>2017-02-11T06:16:56Z</time>
      </trkpt>
      <trkpt lat="42.471753000" lon="-2.481170000">
        <ele>417.90</ele>
        <time>2017-02-11T06:16:57Z</time>
      </trkpt>
      <trkpt lat="42.471777000" lon="-2.481206000">
        <ele>418.00</ele>
        <time>2017-02-11T06:16:58Z</time>
      </trkpt>
      <trkpt lat="42.471802000" lon="-2.481239000">
        <ele>418.10</ele>
        <time>2017-02-11T06:16:59Z</time>
      </trkpt>
      <trkpt lat="42.471827000" lon="-2.481272000">
        <ele>418.20</ele>
        <time>2017-02-11T06:17:00Z</time>
      </trkpt>
      <trkpt lat="42.471850000" lon="-2.481303000">
        <ele>418.30</ele>
        <time>2017-02-11T06:17:01Z</time>
      </trkpt>
      <trkpt lat="42.471874000" lon="-2.481336000">
        <ele>418.30</ele>
        <time>2017-02-11T06:17:02Z</time>
      </trkpt>
      <trkpt lat="42.471899000" lon="-2.481370000">
        <ele>418.30</ele>
        <time>2017-02-11T06:17:03Z</time>
      </trkpt>
      <trkpt lat="42.471925000" lon="-2.481406000">
        <ele>418.40</ele>
        <time>2017-02-11T06:17:04Z</time>
      </trkpt>
      <trkpt lat="42.471950000" lon="-2.481441000">
        <ele>418.50</ele>
        <time>2017-02-11T06:17:05Z</time>
      </trkpt>
      <trkpt lat="42.471973000" lon="-2.481477000">
        <ele>418.60</ele>
        <time>2017-02-11T06:17:06Z</time>
      </trkpt>
      <trkpt lat="42.471997000" lon="-2.481512000">
        <ele>418.60</ele>
        <time>2017-02-11T06:17:07Z</time>
      </trkpt>
      <trkpt lat="42.472021000" lon="-2.481547000">
        <ele>418.70</ele>
        <time>2017-02-11T06:17:08Z</time>
      </trkpt>
      <trkpt lat="42.472044000" lon="-2.481583000">
        <ele>418.80</ele>
        <time>2017-02-11T06:17:09Z</time>
      </trkpt>
      <trkpt lat="42.472065000" lon="-2.481622000">
        <ele>418.90</ele>
        <time>2017-02-11T06:17:10Z</time>
      </trkpt>
      <trkpt lat="42.472084000" lon="-2.481662000">
        <ele>418.90</ele>
        <time>2017-02-11T06:17:11Z</time>
      </trkpt>
      <trkpt lat="42.472102000" lon="-2.481701000">
        <ele>419.10</ele>
        <time>2017-02-11T06:17:12Z</time>
      </trkpt>
      <trkpt lat="42.472123000" lon="-2.481742000">
        <ele>419.20</ele>
        <time>2017-02-11T06:17:13Z</time>
      </trkpt>
      <trkpt lat="42.472142000" lon="-2.481781000">
        <ele>419.40</ele>
        <time>2017-02-11T06:17:14Z</time>
      </trkpt>
      <trkpt lat="42.472163000" lon="-2.481819000">
        <ele>419.50</ele>
        <time>2017-02-11T06:17:15Z</time>
      </trkpt>
      <trkpt lat="42.472181000" lon="-2.481858000">
        <ele>419.70</ele>
        <time>2017-02-11T06:17:16Z</time>
      </trkpt>
      <trkpt lat="42.472203000" lon="-2.481896000">
        <ele>419.90</ele>
        <time>2017-02-11T06:17:17Z</time>
      </trkpt>
      <trkpt lat="42.472224000" lon="-2.481934000">
        <ele>420.00</ele>
        <time>2017-02-11T06:17:18Z</time>
      </trkpt>
      <trkpt lat="42.472247000" lon="-2.481973000">
        <ele>420.10</ele>
        <time>2017-02-11T06:17:19Z</time>
      </trkpt>
      <trkpt lat="42.472270000" lon="-2.482011000">
        <ele>420.30</ele>
        <time>2017-02-11T06:17:20Z</time>
      </trkpt>
      <trkpt lat="42.472291000" lon="-2.482048000">
        <ele>420.40</ele>
        <time>2017-02-11T06:17:21Z</time>
      </trkpt>
      <trkpt lat="42.472309000" lon="-2.482089000">
        <ele>420.40</ele>
        <time>2017-02-11T06:17:22Z</time>
      </trkpt>
      <trkpt lat="42.472330000" lon="-2.482127000">
        <ele>420.50</ele>
        <time>2017-02-11T06:17:23Z</time>
      </trkpt>
      <trkpt lat="42.472352000" lon="-2.482169000">
        <ele>420.50</ele>
        <time>2017-02-11T06:17:24Z</time>
      </trkpt>
      <trkpt lat="42.472371000" lon="-2.482211000">
        <ele>420.60</ele>
        <time>2017-02-11T06:17:25Z</time>
      </trkpt>
      <trkpt lat="42.472389000" lon="-2.482254000">
        <ele>420.50</ele>
        <time>2017-02-11T06:17:26Z</time>
      </trkpt>
      <trkpt lat="42.472409000" lon="-2.482296000">
        <ele>420.40</ele>
        <time>2017-02-11T06:17:27Z</time>
      </trkpt>
      <trkpt lat="42.472429000" lon="-2.482340000">
        <ele>420.30</ele>
        <time>2017-02-11T06:17:28Z</time>
      </trkpt>
      <trkpt lat="42.472448000" lon="-2.482382000">
        <ele>420.30</ele>
        <time>2017-02-11T06:17:29Z</time>
      </trkpt>
      <trkpt lat="42.472468000" lon="-2.482425000">
        <ele>420.30</ele>
        <time>2017-02-11T06:17:30Z</time>
      </trkpt>
      <trkpt lat="42.472486000" lon="-2.482465000">
        <ele>420.30</ele>
        <time>2017-02-11T06:17:31Z</time>
      </trkpt>
      <trkpt lat="42.472506000" lon="-2.482504000">
        <ele>420.30</ele>
        <time>2017-02-11T06:17:32Z</time>
      </trkpt>
      <trkpt lat="42.472522000" lon="-2.482544000">
        <ele>420.40</ele>
        <time>2017-02-11T06:17:33Z</time>
      </trkpt>
      <trkpt lat="42.472539000" lon="-2.482582000">
        <ele>420.60</ele>
        <time>2017-02-11T06:17:34Z</time>
      </trkpt>
      <trkpt lat="42.472561000" lon="-2.482617000">
        <ele>420.80</ele>
        <time>2017-02-11T06:17:35Z</time>
      </trkpt>
      <trkpt lat="42.472583000" lon="-2.482656000">
        <ele>421.00</ele>
        <time>2017-02-11T06:17:36Z</time>
      </trkpt>
      <trkpt lat="42.472601000" lon="-2.482697000">
        <ele>421.10</ele>
        <time>2017-02-11T06:17:37Z</time>
      </trkpt>
      <trkpt lat="42.472620000" lon="-2.482736000">
        <ele>421.20</ele>
        <time>2017-02-11T06:17:38Z</time>
      </trkpt>
      <trkpt lat="42.472639000" lon="-2.482778000">
        <ele>421.20</ele>
        <time>2017-02-11T06:17:39Z</time>
      </trkpt>
      <trkpt lat="42.472659000" lon="-2.482815000">
        <ele>421.40</ele>
        <time>2017-02-11T06:17:40Z</time>
      </trkpt>
      <trkpt lat="42.472683000" lon="-2.482856000">
        <ele>421.60</ele>
        <time>2017-02-11T06:17:41Z</time>
      </trkpt>
      <trkpt lat="42.472720000" lon="-2.482933000">
        <ele>422.00</ele>
        <time>2017-02-11T06:17:43Z</time>
      </trkpt>
      <trkpt lat="42.472741000" lon="-2.482967000">
        <ele>422.10</ele>
        <time>2017-02-11T06:17:44Z</time>
      </trkpt>
      <trkpt lat="42.472758000" lon="-2.483009000">
        <ele>422.20</ele>
        <time>2017-02-11T06:17:45Z</time>
      </trkpt>
      <trkpt lat="42.472772000" lon="-2.483051000">
        <ele>422.30</ele>
        <time>2017-02-11T06:17:46Z</time>
      </trkpt>
      <trkpt lat="42.472791000" lon="-2.483088000">
        <ele>422.30</ele>
        <time>2017-02-11T06:17:47Z</time>
      </trkpt>
      <trkpt lat="42.472810000" lon="-2.483125000">
        <ele>422.40</ele>
        <time>2017-02-11T06:17:48Z</time>
      </trkpt>
      <trkpt lat="42.472827000" lon="-2.483166000">
        <ele>422.40</ele>
        <time>2017-02-11T06:17:49Z</time>
      </trkpt>
      <trkpt lat="42.472848000" lon="-2.483201000">
        <ele>422.50</ele>
        <time>2017-02-11T06:17:50Z</time>
      </trkpt>
      <trkpt lat="42.472865000" lon="-2.483237000">
        <ele>422.60</ele>
        <time>2017-02-11T06:17:51Z</time>
      </trkpt>
      <trkpt lat="42.472884000" lon="-2.483278000">
        <ele>422.70</ele>
        <time>2017-02-11T06:17:52Z</time>
      </trkpt>
      <trkpt lat="42.472900000" lon="-2.483317000">
        <ele>422.70</ele>
        <time>2017-02-11T06:17:53Z</time>
      </trkpt>
      <trkpt lat="42.472918000" lon="-2.483355000">
        <ele>422.90</ele>
        <time>2017-02-11T06:17:54Z</time>
      </trkpt>
      <trkpt lat="42.472934000" lon="-2.483393000">
        <ele>422.90</ele>
        <time>2017-02-11T06:17:55Z</time>
      </trkpt>
      <trkpt lat="42.472948000" lon="-2.483433000">
        <ele>423.00</ele>
        <time>2017-02-11T06:17:56Z</time>
      </trkpt>
      <trkpt lat="42.472960000" lon="-2.483478000">
        <ele>423.00</ele>
        <time>2017-02-11T06:17:57Z</time>
      </trkpt>
      <trkpt lat="42.472978000" lon="-2.483521000">
        <ele>423.10</ele>
        <time>2017-02-11T06:17:58Z</time>
      </trkpt>
      <trkpt lat="42.472993000" lon="-2.483562000">
        <ele>423.20</ele>
        <time>2017-02-11T06:17:59Z</time>
      </trkpt>
      <trkpt lat="42.473004000" lon="-2.483604000">
        <ele>423.30</ele>
        <time>2017-02-11T06:18:00Z</time>
      </trkpt>
      <trkpt lat="42.473020000" lon="-2.483644000">
        <ele>423.30</ele>
        <time>2017-02-11T06:18:01Z</time>
      </trkpt>
      <trkpt lat="42.473035000" lon="-2.483686000">
        <ele>423.50</ele>
        <time>2017-02-11T06:18:02Z</time>
      </trkpt>
      <trkpt lat="42.473050000" lon="-2.483726000">
        <ele>423.70</ele>
        <time>2017-02-11T06:18:03Z</time>
      </trkpt>
      <trkpt lat="42.473065000" lon="-2.483768000">
        <ele>423.80</ele>
        <time>2017-02-11T06:18:04Z</time>
      </trkpt>
      <trkpt lat="42.473077000" lon="-2.483810000">
        <ele>423.90</ele>
        <time>2017-02-11T06:18:05Z</time>
      </trkpt>
      <trkpt lat="42.473091000" lon="-2.483849000">
        <ele>424.00</ele>
        <time>2017-02-11T06:18:06Z</time>
      </trkpt>
      <trkpt lat="42.473109000" lon="-2.483888000">
        <ele>424.10</ele>
        <time>2017-02-11T06:18:07Z</time>
      </trkpt>
      <trkpt lat="42.473125000" lon="-2.483930000">
        <ele>424.20</ele>
        <time>2017-02-11T06:18:08Z</time>
      </trkpt>
      <trkpt lat="42.473141000" lon="-2.483970000">
        <ele>424.20</ele>
        <time>2017-02-11T06:18:09Z</time>
      </trkpt>
      <trkpt lat="42.473154000" lon="-2.484013000">
        <ele>424.30</ele>
        <time>2017-02-11T06:18:10Z</time>
      </trkpt>
      <trkpt lat="42.473166000" lon="-2.484056000">
        <ele>424.40</ele>
        <time>2017-02-11T06:18:11Z</time>
      </trkpt>
      <trkpt lat="42.473183000" lon="-2.484095000">
        <ele>424.50</ele>
        <time>2017-02-11T06:18:12Z</time>
      </trkpt>
      <trkpt lat="42.473197000" lon="-2.484136000">
        <ele>424.50</ele>
        <time>2017-02-11T06:18:13Z</time>
      </trkpt>
      <trkpt lat="42.473208000" lon="-2.484178000">
        <ele>424.60</ele>
        <time>2017-02-11T06:18:14Z</time>
      </trkpt>
      <trkpt lat="42.473221000" lon="-2.484221000">
        <ele>424.70</ele>
        <time>2017-02-11T06:18:15Z</time>
      </trkpt>
      <trkpt lat="42.473230000" lon="-2.484263000">
        <ele>424.80</ele>
        <time>2017-02-11T06:18:16Z</time>
      </trkpt>
      <trkpt lat="42.473240000" lon="-2.484311000">
        <ele>424.90</ele>
        <time>2017-02-11T06:18:17Z</time>
      </trkpt>
      <trkpt lat="42.473252000" lon="-2.484354000">
        <ele>425.10</ele>
        <time>2017-02-11T06:18:18Z</time>
      </trkpt>
      <trkpt lat="42.473259000" lon="-2.484402000">
        <ele>425.30</ele>
        <time>2017-02-11T06:18:19Z</time>
      </trkpt>
      <trkpt lat="42.473266000" lon="-2.484450000">
        <ele>425.40</ele>
        <time>2017-02-11T06:18:20Z</time>
      </trkpt>
      <trkpt lat="42.473279000" lon="-2.484492000">
        <ele>425.50</ele>
        <time>2017-02-11T06:18:21Z</time>
      </trkpt>
      <trkpt lat="42.473289000" lon="-2.484536000">
        <ele>425.60</ele>
        <time>2017-02-11T06:18:22Z</time>
      </trkpt>
      <trkpt lat="42.473300000" lon="-2.484580000">
        <ele>425.70</ele>
        <time>2017-02-11T06:18:23Z</time>
      </trkpt>
      <trkpt lat="42.473308000" lon="-2.484625000">
        <ele>425.80</ele>
        <time>2017-02-11T06:18:24Z</time>
      </trkpt>
      <trkpt lat="42.473320000" lon="-2.484668000">
        <ele>425.90</ele>
        <time>2017-02-11T06:18:25Z</time>
      </trkpt>
      <trkpt lat="42.473329000" lon="-2.484714000">
        <ele>426.00</ele>
        <time>2017-02-11T06:18:26Z</time>
      </trkpt>
      <trkpt lat="42.473338000" lon="-2.484754000">
        <ele>426.00</ele>
        <time>2017-02-11T06:18:27Z</time>
      </trkpt>
      <trkpt lat="42.473344000" lon="-2.484796000">
        <ele>426.10</ele>
        <time>2017-02-11T06:18:28Z</time>
      </trkpt>
      <trkpt lat="42.473353000" lon="-2.484842000">
        <ele>426.20</ele>
        <time>2017-02-11T06:18:29Z</time>
      </trkpt>
      <trkpt lat="42.473359000" lon="-2.484887000">
        <ele>426.10</ele>
        <time>2017-02-11T06:18:30Z</time>
      </trkpt>
      <trkpt lat="42.473368000" lon="-2.484935000">
        <ele>426.10</ele>
        <time>2017-02-11T06:18:31Z</time>
      </trkpt>
      <trkpt lat="42.473379000" lon="-2.484981000">
        <ele>426.10</ele>
        <time>2017-02-11T06:18:32Z</time>
      </trkpt>
      <trkpt lat="42.473388000" lon="-2.485027000">
        <ele>426.10</ele>
        <time>2017-02-11T06:18:33Z</time>
      </trkpt>
      <trkpt lat="42.473396000" lon="-2.485077000">
        <ele>426.20</ele>
        <time>2017-02-11T06:18:34Z</time>
      </trkpt>
      <trkpt lat="42.473405000" lon="-2.485120000">
        <ele>426.30</ele>
        <time>2017-02-11T06:18:35Z</time>
      </trkpt>
      <trkpt lat="42.473413000" lon="-2.485165000">
        <ele>426.40</ele>
        <time>2017-02-11T06:18:36Z</time>
      </trkpt>
      <trkpt lat="42.473421000" lon="-2.485212000">
        <ele>426.40</ele>
        <time>2017-02-11T06:18:37Z</time>
      </trkpt>
      <trkpt lat="42.473428000" lon="-2.485258000">
        <ele>426.40</ele>
        <time>2017-02-11T06:18:38Z</time>
      </trkpt>
      <trkpt lat="42.473435000" lon="-2.485301000">
        <ele>426.50</ele>
        <time>2017-02-11T06:18:39Z</time>
      </trkpt>
      <trkpt lat="42.473443000" lon="-2.485348000">
        <ele>426.70</ele>
        <time>2017-02-11T06:18:40Z</time>
      </trkpt>
      <trkpt lat="42.473450000" lon="-2.485390000">
        <ele>426.80</ele>
        <time>2017-02-11T06:18:41Z</time>
      </trkpt>
      <trkpt lat="42.473463000" lon="-2.485438000">
        <ele>427.00</ele>
        <time>2017-02-11T06:18:42Z</time>
      </trkpt>
      <trkpt lat="42.473485000" lon="-2.485530000">
        <ele>427.10</ele>
        <time>2017-02-11T06:18:44Z</time>
      </trkpt>
      <trkpt lat="42.473495000" lon="-2.485573000">
        <ele>427.10</ele>
        <time>2017-02-11T06:18:45Z</time>
      </trkpt>
      <trkpt lat="42.473504000" lon="-2.485618000">
        <ele>427.20</ele>
        <time>2017-02-11T06:18:46Z</time>
      </trkpt>
      <trkpt lat="42.473513000" lon="-2.485662000">
        <ele>427.20</ele>
        <time>2017-02-11T06:18:47Z</time>
      </trkpt>
      <trkpt lat="42.473523000" lon="-2.485707000">
        <ele>427.20</ele>
        <time>2017-02-11T06:18:48Z</time>
      </trkpt>
      <trkpt lat="42.473531000" lon="-2.485751000">
        <ele>427.20</ele>
        <time>2017-02-11T06:18:49Z</time>
      </trkpt>
      <trkpt lat="42.473540000" lon="-2.485793000">
        <ele>427.40</ele>
        <time>2017-02-11T06:18:50Z</time>
      </trkpt>
      <trkpt lat="42.473547000" lon="-2.485837000">
        <ele>427.50</ele>
        <time>2017-02-11T06:18:51Z</time>
      </trkpt>
      <trkpt lat="42.473556000" lon="-2.485882000">
        <ele>427.60</ele>
        <time>2017-02-11T06:18:52Z</time>
      </trkpt>
      <trkpt lat="42.473564000" lon="-2.485925000">
        <ele>427.70</ele>
        <time>2017-02-11T06:18:53Z</time>
      </trkpt>
      <trkpt lat="42.473571000" lon="-2.485972000">
        <ele>427.80</ele>
        <time>2017-02-11T06:18:54Z</time>
      </trkpt>
      <trkpt lat="42.473579000" lon="-2.486018000">
        <ele>427.80</ele>
        <time>2017-02-11T06:18:55Z</time>
      </trkpt>
      <trkpt lat="42.473586000" lon="-2.486060000">
        <ele>427.90</ele>
        <time>2017-02-11T06:18:56Z</time>
      </trkpt>
      <trkpt lat="42.473599000" lon="-2.486101000">
        <ele>427.90</ele>
        <time>2017-02-11T06:18:57Z</time>
      </trkpt>
      <trkpt lat="42.473610000" lon="-2.486147000">
        <ele>428.00</ele>
        <time>2017-02-11T06:18:58Z</time>
      </trkpt>
      <trkpt lat="42.473618000" lon="-2.486193000">
        <ele>428.10</ele>
        <time>2017-02-11T06:18:59Z</time>
      </trkpt>
      <trkpt lat="42.473628000" lon="-2.486235000">
        <ele>428.30</ele>
        <time>2017-02-11T06:19:00Z</time>
      </trkpt>
      <trkpt lat="42.473640000" lon="-2.486280000">
        <ele>428.40</ele>
        <time>2017-02-11T06:19:01Z</time>
      </trkpt>
      <trkpt lat="42.473649000" lon="-2.486323000">
        <ele>428.50</ele>
        <time>2017-02-11T06:19:02Z</time>
      </trkpt>
      <trkpt lat="42.473658000" lon="-2.486367000">
        <ele>428.60</ele>
        <time>2017-02-11T06:19:03Z</time>
      </trkpt>
      <trkpt lat="42.473669000" lon="-2.486411000">
        <ele>428.50</ele>
        <time>2017-02-11T06:19:04Z</time>
      </trkpt>
      <trkpt lat="42.473681000" lon="-2.486452000">
        <ele>428.50</ele>
        <time>2017-02-11T06:19:05Z</time>
      </trkpt>
      <trkpt lat="42.473689000" lon="-2.486499000">
        <ele>428.40</ele>
        <time>2017-02-11T06:19:06Z</time>
      </trkpt>
      <trkpt lat="42.473696000" lon="-2.486543000">
        <ele>428.40</ele>
        <time>2017-02-11T06:19:07Z</time>
      </trkpt>
      <trkpt lat="42.473704000" lon="-2.486588000">
        <ele>428.70</ele>
        <time>2017-02-11T06:19:08Z</time>
      </trkpt>
      <trkpt lat="42.473713000" lon="-2.486637000">
        <ele>428.90</ele>
        <time>2017-02-11T06:19:09Z</time>
      </trkpt>
      <trkpt lat="42.473723000" lon="-2.486681000">
        <ele>429.00</ele>
        <time>2017-02-11T06:19:10Z</time>
      </trkpt>
      <trkpt lat="42.473733000" lon="-2.486727000">
        <ele>429.10</ele>
        <time>2017-02-11T06:19:11Z</time>
      </trkpt>
      <trkpt lat="42.473742000" lon="-2.486774000">
        <ele>429.20</ele>
        <time>2017-02-11T06:19:12Z</time>
      </trkpt>
      <trkpt lat="42.473749000" lon="-2.486819000">
        <ele>429.20</ele>
        <time>2017-02-11T06:19:13Z</time>
      </trkpt>
      <trkpt lat="42.473756000" lon="-2.486865000">
        <ele>429.20</ele>
        <time>2017-02-11T06:19:14Z</time>
      </trkpt>
      <trkpt lat="42.473766000" lon="-2.486908000">
        <ele>429.20</ele>
        <time>2017-02-11T06:19:15Z</time>
      </trkpt>
      <trkpt lat="42.473774000" lon="-2.486950000">
        <ele>429.40</ele>
        <time>2017-02-11T06:19:16Z</time>
      </trkpt>
      <trkpt lat="42.473783000" lon="-2.486993000">
        <ele>429.60</ele>
        <time>2017-02-11T06:19:17Z</time>
      </trkpt>
      <trkpt lat="42.473792000" lon="-2.487035000">
        <ele>429.70</ele>
        <time>2017-02-11T06:19:18Z</time>
      </trkpt>
      <trkpt lat="42.473799000" lon="-2.487077000">
        <ele>429.90</ele>
        <time>2017-02-11T06:19:19Z</time>
      </trkpt>
      <trkpt lat="42.473803000" lon="-2.487120000">
        <ele>430.00</ele>
        <time>2017-02-11T06:19:20Z</time>
      </trkpt>
      <trkpt lat="42.473811000" lon="-2.487162000">
        <ele>430.20</ele>
        <time>2017-02-11T06:19:21Z</time>
      </trkpt>
      <trkpt lat="42.473821000" lon="-2.487207000">
        <ele>430.30</ele>
        <time>2017-02-11T06:19:22Z</time>
      </trkpt>
      <trkpt lat="42.473829000" lon="-2.487246000">
        <ele>430.40</ele>
        <time>2017-02-11T06:19:23Z</time>
      </trkpt>
      <trkpt lat="42.473837000" lon="-2.487287000">
        <ele>430.60</ele>
        <time>2017-02-11T06:19:24Z</time>
      </trkpt>
      <trkpt lat="42.473846000" lon="-2.487328000">
        <ele>430.70</ele>
        <time>2017-02-11T06:19:25Z</time>
      </trkpt>
      <trkpt lat="42.473857000" lon="-2.487368000">
        <ele>430.80</ele>
        <time>2017-02-11T06:19:26Z</time>
      </trkpt>
      <trkpt lat="42.473870000" lon="-2.487410000">
        <ele>430.90</ele>
        <time>2017-02-11T06:19:27Z</time>
      </trkpt>
      <trkpt lat="42.473879000" lon="-2.487453000">
        <ele>431.00</ele>
        <time>2017-02-11T06:19:28Z</time>
      </trkpt>
      <trkpt lat="42.473891000" lon="-2.487496000">
        <ele>431.10</ele>
        <time>2017-02-11T06:19:29Z</time>
      </trkpt>
      <trkpt lat="42.473907000" lon="-2.487537000">
        <ele>431.20</ele>
        <time>2017-02-11T06:19:30Z</time>
      </trkpt>
      <trkpt lat="42.473924000" lon="-2.487577000">
        <ele>431.30</ele>
        <time>2017-02-11T06:19:31Z</time>
      </trkpt>
      <trkpt lat="42.473938000" lon="-2.487614000">
        <ele>431.30</ele>
        <time>2017-02-11T06:19:32Z</time>
      </trkpt>
      <trkpt lat="42.473953000" lon="-2.487653000">
        <ele>431.40</ele>
        <time>2017-02-11T06:19:33Z</time>
      </trkpt>
      <trkpt lat="42.473967000" lon="-2.487688000">
        <ele>431.60</ele>
        <time>2017-02-11T06:19:34Z</time>
      </trkpt>
      <trkpt lat="42.473982000" lon="-2.487727000">
        <ele>431.80</ele>
        <time>2017-02-11T06:19:35Z</time>
      </trkpt>
      <trkpt lat="42.473997000" lon="-2.487763000">
        <ele>432.00</ele>
        <time>2017-02-11T06:19:36Z</time>
      </trkpt>
      <trkpt lat="42.474011000" lon="-2.487798000">
        <ele>432.10</ele>
        <time>2017-02-11T06:19:37Z</time>
      </trkpt>
      <trkpt lat="42.474029000" lon="-2.487830000">
        <ele>432.20</ele>
        <time>2017-02-11T06:19:38Z</time>
      </trkpt>
      <trkpt lat="42.474045000" lon="-2.487862000">
        <ele>432.30</ele>
        <time>2017-02-11T06:19:39Z</time>
      </trkpt>
      <trkpt lat="42.474060000" lon="-2.487895000">
        <ele>432.60</ele>
        <time>2017-02-11T06:19:40Z</time>
      </trkpt>
      <trkpt lat="42.474079000" lon="-2.487927000">
        <ele>432.90</ele>
        <time>2017-02-11T06:19:41Z</time>
      </trkpt>
      <trkpt lat="42.474097000" lon="-2.487959000">
        <ele>433.00</ele>
        <time>2017-02-11T06:19:42Z</time>
      </trkpt>
      <trkpt lat="42.474112000" lon="-2.487985000">
        <ele>433.20</ele>
        <time>2017-02-11T06:19:43Z</time>
      </trkpt>
      <trkpt lat="42.474146000" lon="-2.488044000">
        <ele>433.30</ele>
        <time>2017-02-11T06:19:45Z</time>
      </trkpt>
      <trkpt lat="42.474162000" lon="-2.488075000">
        <ele>433.50</ele>
        <time>2017-02-11T06:19:46Z</time>
      </trkpt>
      <trkpt lat="42.474178000" lon="-2.488106000">
        <ele>433.70</ele>
        <time>2017-02-11T06:19:47Z</time>
      </trkpt>
      <trkpt lat="42.474194000" lon="-2.488134000">
        <ele>433.80</ele>
        <time>2017-02-11T06:19:48Z</time>
      </trkpt>
      <trkpt lat="42.474212000" lon="-2.488161000">
        <ele>433.90</ele>
        <time>2017-02-11T06:19:49Z</time>
      </trkpt>
      <trkpt lat="42.474229000" lon="-2.488188000">
        <ele>433.90</ele>
        <time>2017-02-11T06:19:50Z</time>
      </trkpt>
      <trkpt lat="42.474246000" lon="-2.488218000">
        <ele>434.00</ele>
        <time>2017-02-11T06:19:51Z</time>
      </trkpt>
      <trkpt lat="42.474261000" lon="-2.488243000">
        <ele>434.20</ele>
        <time>2017-02-11T06:19:52Z</time>
      </trkpt>
      <trkpt lat="42.474276000" lon="-2.488272000">
        <ele>434.30</ele>
        <time>2017-02-11T06:19:53Z</time>
      </trkpt>
      <trkpt lat="42.474289000" lon="-2.488303000">
        <ele>434.60</ele>
        <time>2017-02-11T06:19:54Z</time>
      </trkpt>
      <trkpt lat="42.474302000" lon="-2.488336000">
        <ele>434.80</ele>
        <time>2017-02-11T06:19:55Z</time>
      </trkpt>
      <trkpt lat="42.474317000" lon="-2.488361000">
        <ele>435.00</ele>
        <time>2017-02-11T06:19:56Z</time>
      </trkpt>
      <trkpt lat="42.474336000" lon="-2.488386000">
        <ele>435.10</ele>
        <time>2017-02-11T06:19:57Z</time>
      </trkpt>
      <trkpt lat="42.474355000" lon="-2.488408000">
        <ele>435.30</ele>
        <time>2017-02-11T06:19:58Z</time>
      </trkpt>
      <trkpt lat="42.474371000" lon="-2.488434000">
        <ele>435.40</ele>
        <time>2017-02-11T06:19:59Z</time>
      </trkpt>
      <trkpt lat="42.474385000" lon="-2.488458000">
        <ele>435.50</ele>
        <time>2017-02-11T06:20:00Z</time>
      </trkpt>
      <trkpt lat="42.474403000" lon="-2.488484000">
        <ele>435.60</ele>
        <time>2017-02-11T06:20:01Z</time>
      </trkpt>
      <trkpt lat="42.474419000" lon="-2.488512000">
        <ele>435.90</ele>
        <time>2017-02-11T06:20:02Z</time>
      </trkpt>
      <trkpt lat="42.474435000" lon="-2.488534000">
        <ele>436.00</ele>
        <time>2017-02-11T06:20:03Z</time>
      </trkpt>
      <trkpt lat="42.474445000" lon="-2.488562000">
        <ele>436.30</ele>
        <time>2017-02-11T06:20:04Z</time>
      </trkpt>
      <trkpt lat="42.474457000" lon="-2.488591000">
        <ele>436.50</ele>
        <time>2017-02-11T06:20:05Z</time>
      </trkpt>
      <trkpt lat="42.474466000" lon="-2.488617000">
        <ele>436.70</ele>
        <time>2017-02-11T06:20:06Z</time>
      </trkpt>
      <trkpt lat="42.474471000" lon="-2.488644000">
        <ele>436.80</ele>
        <time>2017-02-11T06:20:07Z</time>
      </trkpt>
      <trkpt lat="42.474477000" lon="-2.488673000">
        <ele>437.00</ele>
        <time>2017-02-11T06:20:08Z</time>
      </trkpt>
      <trkpt lat="42.474483000" lon="-2.488707000">
        <ele>437.20</ele>
        <time>2017-02-11T06:20:09Z</time>
      </trkpt>
      <trkpt lat="42.474488000" lon="-2.488748000">
        <ele>437.40</ele>
        <time>2017-02-11T06:20:10Z</time>
      </trkpt>
      <trkpt lat="42.474495000" lon="-2.488799000">
        <ele>437.60</ele>
        <time>2017-02-11T06:20:11Z</time>
      </trkpt>
      <trkpt lat="42.474505000" lon="-2.488857000">
        <ele>437.70</ele>
        <time>2017-02-11T06:20:12Z</time>
      </trkpt>
      <trkpt lat="42.474520000" lon="-2.488916000">
        <ele>437.80</ele>
        <time>2017-02-11T06:20:13Z</time>
      </trkpt>
      <trkpt lat="42.474536000" lon="-2.488980000">
        <ele>437.40</ele>
        <time>2017-02-11T06:20:14Z</time>
      </trkpt>
      <trkpt lat="42.474551000" lon="-2.489048000">
        <ele>437.20</ele>
        <time>2017-02-11T06:20:15Z</time>
      </trkpt>
      <trkpt lat="42.474563000" lon="-2.489116000">
        <ele>436.90</ele>
        <time>2017-02-11T06:20:16Z</time>
      </trkpt>
      <trkpt lat="42.474571000" lon="-2.489183000">
        <ele>436.60</ele>
        <time>2017-02-11T06:20:17Z</time>
      </trkpt>
      <trkpt lat="42.474577000" lon="-2.489242000">
        <ele>436.40</ele>
        <time>2017-02-11T06:20:18Z</time>
      </trkpt>
      <trkpt lat="42.474579000" lon="-2.489300000">
        <ele>436.20</ele>
        <time>2017-02-11T06:20:19Z</time>
      </trkpt>
      <trkpt lat="42.474580000" lon="-2.489354000">
        <ele>436.10</ele>
        <time>2017-02-11T06:20:20Z</time>
      </trkpt>
      <trkpt lat="42.474586000" lon="-2.489404000">
        <ele>436.00</ele>
        <time>2017-02-11T06:20:21Z</time>
      </trkpt>
      <trkpt lat="42.474591000" lon="-2.489449000">
        <ele>436.00</ele>
        <time>2017-02-11T06:20:22Z</time>
      </trkpt>
      <trkpt lat="42.474596000" lon="-2.489491000">
        <ele>435.90</ele>
        <time>2017-02-11T06:20:23Z</time>
      </trkpt>
      <trkpt lat="42.474603000" lon="-2.489535000">
        <ele>435.90</ele>
        <time>2017-02-11T06:20:24Z</time>
      </trkpt>
      <trkpt lat="42.474608000" lon="-2.489580000">
        <ele>435.90</ele>
        <time>2017-02-11T06:20:25Z</time>
      </trkpt>
      <trkpt lat="42.474613000" lon="-2.489627000">
        <ele>436.00</ele>
        <time>2017-02-11T06:20:26Z</time>
      </trkpt>
      <trkpt lat="42.474617000" lon="-2.489676000">
        <ele>436.00</ele>
        <time>2017-02-11T06:20:27Z</time>
      </trkpt>
      <trkpt lat="42.474621000" lon="-2.489723000">
        <ele>436.20</ele>
        <time>2017-02-11T06:20:28Z</time>
      </trkpt>
      <trkpt lat="42.474624000" lon="-2.489768000">
        <ele>436.30</ele>
        <time>2017-02-11T06:20:29Z</time>
      </trkpt>
      <trkpt lat="42.474627000" lon="-2.489813000">
        <ele>436.30</ele>
        <time>2017-02-11T06:20:30Z</time>
      </trkpt>
      <trkpt lat="42.474630000" lon="-2.489860000">
        <ele>436.30</ele>
        <time>2017-02-11T06:20:31Z</time>
      </trkpt>
      <trkpt lat="42.474632000" lon="-2.489908000">
        <ele>436.40</ele>
        <time>2017-02-11T06:20:32Z</time>
      </trkpt>
      <trkpt lat="42.474632000" lon="-2.489956000">
        <ele>436.40</ele>
        <time>2017-02-11T06:20:33Z</time>
      </trkpt>
      <trkpt lat="42.474634000" lon="-2.490003000">
        <ele>436.60</ele>
        <time>2017-02-11T06:20:34Z</time>
      </trkpt>
      <trkpt lat="42.474633000" lon="-2.490051000">
        <ele>436.70</ele>
        <time>2017-02-11T06:20:35Z</time>
      </trkpt>
      <trkpt lat="42.474638000" lon="-2.490099000">
        <ele>436.80</ele>
        <time>2017-02-11T06:20:36Z</time>
      </trkpt>
      <trkpt lat="42.474640000" lon="-2.490149000">
        <ele>436.90</ele>
        <time>2017-02-11T06:20:37Z</time>
      </trkpt>
      <trkpt lat="42.474639000" lon="-2.490198000">
        <ele>437.00</ele>
        <time>2017-02-11T06:20:38Z</time>
      </trkpt>
      <trkpt lat="42.474638000" lon="-2.490244000">
        <ele>437.00</ele>
        <time>2017-02-11T06:20:39Z</time>
      </trkpt>
      <trkpt lat="42.474639000" lon="-2.490294000">
        <ele>437.20</ele>
        <time>2017-02-11T06:20:40Z</time>
      </trkpt>
      <trkpt lat="42.474644000" lon="-2.490340000">
        <ele>437.30</ele>
        <time>2017-02-11T06:20:41Z</time>
      </trkpt>
      <trkpt lat="42.474649000" lon="-2.490388000">
        <ele>437.30</ele>
        <time>2017-02-11T06:20:42Z</time>
      </trkpt>
      <trkpt lat="42.474653000" lon="-2.490434000">
        <ele>437.40</ele>
        <time>2017-02-11T06:20:43Z</time>
      </trkpt>
      <trkpt lat="42.474659000" lon="-2.490478000">
        <ele>437.50</ele>
        <time>2017-02-11T06:20:44Z</time>
      </trkpt>
      <trkpt lat="42.474673000" lon="-2.490568000">
        <ele>437.70</ele>
        <time>2017-02-11T06:20:46Z</time>
      </trkpt>
      <trkpt lat="42.474679000" lon="-2.490612000">
        <ele>437.80</ele>
        <time>2017-02-11T06:20:47Z</time>
      </trkpt>
      <trkpt lat="42.474687000" lon="-2.490658000">
        <ele>437.90</ele>
        <time>2017-02-11T06:20:48Z</time>
      </trkpt>
      <trkpt lat="42.474694000" lon="-2.490706000">
        <ele>437.90</ele>
        <time>2017-02-11T06:20:49Z</time>
      </trkpt>
      <trkpt lat="42.474698000" lon="-2.490752000">
        <ele>438.00</ele>
        <time>2017-02-11T06:20:50Z</time>
      </trkpt>
      <trkpt lat="42.474703000" lon="-2.490793000">
        <ele>438.00</ele>
        <time>2017-02-11T06:20:51Z</time>
      </trkpt>
      <trkpt lat="42.474710000" lon="-2.490835000">
        <ele>438.10</ele>
        <time>2017-02-11T06:20:52Z</time>
      </trkpt>
      <trkpt lat="42.474718000" lon="-2.490876000">
        <ele>438.10</ele>
        <time>2017-02-11T06:20:53Z</time>
      </trkpt>
      <trkpt lat="42.474727000" lon="-2.490917000">
        <ele>438.30</ele>
        <time>2017-02-11T06:20:54Z</time>
      </trkpt>
      <trkpt lat="42.474735000" lon="-2.490958000">
        <ele>438.40</ele>
        <time>2017-02-11T06:20:55Z</time>
      </trkpt>
      <trkpt lat="42.474742000" lon="-2.491001000">
        <ele>438.70</ele>
        <time>2017-02-11T06:20:56Z</time>
      </trkpt>
      <trkpt lat="42.474748000" lon="-2.491045000">
        <ele>438.90</ele>
        <time>2017-02-11T06:20:57Z</time>
      </trkpt>
      <trkpt lat="42.474753000" lon="-2.491088000">
        <ele>439.10</ele>
        <time>2017-02-11T06:20:58Z</time>
      </trkpt>
      <trkpt lat="42.474760000" lon="-2.491132000">
        <ele>439.30</ele>
        <time>2017-02-11T06:20:59Z</time>
      </trkpt>
      <trkpt lat="42.474765000" lon="-2.491176000">
        <ele>439.40</ele>
        <time>2017-02-11T06:21:00Z</time>
      </trkpt>
      <trkpt lat="42.474768000" lon="-2.491219000">
        <ele>439.50</ele>
        <time>2017-02-11T06:21:01Z</time>
      </trkpt>
      <trkpt lat="42.474774000" lon="-2.491260000">
        <ele>439.60</ele>
        <time>2017-02-11T06:21:02Z</time>
      </trkpt>
      <trkpt lat="42.474779000" lon="-2.491298000">
        <ele>439.70</ele>
        <time>2017-02-11T06:21:03Z</time>
      </trkpt>
      <trkpt lat="42.474782000" lon="-2.491329000">
        <ele>439.80</ele>
        <time>2017-02-11T06:21:04Z</time>
      </trkpt>
      <trkpt lat="42.474786000" lon="-2.491371000">
        <ele>439.90</ele>
        <time>2017-02-11T06:21:05Z</time>
      </trkpt>
      <trkpt lat="42.474790000" lon="-2.491413000">
        <ele>440.00</ele>
        <time>2017-02-11T06:21:06Z</time>
      </trkpt>
      <trkpt lat="42.474795000" lon="-2.491457000">
        <ele>440.10</ele>
        <time>2017-02-11T06:21:07Z</time>
      </trkpt>
      <trkpt lat="42.474800000" lon="-2.491500000">
        <ele>440.30</ele>
        <time>2017-02-11T06:21:08Z</time>
      </trkpt>
      <trkpt lat="42.474804000" lon="-2.491545000">
        <ele>440.50</ele>
        <time>2017-02-11T06:21:09Z</time>
      </trkpt>
      <trkpt lat="42.474808000" lon="-2.491584000">
        <ele>440.60</ele>
        <time>2017-02-11T06:21:10Z</time>
      </trkpt>
      <trkpt lat="42.474813000" lon="-2.491627000">
        <ele>440.70</ele>
        <time>2017-02-11T06:21:11Z</time>
      </trkpt>
      <trkpt lat="42.474816000" lon="-2.491672000">
        <ele>440.80</ele>
        <time>2017-02-11T06:21:12Z</time>
      </trkpt>
      <trkpt lat="42.474819000" lon="-2.491717000">
        <ele>440.90</ele>
        <time>2017-02-11T06:21:13Z</time>
      </trkpt>
      <trkpt lat="42.474824000" lon="-2.491759000">
        <ele>440.90</ele>
        <time>2017-02-11T06:21:14Z</time>
      </trkpt>
      <trkpt lat="42.474828000" lon="-2.491803000">
        <ele>440.90</ele>
        <time>2017-02-11T06:21:15Z</time>
      </trkpt>
      <trkpt lat="42.474833000" lon="-2.491844000">
        <ele>441.00</ele>
        <time>2017-02-11T06:21:16Z</time>
      </trkpt>
      <trkpt lat="42.474836000" lon="-2.491886000">
        <ele>441.10</ele>
        <time>2017-02-11T06:21:17Z</time>
      </trkpt>
      <trkpt lat="42.474840000" lon="-2.491928000">
        <ele>441.30</ele>
        <time>2017-02-11T06:21:18Z</time>
      </trkpt>
      <trkpt lat="42.474840000" lon="-2.491970000">
        <ele>441.50</ele>
        <time>2017-02-11T06:21:19Z</time>
      </trkpt>
      <trkpt lat="42.474841000" lon="-2.492013000">
        <ele>441.70</ele>
        <time>2017-02-11T06:21:20Z</time>
      </trkpt>
      <trkpt lat="42.474844000" lon="-2.492054000">
        <ele>441.80</ele>
        <time>2017-02-11T06:21:21Z</time>
      </trkpt>
      <trkpt lat="42.474848000" lon="-2.492095000">
        <ele>441.90</ele>
        <time>2017-02-11T06:21:22Z</time>
      </trkpt>
      <trkpt lat="42.474853000" lon="-2.492137000">
        <ele>442.00</ele>
        <time>2017-02-11T06:21:23Z</time>
      </trkpt>
      <trkpt lat="42.474859000" lon="-2.492180000">
        <ele>442.10</ele>
        <time>2017-02-11T06:21:24Z</time>
      </trkpt>
      <trkpt lat="42.474862000" lon="-2.492223000">
        <ele>442.10</ele>
        <time>2017-02-11T06:21:25Z</time>
      </trkpt>
      <trkpt lat="42.474863000" lon="-2.492265000">
        <ele>442.20</ele>
        <time>2017-02-11T06:21:26Z</time>
      </trkpt>
      <trkpt lat="42.474865000" lon="-2.492312000">
        <ele>442.30</ele>
        <time>2017-02-11T06:21:27Z</time>
      </trkpt>
      <trkpt lat="42.474866000" lon="-2.492356000">
        <ele>442.40</ele>
        <time>2017-02-11T06:21:28Z</time>
      </trkpt>
      <trkpt lat="42.474867000" lon="-2.492400000">
        <ele>442.50</ele>
        <time>2017-02-11T06:21:29Z</time>
      </trkpt>
      <trkpt lat="42.474869000" lon="-2.492444000">
        <ele>442.60</ele>
        <time>2017-02-11T06:21:30Z</time>
      </trkpt>
      <trkpt lat="42.474870000" lon="-2.492488000">
        <ele>442.60</ele>
        <time>2017-02-11T06:21:31Z</time>
      </trkpt>
      <trkpt lat="42.474874000" lon="-2.492533000">
        <ele>442.70</ele>
        <time>2017-02-11T06:21:32Z</time>
      </trkpt>
      <trkpt lat="42.474874000" lon="-2.492578000">
        <ele>442.70</ele>
        <time>2017-02-11T06:21:33Z</time>
      </trkpt>
      <trkpt lat="42.474873000" lon="-2.492625000">
        <ele>442.70</ele>
        <time>2017-02-11T06:21:34Z</time>
      </trkpt>
      <trkpt lat="42.474871000" lon="-2.492671000">
        <ele>442.70</ele>
        <time>2017-02-11T06:21:35Z</time>
      </trkpt>
      <trkpt lat="42.474868000" lon="-2.492718000">
        <ele>442.90</ele>
        <time>2017-02-11T06:21:36Z</time>
      </trkpt>
      <trkpt lat="42.474863000" lon="-2.492760000">
        <ele>443.00</ele>
        <time>2017-02-11T06:21:37Z</time>
      </trkpt>
      <trkpt lat="42.474861000" lon="-2.492800000">
        <ele>443.10</ele>
        <time>2017-02-11T06:21:38Z</time>
      </trkpt>
      <trkpt lat="42.474854000" lon="-2.492842000">
        <ele>443.20</ele>
        <time>2017-02-11T06:21:39Z</time>
      </trkpt>
      <trkpt lat="42.474849000" lon="-2.492885000">
        <ele>443.40</ele>
        <time>2017-02-11T06:21:40Z</time>
      </trkpt>
      <trkpt lat="42.474836000" lon="-2.492923000">
        <ele>443.50</ele>
        <time>2017-02-11T06:21:41Z</time>
      </trkpt>
      <trkpt lat="42.474825000" lon="-2.492962000">
        <ele>443.60</ele>
        <time>2017-02-11T06:21:42Z</time>
      </trkpt>
      <trkpt lat="42.474813000" lon="-2.493002000">
        <ele>443.60</ele>
        <time>2017-02-11T06:21:43Z</time>
      </trkpt>
      <trkpt lat="42.474801000" lon="-2.493043000">
        <ele>443.80</ele>
        <time>2017-02-11T06:21:44Z</time>
      </trkpt>
      <trkpt lat="42.474789000" lon="-2.493084000">
        <ele>443.90</ele>
        <time>2017-02-11T06:21:45Z</time>
      </trkpt>
      <trkpt lat="42.474765000" lon="-2.493163000">
        <ele>444.30</ele>
        <time>2017-02-11T06:21:47Z</time>
      </trkpt>
      <trkpt lat="42.474752000" lon="-2.493203000">
        <ele>444.70</ele>
        <time>2017-02-11T06:21:48Z</time>
      </trkpt>
      <trkpt lat="42.474735000" lon="-2.493243000">
        <ele>444.90</ele>
        <time>2017-02-11T06:21:49Z</time>
      </trkpt>
      <trkpt lat="42.474720000" lon="-2.493279000">
        <ele>444.90</ele>
        <time>2017-02-11T06:21:50Z</time>
      </trkpt>
      <trkpt lat="42.474704000" lon="-2.493316000">
        <ele>444.90</ele>
        <time>2017-02-11T06:21:51Z</time>
      </trkpt>
      <trkpt lat="42.474684000" lon="-2.493353000">
        <ele>444.80</ele>
        <time>2017-02-11T06:21:52Z</time>
      </trkpt>
      <trkpt lat="42.474666000" lon="-2.493389000">
        <ele>444.80</ele>
        <time>2017-02-11T06:21:53Z</time>
      </trkpt>
      <trkpt lat="42.474648000" lon="-2.493424000">
        <ele>444.70</ele>
        <time>2017-02-11T06:21:54Z</time>
      </trkpt>
      <trkpt lat="42.474632000" lon="-2.493461000">
        <ele>444.70</ele>
        <time>2017-02-11T06:21:55Z</time>
      </trkpt>
      <trkpt lat="42.474617000" lon="-2.493498000">
        <ele>444.70</ele>
        <time>2017-02-11T06:21:56Z</time>
      </trkpt>
      <trkpt lat="42.474599000" lon="-2.493535000">
        <ele>444.70</ele>
        <time>2017-02-11T06:21:57Z</time>
      </trkpt>
      <trkpt lat="42.474583000" lon="-2.493574000">
        <ele>444.60</ele>
        <time>2017-02-11T06:21:58Z</time>
      </trkpt>
      <trkpt lat="42.474567000" lon="-2.493610000">
        <ele>444.60</ele>
        <time>2017-02-11T06:21:59Z</time>
      </trkpt>
      <trkpt lat="42.474548000" lon="-2.493646000">
        <ele>444.60</ele>
        <time>2017-02-11T06:22:00Z</time>
      </trkpt>
      <trkpt lat="42.474528000" lon="-2.493679000">
        <ele>444.50</ele>
        <time>2017-02-11T06:22:01Z</time>
      </trkpt>
      <trkpt lat="42.474513000" lon="-2.493714000">
        <ele>444.50</ele>
        <time>2017-02-11T06:22:02Z</time>
      </trkpt>
      <trkpt lat="42.474492000" lon="-2.493751000">
        <ele>444.40</ele>
        <time>2017-02-11T06:22:03Z</time>
      </trkpt>
      <trkpt lat="42.474474000" lon="-2.493788000">
        <ele>444.40</ele>
        <time>2017-02-11T06:22:04Z</time>
      </trkpt>
      <trkpt lat="42.474455000" lon="-2.493825000">
        <ele>444.40</ele>
        <time>2017-02-11T06:22:05Z</time>
      </trkpt>
      <trkpt lat="42.474436000" lon="-2.493861000">
        <ele>444.40</ele>
        <time>2017-02-11T06:22:06Z</time>
      </trkpt>
      <trkpt lat="42.474413000" lon="-2.493896000">
        <ele>444.40</ele>
        <time>2017-02-11T06:22:07Z</time>
      </trkpt>
      <trkpt lat="42.474397000" lon="-2.493932000">
        <ele>444.60</ele>
        <time>2017-02-11T06:22:08Z</time>
      </trkpt>
      <trkpt lat="42.474380000" lon="-2.493966000">
        <ele>444.80</ele>
        <time>2017-02-11T06:22:09Z</time>
      </trkpt>
      <trkpt lat="42.474363000" lon="-2.494002000">
        <ele>444.90</ele>
        <time>2017-02-11T06:22:10Z</time>
      </trkpt>
      <trkpt lat="42.474346000" lon="-2.494039000">
        <ele>445.00</ele>
        <time>2017-02-11T06:22:11Z</time>
      </trkpt>
      <trkpt lat="42.474328000" lon="-2.494073000">
        <ele>445.20</ele>
        <time>2017-02-11T06:22:12Z</time>
      </trkpt>
      <trkpt lat="42.474312000" lon="-2.494109000">
        <ele>445.40</ele>
        <time>2017-02-11T06:22:13Z</time>
      </trkpt>
      <trkpt lat="42.474300000" lon="-2.494148000">
        <ele>445.50</ele>
        <time>2017-02-11T06:22:14Z</time>
      </trkpt>
      <trkpt lat="42.474285000" lon="-2.494186000">
        <ele>445.60</ele>
        <time>2017-02-11T06:22:15Z</time>
      </trkpt>
      <trkpt lat="42.474275000" lon="-2.494224000">
        <ele>445.50</ele>
        <time>2017-02-11T06:22:16Z</time>
      </trkpt>
      <trkpt lat="42.474263000" lon="-2.494260000">
        <ele>445.40</ele>
        <time>2017-02-11T06:22:17Z</time>
      </trkpt>
      <trkpt lat="42.474253000" lon="-2.494298000">
        <ele>445.40</ele>
        <time>2017-02-11T06:22:18Z</time>
      </trkpt>
      <trkpt lat="42.474242000" lon="-2.494335000">
        <ele>445.40</ele>
        <time>2017-02-11T06:22:19Z</time>
      </trkpt>
      <trkpt lat="42.474230000" lon="-2.494372000">
        <ele>445.40</ele>
        <time>2017-02-11T06:22:20Z</time>
      </trkpt>
      <trkpt lat="42.474219000" lon="-2.494411000">
        <ele>445.30</ele>
        <time>2017-02-11T06:22:21Z</time>
      </trkpt>
      <trkpt lat="42.474210000" lon="-2.494449000">
        <ele>445.50</ele>
        <time>2017-02-11T06:22:22Z</time>
      </trkpt>
      <trkpt lat="42.474200000" lon="-2.494484000">
        <ele>445.60</ele>
        <time>2017-02-11T06:22:23Z</time>
      </trkpt>
      <trkpt lat="42.474190000" lon="-2.494521000">
        <ele>445.70</ele>
        <time>2017-02-11T06:22:24Z</time>
      </trkpt>
      <trkpt lat="42.474182000" lon="-2.494559000">
        <ele>445.90</ele>
        <time>2017-02-11T06:22:25Z</time>
      </trkpt>
      <trkpt lat="42.474173000" lon="-2.494595000">
        <ele>446.00</ele>
        <time>2017-02-11T06:22:26Z</time>
      </trkpt>
      <trkpt lat="42.474164000" lon="-2.494629000">
        <ele>446.10</ele>
        <time>2017-02-11T06:22:27Z</time>
      </trkpt>
      <trkpt lat="42.474157000" lon="-2.494670000">
        <ele>446.30</ele>
        <time>2017-02-11T06:22:28Z</time>
      </trkpt>
      <trkpt lat="42.474151000" lon="-2.494708000">
        <ele>446.40</ele>
        <time>2017-02-11T06:22:29Z</time>
      </trkpt>
      <trkpt lat="42.474145000" lon="-2.494745000">
        <ele>446.60</ele>
        <time>2017-02-11T06:22:30Z</time>
      </trkpt>
      <trkpt lat="42.474139000" lon="-2.494787000">
        <ele>446.80</ele>
        <time>2017-02-11T06:22:31Z</time>
      </trkpt>
      <trkpt lat="42.474131000" lon="-2.494827000">
        <ele>446.90</ele>
        <time>2017-02-11T06:22:32Z</time>
      </trkpt>
      <trkpt lat="42.474124000" lon="-2.494867000">
        <ele>447.00</ele>
        <time>2017-02-11T06:22:33Z</time>
      </trkpt>
      <trkpt lat="42.474118000" lon="-2.494910000">
        <ele>447.10</ele>
        <time>2017-02-11T06:22:34Z</time>
      </trkpt>
      <trkpt lat="42.474112000" lon="-2.494952000">
        <ele>447.10</ele>
        <time>2017-02-11T06:22:35Z</time>
      </trkpt>
      <trkpt lat="42.474105000" lon="-2.494993000">
        <ele>447.10</ele>
        <time>2017-02-11T06:22:36Z</time>
      </trkpt>
      <trkpt lat="42.474098000" lon="-2.495038000">
        <ele>447.10</ele>
        <time>2017-02-11T06:22:37Z</time>
      </trkpt>
      <trkpt lat="42.474091000" lon="-2.495078000">
        <ele>447.10</ele>
        <time>2017-02-11T06:22:38Z</time>
      </trkpt>
      <trkpt lat="42.474085000" lon="-2.495124000">
        <ele>447.20</ele>
        <time>2017-02-11T06:22:39Z</time>
      </trkpt>
      <trkpt lat="42.474077000" lon="-2.495168000">
        <ele>447.30</ele>
        <time>2017-02-11T06:22:40Z</time>
      </trkpt>
      <trkpt lat="42.474066000" lon="-2.495210000">
        <ele>447.50</ele>
        <time>2017-02-11T06:22:41Z</time>
      </trkpt>
      <trkpt lat="42.474057000" lon="-2.495252000">
        <ele>447.50</ele>
        <time>2017-02-11T06:22:42Z</time>
      </trkpt>
      <trkpt lat="42.474051000" lon="-2.495298000">
        <ele>447.60</ele>
        <time>2017-02-11T06:22:43Z</time>
      </trkpt>
      <trkpt lat="42.474045000" lon="-2.495341000">
        <ele>447.80</ele>
        <time>2017-02-11T06:22:44Z</time>
      </trkpt>
      <trkpt lat="42.474034000" lon="-2.495382000">
        <ele>447.90</ele>
        <time>2017-02-11T06:22:45Z</time>
      </trkpt>
      <trkpt lat="42.474025000" lon="-2.495426000">
        <ele>448.00</ele>
        <time>2017-02-11T06:22:46Z</time>
      </trkpt>
      <trkpt lat="42.474013000" lon="-2.495511000">
        <ele>448.40</ele>
        <time>2017-02-11T06:22:48Z</time>
      </trkpt>
      <trkpt lat="42.474009000" lon="-2.495553000">
        <ele>448.50</ele>
        <time>2017-02-11T06:22:49Z</time>
      </trkpt>
      <trkpt lat="42.474003000" lon="-2.495596000">
        <ele>448.70</ele>
        <time>2017-02-11T06:22:50Z</time>
      </trkpt>
      <trkpt lat="42.473998000" lon="-2.495636000">
        <ele>448.80</ele>
        <time>2017-02-11T06:22:51Z</time>
      </trkpt>
      <trkpt lat="42.473995000" lon="-2.495678000">
        <ele>448.90</ele>
        <time>2017-02-11T06:22:52Z</time>
      </trkpt>
      <trkpt lat="42.473993000" lon="-2.495721000">
        <ele>449.10</ele>
        <time>2017-02-11T06:22:53Z</time>
      </trkpt>
      <trkpt lat="42.473994000" lon="-2.495764000">
        <ele>449.20</ele>
        <time>2017-02-11T06:22:54Z</time>
      </trkpt>
      <trkpt lat="42.473993000" lon="-2.495805000">
        <ele>449.30</ele>
        <time>2017-02-11T06:22:55Z</time>
      </trkpt>
      <trkpt lat="42.473993000" lon="-2.495849000">
        <ele>449.40</ele>
        <time>2017-02-11T06:22:56Z</time>
      </trkpt>
      <trkpt lat="42.473992000" lon="-2.495892000">
        <ele>449.50</ele>
        <time>2017-02-11T06:22:57Z</time>
      </trkpt>
      <trkpt lat="42.473991000" lon="-2.495932000">
        <ele>449.40</ele>
        <time>2017-02-11T06:22:58Z</time>
      </trkpt>
      <trkpt lat="42.473993000" lon="-2.495978000">
        <ele>449.30</ele>
        <time>2017-02-11T06:22:59Z</time>
      </trkpt>
      <trkpt lat="42.473993000" lon="-2.496021000">
        <ele>449.30</ele>
        <time>2017-02-11T06:23:00Z</time>
      </trkpt>
      <trkpt lat="42.473995000" lon="-2.496063000">
        <ele>449.20</ele>
        <time>2017-02-11T06:23:01Z</time>
      </trkpt>
      <trkpt lat="42.473997000" lon="-2.496108000">
        <ele>449.00</ele>
        <time>2017-02-11T06:23:02Z</time>
      </trkpt>
      <trkpt lat="42.474001000" lon="-2.496151000">
        <ele>448.80</ele>
        <time>2017-02-11T06:23:03Z</time>
      </trkpt>
      <trkpt lat="42.474007000" lon="-2.496190000">
        <ele>449.00</ele>
        <time>2017-02-11T06:23:04Z</time>
      </trkpt>
      <trkpt lat="42.474012000" lon="-2.496229000">
        <ele>449.20</ele>
        <time>2017-02-11T06:23:05Z</time>
      </trkpt>
      <trkpt lat="42.474016000" lon="-2.496267000">
        <ele>449.10</ele>
        <time>2017-02-11T06:23:06Z</time>
      </trkpt>
      <trkpt lat="42.474026000" lon="-2.496304000">
        <ele>449.00</ele>
        <time>2017-02-11T06:23:07Z</time>
      </trkpt>
      <trkpt lat="42.474037000" lon="-2.496343000">
        <ele>449.00</ele>
        <time>2017-02-11T06:23:08Z</time>
      </trkpt>
      <trkpt lat="42.474046000" lon="-2.496388000">
        <ele>449.00</ele>
        <time>2017-02-11T06:23:09Z</time>
      </trkpt>
      <trkpt lat="42.474051000" lon="-2.496431000">
        <ele>449.10</ele>
        <time>2017-02-11T06:23:10Z</time>
      </trkpt>
      <trkpt lat="42.474058000" lon="-2.496476000">
        <ele>449.10</ele>
        <time>2017-02-11T06:23:11Z</time>
      </trkpt>
      <trkpt lat="42.474068000" lon="-2.496520000">
        <ele>449.10</ele>
        <time>2017-02-11T06:23:12Z</time>
      </trkpt>
      <trkpt lat="42.474076000" lon="-2.496564000">
        <ele>449.20</ele>
        <time>2017-02-11T06:23:13Z</time>
      </trkpt>
      <trkpt lat="42.474087000" lon="-2.496606000">
        <ele>449.40</ele>
        <time>2017-02-11T06:23:14Z</time>
      </trkpt>
      <trkpt lat="42.474098000" lon="-2.496647000">
        <ele>449.50</ele>
        <time>2017-02-11T06:23:15Z</time>
      </trkpt>
      <trkpt lat="42.474111000" lon="-2.496686000">
        <ele>449.60</ele>
        <time>2017-02-11T06:23:16Z</time>
      </trkpt>
      <trkpt lat="42.474126000" lon="-2.496725000">
        <ele>449.70</ele>
        <time>2017-02-11T06:23:17Z</time>
      </trkpt>
      <trkpt lat="42.474140000" lon="-2.496766000">
        <ele>449.70</ele>
        <time>2017-02-11T06:23:18Z</time>
      </trkpt>
      <trkpt lat="42.474153000" lon="-2.496804000">
        <ele>449.80</ele>
        <time>2017-02-11T06:23:19Z</time>
      </trkpt>
      <trkpt lat="42.474166000" lon="-2.496842000">
        <ele>449.80</ele>
        <time>2017-02-11T06:23:20Z</time>
      </trkpt>
      <trkpt lat="42.474179000" lon="-2.496880000">
        <ele>449.80</ele>
        <time>2017-02-11T06:23:21Z</time>
      </trkpt>
      <trkpt lat="42.474194000" lon="-2.496915000">
        <ele>449.80</ele>
        <time>2017-02-11T06:23:22Z</time>
      </trkpt>
      <trkpt lat="42.474208000" lon="-2.496951000">
        <ele>449.90</ele>
        <time>2017-02-11T06:23:23Z</time>
      </trkpt>
      <trkpt lat="42.474223000" lon="-2.496984000">
        <ele>449.90</ele>
        <time>2017-02-11T06:23:24Z</time>
      </trkpt>
      <trkpt lat="42.474239000" lon="-2.497018000">
        <ele>450.00</ele>
        <time>2017-02-11T06:23:25Z</time>
      </trkpt>
      <trkpt lat="42.474254000" lon="-2.497049000">
        <ele>450.20</ele>
        <time>2017-02-11T06:23:26Z</time>
      </trkpt>
      <trkpt lat="42.474269000" lon="-2.497084000">
        <ele>450.40</ele>
        <time>2017-02-11T06:23:27Z</time>
      </trkpt>
      <trkpt lat="42.474286000" lon="-2.497115000">
        <ele>450.60</ele>
        <time>2017-02-11T06:23:28Z</time>
      </trkpt>
      <trkpt lat="42.474304000" lon="-2.497147000">
        <ele>450.70</ele>
        <time>2017-02-11T06:23:29Z</time>
      </trkpt>
      <trkpt lat="42.474321000" lon="-2.497177000">
        <ele>450.70</ele>
        <time>2017-02-11T06:23:30Z</time>
      </trkpt>
      <trkpt lat="42.474339000" lon="-2.497210000">
        <ele>450.80</ele>
        <time>2017-02-11T06:23:31Z</time>
      </trkpt>
      <trkpt lat="42.474355000" lon="-2.497246000">
        <ele>450.80</ele>
        <time>2017-02-11T06:23:32Z</time>
      </trkpt>
      <trkpt lat="42.474374000" lon="-2.497279000">
        <ele>450.80</ele>
        <time>2017-02-11T06:23:33Z</time>
      </trkpt>
      <trkpt lat="42.474395000" lon="-2.497309000">
        <ele>450.80</ele>
        <time>2017-02-11T06:23:34Z</time>
      </trkpt>
      <trkpt lat="42.474416000" lon="-2.497340000">
        <ele>450.80</ele>
        <time>2017-02-11T06:23:35Z</time>
      </trkpt>
      <trkpt lat="42.474436000" lon="-2.497369000">
        <ele>450.80</ele>
        <time>2017-02-11T06:23:36Z</time>
      </trkpt>
      <trkpt lat="42.474456000" lon="-2.497397000">
        <ele>450.80</ele>
        <time>2017-02-11T06:23:37Z</time>
      </trkpt>
      <trkpt lat="42.474477000" lon="-2.497424000">
        <ele>450.80</ele>
        <time>2017-02-11T06:23:38Z</time>
      </trkpt>
      <trkpt lat="42.474498000" lon="-2.497455000">
        <ele>450.80</ele>
        <time>2017-02-11T06:23:39Z</time>
      </trkpt>
      <trkpt lat="42.474519000" lon="-2.497481000">
        <ele>451.10</ele>
        <time>2017-02-11T06:23:40Z</time>
      </trkpt>
      <trkpt lat="42.474541000" lon="-2.497509000">
        <ele>451.30</ele>
        <time>2017-02-11T06:23:41Z</time>
      </trkpt>
      <trkpt lat="42.474566000" lon="-2.497530000">
        <ele>451.60</ele>
        <time>2017-02-11T06:23:42Z</time>
      </trkpt>
      <trkpt lat="42.474588000" lon="-2.497553000">
        <ele>451.80</ele>
        <time>2017-02-11T06:23:43Z</time>
      </trkpt>
      <trkpt lat="42.474612000" lon="-2.497574000">
        <ele>451.90</ele>
        <time>2017-02-11T06:23:44Z</time>
      </trkpt>
      <trkpt lat="42.474633000" lon="-2.497595000">
        <ele>452.00</ele>
        <time>2017-02-11T06:23:45Z</time>
      </trkpt>
      <trkpt lat="42.474655000" lon="-2.497619000">
        <ele>452.00</ele>
        <time>2017-02-11T06:23:46Z</time>
      </trkpt>
      <trkpt lat="42.474682000" lon="-2.497641000">
        <ele>452.00</ele>
        <time>2017-02-11T06:23:47Z</time>
      </trkpt>
      <trkpt lat="42.474730000" lon="-2.497687000">
        <ele>452.10</ele>
        <time>2017-02-11T06:23:49Z</time>
      </trkpt>
      <trkpt lat="42.474754000" lon="-2.497710000">
        <ele>452.10</ele>
        <time>2017-02-11T06:23:50Z</time>
      </trkpt>
      <trkpt lat="42.474776000" lon="-2.497732000">
        <ele>452.20</ele>
        <time>2017-02-11T06:23:51Z</time>
      </trkpt>
      <trkpt lat="42.474800000" lon="-2.497755000">
        <ele>452.30</ele>
        <time>2017-02-11T06:23:52Z</time>
      </trkpt>
      <trkpt lat="42.474824000" lon="-2.497780000">
        <ele>452.30</ele>
        <time>2017-02-11T06:23:53Z</time>
      </trkpt>
      <trkpt lat="42.474845000" lon="-2.497805000">
        <ele>452.50</ele>
        <time>2017-02-11T06:23:54Z</time>
      </trkpt>
      <trkpt lat="42.474867000" lon="-2.497826000">
        <ele>452.80</ele>
        <time>2017-02-11T06:23:55Z</time>
      </trkpt>
      <trkpt lat="42.474890000" lon="-2.497850000">
        <ele>453.00</ele>
        <time>2017-02-11T06:23:56Z</time>
      </trkpt>
      <trkpt lat="42.474910000" lon="-2.497875000">
        <ele>453.20</ele>
        <time>2017-02-11T06:23:57Z</time>
      </trkpt>
      <trkpt lat="42.474934000" lon="-2.497896000">
        <ele>453.30</ele>
        <time>2017-02-11T06:23:58Z</time>
      </trkpt>
      <trkpt lat="42.474953000" lon="-2.497919000">
        <ele>453.50</ele>
        <time>2017-02-11T06:23:59Z</time>
      </trkpt>
      <trkpt lat="42.474976000" lon="-2.497941000">
        <ele>453.50</ele>
        <time>2017-02-11T06:24:00Z</time>
      </trkpt>
      <trkpt lat="42.474995000" lon="-2.497964000">
        <ele>453.50</ele>
        <time>2017-02-11T06:24:01Z</time>
      </trkpt>
      <trkpt lat="42.475016000" lon="-2.497989000">
        <ele>453.50</ele>
        <time>2017-02-11T06:24:02Z</time>
      </trkpt>
      <trkpt lat="42.475044000" lon="-2.498010000">
        <ele>453.50</ele>
        <time>2017-02-11T06:24:03Z</time>
      </trkpt>
      <trkpt lat="42.475068000" lon="-2.498034000">
        <ele>453.50</ele>
        <time>2017-02-11T06:24:04Z</time>
      </trkpt>
      <trkpt lat="42.475091000" lon="-2.498055000">
        <ele>453.60</ele>
        <time>2017-02-11T06:24:05Z</time>
      </trkpt>
      <trkpt lat="42.475113000" lon="-2.498074000">
        <ele>453.70</ele>
        <time>2017-02-11T06:24:06Z</time>
      </trkpt>
      <trkpt lat="42.475132000" lon="-2.498096000">
        <ele>453.80</ele>
        <time>2017-02-11T06:24:07Z</time>
      </trkpt>
      <trkpt lat="42.475157000" lon="-2.498119000">
        <ele>453.80</ele>
        <time>2017-02-11T06:24:08Z</time>
      </trkpt>
      <trkpt lat="42.475181000" lon="-2.498143000">
        <ele>453.90</ele>
        <time>2017-02-11T06:24:09Z</time>
      </trkpt>
      <trkpt lat="42.475203000" lon="-2.498161000">
        <ele>454.00</ele>
        <time>2017-02-11T06:24:10Z</time>
      </trkpt>
      <trkpt lat="42.475226000" lon="-2.498179000">
        <ele>454.30</ele>
        <time>2017-02-11T06:24:11Z</time>
      </trkpt>
      <trkpt lat="42.475251000" lon="-2.498195000">
        <ele>454.50</ele>
        <time>2017-02-11T06:24:12Z</time>
      </trkpt>
      <trkpt lat="42.475274000" lon="-2.498217000">
        <ele>454.60</ele>
        <time>2017-02-11T06:24:13Z</time>
      </trkpt>
      <trkpt lat="42.475300000" lon="-2.498238000">
        <ele>454.70</ele>
        <time>2017-02-11T06:24:14Z</time>
      </trkpt>
      <trkpt lat="42.475326000" lon="-2.498254000">
        <ele>454.80</ele>
        <time>2017-02-11T06:24:15Z</time>
      </trkpt>
      <trkpt lat="42.475351000" lon="-2.498267000">
        <ele>454.80</ele>
        <time>2017-02-11T06:24:16Z</time>
      </trkpt>
      <trkpt lat="42.475375000" lon="-2.498283000">
        <ele>455.00</ele>
        <time>2017-02-11T06:24:17Z</time>
      </trkpt>
      <trkpt lat="42.475400000" lon="-2.498294000">
        <ele>455.00</ele>
        <time>2017-02-11T06:24:18Z</time>
      </trkpt>
      <trkpt lat="42.475428000" lon="-2.498309000">
        <ele>455.10</ele>
        <time>2017-02-11T06:24:19Z</time>
      </trkpt>
      <trkpt lat="42.475455000" lon="-2.498323000">
        <ele>455.10</ele>
        <time>2017-02-11T06:24:20Z</time>
      </trkpt>
      <trkpt lat="42.475479000" lon="-2.498338000">
        <ele>455.30</ele>
        <time>2017-02-11T06:24:21Z</time>
      </trkpt>
      <trkpt lat="42.475503000" lon="-2.498353000">
        <ele>455.40</ele>
        <time>2017-02-11T06:24:22Z</time>
      </trkpt>
      <trkpt lat="42.475528000" lon="-2.498362000">
        <ele>455.50</ele>
        <time>2017-02-11T06:24:23Z</time>
      </trkpt>
      <trkpt lat="42.475554000" lon="-2.498368000">
        <ele>455.60</ele>
        <time>2017-02-11T06:24:24Z</time>
      </trkpt>
      <trkpt lat="42.475584000" lon="-2.498380000">
        <ele>455.70</ele>
        <time>2017-02-11T06:24:25Z</time>
      </trkpt>
      <trkpt lat="42.475612000" lon="-2.498392000">
        <ele>455.80</ele>
        <time>2017-02-11T06:24:26Z</time>
      </trkpt>
      <trkpt lat="42.475639000" lon="-2.498403000">
        <ele>455.90</ele>
        <time>2017-02-11T06:24:27Z</time>
      </trkpt>
      <trkpt lat="42.475665000" lon="-2.498415000">
        <ele>455.90</ele>
        <time>2017-02-11T06:24:28Z</time>
      </trkpt>
      <trkpt lat="42.475691000" lon="-2.498425000">
        <ele>456.20</ele>
        <time>2017-02-11T06:24:29Z</time>
      </trkpt>
      <trkpt lat="42.475717000" lon="-2.498436000">
        <ele>456.40</ele>
        <time>2017-02-11T06:24:30Z</time>
      </trkpt>
      <trkpt lat="42.475747000" lon="-2.498446000">
        <ele>456.70</ele>
        <time>2017-02-11T06:24:31Z</time>
      </trkpt>
      <trkpt lat="42.475772000" lon="-2.498457000">
        <ele>456.90</ele>
        <time>2017-02-11T06:24:32Z</time>
      </trkpt>
      <trkpt lat="42.475798000" lon="-2.498468000">
        <ele>457.00</ele>
        <time>2017-02-11T06:24:33Z</time>
      </trkpt>
      <trkpt lat="42.475825000" lon="-2.498480000">
        <ele>457.10</ele>
        <time>2017-02-11T06:24:34Z</time>
      </trkpt>
      <trkpt lat="42.475855000" lon="-2.498492000">
        <ele>457.10</ele>
        <time>2017-02-11T06:24:35Z</time>
      </trkpt>
      <trkpt lat="42.475878000" lon="-2.498509000">
        <ele>457.20</ele>
        <time>2017-02-11T06:24:36Z</time>
      </trkpt>
      <trkpt lat="42.475904000" lon="-2.498524000">
        <ele>457.20</ele>
        <time>2017-02-11T06:24:37Z</time>
      </trkpt>
      <trkpt lat="42.475930000" lon="-2.498540000">
        <ele>457.20</ele>
        <time>2017-02-11T06:24:38Z</time>
      </trkpt>
      <trkpt lat="42.475957000" lon="-2.498556000">
        <ele>457.20</ele>
        <time>2017-02-11T06:24:39Z</time>
      </trkpt>
      <trkpt lat="42.475983000" lon="-2.498571000">
        <ele>457.30</ele>
        <time>2017-02-11T06:24:40Z</time>
      </trkpt>
      <trkpt lat="42.476007000" lon="-2.498586000">
        <ele>457.50</ele>
        <time>2017-02-11T06:24:41Z</time>
      </trkpt>
      <trkpt lat="42.476031000" lon="-2.498599000">
        <ele>457.60</ele>
        <time>2017-02-11T06:24:42Z</time>
      </trkpt>
      <trkpt lat="42.476056000" lon="-2.498609000">
        <ele>457.70</ele>
        <time>2017-02-11T06:24:43Z</time>
      </trkpt>
      <trkpt lat="42.476083000" lon="-2.498621000">
        <ele>457.80</ele>
        <time>2017-02-11T06:24:44Z</time>
      </trkpt>
      <trkpt lat="42.476109000" lon="-2.498630000">
        <ele>457.90</ele>
        <time>2017-02-11T06:24:45Z</time>
      </trkpt>
      <trkpt lat="42.476134000" lon="-2.498641000">
        <ele>457.90</ele>
        <time>2017-02-11T06:24:46Z</time>
      </trkpt>
      <trkpt lat="42.476160000" lon="-2.498652000">
        <ele>458.20</ele>
        <time>2017-02-11T06:24:47Z</time>
      </trkpt>
      <trkpt lat="42.476180000" lon="-2.498666000">
        <ele>458.30</ele>
        <time>2017-02-11T06:24:48Z</time>
      </trkpt>
      <trkpt lat="42.476204000" lon="-2.498676000">
        <ele>458.50</ele>
        <time>2017-02-11T06:24:49Z</time>
      </trkpt>
      <trkpt lat="42.476249000" lon="-2.498703000">
        <ele>458.80</ele>
        <time>2017-02-11T06:24:51Z</time>
      </trkpt>
      <trkpt lat="42.476271000" lon="-2.498708000">
        <ele>458.90</ele>
        <time>2017-02-11T06:24:52Z</time>
      </trkpt>
      <trkpt lat="42.476293000" lon="-2.498716000">
        <ele>459.00</ele>
        <time>2017-02-11T06:24:53Z</time>
      </trkpt>
      <trkpt lat="42.476316000" lon="-2.498727000">
        <ele>459.10</ele>
        <time>2017-02-11T06:24:54Z</time>
      </trkpt>
      <trkpt lat="42.476341000" lon="-2.498735000">
        <ele>459.20</ele>
        <time>2017-02-11T06:24:55Z</time>
      </trkpt>
      <trkpt lat="42.476368000" lon="-2.498749000">
        <ele>459.20</ele>
        <time>2017-02-11T06:24:56Z</time>
      </trkpt>
      <trkpt lat="42.476397000" lon="-2.498761000">
        <ele>459.30</ele>
        <time>2017-02-11T06:24:57Z</time>
      </trkpt>
      <trkpt lat="42.476423000" lon="-2.498772000">
        <ele>459.30</ele>
        <time>2017-02-11T06:24:58Z</time>
      </trkpt>
      <trkpt lat="42.476449000" lon="-2.498784000">
        <ele>459.30</ele>
        <time>2017-02-11T06:24:59Z</time>
      </trkpt>
      <trkpt lat="42.476473000" lon="-2.498792000">
        <ele>459.30</ele>
        <time>2017-02-11T06:25:00Z</time>
      </trkpt>
      <trkpt lat="42.476506000" lon="-2.498799000">
        <ele>459.40</ele>
        <time>2017-02-11T06:25:01Z</time>
      </trkpt>
      <trkpt lat="42.476529000" lon="-2.498810000">
        <ele>459.50</ele>
        <time>2017-02-11T06:25:02Z</time>
      </trkpt>
      <trkpt lat="42.476556000" lon="-2.498821000">
        <ele>459.70</ele>
        <time>2017-02-11T06:25:03Z</time>
      </trkpt>
      <trkpt lat="42.476587000" lon="-2.498828000">
        <ele>459.80</ele>
        <time>2017-02-11T06:25:04Z</time>
      </trkpt>
      <trkpt lat="42.476613000" lon="-2.498839000">
        <ele>460.00</ele>
        <time>2017-02-11T06:25:05Z</time>
      </trkpt>
      <trkpt lat="42.476636000" lon="-2.498848000">
        <ele>460.10</ele>
        <time>2017-02-11T06:25:06Z</time>
      </trkpt>
      <trkpt lat="42.476660000" lon="-2.498863000">
        <ele>460.30</ele>
        <time>2017-02-11T06:25:07Z</time>
      </trkpt>
      <trkpt lat="42.476684000" lon="-2.498876000">
        <ele>460.40</ele>
        <time>2017-02-11T06:25:08Z</time>
      </trkpt>
      <trkpt lat="42.476710000" lon="-2.498884000">
        <ele>460.60</ele>
        <time>2017-02-11T06:25:09Z</time>
      </trkpt>
      <trkpt lat="42.476738000" lon="-2.498895000">
        <ele>460.70</ele>
        <time>2017-02-11T06:25:10Z</time>
      </trkpt>
      <trkpt lat="42.476764000" lon="-2.498907000">
        <ele>460.90</ele>
        <time>2017-02-11T06:25:11Z</time>
      </trkpt>
      <trkpt lat="42.476793000" lon="-2.498917000">
        <ele>461.00</ele>
        <time>2017-02-11T06:25:12Z</time>
      </trkpt>
      <trkpt lat="42.476821000" lon="-2.498927000">
        <ele>461.20</ele>
        <time>2017-02-11T06:25:13Z</time>
      </trkpt>
      <trkpt lat="42.476844000" lon="-2.498938000">
        <ele>461.40</ele>
        <time>2017-02-11T06:25:14Z</time>
      </trkpt>
      <trkpt lat="42.476872000" lon="-2.498951000">
        <ele>461.50</ele>
        <time>2017-02-11T06:25:15Z</time>
      </trkpt>
      <trkpt lat="42.476898000" lon="-2.498963000">
        <ele>461.70</ele>
        <time>2017-02-11T06:25:16Z</time>
      </trkpt>
      <trkpt lat="42.476925000" lon="-2.498976000">
        <ele>461.80</ele>
        <time>2017-02-11T06:25:17Z</time>
      </trkpt>
      <trkpt lat="42.476953000" lon="-2.498990000">
        <ele>461.80</ele>
        <time>2017-02-11T06:25:18Z</time>
      </trkpt>
      <trkpt lat="42.476979000" lon="-2.499003000">
        <ele>462.00</ele>
        <time>2017-02-11T06:25:19Z</time>
      </trkpt>
      <trkpt lat="42.477005000" lon="-2.499015000">
        <ele>462.10</ele>
        <time>2017-02-11T06:25:20Z</time>
      </trkpt>
      <trkpt lat="42.477029000" lon="-2.499030000">
        <ele>462.30</ele>
        <time>2017-02-11T06:25:21Z</time>
      </trkpt>
      <trkpt lat="42.477056000" lon="-2.499042000">
        <ele>462.50</ele>
        <time>2017-02-11T06:25:22Z</time>
      </trkpt>
      <trkpt lat="42.477076000" lon="-2.499058000">
        <ele>462.60</ele>
        <time>2017-02-11T06:25:23Z</time>
      </trkpt>
      <trkpt lat="42.477099000" lon="-2.499077000">
        <ele>462.70</ele>
        <time>2017-02-11T06:25:24Z</time>
      </trkpt>
      <trkpt lat="42.477126000" lon="-2.499091000">
        <ele>462.80</ele>
        <time>2017-02-11T06:25:25Z</time>
      </trkpt>
      <trkpt lat="42.477153000" lon="-2.499110000">
        <ele>462.90</ele>
        <time>2017-02-11T06:25:26Z</time>
      </trkpt>
      <trkpt lat="42.477180000" lon="-2.499129000">
        <ele>462.80</ele>
        <time>2017-02-11T06:25:27Z</time>
      </trkpt>
      <trkpt lat="42.477204000" lon="-2.499148000">
        <ele>462.80</ele>
        <time>2017-02-11T06:25:28Z</time>
      </trkpt>
      <trkpt lat="42.477231000" lon="-2.499168000">
        <ele>462.80</ele>
        <time>2017-02-11T06:25:29Z</time>
      </trkpt>
      <trkpt lat="42.477254000" lon="-2.499186000">
        <ele>462.80</ele>
        <time>2017-02-11T06:25:30Z</time>
      </trkpt>
      <trkpt lat="42.477276000" lon="-2.499208000">
        <ele>462.80</ele>
        <time>2017-02-11T06:25:31Z</time>
      </trkpt>
      <trkpt lat="42.477295000" lon="-2.499227000">
        <ele>462.80</ele>
        <time>2017-02-11T06:25:32Z</time>
      </trkpt>
      <trkpt lat="42.477314000" lon="-2.499248000">
        <ele>462.90</ele>
        <time>2017-02-11T06:25:33Z</time>
      </trkpt>
      <trkpt lat="42.477334000" lon="-2.499273000">
        <ele>463.00</ele>
        <time>2017-02-11T06:25:34Z</time>
      </trkpt>
      <trkpt lat="42.477353000" lon="-2.499299000">
        <ele>463.10</ele>
        <time>2017-02-11T06:25:35Z</time>
      </trkpt>
      <trkpt lat="42.477376000" lon="-2.499319000">
        <ele>463.10</ele>
        <time>2017-02-11T06:25:36Z</time>
      </trkpt>
      <trkpt lat="42.477397000" lon="-2.499345000">
        <ele>463.20</ele>
        <time>2017-02-11T06:25:37Z</time>
      </trkpt>
      <trkpt lat="42.477416000" lon="-2.499369000">
        <ele>463.20</ele>
        <time>2017-02-11T06:25:38Z</time>
      </trkpt>
      <trkpt lat="42.477436000" lon="-2.499395000">
        <ele>463.30</ele>
        <time>2017-02-11T06:25:39Z</time>
      </trkpt>
      <trkpt lat="42.477455000" lon="-2.499421000">
        <ele>463.40</ele>
        <time>2017-02-11T06:25:40Z</time>
      </trkpt>
      <trkpt lat="42.477478000" lon="-2.499446000">
        <ele>463.50</ele>
        <time>2017-02-11T06:25:41Z</time>
      </trkpt>
      <trkpt lat="42.477498000" lon="-2.499466000">
        <ele>463.60</ele>
        <time>2017-02-11T06:25:42Z</time>
      </trkpt>
      <trkpt lat="42.477516000" lon="-2.499491000">
        <ele>463.60</ele>
        <time>2017-02-11T06:25:43Z</time>
      </trkpt>
      <trkpt lat="42.477535000" lon="-2.499510000">
        <ele>463.60</ele>
        <time>2017-02-11T06:25:44Z</time>
      </trkpt>
      <trkpt lat="42.477552000" lon="-2.499531000">
        <ele>463.80</ele>
        <time>2017-02-11T06:25:45Z</time>
      </trkpt>
      <trkpt lat="42.477571000" lon="-2.499560000">
        <ele>464.00</ele>
        <time>2017-02-11T06:25:46Z</time>
      </trkpt>
      <trkpt lat="42.477586000" lon="-2.499591000">
        <ele>464.10</ele>
        <time>2017-02-11T06:25:47Z</time>
      </trkpt>
      <trkpt lat="42.477603000" lon="-2.499614000">
        <ele>464.20</ele>
        <time>2017-02-11T06:25:48Z</time>
      </trkpt>
      <trkpt lat="42.477624000" lon="-2.499633000">
        <ele>464.40</ele>
        <time>2017-02-11T06:25:49Z</time>
      </trkpt>
      <trkpt lat="42.477643000" lon="-2.499654000">
        <ele>464.50</ele>
        <time>2017-02-11T06:25:50Z</time>
      </trkpt>
      <trkpt lat="42.477677000" lon="-2.499700000">
        <ele>464.90</ele>
        <time>2017-02-11T06:25:52Z</time>
      </trkpt>
      <trkpt lat="42.477695000" lon="-2.499719000">
        <ele>465.00</ele>
        <time>2017-02-11T06:25:53Z</time>
      </trkpt>
      <trkpt lat="42.477716000" lon="-2.499741000">
        <ele>465.10</ele>
        <time>2017-02-11T06:25:54Z</time>
      </trkpt>
      <trkpt lat="42.477732000" lon="-2.499762000">
        <ele>465.20</ele>
        <time>2017-02-11T06:25:55Z</time>
      </trkpt>
      <trkpt lat="42.477749000" lon="-2.499784000">
        <ele>465.30</ele>
        <time>2017-02-11T06:25:56Z</time>
      </trkpt>
      <trkpt lat="42.477767000" lon="-2.499804000">
        <ele>465.30</ele>
        <time>2017-02-11T06:25:57Z</time>
      </trkpt>
      <trkpt lat="42.477787000" lon="-2.499823000">
        <ele>465.40</ele>
        <time>2017-02-11T06:25:58Z</time>
      </trkpt>
      <trkpt lat="42.477806000" lon="-2.499839000">
        <ele>465.40</ele>
        <time>2017-02-11T06:25:59Z</time>
      </trkpt>
      <trkpt lat="42.477827000" lon="-2.499858000">
        <ele>465.40</ele>
        <time>2017-02-11T06:26:00Z</time>
      </trkpt>
      <trkpt lat="42.477846000" lon="-2.499875000">
        <ele>465.40</ele>
        <time>2017-02-11T06:26:01Z</time>
      </trkpt>
      <trkpt lat="42.477865000" lon="-2.499894000">
        <ele>465.40</ele>
        <time>2017-02-11T06:26:02Z</time>
      </trkpt>
      <trkpt lat="42.477886000" lon="-2.499913000">
        <ele>465.40</ele>
        <time>2017-02-11T06:26:03Z</time>
      </trkpt>
      <trkpt lat="42.477908000" lon="-2.499929000">
        <ele>465.40</ele>
        <time>2017-02-11T06:26:04Z</time>
      </trkpt>
      <trkpt lat="42.477928000" lon="-2.499943000">
        <ele>465.60</ele>
        <time>2017-02-11T06:26:05Z</time>
      </trkpt>
      <trkpt lat="42.477951000" lon="-2.499960000">
        <ele>465.80</ele>
        <time>2017-02-11T06:26:06Z</time>
      </trkpt>
      <trkpt lat="42.477972000" lon="-2.499973000">
        <ele>465.90</ele>
        <time>2017-02-11T06:26:07Z</time>
      </trkpt>
      <trkpt lat="42.477998000" lon="-2.499990000">
        <ele>465.90</ele>
        <time>2017-02-11T06:26:08Z</time>
      </trkpt>
      <trkpt lat="42.478023000" lon="-2.500002000">
        <ele>466.00</ele>
        <time>2017-02-11T06:26:09Z</time>
      </trkpt>
      <trkpt lat="42.478051000" lon="-2.500014000">
        <ele>466.00</ele>
        <time>2017-02-11T06:26:10Z</time>
      </trkpt>
      <trkpt lat="42.478072000" lon="-2.500025000">
        <ele>466.20</ele>
        <time>2017-02-11T06:26:11Z</time>
      </trkpt>
      <trkpt lat="42.478096000" lon="-2.500036000">
        <ele>466.30</ele>
        <time>2017-02-11T06:26:12Z</time>
      </trkpt>
      <trkpt lat="42.478119000" lon="-2.500049000">
        <ele>466.50</ele>
        <time>2017-02-11T06:26:13Z</time>
      </trkpt>
      <trkpt lat="42.478143000" lon="-2.500058000">
        <ele>466.60</ele>
        <time>2017-02-11T06:26:14Z</time>
      </trkpt>
      <trkpt lat="42.478170000" lon="-2.500068000">
        <ele>466.80</ele>
        <time>2017-02-11T06:26:15Z</time>
      </trkpt>
      <trkpt lat="42.478199000" lon="-2.500077000">
        <ele>466.90</ele>
        <time>2017-02-11T06:26:16Z</time>
      </trkpt>
      <trkpt lat="42.478224000" lon="-2.500089000">
        <ele>467.00</ele>
        <time>2017-02-11T06:26:17Z</time>
      </trkpt>
      <trkpt lat="42.478256000" lon="-2.500094000">
        <ele>467.20</ele>
        <time>2017-02-11T06:26:18Z</time>
      </trkpt>
      <trkpt lat="42.478284000" lon="-2.500100000">
        <ele>467.40</ele>
        <time>2017-02-11T06:26:19Z</time>
      </trkpt>
      <trkpt lat="42.478313000" lon="-2.500104000">
        <ele>467.50</ele>
        <time>2017-02-11T06:26:20Z</time>
      </trkpt>
      <trkpt lat="42.478337000" lon="-2.500112000">
        <ele>467.70</ele>
        <time>2017-02-11T06:26:21Z</time>
      </trkpt>
      <trkpt lat="42.478360000" lon="-2.500119000">
        <ele>467.90</ele>
        <time>2017-02-11T06:26:22Z</time>
      </trkpt>
      <trkpt lat="42.478384000" lon="-2.500126000">
        <ele>468.10</ele>
        <time>2017-02-11T06:26:23Z</time>
      </trkpt>
      <trkpt lat="42.478425000" lon="-2.500122000">
        <ele>468.30</ele>
        <time>2017-02-11T06:26:24Z</time>
      </trkpt>
      <trkpt lat="42.478456000" lon="-2.500124000">
        <ele>468.50</ele>
        <time>2017-02-11T06:26:25Z</time>
      </trkpt>
      <trkpt lat="42.478468000" lon="-2.500143000">
        <ele>468.60</ele>
        <time>2017-02-11T06:26:26Z</time>
      </trkpt>
      <trkpt lat="42.478497000" lon="-2.500142000">
        <ele>468.80</ele>
        <time>2017-02-11T06:26:27Z</time>
      </trkpt>
      <trkpt lat="42.478537000" lon="-2.500128000">
        <ele>468.90</ele>
        <time>2017-02-11T06:26:28Z</time>
      </trkpt>
      <trkpt lat="42.478559000" lon="-2.500134000">
        <ele>469.00</ele>
        <time>2017-02-11T06:26:29Z</time>
      </trkpt>
      <trkpt lat="42.478591000" lon="-2.500136000">
        <ele>469.10</ele>
        <time>2017-02-11T06:26:30Z</time>
      </trkpt>
      <trkpt lat="42.478611000" lon="-2.500137000">
        <ele>469.20</ele>
        <time>2017-02-11T06:26:31Z</time>
      </trkpt>
      <trkpt lat="42.478629000" lon="-2.500139000">
        <ele>469.20</ele>
        <time>2017-02-11T06:26:32Z</time>
      </trkpt>
      <trkpt lat="42.478654000" lon="-2.500135000">
        <ele>469.30</ele>
        <time>2017-02-11T06:26:33Z</time>
      </trkpt>
      <trkpt lat="42.478680000" lon="-2.500134000">
        <ele>469.40</ele>
        <time>2017-02-11T06:26:34Z</time>
      </trkpt>
      <trkpt lat="42.478696000" lon="-2.500139000">
        <ele>469.50</ele>
        <time>2017-02-11T06:26:35Z</time>
      </trkpt>
      <trkpt lat="42.478718000" lon="-2.500139000">
        <ele>469.60</ele>
        <time>2017-02-11T06:26:36Z</time>
      </trkpt>
      <trkpt lat="42.478742000" lon="-2.500136000">
        <ele>469.70</ele>
        <time>2017-02-11T06:26:37Z</time>
      </trkpt>
      <trkpt lat="42.478768000" lon="-2.500125000">
        <ele>469.70</ele>
        <time>2017-02-11T06:26:38Z</time>
      </trkpt>
      <trkpt lat="42.478789000" lon="-2.500124000">
        <ele>469.80</ele>
        <time>2017-02-11T06:26:39Z</time>
      </trkpt>
      <trkpt lat="42.478814000" lon="-2.500122000">
        <ele>469.80</ele>
        <time>2017-02-11T06:26:40Z</time>
      </trkpt>
      <trkpt lat="42.478839000" lon="-2.500118000">
        <ele>469.90</ele>
        <time>2017-02-11T06:26:41Z</time>
      </trkpt>
      <trkpt lat="42.478863000" lon="-2.500120000">
        <ele>470.00</ele>
        <time>2017-02-11T06:26:42Z</time>
      </trkpt>
      <trkpt lat="42.478882000" lon="-2.500123000">
        <ele>470.00</ele>
        <time>2017-02-11T06:26:43Z</time>
      </trkpt>
      <trkpt lat="42.478905000" lon="-2.500123000">
        <ele>470.10</ele>
        <time>2017-02-11T06:26:44Z</time>
      </trkpt>
      <trkpt lat="42.478930000" lon="-2.500114000">
        <ele>470.10</ele>
        <time>2017-02-11T06:26:45Z</time>
      </trkpt>
      <trkpt lat="42.478955000" lon="-2.500113000">
        <ele>470.10</ele>
        <time>2017-02-11T06:26:46Z</time>
      </trkpt>
      <trkpt lat="42.478977000" lon="-2.500115000">
        <ele>470.10</ele>
        <time>2017-02-11T06:26:47Z</time>
      </trkpt>
      <trkpt lat="42.479003000" lon="-2.500115000">
        <ele>470.00</ele>
        <time>2017-02-11T06:26:48Z</time>
      </trkpt>
      <trkpt lat="42.479028000" lon="-2.500116000">
        <ele>470.00</ele>
        <time>2017-02-11T06:26:49Z</time>
      </trkpt>
      <trkpt lat="42.479051000" lon="-2.500120000">
        <ele>470.00</ele>
        <time>2017-02-11T06:26:50Z</time>
      </trkpt>
      <trkpt lat="42.479075000" lon="-2.500120000">
        <ele>470.10</ele>
        <time>2017-02-11T06:26:51Z</time>
      </trkpt>
      <trkpt lat="42.479118000" lon="-2.500132000">
        <ele>470.10</ele>
        <time>2017-02-11T06:26:53Z</time>
      </trkpt>
      <trkpt lat="42.479142000" lon="-2.500134000">
        <ele>470.10</ele>
        <time>2017-02-11T06:26:54Z</time>
      </trkpt>
      <trkpt lat="42.479161000" lon="-2.500140000">
        <ele>470.20</ele>
        <time>2017-02-11T06:26:55Z</time>
      </trkpt>
      <trkpt lat="42.479180000" lon="-2.500146000">
        <ele>470.30</ele>
        <time>2017-02-11T06:26:56Z</time>
      </trkpt>
      <trkpt lat="42.479204000" lon="-2.500149000">
        <ele>470.40</ele>
        <time>2017-02-11T06:26:57Z</time>
      </trkpt>
      <trkpt lat="42.479221000" lon="-2.500158000">
        <ele>470.50</ele>
        <time>2017-02-11T06:26:58Z</time>
      </trkpt>
      <trkpt lat="42.479242000" lon="-2.500158000">
        <ele>471.00</ele>
        <time>2017-02-11T06:26:59Z</time>
      </trkpt>
      <trkpt lat="42.479253000" lon="-2.500160000">
        <ele>471.40</ele>
        <time>2017-02-11T06:27:00Z</time>
      </trkpt>
      <trkpt lat="42.479276000" lon="-2.500160000">
        <ele>471.70</ele>
        <time>2017-02-11T06:27:01Z</time>
      </trkpt>
      <trkpt lat="42.479301000" lon="-2.500169000">
        <ele>471.90</ele>
        <time>2017-02-11T06:27:02Z</time>
      </trkpt>
      <trkpt lat="42.479330000" lon="-2.500166000">
        <ele>472.20</ele>
        <time>2017-02-11T06:27:03Z</time>
      </trkpt>
      <trkpt lat="42.479354000" lon="-2.500168000">
        <ele>472.40</ele>
        <time>2017-02-11T06:27:04Z</time>
      </trkpt>
      <trkpt lat="42.479381000" lon="-2.500161000">
        <ele>472.60</ele>
        <time>2017-02-11T06:27:05Z</time>
      </trkpt>
      <trkpt lat="42.479397000" lon="-2.500163000">
        <ele>472.80</ele>
        <time>2017-02-11T06:27:06Z</time>
      </trkpt>
      <trkpt lat="42.479414000" lon="-2.500169000">
        <ele>473.20</ele>
        <time>2017-02-11T06:27:07Z</time>
      </trkpt>
      <trkpt lat="42.479431000" lon="-2.500173000">
        <ele>473.40</ele>
        <time>2017-02-11T06:27:08Z</time>
      </trkpt>
      <trkpt lat="42.479451000" lon="-2.500176000">
        <ele>473.60</ele>
        <time>2017-02-11T06:27:09Z</time>
      </trkpt>
      <trkpt lat="42.479474000" lon="-2.500177000">
        <ele>473.70</ele>
        <time>2017-02-11T06:27:10Z</time>
      </trkpt>
      <trkpt lat="42.479497000" lon="-2.500178000">
        <ele>473.90</ele>
        <time>2017-02-11T06:27:11Z</time>
      </trkpt>
      <trkpt lat="42.479515000" lon="-2.500187000">
        <ele>473.90</ele>
        <time>2017-02-11T06:27:12Z</time>
      </trkpt>
      <trkpt lat="42.479530000" lon="-2.500194000">
        <ele>473.90</ele>
        <time>2017-02-11T06:27:13Z</time>
      </trkpt>
      <trkpt lat="42.479546000" lon="-2.500204000">
        <ele>473.90</ele>
        <time>2017-02-11T06:27:14Z</time>
      </trkpt>
      <trkpt lat="42.479560000" lon="-2.500221000">
        <ele>474.20</ele>
        <time>2017-02-11T06:27:15Z</time>
      </trkpt>
      <trkpt lat="42.479578000" lon="-2.500230000">
        <ele>474.30</ele>
        <time>2017-02-11T06:27:16Z</time>
      </trkpt>
      <trkpt lat="42.479595000" lon="-2.500236000">
        <ele>474.50</ele>
        <time>2017-02-11T06:27:17Z</time>
      </trkpt>
      <trkpt lat="42.479616000" lon="-2.500247000">
        <ele>474.60</ele>
        <time>2017-02-11T06:27:18Z</time>
      </trkpt>
      <trkpt lat="42.479633000" lon="-2.500260000">
        <ele>474.60</ele>
        <time>2017-02-11T06:27:19Z</time>
      </trkpt>
      <trkpt lat="42.479655000" lon="-2.500272000">
        <ele>474.70</ele>
        <time>2017-02-11T06:27:20Z</time>
      </trkpt>
      <trkpt lat="42.479672000" lon="-2.500286000">
        <ele>474.70</ele>
        <time>2017-02-11T06:27:21Z</time>
      </trkpt>
      <trkpt lat="42.479688000" lon="-2.500301000">
        <ele>474.80</ele>
        <time>2017-02-11T06:27:22Z</time>
      </trkpt>
      <trkpt lat="42.479701000" lon="-2.500324000">
        <ele>474.90</ele>
        <time>2017-02-11T06:27:23Z</time>
      </trkpt>
      <trkpt lat="42.479714000" lon="-2.500344000">
        <ele>475.00</ele>
        <time>2017-02-11T06:27:24Z</time>
      </trkpt>
      <trkpt lat="42.479727000" lon="-2.500367000">
        <ele>475.30</ele>
        <time>2017-02-11T06:27:25Z</time>
      </trkpt>
      <trkpt lat="42.479743000" lon="-2.500388000">
        <ele>475.40</ele>
        <time>2017-02-11T06:27:26Z</time>
      </trkpt>
      <trkpt lat="42.479754000" lon="-2.500412000">
        <ele>475.50</ele>
        <time>2017-02-11T06:27:27Z</time>
      </trkpt>
      <trkpt lat="42.479764000" lon="-2.500437000">
        <ele>475.60</ele>
        <time>2017-02-11T06:27:28Z</time>
      </trkpt>
      <trkpt lat="42.479779000" lon="-2.500458000">
        <ele>475.90</ele>
        <time>2017-02-11T06:27:29Z</time>
      </trkpt>
      <trkpt lat="42.479791000" lon="-2.500481000">
        <ele>476.10</ele>
        <time>2017-02-11T06:27:30Z</time>
      </trkpt>
      <trkpt lat="42.479803000" lon="-2.500509000">
        <ele>476.40</ele>
        <time>2017-02-11T06:27:31Z</time>
      </trkpt>
      <trkpt lat="42.479815000" lon="-2.500534000">
        <ele>476.60</ele>
        <time>2017-02-11T06:27:32Z</time>
      </trkpt>
      <trkpt lat="42.479829000" lon="-2.500554000">
        <ele>476.70</ele>
        <time>2017-02-11T06:27:33Z</time>
      </trkpt>
      <trkpt lat="42.479841000" lon="-2.500578000">
        <ele>476.80</ele>
        <time>2017-02-11T06:27:34Z</time>
      </trkpt>
      <trkpt lat="42.479853000" lon="-2.500600000">
        <ele>477.00</ele>
        <time>2017-02-11T06:27:35Z</time>
      </trkpt>
      <trkpt lat="42.479866000" lon="-2.500627000">
        <ele>477.10</ele>
        <time>2017-02-11T06:27:36Z</time>
      </trkpt>
      <trkpt lat="42.479878000" lon="-2.500649000">
        <ele>477.20</ele>
        <time>2017-02-11T06:27:37Z</time>
      </trkpt>
      <trkpt lat="42.479894000" lon="-2.500671000">
        <ele>477.30</ele>
        <time>2017-02-11T06:27:38Z</time>
      </trkpt>
      <trkpt lat="42.479905000" lon="-2.500691000">
        <ele>477.50</ele>
        <time>2017-02-11T06:27:39Z</time>
      </trkpt>
      <trkpt lat="42.479921000" lon="-2.500714000">
        <ele>477.60</ele>
        <time>2017-02-11T06:27:40Z</time>
      </trkpt>
      <trkpt lat="42.479932000" lon="-2.500741000">
        <ele>477.80</ele>
        <time>2017-02-11T06:27:41Z</time>
      </trkpt>
      <trkpt lat="42.479942000" lon="-2.500766000">
        <ele>478.00</ele>
        <time>2017-02-11T06:27:42Z</time>
      </trkpt>
      <trkpt lat="42.479955000" lon="-2.500789000">
        <ele>478.20</ele>
        <time>2017-02-11T06:27:43Z</time>
      </trkpt>
      <trkpt lat="42.479970000" lon="-2.500814000">
        <ele>478.40</ele>
        <time>2017-02-11T06:27:44Z</time>
      </trkpt>
      <trkpt lat="42.479987000" lon="-2.500838000">
        <ele>478.60</ele>
        <time>2017-02-11T06:27:45Z</time>
      </trkpt>
      <trkpt lat="42.480000000" lon="-2.500866000">
        <ele>478.80</ele>
        <time>2017-02-11T06:27:46Z</time>
      </trkpt>
      <trkpt lat="42.480013000" lon="-2.500893000">
        <ele>478.90</ele>
        <time>2017-02-11T06:27:47Z</time>
      </trkpt>
      <trkpt lat="42.480027000" lon="-2.500915000">
        <ele>479.00</ele>
        <time>2017-02-11T06:27:48Z</time>
      </trkpt>
      <trkpt lat="42.480043000" lon="-2.500937000">
        <ele>479.10</ele>
        <time>2017-02-11T06:27:49Z</time>
      </trkpt>
      <trkpt lat="42.480055000" lon="-2.500959000">
        <ele>479.30</ele>
        <time>2017-02-11T06:27:50Z</time>
      </trkpt>
      <trkpt lat="42.480069000" lon="-2.500981000">
        <ele>479.50</ele>
        <time>2017-02-11T06:27:51Z</time>
      </trkpt>
      <trkpt lat="42.480085000" lon="-2.501001000">
        <ele>479.60</ele>
        <time>2017-02-11T06:27:52Z</time>
      </trkpt>
      <trkpt lat="42.480116000" lon="-2.501039000">
        <ele>480.10</ele>
        <time>2017-02-11T06:27:54Z</time>
      </trkpt>
      <trkpt lat="42.480132000" lon="-2.501053000">
        <ele>480.30</ele>
        <time>2017-02-11T06:27:55Z</time>
      </trkpt>
      <trkpt lat="42.480150000" lon="-2.501065000">
        <ele>480.40</ele>
        <time>2017-02-11T06:27:56Z</time>
      </trkpt>
      <trkpt lat="42.480169000" lon="-2.501077000">
        <ele>480.60</ele>
        <time>2017-02-11T06:27:57Z</time>
      </trkpt>
      <trkpt lat="42.480192000" lon="-2.501086000">
        <ele>480.80</ele>
        <time>2017-02-11T06:27:58Z</time>
      </trkpt>
      <trkpt lat="42.480215000" lon="-2.501091000">
        <ele>481.10</ele>
        <time>2017-02-11T06:27:59Z</time>
      </trkpt>
      <trkpt lat="42.480241000" lon="-2.501093000">
        <ele>481.30</ele>
        <time>2017-02-11T06:28:00Z</time>
      </trkpt>
      <trkpt lat="42.480271000" lon="-2.501097000">
        <ele>481.30</ele>
        <time>2017-02-11T06:28:01Z</time>
      </trkpt>
      <trkpt lat="42.480301000" lon="-2.501102000">
        <ele>481.30</ele>
        <time>2017-02-11T06:28:02Z</time>
      </trkpt>
      <trkpt lat="42.480333000" lon="-2.501099000">
        <ele>481.20</ele>
        <time>2017-02-11T06:28:03Z</time>
      </trkpt>
      <trkpt lat="42.480364000" lon="-2.501102000">
        <ele>481.20</ele>
        <time>2017-02-11T06:28:04Z</time>
      </trkpt>
      <trkpt lat="42.480393000" lon="-2.501103000">
        <ele>481.20</ele>
        <time>2017-02-11T06:28:05Z</time>
      </trkpt>
      <trkpt lat="42.480422000" lon="-2.501103000">
        <ele>481.10</ele>
        <time>2017-02-11T06:28:06Z</time>
      </trkpt>
      <trkpt lat="42.480450000" lon="-2.501099000">
        <ele>481.10</ele>
        <time>2017-02-11T06:28:07Z</time>
      </trkpt>
      <trkpt lat="42.480475000" lon="-2.501096000">
        <ele>481.10</ele>
        <time>2017-02-11T06:28:08Z</time>
      </trkpt>
      <trkpt lat="42.480506000" lon="-2.501094000">
        <ele>481.10</ele>
        <time>2017-02-11T06:28:09Z</time>
      </trkpt>
      <trkpt lat="42.480536000" lon="-2.501093000">
        <ele>481.20</ele>
        <time>2017-02-11T06:28:10Z</time>
      </trkpt>
      <trkpt lat="42.480566000" lon="-2.501093000">
        <ele>481.30</ele>
        <time>2017-02-11T06:28:11Z</time>
      </trkpt>
      <trkpt lat="42.480596000" lon="-2.501089000">
        <ele>481.40</ele>
        <time>2017-02-11T06:28:12Z</time>
      </trkpt>
      <trkpt lat="42.480622000" lon="-2.501088000">
        <ele>481.40</ele>
        <time>2017-02-11T06:28:13Z</time>
      </trkpt>
      <trkpt lat="42.480650000" lon="-2.501088000">
        <ele>481.50</ele>
        <time>2017-02-11T06:28:14Z</time>
      </trkpt>
      <trkpt lat="42.480678000" lon="-2.501083000">
        <ele>481.40</ele>
        <time>2017-02-11T06:28:15Z</time>
      </trkpt>
      <trkpt lat="42.480705000" lon="-2.501074000">
        <ele>481.40</ele>
        <time>2017-02-11T06:28:16Z</time>
      </trkpt>
      <trkpt lat="42.480732000" lon="-2.501062000">
        <ele>481.40</ele>
        <time>2017-02-11T06:28:17Z</time>
      </trkpt>
      <trkpt lat="42.480759000" lon="-2.501042000">
        <ele>481.40</ele>
        <time>2017-02-11T06:28:18Z</time>
      </trkpt>
      <trkpt lat="42.480782000" lon="-2.501023000">
        <ele>481.50</ele>
        <time>2017-02-11T06:28:19Z</time>
      </trkpt>
      <trkpt lat="42.480802000" lon="-2.501003000">
        <ele>481.50</ele>
        <time>2017-02-11T06:28:20Z</time>
      </trkpt>
      <trkpt lat="42.480826000" lon="-2.500982000">
        <ele>481.80</ele>
        <time>2017-02-11T06:28:21Z</time>
      </trkpt>
      <trkpt lat="42.480847000" lon="-2.500958000">
        <ele>482.10</ele>
        <time>2017-02-11T06:28:22Z</time>
      </trkpt>
      <trkpt lat="42.480867000" lon="-2.500933000">
        <ele>482.50</ele>
        <time>2017-02-11T06:28:23Z</time>
      </trkpt>
      <trkpt lat="42.480888000" lon="-2.500912000">
        <ele>482.70</ele>
        <time>2017-02-11T06:28:24Z</time>
      </trkpt>
      <trkpt lat="42.480907000" lon="-2.500890000">
        <ele>483.20</ele>
        <time>2017-02-11T06:28:25Z</time>
      </trkpt>
      <trkpt lat="42.480928000" lon="-2.500872000">
        <ele>483.60</ele>
        <time>2017-02-11T06:28:26Z</time>
      </trkpt>
      <trkpt lat="42.480952000" lon="-2.500856000">
        <ele>484.00</ele>
        <time>2017-02-11T06:28:27Z</time>
      </trkpt>
      <trkpt lat="42.480978000" lon="-2.500852000">
        <ele>484.30</ele>
        <time>2017-02-11T06:28:28Z</time>
      </trkpt>
      <trkpt lat="42.481004000" lon="-2.500851000">
        <ele>484.60</ele>
        <time>2017-02-11T06:28:29Z</time>
      </trkpt>
      <trkpt lat="42.481034000" lon="-2.500849000">
        <ele>484.80</ele>
        <time>2017-02-11T06:28:30Z</time>
      </trkpt>
      <trkpt lat="42.481061000" lon="-2.500858000">
        <ele>485.30</ele>
        <time>2017-02-11T06:28:31Z</time>
      </trkpt>
      <trkpt lat="42.481084000" lon="-2.500876000">
        <ele>485.60</ele>
        <time>2017-02-11T06:28:32Z</time>
      </trkpt>
      <trkpt lat="42.481106000" lon="-2.500896000">
        <ele>485.60</ele>
        <time>2017-02-11T06:28:33Z</time>
      </trkpt>
      <trkpt lat="42.481124000" lon="-2.500919000">
        <ele>485.70</ele>
        <time>2017-02-11T06:28:34Z</time>
      </trkpt>
      <trkpt lat="42.481138000" lon="-2.500951000">
        <ele>485.90</ele>
        <time>2017-02-11T06:28:35Z</time>
      </trkpt>
      <trkpt lat="42.481152000" lon="-2.500984000">
        <ele>486.00</ele>
        <time>2017-02-11T06:28:36Z</time>
      </trkpt>
      <trkpt lat="42.481169000" lon="-2.501015000">
        <ele>486.30</ele>
        <time>2017-02-11T06:28:37Z</time>
      </trkpt>
      <trkpt lat="42.481185000" lon="-2.501048000">
        <ele>486.50</ele>
        <time>2017-02-11T06:28:38Z</time>
      </trkpt>
      <trkpt lat="42.481199000" lon="-2.501079000">
        <ele>486.70</ele>
        <time>2017-02-11T06:28:39Z</time>
      </trkpt>
      <trkpt lat="42.481215000" lon="-2.501112000">
        <ele>486.90</ele>
        <time>2017-02-11T06:28:40Z</time>
      </trkpt>
      <trkpt lat="42.481235000" lon="-2.501138000">
        <ele>487.10</ele>
        <time>2017-02-11T06:28:41Z</time>
      </trkpt>
      <trkpt lat="42.481252000" lon="-2.501164000">
        <ele>487.30</ele>
        <time>2017-02-11T06:28:42Z</time>
      </trkpt>
      <trkpt lat="42.481270000" lon="-2.501190000">
        <ele>487.50</ele>
        <time>2017-02-11T06:28:43Z</time>
      </trkpt>
      <trkpt lat="42.481286000" lon="-2.501215000">
        <ele>487.60</ele>
        <time>2017-02-11T06:28:44Z</time>
      </trkpt>
      <trkpt lat="42.481305000" lon="-2.501234000">
        <ele>488.20</ele>
        <time>2017-02-11T06:28:45Z</time>
      </trkpt>
      <trkpt lat="42.481323000" lon="-2.501256000">
        <ele>488.70</ele>
        <time>2017-02-11T06:28:46Z</time>
      </trkpt>
      <trkpt lat="42.481340000" lon="-2.501270000">
        <ele>489.00</ele>
        <time>2017-02-11T06:28:47Z</time>
      </trkpt>
      <trkpt lat="42.481361000" lon="-2.501290000">
        <ele>489.30</ele>
        <time>2017-02-11T06:28:48Z</time>
      </trkpt>
      <trkpt lat="42.481380000" lon="-2.501310000">
        <ele>489.50</ele>
        <time>2017-02-11T06:28:49Z</time>
      </trkpt>
      <trkpt lat="42.481405000" lon="-2.501325000">
        <ele>489.60</ele>
        <time>2017-02-11T06:28:50Z</time>
      </trkpt>
      <trkpt lat="42.481427000" lon="-2.501340000">
        <ele>490.00</ele>
        <time>2017-02-11T06:28:51Z</time>
      </trkpt>
      <trkpt lat="42.481449000" lon="-2.501356000">
        <ele>490.20</ele>
        <time>2017-02-11T06:28:52Z</time>
      </trkpt>
      <trkpt lat="42.481470000" lon="-2.501368000">
        <ele>490.50</ele>
        <time>2017-02-11T06:28:53Z</time>
      </trkpt>
      <trkpt lat="42.481519000" lon="-2.501387000">
        <ele>490.70</ele>
        <time>2017-02-11T06:28:55Z</time>
      </trkpt>
      <trkpt lat="42.481546000" lon="-2.501393000">
        <ele>490.80</ele>
        <time>2017-02-11T06:28:56Z</time>
      </trkpt>
      <trkpt lat="42.481571000" lon="-2.501406000">
        <ele>491.00</ele>
        <time>2017-02-11T06:28:57Z</time>
      </trkpt>
      <trkpt lat="42.481592000" lon="-2.501418000">
        <ele>491.20</ele>
        <time>2017-02-11T06:28:58Z</time>
      </trkpt>
      <trkpt lat="42.481618000" lon="-2.501428000">
        <ele>491.40</ele>
        <time>2017-02-11T06:28:59Z</time>
      </trkpt>
      <trkpt lat="42.481647000" lon="-2.501437000">
        <ele>491.70</ele>
        <time>2017-02-11T06:29:00Z</time>
      </trkpt>
      <trkpt lat="42.481669000" lon="-2.501452000">
        <ele>491.80</ele>
        <time>2017-02-11T06:29:01Z</time>
      </trkpt>
      <trkpt lat="42.481696000" lon="-2.501465000">
        <ele>491.90</ele>
        <time>2017-02-11T06:29:02Z</time>
      </trkpt>
      <trkpt lat="42.481718000" lon="-2.501479000">
        <ele>492.00</ele>
        <time>2017-02-11T06:29:03Z</time>
      </trkpt>
      <trkpt lat="42.481744000" lon="-2.501491000">
        <ele>492.10</ele>
        <time>2017-02-11T06:29:04Z</time>
      </trkpt>
      <trkpt lat="42.481769000" lon="-2.501503000">
        <ele>492.10</ele>
        <time>2017-02-11T06:29:05Z</time>
      </trkpt>
      <trkpt lat="42.481796000" lon="-2.501519000">
        <ele>492.10</ele>
        <time>2017-02-11T06:29:06Z</time>
      </trkpt>
      <trkpt lat="42.481823000" lon="-2.501533000">
        <ele>492.20</ele>
        <time>2017-02-11T06:29:07Z</time>
      </trkpt>
      <trkpt lat="42.481846000" lon="-2.501547000">
        <ele>492.30</ele>
        <time>2017-02-11T06:29:08Z</time>
      </trkpt>
      <trkpt lat="42.481870000" lon="-2.501563000">
        <ele>492.10</ele>
        <time>2017-02-11T06:29:09Z</time>
      </trkpt>
      <trkpt lat="42.481892000" lon="-2.501582000">
        <ele>491.90</ele>
        <time>2017-02-11T06:29:10Z</time>
      </trkpt>
      <trkpt lat="42.481914000" lon="-2.501600000">
        <ele>492.30</ele>
        <time>2017-02-11T06:29:11Z</time>
      </trkpt>
      <trkpt lat="42.481937000" lon="-2.501614000">
        <ele>492.60</ele>
        <time>2017-02-11T06:29:12Z</time>
      </trkpt>
      <trkpt lat="42.481957000" lon="-2.501630000">
        <ele>493.10</ele>
        <time>2017-02-11T06:29:13Z</time>
      </trkpt>
      <trkpt lat="42.481981000" lon="-2.501650000">
        <ele>493.40</ele>
        <time>2017-02-11T06:29:14Z</time>
      </trkpt>
      <trkpt lat="42.482009000" lon="-2.501663000">
        <ele>493.70</ele>
        <time>2017-02-11T06:29:15Z</time>
      </trkpt>
      <trkpt lat="42.482032000" lon="-2.501676000">
        <ele>493.90</ele>
        <time>2017-02-11T06:29:16Z</time>
      </trkpt>
      <trkpt lat="42.482057000" lon="-2.501694000">
        <ele>494.00</ele>
        <time>2017-02-11T06:29:17Z</time>
      </trkpt>
      <trkpt lat="42.482087000" lon="-2.501705000">
        <ele>494.10</ele>
        <time>2017-02-11T06:29:18Z</time>
      </trkpt>
      <trkpt lat="42.482114000" lon="-2.501718000">
        <ele>494.30</ele>
        <time>2017-02-11T06:29:19Z</time>
      </trkpt>
      <trkpt lat="42.482138000" lon="-2.501728000">
        <ele>494.40</ele>
        <time>2017-02-11T06:29:20Z</time>
      </trkpt>
      <trkpt lat="42.482161000" lon="-2.501737000">
        <ele>494.60</ele>
        <time>2017-02-11T06:29:21Z</time>
      </trkpt>
      <trkpt lat="42.482186000" lon="-2.501743000">
        <ele>494.70</ele>
        <time>2017-02-11T06:29:22Z</time>
      </trkpt>
      <trkpt lat="42.482208000" lon="-2.501750000">
        <ele>494.80</ele>
        <time>2017-02-11T06:29:23Z</time>
      </trkpt>
      <trkpt lat="42.482234000" lon="-2.501753000">
        <ele>494.80</ele>
        <time>2017-02-11T06:29:24Z</time>
      </trkpt>
      <trkpt lat="42.482258000" lon="-2.501754000">
        <ele>494.90</ele>
        <time>2017-02-11T06:29:25Z</time>
      </trkpt>
      <trkpt lat="42.482282000" lon="-2.501758000">
        <ele>495.00</ele>
        <time>2017-02-11T06:29:26Z</time>
      </trkpt>
      <trkpt lat="42.482309000" lon="-2.501759000">
        <ele>495.20</ele>
        <time>2017-02-11T06:29:27Z</time>
      </trkpt>
      <trkpt lat="42.482333000" lon="-2.501761000">
        <ele>495.40</ele>
        <time>2017-02-11T06:29:28Z</time>
      </trkpt>
      <trkpt lat="42.482355000" lon="-2.501763000">
        <ele>495.50</ele>
        <time>2017-02-11T06:29:29Z</time>
      </trkpt>
      <trkpt lat="42.482382000" lon="-2.501761000">
        <ele>495.70</ele>
        <time>2017-02-11T06:29:30Z</time>
      </trkpt>
      <trkpt lat="42.482407000" lon="-2.501758000">
        <ele>495.70</ele>
        <time>2017-02-11T06:29:31Z</time>
      </trkpt>
      <trkpt lat="42.482435000" lon="-2.501756000">
        <ele>495.80</ele>
        <time>2017-02-11T06:29:32Z</time>
      </trkpt>
      <trkpt lat="42.482461000" lon="-2.501754000">
        <ele>495.90</ele>
        <time>2017-02-11T06:29:33Z</time>
      </trkpt>
      <trkpt lat="42.482486000" lon="-2.501751000">
        <ele>496.00</ele>
        <time>2017-02-11T06:29:34Z</time>
      </trkpt>
      <trkpt lat="42.482511000" lon="-2.501747000">
        <ele>496.00</ele>
        <time>2017-02-11T06:29:35Z</time>
      </trkpt>
      <trkpt lat="42.482533000" lon="-2.501744000">
        <ele>496.10</ele>
        <time>2017-02-11T06:29:36Z</time>
      </trkpt>
      <trkpt lat="42.482555000" lon="-2.501744000">
        <ele>496.20</ele>
        <time>2017-02-11T06:29:37Z</time>
      </trkpt>
      <trkpt lat="42.482574000" lon="-2.501739000">
        <ele>496.30</ele>
        <time>2017-02-11T06:29:38Z</time>
      </trkpt>
      <trkpt lat="42.482596000" lon="-2.501729000">
        <ele>496.30</ele>
        <time>2017-02-11T06:29:39Z</time>
      </trkpt>
      <trkpt lat="42.482619000" lon="-2.501726000">
        <ele>496.40</ele>
        <time>2017-02-11T06:29:40Z</time>
      </trkpt>
      <trkpt lat="42.482641000" lon="-2.501720000">
        <ele>496.40</ele>
        <time>2017-02-11T06:29:41Z</time>
      </trkpt>
      <trkpt lat="42.482664000" lon="-2.501715000">
        <ele>496.40</ele>
        <time>2017-02-11T06:29:42Z</time>
      </trkpt>
      <trkpt lat="42.482685000" lon="-2.501710000">
        <ele>496.30</ele>
        <time>2017-02-11T06:29:43Z</time>
      </trkpt>
      <trkpt lat="42.482706000" lon="-2.501706000">
        <ele>496.30</ele>
        <time>2017-02-11T06:29:44Z</time>
      </trkpt>
      <trkpt lat="42.482730000" lon="-2.501699000">
        <ele>496.30</ele>
        <time>2017-02-11T06:29:45Z</time>
      </trkpt>
      <trkpt lat="42.482753000" lon="-2.501690000">
        <ele>496.20</ele>
        <time>2017-02-11T06:29:46Z</time>
      </trkpt>
      <trkpt lat="42.482778000" lon="-2.501683000">
        <ele>496.20</ele>
        <time>2017-02-11T06:29:47Z</time>
      </trkpt>
      <trkpt lat="42.482802000" lon="-2.501679000">
        <ele>496.20</ele>
        <time>2017-02-11T06:29:48Z</time>
      </trkpt>
      <trkpt lat="42.482828000" lon="-2.501674000">
        <ele>496.40</ele>
        <time>2017-02-11T06:29:49Z</time>
      </trkpt>
      <trkpt lat="42.482851000" lon="-2.501674000">
        <ele>496.60</ele>
        <time>2017-02-11T06:29:50Z</time>
      </trkpt>
      <trkpt lat="42.482876000" lon="-2.501675000">
        <ele>496.90</ele>
        <time>2017-02-11T06:29:51Z</time>
      </trkpt>
      <trkpt lat="42.482900000" lon="-2.501673000">
        <ele>497.10</ele>
        <time>2017-02-11T06:29:52Z</time>
      </trkpt>
      <trkpt lat="42.482927000" lon="-2.501676000">
        <ele>497.20</ele>
        <time>2017-02-11T06:29:53Z</time>
      </trkpt>
      <trkpt lat="42.482949000" lon="-2.501679000">
        <ele>497.30</ele>
        <time>2017-02-11T06:29:54Z</time>
      </trkpt>
      <trkpt lat="42.482994000" lon="-2.501695000">
        <ele>497.50</ele>
        <time>2017-02-11T06:29:56Z</time>
      </trkpt>
      <trkpt lat="42.483015000" lon="-2.501705000">
        <ele>497.50</ele>
        <time>2017-02-11T06:29:57Z</time>
      </trkpt>
      <trkpt lat="42.483041000" lon="-2.501720000">
        <ele>497.60</ele>
        <time>2017-02-11T06:29:58Z</time>
      </trkpt>
      <trkpt lat="42.483063000" lon="-2.501737000">
        <ele>497.60</ele>
        <time>2017-02-11T06:29:59Z</time>
      </trkpt>
      <trkpt lat="42.483086000" lon="-2.501750000">
        <ele>497.60</ele>
        <time>2017-02-11T06:30:00Z</time>
      </trkpt>
      <trkpt lat="42.483113000" lon="-2.501768000">
        <ele>497.80</ele>
        <time>2017-02-11T06:30:01Z</time>
      </trkpt>
      <trkpt lat="42.483137000" lon="-2.501785000">
        <ele>497.90</ele>
        <time>2017-02-11T06:30:02Z</time>
      </trkpt>
      <trkpt lat="42.483159000" lon="-2.501806000">
        <ele>497.90</ele>
        <time>2017-02-11T06:30:03Z</time>
      </trkpt>
      <trkpt lat="42.483182000" lon="-2.501825000">
        <ele>498.00</ele>
        <time>2017-02-11T06:30:04Z</time>
      </trkpt>
      <trkpt lat="42.483205000" lon="-2.501844000">
        <ele>498.00</ele>
        <time>2017-02-11T06:30:05Z</time>
      </trkpt>
      <trkpt lat="42.483229000" lon="-2.501859000">
        <ele>498.10</ele>
        <time>2017-02-11T06:30:06Z</time>
      </trkpt>
      <trkpt lat="42.483251000" lon="-2.501877000">
        <ele>498.10</ele>
        <time>2017-02-11T06:30:07Z</time>
      </trkpt>
      <trkpt lat="42.483273000" lon="-2.501893000">
        <ele>498.20</ele>
        <time>2017-02-11T06:30:08Z</time>
      </trkpt>
      <trkpt lat="42.483296000" lon="-2.501905000">
        <ele>498.20</ele>
        <time>2017-02-11T06:30:09Z</time>
      </trkpt>
      <trkpt lat="42.483320000" lon="-2.501916000">
        <ele>498.00</ele>
        <time>2017-02-11T06:30:10Z</time>
      </trkpt>
      <trkpt lat="42.483345000" lon="-2.501925000">
        <ele>498.00</ele>
        <time>2017-02-11T06:30:11Z</time>
      </trkpt>
      <trkpt lat="42.483369000" lon="-2.501936000">
        <ele>497.90</ele>
        <time>2017-02-11T06:30:12Z</time>
      </trkpt>
      <trkpt lat="42.483396000" lon="-2.501944000">
        <ele>497.90</ele>
        <time>2017-02-11T06:30:13Z</time>
      </trkpt>
      <trkpt lat="42.483419000" lon="-2.501953000">
        <ele>498.10</ele>
        <time>2017-02-11T06:30:14Z</time>
      </trkpt>
      <trkpt lat="42.483441000" lon="-2.501962000">
        <ele>498.20</ele>
        <time>2017-02-11T06:30:15Z</time>
      </trkpt>
      <trkpt lat="42.483466000" lon="-2.501975000">
        <ele>498.60</ele>
        <time>2017-02-11T06:30:16Z</time>
      </trkpt>
      <trkpt lat="42.483490000" lon="-2.501989000">
        <ele>498.90</ele>
        <time>2017-02-11T06:30:17Z</time>
      </trkpt>
      <trkpt lat="42.483513000" lon="-2.502003000">
        <ele>499.10</ele>
        <time>2017-02-11T06:30:18Z</time>
      </trkpt>
      <trkpt lat="42.483537000" lon="-2.502017000">
        <ele>499.30</ele>
        <time>2017-02-11T06:30:19Z</time>
      </trkpt>
      <trkpt lat="42.483561000" lon="-2.502027000">
        <ele>499.40</ele>
        <time>2017-02-11T06:30:20Z</time>
      </trkpt>
      <trkpt lat="42.483584000" lon="-2.502040000">
        <ele>499.50</ele>
        <time>2017-02-11T06:30:21Z</time>
      </trkpt>
      <trkpt lat="42.483607000" lon="-2.502053000">
        <ele>499.70</ele>
        <time>2017-02-11T06:30:22Z</time>
      </trkpt>
      <trkpt lat="42.483634000" lon="-2.502068000">
        <ele>499.80</ele>
        <time>2017-02-11T06:30:23Z</time>
      </trkpt>
      <trkpt lat="42.483660000" lon="-2.502084000">
        <ele>500.10</ele>
        <time>2017-02-11T06:30:24Z</time>
      </trkpt>
      <trkpt lat="42.483685000" lon="-2.502098000">
        <ele>500.40</ele>
        <time>2017-02-11T06:30:25Z</time>
      </trkpt>
      <trkpt lat="42.483706000" lon="-2.502114000">
        <ele>500.40</ele>
        <time>2017-02-11T06:30:26Z</time>
      </trkpt>
      <trkpt lat="42.483725000" lon="-2.502127000">
        <ele>500.40</ele>
        <time>2017-02-11T06:30:27Z</time>
      </trkpt>
      <trkpt lat="42.483747000" lon="-2.502141000">
        <ele>500.70</ele>
        <time>2017-02-11T06:30:28Z</time>
      </trkpt>
      <trkpt lat="42.483769000" lon="-2.502161000">
        <ele>500.90</ele>
        <time>2017-02-11T06:30:29Z</time>
      </trkpt>
      <trkpt lat="42.483795000" lon="-2.502178000">
        <ele>501.20</ele>
        <time>2017-02-11T06:30:30Z</time>
      </trkpt>
      <trkpt lat="42.483821000" lon="-2.502192000">
        <ele>501.40</ele>
        <time>2017-02-11T06:30:31Z</time>
      </trkpt>
      <trkpt lat="42.483845000" lon="-2.502209000">
        <ele>501.60</ele>
        <time>2017-02-11T06:30:32Z</time>
      </trkpt>
      <trkpt lat="42.483872000" lon="-2.502226000">
        <ele>501.70</ele>
        <time>2017-02-11T06:30:33Z</time>
      </trkpt>
      <trkpt lat="42.483896000" lon="-2.502242000">
        <ele>501.80</ele>
        <time>2017-02-11T06:30:34Z</time>
      </trkpt>
      <trkpt lat="42.483921000" lon="-2.502257000">
        <ele>501.90</ele>
        <time>2017-02-11T06:30:35Z</time>
      </trkpt>
      <trkpt lat="42.483946000" lon="-2.502273000">
        <ele>501.90</ele>
        <time>2017-02-11T06:30:36Z</time>
      </trkpt>
      <trkpt lat="42.483972000" lon="-2.502290000">
        <ele>502.00</ele>
        <time>2017-02-11T06:30:37Z</time>
      </trkpt>
      <trkpt lat="42.483994000" lon="-2.502310000">
        <ele>502.00</ele>
        <time>2017-02-11T06:30:38Z</time>
      </trkpt>
      <trkpt lat="42.484016000" lon="-2.502326000">
        <ele>502.00</ele>
        <time>2017-02-11T06:30:39Z</time>
      </trkpt>
      <trkpt lat="42.484037000" lon="-2.502342000">
        <ele>502.00</ele>
        <time>2017-02-11T06:30:40Z</time>
      </trkpt>
      <trkpt lat="42.484058000" lon="-2.502366000">
        <ele>501.90</ele>
        <time>2017-02-11T06:30:41Z</time>
      </trkpt>
      <trkpt lat="42.484080000" lon="-2.502390000">
        <ele>502.00</ele>
        <time>2017-02-11T06:30:42Z</time>
      </trkpt>
      <trkpt lat="42.484100000" lon="-2.502411000">
        <ele>502.00</ele>
        <time>2017-02-11T06:30:43Z</time>
      </trkpt>
      <trkpt lat="42.484121000" lon="-2.502429000">
        <ele>502.00</ele>
        <time>2017-02-11T06:30:44Z</time>
      </trkpt>
      <trkpt lat="42.484140000" lon="-2.502447000">
        <ele>502.00</ele>
        <time>2017-02-11T06:30:45Z</time>
      </trkpt>
      <trkpt lat="42.484160000" lon="-2.502466000">
        <ele>502.00</ele>
        <time>2017-02-11T06:30:46Z</time>
      </trkpt>
      <trkpt lat="42.484178000" lon="-2.502487000">
        <ele>502.10</ele>
        <time>2017-02-11T06:30:47Z</time>
      </trkpt>
      <trkpt lat="42.484198000" lon="-2.502507000">
        <ele>502.00</ele>
        <time>2017-02-11T06:30:48Z</time>
      </trkpt>
      <trkpt lat="42.484219000" lon="-2.502530000">
        <ele>502.00</ele>
        <time>2017-02-11T06:30:49Z</time>
      </trkpt>
      <trkpt lat="42.484243000" lon="-2.502553000">
        <ele>501.90</ele>
        <time>2017-02-11T06:30:50Z</time>
      </trkpt>
      <trkpt lat="42.484264000" lon="-2.502575000">
        <ele>501.80</ele>
        <time>2017-02-11T06:30:51Z</time>
      </trkpt>
      <trkpt lat="42.484287000" lon="-2.502596000">
        <ele>501.70</ele>
        <time>2017-02-11T06:30:52Z</time>
      </trkpt>
      <trkpt lat="42.484313000" lon="-2.502620000">
        <ele>501.60</ele>
        <time>2017-02-11T06:30:53Z</time>
      </trkpt>
      <trkpt lat="42.484339000" lon="-2.502640000">
        <ele>501.60</ele>
        <time>2017-02-11T06:30:54Z</time>
      </trkpt>
      <trkpt lat="42.484360000" lon="-2.502659000">
        <ele>501.50</ele>
        <time>2017-02-11T06:30:55Z</time>
      </trkpt>
      <trkpt lat="42.484396000" lon="-2.502690000">
        <ele>501.30</ele>
        <time>2017-02-11T06:30:57Z</time>
      </trkpt>
      <trkpt lat="42.484412000" lon="-2.502709000">
        <ele>501.20</ele>
        <time>2017-02-11T06:30:58Z</time>
      </trkpt>
      <trkpt lat="42.484433000" lon="-2.502727000">
        <ele>501.10</ele>
        <time>2017-02-11T06:30:59Z</time>
      </trkpt>
      <trkpt lat="42.484449000" lon="-2.502747000">
        <ele>500.90</ele>
        <time>2017-02-11T06:31:00Z</time>
      </trkpt>
      <trkpt lat="42.484464000" lon="-2.502767000">
        <ele>500.70</ele>
        <time>2017-02-11T06:31:01Z</time>
      </trkpt>
      <trkpt lat="42.484479000" lon="-2.502781000">
        <ele>500.60</ele>
        <time>2017-02-11T06:31:02Z</time>
      </trkpt>
      <trkpt lat="42.484490000" lon="-2.502795000">
        <ele>500.50</ele>
        <time>2017-02-11T06:31:03Z</time>
      </trkpt>
      <trkpt lat="42.484498000" lon="-2.502807000">
        <ele>500.40</ele>
        <time>2017-02-11T06:31:04Z</time>
      </trkpt>
      <trkpt lat="42.484500000" lon="-2.502805000">
        <ele>500.30</ele>
        <time>2017-02-11T06:31:05Z</time>
      </trkpt>
      <trkpt lat="42.484504000" lon="-2.502809000">
        <ele>500.20</ele>
        <time>2017-02-11T06:31:06Z</time>
      </trkpt>
      <trkpt lat="42.484507000" lon="-2.502814000">
        <ele>500.10</ele>
        <time>2017-02-11T06:31:07Z</time>
      </trkpt>
      <trkpt lat="42.484503000" lon="-2.502815000">
        <ele>499.90</ele>
        <time>2017-02-11T06:31:08Z</time>
      </trkpt>
      <trkpt lat="42.484503000" lon="-2.502818000">
        <ele>499.80</ele>
        <time>2017-02-11T06:31:09Z</time>
      </trkpt>
      <trkpt lat="42.484507000" lon="-2.502820000">
        <ele>499.80</ele>
        <time>2017-02-11T06:31:10Z</time>
      </trkpt>
      <trkpt lat="42.484509000" lon="-2.502821000">
        <ele>499.70</ele>
        <time>2017-02-11T06:31:11Z</time>
      </trkpt>
      <trkpt lat="42.484510000" lon="-2.502819000">
        <ele>499.50</ele>
        <time>2017-02-11T06:31:12Z</time>
      </trkpt>
      <trkpt lat="42.484509000" lon="-2.502819000">
        <ele>499.40</ele>
        <time>2017-02-11T06:31:13Z</time>
      </trkpt>
      <trkpt lat="42.484508000" lon="-2.502821000">
        <ele>499.20</ele>
        <time>2017-02-11T06:31:14Z</time>
      </trkpt>
      <trkpt lat="42.484508000" lon="-2.502824000">
        <ele>499.00</ele>
        <time>2017-02-11T06:31:15Z</time>
      </trkpt>
      <trkpt lat="42.484508000" lon="-2.502823000">
        <ele>499.00</ele>
        <time>2017-02-11T06:31:16Z</time>
      </trkpt>
      <trkpt lat="42.484507000" lon="-2.502821000">
        <ele>499.00</ele>
        <time>2017-02-11T06:31:17Z</time>
      </trkpt>
      <trkpt lat="42.484508000" lon="-2.502820000">
        <ele>499.10</ele>
        <time>2017-02-11T06:31:18Z</time>
      </trkpt>
      <trkpt lat="42.484509000" lon="-2.502818000">
        <ele>499.10</ele>
        <time>2017-02-11T06:31:19Z</time>
      </trkpt>
      <trkpt lat="42.484510000" lon="-2.502816000">
        <ele>499.20</ele>
        <time>2017-02-11T06:31:20Z</time>
      </trkpt>
      <trkpt lat="42.484509000" lon="-2.502815000">
        <ele>499.20</ele>
        <time>2017-02-11T06:31:21Z</time>
      </trkpt>
      <trkpt lat="42.484508000" lon="-2.502816000">
        <ele>499.30</ele>
        <time>2017-02-11T06:31:22Z</time>
      </trkpt>
      <trkpt lat="42.484502000" lon="-2.502813000">
        <ele>499.40</ele>
        <time>2017-02-11T06:31:23Z</time>
      </trkpt>
      <trkpt lat="42.484503000" lon="-2.502815000">
        <ele>499.30</ele>
        <time>2017-02-11T06:31:24Z</time>
      </trkpt>
      <trkpt lat="42.484499000" lon="-2.502821000">
        <ele>499.30</ele>
        <time>2017-02-11T06:31:25Z</time>
      </trkpt>
      <trkpt lat="42.484501000" lon="-2.502822000">
        <ele>499.40</ele>
        <time>2017-02-11T06:31:26Z</time>
      </trkpt>
      <trkpt lat="42.484501000" lon="-2.502825000">
        <ele>499.50</ele>
        <time>2017-02-11T06:31:27Z</time>
      </trkpt>
      <trkpt lat="42.484496000" lon="-2.502827000">
        <ele>499.50</ele>
        <time>2017-02-11T06:31:28Z</time>
      </trkpt>
      <trkpt lat="42.484495000" lon="-2.502827000">
        <ele>499.40</ele>
        <time>2017-02-11T06:31:29Z</time>
      </trkpt>
      <trkpt lat="42.484497000" lon="-2.502825000">
        <ele>499.40</ele>
        <time>2017-02-11T06:31:30Z</time>
      </trkpt>
      <trkpt lat="42.484498000" lon="-2.502826000">
        <ele>499.40</ele>
        <time>2017-02-11T06:31:31Z</time>
      </trkpt>
      <trkpt lat="42.484498000" lon="-2.502827000">
        <ele>499.30</ele>
        <time>2017-02-11T06:31:32Z</time>
      </trkpt>
      <trkpt lat="42.484499000" lon="-2.502827000">
        <ele>499.30</ele>
        <time>2017-02-11T06:31:33Z</time>
      </trkpt>
      <trkpt lat="42.484495000" lon="-2.502825000">
        <ele>499.40</ele>
        <time>2017-02-11T06:31:34Z</time>
      </trkpt>
      <trkpt lat="42.484495000" lon="-2.502826000">
        <ele>499.50</ele>
        <time>2017-02-11T06:31:35Z</time>
      </trkpt>
      <trkpt lat="42.484493000" lon="-2.502822000">
        <ele>499.60</ele>
        <time>2017-02-11T06:31:36Z</time>
      </trkpt>
      <trkpt lat="42.484498000" lon="-2.502821000">
        <ele>499.60</ele>
        <time>2017-02-11T06:31:37Z</time>
      </trkpt>
      <trkpt lat="42.484505000" lon="-2.502826000">
        <ele>499.60</ele>
        <time>2017-02-11T06:31:38Z</time>
      </trkpt>
      <trkpt lat="42.484506000" lon="-2.502822000">
        <ele>499.50</ele>
        <time>2017-02-11T06:31:39Z</time>
      </trkpt>
      <trkpt lat="42.484506000" lon="-2.502821000">
        <ele>499.50</ele>
        <time>2017-02-11T06:31:40Z</time>
      </trkpt>
      <trkpt lat="42.484505000" lon="-2.502822000">
        <ele>499.40</ele>
        <time>2017-02-11T06:31:41Z</time>
      </trkpt>
      <trkpt lat="42.484508000" lon="-2.502819000">
        <ele>499.40</ele>
        <time>2017-02-11T06:31:42Z</time>
      </trkpt>
      <trkpt lat="42.484507000" lon="-2.502816000">
        <ele>499.40</ele>
        <time>2017-02-11T06:31:43Z</time>
      </trkpt>
      <trkpt lat="42.484504000" lon="-2.502816000">
        <ele>499.40</ele>
        <time>2017-02-11T06:31:44Z</time>
      </trkpt>
      <trkpt lat="42.484500000" lon="-2.502818000">
        <ele>499.30</ele>
        <time>2017-02-11T06:31:45Z</time>
      </trkpt>
      <trkpt lat="42.484502000" lon="-2.502821000">
        <ele>499.40</ele>
        <time>2017-02-11T06:31:46Z</time>
      </trkpt>
      <trkpt lat="42.484501000" lon="-2.502824000">
        <ele>499.50</ele>
        <time>2017-02-11T06:31:47Z</time>
      </trkpt>
      <trkpt lat="42.484496000" lon="-2.502824000">
        <ele>499.40</ele>
        <time>2017-02-11T06:31:48Z</time>
      </trkpt>
      <trkpt lat="42.484498000" lon="-2.502824000">
        <ele>499.20</ele>
        <time>2017-02-11T06:31:49Z</time>
      </trkpt>
      <trkpt lat="42.484498000" lon="-2.502824000">
        <ele>499.10</ele>
        <time>2017-02-11T06:31:50Z</time>
      </trkpt>
      <trkpt lat="42.484495000" lon="-2.502825000">
        <ele>499.00</ele>
        <time>2017-02-11T06:31:51Z</time>
      </trkpt>
      <trkpt lat="42.484495000" lon="-2.502826000">
        <ele>499.00</ele>
        <time>2017-02-11T06:31:52Z</time>
      </trkpt>
      <trkpt lat="42.484496000" lon="-2.502825000">
        <ele>498.90</ele>
        <time>2017-02-11T06:31:53Z</time>
      </trkpt>
      <trkpt lat="42.484498000" lon="-2.502824000">
        <ele>499.00</ele>
        <time>2017-02-11T06:31:54Z</time>
      </trkpt>
      <trkpt lat="42.484499000" lon="-2.502823000">
        <ele>499.00</ele>
        <time>2017-02-11T06:31:55Z</time>
      </trkpt>
      <trkpt lat="42.484498000" lon="-2.502818000">
        <ele>499.10</ele>
        <time>2017-02-11T06:31:56Z</time>
      </trkpt>
      <trkpt lat="42.484499000" lon="-2.502816000">
        <ele>499.10</ele>
        <time>2017-02-11T06:31:58Z</time>
      </trkpt>
      <trkpt lat="42.484499000" lon="-2.502817000">
        <ele>499.10</ele>
        <time>2017-02-11T06:31:59Z</time>
      </trkpt>
      <trkpt lat="42.484501000" lon="-2.502817000">
        <ele>499.20</ele>
        <time>2017-02-11T06:32:00Z</time>
      </trkpt>
      <trkpt lat="42.484500000" lon="-2.502816000">
        <ele>499.20</ele>
        <time>2017-02-11T06:32:01Z</time>
      </trkpt>
      <trkpt lat="42.484499000" lon="-2.502817000">
        <ele>499.20</ele>
        <time>2017-02-11T06:32:02Z</time>
      </trkpt>
      <trkpt lat="42.484498000" lon="-2.502816000">
        <ele>499.20</ele>
        <time>2017-02-11T06:32:03Z</time>
      </trkpt>
      <trkpt lat="42.484499000" lon="-2.502816000">
        <ele>499.40</ele>
        <time>2017-02-11T06:32:04Z</time>
      </trkpt>
      <trkpt lat="42.484501000" lon="-2.502815000">
        <ele>499.50</ele>
        <time>2017-02-11T06:32:05Z</time>
      </trkpt>
      <trkpt lat="42.484499000" lon="-2.502814000">
        <ele>499.60</ele>
        <time>2017-02-11T06:32:06Z</time>
      </trkpt>
      <trkpt lat="42.484501000" lon="-2.502812000">
        <ele>499.70</ele>
        <time>2017-02-11T06:32:07Z</time>
      </trkpt>
      <trkpt lat="42.484504000" lon="-2.502810000">
        <ele>499.80</ele>
        <time>2017-02-11T06:32:08Z</time>
      </trkpt>
      <trkpt lat="42.484507000" lon="-2.502813000">
        <ele>499.80</ele>
        <time>2017-02-11T06:32:09Z</time>
      </trkpt>
      <trkpt lat="42.484508000" lon="-2.502813000">
        <ele>499.90</ele>
        <time>2017-02-11T06:32:10Z</time>
      </trkpt>
      <trkpt lat="42.484510000" lon="-2.502814000">
        <ele>499.90</ele>
        <time>2017-02-11T06:32:11Z</time>
      </trkpt>
      <trkpt lat="42.484513000" lon="-2.502819000">
        <ele>500.00</ele>
        <time>2017-02-11T06:32:12Z</time>
      </trkpt>
      <trkpt lat="42.484510000" lon="-2.502817000">
        <ele>500.00</ele>
        <time>2017-02-11T06:32:13Z</time>
      </trkpt>
      <trkpt lat="42.484508000" lon="-2.502817000">
        <ele>500.00</ele>
        <time>2017-02-11T06:32:14Z</time>
      </trkpt>
      <trkpt lat="42.484506000" lon="-2.502817000">
        <ele>500.10</ele>
        <time>2017-02-11T06:32:15Z</time>
      </trkpt>
      <trkpt lat="42.484506000" lon="-2.502818000">
        <ele>500.10</ele>
        <time>2017-02-11T06:32:16Z</time>
      </trkpt>
      <trkpt lat="42.484502000" lon="-2.502817000">
        <ele>500.10</ele>
        <time>2017-02-11T06:32:17Z</time>
      </trkpt>
      <trkpt lat="42.484501000" lon="-2.502814000">
        <ele>499.90</ele>
        <time>2017-02-11T06:32:18Z</time>
      </trkpt>
      <trkpt lat="42.484499000" lon="-2.502813000">
        <ele>499.80</ele>
        <time>2017-02-11T06:32:19Z</time>
      </trkpt>
      <trkpt lat="42.484502000" lon="-2.502807000">
        <ele>499.70</ele>
        <time>2017-02-11T06:32:20Z</time>
      </trkpt>
      <trkpt lat="42.484506000" lon="-2.502802000">
        <ele>499.70</ele>
        <time>2017-02-11T06:32:21Z</time>
      </trkpt>
      <trkpt lat="42.484507000" lon="-2.502802000">
        <ele>499.70</ele>
        <time>2017-02-11T06:32:22Z</time>
      </trkpt>
      <trkpt lat="42.484508000" lon="-2.502802000">
        <ele>499.70</ele>
        <time>2017-02-11T06:32:23Z</time>
      </trkpt>
      <trkpt lat="42.484509000" lon="-2.502803000">
        <ele>499.70</ele>
        <time>2017-02-11T06:32:24Z</time>
      </trkpt>
      <trkpt lat="42.484508000" lon="-2.502802000">
        <ele>499.80</ele>
        <time>2017-02-11T06:32:25Z</time>
      </trkpt>
      <trkpt lat="42.484507000" lon="-2.502799000">
        <ele>499.80</ele>
        <time>2017-02-11T06:32:26Z</time>
      </trkpt>
      <trkpt lat="42.484507000" lon="-2.502800000">
        <ele>499.80</ele>
        <time>2017-02-11T06:32:27Z</time>
      </trkpt>
      <trkpt lat="42.484509000" lon="-2.502802000">
        <ele>499.80</ele>
        <time>2017-02-11T06:32:28Z</time>
      </trkpt>
      <trkpt lat="42.484508000" lon="-2.502802000">
        <ele>499.80</ele>
        <time>2017-02-11T06:32:29Z</time>
      </trkpt>
      <trkpt lat="42.484507000" lon="-2.502803000">
        <ele>500.00</ele>
        <time>2017-02-11T06:32:30Z</time>
      </trkpt>
      <trkpt lat="42.484507000" lon="-2.502805000">
        <ele>500.10</ele>
        <time>2017-02-11T06:32:31Z</time>
      </trkpt>
      <trkpt lat="42.484506000" lon="-2.502807000">
        <ele>500.20</ele>
        <time>2017-02-11T06:32:32Z</time>
      </trkpt>
      <trkpt lat="42.484504000" lon="-2.502811000">
        <ele>500.20</ele>
        <time>2017-02-11T06:32:33Z</time>
      </trkpt>
      <trkpt lat="42.484504000" lon="-2.502812000">
        <ele>500.30</ele>
        <time>2017-02-11T06:32:34Z</time>
      </trkpt>
      <trkpt lat="42.484505000" lon="-2.502813000">
        <ele>500.30</ele>
        <time>2017-02-11T06:32:35Z</time>
      </trkpt>
      <trkpt lat="42.484505000" lon="-2.502814000">
        <ele>500.10</ele>
        <time>2017-02-11T06:32:36Z</time>
      </trkpt>
      <trkpt lat="42.484507000" lon="-2.502811000">
        <ele>500.00</ele>
        <time>2017-02-11T06:32:37Z</time>
      </trkpt>
      <trkpt lat="42.484508000" lon="-2.502808000">
        <ele>499.90</ele>
        <time>2017-02-11T06:32:38Z</time>
      </trkpt>
      <trkpt lat="42.484503000" lon="-2.502807000">
        <ele>499.70</ele>
        <time>2017-02-11T06:32:39Z</time>
      </trkpt>
      <trkpt lat="42.484504000" lon="-2.502806000">
        <ele>499.70</ele>
        <time>2017-02-11T06:32:40Z</time>
      </trkpt>
      <trkpt lat="42.484504000" lon="-2.502803000">
        <ele>499.70</ele>
        <time>2017-02-11T06:32:41Z</time>
      </trkpt>
      <trkpt lat="42.484506000" lon="-2.502802000">
        <ele>499.70</ele>
        <time>2017-02-11T06:32:42Z</time>
      </trkpt>
      <trkpt lat="42.484510000" lon="-2.502807000">
        <ele>499.80</ele>
        <time>2017-02-11T06:32:43Z</time>
      </trkpt>
      <trkpt lat="42.484512000" lon="-2.502808000">
        <ele>499.80</ele>
        <time>2017-02-11T06:32:44Z</time>
      </trkpt>
      <trkpt lat="42.484511000" lon="-2.502809000">
        <ele>499.80</ele>
        <time>2017-02-11T06:32:45Z</time>
      </trkpt>
      <trkpt lat="42.484511000" lon="-2.502810000">
        <ele>499.80</ele>
        <time>2017-02-11T06:32:46Z</time>
      </trkpt>
      <trkpt lat="42.484510000" lon="-2.502810000">
        <ele>499.90</ele>
        <time>2017-02-11T06:32:47Z</time>
      </trkpt>
      <trkpt lat="42.484509000" lon="-2.502812000">
        <ele>499.90</ele>
        <time>2017-02-11T06:32:48Z</time>
      </trkpt>
      <trkpt lat="42.484509000" lon="-2.502814000">
        <ele>499.90</ele>
        <time>2017-02-11T06:32:49Z</time>
      </trkpt>
      <trkpt lat="42.484510000" lon="-2.502813000">
        <ele>499.90</ele>
        <time>2017-02-11T06:32:50Z</time>
      </trkpt>
      <trkpt lat="42.484512000" lon="-2.502814000">
        <ele>499.90</ele>
        <time>2017-02-11T06:32:51Z</time>
      </trkpt>
      <trkpt lat="42.484515000" lon="-2.502816000">
        <ele>499.90</ele>
        <time>2017-02-11T06:32:52Z</time>
      </trkpt>
      <trkpt lat="42.484513000" lon="-2.502818000">
        <ele>499.90</ele>
        <time>2017-02-11T06:32:53Z</time>
      </trkpt>
      <trkpt lat="42.484510000" lon="-2.502820000">
        <ele>499.90</ele>
        <time>2017-02-11T06:32:54Z</time>
      </trkpt>
      <trkpt lat="42.484509000" lon="-2.502818000">
        <ele>499.90</ele>
        <time>2017-02-11T06:32:55Z</time>
      </trkpt>
      <trkpt lat="42.484509000" lon="-2.502817000">
        <ele>499.90</ele>
        <time>2017-02-11T06:32:56Z</time>
      </trkpt>
      <trkpt lat="42.484509000" lon="-2.502820000">
        <ele>499.90</ele>
        <time>2017-02-11T06:32:57Z</time>
      </trkpt>
      <trkpt lat="42.484514000" lon="-2.502829000">
        <ele>499.70</ele>
        <time>2017-02-11T06:32:59Z</time>
      </trkpt>
      <trkpt lat="42.484516000" lon="-2.502833000">
        <ele>499.70</ele>
        <time>2017-02-11T06:33:00Z</time>
      </trkpt>
      <trkpt lat="42.484514000" lon="-2.502833000">
        <ele>499.70</ele>
        <time>2017-02-11T06:33:01Z</time>
      </trkpt>
      <trkpt lat="42.484515000" lon="-2.502832000">
        <ele>499.70</ele>
        <time>2017-02-11T06:33:02Z</time>
      </trkpt>
      <trkpt lat="42.484516000" lon="-2.502832000">
        <ele>499.80</ele>
        <time>2017-02-11T06:33:03Z</time>
      </trkpt>
      <trkpt lat="42.484517000" lon="-2.502831000">
        <ele>499.80</ele>
        <time>2017-02-11T06:33:04Z</time>
      </trkpt>
      <trkpt lat="42.484517000" lon="-2.502834000">
        <ele>499.80</ele>
        <time>2017-02-11T06:33:05Z</time>
      </trkpt>
      <trkpt lat="42.484517000" lon="-2.502834000">
        <ele>499.80</ele>
        <time>2017-02-11T06:33:06Z</time>
      </trkpt>
      <trkpt lat="42.484520000" lon="-2.502836000">
        <ele>499.80</ele>
        <time>2017-02-11T06:33:07Z</time>
      </trkpt>
      <trkpt lat="42.484518000" lon="-2.502836000">
        <ele>499.80</ele>
        <time>2017-02-11T06:33:08Z</time>
      </trkpt>
      <trkpt lat="42.484519000" lon="-2.502834000">
        <ele>499.80</ele>
        <time>2017-02-11T06:33:09Z</time>
      </trkpt>
      <trkpt lat="42.484521000" lon="-2.502832000">
        <ele>499.80</ele>
        <time>2017-02-11T06:33:10Z</time>
      </trkpt>
      <trkpt lat="42.484520000" lon="-2.502831000">
        <ele>499.80</ele>
        <time>2017-02-11T06:33:11Z</time>
      </trkpt>
      <trkpt lat="42.484519000" lon="-2.502831000">
        <ele>499.90</ele>
        <time>2017-02-11T06:33:12Z</time>
      </trkpt>
      <trkpt lat="42.484516000" lon="-2.502832000">
        <ele>499.90</ele>
        <time>2017-02-11T06:33:13Z</time>
      </trkpt>
      <trkpt lat="42.484513000" lon="-2.502833000">
        <ele>500.00</ele>
        <time>2017-02-11T06:33:14Z</time>
      </trkpt>
      <trkpt lat="42.484512000" lon="-2.502832000">
        <ele>500.00</ele>
        <time>2017-02-11T06:33:15Z</time>
      </trkpt>
      <trkpt lat="42.484509000" lon="-2.502833000">
        <ele>499.90</ele>
        <time>2017-02-11T06:33:16Z</time>
      </trkpt>
      <trkpt lat="42.484503000" lon="-2.502838000">
        <ele>499.90</ele>
        <time>2017-02-11T06:33:17Z</time>
      </trkpt>
      <trkpt lat="42.484500000" lon="-2.502842000">
        <ele>499.80</ele>
        <time>2017-02-11T06:33:18Z</time>
      </trkpt>
      <trkpt lat="42.484500000" lon="-2.502843000">
        <ele>499.70</ele>
        <time>2017-02-11T06:33:19Z</time>
      </trkpt>
      <trkpt lat="42.484498000" lon="-2.502843000">
        <ele>499.70</ele>
        <time>2017-02-11T06:33:20Z</time>
      </trkpt>
      <trkpt lat="42.484497000" lon="-2.502843000">
        <ele>499.70</ele>
        <time>2017-02-11T06:33:21Z</time>
      </trkpt>
      <trkpt lat="42.484494000" lon="-2.502845000">
        <ele>499.60</ele>
        <time>2017-02-11T06:33:22Z</time>
      </trkpt>
      <trkpt lat="42.484495000" lon="-2.502844000">
        <ele>499.60</ele>
        <time>2017-02-11T06:33:23Z</time>
      </trkpt>
      <trkpt lat="42.484495000" lon="-2.502843000">
        <ele>499.60</ele>
        <time>2017-02-11T06:33:24Z</time>
      </trkpt>
      <trkpt lat="42.484495000" lon="-2.502840000">
        <ele>499.60</ele>
        <time>2017-02-11T06:33:25Z</time>
      </trkpt>
      <trkpt lat="42.484497000" lon="-2.502837000">
        <ele>499.60</ele>
        <time>2017-02-11T06:33:26Z</time>
      </trkpt>
      <trkpt lat="42.484498000" lon="-2.502837000">
        <ele>499.60</ele>
        <time>2017-02-11T06:33:27Z</time>
      </trkpt>
      <trkpt lat="42.484500000" lon="-2.502839000">
        <ele>499.60</ele>
        <time>2017-02-11T06:33:28Z</time>
      </trkpt>
      <trkpt lat="42.484499000" lon="-2.502838000">
        <ele>499.60</ele>
        <time>2017-02-11T06:33:29Z</time>
      </trkpt>
      <trkpt lat="42.484497000" lon="-2.502837000">
        <ele>499.60</ele>
        <time>2017-02-11T06:33:30Z</time>
      </trkpt>
      <trkpt lat="42.484494000" lon="-2.502834000">
        <ele>499.70</ele>
        <time>2017-02-11T06:33:31Z</time>
      </trkpt>
      <trkpt lat="42.484491000" lon="-2.502833000">
        <ele>499.70</ele>
        <time>2017-02-11T06:33:32Z</time>
      </trkpt>
      <trkpt lat="42.484488000" lon="-2.502829000">
        <ele>499.70</ele>
        <time>2017-02-11T06:33:33Z</time>
      </trkpt>
      <trkpt lat="42.484485000" lon="-2.502827000">
        <ele>499.80</ele>
        <time>2017-02-11T06:33:34Z</time>
      </trkpt>
      <trkpt lat="42.484484000" lon="-2.502829000">
        <ele>499.90</ele>
        <time>2017-02-11T06:33:35Z</time>
      </trkpt>
      <trkpt lat="42.484482000" lon="-2.502829000">
        <ele>499.90</ele>
        <time>2017-02-11T06:33:36Z</time>
      </trkpt>
      <trkpt lat="42.484485000" lon="-2.502831000">
        <ele>500.00</ele>
        <time>2017-02-11T06:33:37Z</time>
      </trkpt>
      <trkpt lat="42.484485000" lon="-2.502831000">
        <ele>500.00</ele>
        <time>2017-02-11T06:33:38Z</time>
      </trkpt>
      <trkpt lat="42.484484000" lon="-2.502832000">
        <ele>500.00</ele>
        <time>2017-02-11T06:33:39Z</time>
      </trkpt>
      <trkpt lat="42.484485000" lon="-2.502830000">
        <ele>500.00</ele>
        <time>2017-02-11T06:33:40Z</time>
      </trkpt>
      <trkpt lat="42.484487000" lon="-2.502826000">
        <ele>499.90</ele>
        <time>2017-02-11T06:33:41Z</time>
      </trkpt>
      <trkpt lat="42.484491000" lon="-2.502823000">
        <ele>499.90</ele>
        <time>2017-02-11T06:33:42Z</time>
      </trkpt>
      <trkpt lat="42.484496000" lon="-2.502823000">
        <ele>499.90</ele>
        <time>2017-02-11T06:33:43Z</time>
      </trkpt>
      <trkpt lat="42.484499000" lon="-2.502823000">
        <ele>499.90</ele>
        <time>2017-02-11T06:33:44Z</time>
      </trkpt>
      <trkpt lat="42.484503000" lon="-2.502820000">
        <ele>500.00</ele>
        <time>2017-02-11T06:33:45Z</time>
      </trkpt>
      <trkpt lat="42.484501000" lon="-2.502818000">
        <ele>500.00</ele>
        <time>2017-02-11T06:33:46Z</time>
      </trkpt>
      <trkpt lat="42.484501000" lon="-2.502818000">
        <ele>500.00</ele>
        <time>2017-02-11T06:33:47Z</time>
      </trkpt>
      <trkpt lat="42.484499000" lon="-2.502823000">
        <ele>500.00</ele>
        <time>2017-02-11T06:33:48Z</time>
      </trkpt>
      <trkpt lat="42.484500000" lon="-2.502823000">
        <ele>500.00</ele>
        <time>2017-02-11T06:33:49Z</time>
      </trkpt>
      <trkpt lat="42.484498000" lon="-2.502822000">
        <ele>500.00</ele>
        <time>2017-02-11T06:33:50Z</time>
      </trkpt>
      <trkpt lat="42.484499000" lon="-2.502822000">
        <ele>500.00</ele>
        <time>2017-02-11T06:33:51Z</time>
      </trkpt>
      <trkpt lat="42.484500000" lon="-2.502823000">
        <ele>500.10</ele>
        <time>2017-02-11T06:33:52Z</time>
      </trkpt>
      <trkpt lat="42.484500000" lon="-2.502823000">
        <ele>500.10</ele>
        <time>2017-02-11T06:33:53Z</time>
      </trkpt>
      <trkpt lat="42.484499000" lon="-2.502823000">
        <ele>500.10</ele>
        <time>2017-02-11T06:33:54Z</time>
      </trkpt>
      <trkpt lat="42.484512000" lon="-2.502832000">
        <ele>500.20</ele>
        <time>2017-02-11T06:33:55Z</time>
      </trkpt>
      <trkpt lat="42.484528000" lon="-2.502848000">
        <ele>500.20</ele>
        <time>2017-02-11T06:33:56Z</time>
      </trkpt>
      <trkpt lat="42.484539000" lon="-2.502874000">
        <ele>500.10</ele>
        <time>2017-02-11T06:33:57Z</time>
      </trkpt>
      <trkpt lat="42.484544000" lon="-2.502898000">
        <ele>500.00</ele>
        <time>2017-02-11T06:33:58Z</time>
      </trkpt>
      <trkpt lat="42.484555000" lon="-2.502957000">
        <ele>499.80</ele>
        <time>2017-02-11T06:34:00Z</time>
      </trkpt>
      <trkpt lat="42.484564000" lon="-2.502992000">
        <ele>499.70</ele>
        <time>2017-02-11T06:34:01Z</time>
      </trkpt>
      <trkpt lat="42.484573000" lon="-2.503031000">
        <ele>499.70</ele>
        <time>2017-02-11T06:34:02Z</time>
      </trkpt>
      <trkpt lat="42.484583000" lon="-2.503078000">
        <ele>499.60</ele>
        <time>2017-02-11T06:34:03Z</time>
      </trkpt>
      <trkpt lat="42.484591000" lon="-2.503131000">
        <ele>499.60</ele>
        <time>2017-02-11T06:34:04Z</time>
      </trkpt>
      <trkpt lat="42.484603000" lon="-2.503190000">
        <ele>499.60</ele>
        <time>2017-02-11T06:34:05Z</time>
      </trkpt>
      <trkpt lat="42.484612000" lon="-2.503249000">
        <ele>499.30</ele>
        <time>2017-02-11T06:34:06Z</time>
      </trkpt>
      <trkpt lat="42.484616000" lon="-2.503311000">
        <ele>499.20</ele>
        <time>2017-02-11T06:34:07Z</time>
      </trkpt>
      <trkpt lat="42.484619000" lon="-2.503375000">
        <ele>498.90</ele>
        <time>2017-02-11T06:34:08Z</time>
      </trkpt>
      <trkpt lat="42.484616000" lon="-2.503435000">
        <ele>498.70</ele>
        <time>2017-02-11T06:34:09Z</time>
      </trkpt>
      <trkpt lat="42.484613000" lon="-2.503496000">
        <ele>498.40</ele>
        <time>2017-02-11T06:34:10Z</time>
      </trkpt>
      <trkpt lat="42.484606000" lon="-2.503547000">
        <ele>498.20</ele>
        <time>2017-02-11T06:34:11Z</time>
      </trkpt>
      <trkpt lat="42.484600000" lon="-2.503601000">
        <ele>498.00</ele>
        <time>2017-02-11T06:34:12Z</time>
      </trkpt>
      <trkpt lat="42.484592000" lon="-2.503654000">
        <ele>497.90</ele>
        <time>2017-02-11T06:34:13Z</time>
      </trkpt>
      <trkpt lat="42.484587000" lon="-2.503702000">
        <ele>497.80</ele>
        <time>2017-02-11T06:34:14Z</time>
      </trkpt>
      <trkpt lat="42.484574000" lon="-2.503751000">
        <ele>497.70</ele>
        <time>2017-02-11T06:34:15Z</time>
      </trkpt>
      <trkpt lat="42.484570000" lon="-2.503799000">
        <ele>497.80</ele>
        <time>2017-02-11T06:34:16Z</time>
      </trkpt>
      <trkpt lat="42.484572000" lon="-2.503840000">
        <ele>497.90</ele>
        <time>2017-02-11T06:34:17Z</time>
      </trkpt>
      <trkpt lat="42.484573000" lon="-2.503884000">
        <ele>497.80</ele>
        <time>2017-02-11T06:34:18Z</time>
      </trkpt>
      <trkpt lat="42.484576000" lon="-2.503931000">
        <ele>497.70</ele>
        <time>2017-02-11T06:34:19Z</time>
      </trkpt>
      <trkpt lat="42.484583000" lon="-2.503976000">
        <ele>497.60</ele>
        <time>2017-02-11T06:34:20Z</time>
      </trkpt>
      <trkpt lat="42.484590000" lon="-2.504021000">
        <ele>497.50</ele>
        <time>2017-02-11T06:34:21Z</time>
      </trkpt>
      <trkpt lat="42.484597000" lon="-2.504064000">
        <ele>497.40</ele>
        <time>2017-02-11T06:34:22Z</time>
      </trkpt>
      <trkpt lat="42.484603000" lon="-2.504104000">
        <ele>497.30</ele>
        <time>2017-02-11T06:34:23Z</time>
      </trkpt>
      <trkpt lat="42.484612000" lon="-2.504143000">
        <ele>497.30</ele>
        <time>2017-02-11T06:34:24Z</time>
      </trkpt>
      <trkpt lat="42.484618000" lon="-2.504189000">
        <ele>497.20</ele>
        <time>2017-02-11T06:34:25Z</time>
      </trkpt>
      <trkpt lat="42.484627000" lon="-2.504236000">
        <ele>497.40</ele>
        <time>2017-02-11T06:34:26Z</time>
      </trkpt>
      <trkpt lat="42.484639000" lon="-2.504281000">
        <ele>497.50</ele>
        <time>2017-02-11T06:34:27Z</time>
      </trkpt>
      <trkpt lat="42.484650000" lon="-2.504325000">
        <ele>497.60</ele>
        <time>2017-02-11T06:34:28Z</time>
      </trkpt>
      <trkpt lat="42.484663000" lon="-2.504370000">
        <ele>497.70</ele>
        <time>2017-02-11T06:34:29Z</time>
      </trkpt>
      <trkpt lat="42.484677000" lon="-2.504414000">
        <ele>498.10</ele>
        <time>2017-02-11T06:34:30Z</time>
      </trkpt>
      <trkpt lat="42.484694000" lon="-2.504458000">
        <ele>498.30</ele>
        <time>2017-02-11T06:34:31Z</time>
      </trkpt>
      <trkpt lat="42.484711000" lon="-2.504501000">
        <ele>498.50</ele>
        <time>2017-02-11T06:34:32Z</time>
      </trkpt>
      <trkpt lat="42.484734000" lon="-2.504538000">
        <ele>498.70</ele>
        <time>2017-02-11T06:34:33Z</time>
      </trkpt>
      <trkpt lat="42.484759000" lon="-2.504580000">
        <ele>498.60</ele>
        <time>2017-02-11T06:34:34Z</time>
      </trkpt>
      <trkpt lat="42.484779000" lon="-2.504621000">
        <ele>498.50</ele>
        <time>2017-02-11T06:34:35Z</time>
      </trkpt>
      <trkpt lat="42.484805000" lon="-2.504660000">
        <ele>498.50</ele>
        <time>2017-02-11T06:34:36Z</time>
      </trkpt>
      <trkpt lat="42.484832000" lon="-2.504696000">
        <ele>498.40</ele>
        <time>2017-02-11T06:34:37Z</time>
      </trkpt>
      <trkpt lat="42.484860000" lon="-2.504730000">
        <ele>498.60</ele>
        <time>2017-02-11T06:34:38Z</time>
      </trkpt>
      <trkpt lat="42.484887000" lon="-2.504761000">
        <ele>498.70</ele>
        <time>2017-02-11T06:34:39Z</time>
      </trkpt>
      <trkpt lat="42.484911000" lon="-2.504797000">
        <ele>499.00</ele>
        <time>2017-02-11T06:34:40Z</time>
      </trkpt>
      <trkpt lat="42.484940000" lon="-2.504831000">
        <ele>499.10</ele>
        <time>2017-02-11T06:34:41Z</time>
      </trkpt>
      <trkpt lat="42.484970000" lon="-2.504866000">
        <ele>499.40</ele>
        <time>2017-02-11T06:34:42Z</time>
      </trkpt>
      <trkpt lat="42.484993000" lon="-2.504907000">
        <ele>499.60</ele>
        <time>2017-02-11T06:34:43Z</time>
      </trkpt>
      <trkpt lat="42.485015000" lon="-2.504955000">
        <ele>499.70</ele>
        <time>2017-02-11T06:34:44Z</time>
      </trkpt>
      <trkpt lat="42.485040000" lon="-2.505015000">
        <ele>499.80</ele>
        <time>2017-02-11T06:34:45Z</time>
      </trkpt>
      <trkpt lat="42.485062000" lon="-2.505082000">
        <ele>499.90</ele>
        <time>2017-02-11T06:34:46Z</time>
      </trkpt>
      <trkpt lat="42.485077000" lon="-2.505151000">
        <ele>500.00</ele>
        <time>2017-02-11T06:34:47Z</time>
      </trkpt>
      <trkpt lat="42.485089000" lon="-2.505227000">
        <ele>500.00</ele>
        <time>2017-02-11T06:34:48Z</time>
      </trkpt>
      <trkpt lat="42.485098000" lon="-2.505307000">
        <ele>499.90</ele>
        <time>2017-02-11T06:34:49Z</time>
      </trkpt>
      <trkpt lat="42.485105000" lon="-2.505387000">
        <ele>499.70</ele>
        <time>2017-02-11T06:34:50Z</time>
      </trkpt>
      <trkpt lat="42.485107000" lon="-2.505468000">
        <ele>499.50</ele>
        <time>2017-02-11T06:34:51Z</time>
      </trkpt>
      <trkpt lat="42.485107000" lon="-2.505549000">
        <ele>499.10</ele>
        <time>2017-02-11T06:34:52Z</time>
      </trkpt>
      <trkpt lat="42.485112000" lon="-2.505628000">
        <ele>498.80</ele>
        <time>2017-02-11T06:34:53Z</time>
      </trkpt>
      <trkpt lat="42.485116000" lon="-2.505709000">
        <ele>498.50</ele>
        <time>2017-02-11T06:34:54Z</time>
      </trkpt>
      <trkpt lat="42.485121000" lon="-2.505793000">
        <ele>498.30</ele>
        <time>2017-02-11T06:34:55Z</time>
      </trkpt>
      <trkpt lat="42.485129000" lon="-2.505873000">
        <ele>498.00</ele>
        <time>2017-02-11T06:34:56Z</time>
      </trkpt>
      <trkpt lat="42.485139000" lon="-2.505955000">
        <ele>497.80</ele>
        <time>2017-02-11T06:34:57Z</time>
      </trkpt>
      <trkpt lat="42.485153000" lon="-2.506036000">
        <ele>497.70</ele>
        <time>2017-02-11T06:34:58Z</time>
      </trkpt>
      <trkpt lat="42.485163000" lon="-2.506116000">
        <ele>497.60</ele>
        <time>2017-02-11T06:34:59Z</time>
      </trkpt>
      <trkpt lat="42.485182000" lon="-2.506290000">
        <ele>497.50</ele>
        <time>2017-02-11T06:35:01Z</time>
      </trkpt>
      <trkpt lat="42.485189000" lon="-2.506384000">
        <ele>497.30</ele>
        <time>2017-02-11T06:35:02Z</time>
      </trkpt>
      <trkpt lat="42.485195000" lon="-2.506481000">
        <ele>497.20</ele>
        <time>2017-02-11T06:35:03Z</time>
      </trkpt>
      <trkpt lat="42.485204000" lon="-2.506578000">
        <ele>496.40</ele>
        <time>2017-02-11T06:35:04Z</time>
      </trkpt>
      <trkpt lat="42.485212000" lon="-2.506676000">
        <ele>495.80</ele>
        <time>2017-02-11T06:35:05Z</time>
      </trkpt>
      <trkpt lat="42.485220000" lon="-2.506780000">
        <ele>495.30</ele>
        <time>2017-02-11T06:35:06Z</time>
      </trkpt>
      <trkpt lat="42.485225000" lon="-2.506880000">
        <ele>494.90</ele>
        <time>2017-02-11T06:35:07Z</time>
      </trkpt>
      <trkpt lat="42.485234000" lon="-2.506983000">
        <ele>494.50</ele>
        <time>2017-02-11T06:35:08Z</time>
      </trkpt>
      <trkpt lat="42.485243000" lon="-2.507081000">
        <ele>494.20</ele>
        <time>2017-02-11T06:35:09Z</time>
      </trkpt>
      <trkpt lat="42.485252000" lon="-2.507178000">
        <ele>493.70</ele>
        <time>2017-02-11T06:35:10Z</time>
      </trkpt>
      <trkpt lat="42.485265000" lon="-2.507276000">
        <ele>493.40</ele>
        <time>2017-02-11T06:35:11Z</time>
      </trkpt>
      <trkpt lat="42.485289000" lon="-2.507370000">
        <ele>493.00</ele>
        <time>2017-02-11T06:35:12Z</time>
      </trkpt>
      <trkpt lat="42.485311000" lon="-2.507460000">
        <ele>492.70</ele>
        <time>2017-02-11T06:35:13Z</time>
      </trkpt>
      <trkpt lat="42.485330000" lon="-2.507550000">
        <ele>492.50</ele>
        <time>2017-02-11T06:35:14Z</time>
      </trkpt>
      <trkpt lat="42.485350000" lon="-2.507636000">
        <ele>492.30</ele>
        <time>2017-02-11T06:35:15Z</time>
      </trkpt>
      <trkpt lat="42.485377000" lon="-2.507716000">
        <ele>492.20</ele>
        <time>2017-02-11T06:35:16Z</time>
      </trkpt>
      <trkpt lat="42.485409000" lon="-2.507793000">
        <ele>492.10</ele>
        <time>2017-02-11T06:35:17Z</time>
      </trkpt>
      <trkpt lat="42.485435000" lon="-2.507871000">
        <ele>491.90</ele>
        <time>2017-02-11T06:35:18Z</time>
      </trkpt>
      <trkpt lat="42.485457000" lon="-2.507949000">
        <ele>491.80</ele>
        <time>2017-02-11T06:35:19Z</time>
      </trkpt>
      <trkpt lat="42.485482000" lon="-2.508027000">
        <ele>491.50</ele>
        <time>2017-02-11T06:35:20Z</time>
      </trkpt>
      <trkpt lat="42.485514000" lon="-2.508094000">
        <ele>491.40</ele>
        <time>2017-02-11T06:35:21Z</time>
      </trkpt>
      <trkpt lat="42.485552000" lon="-2.508155000">
        <ele>491.20</ele>
        <time>2017-02-11T06:35:22Z</time>
      </trkpt>
      <trkpt lat="42.485592000" lon="-2.508211000">
        <ele>491.10</ele>
        <time>2017-02-11T06:35:23Z</time>
      </trkpt>
      <trkpt lat="42.485626000" lon="-2.508262000">
        <ele>491.00</ele>
        <time>2017-02-11T06:35:24Z</time>
      </trkpt>
      <trkpt lat="42.485663000" lon="-2.508315000">
        <ele>490.90</ele>
        <time>2017-02-11T06:35:25Z</time>
      </trkpt>
      <trkpt lat="42.485698000" lon="-2.508366000">
        <ele>491.00</ele>
        <time>2017-02-11T06:35:26Z</time>
      </trkpt>
      <trkpt lat="42.485729000" lon="-2.508425000">
        <ele>491.10</ele>
        <time>2017-02-11T06:35:27Z</time>
      </trkpt>
      <trkpt lat="42.485755000" lon="-2.508486000">
        <ele>491.20</ele>
        <time>2017-02-11T06:35:28Z</time>
      </trkpt>
      <trkpt lat="42.485765000" lon="-2.508550000">
        <ele>491.20</ele>
        <time>2017-02-11T06:35:29Z</time>
      </trkpt>
      <trkpt lat="42.485779000" lon="-2.508613000">
        <ele>491.20</ele>
        <time>2017-02-11T06:35:30Z</time>
      </trkpt>
      <trkpt lat="42.485792000" lon="-2.508678000">
        <ele>491.30</ele>
        <time>2017-02-11T06:35:31Z</time>
      </trkpt>
      <trkpt lat="42.485805000" lon="-2.508738000">
        <ele>491.20</ele>
        <time>2017-02-11T06:35:32Z</time>
      </trkpt>
      <trkpt lat="42.485823000" lon="-2.508792000">
        <ele>491.20</ele>
        <time>2017-02-11T06:35:33Z</time>
      </trkpt>
      <trkpt lat="42.485843000" lon="-2.508852000">
        <ele>491.10</ele>
        <time>2017-02-11T06:35:34Z</time>
      </trkpt>
      <trkpt lat="42.485858000" lon="-2.508913000">
        <ele>491.00</ele>
        <time>2017-02-11T06:35:35Z</time>
      </trkpt>
      <trkpt lat="42.485878000" lon="-2.508968000">
        <ele>490.90</ele>
        <time>2017-02-11T06:35:36Z</time>
      </trkpt>
      <trkpt lat="42.485902000" lon="-2.509020000">
        <ele>490.80</ele>
        <time>2017-02-11T06:35:37Z</time>
      </trkpt>
      <trkpt lat="42.485931000" lon="-2.509068000">
        <ele>490.80</ele>
        <time>2017-02-11T06:35:38Z</time>
      </trkpt>
      <trkpt lat="42.485961000" lon="-2.509117000">
        <ele>490.70</ele>
        <time>2017-02-11T06:35:39Z</time>
      </trkpt>
      <trkpt lat="42.485990000" lon="-2.509168000">
        <ele>490.70</ele>
        <time>2017-02-11T06:35:40Z</time>
      </trkpt>
      <trkpt lat="42.486025000" lon="-2.509214000">
        <ele>490.60</ele>
        <time>2017-02-11T06:35:41Z</time>
      </trkpt>
      <trkpt lat="42.486062000" lon="-2.509260000">
        <ele>490.90</ele>
        <time>2017-02-11T06:35:42Z</time>
      </trkpt>
      <trkpt lat="42.486096000" lon="-2.509309000">
        <ele>491.10</ele>
        <time>2017-02-11T06:35:43Z</time>
      </trkpt>
      <trkpt lat="42.486120000" lon="-2.509361000">
        <ele>491.50</ele>
        <time>2017-02-11T06:35:44Z</time>
      </trkpt>
      <trkpt lat="42.486138000" lon="-2.509423000">
        <ele>491.80</ele>
        <time>2017-02-11T06:35:45Z</time>
      </trkpt>
      <trkpt lat="42.486142000" lon="-2.509487000">
        <ele>492.00</ele>
        <time>2017-02-11T06:35:46Z</time>
      </trkpt>
      <trkpt lat="42.486133000" lon="-2.509550000">
        <ele>492.10</ele>
        <time>2017-02-11T06:35:47Z</time>
      </trkpt>
      <trkpt lat="42.486116000" lon="-2.509609000">
        <ele>492.40</ele>
        <time>2017-02-11T06:35:48Z</time>
      </trkpt>
      <trkpt lat="42.486097000" lon="-2.509664000">
        <ele>492.60</ele>
        <time>2017-02-11T06:35:49Z</time>
      </trkpt>
      <trkpt lat="42.486083000" lon="-2.509720000">
        <ele>492.80</ele>
        <time>2017-02-11T06:35:50Z</time>
      </trkpt>
      <trkpt lat="42.486071000" lon="-2.509776000">
        <ele>492.90</ele>
        <time>2017-02-11T06:35:51Z</time>
      </trkpt>
      <trkpt lat="42.486058000" lon="-2.509833000">
        <ele>492.70</ele>
        <time>2017-02-11T06:35:52Z</time>
      </trkpt>
      <trkpt lat="42.486050000" lon="-2.509891000">
        <ele>492.60</ele>
        <time>2017-02-11T06:35:53Z</time>
      </trkpt>
      <trkpt lat="42.486046000" lon="-2.509949000">
        <ele>492.60</ele>
        <time>2017-02-11T06:35:54Z</time>
      </trkpt>
      <trkpt lat="42.486044000" lon="-2.510008000">
        <ele>492.50</ele>
        <time>2017-02-11T06:35:55Z</time>
      </trkpt>
      <trkpt lat="42.486043000" lon="-2.510063000">
        <ele>492.60</ele>
        <time>2017-02-11T06:35:56Z</time>
      </trkpt>
      <trkpt lat="42.486043000" lon="-2.510120000">
        <ele>492.60</ele>
        <time>2017-02-11T06:35:57Z</time>
      </trkpt>
      <trkpt lat="42.486045000" lon="-2.510174000">
        <ele>492.80</ele>
        <time>2017-02-11T06:35:58Z</time>
      </trkpt>
      <trkpt lat="42.486050000" lon="-2.510226000">
        <ele>492.90</ele>
        <time>2017-02-11T06:35:59Z</time>
      </trkpt>
      <trkpt lat="42.486058000" lon="-2.510278000">
        <ele>493.00</ele>
        <time>2017-02-11T06:36:00Z</time>
      </trkpt>
      <trkpt lat="42.486054000" lon="-2.510380000">
        <ele>493.20</ele>
        <time>2017-02-11T06:36:02Z</time>
      </trkpt>
      <trkpt lat="42.486058000" lon="-2.510433000">
        <ele>493.40</ele>
        <time>2017-02-11T06:36:03Z</time>
      </trkpt>
      <trkpt lat="42.486056000" lon="-2.510487000">
        <ele>493.50</ele>
        <time>2017-02-11T06:36:04Z</time>
      </trkpt>
      <trkpt lat="42.486053000" lon="-2.510538000">
        <ele>493.60</ele>
        <time>2017-02-11T06:36:05Z</time>
      </trkpt>
      <trkpt lat="42.486052000" lon="-2.510589000">
        <ele>493.80</ele>
        <time>2017-02-11T06:36:06Z</time>
      </trkpt>
      <trkpt lat="42.486054000" lon="-2.510640000">
        <ele>494.00</ele>
        <time>2017-02-11T06:36:07Z</time>
      </trkpt>
      <trkpt lat="42.486063000" lon="-2.510692000">
        <ele>494.10</ele>
        <time>2017-02-11T06:36:08Z</time>
      </trkpt>
      <trkpt lat="42.486074000" lon="-2.510744000">
        <ele>494.20</ele>
        <time>2017-02-11T06:36:09Z</time>
      </trkpt>
      <trkpt lat="42.486095000" lon="-2.510798000">
        <ele>494.30</ele>
        <time>2017-02-11T06:36:10Z</time>
      </trkpt>
      <trkpt lat="42.486120000" lon="-2.510851000">
        <ele>494.30</ele>
        <time>2017-02-11T06:36:11Z</time>
      </trkpt>
      <trkpt lat="42.486149000" lon="-2.510910000">
        <ele>494.40</ele>
        <time>2017-02-11T06:36:12Z</time>
      </trkpt>
      <trkpt lat="42.486183000" lon="-2.510972000">
        <ele>494.40</ele>
        <time>2017-02-11T06:36:13Z</time>
      </trkpt>
      <trkpt lat="42.486222000" lon="-2.511038000">
        <ele>494.30</ele>
        <time>2017-02-11T06:36:14Z</time>
      </trkpt>
      <trkpt lat="42.486266000" lon="-2.511107000">
        <ele>494.20</ele>
        <time>2017-02-11T06:36:15Z</time>
      </trkpt>
      <trkpt lat="42.486308000" lon="-2.511184000">
        <ele>493.90</ele>
        <time>2017-02-11T06:36:16Z</time>
      </trkpt>
      <trkpt lat="42.486350000" lon="-2.511268000">
        <ele>493.70</ele>
        <time>2017-02-11T06:36:17Z</time>
      </trkpt>
      <trkpt lat="42.486400000" lon="-2.511356000">
        <ele>493.40</ele>
        <time>2017-02-11T06:36:18Z</time>
      </trkpt>
      <trkpt lat="42.486450000" lon="-2.511446000">
        <ele>493.10</ele>
        <time>2017-02-11T06:36:19Z</time>
      </trkpt>
      <trkpt lat="42.486498000" lon="-2.511546000">
        <ele>492.90</ele>
        <time>2017-02-11T06:36:20Z</time>
      </trkpt>
      <trkpt lat="42.486538000" lon="-2.511648000">
        <ele>492.70</ele>
        <time>2017-02-11T06:36:21Z</time>
      </trkpt>
      <trkpt lat="42.486573000" lon="-2.511758000">
        <ele>491.60</ele>
        <time>2017-02-11T06:36:22Z</time>
      </trkpt>
      <trkpt lat="42.486596000" lon="-2.511881000">
        <ele>490.80</ele>
        <time>2017-02-11T06:36:23Z</time>
      </trkpt>
      <trkpt lat="42.486607000" lon="-2.512016000">
        <ele>490.10</ele>
        <time>2017-02-11T06:36:24Z</time>
      </trkpt>
      <trkpt lat="42.486600000" lon="-2.512147000">
        <ele>489.50</ele>
        <time>2017-02-11T06:36:25Z</time>
      </trkpt>
      <trkpt lat="42.486589000" lon="-2.512278000">
        <ele>488.30</ele>
        <time>2017-02-11T06:36:26Z</time>
      </trkpt>
      <trkpt lat="42.486585000" lon="-2.512409000">
        <ele>487.40</ele>
        <time>2017-02-11T06:36:27Z</time>
      </trkpt>
      <trkpt lat="42.486597000" lon="-2.512542000">
        <ele>486.10</ele>
        <time>2017-02-11T06:36:28Z</time>
      </trkpt>
      <trkpt lat="42.486622000" lon="-2.512678000">
        <ele>485.10</ele>
        <time>2017-02-11T06:36:29Z</time>
      </trkpt>
      <trkpt lat="42.486660000" lon="-2.512814000">
        <ele>483.80</ele>
        <time>2017-02-11T06:36:30Z</time>
      </trkpt>
      <trkpt lat="42.486706000" lon="-2.512946000">
        <ele>482.90</ele>
        <time>2017-02-11T06:36:31Z</time>
      </trkpt>
      <trkpt lat="42.486746000" lon="-2.513068000">
        <ele>481.90</ele>
        <time>2017-02-11T06:36:32Z</time>
      </trkpt>
      <trkpt lat="42.486774000" lon="-2.513194000">
        <ele>481.10</ele>
        <time>2017-02-11T06:36:33Z</time>
      </trkpt>
      <trkpt lat="42.486785000" lon="-2.513319000">
        <ele>480.20</ele>
        <time>2017-02-11T06:36:34Z</time>
      </trkpt>
      <trkpt lat="42.486781000" lon="-2.513452000">
        <ele>479.60</ele>
        <time>2017-02-11T06:36:35Z</time>
      </trkpt>
      <trkpt lat="42.486774000" lon="-2.513589000">
        <ele>478.40</ele>
        <time>2017-02-11T06:36:36Z</time>
      </trkpt>
      <trkpt lat="42.486764000" lon="-2.513733000">
        <ele>477.50</ele>
        <time>2017-02-11T06:36:37Z</time>
      </trkpt>
      <trkpt lat="42.486748000" lon="-2.513882000">
        <ele>476.70</ele>
        <time>2017-02-11T06:36:38Z</time>
      </trkpt>
      <trkpt lat="42.486724000" lon="-2.514033000">
        <ele>476.10</ele>
        <time>2017-02-11T06:36:39Z</time>
      </trkpt>
      <trkpt lat="42.486695000" lon="-2.514176000">
        <ele>475.10</ele>
        <time>2017-02-11T06:36:40Z</time>
      </trkpt>
      <trkpt lat="42.486672000" lon="-2.514317000">
        <ele>474.20</ele>
        <time>2017-02-11T06:36:41Z</time>
      </trkpt>
      <trkpt lat="42.486654000" lon="-2.514454000">
        <ele>472.90</ele>
        <time>2017-02-11T06:36:42Z</time>
      </trkpt>
      <trkpt lat="42.486642000" lon="-2.514591000">
        <ele>471.90</ele>
        <time>2017-02-11T06:36:43Z</time>
      </trkpt>
      <trkpt lat="42.486637000" lon="-2.514727000">
        <ele>471.00</ele>
        <time>2017-02-11T06:36:44Z</time>
      </trkpt>
      <trkpt lat="42.486644000" lon="-2.514864000">
        <ele>470.40</ele>
        <time>2017-02-11T06:36:45Z</time>
      </trkpt>
      <trkpt lat="42.486659000" lon="-2.515001000">
        <ele>468.90</ele>
        <time>2017-02-11T06:36:46Z</time>
      </trkpt>
      <trkpt lat="42.486680000" lon="-2.515135000">
        <ele>467.70</ele>
        <time>2017-02-11T06:36:47Z</time>
      </trkpt>
      <trkpt lat="42.486702000" lon="-2.515270000">
        <ele>466.50</ele>
        <time>2017-02-11T06:36:48Z</time>
      </trkpt>
      <trkpt lat="42.486715000" lon="-2.515406000">
        <ele>465.70</ele>
        <time>2017-02-11T06:36:49Z</time>
      </trkpt>
      <trkpt lat="42.486728000" lon="-2.515538000">
        <ele>464.70</ele>
        <time>2017-02-11T06:36:50Z</time>
      </trkpt>
      <trkpt lat="42.486743000" lon="-2.515672000">
        <ele>463.90</ele>
        <time>2017-02-11T06:36:51Z</time>
      </trkpt>
      <trkpt lat="42.486768000" lon="-2.515810000">
        <ele>463.00</ele>
        <time>2017-02-11T06:36:52Z</time>
      </trkpt>
      <trkpt lat="42.486798000" lon="-2.515948000">
        <ele>462.30</ele>
        <time>2017-02-11T06:36:53Z</time>
      </trkpt>
      <trkpt lat="42.486834000" lon="-2.516083000">
        <ele>460.90</ele>
        <time>2017-02-11T06:36:54Z</time>
      </trkpt>
      <trkpt lat="42.486876000" lon="-2.516212000">
        <ele>459.80</ele>
        <time>2017-02-11T06:36:55Z</time>
      </trkpt>
      <trkpt lat="42.486925000" lon="-2.516339000">
        <ele>458.60</ele>
        <time>2017-02-11T06:36:56Z</time>
      </trkpt>
      <trkpt lat="42.486978000" lon="-2.516467000">
        <ele>457.80</ele>
        <time>2017-02-11T06:36:57Z</time>
      </trkpt>
      <trkpt lat="42.487031000" lon="-2.516594000">
        <ele>456.80</ele>
        <time>2017-02-11T06:36:58Z</time>
      </trkpt>
      <trkpt lat="42.487086000" lon="-2.516718000">
        <ele>456.10</ele>
        <time>2017-02-11T06:36:59Z</time>
      </trkpt>
      <trkpt lat="42.487143000" lon="-2.516842000">
        <ele>455.40</ele>
        <time>2017-02-11T06:37:00Z</time>
      </trkpt>
      <trkpt lat="42.487201000" lon="-2.516965000">
        <ele>454.90</ele>
        <time>2017-02-11T06:37:01Z</time>
      </trkpt>
      <trkpt lat="42.487321000" lon="-2.517203000">
        <ele>454.20</ele>
        <time>2017-02-11T06:37:03Z</time>
      </trkpt>
      <trkpt lat="42.487384000" lon="-2.517318000">
        <ele>453.20</ele>
        <time>2017-02-11T06:37:04Z</time>
      </trkpt>
      <trkpt lat="42.487449000" lon="-2.517429000">
        <ele>452.50</ele>
        <time>2017-02-11T06:37:05Z</time>
      </trkpt>
      <trkpt lat="42.487518000" lon="-2.517528000">
        <ele>451.50</ele>
        <time>2017-02-11T06:37:06Z</time>
      </trkpt>
      <trkpt lat="42.487593000" lon="-2.517615000">
        <ele>450.70</ele>
        <time>2017-02-11T06:37:07Z</time>
      </trkpt>
      <trkpt lat="42.487671000" lon="-2.517693000">
        <ele>449.50</ele>
        <time>2017-02-11T06:37:08Z</time>
      </trkpt>
      <trkpt lat="42.487754000" lon="-2.517770000">
        <ele>448.50</ele>
        <time>2017-02-11T06:37:09Z</time>
      </trkpt>
      <trkpt lat="42.487840000" lon="-2.517852000">
        <ele>447.50</ele>
        <time>2017-02-11T06:37:10Z</time>
      </trkpt>
      <trkpt lat="42.487922000" lon="-2.517929000">
        <ele>446.70</ele>
        <time>2017-02-11T06:37:11Z</time>
      </trkpt>
      <trkpt lat="42.488004000" lon="-2.517995000">
        <ele>446.10</ele>
        <time>2017-02-11T06:37:12Z</time>
      </trkpt>
      <trkpt lat="42.488084000" lon="-2.518045000">
        <ele>445.70</ele>
        <time>2017-02-11T06:37:13Z</time>
      </trkpt>
      <trkpt lat="42.488170000" lon="-2.518079000">
        <ele>445.10</ele>
        <time>2017-02-11T06:37:14Z</time>
      </trkpt>
      <trkpt lat="42.488256000" lon="-2.518105000">
        <ele>444.70</ele>
        <time>2017-02-11T06:37:15Z</time>
      </trkpt>
      <trkpt lat="42.488346000" lon="-2.518124000">
        <ele>443.80</ele>
        <time>2017-02-11T06:37:16Z</time>
      </trkpt>
      <trkpt lat="42.488439000" lon="-2.518139000">
        <ele>443.10</ele>
        <time>2017-02-11T06:37:17Z</time>
      </trkpt>
      <trkpt lat="42.488533000" lon="-2.518163000">
        <ele>442.30</ele>
        <time>2017-02-11T06:37:18Z</time>
      </trkpt>
      <trkpt lat="42.488626000" lon="-2.518182000">
        <ele>441.70</ele>
        <time>2017-02-11T06:37:19Z</time>
      </trkpt>
      <trkpt lat="42.488719000" lon="-2.518204000">
        <ele>441.00</ele>
        <time>2017-02-11T06:37:20Z</time>
      </trkpt>
      <trkpt lat="42.488813000" lon="-2.518227000">
        <ele>440.40</ele>
        <time>2017-02-11T06:37:21Z</time>
      </trkpt>
      <trkpt lat="42.488904000" lon="-2.518246000">
        <ele>439.90</ele>
        <time>2017-02-11T06:37:22Z</time>
      </trkpt>
      <trkpt lat="42.489000000" lon="-2.518258000">
        <ele>439.50</ele>
        <time>2017-02-11T06:37:23Z</time>
      </trkpt>
      <trkpt lat="42.489095000" lon="-2.518264000">
        <ele>439.00</ele>
        <time>2017-02-11T06:37:24Z</time>
      </trkpt>
      <trkpt lat="42.489191000" lon="-2.518266000">
        <ele>438.60</ele>
        <time>2017-02-11T06:37:25Z</time>
      </trkpt>
      <trkpt lat="42.489287000" lon="-2.518268000">
        <ele>437.50</ele>
        <time>2017-02-11T06:37:26Z</time>
      </trkpt>
      <trkpt lat="42.489379000" lon="-2.518271000">
        <ele>436.70</ele>
        <time>2017-02-11T06:37:27Z</time>
      </trkpt>
      <trkpt lat="42.489469000" lon="-2.518275000">
        <ele>436.10</ele>
        <time>2017-02-11T06:37:28Z</time>
      </trkpt>
      <trkpt lat="42.489558000" lon="-2.518278000">
        <ele>435.70</ele>
        <time>2017-02-11T06:37:29Z</time>
      </trkpt>
      <trkpt lat="42.489644000" lon="-2.518284000">
        <ele>435.20</ele>
        <time>2017-02-11T06:37:30Z</time>
      </trkpt>
      <trkpt lat="42.489734000" lon="-2.518290000">
        <ele>434.90</ele>
        <time>2017-02-11T06:37:31Z</time>
      </trkpt>
      <trkpt lat="42.489825000" lon="-2.518291000">
        <ele>434.30</ele>
        <time>2017-02-11T06:37:32Z</time>
      </trkpt>
      <trkpt lat="42.489917000" lon="-2.518297000">
        <ele>433.90</ele>
        <time>2017-02-11T06:37:33Z</time>
      </trkpt>
      <trkpt lat="42.490003000" lon="-2.518308000">
        <ele>433.30</ele>
        <time>2017-02-11T06:37:34Z</time>
      </trkpt>
      <trkpt lat="42.490089000" lon="-2.518321000">
        <ele>432.90</ele>
        <time>2017-02-11T06:37:35Z</time>
      </trkpt>
      <trkpt lat="42.490170000" lon="-2.518352000">
        <ele>432.60</ele>
        <time>2017-02-11T06:37:36Z</time>
      </trkpt>
      <trkpt lat="42.490244000" lon="-2.518394000">
        <ele>432.30</ele>
        <time>2017-02-11T06:37:37Z</time>
      </trkpt>
      <trkpt lat="42.490313000" lon="-2.518448000">
        <ele>431.80</ele>
        <time>2017-02-11T06:37:38Z</time>
      </trkpt>
      <trkpt lat="42.490383000" lon="-2.518512000">
        <ele>431.30</ele>
        <time>2017-02-11T06:37:39Z</time>
      </trkpt>
      <trkpt lat="42.490451000" lon="-2.518577000">
        <ele>430.50</ele>
        <time>2017-02-11T06:37:40Z</time>
      </trkpt>
      <trkpt lat="42.490517000" lon="-2.518636000">
        <ele>429.90</ele>
        <time>2017-02-11T06:37:41Z</time>
      </trkpt>
      <trkpt lat="42.490589000" lon="-2.518687000">
        <ele>429.30</ele>
        <time>2017-02-11T06:37:42Z</time>
      </trkpt>
      <trkpt lat="42.490661000" lon="-2.518731000">
        <ele>428.90</ele>
        <time>2017-02-11T06:37:43Z</time>
      </trkpt>
      <trkpt lat="42.490735000" lon="-2.518774000">
        <ele>428.40</ele>
        <time>2017-02-11T06:37:44Z</time>
      </trkpt>
      <trkpt lat="42.490806000" lon="-2.518812000">
        <ele>428.00</ele>
        <time>2017-02-11T06:37:45Z</time>
      </trkpt>
      <trkpt lat="42.490868000" lon="-2.518844000">
        <ele>427.30</ele>
        <time>2017-02-11T06:37:46Z</time>
      </trkpt>
      <trkpt lat="42.490928000" lon="-2.518879000">
        <ele>426.70</ele>
        <time>2017-02-11T06:37:47Z</time>
      </trkpt>
      <trkpt lat="42.490982000" lon="-2.518906000">
        <ele>426.30</ele>
        <time>2017-02-11T06:37:48Z</time>
      </trkpt>
      <trkpt lat="42.491026000" lon="-2.518931000">
        <ele>425.90</ele>
        <time>2017-02-11T06:37:49Z</time>
      </trkpt>
      <trkpt lat="42.491065000" lon="-2.518951000">
        <ele>425.60</ele>
        <time>2017-02-11T06:37:50Z</time>
      </trkpt>
      <trkpt lat="42.491094000" lon="-2.518972000">
        <ele>425.40</ele>
        <time>2017-02-11T06:37:51Z</time>
      </trkpt>
      <trkpt lat="42.491120000" lon="-2.518987000">
        <ele>425.30</ele>
        <time>2017-02-11T06:37:52Z</time>
      </trkpt>
      <trkpt lat="42.491146000" lon="-2.518997000">
        <ele>425.20</ele>
        <time>2017-02-11T06:37:53Z</time>
      </trkpt>
      <trkpt lat="42.491169000" lon="-2.519006000">
        <ele>425.00</ele>
        <time>2017-02-11T06:37:54Z</time>
      </trkpt>
      <trkpt lat="42.491187000" lon="-2.519012000">
        <ele>424.90</ele>
        <time>2017-02-11T06:37:55Z</time>
      </trkpt>
      <trkpt lat="42.491203000" lon="-2.519019000">
        <ele>424.80</ele>
        <time>2017-02-11T06:37:56Z</time>
      </trkpt>
      <trkpt lat="42.491216000" lon="-2.519027000">
        <ele>424.70</ele>
        <time>2017-02-11T06:37:57Z</time>
      </trkpt>
      <trkpt lat="42.491223000" lon="-2.519037000">
        <ele>424.60</ele>
        <time>2017-02-11T06:37:58Z</time>
      </trkpt>
      <trkpt lat="42.491229000" lon="-2.519050000">
        <ele>424.50</ele>
        <time>2017-02-11T06:37:59Z</time>
      </trkpt>
      <trkpt lat="42.491236000" lon="-2.519061000">
        <ele>424.50</ele>
        <time>2017-02-11T06:38:00Z</time>
      </trkpt>
      <trkpt lat="42.491242000" lon="-2.519077000">
        <ele>424.60</ele>
        <time>2017-02-11T06:38:01Z</time>
      </trkpt>
      <trkpt lat="42.491249000" lon="-2.519088000">
        <ele>424.70</ele>
        <time>2017-02-11T06:38:02Z</time>
      </trkpt>
      <trkpt lat="42.491271000" lon="-2.519111000">
        <ele>424.90</ele>
        <time>2017-02-11T06:38:04Z</time>
      </trkpt>
      <trkpt lat="42.491286000" lon="-2.519126000">
        <ele>425.10</ele>
        <time>2017-02-11T06:38:05Z</time>
      </trkpt>
      <trkpt lat="42.491298000" lon="-2.519148000">
        <ele>425.10</ele>
        <time>2017-02-11T06:38:06Z</time>
      </trkpt>
      <trkpt lat="42.491316000" lon="-2.519174000">
        <ele>425.20</ele>
        <time>2017-02-11T06:38:07Z</time>
      </trkpt>
      <trkpt lat="42.491325000" lon="-2.519205000">
        <ele>425.30</ele>
        <time>2017-02-11T06:38:08Z</time>
      </trkpt>
      <trkpt lat="42.491328000" lon="-2.519239000">
        <ele>425.30</ele>
        <time>2017-02-11T06:38:09Z</time>
      </trkpt>
      <trkpt lat="42.491325000" lon="-2.519270000">
        <ele>425.20</ele>
        <time>2017-02-11T06:38:10Z</time>
      </trkpt>
      <trkpt lat="42.491322000" lon="-2.519298000">
        <ele>425.20</ele>
        <time>2017-02-11T06:38:11Z</time>
      </trkpt>
      <trkpt lat="42.491319000" lon="-2.519323000">
        <ele>425.10</ele>
        <time>2017-02-11T06:38:12Z</time>
      </trkpt>
      <trkpt lat="42.491316000" lon="-2.519344000">
        <ele>425.00</ele>
        <time>2017-02-11T06:38:13Z</time>
      </trkpt>
      <trkpt lat="42.491311000" lon="-2.519359000">
        <ele>424.90</ele>
        <time>2017-02-11T06:38:14Z</time>
      </trkpt>
      <trkpt lat="42.491309000" lon="-2.519361000">
        <ele>424.90</ele>
        <time>2017-02-11T06:38:15Z</time>
      </trkpt>
      <trkpt lat="42.491308000" lon="-2.519369000">
        <ele>424.90</ele>
        <time>2017-02-11T06:38:16Z</time>
      </trkpt>
      <trkpt lat="42.491306000" lon="-2.519376000">
        <ele>424.90</ele>
        <time>2017-02-11T06:38:17Z</time>
      </trkpt>
      <trkpt lat="42.491304000" lon="-2.519380000">
        <ele>424.90</ele>
        <time>2017-02-11T06:38:18Z</time>
      </trkpt>
      <trkpt lat="42.491302000" lon="-2.519383000">
        <ele>425.00</ele>
        <time>2017-02-11T06:38:19Z</time>
      </trkpt>
      <trkpt lat="42.491300000" lon="-2.519385000">
        <ele>425.00</ele>
        <time>2017-02-11T06:38:20Z</time>
      </trkpt>
      <trkpt lat="42.491299000" lon="-2.519386000">
        <ele>425.00</ele>
        <time>2017-02-11T06:38:21Z</time>
      </trkpt>
      <trkpt lat="42.491297000" lon="-2.519387000">
        <ele>425.00</ele>
        <time>2017-02-11T06:38:22Z</time>
      </trkpt>
      <trkpt lat="42.491295000" lon="-2.519388000">
        <ele>425.00</ele>
        <time>2017-02-11T06:38:23Z</time>
      </trkpt>
      <trkpt lat="42.491293000" lon="-2.519392000">
        <ele>425.00</ele>
        <time>2017-02-11T06:38:24Z</time>
      </trkpt>
      <trkpt lat="42.491284000" lon="-2.519395000">
        <ele>425.00</ele>
        <time>2017-02-11T06:38:25Z</time>
      </trkpt>
      <trkpt lat="42.491285000" lon="-2.519393000">
        <ele>424.90</ele>
        <time>2017-02-11T06:38:26Z</time>
      </trkpt>
      <trkpt lat="42.491284000" lon="-2.519393000">
        <ele>424.80</ele>
        <time>2017-02-11T06:38:27Z</time>
      </trkpt>
      <trkpt lat="42.491282000" lon="-2.519393000">
        <ele>424.70</ele>
        <time>2017-02-11T06:38:28Z</time>
      </trkpt>
      <trkpt lat="42.491280000" lon="-2.519396000">
        <ele>424.60</ele>
        <time>2017-02-11T06:38:29Z</time>
      </trkpt>
      <trkpt lat="42.491277000" lon="-2.519398000">
        <ele>424.50</ele>
        <time>2017-02-11T06:38:30Z</time>
      </trkpt>
      <trkpt lat="42.491275000" lon="-2.519400000">
        <ele>424.50</ele>
        <time>2017-02-11T06:38:31Z</time>
      </trkpt>
      <trkpt lat="42.491273000" lon="-2.519401000">
        <ele>424.60</ele>
        <time>2017-02-11T06:38:32Z</time>
      </trkpt>
      <trkpt lat="42.491272000" lon="-2.519402000">
        <ele>424.80</ele>
        <time>2017-02-11T06:38:33Z</time>
      </trkpt>
      <trkpt lat="42.491270000" lon="-2.519402000">
        <ele>424.90</ele>
        <time>2017-02-11T06:38:34Z</time>
      </trkpt>
      <trkpt lat="42.491269000" lon="-2.519402000">
        <ele>424.90</ele>
        <time>2017-02-11T06:38:35Z</time>
      </trkpt>
      <trkpt lat="42.491269000" lon="-2.519401000">
        <ele>424.90</ele>
        <time>2017-02-11T06:38:36Z</time>
      </trkpt>
      <trkpt lat="42.491269000" lon="-2.519401000">
        <ele>424.90</ele>
        <time>2017-02-11T06:38:37Z</time>
      </trkpt>
      <trkpt lat="42.491269000" lon="-2.519399000">
        <ele>424.80</ele>
        <time>2017-02-11T06:38:38Z</time>
      </trkpt>
      <trkpt lat="42.491267000" lon="-2.519399000">
        <ele>424.80</ele>
        <time>2017-02-11T06:38:39Z</time>
      </trkpt>
      <trkpt lat="42.491261000" lon="-2.519402000">
        <ele>424.80</ele>
        <time>2017-02-11T06:38:40Z</time>
      </trkpt>
      <trkpt lat="42.491252000" lon="-2.519404000">
        <ele>424.80</ele>
        <time>2017-02-11T06:38:41Z</time>
      </trkpt>
      <trkpt lat="42.491244000" lon="-2.519401000">
        <ele>424.80</ele>
        <time>2017-02-11T06:38:42Z</time>
      </trkpt>
      <trkpt lat="42.491238000" lon="-2.519399000">
        <ele>424.80</ele>
        <time>2017-02-11T06:38:43Z</time>
      </trkpt>
      <trkpt lat="42.491227000" lon="-2.519394000">
        <ele>424.80</ele>
        <time>2017-02-11T06:38:44Z</time>
      </trkpt>
      <trkpt lat="42.491221000" lon="-2.519387000">
        <ele>424.90</ele>
        <time>2017-02-11T06:38:45Z</time>
      </trkpt>
      <trkpt lat="42.491209000" lon="-2.519386000">
        <ele>424.80</ele>
        <time>2017-02-11T06:38:46Z</time>
      </trkpt>
      <trkpt lat="42.491199000" lon="-2.519384000">
        <ele>424.80</ele>
        <time>2017-02-11T06:38:47Z</time>
      </trkpt>
      <trkpt lat="42.491193000" lon="-2.519382000">
        <ele>424.80</ele>
        <time>2017-02-11T06:38:48Z</time>
      </trkpt>
      <trkpt lat="42.491178000" lon="-2.519383000">
        <ele>424.80</ele>
        <time>2017-02-11T06:38:49Z</time>
      </trkpt>
      <trkpt lat="42.491166000" lon="-2.519383000">
        <ele>424.80</ele>
        <time>2017-02-11T06:38:50Z</time>
      </trkpt>
      <trkpt lat="42.491151000" lon="-2.519382000">
        <ele>424.80</ele>
        <time>2017-02-11T06:38:51Z</time>
      </trkpt>
      <trkpt lat="42.491132000" lon="-2.519380000">
        <ele>424.70</ele>
        <time>2017-02-11T06:38:52Z</time>
      </trkpt>
      <trkpt lat="42.491114000" lon="-2.519380000">
        <ele>424.70</ele>
        <time>2017-02-11T06:38:53Z</time>
      </trkpt>
      <trkpt lat="42.491090000" lon="-2.519384000">
        <ele>424.70</ele>
        <time>2017-02-11T06:38:54Z</time>
      </trkpt>
      <trkpt lat="42.491066000" lon="-2.519391000">
        <ele>424.60</ele>
        <time>2017-02-11T06:38:55Z</time>
      </trkpt>
      <trkpt lat="42.491041000" lon="-2.519399000">
        <ele>424.60</ele>
        <time>2017-02-11T06:38:56Z</time>
      </trkpt>
      <trkpt lat="42.491014000" lon="-2.519410000">
        <ele>424.60</ele>
        <time>2017-02-11T06:38:57Z</time>
      </trkpt>
      <trkpt lat="42.490987000" lon="-2.519413000">
        <ele>424.80</ele>
        <time>2017-02-11T06:38:58Z</time>
      </trkpt>
      <trkpt lat="42.490959000" lon="-2.519415000">
        <ele>424.90</ele>
        <time>2017-02-11T06:38:59Z</time>
      </trkpt>
      <trkpt lat="42.490935000" lon="-2.519421000">
        <ele>425.10</ele>
        <time>2017-02-11T06:39:00Z</time>
      </trkpt>
      <trkpt lat="42.490911000" lon="-2.519428000">
        <ele>425.20</ele>
        <time>2017-02-11T06:39:01Z</time>
      </trkpt>
      <trkpt lat="42.490887000" lon="-2.519436000">
        <ele>425.20</ele>
        <time>2017-02-11T06:39:02Z</time>
      </trkpt>
      <trkpt lat="42.490860000" lon="-2.519443000">
        <ele>425.30</ele>
        <time>2017-02-11T06:39:03Z</time>
      </trkpt>
      <trkpt lat="42.490804000" lon="-2.519449000">
        <ele>425.30</ele>
        <time>2017-02-11T06:39:05Z</time>
      </trkpt>
      <trkpt lat="42.490773000" lon="-2.519450000">
        <ele>425.40</ele>
        <time>2017-02-11T06:39:06Z</time>
      </trkpt>
      <trkpt lat="42.490741000" lon="-2.519454000">
        <ele>425.40</ele>
        <time>2017-02-11T06:39:07Z</time>
      </trkpt>
      <trkpt lat="42.490709000" lon="-2.519463000">
        <ele>425.40</ele>
        <time>2017-02-11T06:39:08Z</time>
      </trkpt>
      <trkpt lat="42.490678000" lon="-2.519473000">
        <ele>425.40</ele>
        <time>2017-02-11T06:39:09Z</time>
      </trkpt>
      <trkpt lat="42.490647000" lon="-2.519483000">
        <ele>425.50</ele>
        <time>2017-02-11T06:39:10Z</time>
      </trkpt>
      <trkpt lat="42.490617000" lon="-2.519495000">
        <ele>425.50</ele>
        <time>2017-02-11T06:39:11Z</time>
      </trkpt>
      <trkpt lat="42.490587000" lon="-2.519508000">
        <ele>425.60</ele>
        <time>2017-02-11T06:39:12Z</time>
      </trkpt>
      <trkpt lat="42.490555000" lon="-2.519518000">
        <ele>425.60</ele>
        <time>2017-02-11T06:39:13Z</time>
      </trkpt>
      <trkpt lat="42.490524000" lon="-2.519530000">
        <ele>425.60</ele>
        <time>2017-02-11T06:39:14Z</time>
      </trkpt>
      <trkpt lat="42.490492000" lon="-2.519541000">
        <ele>425.50</ele>
        <time>2017-02-11T06:39:15Z</time>
      </trkpt>
      <trkpt lat="42.490463000" lon="-2.519555000">
        <ele>425.50</ele>
        <time>2017-02-11T06:39:16Z</time>
      </trkpt>
      <trkpt lat="42.490436000" lon="-2.519570000">
        <ele>425.50</ele>
        <time>2017-02-11T06:39:17Z</time>
      </trkpt>
      <trkpt lat="42.490408000" lon="-2.519593000">
        <ele>425.60</ele>
        <time>2017-02-11T06:39:18Z</time>
      </trkpt>
      <trkpt lat="42.490380000" lon="-2.519606000">
        <ele>425.80</ele>
        <time>2017-02-11T06:39:19Z</time>
      </trkpt>
      <trkpt lat="42.490351000" lon="-2.519619000">
        <ele>426.00</ele>
        <time>2017-02-11T06:39:20Z</time>
      </trkpt>
      <trkpt lat="42.490321000" lon="-2.519628000">
        <ele>426.30</ele>
        <time>2017-02-11T06:39:21Z</time>
      </trkpt>
      <trkpt lat="42.490291000" lon="-2.519636000">
        <ele>426.40</ele>
        <time>2017-02-11T06:39:22Z</time>
      </trkpt>
      <trkpt lat="42.490262000" lon="-2.519639000">
        <ele>426.50</ele>
        <time>2017-02-11T06:39:23Z</time>
      </trkpt>
      <trkpt lat="42.490234000" lon="-2.519643000">
        <ele>426.80</ele>
        <time>2017-02-11T06:39:24Z</time>
      </trkpt>
      <trkpt lat="42.490208000" lon="-2.519650000">
        <ele>427.00</ele>
        <time>2017-02-11T06:39:25Z</time>
      </trkpt>
      <trkpt lat="42.490181000" lon="-2.519652000">
        <ele>427.20</ele>
        <time>2017-02-11T06:39:26Z</time>
      </trkpt>
      <trkpt lat="42.490154000" lon="-2.519651000">
        <ele>427.30</ele>
        <time>2017-02-11T06:39:27Z</time>
      </trkpt>
      <trkpt lat="42.490128000" lon="-2.519659000">
        <ele>427.40</ele>
        <time>2017-02-11T06:39:28Z</time>
      </trkpt>
      <trkpt lat="42.490098000" lon="-2.519663000">
        <ele>427.50</ele>
        <time>2017-02-11T06:39:29Z</time>
      </trkpt>
      <trkpt lat="42.490069000" lon="-2.519665000">
        <ele>427.80</ele>
        <time>2017-02-11T06:39:30Z</time>
      </trkpt>
      <trkpt lat="42.490040000" lon="-2.519666000">
        <ele>428.00</ele>
        <time>2017-02-11T06:39:31Z</time>
      </trkpt>
      <trkpt lat="42.490009000" lon="-2.519666000">
        <ele>428.10</ele>
        <time>2017-02-11T06:39:32Z</time>
      </trkpt>
      <trkpt lat="42.489978000" lon="-2.519669000">
        <ele>428.30</ele>
        <time>2017-02-11T06:39:33Z</time>
      </trkpt>
      <trkpt lat="42.489948000" lon="-2.519674000">
        <ele>428.40</ele>
        <time>2017-02-11T06:39:34Z</time>
      </trkpt>
      <trkpt lat="42.489918000" lon="-2.519679000">
        <ele>428.40</ele>
        <time>2017-02-11T06:39:35Z</time>
      </trkpt>
      <trkpt lat="42.489888000" lon="-2.519685000">
        <ele>428.50</ele>
        <time>2017-02-11T06:39:36Z</time>
      </trkpt>
      <trkpt lat="42.489858000" lon="-2.519685000">
        <ele>428.60</ele>
        <time>2017-02-11T06:39:37Z</time>
      </trkpt>
      <trkpt lat="42.489827000" lon="-2.519685000">
        <ele>428.80</ele>
        <time>2017-02-11T06:39:38Z</time>
      </trkpt>
      <trkpt lat="42.489797000" lon="-2.519679000">
        <ele>428.90</ele>
        <time>2017-02-11T06:39:39Z</time>
      </trkpt>
      <trkpt lat="42.489765000" lon="-2.519674000">
        <ele>428.90</ele>
        <time>2017-02-11T06:39:40Z</time>
      </trkpt>
      <trkpt lat="42.489731000" lon="-2.519670000">
        <ele>429.00</ele>
        <time>2017-02-11T06:39:41Z</time>
      </trkpt>
      <trkpt lat="42.489696000" lon="-2.519676000">
        <ele>429.00</ele>
        <time>2017-02-11T06:39:42Z</time>
      </trkpt>
      <trkpt lat="42.489661000" lon="-2.519682000">
        <ele>428.90</ele>
        <time>2017-02-11T06:39:43Z</time>
      </trkpt>
      <trkpt lat="42.489626000" lon="-2.519687000">
        <ele>428.90</ele>
        <time>2017-02-11T06:39:44Z</time>
      </trkpt>
      <trkpt lat="42.489590000" lon="-2.519697000">
        <ele>428.90</ele>
        <time>2017-02-11T06:39:45Z</time>
      </trkpt>
      <trkpt lat="42.489552000" lon="-2.519706000">
        <ele>428.90</ele>
        <time>2017-02-11T06:39:46Z</time>
      </trkpt>
      <trkpt lat="42.489514000" lon="-2.519717000">
        <ele>428.90</ele>
        <time>2017-02-11T06:39:47Z</time>
      </trkpt>
      <trkpt lat="42.489475000" lon="-2.519727000">
        <ele>428.90</ele>
        <time>2017-02-11T06:39:48Z</time>
      </trkpt>
      <trkpt lat="42.489434000" lon="-2.519738000">
        <ele>428.90</ele>
        <time>2017-02-11T06:39:49Z</time>
      </trkpt>
      <trkpt lat="42.489396000" lon="-2.519747000">
        <ele>428.90</ele>
        <time>2017-02-11T06:39:50Z</time>
      </trkpt>
      <trkpt lat="42.489357000" lon="-2.519757000">
        <ele>428.90</ele>
        <time>2017-02-11T06:39:51Z</time>
      </trkpt>
      <trkpt lat="42.489320000" lon="-2.519770000">
        <ele>428.90</ele>
        <time>2017-02-11T06:39:52Z</time>
      </trkpt>
      <trkpt lat="42.489279000" lon="-2.519780000">
        <ele>428.90</ele>
        <time>2017-02-11T06:39:53Z</time>
      </trkpt>
      <trkpt lat="42.489238000" lon="-2.519788000">
        <ele>428.90</ele>
        <time>2017-02-11T06:39:54Z</time>
      </trkpt>
      <trkpt lat="42.489198000" lon="-2.519800000">
        <ele>428.90</ele>
        <time>2017-02-11T06:39:55Z</time>
      </trkpt>
      <trkpt lat="42.489159000" lon="-2.519809000">
        <ele>428.90</ele>
        <time>2017-02-11T06:39:56Z</time>
      </trkpt>
      <trkpt lat="42.489119000" lon="-2.519820000">
        <ele>429.00</ele>
        <time>2017-02-11T06:39:57Z</time>
      </trkpt>
      <trkpt lat="42.489081000" lon="-2.519832000">
        <ele>429.10</ele>
        <time>2017-02-11T06:39:58Z</time>
      </trkpt>
      <trkpt lat="42.489044000" lon="-2.519844000">
        <ele>429.10</ele>
        <time>2017-02-11T06:39:59Z</time>
      </trkpt>
      <trkpt lat="42.489008000" lon="-2.519858000">
        <ele>429.20</ele>
        <time>2017-02-11T06:40:00Z</time>
      </trkpt>
      <trkpt lat="42.488969000" lon="-2.519871000">
        <ele>429.30</ele>
        <time>2017-02-11T06:40:01Z</time>
      </trkpt>
      <trkpt lat="42.488936000" lon="-2.519881000">
        <ele>429.50</ele>
        <time>2017-02-11T06:40:02Z</time>
      </trkpt>
      <trkpt lat="42.488898000" lon="-2.519896000">
        <ele>429.60</ele>
        <time>2017-02-11T06:40:03Z</time>
      </trkpt>
      <trkpt lat="42.488859000" lon="-2.519906000">
        <ele>429.60</ele>
        <time>2017-02-11T06:40:04Z</time>
      </trkpt>
      <trkpt lat="42.488782000" lon="-2.519937000">
        <ele>429.90</ele>
        <time>2017-02-11T06:40:06Z</time>
      </trkpt>
      <trkpt lat="42.488743000" lon="-2.519955000">
        <ele>430.00</ele>
        <time>2017-02-11T06:40:07Z</time>
      </trkpt>
      <trkpt lat="42.488710000" lon="-2.519973000">
        <ele>430.10</ele>
        <time>2017-02-11T06:40:08Z</time>
      </trkpt>
      <trkpt lat="42.488679000" lon="-2.519999000">
        <ele>430.20</ele>
        <time>2017-02-11T06:40:09Z</time>
      </trkpt>
      <trkpt lat="42.488647000" lon="-2.520022000">
        <ele>430.10</ele>
        <time>2017-02-11T06:40:10Z</time>
      </trkpt>
      <trkpt lat="42.488615000" lon="-2.520045000">
        <ele>430.10</ele>
        <time>2017-02-11T06:40:11Z</time>
      </trkpt>
      <trkpt lat="42.488583000" lon="-2.520072000">
        <ele>430.10</ele>
        <time>2017-02-11T06:40:12Z</time>
      </trkpt>
      <trkpt lat="42.488552000" lon="-2.520095000">
        <ele>430.00</ele>
        <time>2017-02-11T06:40:13Z</time>
      </trkpt>
      <trkpt lat="42.488518000" lon="-2.520118000">
        <ele>429.80</ele>
        <time>2017-02-11T06:40:14Z</time>
      </trkpt>
      <trkpt lat="42.488489000" lon="-2.520141000">
        <ele>429.70</ele>
        <time>2017-02-11T06:40:15Z</time>
      </trkpt>
      <trkpt lat="42.488458000" lon="-2.520164000">
        <ele>429.60</ele>
        <time>2017-02-11T06:40:16Z</time>
      </trkpt>
      <trkpt lat="42.488429000" lon="-2.520184000">
        <ele>429.50</ele>
        <time>2017-02-11T06:40:17Z</time>
      </trkpt>
      <trkpt lat="42.488397000" lon="-2.520200000">
        <ele>429.50</ele>
        <time>2017-02-11T06:40:18Z</time>
      </trkpt>
      <trkpt lat="42.488369000" lon="-2.520218000">
        <ele>429.40</ele>
        <time>2017-02-11T06:40:19Z</time>
      </trkpt>
      <trkpt lat="42.488342000" lon="-2.520233000">
        <ele>429.70</ele>
        <time>2017-02-11T06:40:20Z</time>
      </trkpt>
      <trkpt lat="42.488310000" lon="-2.520250000">
        <ele>430.00</ele>
        <time>2017-02-11T06:40:21Z</time>
      </trkpt>
      <trkpt lat="42.488278000" lon="-2.520264000">
        <ele>430.20</ele>
        <time>2017-02-11T06:40:22Z</time>
      </trkpt>
      <trkpt lat="42.488251000" lon="-2.520278000">
        <ele>430.40</ele>
        <time>2017-02-11T06:40:23Z</time>
      </trkpt>
      <trkpt lat="42.488225000" lon="-2.520292000">
        <ele>430.60</ele>
        <time>2017-02-11T06:40:24Z</time>
      </trkpt>
      <trkpt lat="42.488198000" lon="-2.520304000">
        <ele>430.70</ele>
        <time>2017-02-11T06:40:25Z</time>
      </trkpt>
      <trkpt lat="42.488171000" lon="-2.520321000">
        <ele>430.80</ele>
        <time>2017-02-11T06:40:26Z</time>
      </trkpt>
      <trkpt lat="42.488145000" lon="-2.520338000">
        <ele>430.90</ele>
        <time>2017-02-11T06:40:27Z</time>
      </trkpt>
      <trkpt lat="42.488120000" lon="-2.520357000">
        <ele>431.10</ele>
        <time>2017-02-11T06:40:28Z</time>
      </trkpt>
      <trkpt lat="42.488093000" lon="-2.520381000">
        <ele>431.30</ele>
        <time>2017-02-11T06:40:29Z</time>
      </trkpt>
      <trkpt lat="42.488068000" lon="-2.520403000">
        <ele>431.40</ele>
        <time>2017-02-11T06:40:30Z</time>
      </trkpt>
      <trkpt lat="42.488041000" lon="-2.520426000">
        <ele>431.50</ele>
        <time>2017-02-11T06:40:31Z</time>
      </trkpt>
      <trkpt lat="42.488013000" lon="-2.520450000">
        <ele>431.60</ele>
        <time>2017-02-11T06:40:32Z</time>
      </trkpt>
      <trkpt lat="42.487987000" lon="-2.520475000">
        <ele>431.70</ele>
        <time>2017-02-11T06:40:33Z</time>
      </trkpt>
      <trkpt lat="42.487960000" lon="-2.520501000">
        <ele>431.90</ele>
        <time>2017-02-11T06:40:34Z</time>
      </trkpt>
      <trkpt lat="42.487933000" lon="-2.520526000">
        <ele>432.10</ele>
        <time>2017-02-11T06:40:35Z</time>
      </trkpt>
      <trkpt lat="42.487903000" lon="-2.520544000">
        <ele>432.30</ele>
        <time>2017-02-11T06:40:36Z</time>
      </trkpt>
      <trkpt lat="42.487870000" lon="-2.520568000">
        <ele>432.40</ele>
        <time>2017-02-11T06:40:37Z</time>
      </trkpt>
      <trkpt lat="42.487839000" lon="-2.520590000">
        <ele>432.50</ele>
        <time>2017-02-11T06:40:38Z</time>
      </trkpt>
      <trkpt lat="42.487809000" lon="-2.520608000">
        <ele>432.60</ele>
        <time>2017-02-11T06:40:39Z</time>
      </trkpt>
      <trkpt lat="42.487776000" lon="-2.520626000">
        <ele>432.50</ele>
        <time>2017-02-11T06:40:40Z</time>
      </trkpt>
      <trkpt lat="42.487742000" lon="-2.520644000">
        <ele>432.40</ele>
        <time>2017-02-11T06:40:41Z</time>
      </trkpt>
      <trkpt lat="42.487709000" lon="-2.520662000">
        <ele>432.30</ele>
        <time>2017-02-11T06:40:42Z</time>
      </trkpt>
      <trkpt lat="42.487673000" lon="-2.520680000">
        <ele>432.30</ele>
        <time>2017-02-11T06:40:43Z</time>
      </trkpt>
      <trkpt lat="42.487639000" lon="-2.520696000">
        <ele>432.40</ele>
        <time>2017-02-11T06:40:44Z</time>
      </trkpt>
      <trkpt lat="42.487600000" lon="-2.520709000">
        <ele>432.40</ele>
        <time>2017-02-11T06:40:45Z</time>
      </trkpt>
      <trkpt lat="42.487562000" lon="-2.520724000">
        <ele>432.50</ele>
        <time>2017-02-11T06:40:46Z</time>
      </trkpt>
      <trkpt lat="42.487529000" lon="-2.520741000">
        <ele>432.60</ele>
        <time>2017-02-11T06:40:47Z</time>
      </trkpt>
      <trkpt lat="42.487493000" lon="-2.520762000">
        <ele>432.70</ele>
        <time>2017-02-11T06:40:48Z</time>
      </trkpt>
      <trkpt lat="42.487457000" lon="-2.520782000">
        <ele>432.70</ele>
        <time>2017-02-11T06:40:49Z</time>
      </trkpt>
      <trkpt lat="42.487422000" lon="-2.520804000">
        <ele>432.80</ele>
        <time>2017-02-11T06:40:50Z</time>
      </trkpt>
      <trkpt lat="42.487386000" lon="-2.520826000">
        <ele>432.80</ele>
        <time>2017-02-11T06:40:51Z</time>
      </trkpt>
      <trkpt lat="42.487352000" lon="-2.520851000">
        <ele>432.80</ele>
        <time>2017-02-11T06:40:52Z</time>
      </trkpt>
      <trkpt lat="42.487318000" lon="-2.520875000">
        <ele>432.70</ele>
        <time>2017-02-11T06:40:53Z</time>
      </trkpt>
      <trkpt lat="42.487287000" lon="-2.520895000">
        <ele>432.80</ele>
        <time>2017-02-11T06:40:54Z</time>
      </trkpt>
      <trkpt lat="42.487250000" lon="-2.520918000">
        <ele>432.80</ele>
        <time>2017-02-11T06:40:55Z</time>
      </trkpt>
      <trkpt lat="42.487211000" lon="-2.520933000">
        <ele>432.80</ele>
        <time>2017-02-11T06:40:56Z</time>
      </trkpt>
      <trkpt lat="42.487173000" lon="-2.520953000">
        <ele>432.80</ele>
        <time>2017-02-11T06:40:57Z</time>
      </trkpt>
      <trkpt lat="42.487134000" lon="-2.520970000">
        <ele>433.10</ele>
        <time>2017-02-11T06:40:58Z</time>
      </trkpt>
      <trkpt lat="42.487095000" lon="-2.520988000">
        <ele>433.30</ele>
        <time>2017-02-11T06:40:59Z</time>
      </trkpt>
      <trkpt lat="42.487056000" lon="-2.521002000">
        <ele>433.50</ele>
        <time>2017-02-11T06:41:00Z</time>
      </trkpt>
      <trkpt lat="42.487014000" lon="-2.521018000">
        <ele>433.60</ele>
        <time>2017-02-11T06:41:01Z</time>
      </trkpt>
      <trkpt lat="42.486974000" lon="-2.521033000">
        <ele>433.70</ele>
        <time>2017-02-11T06:41:02Z</time>
      </trkpt>
      <trkpt lat="42.486936000" lon="-2.521046000">
        <ele>433.70</ele>
        <time>2017-02-11T06:41:03Z</time>
      </trkpt>
      <trkpt lat="42.486897000" lon="-2.521059000">
        <ele>433.70</ele>
        <time>2017-02-11T06:41:04Z</time>
      </trkpt>
      <trkpt lat="42.486858000" lon="-2.521067000">
        <ele>433.70</ele>
        <time>2017-02-11T06:41:05Z</time>
      </trkpt>
      <trkpt lat="42.486783000" lon="-2.521083000">
        <ele>433.70</ele>
        <time>2017-02-11T06:41:07Z</time>
      </trkpt>
      <trkpt lat="42.486744000" lon="-2.521089000">
        <ele>433.70</ele>
        <time>2017-02-11T06:41:08Z</time>
      </trkpt>
      <trkpt lat="42.486707000" lon="-2.521097000">
        <ele>433.70</ele>
        <time>2017-02-11T06:41:09Z</time>
      </trkpt>
      <trkpt lat="42.486669000" lon="-2.521103000">
        <ele>433.70</ele>
        <time>2017-02-11T06:41:10Z</time>
      </trkpt>
      <trkpt lat="42.486632000" lon="-2.521105000">
        <ele>433.70</ele>
        <time>2017-02-11T06:41:11Z</time>
      </trkpt>
      <trkpt lat="42.486592000" lon="-2.521103000">
        <ele>433.80</ele>
        <time>2017-02-11T06:41:12Z</time>
      </trkpt>
      <trkpt lat="42.486555000" lon="-2.521102000">
        <ele>433.80</ele>
        <time>2017-02-11T06:41:13Z</time>
      </trkpt>
      <trkpt lat="42.486517000" lon="-2.521104000">
        <ele>433.70</ele>
        <time>2017-02-11T06:41:14Z</time>
      </trkpt>
      <trkpt lat="42.486476000" lon="-2.521106000">
        <ele>433.60</ele>
        <time>2017-02-11T06:41:15Z</time>
      </trkpt>
      <trkpt lat="42.486431000" lon="-2.521103000">
        <ele>433.30</ele>
        <time>2017-02-11T06:41:16Z</time>
      </trkpt>
      <trkpt lat="42.486385000" lon="-2.521103000">
        <ele>433.10</ele>
        <time>2017-02-11T06:41:17Z</time>
      </trkpt>
      <trkpt lat="42.486337000" lon="-2.521110000">
        <ele>432.60</ele>
        <time>2017-02-11T06:41:18Z</time>
      </trkpt>
      <trkpt lat="42.486286000" lon="-2.521120000">
        <ele>432.20</ele>
        <time>2017-02-11T06:41:19Z</time>
      </trkpt>
      <trkpt lat="42.486231000" lon="-2.521137000">
        <ele>431.90</ele>
        <time>2017-02-11T06:41:20Z</time>
      </trkpt>
      <trkpt lat="42.486172000" lon="-2.521156000">
        <ele>431.60</ele>
        <time>2017-02-11T06:41:21Z</time>
      </trkpt>
      <trkpt lat="42.486112000" lon="-2.521184000">
        <ele>431.10</ele>
        <time>2017-02-11T06:41:22Z</time>
      </trkpt>
      <trkpt lat="42.486054000" lon="-2.521223000">
        <ele>430.70</ele>
        <time>2017-02-11T06:41:23Z</time>
      </trkpt>
      <trkpt lat="42.486000000" lon="-2.521274000">
        <ele>430.30</ele>
        <time>2017-02-11T06:41:24Z</time>
      </trkpt>
      <trkpt lat="42.485943000" lon="-2.521334000">
        <ele>430.00</ele>
        <time>2017-02-11T06:41:25Z</time>
      </trkpt>
      <trkpt lat="42.485890000" lon="-2.521409000">
        <ele>429.70</ele>
        <time>2017-02-11T06:41:26Z</time>
      </trkpt>
      <trkpt lat="42.485844000" lon="-2.521485000">
        <ele>429.40</ele>
        <time>2017-02-11T06:41:27Z</time>
      </trkpt>
      <trkpt lat="42.485803000" lon="-2.521567000">
        <ele>428.90</ele>
        <time>2017-02-11T06:41:28Z</time>
      </trkpt>
      <trkpt lat="42.485757000" lon="-2.521655000">
        <ele>428.50</ele>
        <time>2017-02-11T06:41:29Z</time>
      </trkpt>
      <trkpt lat="42.485710000" lon="-2.521745000">
        <ele>428.00</ele>
        <time>2017-02-11T06:41:30Z</time>
      </trkpt>
      <trkpt lat="42.485665000" lon="-2.521836000">
        <ele>427.60</ele>
        <time>2017-02-11T06:41:31Z</time>
      </trkpt>
      <trkpt lat="42.485614000" lon="-2.521929000">
        <ele>426.80</ele>
        <time>2017-02-11T06:41:32Z</time>
      </trkpt>
      <trkpt lat="42.485568000" lon="-2.522029000">
        <ele>426.20</ele>
        <time>2017-02-11T06:41:33Z</time>
      </trkpt>
      <trkpt lat="42.485518000" lon="-2.522132000">
        <ele>425.60</ele>
        <time>2017-02-11T06:41:34Z</time>
      </trkpt>
      <trkpt lat="42.485465000" lon="-2.522235000">
        <ele>425.20</ele>
        <time>2017-02-11T06:41:35Z</time>
      </trkpt>
      <trkpt lat="42.485412000" lon="-2.522339000">
        <ele>424.50</ele>
        <time>2017-02-11T06:41:36Z</time>
      </trkpt>
      <trkpt lat="42.485356000" lon="-2.522443000">
        <ele>424.00</ele>
        <time>2017-02-11T06:41:37Z</time>
      </trkpt>
      <trkpt lat="42.485299000" lon="-2.522548000">
        <ele>423.50</ele>
        <time>2017-02-11T06:41:38Z</time>
      </trkpt>
      <trkpt lat="42.485235000" lon="-2.522656000">
        <ele>423.20</ele>
        <time>2017-02-11T06:41:39Z</time>
      </trkpt>
      <trkpt lat="42.485171000" lon="-2.522760000">
        <ele>422.20</ele>
        <time>2017-02-11T06:41:40Z</time>
      </trkpt>
      <trkpt lat="42.485108000" lon="-2.522866000">
        <ele>421.50</ele>
        <time>2017-02-11T06:41:41Z</time>
      </trkpt>
      <trkpt lat="42.485042000" lon="-2.522973000">
        <ele>420.50</ele>
        <time>2017-02-11T06:41:42Z</time>
      </trkpt>
      <trkpt lat="42.484977000" lon="-2.523080000">
        <ele>419.90</ele>
        <time>2017-02-11T06:41:43Z</time>
      </trkpt>
      <trkpt lat="42.484911000" lon="-2.523187000">
        <ele>419.30</ele>
        <time>2017-02-11T06:41:44Z</time>
      </trkpt>
      <trkpt lat="42.484842000" lon="-2.523294000">
        <ele>418.80</ele>
        <time>2017-02-11T06:41:45Z</time>
      </trkpt>
      <trkpt lat="42.484770000" lon="-2.523399000">
        <ele>417.90</ele>
        <time>2017-02-11T06:41:46Z</time>
      </trkpt>
      <trkpt lat="42.484695000" lon="-2.523507000">
        <ele>417.20</ele>
        <time>2017-02-11T06:41:47Z</time>
      </trkpt>
      <trkpt lat="42.484620000" lon="-2.523616000">
        <ele>416.20</ele>
        <time>2017-02-11T06:41:48Z</time>
      </trkpt>
      <trkpt lat="42.484545000" lon="-2.523727000">
        <ele>415.40</ele>
        <time>2017-02-11T06:41:49Z</time>
      </trkpt>
      <trkpt lat="42.484469000" lon="-2.523834000">
        <ele>414.30</ele>
        <time>2017-02-11T06:41:50Z</time>
      </trkpt>
      <trkpt lat="42.484392000" lon="-2.523945000">
        <ele>413.50</ele>
        <time>2017-02-11T06:41:51Z</time>
      </trkpt>
      <trkpt lat="42.484317000" lon="-2.524055000">
        <ele>412.60</ele>
        <time>2017-02-11T06:41:52Z</time>
      </trkpt>
      <trkpt lat="42.484242000" lon="-2.524159000">
        <ele>412.00</ele>
        <time>2017-02-11T06:41:53Z</time>
      </trkpt>
      <trkpt lat="42.484177000" lon="-2.524269000">
        <ele>411.20</ele>
        <time>2017-02-11T06:41:54Z</time>
      </trkpt>
      <trkpt lat="42.484119000" lon="-2.524379000">
        <ele>410.50</ele>
        <time>2017-02-11T06:41:55Z</time>
      </trkpt>
      <trkpt lat="42.484073000" lon="-2.524500000">
        <ele>409.50</ele>
        <time>2017-02-11T06:41:56Z</time>
      </trkpt>
      <trkpt lat="42.484036000" lon="-2.524627000">
        <ele>408.80</ele>
        <time>2017-02-11T06:41:57Z</time>
      </trkpt>
      <trkpt lat="42.484012000" lon="-2.524759000">
        <ele>407.50</ele>
        <time>2017-02-11T06:41:58Z</time>
      </trkpt>
      <trkpt lat="42.484000000" lon="-2.524895000">
        <ele>406.60</ele>
        <time>2017-02-11T06:41:59Z</time>
      </trkpt>
      <trkpt lat="42.483998000" lon="-2.525037000">
        <ele>405.60</ele>
        <time>2017-02-11T06:42:00Z</time>
      </trkpt>
      <trkpt lat="42.484005000" lon="-2.525180000">
        <ele>404.80</ele>
        <time>2017-02-11T06:42:01Z</time>
      </trkpt>
      <trkpt lat="42.484017000" lon="-2.525323000">
        <ele>403.90</ele>
        <time>2017-02-11T06:42:02Z</time>
      </trkpt>
      <trkpt lat="42.484026000" lon="-2.525472000">
        <ele>403.30</ele>
        <time>2017-02-11T06:42:03Z</time>
      </trkpt>
      <trkpt lat="42.484021000" lon="-2.525618000">
        <ele>402.20</ele>
        <time>2017-02-11T06:42:04Z</time>
      </trkpt>
      <trkpt lat="42.484017000" lon="-2.525765000">
        <ele>401.40</ele>
        <time>2017-02-11T06:42:05Z</time>
      </trkpt>
      <trkpt lat="42.484012000" lon="-2.525911000">
        <ele>400.60</ele>
        <time>2017-02-11T06:42:06Z</time>
      </trkpt>
      <trkpt lat="42.484009000" lon="-2.526179000">
        <ele>399.20</ele>
        <time>2017-02-11T06:42:08Z</time>
      </trkpt>
      <trkpt lat="42.484003000" lon="-2.526296000">
        <ele>398.60</ele>
        <time>2017-02-11T06:42:09Z</time>
      </trkpt>
      <trkpt lat="42.483995000" lon="-2.526398000">
        <ele>397.60</ele>
        <time>2017-02-11T06:42:10Z</time>
      </trkpt>
      <trkpt lat="42.483984000" lon="-2.526491000">
        <ele>396.90</ele>
        <time>2017-02-11T06:42:11Z</time>
      </trkpt>
      <trkpt lat="42.483969000" lon="-2.526562000">
        <ele>396.10</ele>
        <time>2017-02-11T06:42:12Z</time>
      </trkpt>
      <trkpt lat="42.483975000" lon="-2.526630000">
        <ele>395.40</ele>
        <time>2017-02-11T06:42:13Z</time>
      </trkpt>
      <trkpt lat="42.483978000" lon="-2.526703000">
        <ele>394.90</ele>
        <time>2017-02-11T06:42:14Z</time>
      </trkpt>
      <trkpt lat="42.483965000" lon="-2.526784000">
        <ele>394.50</ele>
        <time>2017-02-11T06:42:15Z</time>
      </trkpt>
      <trkpt lat="42.483939000" lon="-2.526841000">
        <ele>394.20</ele>
        <time>2017-02-11T06:42:16Z</time>
      </trkpt>
      <trkpt lat="42.483905000" lon="-2.526901000">
        <ele>393.90</ele>
        <time>2017-02-11T06:42:17Z</time>
      </trkpt>
      <trkpt lat="42.483872000" lon="-2.526961000">
        <ele>393.70</ele>
        <time>2017-02-11T06:42:18Z</time>
      </trkpt>
      <trkpt lat="42.483836000" lon="-2.527016000">
        <ele>393.50</ele>
        <time>2017-02-11T06:42:19Z</time>
      </trkpt>
      <trkpt lat="42.483799000" lon="-2.527080000">
        <ele>393.40</ele>
        <time>2017-02-11T06:42:20Z</time>
      </trkpt>
      <trkpt lat="42.483768000" lon="-2.527147000">
        <ele>393.30</ele>
        <time>2017-02-11T06:42:21Z</time>
      </trkpt>
      <trkpt lat="42.483741000" lon="-2.527214000">
        <ele>393.20</ele>
        <time>2017-02-11T06:42:22Z</time>
      </trkpt>
      <trkpt lat="42.483712000" lon="-2.527280000">
        <ele>393.00</ele>
        <time>2017-02-11T06:42:23Z</time>
      </trkpt>
      <trkpt lat="42.483689000" lon="-2.527349000">
        <ele>393.10</ele>
        <time>2017-02-11T06:42:24Z</time>
      </trkpt>
      <trkpt lat="42.483664000" lon="-2.527424000">
        <ele>393.10</ele>
        <time>2017-02-11T06:42:25Z</time>
      </trkpt>
      <trkpt lat="42.483639000" lon="-2.527500000">
        <ele>392.90</ele>
        <time>2017-02-11T06:42:26Z</time>
      </trkpt>
      <trkpt lat="42.483611000" lon="-2.527577000">
        <ele>392.80</ele>
        <time>2017-02-11T06:42:27Z</time>
      </trkpt>
      <trkpt lat="42.483584000" lon="-2.527652000">
        <ele>392.20</ele>
        <time>2017-02-11T06:42:28Z</time>
      </trkpt>
      <trkpt lat="42.483556000" lon="-2.527733000">
        <ele>391.70</ele>
        <time>2017-02-11T06:42:29Z</time>
      </trkpt>
      <trkpt lat="42.483529000" lon="-2.527814000">
        <ele>391.10</ele>
        <time>2017-02-11T06:42:30Z</time>
      </trkpt>
      <trkpt lat="42.483501000" lon="-2.527897000">
        <ele>390.70</ele>
        <time>2017-02-11T06:42:31Z</time>
      </trkpt>
      <trkpt lat="42.483469000" lon="-2.527981000">
        <ele>390.30</ele>
        <time>2017-02-11T06:42:32Z</time>
      </trkpt>
      <trkpt lat="42.483439000" lon="-2.528063000">
        <ele>390.10</ele>
        <time>2017-02-11T06:42:33Z</time>
      </trkpt>
      <trkpt lat="42.483409000" lon="-2.528145000">
        <ele>389.70</ele>
        <time>2017-02-11T06:42:34Z</time>
      </trkpt>
      <trkpt lat="42.483376000" lon="-2.528228000">
        <ele>389.40</ele>
        <time>2017-02-11T06:42:35Z</time>
      </trkpt>
      <trkpt lat="42.483347000" lon="-2.528310000">
        <ele>389.10</ele>
        <time>2017-02-11T06:42:36Z</time>
      </trkpt>
      <trkpt lat="42.483320000" lon="-2.528388000">
        <ele>388.90</ele>
        <time>2017-02-11T06:42:37Z</time>
      </trkpt>
      <trkpt lat="42.483293000" lon="-2.528465000">
        <ele>388.70</ele>
        <time>2017-02-11T06:42:38Z</time>
      </trkpt>
      <trkpt lat="42.483262000" lon="-2.528537000">
        <ele>388.50</ele>
        <time>2017-02-11T06:42:39Z</time>
      </trkpt>
      <trkpt lat="42.483231000" lon="-2.528606000">
        <ele>388.40</ele>
        <time>2017-02-11T06:42:40Z</time>
      </trkpt>
      <trkpt lat="42.483200000" lon="-2.528676000">
        <ele>388.30</ele>
        <time>2017-02-11T06:42:41Z</time>
      </trkpt>
      <trkpt lat="42.483172000" lon="-2.528745000">
        <ele>388.30</ele>
        <time>2017-02-11T06:42:42Z</time>
      </trkpt>
      <trkpt lat="42.483142000" lon="-2.528814000">
        <ele>388.20</ele>
        <time>2017-02-11T06:42:43Z</time>
      </trkpt>
      <trkpt lat="42.483114000" lon="-2.528885000">
        <ele>388.20</ele>
        <time>2017-02-11T06:42:44Z</time>
      </trkpt>
      <trkpt lat="42.483087000" lon="-2.528952000">
        <ele>388.10</ele>
        <time>2017-02-11T06:42:45Z</time>
      </trkpt>
      <trkpt lat="42.483058000" lon="-2.529019000">
        <ele>388.00</ele>
        <time>2017-02-11T06:42:46Z</time>
      </trkpt>
      <trkpt lat="42.483032000" lon="-2.529087000">
        <ele>387.90</ele>
        <time>2017-02-11T06:42:47Z</time>
      </trkpt>
      <trkpt lat="42.483005000" lon="-2.529156000">
        <ele>387.80</ele>
        <time>2017-02-11T06:42:48Z</time>
      </trkpt>
      <trkpt lat="42.482978000" lon="-2.529219000">
        <ele>387.70</ele>
        <time>2017-02-11T06:42:49Z</time>
      </trkpt>
      <trkpt lat="42.482953000" lon="-2.529279000">
        <ele>387.70</ele>
        <time>2017-02-11T06:42:50Z</time>
      </trkpt>
      <trkpt lat="42.482931000" lon="-2.529341000">
        <ele>387.60</ele>
        <time>2017-02-11T06:42:51Z</time>
      </trkpt>
      <trkpt lat="42.482908000" lon="-2.529403000">
        <ele>387.70</ele>
        <time>2017-02-11T06:42:52Z</time>
      </trkpt>
      <trkpt lat="42.482884000" lon="-2.529466000">
        <ele>387.70</ele>
        <time>2017-02-11T06:42:53Z</time>
      </trkpt>
      <trkpt lat="42.482859000" lon="-2.529529000">
        <ele>387.90</ele>
        <time>2017-02-11T06:42:54Z</time>
      </trkpt>
      <trkpt lat="42.482834000" lon="-2.529594000">
        <ele>388.10</ele>
        <time>2017-02-11T06:42:55Z</time>
      </trkpt>
      <trkpt lat="42.482809000" lon="-2.529658000">
        <ele>388.10</ele>
        <time>2017-02-11T06:42:56Z</time>
      </trkpt>
      <trkpt lat="42.482783000" lon="-2.529720000">
        <ele>388.20</ele>
        <time>2017-02-11T06:42:57Z</time>
      </trkpt>
      <trkpt lat="42.482756000" lon="-2.529782000">
        <ele>388.20</ele>
        <time>2017-02-11T06:42:58Z</time>
      </trkpt>
      <trkpt lat="42.482730000" lon="-2.529847000">
        <ele>388.20</ele>
        <time>2017-02-11T06:42:59Z</time>
      </trkpt>
      <trkpt lat="42.482706000" lon="-2.529910000">
        <ele>388.30</ele>
        <time>2017-02-11T06:43:00Z</time>
      </trkpt>
      <trkpt lat="42.482680000" lon="-2.529971000">
        <ele>388.30</ele>
        <time>2017-02-11T06:43:01Z</time>
      </trkpt>
      <trkpt lat="42.482653000" lon="-2.530033000">
        <ele>388.30</ele>
        <time>2017-02-11T06:43:02Z</time>
      </trkpt>
      <trkpt lat="42.482627000" lon="-2.530092000">
        <ele>388.40</ele>
        <time>2017-02-11T06:43:03Z</time>
      </trkpt>
      <trkpt lat="42.482601000" lon="-2.530151000">
        <ele>388.50</ele>
        <time>2017-02-11T06:43:04Z</time>
      </trkpt>
      <trkpt lat="42.482575000" lon="-2.530211000">
        <ele>388.60</ele>
        <time>2017-02-11T06:43:05Z</time>
      </trkpt>
      <trkpt lat="42.482549000" lon="-2.530270000">
        <ele>388.60</ele>
        <time>2017-02-11T06:43:06Z</time>
      </trkpt>
      <trkpt lat="42.482519000" lon="-2.530328000">
        <ele>388.70</ele>
        <time>2017-02-11T06:43:07Z</time>
      </trkpt>
      <trkpt lat="42.482454000" lon="-2.530453000">
        <ele>388.70</ele>
        <time>2017-02-11T06:43:09Z</time>
      </trkpt>
      <trkpt lat="42.482418000" lon="-2.530513000">
        <ele>388.90</ele>
        <time>2017-02-11T06:43:10Z</time>
      </trkpt>
      <trkpt lat="42.482380000" lon="-2.530570000">
        <ele>389.00</ele>
        <time>2017-02-11T06:43:11Z</time>
      </trkpt>
      <trkpt lat="42.482341000" lon="-2.530622000">
        <ele>389.00</ele>
        <time>2017-02-11T06:43:12Z</time>
      </trkpt>
      <trkpt lat="42.482303000" lon="-2.530677000">
        <ele>388.90</ele>
        <time>2017-02-11T06:43:13Z</time>
      </trkpt>
      <trkpt lat="42.482266000" lon="-2.530731000">
        <ele>388.90</ele>
        <time>2017-02-11T06:43:14Z</time>
      </trkpt>
      <trkpt lat="42.482231000" lon="-2.530789000">
        <ele>388.90</ele>
        <time>2017-02-11T06:43:15Z</time>
      </trkpt>
      <trkpt lat="42.482198000" lon="-2.530849000">
        <ele>388.70</ele>
        <time>2017-02-11T06:43:16Z</time>
      </trkpt>
      <trkpt lat="42.482168000" lon="-2.530911000">
        <ele>388.60</ele>
        <time>2017-02-11T06:43:17Z</time>
      </trkpt>
      <trkpt lat="42.482140000" lon="-2.530973000">
        <ele>388.40</ele>
        <time>2017-02-11T06:43:18Z</time>
      </trkpt>
      <trkpt lat="42.482114000" lon="-2.531041000">
        <ele>388.30</ele>
        <time>2017-02-11T06:43:19Z</time>
      </trkpt>
      <trkpt lat="42.482092000" lon="-2.531112000">
        <ele>388.10</ele>
        <time>2017-02-11T06:43:20Z</time>
      </trkpt>
      <trkpt lat="42.482069000" lon="-2.531181000">
        <ele>388.10</ele>
        <time>2017-02-11T06:43:21Z</time>
      </trkpt>
      <trkpt lat="42.482046000" lon="-2.531250000">
        <ele>388.00</ele>
        <time>2017-02-11T06:43:22Z</time>
      </trkpt>
      <trkpt lat="42.482022000" lon="-2.531318000">
        <ele>387.90</ele>
        <time>2017-02-11T06:43:23Z</time>
      </trkpt>
      <trkpt lat="42.481996000" lon="-2.531384000">
        <ele>388.20</ele>
        <time>2017-02-11T06:43:24Z</time>
      </trkpt>
      <trkpt lat="42.481971000" lon="-2.531451000">
        <ele>388.40</ele>
        <time>2017-02-11T06:43:25Z</time>
      </trkpt>
      <trkpt lat="42.481950000" lon="-2.531515000">
        <ele>388.60</ele>
        <time>2017-02-11T06:43:26Z</time>
      </trkpt>
      <trkpt lat="42.481928000" lon="-2.531582000">
        <ele>388.70</ele>
        <time>2017-02-11T06:43:27Z</time>
      </trkpt>
      <trkpt lat="42.481907000" lon="-2.531649000">
        <ele>388.70</ele>
        <time>2017-02-11T06:43:28Z</time>
      </trkpt>
      <trkpt lat="42.481888000" lon="-2.531715000">
        <ele>388.80</ele>
        <time>2017-02-11T06:43:29Z</time>
      </trkpt>
      <trkpt lat="42.481870000" lon="-2.531779000">
        <ele>388.70</ele>
        <time>2017-02-11T06:43:30Z</time>
      </trkpt>
      <trkpt lat="42.481852000" lon="-2.531843000">
        <ele>388.70</ele>
        <time>2017-02-11T06:43:31Z</time>
      </trkpt>
      <trkpt lat="42.481835000" lon="-2.531908000">
        <ele>388.70</ele>
        <time>2017-02-11T06:43:32Z</time>
      </trkpt>
      <trkpt lat="42.481819000" lon="-2.531973000">
        <ele>388.70</ele>
        <time>2017-02-11T06:43:33Z</time>
      </trkpt>
      <trkpt lat="42.481807000" lon="-2.532039000">
        <ele>388.80</ele>
        <time>2017-02-11T06:43:34Z</time>
      </trkpt>
      <trkpt lat="42.481794000" lon="-2.532106000">
        <ele>388.80</ele>
        <time>2017-02-11T06:43:35Z</time>
      </trkpt>
      <trkpt lat="42.481783000" lon="-2.532171000">
        <ele>388.80</ele>
        <time>2017-02-11T06:43:36Z</time>
      </trkpt>
      <trkpt lat="42.481773000" lon="-2.532237000">
        <ele>388.80</ele>
        <time>2017-02-11T06:43:37Z</time>
      </trkpt>
      <trkpt lat="42.481762000" lon="-2.532305000">
        <ele>388.90</ele>
        <time>2017-02-11T06:43:38Z</time>
      </trkpt>
      <trkpt lat="42.481754000" lon="-2.532374000">
        <ele>388.90</ele>
        <time>2017-02-11T06:43:39Z</time>
      </trkpt>
      <trkpt lat="42.481745000" lon="-2.532442000">
        <ele>389.00</ele>
        <time>2017-02-11T06:43:40Z</time>
      </trkpt>
      <trkpt lat="42.481737000" lon="-2.532511000">
        <ele>389.00</ele>
        <time>2017-02-11T06:43:41Z</time>
      </trkpt>
      <trkpt lat="42.481729000" lon="-2.532580000">
        <ele>389.30</ele>
        <time>2017-02-11T06:43:42Z</time>
      </trkpt>
      <trkpt lat="42.481723000" lon="-2.532647000">
        <ele>389.60</ele>
        <time>2017-02-11T06:43:43Z</time>
      </trkpt>
      <trkpt lat="42.481717000" lon="-2.532711000">
        <ele>389.80</ele>
        <time>2017-02-11T06:43:44Z</time>
      </trkpt>
      <trkpt lat="42.481710000" lon="-2.532779000">
        <ele>389.90</ele>
        <time>2017-02-11T06:43:45Z</time>
      </trkpt>
      <trkpt lat="42.481703000" lon="-2.532844000">
        <ele>389.90</ele>
        <time>2017-02-11T06:43:46Z</time>
      </trkpt>
      <trkpt lat="42.481699000" lon="-2.532910000">
        <ele>389.90</ele>
        <time>2017-02-11T06:43:47Z</time>
      </trkpt>
      <trkpt lat="42.481692000" lon="-2.532974000">
        <ele>389.80</ele>
        <time>2017-02-11T06:43:48Z</time>
      </trkpt>
      <trkpt lat="42.481685000" lon="-2.533040000">
        <ele>389.70</ele>
        <time>2017-02-11T06:43:49Z</time>
      </trkpt>
      <trkpt lat="42.481682000" lon="-2.533103000">
        <ele>389.60</ele>
        <time>2017-02-11T06:43:50Z</time>
      </trkpt>
      <trkpt lat="42.481673000" lon="-2.533164000">
        <ele>389.50</ele>
        <time>2017-02-11T06:43:51Z</time>
      </trkpt>
      <trkpt lat="42.481668000" lon="-2.533227000">
        <ele>389.50</ele>
        <time>2017-02-11T06:43:52Z</time>
      </trkpt>
      <trkpt lat="42.481662000" lon="-2.533290000">
        <ele>389.60</ele>
        <time>2017-02-11T06:43:53Z</time>
      </trkpt>
      <trkpt lat="42.481656000" lon="-2.533353000">
        <ele>389.60</ele>
        <time>2017-02-11T06:43:54Z</time>
      </trkpt>
      <trkpt lat="42.481650000" lon="-2.533416000">
        <ele>389.60</ele>
        <time>2017-02-11T06:43:55Z</time>
      </trkpt>
      <trkpt lat="42.481644000" lon="-2.533478000">
        <ele>389.60</ele>
        <time>2017-02-11T06:43:56Z</time>
      </trkpt>
      <trkpt lat="42.481638000" lon="-2.533542000">
        <ele>389.60</ele>
        <time>2017-02-11T06:43:57Z</time>
      </trkpt>
      <trkpt lat="42.481637000" lon="-2.533603000">
        <ele>389.50</ele>
        <time>2017-02-11T06:43:58Z</time>
      </trkpt>
      <trkpt lat="42.481633000" lon="-2.533664000">
        <ele>389.40</ele>
        <time>2017-02-11T06:43:59Z</time>
      </trkpt>
      <trkpt lat="42.481627000" lon="-2.533733000">
        <ele>389.30</ele>
        <time>2017-02-11T06:44:00Z</time>
      </trkpt>
      <trkpt lat="42.481620000" lon="-2.533798000">
        <ele>389.30</ele>
        <time>2017-02-11T06:44:01Z</time>
      </trkpt>
      <trkpt lat="42.481617000" lon="-2.533863000">
        <ele>389.20</ele>
        <time>2017-02-11T06:44:02Z</time>
      </trkpt>
      <trkpt lat="42.481612000" lon="-2.533926000">
        <ele>389.20</ele>
        <time>2017-02-11T06:44:03Z</time>
      </trkpt>
      <trkpt lat="42.481607000" lon="-2.533993000">
        <ele>389.30</ele>
        <time>2017-02-11T06:44:04Z</time>
      </trkpt>
      <trkpt lat="42.481603000" lon="-2.534059000">
        <ele>389.40</ele>
        <time>2017-02-11T06:44:05Z</time>
      </trkpt>
      <trkpt lat="42.481597000" lon="-2.534122000">
        <ele>389.40</ele>
        <time>2017-02-11T06:44:06Z</time>
      </trkpt>
      <trkpt lat="42.481592000" lon="-2.534187000">
        <ele>389.50</ele>
        <time>2017-02-11T06:44:07Z</time>
      </trkpt>
      <trkpt lat="42.481590000" lon="-2.534254000">
        <ele>389.40</ele>
        <time>2017-02-11T06:44:08Z</time>
      </trkpt>
      <trkpt lat="42.481579000" lon="-2.534384000">
        <ele>389.30</ele>
        <time>2017-02-11T06:44:10Z</time>
      </trkpt>
      <trkpt lat="42.481573000" lon="-2.534449000">
        <ele>389.30</ele>
        <time>2017-02-11T06:44:11Z</time>
      </trkpt>
      <trkpt lat="42.481565000" lon="-2.534512000">
        <ele>389.20</ele>
        <time>2017-02-11T06:44:12Z</time>
      </trkpt>
      <trkpt lat="42.481560000" lon="-2.534576000">
        <ele>389.20</ele>
        <time>2017-02-11T06:44:13Z</time>
      </trkpt>
      <trkpt lat="42.481552000" lon="-2.534636000">
        <ele>389.10</ele>
        <time>2017-02-11T06:44:14Z</time>
      </trkpt>
      <trkpt lat="42.481546000" lon="-2.534697000">
        <ele>389.00</ele>
        <time>2017-02-11T06:44:15Z</time>
      </trkpt>
      <trkpt lat="42.481538000" lon="-2.534759000">
        <ele>389.00</ele>
        <time>2017-02-11T06:44:16Z</time>
      </trkpt>
      <trkpt lat="42.481529000" lon="-2.534819000">
        <ele>388.90</ele>
        <time>2017-02-11T06:44:17Z</time>
      </trkpt>
      <trkpt lat="42.481520000" lon="-2.534878000">
        <ele>388.90</ele>
        <time>2017-02-11T06:44:18Z</time>
      </trkpt>
      <trkpt lat="42.481507000" lon="-2.534934000">
        <ele>388.90</ele>
        <time>2017-02-11T06:44:19Z</time>
      </trkpt>
      <trkpt lat="42.481498000" lon="-2.534992000">
        <ele>388.90</ele>
        <time>2017-02-11T06:44:20Z</time>
      </trkpt>
      <trkpt lat="42.481490000" lon="-2.535052000">
        <ele>388.90</ele>
        <time>2017-02-11T06:44:21Z</time>
      </trkpt>
      <trkpt lat="42.481483000" lon="-2.535113000">
        <ele>388.90</ele>
        <time>2017-02-11T06:44:22Z</time>
      </trkpt>
      <trkpt lat="42.481473000" lon="-2.535175000">
        <ele>388.80</ele>
        <time>2017-02-11T06:44:23Z</time>
      </trkpt>
      <trkpt lat="42.481466000" lon="-2.535236000">
        <ele>388.80</ele>
        <time>2017-02-11T06:44:24Z</time>
      </trkpt>
      <trkpt lat="42.481462000" lon="-2.535289000">
        <ele>388.80</ele>
        <time>2017-02-11T06:44:25Z</time>
      </trkpt>
      <trkpt lat="42.481458000" lon="-2.535330000">
        <ele>388.80</ele>
        <time>2017-02-11T06:44:26Z</time>
      </trkpt>
      <trkpt lat="42.481458000" lon="-2.535359000">
        <ele>388.80</ele>
        <time>2017-02-11T06:44:27Z</time>
      </trkpt>
      <trkpt lat="42.481458000" lon="-2.535388000">
        <ele>388.70</ele>
        <time>2017-02-11T06:44:28Z</time>
      </trkpt>
      <trkpt lat="42.481456000" lon="-2.535416000">
        <ele>388.60</ele>
        <time>2017-02-11T06:44:29Z</time>
      </trkpt>
      <trkpt lat="42.481454000" lon="-2.535443000">
        <ele>388.50</ele>
        <time>2017-02-11T06:44:30Z</time>
      </trkpt>
      <trkpt lat="42.481453000" lon="-2.535475000">
        <ele>388.50</ele>
        <time>2017-02-11T06:44:31Z</time>
      </trkpt>
      <trkpt lat="42.481450000" lon="-2.535510000">
        <ele>388.40</ele>
        <time>2017-02-11T06:44:32Z</time>
      </trkpt>
      <trkpt lat="42.481450000" lon="-2.535543000">
        <ele>388.40</ele>
        <time>2017-02-11T06:44:33Z</time>
      </trkpt>
      <trkpt lat="42.481446000" lon="-2.535583000">
        <ele>388.40</ele>
        <time>2017-02-11T06:44:34Z</time>
      </trkpt>
      <trkpt lat="42.481442000" lon="-2.535626000">
        <ele>388.40</ele>
        <time>2017-02-11T06:44:35Z</time>
      </trkpt>
      <trkpt lat="42.481438000" lon="-2.535674000">
        <ele>388.40</ele>
        <time>2017-02-11T06:44:36Z</time>
      </trkpt>
      <trkpt lat="42.481435000" lon="-2.535725000">
        <ele>388.50</ele>
        <time>2017-02-11T06:44:37Z</time>
      </trkpt>
      <trkpt lat="42.481432000" lon="-2.535779000">
        <ele>388.50</ele>
        <time>2017-02-11T06:44:38Z</time>
      </trkpt>
      <trkpt lat="42.481428000" lon="-2.535833000">
        <ele>388.50</ele>
        <time>2017-02-11T06:44:39Z</time>
      </trkpt>
      <trkpt lat="42.481425000" lon="-2.535888000">
        <ele>388.40</ele>
        <time>2017-02-11T06:44:40Z</time>
      </trkpt>
      <trkpt lat="42.481421000" lon="-2.535945000">
        <ele>388.30</ele>
        <time>2017-02-11T06:44:41Z</time>
      </trkpt>
      <trkpt lat="42.481420000" lon="-2.536002000">
        <ele>388.20</ele>
        <time>2017-02-11T06:44:42Z</time>
      </trkpt>
      <trkpt lat="42.481417000" lon="-2.536057000">
        <ele>388.20</ele>
        <time>2017-02-11T06:44:43Z</time>
      </trkpt>
      <trkpt lat="42.481415000" lon="-2.536112000">
        <ele>388.00</ele>
        <time>2017-02-11T06:44:44Z</time>
      </trkpt>
      <trkpt lat="42.481411000" lon="-2.536162000">
        <ele>387.90</ele>
        <time>2017-02-11T06:44:45Z</time>
      </trkpt>
      <trkpt lat="42.481409000" lon="-2.536213000">
        <ele>387.90</ele>
        <time>2017-02-11T06:44:46Z</time>
      </trkpt>
      <trkpt lat="42.481406000" lon="-2.536264000">
        <ele>388.00</ele>
        <time>2017-02-11T06:44:47Z</time>
      </trkpt>
      <trkpt lat="42.481402000" lon="-2.536312000">
        <ele>388.00</ele>
        <time>2017-02-11T06:44:48Z</time>
      </trkpt>
      <trkpt lat="42.481395000" lon="-2.536361000">
        <ele>388.00</ele>
        <time>2017-02-11T06:44:49Z</time>
      </trkpt>
      <trkpt lat="42.481390000" lon="-2.536411000">
        <ele>388.10</ele>
        <time>2017-02-11T06:44:50Z</time>
      </trkpt>
      <trkpt lat="42.481386000" lon="-2.536462000">
        <ele>388.20</ele>
        <time>2017-02-11T06:44:51Z</time>
      </trkpt>
      <trkpt lat="42.481379000" lon="-2.536516000">
        <ele>388.20</ele>
        <time>2017-02-11T06:44:52Z</time>
      </trkpt>
      <trkpt lat="42.481375000" lon="-2.536568000">
        <ele>388.10</ele>
        <time>2017-02-11T06:44:53Z</time>
      </trkpt>
      <trkpt lat="42.481370000" lon="-2.536622000">
        <ele>388.20</ele>
        <time>2017-02-11T06:44:54Z</time>
      </trkpt>
      <trkpt lat="42.481366000" lon="-2.536678000">
        <ele>388.30</ele>
        <time>2017-02-11T06:44:55Z</time>
      </trkpt>
      <trkpt lat="42.481363000" lon="-2.536734000">
        <ele>388.30</ele>
        <time>2017-02-11T06:44:56Z</time>
      </trkpt>
      <trkpt lat="42.481356000" lon="-2.536788000">
        <ele>388.30</ele>
        <time>2017-02-11T06:44:57Z</time>
      </trkpt>
      <trkpt lat="42.481349000" lon="-2.536843000">
        <ele>388.40</ele>
        <time>2017-02-11T06:44:58Z</time>
      </trkpt>
      <trkpt lat="42.481345000" lon="-2.536900000">
        <ele>388.50</ele>
        <time>2017-02-11T06:44:59Z</time>
      </trkpt>
      <trkpt lat="42.481339000" lon="-2.536956000">
        <ele>388.50</ele>
        <time>2017-02-11T06:45:00Z</time>
      </trkpt>
      <trkpt lat="42.481335000" lon="-2.537015000">
        <ele>388.50</ele>
        <time>2017-02-11T06:45:01Z</time>
      </trkpt>
      <trkpt lat="42.481330000" lon="-2.537073000">
        <ele>388.50</ele>
        <time>2017-02-11T06:45:02Z</time>
      </trkpt>
      <trkpt lat="42.481320000" lon="-2.537129000">
        <ele>388.50</ele>
        <time>2017-02-11T06:45:03Z</time>
      </trkpt>
      <trkpt lat="42.481314000" lon="-2.537189000">
        <ele>388.50</ele>
        <time>2017-02-11T06:45:04Z</time>
      </trkpt>
      <trkpt lat="42.481308000" lon="-2.537247000">
        <ele>388.40</ele>
        <time>2017-02-11T06:45:05Z</time>
      </trkpt>
      <trkpt lat="42.481302000" lon="-2.537308000">
        <ele>388.40</ele>
        <time>2017-02-11T06:45:06Z</time>
      </trkpt>
      <trkpt lat="42.481296000" lon="-2.537369000">
        <ele>388.40</ele>
        <time>2017-02-11T06:45:07Z</time>
      </trkpt>
      <trkpt lat="42.481291000" lon="-2.537429000">
        <ele>388.40</ele>
        <time>2017-02-11T06:45:08Z</time>
      </trkpt>
      <trkpt lat="42.481287000" lon="-2.537489000">
        <ele>388.30</ele>
        <time>2017-02-11T06:45:09Z</time>
      </trkpt>
      <trkpt lat="42.481281000" lon="-2.537606000">
        <ele>388.10</ele>
        <time>2017-02-11T06:45:11Z</time>
      </trkpt>
      <trkpt lat="42.481279000" lon="-2.537664000">
        <ele>388.00</ele>
        <time>2017-02-11T06:45:12Z</time>
      </trkpt>
      <trkpt lat="42.481276000" lon="-2.537721000">
        <ele>387.90</ele>
        <time>2017-02-11T06:45:13Z</time>
      </trkpt>
      <trkpt lat="42.481274000" lon="-2.537777000">
        <ele>387.90</ele>
        <time>2017-02-11T06:45:14Z</time>
      </trkpt>
      <trkpt lat="42.481272000" lon="-2.537831000">
        <ele>387.80</ele>
        <time>2017-02-11T06:45:15Z</time>
      </trkpt>
      <trkpt lat="42.481270000" lon="-2.537885000">
        <ele>387.90</ele>
        <time>2017-02-11T06:45:16Z</time>
      </trkpt>
      <trkpt lat="42.481270000" lon="-2.537937000">
        <ele>387.90</ele>
        <time>2017-02-11T06:45:17Z</time>
      </trkpt>
      <trkpt lat="42.481268000" lon="-2.537990000">
        <ele>387.80</ele>
        <time>2017-02-11T06:45:18Z</time>
      </trkpt>
      <trkpt lat="42.481271000" lon="-2.538042000">
        <ele>387.80</ele>
        <time>2017-02-11T06:45:19Z</time>
      </trkpt>
      <trkpt lat="42.481273000" lon="-2.538093000">
        <ele>387.60</ele>
        <time>2017-02-11T06:45:20Z</time>
      </trkpt>
      <trkpt lat="42.481277000" lon="-2.538146000">
        <ele>387.50</ele>
        <time>2017-02-11T06:45:21Z</time>
      </trkpt>
      <trkpt lat="42.481283000" lon="-2.538196000">
        <ele>387.40</ele>
        <time>2017-02-11T06:45:22Z</time>
      </trkpt>
      <trkpt lat="42.481284000" lon="-2.538241000">
        <ele>387.40</ele>
        <time>2017-02-11T06:45:23Z</time>
      </trkpt>
      <trkpt lat="42.481287000" lon="-2.538287000">
        <ele>387.40</ele>
        <time>2017-02-11T06:45:24Z</time>
      </trkpt>
      <trkpt lat="42.481291000" lon="-2.538317000">
        <ele>387.40</ele>
        <time>2017-02-11T06:45:25Z</time>
      </trkpt>
      <trkpt lat="42.481296000" lon="-2.538342000">
        <ele>387.50</ele>
        <time>2017-02-11T06:45:26Z</time>
      </trkpt>
      <trkpt lat="42.481296000" lon="-2.538365000">
        <ele>387.70</ele>
        <time>2017-02-11T06:45:27Z</time>
      </trkpt>
      <trkpt lat="42.481300000" lon="-2.538391000">
        <ele>387.90</ele>
        <time>2017-02-11T06:45:28Z</time>
      </trkpt>
      <trkpt lat="42.481302000" lon="-2.538422000">
        <ele>388.00</ele>
        <time>2017-02-11T06:45:29Z</time>
      </trkpt>
      <trkpt lat="42.481306000" lon="-2.538453000">
        <ele>388.10</ele>
        <time>2017-02-11T06:45:30Z</time>
      </trkpt>
      <trkpt lat="42.481309000" lon="-2.538483000">
        <ele>388.20</ele>
        <time>2017-02-11T06:45:31Z</time>
      </trkpt>
      <trkpt lat="42.481318000" lon="-2.538519000">
        <ele>388.20</ele>
        <time>2017-02-11T06:45:32Z</time>
      </trkpt>
      <trkpt lat="42.481333000" lon="-2.538565000">
        <ele>388.20</ele>
        <time>2017-02-11T06:45:33Z</time>
      </trkpt>
      <trkpt lat="42.481348000" lon="-2.538611000">
        <ele>388.20</ele>
        <time>2017-02-11T06:45:34Z</time>
      </trkpt>
      <trkpt lat="42.481362000" lon="-2.538657000">
        <ele>388.20</ele>
        <time>2017-02-11T06:45:35Z</time>
      </trkpt>
      <trkpt lat="42.481374000" lon="-2.538702000">
        <ele>388.20</ele>
        <time>2017-02-11T06:45:36Z</time>
      </trkpt>
      <trkpt lat="42.481382000" lon="-2.538753000">
        <ele>388.20</ele>
        <time>2017-02-11T06:45:37Z</time>
      </trkpt>
      <trkpt lat="42.481392000" lon="-2.538800000">
        <ele>388.20</ele>
        <time>2017-02-11T06:45:38Z</time>
      </trkpt>
      <trkpt lat="42.481401000" lon="-2.538850000">
        <ele>388.20</ele>
        <time>2017-02-11T06:45:39Z</time>
      </trkpt>
      <trkpt lat="42.481409000" lon="-2.538901000">
        <ele>388.20</ele>
        <time>2017-02-11T06:45:40Z</time>
      </trkpt>
      <trkpt lat="42.481419000" lon="-2.538953000">
        <ele>388.20</ele>
        <time>2017-02-11T06:45:41Z</time>
      </trkpt>
      <trkpt lat="42.481427000" lon="-2.539004000">
        <ele>388.30</ele>
        <time>2017-02-11T06:45:42Z</time>
      </trkpt>
      <trkpt lat="42.481435000" lon="-2.539056000">
        <ele>388.30</ele>
        <time>2017-02-11T06:45:43Z</time>
      </trkpt>
      <trkpt lat="42.481439000" lon="-2.539109000">
        <ele>388.30</ele>
        <time>2017-02-11T06:45:44Z</time>
      </trkpt>
      <trkpt lat="42.481438000" lon="-2.539166000">
        <ele>388.30</ele>
        <time>2017-02-11T06:45:45Z</time>
      </trkpt>
      <trkpt lat="42.481438000" lon="-2.539216000">
        <ele>388.40</ele>
        <time>2017-02-11T06:45:46Z</time>
      </trkpt>
      <trkpt lat="42.481438000" lon="-2.539272000">
        <ele>388.40</ele>
        <time>2017-02-11T06:45:47Z</time>
      </trkpt>
      <trkpt lat="42.481437000" lon="-2.539329000">
        <ele>388.40</ele>
        <time>2017-02-11T06:45:48Z</time>
      </trkpt>
      <trkpt lat="42.481435000" lon="-2.539388000">
        <ele>388.40</ele>
        <time>2017-02-11T06:45:49Z</time>
      </trkpt>
      <trkpt lat="42.481434000" lon="-2.539445000">
        <ele>388.40</ele>
        <time>2017-02-11T06:45:50Z</time>
      </trkpt>
      <trkpt lat="42.481434000" lon="-2.539503000">
        <ele>388.50</ele>
        <time>2017-02-11T06:45:51Z</time>
      </trkpt>
      <trkpt lat="42.481433000" lon="-2.539561000">
        <ele>388.50</ele>
        <time>2017-02-11T06:45:52Z</time>
      </trkpt>
      <trkpt lat="42.481434000" lon="-2.539619000">
        <ele>388.50</ele>
        <time>2017-02-11T06:45:53Z</time>
      </trkpt>
      <trkpt lat="42.481436000" lon="-2.539677000">
        <ele>388.50</ele>
        <time>2017-02-11T06:45:54Z</time>
      </trkpt>
      <trkpt lat="42.481439000" lon="-2.539735000">
        <ele>388.50</ele>
        <time>2017-02-11T06:45:55Z</time>
      </trkpt>
      <trkpt lat="42.481437000" lon="-2.539796000">
        <ele>388.50</ele>
        <time>2017-02-11T06:45:56Z</time>
      </trkpt>
      <trkpt lat="42.481436000" lon="-2.539854000">
        <ele>388.40</ele>
        <time>2017-02-11T06:45:57Z</time>
      </trkpt>
      <trkpt lat="42.481438000" lon="-2.539909000">
        <ele>388.30</ele>
        <time>2017-02-11T06:45:58Z</time>
      </trkpt>
      <trkpt lat="42.481439000" lon="-2.539965000">
        <ele>388.20</ele>
        <time>2017-02-11T06:45:59Z</time>
      </trkpt>
      <trkpt lat="42.481442000" lon="-2.540017000">
        <ele>388.10</ele>
        <time>2017-02-11T06:46:00Z</time>
      </trkpt>
      <trkpt lat="42.481450000" lon="-2.540063000">
        <ele>388.10</ele>
        <time>2017-02-11T06:46:01Z</time>
      </trkpt>
      <trkpt lat="42.481459000" lon="-2.540100000">
        <ele>388.20</ele>
        <time>2017-02-11T06:46:02Z</time>
      </trkpt>
      <trkpt lat="42.481468000" lon="-2.540130000">
        <ele>388.20</ele>
        <time>2017-02-11T06:46:03Z</time>
      </trkpt>
      <trkpt lat="42.481486000" lon="-2.540156000">
        <ele>388.40</ele>
        <time>2017-02-11T06:46:04Z</time>
      </trkpt>
      <trkpt lat="42.481504000" lon="-2.540176000">
        <ele>388.50</ele>
        <time>2017-02-11T06:46:05Z</time>
      </trkpt>
      <trkpt lat="42.481534000" lon="-2.540192000">
        <ele>388.70</ele>
        <time>2017-02-11T06:46:06Z</time>
      </trkpt>
      <trkpt lat="42.481573000" lon="-2.540198000">
        <ele>388.80</ele>
        <time>2017-02-11T06:46:07Z</time>
      </trkpt>
      <trkpt lat="42.481616000" lon="-2.540199000">
        <ele>388.90</ele>
        <time>2017-02-11T06:46:08Z</time>
      </trkpt>
      <trkpt lat="42.481656000" lon="-2.540196000">
        <ele>389.00</ele>
        <time>2017-02-11T06:46:09Z</time>
      </trkpt>
      <trkpt lat="42.481696000" lon="-2.540197000">
        <ele>389.10</ele>
        <time>2017-02-11T06:46:10Z</time>
      </trkpt>
      <trkpt lat="42.481779000" lon="-2.540205000">
        <ele>389.10</ele>
        <time>2017-02-11T06:46:12Z</time>
      </trkpt>
      <trkpt lat="42.481820000" lon="-2.540202000">
        <ele>389.00</ele>
        <time>2017-02-11T06:46:13Z</time>
      </trkpt>
      <trkpt lat="42.481863000" lon="-2.540201000">
        <ele>388.90</ele>
        <time>2017-02-11T06:46:14Z</time>
      </trkpt>
      <trkpt lat="42.481906000" lon="-2.540197000">
        <ele>388.90</ele>
        <time>2017-02-11T06:46:15Z</time>
      </trkpt>
      <trkpt lat="42.481945000" lon="-2.540192000">
        <ele>388.80</ele>
        <time>2017-02-11T06:46:16Z</time>
      </trkpt>
      <trkpt lat="42.481982000" lon="-2.540192000">
        <ele>388.80</ele>
        <time>2017-02-11T06:46:17Z</time>
      </trkpt>
      <trkpt lat="42.482023000" lon="-2.540192000">
        <ele>388.90</ele>
        <time>2017-02-11T06:46:18Z</time>
      </trkpt>
      <trkpt lat="42.482067000" lon="-2.540193000">
        <ele>388.90</ele>
        <time>2017-02-11T06:46:19Z</time>
      </trkpt>
      <trkpt lat="42.482110000" lon="-2.540192000">
        <ele>388.90</ele>
        <time>2017-02-11T06:46:20Z</time>
      </trkpt>
      <trkpt lat="42.482154000" lon="-2.540189000">
        <ele>388.90</ele>
        <time>2017-02-11T06:46:21Z</time>
      </trkpt>
      <trkpt lat="42.482199000" lon="-2.540186000">
        <ele>388.80</ele>
        <time>2017-02-11T06:46:22Z</time>
      </trkpt>
      <trkpt lat="42.482246000" lon="-2.540176000">
        <ele>388.70</ele>
        <time>2017-02-11T06:46:23Z</time>
      </trkpt>
      <trkpt lat="42.482287000" lon="-2.540171000">
        <ele>388.70</ele>
        <time>2017-02-11T06:46:24Z</time>
      </trkpt>
      <trkpt lat="42.482327000" lon="-2.540166000">
        <ele>388.60</ele>
        <time>2017-02-11T06:46:25Z</time>
      </trkpt>
      <trkpt lat="42.482367000" lon="-2.540158000">
        <ele>388.60</ele>
        <time>2017-02-11T06:46:26Z</time>
      </trkpt>
      <trkpt lat="42.482405000" lon="-2.540159000">
        <ele>388.60</ele>
        <time>2017-02-11T06:46:27Z</time>
      </trkpt>
      <trkpt lat="42.482437000" lon="-2.540170000">
        <ele>388.50</ele>
        <time>2017-02-11T06:46:28Z</time>
      </trkpt>
      <trkpt lat="42.482464000" lon="-2.540190000">
        <ele>388.50</ele>
        <time>2017-02-11T06:46:29Z</time>
      </trkpt>
      <trkpt lat="42.482487000" lon="-2.540215000">
        <ele>388.50</ele>
        <time>2017-02-11T06:46:30Z</time>
      </trkpt>
      <trkpt lat="42.482522000" lon="-2.540232000">
        <ele>388.50</ele>
        <time>2017-02-11T06:46:31Z</time>
      </trkpt>
      <trkpt lat="42.482558000" lon="-2.540249000">
        <ele>388.30</ele>
        <time>2017-02-11T06:46:32Z</time>
      </trkpt>
      <trkpt lat="42.482597000" lon="-2.540261000">
        <ele>388.20</ele>
        <time>2017-02-11T06:46:33Z</time>
      </trkpt>
      <trkpt lat="42.482636000" lon="-2.540268000">
        <ele>388.10</ele>
        <time>2017-02-11T06:46:34Z</time>
      </trkpt>
      <trkpt lat="42.482677000" lon="-2.540272000">
        <ele>388.00</ele>
        <time>2017-02-11T06:46:35Z</time>
      </trkpt>
      <trkpt lat="42.482718000" lon="-2.540280000">
        <ele>388.00</ele>
        <time>2017-02-11T06:46:36Z</time>
      </trkpt>
      <trkpt lat="42.482758000" lon="-2.540295000">
        <ele>387.90</ele>
        <time>2017-02-11T06:46:37Z</time>
      </trkpt>
      <trkpt lat="42.482796000" lon="-2.540307000">
        <ele>387.80</ele>
        <time>2017-02-11T06:46:38Z</time>
      </trkpt>
      <trkpt lat="42.482826000" lon="-2.540338000">
        <ele>387.70</ele>
        <time>2017-02-11T06:46:39Z</time>
      </trkpt>
      <trkpt lat="42.482853000" lon="-2.540379000">
        <ele>387.70</ele>
        <time>2017-02-11T06:46:40Z</time>
      </trkpt>
      <trkpt lat="42.482876000" lon="-2.540420000">
        <ele>387.70</ele>
        <time>2017-02-11T06:46:41Z</time>
      </trkpt>
      <trkpt lat="42.482895000" lon="-2.540464000">
        <ele>387.60</ele>
        <time>2017-02-11T06:46:42Z</time>
      </trkpt>
      <trkpt lat="42.482906000" lon="-2.540515000">
        <ele>387.50</ele>
        <time>2017-02-11T06:46:43Z</time>
      </trkpt>
      <trkpt lat="42.482915000" lon="-2.540570000">
        <ele>387.60</ele>
        <time>2017-02-11T06:46:44Z</time>
      </trkpt>
      <trkpt lat="42.482919000" lon="-2.540627000">
        <ele>387.70</ele>
        <time>2017-02-11T06:46:45Z</time>
      </trkpt>
      <trkpt lat="42.482923000" lon="-2.540682000">
        <ele>387.80</ele>
        <time>2017-02-11T06:46:46Z</time>
      </trkpt>
      <trkpt lat="42.482926000" lon="-2.540740000">
        <ele>387.80</ele>
        <time>2017-02-11T06:46:47Z</time>
      </trkpt>
      <trkpt lat="42.482929000" lon="-2.540798000">
        <ele>387.90</ele>
        <time>2017-02-11T06:46:48Z</time>
      </trkpt>
      <trkpt lat="42.482933000" lon="-2.540852000">
        <ele>387.90</ele>
        <time>2017-02-11T06:46:49Z</time>
      </trkpt>
      <trkpt lat="42.482937000" lon="-2.540910000">
        <ele>387.90</ele>
        <time>2017-02-11T06:46:50Z</time>
      </trkpt>
      <trkpt lat="42.482943000" lon="-2.540964000">
        <ele>387.80</ele>
        <time>2017-02-11T06:46:51Z</time>
      </trkpt>
      <trkpt lat="42.482950000" lon="-2.541017000">
        <ele>387.70</ele>
        <time>2017-02-11T06:46:52Z</time>
      </trkpt>
      <trkpt lat="42.482953000" lon="-2.541078000">
        <ele>387.60</ele>
        <time>2017-02-11T06:46:53Z</time>
      </trkpt>
      <trkpt lat="42.482959000" lon="-2.541136000">
        <ele>387.60</ele>
        <time>2017-02-11T06:46:54Z</time>
      </trkpt>
      <trkpt lat="42.482960000" lon="-2.541194000">
        <ele>387.70</ele>
        <time>2017-02-11T06:46:55Z</time>
      </trkpt>
      <trkpt lat="42.482965000" lon="-2.541247000">
        <ele>387.60</ele>
        <time>2017-02-11T06:46:56Z</time>
      </trkpt>
      <trkpt lat="42.482968000" lon="-2.541304000">
        <ele>387.50</ele>
        <time>2017-02-11T06:46:57Z</time>
      </trkpt>
      <trkpt lat="42.482968000" lon="-2.541364000">
        <ele>387.60</ele>
        <time>2017-02-11T06:46:58Z</time>
      </trkpt>
      <trkpt lat="42.482968000" lon="-2.541421000">
        <ele>387.60</ele>
        <time>2017-02-11T06:46:59Z</time>
      </trkpt>
      <trkpt lat="42.482966000" lon="-2.541476000">
        <ele>387.50</ele>
        <time>2017-02-11T06:47:00Z</time>
      </trkpt>
      <trkpt lat="42.482965000" lon="-2.541539000">
        <ele>387.50</ele>
        <time>2017-02-11T06:47:01Z</time>
      </trkpt>
      <trkpt lat="42.482963000" lon="-2.541600000">
        <ele>387.40</ele>
        <time>2017-02-11T06:47:02Z</time>
      </trkpt>
      <trkpt lat="42.482966000" lon="-2.541659000">
        <ele>387.40</ele>
        <time>2017-02-11T06:47:03Z</time>
      </trkpt>
      <trkpt lat="42.482977000" lon="-2.541712000">
        <ele>387.40</ele>
        <time>2017-02-11T06:47:04Z</time>
      </trkpt>
      <trkpt lat="42.482993000" lon="-2.541765000">
        <ele>387.30</ele>
        <time>2017-02-11T06:47:05Z</time>
      </trkpt>
      <trkpt lat="42.483007000" lon="-2.541818000">
        <ele>387.40</ele>
        <time>2017-02-11T06:47:06Z</time>
      </trkpt>
      <trkpt lat="42.483023000" lon="-2.541873000">
        <ele>387.40</ele>
        <time>2017-02-11T06:47:07Z</time>
      </trkpt>
      <trkpt lat="42.483031000" lon="-2.541930000">
        <ele>387.50</ele>
        <time>2017-02-11T06:47:08Z</time>
      </trkpt>
      <trkpt lat="42.483041000" lon="-2.541984000">
        <ele>387.60</ele>
        <time>2017-02-11T06:47:09Z</time>
      </trkpt>
      <trkpt lat="42.483050000" lon="-2.542038000">
        <ele>387.70</ele>
        <time>2017-02-11T06:47:10Z</time>
      </trkpt>
      <trkpt lat="42.483059000" lon="-2.542096000">
        <ele>387.90</ele>
        <time>2017-02-11T06:47:11Z</time>
      </trkpt>
      <trkpt lat="42.483066000" lon="-2.542207000">
        <ele>388.00</ele>
        <time>2017-02-11T06:47:13Z</time>
      </trkpt>
      <trkpt lat="42.483068000" lon="-2.542263000">
        <ele>388.00</ele>
        <time>2017-02-11T06:47:14Z</time>
      </trkpt>
      <trkpt lat="42.483070000" lon="-2.542323000">
        <ele>388.00</ele>
        <time>2017-02-11T06:47:15Z</time>
      </trkpt>
      <trkpt lat="42.483077000" lon="-2.542385000">
        <ele>388.00</ele>
        <time>2017-02-11T06:47:16Z</time>
      </trkpt>
      <trkpt lat="42.483087000" lon="-2.542440000">
        <ele>388.00</ele>
        <time>2017-02-11T06:47:17Z</time>
      </trkpt>
      <trkpt lat="42.483094000" lon="-2.542499000">
        <ele>388.00</ele>
        <time>2017-02-11T06:47:18Z</time>
      </trkpt>
      <trkpt lat="42.483097000" lon="-2.542557000">
        <ele>388.00</ele>
        <time>2017-02-11T06:47:19Z</time>
      </trkpt>
      <trkpt lat="42.483106000" lon="-2.542616000">
        <ele>388.00</ele>
        <time>2017-02-11T06:47:20Z</time>
      </trkpt>
      <trkpt lat="42.483116000" lon="-2.542672000">
        <ele>388.00</ele>
        <time>2017-02-11T06:47:21Z</time>
      </trkpt>
      <trkpt lat="42.483123000" lon="-2.542725000">
        <ele>387.90</ele>
        <time>2017-02-11T06:47:22Z</time>
      </trkpt>
      <trkpt lat="42.483129000" lon="-2.542783000">
        <ele>387.90</ele>
        <time>2017-02-11T06:47:23Z</time>
      </trkpt>
      <trkpt lat="42.483134000" lon="-2.542844000">
        <ele>387.60</ele>
        <time>2017-02-11T06:47:24Z</time>
      </trkpt>
      <trkpt lat="42.483141000" lon="-2.542903000">
        <ele>387.50</ele>
        <time>2017-02-11T06:47:25Z</time>
      </trkpt>
      <trkpt lat="42.483149000" lon="-2.542959000">
        <ele>387.40</ele>
        <time>2017-02-11T06:47:26Z</time>
      </trkpt>
      <trkpt lat="42.483157000" lon="-2.543022000">
        <ele>387.30</ele>
        <time>2017-02-11T06:47:27Z</time>
      </trkpt>
      <trkpt lat="42.483166000" lon="-2.543085000">
        <ele>387.30</ele>
        <time>2017-02-11T06:47:28Z</time>
      </trkpt>
      <trkpt lat="42.483175000" lon="-2.543149000">
        <ele>387.40</ele>
        <time>2017-02-11T06:47:29Z</time>
      </trkpt>
      <trkpt lat="42.483185000" lon="-2.543212000">
        <ele>387.40</ele>
        <time>2017-02-11T06:47:30Z</time>
      </trkpt>
      <trkpt lat="42.483195000" lon="-2.543272000">
        <ele>387.50</ele>
        <time>2017-02-11T06:47:31Z</time>
      </trkpt>
      <trkpt lat="42.483202000" lon="-2.543338000">
        <ele>387.30</ele>
        <time>2017-02-11T06:47:32Z</time>
      </trkpt>
      <trkpt lat="42.483211000" lon="-2.543397000">
        <ele>387.30</ele>
        <time>2017-02-11T06:47:33Z</time>
      </trkpt>
      <trkpt lat="42.483219000" lon="-2.543460000">
        <ele>387.10</ele>
        <time>2017-02-11T06:47:34Z</time>
      </trkpt>
      <trkpt lat="42.483229000" lon="-2.543527000">
        <ele>386.90</ele>
        <time>2017-02-11T06:47:35Z</time>
      </trkpt>
      <trkpt lat="42.483238000" lon="-2.543594000">
        <ele>386.90</ele>
        <time>2017-02-11T06:47:36Z</time>
      </trkpt>
      <trkpt lat="42.483246000" lon="-2.543659000">
        <ele>387.00</ele>
        <time>2017-02-11T06:47:37Z</time>
      </trkpt>
      <trkpt lat="42.483253000" lon="-2.543724000">
        <ele>386.80</ele>
        <time>2017-02-11T06:47:38Z</time>
      </trkpt>
      <trkpt lat="42.483262000" lon="-2.543787000">
        <ele>386.80</ele>
        <time>2017-02-11T06:47:39Z</time>
      </trkpt>
      <trkpt lat="42.483269000" lon="-2.543851000">
        <ele>386.60</ele>
        <time>2017-02-11T06:47:40Z</time>
      </trkpt>
      <trkpt lat="42.483277000" lon="-2.543915000">
        <ele>386.40</ele>
        <time>2017-02-11T06:47:41Z</time>
      </trkpt>
      <trkpt lat="42.483284000" lon="-2.543979000">
        <ele>386.30</ele>
        <time>2017-02-11T06:47:42Z</time>
      </trkpt>
      <trkpt lat="42.483290000" lon="-2.544041000">
        <ele>386.20</ele>
        <time>2017-02-11T06:47:43Z</time>
      </trkpt>
      <trkpt lat="42.483295000" lon="-2.544099000">
        <ele>386.20</ele>
        <time>2017-02-11T06:47:44Z</time>
      </trkpt>
      <trkpt lat="42.483301000" lon="-2.544157000">
        <ele>386.20</ele>
        <time>2017-02-11T06:47:45Z</time>
      </trkpt>
      <trkpt lat="42.483305000" lon="-2.544219000">
        <ele>386.20</ele>
        <time>2017-02-11T06:47:46Z</time>
      </trkpt>
      <trkpt lat="42.483309000" lon="-2.544281000">
        <ele>386.20</ele>
        <time>2017-02-11T06:47:47Z</time>
      </trkpt>
      <trkpt lat="42.483314000" lon="-2.544342000">
        <ele>386.10</ele>
        <time>2017-02-11T06:47:48Z</time>
      </trkpt>
      <trkpt lat="42.483320000" lon="-2.544404000">
        <ele>386.00</ele>
        <time>2017-02-11T06:47:49Z</time>
      </trkpt>
      <trkpt lat="42.483323000" lon="-2.544468000">
        <ele>386.00</ele>
        <time>2017-02-11T06:47:50Z</time>
      </trkpt>
      <trkpt lat="42.483328000" lon="-2.544533000">
        <ele>385.90</ele>
        <time>2017-02-11T06:47:51Z</time>
      </trkpt>
      <trkpt lat="42.483336000" lon="-2.544594000">
        <ele>385.90</ele>
        <time>2017-02-11T06:47:52Z</time>
      </trkpt>
      <trkpt lat="42.483341000" lon="-2.544652000">
        <ele>385.90</ele>
        <time>2017-02-11T06:47:53Z</time>
      </trkpt>
      <trkpt lat="42.483349000" lon="-2.544712000">
        <ele>385.90</ele>
        <time>2017-02-11T06:47:54Z</time>
      </trkpt>
      <trkpt lat="42.483353000" lon="-2.544778000">
        <ele>385.80</ele>
        <time>2017-02-11T06:47:55Z</time>
      </trkpt>
      <trkpt lat="42.483361000" lon="-2.544840000">
        <ele>385.80</ele>
        <time>2017-02-11T06:47:56Z</time>
      </trkpt>
      <trkpt lat="42.483368000" lon="-2.544899000">
        <ele>385.80</ele>
        <time>2017-02-11T06:47:57Z</time>
      </trkpt>
      <trkpt lat="42.483371000" lon="-2.544962000">
        <ele>385.90</ele>
        <time>2017-02-11T06:47:58Z</time>
      </trkpt>
      <trkpt lat="42.483371000" lon="-2.545022000">
        <ele>385.90</ele>
        <time>2017-02-11T06:47:59Z</time>
      </trkpt>
      <trkpt lat="42.483372000" lon="-2.545084000">
        <ele>386.00</ele>
        <time>2017-02-11T06:48:00Z</time>
      </trkpt>
      <trkpt lat="42.483371000" lon="-2.545144000">
        <ele>386.00</ele>
        <time>2017-02-11T06:48:01Z</time>
      </trkpt>
      <trkpt lat="42.483367000" lon="-2.545211000">
        <ele>386.00</ele>
        <time>2017-02-11T06:48:02Z</time>
      </trkpt>
      <trkpt lat="42.483360000" lon="-2.545275000">
        <ele>386.00</ele>
        <time>2017-02-11T06:48:03Z</time>
      </trkpt>
      <trkpt lat="42.483350000" lon="-2.545341000">
        <ele>385.80</ele>
        <time>2017-02-11T06:48:04Z</time>
      </trkpt>
      <trkpt lat="42.483342000" lon="-2.545409000">
        <ele>385.60</ele>
        <time>2017-02-11T06:48:05Z</time>
      </trkpt>
      <trkpt lat="42.483333000" lon="-2.545475000">
        <ele>385.40</ele>
        <time>2017-02-11T06:48:06Z</time>
      </trkpt>
      <trkpt lat="42.483327000" lon="-2.545536000">
        <ele>385.30</ele>
        <time>2017-02-11T06:48:07Z</time>
      </trkpt>
      <trkpt lat="42.483324000" lon="-2.545599000">
        <ele>385.40</ele>
        <time>2017-02-11T06:48:08Z</time>
      </trkpt>
      <trkpt lat="42.483317000" lon="-2.545656000">
        <ele>385.40</ele>
        <time>2017-02-11T06:48:09Z</time>
      </trkpt>
      <trkpt lat="42.483310000" lon="-2.545720000">
        <ele>385.50</ele>
        <time>2017-02-11T06:48:10Z</time>
      </trkpt>
      <trkpt lat="42.483306000" lon="-2.545784000">
        <ele>385.50</ele>
        <time>2017-02-11T06:48:11Z</time>
      </trkpt>
      <trkpt lat="42.483299000" lon="-2.545850000">
        <ele>385.40</ele>
        <time>2017-02-11T06:48:12Z</time>
      </trkpt>
      <trkpt lat="42.483283000" lon="-2.545974000">
        <ele>385.40</ele>
        <time>2017-02-11T06:48:14Z</time>
      </trkpt>
      <trkpt lat="42.483278000" lon="-2.546038000">
        <ele>385.30</ele>
        <time>2017-02-11T06:48:15Z</time>
      </trkpt>
      <trkpt lat="42.483272000" lon="-2.546095000">
        <ele>385.50</ele>
        <time>2017-02-11T06:48:16Z</time>
      </trkpt>
      <trkpt lat="42.483264000" lon="-2.546156000">
        <ele>385.50</ele>
        <time>2017-02-11T06:48:17Z</time>
      </trkpt>
      <trkpt lat="42.483258000" lon="-2.546219000">
        <ele>385.70</ele>
        <time>2017-02-11T06:48:18Z</time>
      </trkpt>
      <trkpt lat="42.483254000" lon="-2.546282000">
        <ele>385.90</ele>
        <time>2017-02-11T06:48:19Z</time>
      </trkpt>
      <trkpt lat="42.483251000" lon="-2.546342000">
        <ele>386.00</ele>
        <time>2017-02-11T06:48:20Z</time>
      </trkpt>
      <trkpt lat="42.483244000" lon="-2.546404000">
        <ele>386.20</ele>
        <time>2017-02-11T06:48:21Z</time>
      </trkpt>
      <trkpt lat="42.483238000" lon="-2.546468000">
        <ele>386.30</ele>
        <time>2017-02-11T06:48:22Z</time>
      </trkpt>
      <trkpt lat="42.483232000" lon="-2.546531000">
        <ele>386.30</ele>
        <time>2017-02-11T06:48:23Z</time>
      </trkpt>
      <trkpt lat="42.483227000" lon="-2.546597000">
        <ele>386.40</ele>
        <time>2017-02-11T06:48:24Z</time>
      </trkpt>
      <trkpt lat="42.483222000" lon="-2.546658000">
        <ele>386.40</ele>
        <time>2017-02-11T06:48:25Z</time>
      </trkpt>
      <trkpt lat="42.483219000" lon="-2.546721000">
        <ele>386.50</ele>
        <time>2017-02-11T06:48:26Z</time>
      </trkpt>
      <trkpt lat="42.483215000" lon="-2.546784000">
        <ele>386.50</ele>
        <time>2017-02-11T06:48:27Z</time>
      </trkpt>
      <trkpt lat="42.483210000" lon="-2.546848000">
        <ele>386.50</ele>
        <time>2017-02-11T06:48:28Z</time>
      </trkpt>
      <trkpt lat="42.483205000" lon="-2.546910000">
        <ele>386.40</ele>
        <time>2017-02-11T06:48:29Z</time>
      </trkpt>
      <trkpt lat="42.483201000" lon="-2.546973000">
        <ele>386.40</ele>
        <time>2017-02-11T06:48:30Z</time>
      </trkpt>
      <trkpt lat="42.483197000" lon="-2.547036000">
        <ele>386.40</ele>
        <time>2017-02-11T06:48:31Z</time>
      </trkpt>
      <trkpt lat="42.483191000" lon="-2.547099000">
        <ele>386.40</ele>
        <time>2017-02-11T06:48:32Z</time>
      </trkpt>
      <trkpt lat="42.483188000" lon="-2.547163000">
        <ele>386.40</ele>
        <time>2017-02-11T06:48:33Z</time>
      </trkpt>
      <trkpt lat="42.483185000" lon="-2.547225000">
        <ele>386.50</ele>
        <time>2017-02-11T06:48:34Z</time>
      </trkpt>
      <trkpt lat="42.483178000" lon="-2.547290000">
        <ele>386.60</ele>
        <time>2017-02-11T06:48:35Z</time>
      </trkpt>
      <trkpt lat="42.483174000" lon="-2.547355000">
        <ele>386.80</ele>
        <time>2017-02-11T06:48:36Z</time>
      </trkpt>
      <trkpt lat="42.483169000" lon="-2.547419000">
        <ele>386.90</ele>
        <time>2017-02-11T06:48:37Z</time>
      </trkpt>
      <trkpt lat="42.483165000" lon="-2.547483000">
        <ele>387.00</ele>
        <time>2017-02-11T06:48:38Z</time>
      </trkpt>
      <trkpt lat="42.483159000" lon="-2.547546000">
        <ele>387.10</ele>
        <time>2017-02-11T06:48:39Z</time>
      </trkpt>
      <trkpt lat="42.483153000" lon="-2.547612000">
        <ele>387.00</ele>
        <time>2017-02-11T06:48:40Z</time>
      </trkpt>
      <trkpt lat="42.483148000" lon="-2.547676000">
        <ele>386.90</ele>
        <time>2017-02-11T06:48:41Z</time>
      </trkpt>
      <trkpt lat="42.483140000" lon="-2.547739000">
        <ele>386.80</ele>
        <time>2017-02-11T06:48:42Z</time>
      </trkpt>
      <trkpt lat="42.483131000" lon="-2.547801000">
        <ele>386.70</ele>
        <time>2017-02-11T06:48:43Z</time>
      </trkpt>
      <trkpt lat="42.483121000" lon="-2.547863000">
        <ele>386.70</ele>
        <time>2017-02-11T06:48:44Z</time>
      </trkpt>
      <trkpt lat="42.483113000" lon="-2.547928000">
        <ele>386.70</ele>
        <time>2017-02-11T06:48:45Z</time>
      </trkpt>
      <trkpt lat="42.483104000" lon="-2.547990000">
        <ele>386.70</ele>
        <time>2017-02-11T06:48:46Z</time>
      </trkpt>
      <trkpt lat="42.483096000" lon="-2.548052000">
        <ele>386.60</ele>
        <time>2017-02-11T06:48:47Z</time>
      </trkpt>
      <trkpt lat="42.483087000" lon="-2.548114000">
        <ele>386.70</ele>
        <time>2017-02-11T06:48:48Z</time>
      </trkpt>
      <trkpt lat="42.483078000" lon="-2.548176000">
        <ele>386.70</ele>
        <time>2017-02-11T06:48:49Z</time>
      </trkpt>
      <trkpt lat="42.483074000" lon="-2.548236000">
        <ele>386.70</ele>
        <time>2017-02-11T06:48:50Z</time>
      </trkpt>
      <trkpt lat="42.483068000" lon="-2.548302000">
        <ele>386.70</ele>
        <time>2017-02-11T06:48:51Z</time>
      </trkpt>
      <trkpt lat="42.483064000" lon="-2.548367000">
        <ele>386.70</ele>
        <time>2017-02-11T06:48:52Z</time>
      </trkpt>
      <trkpt lat="42.483058000" lon="-2.548434000">
        <ele>386.70</ele>
        <time>2017-02-11T06:48:53Z</time>
      </trkpt>
      <trkpt lat="42.483055000" lon="-2.548506000">
        <ele>386.70</ele>
        <time>2017-02-11T06:48:54Z</time>
      </trkpt>
      <trkpt lat="42.483052000" lon="-2.548576000">
        <ele>386.70</ele>
        <time>2017-02-11T06:48:55Z</time>
      </trkpt>
      <trkpt lat="42.483045000" lon="-2.548647000">
        <ele>386.30</ele>
        <time>2017-02-11T06:48:56Z</time>
      </trkpt>
      <trkpt lat="42.483041000" lon="-2.548718000">
        <ele>386.00</ele>
        <time>2017-02-11T06:48:57Z</time>
      </trkpt>
      <trkpt lat="42.483033000" lon="-2.548791000">
        <ele>385.80</ele>
        <time>2017-02-11T06:48:58Z</time>
      </trkpt>
      <trkpt lat="42.483026000" lon="-2.548867000">
        <ele>385.60</ele>
        <time>2017-02-11T06:48:59Z</time>
      </trkpt>
      <trkpt lat="42.483020000" lon="-2.548944000">
        <ele>385.30</ele>
        <time>2017-02-11T06:49:00Z</time>
      </trkpt>
      <trkpt lat="42.483013000" lon="-2.549022000">
        <ele>385.00</ele>
        <time>2017-02-11T06:49:01Z</time>
      </trkpt>
      <trkpt lat="42.483005000" lon="-2.549098000">
        <ele>385.10</ele>
        <time>2017-02-11T06:49:02Z</time>
      </trkpt>
      <trkpt lat="42.482995000" lon="-2.549171000">
        <ele>385.20</ele>
        <time>2017-02-11T06:49:03Z</time>
      </trkpt>
      <trkpt lat="42.482982000" lon="-2.549244000">
        <ele>385.00</ele>
        <time>2017-02-11T06:49:04Z</time>
      </trkpt>
      <trkpt lat="42.482968000" lon="-2.549316000">
        <ele>384.90</ele>
        <time>2017-02-11T06:49:05Z</time>
      </trkpt>
      <trkpt lat="42.482953000" lon="-2.549387000">
        <ele>384.90</ele>
        <time>2017-02-11T06:49:06Z</time>
      </trkpt>
      <trkpt lat="42.482943000" lon="-2.549454000">
        <ele>385.00</ele>
        <time>2017-02-11T06:49:07Z</time>
      </trkpt>
      <trkpt lat="42.482927000" lon="-2.549521000">
        <ele>385.00</ele>
        <time>2017-02-11T06:49:08Z</time>
      </trkpt>
      <trkpt lat="42.482914000" lon="-2.549586000">
        <ele>385.00</ele>
        <time>2017-02-11T06:49:09Z</time>
      </trkpt>
      <trkpt lat="42.482904000" lon="-2.549651000">
        <ele>385.00</ele>
        <time>2017-02-11T06:49:10Z</time>
      </trkpt>
      <trkpt lat="42.482890000" lon="-2.549716000">
        <ele>385.00</ele>
        <time>2017-02-11T06:49:11Z</time>
      </trkpt>
      <trkpt lat="42.482877000" lon="-2.549777000">
        <ele>384.90</ele>
        <time>2017-02-11T06:49:12Z</time>
      </trkpt>
      <trkpt lat="42.482859000" lon="-2.549841000">
        <ele>384.80</ele>
        <time>2017-02-11T06:49:13Z</time>
      </trkpt>
      <trkpt lat="42.482831000" lon="-2.549958000">
        <ele>384.70</ele>
        <time>2017-02-11T06:49:15Z</time>
      </trkpt>
      <trkpt lat="42.482815000" lon="-2.550016000">
        <ele>384.70</ele>
        <time>2017-02-11T06:49:16Z</time>
      </trkpt>
      <trkpt lat="42.482805000" lon="-2.550075000">
        <ele>384.70</ele>
        <time>2017-02-11T06:49:17Z</time>
      </trkpt>
      <trkpt lat="42.482791000" lon="-2.550133000">
        <ele>384.80</ele>
        <time>2017-02-11T06:49:18Z</time>
      </trkpt>
      <trkpt lat="42.482775000" lon="-2.550189000">
        <ele>384.90</ele>
        <time>2017-02-11T06:49:19Z</time>
      </trkpt>
      <trkpt lat="42.482764000" lon="-2.550245000">
        <ele>385.10</ele>
        <time>2017-02-11T06:49:20Z</time>
      </trkpt>
      <trkpt lat="42.482755000" lon="-2.550306000">
        <ele>385.20</ele>
        <time>2017-02-11T06:49:21Z</time>
      </trkpt>
      <trkpt lat="42.482747000" lon="-2.550361000">
        <ele>385.30</ele>
        <time>2017-02-11T06:49:22Z</time>
      </trkpt>
      <trkpt lat="42.482740000" lon="-2.550419000">
        <ele>385.40</ele>
        <time>2017-02-11T06:49:23Z</time>
      </trkpt>
      <trkpt lat="42.482732000" lon="-2.550477000">
        <ele>385.50</ele>
        <time>2017-02-11T06:49:24Z</time>
      </trkpt>
      <trkpt lat="42.482726000" lon="-2.550536000">
        <ele>385.50</ele>
        <time>2017-02-11T06:49:25Z</time>
      </trkpt>
      <trkpt lat="42.482716000" lon="-2.550596000">
        <ele>385.60</ele>
        <time>2017-02-11T06:49:26Z</time>
      </trkpt>
      <trkpt lat="42.482711000" lon="-2.550654000">
        <ele>385.70</ele>
        <time>2017-02-11T06:49:27Z</time>
      </trkpt>
      <trkpt lat="42.482707000" lon="-2.550714000">
        <ele>385.80</ele>
        <time>2017-02-11T06:49:28Z</time>
      </trkpt>
      <trkpt lat="42.482706000" lon="-2.550779000">
        <ele>385.80</ele>
        <time>2017-02-11T06:49:29Z</time>
      </trkpt>
      <trkpt lat="42.482704000" lon="-2.550844000">
        <ele>386.00</ele>
        <time>2017-02-11T06:49:30Z</time>
      </trkpt>
      <trkpt lat="42.482703000" lon="-2.550909000">
        <ele>386.00</ele>
        <time>2017-02-11T06:49:31Z</time>
      </trkpt>
      <trkpt lat="42.482700000" lon="-2.550974000">
        <ele>386.10</ele>
        <time>2017-02-11T06:49:32Z</time>
      </trkpt>
      <trkpt lat="42.482700000" lon="-2.551040000">
        <ele>386.10</ele>
        <time>2017-02-11T06:49:33Z</time>
      </trkpt>
      <trkpt lat="42.482699000" lon="-2.551105000">
        <ele>386.10</ele>
        <time>2017-02-11T06:49:34Z</time>
      </trkpt>
      <trkpt lat="42.482697000" lon="-2.551171000">
        <ele>386.20</ele>
        <time>2017-02-11T06:49:35Z</time>
      </trkpt>
      <trkpt lat="42.482697000" lon="-2.551235000">
        <ele>386.10</ele>
        <time>2017-02-11T06:49:36Z</time>
      </trkpt>
      <trkpt lat="42.482695000" lon="-2.551300000">
        <ele>386.00</ele>
        <time>2017-02-11T06:49:37Z</time>
      </trkpt>
      <trkpt lat="42.482695000" lon="-2.551365000">
        <ele>386.10</ele>
        <time>2017-02-11T06:49:38Z</time>
      </trkpt>
      <trkpt lat="42.482695000" lon="-2.551428000">
        <ele>386.10</ele>
        <time>2017-02-11T06:49:39Z</time>
      </trkpt>
      <trkpt lat="42.482696000" lon="-2.551492000">
        <ele>386.20</ele>
        <time>2017-02-11T06:49:40Z</time>
      </trkpt>
      <trkpt lat="42.482698000" lon="-2.551557000">
        <ele>386.20</ele>
        <time>2017-02-11T06:49:41Z</time>
      </trkpt>
      <trkpt lat="42.482701000" lon="-2.551617000">
        <ele>386.20</ele>
        <time>2017-02-11T06:49:42Z</time>
      </trkpt>
      <trkpt lat="42.482706000" lon="-2.551680000">
        <ele>386.30</ele>
        <time>2017-02-11T06:49:43Z</time>
      </trkpt>
      <trkpt lat="42.482708000" lon="-2.551739000">
        <ele>386.10</ele>
        <time>2017-02-11T06:49:44Z</time>
      </trkpt>
      <trkpt lat="42.482707000" lon="-2.551800000">
        <ele>386.10</ele>
        <time>2017-02-11T06:49:45Z</time>
      </trkpt>
      <trkpt lat="42.482702000" lon="-2.551865000">
        <ele>386.00</ele>
        <time>2017-02-11T06:49:46Z</time>
      </trkpt>
      <trkpt lat="42.482697000" lon="-2.551928000">
        <ele>385.90</ele>
        <time>2017-02-11T06:49:47Z</time>
      </trkpt>
      <trkpt lat="42.482692000" lon="-2.551991000">
        <ele>385.80</ele>
        <time>2017-02-11T06:49:48Z</time>
      </trkpt>
      <trkpt lat="42.482686000" lon="-2.552058000">
        <ele>385.80</ele>
        <time>2017-02-11T06:49:49Z</time>
      </trkpt>
      <trkpt lat="42.482684000" lon="-2.552129000">
        <ele>385.70</ele>
        <time>2017-02-11T06:49:50Z</time>
      </trkpt>
      <trkpt lat="42.482684000" lon="-2.552199000">
        <ele>385.60</ele>
        <time>2017-02-11T06:49:51Z</time>
      </trkpt>
      <trkpt lat="42.482686000" lon="-2.552271000">
        <ele>385.40</ele>
        <time>2017-02-11T06:49:52Z</time>
      </trkpt>
      <trkpt lat="42.482690000" lon="-2.552340000">
        <ele>385.30</ele>
        <time>2017-02-11T06:49:53Z</time>
      </trkpt>
      <trkpt lat="42.482696000" lon="-2.552407000">
        <ele>385.20</ele>
        <time>2017-02-11T06:49:54Z</time>
      </trkpt>
      <trkpt lat="42.482705000" lon="-2.552476000">
        <ele>385.10</ele>
        <time>2017-02-11T06:49:55Z</time>
      </trkpt>
      <trkpt lat="42.482719000" lon="-2.552541000">
        <ele>385.10</ele>
        <time>2017-02-11T06:49:56Z</time>
      </trkpt>
      <trkpt lat="42.482734000" lon="-2.552604000">
        <ele>385.00</ele>
        <time>2017-02-11T06:49:57Z</time>
      </trkpt>
      <trkpt lat="42.482749000" lon="-2.552666000">
        <ele>385.00</ele>
        <time>2017-02-11T06:49:58Z</time>
      </trkpt>
      <trkpt lat="42.482766000" lon="-2.552730000">
        <ele>384.90</ele>
        <time>2017-02-11T06:49:59Z</time>
      </trkpt>
      <trkpt lat="42.482787000" lon="-2.552791000">
        <ele>384.90</ele>
        <time>2017-02-11T06:50:00Z</time>
      </trkpt>
      <trkpt lat="42.482807000" lon="-2.552850000">
        <ele>384.90</ele>
        <time>2017-02-11T06:50:01Z</time>
      </trkpt>
      <trkpt lat="42.482824000" lon="-2.552913000">
        <ele>384.80</ele>
        <time>2017-02-11T06:50:02Z</time>
      </trkpt>
      <trkpt lat="42.482845000" lon="-2.552977000">
        <ele>384.80</ele>
        <time>2017-02-11T06:50:03Z</time>
      </trkpt>
      <trkpt lat="42.482867000" lon="-2.553043000">
        <ele>384.80</ele>
        <time>2017-02-11T06:50:04Z</time>
      </trkpt>
      <trkpt lat="42.482893000" lon="-2.553109000">
        <ele>384.70</ele>
        <time>2017-02-11T06:50:05Z</time>
      </trkpt>
      <trkpt lat="42.482916000" lon="-2.553178000">
        <ele>384.80</ele>
        <time>2017-02-11T06:50:06Z</time>
      </trkpt>
      <trkpt lat="42.482939000" lon="-2.553237000">
        <ele>384.80</ele>
        <time>2017-02-11T06:50:07Z</time>
      </trkpt>
      <trkpt lat="42.482963000" lon="-2.553294000">
        <ele>384.80</ele>
        <time>2017-02-11T06:50:08Z</time>
      </trkpt>
      <trkpt lat="42.482989000" lon="-2.553349000">
        <ele>384.80</ele>
        <time>2017-02-11T06:50:09Z</time>
      </trkpt>
      <trkpt lat="42.483015000" lon="-2.553406000">
        <ele>385.00</ele>
        <time>2017-02-11T06:50:10Z</time>
      </trkpt>
      <trkpt lat="42.483047000" lon="-2.553459000">
        <ele>385.10</ele>
        <time>2017-02-11T06:50:11Z</time>
      </trkpt>
      <trkpt lat="42.483073000" lon="-2.553519000">
        <ele>385.20</ele>
        <time>2017-02-11T06:50:12Z</time>
      </trkpt>
      <trkpt lat="42.483094000" lon="-2.553575000">
        <ele>385.30</ele>
        <time>2017-02-11T06:50:13Z</time>
      </trkpt>
      <trkpt lat="42.483112000" lon="-2.553636000">
        <ele>385.40</ele>
        <time>2017-02-11T06:50:14Z</time>
      </trkpt>
      <trkpt lat="42.483156000" lon="-2.553764000">
        <ele>385.40</ele>
        <time>2017-02-11T06:50:16Z</time>
      </trkpt>
      <trkpt lat="42.483177000" lon="-2.553827000">
        <ele>385.50</ele>
        <time>2017-02-11T06:50:17Z</time>
      </trkpt>
      <trkpt lat="42.483197000" lon="-2.553900000">
        <ele>385.50</ele>
        <time>2017-02-11T06:50:18Z</time>
      </trkpt>
      <trkpt lat="42.483220000" lon="-2.553965000">
        <ele>385.50</ele>
        <time>2017-02-11T06:50:19Z</time>
      </trkpt>
      <trkpt lat="42.483241000" lon="-2.554036000">
        <ele>385.30</ele>
        <time>2017-02-11T06:50:20Z</time>
      </trkpt>
      <trkpt lat="42.483263000" lon="-2.554109000">
        <ele>385.20</ele>
        <time>2017-02-11T06:50:21Z</time>
      </trkpt>
      <trkpt lat="42.483288000" lon="-2.554180000">
        <ele>385.10</ele>
        <time>2017-02-11T06:50:22Z</time>
      </trkpt>
      <trkpt lat="42.483313000" lon="-2.554251000">
        <ele>385.00</ele>
        <time>2017-02-11T06:50:23Z</time>
      </trkpt>
      <trkpt lat="42.483337000" lon="-2.554318000">
        <ele>384.80</ele>
        <time>2017-02-11T06:50:24Z</time>
      </trkpt>
      <trkpt lat="42.483357000" lon="-2.554390000">
        <ele>384.60</ele>
        <time>2017-02-11T06:50:25Z</time>
      </trkpt>
      <trkpt lat="42.483376000" lon="-2.554460000">
        <ele>384.40</ele>
        <time>2017-02-11T06:50:26Z</time>
      </trkpt>
      <trkpt lat="42.483398000" lon="-2.554530000">
        <ele>384.30</ele>
        <time>2017-02-11T06:50:27Z</time>
      </trkpt>
      <trkpt lat="42.483416000" lon="-2.554604000">
        <ele>384.20</ele>
        <time>2017-02-11T06:50:28Z</time>
      </trkpt>
      <trkpt lat="42.483431000" lon="-2.554676000">
        <ele>384.20</ele>
        <time>2017-02-11T06:50:29Z</time>
      </trkpt>
      <trkpt lat="42.483449000" lon="-2.554742000">
        <ele>384.10</ele>
        <time>2017-02-11T06:50:30Z</time>
      </trkpt>
      <trkpt lat="42.483470000" lon="-2.554807000">
        <ele>384.00</ele>
        <time>2017-02-11T06:50:31Z</time>
      </trkpt>
      <trkpt lat="42.483493000" lon="-2.554872000">
        <ele>384.00</ele>
        <time>2017-02-11T06:50:32Z</time>
      </trkpt>
      <trkpt lat="42.483521000" lon="-2.554937000">
        <ele>384.00</ele>
        <time>2017-02-11T06:50:33Z</time>
      </trkpt>
      <trkpt lat="42.483550000" lon="-2.555003000">
        <ele>384.00</ele>
        <time>2017-02-11T06:50:34Z</time>
      </trkpt>
      <trkpt lat="42.483581000" lon="-2.555068000">
        <ele>383.90</ele>
        <time>2017-02-11T06:50:35Z</time>
      </trkpt>
      <trkpt lat="42.483612000" lon="-2.555132000">
        <ele>384.00</ele>
        <time>2017-02-11T06:50:36Z</time>
      </trkpt>
      <trkpt lat="42.483645000" lon="-2.555195000">
        <ele>384.10</ele>
        <time>2017-02-11T06:50:37Z</time>
      </trkpt>
      <trkpt lat="42.483679000" lon="-2.555249000">
        <ele>384.20</ele>
        <time>2017-02-11T06:50:38Z</time>
      </trkpt>
      <trkpt lat="42.483710000" lon="-2.555310000">
        <ele>384.20</ele>
        <time>2017-02-11T06:50:39Z</time>
      </trkpt>
      <trkpt lat="42.483737000" lon="-2.555375000">
        <ele>384.20</ele>
        <time>2017-02-11T06:50:40Z</time>
      </trkpt>
      <trkpt lat="42.483765000" lon="-2.555436000">
        <ele>384.30</ele>
        <time>2017-02-11T06:50:41Z</time>
      </trkpt>
      <trkpt lat="42.483792000" lon="-2.555494000">
        <ele>384.30</ele>
        <time>2017-02-11T06:50:42Z</time>
      </trkpt>
      <trkpt lat="42.483816000" lon="-2.555551000">
        <ele>384.30</ele>
        <time>2017-02-11T06:50:43Z</time>
      </trkpt>
      <trkpt lat="42.483841000" lon="-2.555606000">
        <ele>384.40</ele>
        <time>2017-02-11T06:50:44Z</time>
      </trkpt>
      <trkpt lat="42.483868000" lon="-2.555659000">
        <ele>384.50</ele>
        <time>2017-02-11T06:50:45Z</time>
      </trkpt>
      <trkpt lat="42.483899000" lon="-2.555705000">
        <ele>384.50</ele>
        <time>2017-02-11T06:50:46Z</time>
      </trkpt>
      <trkpt lat="42.483933000" lon="-2.555759000">
        <ele>384.60</ele>
        <time>2017-02-11T06:50:47Z</time>
      </trkpt>
      <trkpt lat="42.483968000" lon="-2.555811000">
        <ele>384.50</ele>
        <time>2017-02-11T06:50:48Z</time>
      </trkpt>
      <trkpt lat="42.484004000" lon="-2.555868000">
        <ele>384.40</ele>
        <time>2017-02-11T06:50:49Z</time>
      </trkpt>
      <trkpt lat="42.484035000" lon="-2.555930000">
        <ele>384.30</ele>
        <time>2017-02-11T06:50:50Z</time>
      </trkpt>
      <trkpt lat="42.484065000" lon="-2.555988000">
        <ele>384.30</ele>
        <time>2017-02-11T06:50:51Z</time>
      </trkpt>
      <trkpt lat="42.484096000" lon="-2.556047000">
        <ele>384.30</ele>
        <time>2017-02-11T06:50:52Z</time>
      </trkpt>
      <trkpt lat="42.484129000" lon="-2.556107000">
        <ele>384.20</ele>
        <time>2017-02-11T06:50:53Z</time>
      </trkpt>
      <trkpt lat="42.484159000" lon="-2.556167000">
        <ele>384.20</ele>
        <time>2017-02-11T06:50:54Z</time>
      </trkpt>
      <trkpt lat="42.484191000" lon="-2.556225000">
        <ele>384.20</ele>
        <time>2017-02-11T06:50:55Z</time>
      </trkpt>
      <trkpt lat="42.484221000" lon="-2.556285000">
        <ele>384.20</ele>
        <time>2017-02-11T06:50:56Z</time>
      </trkpt>
      <trkpt lat="42.484248000" lon="-2.556345000">
        <ele>384.20</ele>
        <time>2017-02-11T06:50:57Z</time>
      </trkpt>
      <trkpt lat="42.484273000" lon="-2.556404000">
        <ele>384.20</ele>
        <time>2017-02-11T06:50:58Z</time>
      </trkpt>
      <trkpt lat="42.484297000" lon="-2.556464000">
        <ele>384.20</ele>
        <time>2017-02-11T06:50:59Z</time>
      </trkpt>
      <trkpt lat="42.484318000" lon="-2.556524000">
        <ele>384.00</ele>
        <time>2017-02-11T06:51:00Z</time>
      </trkpt>
      <trkpt lat="42.484339000" lon="-2.556582000">
        <ele>383.90</ele>
        <time>2017-02-11T06:51:01Z</time>
      </trkpt>
      <trkpt lat="42.484355000" lon="-2.556640000">
        <ele>383.90</ele>
        <time>2017-02-11T06:51:02Z</time>
      </trkpt>
      <trkpt lat="42.484366000" lon="-2.556693000">
        <ele>383.80</ele>
        <time>2017-02-11T06:51:03Z</time>
      </trkpt>
      <trkpt lat="42.484372000" lon="-2.556748000">
        <ele>383.80</ele>
        <time>2017-02-11T06:51:04Z</time>
      </trkpt>
      <trkpt lat="42.484375000" lon="-2.556808000">
        <ele>383.70</ele>
        <time>2017-02-11T06:51:05Z</time>
      </trkpt>
      <trkpt lat="42.484373000" lon="-2.556868000">
        <ele>383.70</ele>
        <time>2017-02-11T06:51:06Z</time>
      </trkpt>
      <trkpt lat="42.484364000" lon="-2.556929000">
        <ele>383.70</ele>
        <time>2017-02-11T06:51:07Z</time>
      </trkpt>
      <trkpt lat="42.484352000" lon="-2.556994000">
        <ele>383.70</ele>
        <time>2017-02-11T06:51:08Z</time>
      </trkpt>
      <trkpt lat="42.484331000" lon="-2.557056000">
        <ele>383.70</ele>
        <time>2017-02-11T06:51:09Z</time>
      </trkpt>
      <trkpt lat="42.484305000" lon="-2.557109000">
        <ele>383.60</ele>
        <time>2017-02-11T06:51:10Z</time>
      </trkpt>
      <trkpt lat="42.484271000" lon="-2.557153000">
        <ele>383.50</ele>
        <time>2017-02-11T06:51:11Z</time>
      </trkpt>
      <trkpt lat="42.484242000" lon="-2.557192000">
        <ele>383.50</ele>
        <time>2017-02-11T06:51:12Z</time>
      </trkpt>
      <trkpt lat="42.484213000" lon="-2.557229000">
        <ele>383.50</ele>
        <time>2017-02-11T06:51:13Z</time>
      </trkpt>
      <trkpt lat="42.484186000" lon="-2.557263000">
        <ele>383.50</ele>
        <time>2017-02-11T06:51:14Z</time>
      </trkpt>
      <trkpt lat="42.484161000" lon="-2.557295000">
        <ele>383.50</ele>
        <time>2017-02-11T06:51:15Z</time>
      </trkpt>
      <trkpt lat="42.484081000" lon="-2.557405000">
        <ele>383.70</ele>
        <time>2017-02-11T06:51:17Z</time>
      </trkpt>
      <trkpt lat="42.484036000" lon="-2.557463000">
        <ele>383.90</ele>
        <time>2017-02-11T06:51:18Z</time>
      </trkpt>
      <trkpt lat="42.483998000" lon="-2.557520000">
        <ele>384.10</ele>
        <time>2017-02-11T06:51:19Z</time>
      </trkpt>
      <trkpt lat="42.483972000" lon="-2.557560000">
        <ele>384.20</ele>
        <time>2017-02-11T06:51:20Z</time>
      </trkpt>
      <trkpt lat="42.483945000" lon="-2.557587000">
        <ele>384.30</ele>
        <time>2017-02-11T06:51:21Z</time>
      </trkpt>
      <trkpt lat="42.483897000" lon="-2.557566000">
        <ele>384.40</ele>
        <time>2017-02-11T06:51:22Z</time>
      </trkpt>
      <trkpt lat="42.483872000" lon="-2.557566000">
        <ele>384.40</ele>
        <time>2017-02-11T06:51:23Z</time>
      </trkpt>
      <trkpt lat="42.483846000" lon="-2.557554000">
        <ele>384.50</ele>
        <time>2017-02-11T06:51:24Z</time>
      </trkpt>
      <trkpt lat="42.483818000" lon="-2.557543000">
        <ele>384.50</ele>
        <time>2017-02-11T06:51:25Z</time>
      </trkpt>
      <trkpt lat="42.483788000" lon="-2.557538000">
        <ele>384.70</ele>
        <time>2017-02-11T06:51:26Z</time>
      </trkpt>
      <trkpt lat="42.483760000" lon="-2.557533000">
        <ele>384.90</ele>
        <time>2017-02-11T06:51:27Z</time>
      </trkpt>
      <trkpt lat="42.483734000" lon="-2.557531000">
        <ele>385.10</ele>
        <time>2017-02-11T06:51:28Z</time>
      </trkpt>
      <trkpt lat="42.483713000" lon="-2.557523000">
        <ele>385.30</ele>
        <time>2017-02-11T06:51:29Z</time>
      </trkpt>
      <trkpt lat="42.483688000" lon="-2.557518000">
        <ele>385.70</ele>
        <time>2017-02-11T06:51:30Z</time>
      </trkpt>
      <trkpt lat="42.483668000" lon="-2.557508000">
        <ele>385.90</ele>
        <time>2017-02-11T06:51:31Z</time>
      </trkpt>
      <trkpt lat="42.483650000" lon="-2.557498000">
        <ele>386.30</ele>
        <time>2017-02-11T06:51:32Z</time>
      </trkpt>
      <trkpt lat="42.483626000" lon="-2.557486000">
        <ele>386.60</ele>
        <time>2017-02-11T06:51:33Z</time>
      </trkpt>
      <trkpt lat="42.483607000" lon="-2.557461000">
        <ele>386.80</ele>
        <time>2017-02-11T06:51:34Z</time>
      </trkpt>
      <trkpt lat="42.483589000" lon="-2.557429000">
        <ele>387.00</ele>
        <time>2017-02-11T06:51:35Z</time>
      </trkpt>
      <trkpt lat="42.483570000" lon="-2.557396000">
        <ele>387.30</ele>
        <time>2017-02-11T06:51:36Z</time>
      </trkpt>
      <trkpt lat="42.483554000" lon="-2.557365000">
        <ele>387.50</ele>
        <time>2017-02-11T06:51:37Z</time>
      </trkpt>
      <trkpt lat="42.483538000" lon="-2.557333000">
        <ele>387.90</ele>
        <time>2017-02-11T06:51:38Z</time>
      </trkpt>
      <trkpt lat="42.483527000" lon="-2.557301000">
        <ele>388.20</ele>
        <time>2017-02-11T06:51:39Z</time>
      </trkpt>
      <trkpt lat="42.483514000" lon="-2.557270000">
        <ele>388.50</ele>
        <time>2017-02-11T06:51:40Z</time>
      </trkpt>
      <trkpt lat="42.483501000" lon="-2.557244000">
        <ele>388.60</ele>
        <time>2017-02-11T06:51:41Z</time>
      </trkpt>
      <trkpt lat="42.483489000" lon="-2.557215000">
        <ele>388.80</ele>
        <time>2017-02-11T06:51:42Z</time>
      </trkpt>
      <trkpt lat="42.483480000" lon="-2.557187000">
        <ele>388.90</ele>
        <time>2017-02-11T06:51:43Z</time>
      </trkpt>
      <trkpt lat="42.483469000" lon="-2.557155000">
        <ele>389.30</ele>
        <time>2017-02-11T06:51:44Z</time>
      </trkpt>
      <trkpt lat="42.483463000" lon="-2.557122000">
        <ele>389.60</ele>
        <time>2017-02-11T06:51:45Z</time>
      </trkpt>
      <trkpt lat="42.483464000" lon="-2.557088000">
        <ele>389.80</ele>
        <time>2017-02-11T06:51:46Z</time>
      </trkpt>
      <trkpt lat="42.483470000" lon="-2.557055000">
        <ele>390.00</ele>
        <time>2017-02-11T06:51:47Z</time>
      </trkpt>
      <trkpt lat="42.483480000" lon="-2.557024000">
        <ele>390.10</ele>
        <time>2017-02-11T06:51:48Z</time>
      </trkpt>
      <trkpt lat="42.483494000" lon="-2.556997000">
        <ele>390.20</ele>
        <time>2017-02-11T06:51:49Z</time>
      </trkpt>
      <trkpt lat="42.483521000" lon="-2.556972000">
        <ele>390.30</ele>
        <time>2017-02-11T06:51:50Z</time>
      </trkpt>
      <trkpt lat="42.483550000" lon="-2.556955000">
        <ele>390.30</ele>
        <time>2017-02-11T06:51:51Z</time>
      </trkpt>
      <trkpt lat="42.483581000" lon="-2.556944000">
        <ele>390.50</ele>
        <time>2017-02-11T06:51:52Z</time>
      </trkpt>
      <trkpt lat="42.483614000" lon="-2.556945000">
        <ele>390.60</ele>
        <time>2017-02-11T06:51:53Z</time>
      </trkpt>
      <trkpt lat="42.483643000" lon="-2.556962000">
        <ele>390.80</ele>
        <time>2017-02-11T06:51:54Z</time>
      </trkpt>
      <trkpt lat="42.483668000" lon="-2.556987000">
        <ele>390.90</ele>
        <time>2017-02-11T06:51:55Z</time>
      </trkpt>
      <trkpt lat="42.483696000" lon="-2.557014000">
        <ele>391.00</ele>
        <time>2017-02-11T06:51:56Z</time>
      </trkpt>
      <trkpt lat="42.483720000" lon="-2.557041000">
        <ele>391.00</ele>
        <time>2017-02-11T06:51:57Z</time>
      </trkpt>
      <trkpt lat="42.483744000" lon="-2.557072000">
        <ele>391.00</ele>
        <time>2017-02-11T06:51:58Z</time>
      </trkpt>
      <trkpt lat="42.483766000" lon="-2.557102000">
        <ele>390.90</ele>
        <time>2017-02-11T06:51:59Z</time>
      </trkpt>
      <trkpt lat="42.483791000" lon="-2.557139000">
        <ele>390.90</ele>
        <time>2017-02-11T06:52:00Z</time>
      </trkpt>
      <trkpt lat="42.483814000" lon="-2.557170000">
        <ele>390.80</ele>
        <time>2017-02-11T06:52:01Z</time>
      </trkpt>
      <trkpt lat="42.483837000" lon="-2.557199000">
        <ele>390.80</ele>
        <time>2017-02-11T06:52:02Z</time>
      </trkpt>
      <trkpt lat="42.483856000" lon="-2.557229000">
        <ele>390.80</ele>
        <time>2017-02-11T06:52:03Z</time>
      </trkpt>
      <trkpt lat="42.483878000" lon="-2.557257000">
        <ele>390.80</ele>
        <time>2017-02-11T06:52:04Z</time>
      </trkpt>
      <trkpt lat="42.483897000" lon="-2.557288000">
        <ele>390.90</ele>
        <time>2017-02-11T06:52:05Z</time>
      </trkpt>
      <trkpt lat="42.483916000" lon="-2.557318000">
        <ele>390.90</ele>
        <time>2017-02-11T06:52:06Z</time>
      </trkpt>
      <trkpt lat="42.483932000" lon="-2.557346000">
        <ele>390.90</ele>
        <time>2017-02-11T06:52:07Z</time>
      </trkpt>
      <trkpt lat="42.483950000" lon="-2.557371000">
        <ele>391.10</ele>
        <time>2017-02-11T06:52:08Z</time>
      </trkpt>
      <trkpt lat="42.483966000" lon="-2.557397000">
        <ele>391.30</ele>
        <time>2017-02-11T06:52:09Z</time>
      </trkpt>
      <trkpt lat="42.483981000" lon="-2.557417000">
        <ele>391.60</ele>
        <time>2017-02-11T06:52:10Z</time>
      </trkpt>
      <trkpt lat="42.483994000" lon="-2.557433000">
        <ele>391.90</ele>
        <time>2017-02-11T06:52:11Z</time>
      </trkpt>
      <trkpt lat="42.484009000" lon="-2.557454000">
        <ele>392.10</ele>
        <time>2017-02-11T06:52:12Z</time>
      </trkpt>
      <trkpt lat="42.484020000" lon="-2.557476000">
        <ele>392.30</ele>
        <time>2017-02-11T06:52:13Z</time>
      </trkpt>
      <trkpt lat="42.484036000" lon="-2.557499000">
        <ele>392.40</ele>
        <time>2017-02-11T06:52:14Z</time>
      </trkpt>
      <trkpt lat="42.484055000" lon="-2.557525000">
        <ele>392.50</ele>
        <time>2017-02-11T06:52:15Z</time>
      </trkpt>
      <trkpt lat="42.484077000" lon="-2.557558000">
        <ele>392.60</ele>
        <time>2017-02-11T06:52:16Z</time>
      </trkpt>
      <trkpt lat="42.484128000" lon="-2.557627000">
        <ele>392.60</ele>
        <time>2017-02-11T06:52:18Z</time>
      </trkpt>
      <trkpt lat="42.484149000" lon="-2.557659000">
        <ele>392.50</ele>
        <time>2017-02-11T06:52:19Z</time>
      </trkpt>
      <trkpt lat="42.484169000" lon="-2.557697000">
        <ele>392.50</ele>
        <time>2017-02-11T06:52:20Z</time>
      </trkpt>
      <trkpt lat="42.484178000" lon="-2.557738000">
        <ele>392.50</ele>
        <time>2017-02-11T06:52:21Z</time>
      </trkpt>
      <trkpt lat="42.484180000" lon="-2.557779000">
        <ele>392.40</ele>
        <time>2017-02-11T06:52:22Z</time>
      </trkpt>
      <trkpt lat="42.484183000" lon="-2.557825000">
        <ele>392.30</ele>
        <time>2017-02-11T06:52:23Z</time>
      </trkpt>
      <trkpt lat="42.484179000" lon="-2.557870000">
        <ele>392.40</ele>
        <time>2017-02-11T06:52:24Z</time>
      </trkpt>
      <trkpt lat="42.484169000" lon="-2.557914000">
        <ele>392.40</ele>
        <time>2017-02-11T06:52:25Z</time>
      </trkpt>
      <trkpt lat="42.484157000" lon="-2.557955000">
        <ele>392.50</ele>
        <time>2017-02-11T06:52:26Z</time>
      </trkpt>
      <trkpt lat="42.484142000" lon="-2.557988000">
        <ele>392.60</ele>
        <time>2017-02-11T06:52:27Z</time>
      </trkpt>
      <trkpt lat="42.484127000" lon="-2.558018000">
        <ele>392.70</ele>
        <time>2017-02-11T06:52:28Z</time>
      </trkpt>
      <trkpt lat="42.484116000" lon="-2.558045000">
        <ele>392.80</ele>
        <time>2017-02-11T06:52:29Z</time>
      </trkpt>
      <trkpt lat="42.484101000" lon="-2.558069000">
        <ele>392.90</ele>
        <time>2017-02-11T06:52:30Z</time>
      </trkpt>
      <trkpt lat="42.484088000" lon="-2.558097000">
        <ele>392.90</ele>
        <time>2017-02-11T06:52:31Z</time>
      </trkpt>
      <trkpt lat="42.484076000" lon="-2.558124000">
        <ele>393.30</ele>
        <time>2017-02-11T06:52:32Z</time>
      </trkpt>
      <trkpt lat="42.484066000" lon="-2.558152000">
        <ele>393.50</ele>
        <time>2017-02-11T06:52:33Z</time>
      </trkpt>
      <trkpt lat="42.484055000" lon="-2.558181000">
        <ele>393.80</ele>
        <time>2017-02-11T06:52:34Z</time>
      </trkpt>
      <trkpt lat="42.484046000" lon="-2.558205000">
        <ele>394.00</ele>
        <time>2017-02-11T06:52:35Z</time>
      </trkpt>
      <trkpt lat="42.484041000" lon="-2.558234000">
        <ele>394.10</ele>
        <time>2017-02-11T06:52:36Z</time>
      </trkpt>
      <trkpt lat="42.484031000" lon="-2.558261000">
        <ele>394.20</ele>
        <time>2017-02-11T06:52:37Z</time>
      </trkpt>
      <trkpt lat="42.484025000" lon="-2.558287000">
        <ele>394.20</ele>
        <time>2017-02-11T06:52:38Z</time>
      </trkpt>
      <trkpt lat="42.484018000" lon="-2.558312000">
        <ele>394.20</ele>
        <time>2017-02-11T06:52:39Z</time>
      </trkpt>
      <trkpt lat="42.484011000" lon="-2.558336000">
        <ele>394.20</ele>
        <time>2017-02-11T06:52:40Z</time>
      </trkpt>
      <trkpt lat="42.484004000" lon="-2.558362000">
        <ele>394.30</ele>
        <time>2017-02-11T06:52:41Z</time>
      </trkpt>
      <trkpt lat="42.483996000" lon="-2.558388000">
        <ele>394.50</ele>
        <time>2017-02-11T06:52:42Z</time>
      </trkpt>
      <trkpt lat="42.483991000" lon="-2.558413000">
        <ele>394.70</ele>
        <time>2017-02-11T06:52:43Z</time>
      </trkpt>
      <trkpt lat="42.483986000" lon="-2.558436000">
        <ele>394.80</ele>
        <time>2017-02-11T06:52:44Z</time>
      </trkpt>
      <trkpt lat="42.483979000" lon="-2.558454000">
        <ele>394.90</ele>
        <time>2017-02-11T06:52:45Z</time>
      </trkpt>
      <trkpt lat="42.483974000" lon="-2.558475000">
        <ele>395.10</ele>
        <time>2017-02-11T06:52:46Z</time>
      </trkpt>
      <trkpt lat="42.483969000" lon="-2.558494000">
        <ele>395.30</ele>
        <time>2017-02-11T06:52:47Z</time>
      </trkpt>
      <trkpt lat="42.483964000" lon="-2.558514000">
        <ele>395.40</ele>
        <time>2017-02-11T06:52:48Z</time>
      </trkpt>
      <trkpt lat="42.483955000" lon="-2.558534000">
        <ele>395.50</ele>
        <time>2017-02-11T06:52:49Z</time>
      </trkpt>
      <trkpt lat="42.483950000" lon="-2.558555000">
        <ele>395.50</ele>
        <time>2017-02-11T06:52:50Z</time>
      </trkpt>
      <trkpt lat="42.483945000" lon="-2.558578000">
        <ele>395.60</ele>
        <time>2017-02-11T06:52:51Z</time>
      </trkpt>
      <trkpt lat="42.483939000" lon="-2.558599000">
        <ele>395.70</ele>
        <time>2017-02-11T06:52:52Z</time>
      </trkpt>
      <trkpt lat="42.483935000" lon="-2.558621000">
        <ele>395.80</ele>
        <time>2017-02-11T06:52:53Z</time>
      </trkpt>
      <trkpt lat="42.483932000" lon="-2.558642000">
        <ele>395.90</ele>
        <time>2017-02-11T06:52:54Z</time>
      </trkpt>
      <trkpt lat="42.483924000" lon="-2.558665000">
        <ele>396.00</ele>
        <time>2017-02-11T06:52:55Z</time>
      </trkpt>
      <trkpt lat="42.483916000" lon="-2.558685000">
        <ele>396.10</ele>
        <time>2017-02-11T06:52:56Z</time>
      </trkpt>
      <trkpt lat="42.483908000" lon="-2.558705000">
        <ele>396.10</ele>
        <time>2017-02-11T06:52:57Z</time>
      </trkpt>
      <trkpt lat="42.483903000" lon="-2.558728000">
        <ele>396.20</ele>
        <time>2017-02-11T06:52:58Z</time>
      </trkpt>
      <trkpt lat="42.483894000" lon="-2.558753000">
        <ele>396.20</ele>
        <time>2017-02-11T06:52:59Z</time>
      </trkpt>
      <trkpt lat="42.483888000" lon="-2.558777000">
        <ele>396.30</ele>
        <time>2017-02-11T06:53:00Z</time>
      </trkpt>
      <trkpt lat="42.483880000" lon="-2.558804000">
        <ele>396.30</ele>
        <time>2017-02-11T06:53:01Z</time>
      </trkpt>
      <trkpt lat="42.483871000" lon="-2.558836000">
        <ele>396.30</ele>
        <time>2017-02-11T06:53:02Z</time>
      </trkpt>
      <trkpt lat="42.483864000" lon="-2.558869000">
        <ele>396.40</ele>
        <time>2017-02-11T06:53:03Z</time>
      </trkpt>
      <trkpt lat="42.483855000" lon="-2.558904000">
        <ele>396.50</ele>
        <time>2017-02-11T06:53:04Z</time>
      </trkpt>
      <trkpt lat="42.483849000" lon="-2.558937000">
        <ele>396.60</ele>
        <time>2017-02-11T06:53:05Z</time>
      </trkpt>
      <trkpt lat="42.483842000" lon="-2.558970000">
        <ele>396.70</ele>
        <time>2017-02-11T06:53:06Z</time>
      </trkpt>
      <trkpt lat="42.483834000" lon="-2.559002000">
        <ele>396.80</ele>
        <time>2017-02-11T06:53:07Z</time>
      </trkpt>
      <trkpt lat="42.483830000" lon="-2.559029000">
        <ele>397.10</ele>
        <time>2017-02-11T06:53:08Z</time>
      </trkpt>
      <trkpt lat="42.483827000" lon="-2.559054000">
        <ele>397.40</ele>
        <time>2017-02-11T06:53:09Z</time>
      </trkpt>
      <trkpt lat="42.483825000" lon="-2.559072000">
        <ele>397.60</ele>
        <time>2017-02-11T06:53:10Z</time>
      </trkpt>
      <trkpt lat="42.483818000" lon="-2.559092000">
        <ele>397.70</ele>
        <time>2017-02-11T06:53:11Z</time>
      </trkpt>
      <trkpt lat="42.483812000" lon="-2.559111000">
        <ele>397.90</ele>
        <time>2017-02-11T06:53:12Z</time>
      </trkpt>
      <trkpt lat="42.483806000" lon="-2.559130000">
        <ele>398.10</ele>
        <time>2017-02-11T06:53:13Z</time>
      </trkpt>
      <trkpt lat="42.483800000" lon="-2.559151000">
        <ele>398.30</ele>
        <time>2017-02-11T06:53:14Z</time>
      </trkpt>
      <trkpt lat="42.483795000" lon="-2.559173000">
        <ele>398.40</ele>
        <time>2017-02-11T06:53:15Z</time>
      </trkpt>
      <trkpt lat="42.483790000" lon="-2.559198000">
        <ele>398.70</ele>
        <time>2017-02-11T06:53:16Z</time>
      </trkpt>
      <trkpt lat="42.483783000" lon="-2.559223000">
        <ele>398.80</ele>
        <time>2017-02-11T06:53:17Z</time>
      </trkpt>
      <trkpt lat="42.483770000" lon="-2.559265000">
        <ele>399.30</ele>
        <time>2017-02-11T06:53:19Z</time>
      </trkpt>
      <trkpt lat="42.483764000" lon="-2.559287000">
        <ele>399.40</ele>
        <time>2017-02-11T06:53:20Z</time>
      </trkpt>
      <trkpt lat="42.483756000" lon="-2.559307000">
        <ele>399.60</ele>
        <time>2017-02-11T06:53:21Z</time>
      </trkpt>
      <trkpt lat="42.483747000" lon="-2.559327000">
        <ele>399.70</ele>
        <time>2017-02-11T06:53:22Z</time>
      </trkpt>
      <trkpt lat="42.483737000" lon="-2.559350000">
        <ele>399.80</ele>
        <time>2017-02-11T06:53:23Z</time>
      </trkpt>
      <trkpt lat="42.483724000" lon="-2.559379000">
        <ele>400.00</ele>
        <time>2017-02-11T06:53:24Z</time>
      </trkpt>
      <trkpt lat="42.483711000" lon="-2.559406000">
        <ele>400.20</ele>
        <time>2017-02-11T06:53:25Z</time>
      </trkpt>
      <trkpt lat="42.483700000" lon="-2.559431000">
        <ele>400.40</ele>
        <time>2017-02-11T06:53:26Z</time>
      </trkpt>
      <trkpt lat="42.483687000" lon="-2.559458000">
        <ele>400.60</ele>
        <time>2017-02-11T06:53:27Z</time>
      </trkpt>
      <trkpt lat="42.483677000" lon="-2.559486000">
        <ele>401.00</ele>
        <time>2017-02-11T06:53:28Z</time>
      </trkpt>
      <trkpt lat="42.483662000" lon="-2.559512000">
        <ele>401.30</ele>
        <time>2017-02-11T06:53:29Z</time>
      </trkpt>
      <trkpt lat="42.483647000" lon="-2.559536000">
        <ele>401.60</ele>
        <time>2017-02-11T06:53:30Z</time>
      </trkpt>
      <trkpt lat="42.483632000" lon="-2.559560000">
        <ele>401.90</ele>
        <time>2017-02-11T06:53:31Z</time>
      </trkpt>
      <trkpt lat="42.483620000" lon="-2.559587000">
        <ele>402.20</ele>
        <time>2017-02-11T06:53:32Z</time>
      </trkpt>
      <trkpt lat="42.483604000" lon="-2.559610000">
        <ele>402.40</ele>
        <time>2017-02-11T06:53:33Z</time>
      </trkpt>
      <trkpt lat="42.483589000" lon="-2.559631000">
        <ele>402.80</ele>
        <time>2017-02-11T06:53:34Z</time>
      </trkpt>
      <trkpt lat="42.483572000" lon="-2.559648000">
        <ele>403.10</ele>
        <time>2017-02-11T06:53:35Z</time>
      </trkpt>
      <trkpt lat="42.483556000" lon="-2.559663000">
        <ele>403.30</ele>
        <time>2017-02-11T06:53:36Z</time>
      </trkpt>
      <trkpt lat="42.483542000" lon="-2.559685000">
        <ele>403.50</ele>
        <time>2017-02-11T06:53:37Z</time>
      </trkpt>
      <trkpt lat="42.483523000" lon="-2.559702000">
        <ele>403.60</ele>
        <time>2017-02-11T06:53:38Z</time>
      </trkpt>
      <trkpt lat="42.483506000" lon="-2.559722000">
        <ele>403.70</ele>
        <time>2017-02-11T06:53:39Z</time>
      </trkpt>
      <trkpt lat="42.483488000" lon="-2.559747000">
        <ele>403.80</ele>
        <time>2017-02-11T06:53:40Z</time>
      </trkpt>
      <trkpt lat="42.483478000" lon="-2.559774000">
        <ele>403.80</ele>
        <time>2017-02-11T06:53:41Z</time>
      </trkpt>
      <trkpt lat="42.483470000" lon="-2.559799000">
        <ele>404.10</ele>
        <time>2017-02-11T06:53:42Z</time>
      </trkpt>
      <trkpt lat="42.483467000" lon="-2.559824000">
        <ele>404.30</ele>
        <time>2017-02-11T06:53:43Z</time>
      </trkpt>
      <trkpt lat="42.483469000" lon="-2.559854000">
        <ele>404.40</ele>
        <time>2017-02-11T06:53:44Z</time>
      </trkpt>
      <trkpt lat="42.483470000" lon="-2.559883000">
        <ele>404.60</ele>
        <time>2017-02-11T06:53:45Z</time>
      </trkpt>
      <trkpt lat="42.483472000" lon="-2.559911000">
        <ele>404.80</ele>
        <time>2017-02-11T06:53:46Z</time>
      </trkpt>
      <trkpt lat="42.483478000" lon="-2.559939000">
        <ele>405.00</ele>
        <time>2017-02-11T06:53:47Z</time>
      </trkpt>
      <trkpt lat="42.483486000" lon="-2.559968000">
        <ele>405.20</ele>
        <time>2017-02-11T06:53:48Z</time>
      </trkpt>
      <trkpt lat="42.483497000" lon="-2.559997000">
        <ele>405.30</ele>
        <time>2017-02-11T06:53:49Z</time>
      </trkpt>
      <trkpt lat="42.483510000" lon="-2.560024000">
        <ele>405.50</ele>
        <time>2017-02-11T06:53:50Z</time>
      </trkpt>
      <trkpt lat="42.483517000" lon="-2.560047000">
        <ele>405.60</ele>
        <time>2017-02-11T06:53:51Z</time>
      </trkpt>
      <trkpt lat="42.483525000" lon="-2.560066000">
        <ele>406.00</ele>
        <time>2017-02-11T06:53:52Z</time>
      </trkpt>
      <trkpt lat="42.483532000" lon="-2.560088000">
        <ele>406.30</ele>
        <time>2017-02-11T06:53:53Z</time>
      </trkpt>
      <trkpt lat="42.483541000" lon="-2.560111000">
        <ele>406.50</ele>
        <time>2017-02-11T06:53:54Z</time>
      </trkpt>
      <trkpt lat="42.483547000" lon="-2.560139000">
        <ele>406.70</ele>
        <time>2017-02-11T06:53:55Z</time>
      </trkpt>
      <trkpt lat="42.483555000" lon="-2.560164000">
        <ele>406.80</ele>
        <time>2017-02-11T06:53:56Z</time>
      </trkpt>
      <trkpt lat="42.483563000" lon="-2.560186000">
        <ele>406.90</ele>
        <time>2017-02-11T06:53:57Z</time>
      </trkpt>
      <trkpt lat="42.483571000" lon="-2.560208000">
        <ele>407.20</ele>
        <time>2017-02-11T06:53:58Z</time>
      </trkpt>
      <trkpt lat="42.483582000" lon="-2.560235000">
        <ele>407.40</ele>
        <time>2017-02-11T06:53:59Z</time>
      </trkpt>
      <trkpt lat="42.483592000" lon="-2.560259000">
        <ele>407.60</ele>
        <time>2017-02-11T06:54:00Z</time>
      </trkpt>
      <trkpt lat="42.483598000" lon="-2.560277000">
        <ele>407.80</ele>
        <time>2017-02-11T06:54:01Z</time>
      </trkpt>
      <trkpt lat="42.483602000" lon="-2.560299000">
        <ele>407.90</ele>
        <time>2017-02-11T06:54:02Z</time>
      </trkpt>
      <trkpt lat="42.483607000" lon="-2.560324000">
        <ele>408.00</ele>
        <time>2017-02-11T06:54:03Z</time>
      </trkpt>
      <trkpt lat="42.483611000" lon="-2.560353000">
        <ele>408.10</ele>
        <time>2017-02-11T06:54:04Z</time>
      </trkpt>
      <trkpt lat="42.483618000" lon="-2.560382000">
        <ele>408.20</ele>
        <time>2017-02-11T06:54:05Z</time>
      </trkpt>
      <trkpt lat="42.483620000" lon="-2.560411000">
        <ele>408.20</ele>
        <time>2017-02-11T06:54:06Z</time>
      </trkpt>
      <trkpt lat="42.483628000" lon="-2.560442000">
        <ele>408.30</ele>
        <time>2017-02-11T06:54:07Z</time>
      </trkpt>
      <trkpt lat="42.483630000" lon="-2.560473000">
        <ele>408.10</ele>
        <time>2017-02-11T06:54:08Z</time>
      </trkpt>
      <trkpt lat="42.483635000" lon="-2.560499000">
        <ele>408.00</ele>
        <time>2017-02-11T06:54:09Z</time>
      </trkpt>
      <trkpt lat="42.483638000" lon="-2.560526000">
        <ele>408.00</ele>
        <time>2017-02-11T06:54:10Z</time>
      </trkpt>
      <trkpt lat="42.483644000" lon="-2.560553000">
        <ele>407.90</ele>
        <time>2017-02-11T06:54:11Z</time>
      </trkpt>
      <trkpt lat="42.483649000" lon="-2.560580000">
        <ele>408.10</ele>
        <time>2017-02-11T06:54:12Z</time>
      </trkpt>
      <trkpt lat="42.483654000" lon="-2.560613000">
        <ele>408.30</ele>
        <time>2017-02-11T06:54:13Z</time>
      </trkpt>
      <trkpt lat="42.483661000" lon="-2.560645000">
        <ele>408.50</ele>
        <time>2017-02-11T06:54:14Z</time>
      </trkpt>
      <trkpt lat="42.483670000" lon="-2.560676000">
        <ele>408.60</ele>
        <time>2017-02-11T06:54:15Z</time>
      </trkpt>
      <trkpt lat="42.483679000" lon="-2.560709000">
        <ele>408.80</ele>
        <time>2017-02-11T06:54:16Z</time>
      </trkpt>
      <trkpt lat="42.483683000" lon="-2.560738000">
        <ele>408.90</ele>
        <time>2017-02-11T06:54:17Z</time>
      </trkpt>
      <trkpt lat="42.483690000" lon="-2.560770000">
        <ele>409.00</ele>
        <time>2017-02-11T06:54:18Z</time>
      </trkpt>
      <trkpt lat="42.483700000" lon="-2.560833000">
        <ele>409.20</ele>
        <time>2017-02-11T06:54:20Z</time>
      </trkpt>
      <trkpt lat="42.483704000" lon="-2.560865000">
        <ele>409.20</ele>
        <time>2017-02-11T06:54:21Z</time>
      </trkpt>
      <trkpt lat="42.483708000" lon="-2.560898000">
        <ele>409.20</ele>
        <time>2017-02-11T06:54:22Z</time>
      </trkpt>
      <trkpt lat="42.483713000" lon="-2.560933000">
        <ele>409.20</ele>
        <time>2017-02-11T06:54:23Z</time>
      </trkpt>
      <trkpt lat="42.483718000" lon="-2.560969000">
        <ele>409.20</ele>
        <time>2017-02-11T06:54:24Z</time>
      </trkpt>
      <trkpt lat="42.483720000" lon="-2.561007000">
        <ele>409.20</ele>
        <time>2017-02-11T06:54:25Z</time>
      </trkpt>
      <trkpt lat="42.483722000" lon="-2.561045000">
        <ele>409.00</ele>
        <time>2017-02-11T06:54:26Z</time>
      </trkpt>
      <trkpt lat="42.483723000" lon="-2.561083000">
        <ele>408.90</ele>
        <time>2017-02-11T06:54:27Z</time>
      </trkpt>
      <trkpt lat="42.483726000" lon="-2.561120000">
        <ele>408.80</ele>
        <time>2017-02-11T06:54:28Z</time>
      </trkpt>
      <trkpt lat="42.483725000" lon="-2.561153000">
        <ele>408.70</ele>
        <time>2017-02-11T06:54:29Z</time>
      </trkpt>
      <trkpt lat="42.483721000" lon="-2.561192000">
        <ele>409.00</ele>
        <time>2017-02-11T06:54:30Z</time>
      </trkpt>
      <trkpt lat="42.483719000" lon="-2.561228000">
        <ele>409.20</ele>
        <time>2017-02-11T06:54:31Z</time>
      </trkpt>
      <trkpt lat="42.483714000" lon="-2.561265000">
        <ele>409.40</ele>
        <time>2017-02-11T06:54:32Z</time>
      </trkpt>
      <trkpt lat="42.483708000" lon="-2.561298000">
        <ele>409.50</ele>
        <time>2017-02-11T06:54:33Z</time>
      </trkpt>
      <trkpt lat="42.483695000" lon="-2.561335000">
        <ele>409.50</ele>
        <time>2017-02-11T06:54:34Z</time>
      </trkpt>
      <trkpt lat="42.483683000" lon="-2.561370000">
        <ele>409.50</ele>
        <time>2017-02-11T06:54:35Z</time>
      </trkpt>
      <trkpt lat="42.483668000" lon="-2.561406000">
        <ele>409.50</ele>
        <time>2017-02-11T06:54:36Z</time>
      </trkpt>
      <trkpt lat="42.483650000" lon="-2.561437000">
        <ele>409.50</ele>
        <time>2017-02-11T06:54:37Z</time>
      </trkpt>
      <trkpt lat="42.483635000" lon="-2.561467000">
        <ele>409.60</ele>
        <time>2017-02-11T06:54:38Z</time>
      </trkpt>
      <trkpt lat="42.483620000" lon="-2.561500000">
        <ele>409.60</ele>
        <time>2017-02-11T06:54:39Z</time>
      </trkpt>
      <trkpt lat="42.483603000" lon="-2.561532000">
        <ele>409.60</ele>
        <time>2017-02-11T06:54:40Z</time>
      </trkpt>
      <trkpt lat="42.483585000" lon="-2.561566000">
        <ele>409.70</ele>
        <time>2017-02-11T06:54:41Z</time>
      </trkpt>
      <trkpt lat="42.483568000" lon="-2.561598000">
        <ele>409.60</ele>
        <time>2017-02-11T06:54:42Z</time>
      </trkpt>
      <trkpt lat="42.483553000" lon="-2.561623000">
        <ele>409.50</ele>
        <time>2017-02-11T06:54:43Z</time>
      </trkpt>
      <trkpt lat="42.483535000" lon="-2.561657000">
        <ele>409.60</ele>
        <time>2017-02-11T06:54:44Z</time>
      </trkpt>
      <trkpt lat="42.483521000" lon="-2.561690000">
        <ele>409.70</ele>
        <time>2017-02-11T06:54:45Z</time>
      </trkpt>
      <trkpt lat="42.483504000" lon="-2.561719000">
        <ele>409.70</ele>
        <time>2017-02-11T06:54:46Z</time>
      </trkpt>
      <trkpt lat="42.483493000" lon="-2.561749000">
        <ele>409.70</ele>
        <time>2017-02-11T06:54:47Z</time>
      </trkpt>
      <trkpt lat="42.483479000" lon="-2.561778000">
        <ele>409.80</ele>
        <time>2017-02-11T06:54:48Z</time>
      </trkpt>
      <trkpt lat="42.483460000" lon="-2.561803000">
        <ele>409.90</ele>
        <time>2017-02-11T06:54:49Z</time>
      </trkpt>
      <trkpt lat="42.483448000" lon="-2.561825000">
        <ele>410.00</ele>
        <time>2017-02-11T06:54:50Z</time>
      </trkpt>
      <trkpt lat="42.483432000" lon="-2.561848000">
        <ele>410.00</ele>
        <time>2017-02-11T06:54:51Z</time>
      </trkpt>
      <trkpt lat="42.483417000" lon="-2.561872000">
        <ele>410.10</ele>
        <time>2017-02-11T06:54:52Z</time>
      </trkpt>
      <trkpt lat="42.483401000" lon="-2.561891000">
        <ele>410.10</ele>
        <time>2017-02-11T06:54:53Z</time>
      </trkpt>
      <trkpt lat="42.483385000" lon="-2.561908000">
        <ele>410.20</ele>
        <time>2017-02-11T06:54:54Z</time>
      </trkpt>
      <trkpt lat="42.483370000" lon="-2.561926000">
        <ele>410.20</ele>
        <time>2017-02-11T06:54:55Z</time>
      </trkpt>
      <trkpt lat="42.483354000" lon="-2.561945000">
        <ele>410.10</ele>
        <time>2017-02-11T06:54:56Z</time>
      </trkpt>
      <trkpt lat="42.483340000" lon="-2.561958000">
        <ele>410.10</ele>
        <time>2017-02-11T06:54:57Z</time>
      </trkpt>
      <trkpt lat="42.483326000" lon="-2.561977000">
        <ele>410.10</ele>
        <time>2017-02-11T06:54:58Z</time>
      </trkpt>
      <trkpt lat="42.483311000" lon="-2.561992000">
        <ele>410.10</ele>
        <time>2017-02-11T06:54:59Z</time>
      </trkpt>
      <trkpt lat="42.483297000" lon="-2.562013000">
        <ele>410.10</ele>
        <time>2017-02-11T06:55:00Z</time>
      </trkpt>
      <trkpt lat="42.483282000" lon="-2.562031000">
        <ele>410.00</ele>
        <time>2017-02-11T06:55:01Z</time>
      </trkpt>
      <trkpt lat="42.483267000" lon="-2.562049000">
        <ele>410.10</ele>
        <time>2017-02-11T06:55:02Z</time>
      </trkpt>
      <trkpt lat="42.483259000" lon="-2.562062000">
        <ele>410.10</ele>
        <time>2017-02-11T06:55:03Z</time>
      </trkpt>
      <trkpt lat="42.483248000" lon="-2.562074000">
        <ele>410.20</ele>
        <time>2017-02-11T06:55:04Z</time>
      </trkpt>
      <trkpt lat="42.483235000" lon="-2.562090000">
        <ele>410.20</ele>
        <time>2017-02-11T06:55:05Z</time>
      </trkpt>
      <trkpt lat="42.483222000" lon="-2.562103000">
        <ele>410.30</ele>
        <time>2017-02-11T06:55:06Z</time>
      </trkpt>
      <trkpt lat="42.483210000" lon="-2.562118000">
        <ele>410.30</ele>
        <time>2017-02-11T06:55:07Z</time>
      </trkpt>
      <trkpt lat="42.483200000" lon="-2.562129000">
        <ele>410.40</ele>
        <time>2017-02-11T06:55:08Z</time>
      </trkpt>
      <trkpt lat="42.483192000" lon="-2.562140000">
        <ele>410.50</ele>
        <time>2017-02-11T06:55:09Z</time>
      </trkpt>
      <trkpt lat="42.483182000" lon="-2.562149000">
        <ele>410.50</ele>
        <time>2017-02-11T06:55:10Z</time>
      </trkpt>
      <trkpt lat="42.483175000" lon="-2.562164000">
        <ele>410.60</ele>
        <time>2017-02-11T06:55:11Z</time>
      </trkpt>
      <trkpt lat="42.483174000" lon="-2.562178000">
        <ele>410.70</ele>
        <time>2017-02-11T06:55:12Z</time>
      </trkpt>
      <trkpt lat="42.483173000" lon="-2.562189000">
        <ele>410.70</ele>
        <time>2017-02-11T06:55:13Z</time>
      </trkpt>
      <trkpt lat="42.483168000" lon="-2.562200000">
        <ele>410.90</ele>
        <time>2017-02-11T06:55:14Z</time>
      </trkpt>
      <trkpt lat="42.483169000" lon="-2.562217000">
        <ele>411.10</ele>
        <time>2017-02-11T06:55:15Z</time>
      </trkpt>
      <trkpt lat="42.483178000" lon="-2.562233000">
        <ele>411.20</ele>
        <time>2017-02-11T06:55:16Z</time>
      </trkpt>
      <trkpt lat="42.483190000" lon="-2.562249000">
        <ele>411.20</ele>
        <time>2017-02-11T06:55:17Z</time>
      </trkpt>
      <trkpt lat="42.483204000" lon="-2.562261000">
        <ele>411.20</ele>
        <time>2017-02-11T06:55:18Z</time>
      </trkpt>
      <trkpt lat="42.483223000" lon="-2.562266000">
        <ele>411.10</ele>
        <time>2017-02-11T06:55:19Z</time>
      </trkpt>
      <trkpt lat="42.483260000" lon="-2.562263000">
        <ele>411.10</ele>
        <time>2017-02-11T06:55:21Z</time>
      </trkpt>
      <trkpt lat="42.483275000" lon="-2.562271000">
        <ele>411.10</ele>
        <time>2017-02-11T06:55:22Z</time>
      </trkpt>
      <trkpt lat="42.483294000" lon="-2.562276000">
        <ele>411.10</ele>
        <time>2017-02-11T06:55:23Z</time>
      </trkpt>
      <trkpt lat="42.483318000" lon="-2.562280000">
        <ele>411.30</ele>
        <time>2017-02-11T06:55:24Z</time>
      </trkpt>
      <trkpt lat="42.483345000" lon="-2.562288000">
        <ele>411.40</ele>
        <time>2017-02-11T06:55:25Z</time>
      </trkpt>
      <trkpt lat="42.483371000" lon="-2.562294000">
        <ele>411.50</ele>
        <time>2017-02-11T06:55:26Z</time>
      </trkpt>
      <trkpt lat="42.483397000" lon="-2.562302000">
        <ele>411.50</ele>
        <time>2017-02-11T06:55:27Z</time>
      </trkpt>
      <trkpt lat="42.483422000" lon="-2.562314000">
        <ele>411.50</ele>
        <time>2017-02-11T06:55:28Z</time>
      </trkpt>
      <trkpt lat="42.483441000" lon="-2.562322000">
        <ele>411.50</ele>
        <time>2017-02-11T06:55:29Z</time>
      </trkpt>
      <trkpt lat="42.483457000" lon="-2.562323000">
        <ele>411.50</ele>
        <time>2017-02-11T06:55:30Z</time>
      </trkpt>
      <trkpt lat="42.483478000" lon="-2.562333000">
        <ele>411.50</ele>
        <time>2017-02-11T06:55:31Z</time>
      </trkpt>
      <trkpt lat="42.483504000" lon="-2.562335000">
        <ele>411.60</ele>
        <time>2017-02-11T06:55:32Z</time>
      </trkpt>
      <trkpt lat="42.483528000" lon="-2.562339000">
        <ele>411.60</ele>
        <time>2017-02-11T06:55:33Z</time>
      </trkpt>
      <trkpt lat="42.483555000" lon="-2.562353000">
        <ele>411.60</ele>
        <time>2017-02-11T06:55:34Z</time>
      </trkpt>
      <trkpt lat="42.483580000" lon="-2.562367000">
        <ele>411.70</ele>
        <time>2017-02-11T06:55:35Z</time>
      </trkpt>
      <trkpt lat="42.483605000" lon="-2.562380000">
        <ele>411.70</ele>
        <time>2017-02-11T06:55:36Z</time>
      </trkpt>
      <trkpt lat="42.483632000" lon="-2.562394000">
        <ele>411.70</ele>
        <time>2017-02-11T06:55:37Z</time>
      </trkpt>
      <trkpt lat="42.483657000" lon="-2.562405000">
        <ele>412.00</ele>
        <time>2017-02-11T06:55:38Z</time>
      </trkpt>
      <trkpt lat="42.483685000" lon="-2.562418000">
        <ele>412.20</ele>
        <time>2017-02-11T06:55:39Z</time>
      </trkpt>
      <trkpt lat="42.483706000" lon="-2.562431000">
        <ele>412.30</ele>
        <time>2017-02-11T06:55:40Z</time>
      </trkpt>
      <trkpt lat="42.483731000" lon="-2.562439000">
        <ele>412.40</ele>
        <time>2017-02-11T06:55:41Z</time>
      </trkpt>
      <trkpt lat="42.483759000" lon="-2.562452000">
        <ele>412.30</ele>
        <time>2017-02-11T06:55:42Z</time>
      </trkpt>
      <trkpt lat="42.483784000" lon="-2.562461000">
        <ele>412.20</ele>
        <time>2017-02-11T06:55:43Z</time>
      </trkpt>
      <trkpt lat="42.483810000" lon="-2.562471000">
        <ele>412.20</ele>
        <time>2017-02-11T06:55:44Z</time>
      </trkpt>
      <trkpt lat="42.483839000" lon="-2.562479000">
        <ele>412.10</ele>
        <time>2017-02-11T06:55:45Z</time>
      </trkpt>
      <trkpt lat="42.483864000" lon="-2.562480000">
        <ele>412.40</ele>
        <time>2017-02-11T06:55:46Z</time>
      </trkpt>
      <trkpt lat="42.483888000" lon="-2.562481000">
        <ele>412.50</ele>
        <time>2017-02-11T06:55:47Z</time>
      </trkpt>
      <trkpt lat="42.483915000" lon="-2.562480000">
        <ele>412.70</ele>
        <time>2017-02-11T06:55:48Z</time>
      </trkpt>
      <trkpt lat="42.483939000" lon="-2.562473000">
        <ele>412.80</ele>
        <time>2017-02-11T06:55:49Z</time>
      </trkpt>
      <trkpt lat="42.483962000" lon="-2.562466000">
        <ele>412.80</ele>
        <time>2017-02-11T06:55:50Z</time>
      </trkpt>
      <trkpt lat="42.483985000" lon="-2.562458000">
        <ele>412.90</ele>
        <time>2017-02-11T06:55:51Z</time>
      </trkpt>
      <trkpt lat="42.484010000" lon="-2.562447000">
        <ele>412.90</ele>
        <time>2017-02-11T06:55:52Z</time>
      </trkpt>
      <trkpt lat="42.484036000" lon="-2.562437000">
        <ele>412.90</ele>
        <time>2017-02-11T06:55:53Z</time>
      </trkpt>
      <trkpt lat="42.484062000" lon="-2.562430000">
        <ele>412.90</ele>
        <time>2017-02-11T06:55:54Z</time>
      </trkpt>
      <trkpt lat="42.484084000" lon="-2.562420000">
        <ele>412.90</ele>
        <time>2017-02-11T06:55:55Z</time>
      </trkpt>
      <trkpt lat="42.484111000" lon="-2.562407000">
        <ele>412.90</ele>
        <time>2017-02-11T06:55:56Z</time>
      </trkpt>
      <trkpt lat="42.484137000" lon="-2.562392000">
        <ele>412.80</ele>
        <time>2017-02-11T06:55:57Z</time>
      </trkpt>
      <trkpt lat="42.484161000" lon="-2.562378000">
        <ele>412.70</ele>
        <time>2017-02-11T06:55:58Z</time>
      </trkpt>
      <trkpt lat="42.484185000" lon="-2.562362000">
        <ele>412.60</ele>
        <time>2017-02-11T06:55:59Z</time>
      </trkpt>
      <trkpt lat="42.484209000" lon="-2.562350000">
        <ele>412.60</ele>
        <time>2017-02-11T06:56:00Z</time>
      </trkpt>
      <trkpt lat="42.484235000" lon="-2.562333000">
        <ele>412.50</ele>
        <time>2017-02-11T06:56:01Z</time>
      </trkpt>
      <trkpt lat="42.484262000" lon="-2.562321000">
        <ele>412.50</ele>
        <time>2017-02-11T06:56:02Z</time>
      </trkpt>
      <trkpt lat="42.484285000" lon="-2.562311000">
        <ele>412.50</ele>
        <time>2017-02-11T06:56:03Z</time>
      </trkpt>
      <trkpt lat="42.484310000" lon="-2.562299000">
        <ele>412.60</ele>
        <time>2017-02-11T06:56:04Z</time>
      </trkpt>
      <trkpt lat="42.484336000" lon="-2.562291000">
        <ele>412.60</ele>
        <time>2017-02-11T06:56:05Z</time>
      </trkpt>
      <trkpt lat="42.484359000" lon="-2.562282000">
        <ele>412.70</ele>
        <time>2017-02-11T06:56:06Z</time>
      </trkpt>
      <trkpt lat="42.484383000" lon="-2.562272000">
        <ele>412.80</ele>
        <time>2017-02-11T06:56:07Z</time>
      </trkpt>
      <trkpt lat="42.484408000" lon="-2.562262000">
        <ele>412.80</ele>
        <time>2017-02-11T06:56:08Z</time>
      </trkpt>
      <trkpt lat="42.484434000" lon="-2.562253000">
        <ele>412.90</ele>
        <time>2017-02-11T06:56:09Z</time>
      </trkpt>
      <trkpt lat="42.484462000" lon="-2.562241000">
        <ele>412.90</ele>
        <time>2017-02-11T06:56:10Z</time>
      </trkpt>
      <trkpt lat="42.484489000" lon="-2.562235000">
        <ele>413.00</ele>
        <time>2017-02-11T06:56:11Z</time>
      </trkpt>
      <trkpt lat="42.484516000" lon="-2.562225000">
        <ele>413.00</ele>
        <time>2017-02-11T06:56:12Z</time>
      </trkpt>
      <trkpt lat="42.484545000" lon="-2.562216000">
        <ele>413.10</ele>
        <time>2017-02-11T06:56:13Z</time>
      </trkpt>
      <trkpt lat="42.484572000" lon="-2.562205000">
        <ele>413.20</ele>
        <time>2017-02-11T06:56:14Z</time>
      </trkpt>
      <trkpt lat="42.484603000" lon="-2.562194000">
        <ele>413.20</ele>
        <time>2017-02-11T06:56:15Z</time>
      </trkpt>
      <trkpt lat="42.484632000" lon="-2.562181000">
        <ele>413.20</ele>
        <time>2017-02-11T06:56:16Z</time>
      </trkpt>
      <trkpt lat="42.484659000" lon="-2.562167000">
        <ele>413.20</ele>
        <time>2017-02-11T06:56:17Z</time>
      </trkpt>
      <trkpt lat="42.484691000" lon="-2.562157000">
        <ele>413.10</ele>
        <time>2017-02-11T06:56:18Z</time>
      </trkpt>
      <trkpt lat="42.484720000" lon="-2.562141000">
        <ele>413.00</ele>
        <time>2017-02-11T06:56:19Z</time>
      </trkpt>
      <trkpt lat="42.484748000" lon="-2.562123000">
        <ele>413.10</ele>
        <time>2017-02-11T06:56:20Z</time>
      </trkpt>
      <trkpt lat="42.484808000" lon="-2.562101000">
        <ele>413.10</ele>
        <time>2017-02-11T06:56:22Z</time>
      </trkpt>
      <trkpt lat="42.484838000" lon="-2.562090000">
        <ele>413.10</ele>
        <time>2017-02-11T06:56:23Z</time>
      </trkpt>
      <trkpt lat="42.484868000" lon="-2.562077000">
        <ele>413.20</ele>
        <time>2017-02-11T06:56:24Z</time>
      </trkpt>
      <trkpt lat="42.484897000" lon="-2.562063000">
        <ele>413.20</ele>
        <time>2017-02-11T06:56:25Z</time>
      </trkpt>
      <trkpt lat="42.484927000" lon="-2.562047000">
        <ele>413.20</ele>
        <time>2017-02-11T06:56:26Z</time>
      </trkpt>
      <trkpt lat="42.484960000" lon="-2.562038000">
        <ele>413.10</ele>
        <time>2017-02-11T06:56:27Z</time>
      </trkpt>
      <trkpt lat="42.484991000" lon="-2.562027000">
        <ele>413.00</ele>
        <time>2017-02-11T06:56:28Z</time>
      </trkpt>
      <trkpt lat="42.485025000" lon="-2.562019000">
        <ele>412.90</ele>
        <time>2017-02-11T06:56:29Z</time>
      </trkpt>
      <trkpt lat="42.485056000" lon="-2.562005000">
        <ele>412.80</ele>
        <time>2017-02-11T06:56:30Z</time>
      </trkpt>
      <trkpt lat="42.485087000" lon="-2.561994000">
        <ele>412.70</ele>
        <time>2017-02-11T06:56:31Z</time>
      </trkpt>
      <trkpt lat="42.485121000" lon="-2.561986000">
        <ele>412.60</ele>
        <time>2017-02-11T06:56:32Z</time>
      </trkpt>
      <trkpt lat="42.485156000" lon="-2.561983000">
        <ele>412.50</ele>
        <time>2017-02-11T06:56:33Z</time>
      </trkpt>
      <trkpt lat="42.485189000" lon="-2.561977000">
        <ele>412.40</ele>
        <time>2017-02-11T06:56:34Z</time>
      </trkpt>
      <trkpt lat="42.485225000" lon="-2.561975000">
        <ele>412.40</ele>
        <time>2017-02-11T06:56:35Z</time>
      </trkpt>
      <trkpt lat="42.485260000" lon="-2.561973000">
        <ele>412.20</ele>
        <time>2017-02-11T06:56:36Z</time>
      </trkpt>
      <trkpt lat="42.485296000" lon="-2.561972000">
        <ele>412.10</ele>
        <time>2017-02-11T06:56:37Z</time>
      </trkpt>
      <trkpt lat="42.485331000" lon="-2.561967000">
        <ele>412.00</ele>
        <time>2017-02-11T06:56:38Z</time>
      </trkpt>
      <trkpt lat="42.485366000" lon="-2.561971000">
        <ele>411.90</ele>
        <time>2017-02-11T06:56:39Z</time>
      </trkpt>
      <trkpt lat="42.485401000" lon="-2.561974000">
        <ele>411.90</ele>
        <time>2017-02-11T06:56:40Z</time>
      </trkpt>
      <trkpt lat="42.485434000" lon="-2.561974000">
        <ele>411.90</ele>
        <time>2017-02-11T06:56:41Z</time>
      </trkpt>
      <trkpt lat="42.485469000" lon="-2.561973000">
        <ele>412.00</ele>
        <time>2017-02-11T06:56:42Z</time>
      </trkpt>
      <trkpt lat="42.485505000" lon="-2.561972000">
        <ele>412.10</ele>
        <time>2017-02-11T06:56:43Z</time>
      </trkpt>
      <trkpt lat="42.485540000" lon="-2.561976000">
        <ele>412.20</ele>
        <time>2017-02-11T06:56:44Z</time>
      </trkpt>
      <trkpt lat="42.485574000" lon="-2.561981000">
        <ele>412.30</ele>
        <time>2017-02-11T06:56:45Z</time>
      </trkpt>
      <trkpt lat="42.485611000" lon="-2.561989000">
        <ele>412.40</ele>
        <time>2017-02-11T06:56:46Z</time>
      </trkpt>
      <trkpt lat="42.485643000" lon="-2.561990000">
        <ele>412.40</ele>
        <time>2017-02-11T06:56:47Z</time>
      </trkpt>
      <trkpt lat="42.485676000" lon="-2.561992000">
        <ele>412.50</ele>
        <time>2017-02-11T06:56:48Z</time>
      </trkpt>
      <trkpt lat="42.485712000" lon="-2.562003000">
        <ele>412.50</ele>
        <time>2017-02-11T06:56:49Z</time>
      </trkpt>
      <trkpt lat="42.485747000" lon="-2.562004000">
        <ele>412.60</ele>
        <time>2017-02-11T06:56:50Z</time>
      </trkpt>
      <trkpt lat="42.485780000" lon="-2.562010000">
        <ele>412.60</ele>
        <time>2017-02-11T06:56:51Z</time>
      </trkpt>
      <trkpt lat="42.485814000" lon="-2.562015000">
        <ele>412.80</ele>
        <time>2017-02-11T06:56:52Z</time>
      </trkpt>
      <trkpt lat="42.485844000" lon="-2.562020000">
        <ele>412.90</ele>
        <time>2017-02-11T06:56:53Z</time>
      </trkpt>
      <trkpt lat="42.485874000" lon="-2.562023000">
        <ele>413.00</ele>
        <time>2017-02-11T06:56:54Z</time>
      </trkpt>
      <trkpt lat="42.485909000" lon="-2.562028000">
        <ele>413.00</ele>
        <time>2017-02-11T06:56:55Z</time>
      </trkpt>
      <trkpt lat="42.485945000" lon="-2.562035000">
        <ele>413.00</ele>
        <time>2017-02-11T06:56:56Z</time>
      </trkpt>
      <trkpt lat="42.485981000" lon="-2.562041000">
        <ele>413.00</ele>
        <time>2017-02-11T06:56:57Z</time>
      </trkpt>
      <trkpt lat="42.486013000" lon="-2.562043000">
        <ele>413.00</ele>
        <time>2017-02-11T06:56:58Z</time>
      </trkpt>
      <trkpt lat="42.486044000" lon="-2.562051000">
        <ele>413.00</ele>
        <time>2017-02-11T06:56:59Z</time>
      </trkpt>
      <trkpt lat="42.486077000" lon="-2.562053000">
        <ele>413.00</ele>
        <time>2017-02-11T06:57:00Z</time>
      </trkpt>
      <trkpt lat="42.486108000" lon="-2.562057000">
        <ele>413.10</ele>
        <time>2017-02-11T06:57:01Z</time>
      </trkpt>
      <trkpt lat="42.486141000" lon="-2.562064000">
        <ele>413.10</ele>
        <time>2017-02-11T06:57:02Z</time>
      </trkpt>
      <trkpt lat="42.486169000" lon="-2.562069000">
        <ele>413.10</ele>
        <time>2017-02-11T06:57:03Z</time>
      </trkpt>
      <trkpt lat="42.486206000" lon="-2.562080000">
        <ele>413.20</ele>
        <time>2017-02-11T06:57:04Z</time>
      </trkpt>
      <trkpt lat="42.486241000" lon="-2.562086000">
        <ele>413.20</ele>
        <time>2017-02-11T06:57:05Z</time>
      </trkpt>
      <trkpt lat="42.486278000" lon="-2.562095000">
        <ele>413.10</ele>
        <time>2017-02-11T06:57:06Z</time>
      </trkpt>
      <trkpt lat="42.486315000" lon="-2.562110000">
        <ele>413.00</ele>
        <time>2017-02-11T06:57:07Z</time>
      </trkpt>
      <trkpt lat="42.486354000" lon="-2.562120000">
        <ele>412.80</ele>
        <time>2017-02-11T06:57:08Z</time>
      </trkpt>
      <trkpt lat="42.486394000" lon="-2.562130000">
        <ele>412.60</ele>
        <time>2017-02-11T06:57:09Z</time>
      </trkpt>
      <trkpt lat="42.486435000" lon="-2.562136000">
        <ele>412.40</ele>
        <time>2017-02-11T06:57:10Z</time>
      </trkpt>
      <trkpt lat="42.486474000" lon="-2.562146000">
        <ele>412.30</ele>
        <time>2017-02-11T06:57:11Z</time>
      </trkpt>
      <trkpt lat="42.486516000" lon="-2.562152000">
        <ele>412.20</ele>
        <time>2017-02-11T06:57:12Z</time>
      </trkpt>
      <trkpt lat="42.486554000" lon="-2.562159000">
        <ele>412.10</ele>
        <time>2017-02-11T06:57:13Z</time>
      </trkpt>
      <trkpt lat="42.486591000" lon="-2.562164000">
        <ele>412.40</ele>
        <time>2017-02-11T06:57:14Z</time>
      </trkpt>
      <trkpt lat="42.486629000" lon="-2.562171000">
        <ele>412.60</ele>
        <time>2017-02-11T06:57:15Z</time>
      </trkpt>
      <trkpt lat="42.486662000" lon="-2.562185000">
        <ele>412.80</ele>
        <time>2017-02-11T06:57:16Z</time>
      </trkpt>
      <trkpt lat="42.486697000" lon="-2.562197000">
        <ele>413.00</ele>
        <time>2017-02-11T06:57:17Z</time>
      </trkpt>
      <trkpt lat="42.486733000" lon="-2.562206000">
        <ele>413.00</ele>
        <time>2017-02-11T06:57:18Z</time>
      </trkpt>
      <trkpt lat="42.486766000" lon="-2.562220000">
        <ele>413.10</ele>
        <time>2017-02-11T06:57:19Z</time>
      </trkpt>
      <trkpt lat="42.486795000" lon="-2.562232000">
        <ele>413.00</ele>
        <time>2017-02-11T06:57:20Z</time>
      </trkpt>
      <trkpt lat="42.486830000" lon="-2.562238000">
        <ele>413.00</ele>
        <time>2017-02-11T06:57:21Z</time>
      </trkpt>
      <trkpt lat="42.486897000" lon="-2.562260000">
        <ele>412.60</ele>
        <time>2017-02-11T06:57:23Z</time>
      </trkpt>
      <trkpt lat="42.486929000" lon="-2.562273000">
        <ele>412.50</ele>
        <time>2017-02-11T06:57:24Z</time>
      </trkpt>
      <trkpt lat="42.486960000" lon="-2.562289000">
        <ele>412.40</ele>
        <time>2017-02-11T06:57:25Z</time>
      </trkpt>
      <trkpt lat="42.486993000" lon="-2.562302000">
        <ele>412.30</ele>
        <time>2017-02-11T06:57:26Z</time>
      </trkpt>
      <trkpt lat="42.487023000" lon="-2.562315000">
        <ele>412.20</ele>
        <time>2017-02-11T06:57:27Z</time>
      </trkpt>
      <trkpt lat="42.487055000" lon="-2.562331000">
        <ele>412.20</ele>
        <time>2017-02-11T06:57:28Z</time>
      </trkpt>
      <trkpt lat="42.487087000" lon="-2.562347000">
        <ele>412.20</ele>
        <time>2017-02-11T06:57:29Z</time>
      </trkpt>
      <trkpt lat="42.487119000" lon="-2.562359000">
        <ele>412.20</ele>
        <time>2017-02-11T06:57:30Z</time>
      </trkpt>
      <trkpt lat="42.487151000" lon="-2.562374000">
        <ele>412.20</ele>
        <time>2017-02-11T06:57:31Z</time>
      </trkpt>
      <trkpt lat="42.487180000" lon="-2.562391000">
        <ele>412.20</ele>
        <time>2017-02-11T06:57:32Z</time>
      </trkpt>
      <trkpt lat="42.487212000" lon="-2.562410000">
        <ele>412.20</ele>
        <time>2017-02-11T06:57:33Z</time>
      </trkpt>
      <trkpt lat="42.487244000" lon="-2.562431000">
        <ele>412.20</ele>
        <time>2017-02-11T06:57:34Z</time>
      </trkpt>
      <trkpt lat="42.487274000" lon="-2.562452000">
        <ele>412.00</ele>
        <time>2017-02-11T06:57:35Z</time>
      </trkpt>
      <trkpt lat="42.487306000" lon="-2.562472000">
        <ele>411.80</ele>
        <time>2017-02-11T06:57:36Z</time>
      </trkpt>
      <trkpt lat="42.487338000" lon="-2.562494000">
        <ele>411.70</ele>
        <time>2017-02-11T06:57:37Z</time>
      </trkpt>
      <trkpt lat="42.487368000" lon="-2.562518000">
        <ele>411.60</ele>
        <time>2017-02-11T06:57:38Z</time>
      </trkpt>
      <trkpt lat="42.487401000" lon="-2.562540000">
        <ele>411.50</ele>
        <time>2017-02-11T06:57:39Z</time>
      </trkpt>
      <trkpt lat="42.487435000" lon="-2.562564000">
        <ele>411.40</ele>
        <time>2017-02-11T06:57:40Z</time>
      </trkpt>
      <trkpt lat="42.487468000" lon="-2.562585000">
        <ele>411.20</ele>
        <time>2017-02-11T06:57:41Z</time>
      </trkpt>
      <trkpt lat="42.487502000" lon="-2.562606000">
        <ele>411.10</ele>
        <time>2017-02-11T06:57:42Z</time>
      </trkpt>
      <trkpt lat="42.487537000" lon="-2.562630000">
        <ele>410.50</ele>
        <time>2017-02-11T06:57:43Z</time>
      </trkpt>
      <trkpt lat="42.487573000" lon="-2.562653000">
        <ele>410.00</ele>
        <time>2017-02-11T06:57:44Z</time>
      </trkpt>
      <trkpt lat="42.487605000" lon="-2.562681000">
        <ele>409.70</ele>
        <time>2017-02-11T06:57:45Z</time>
      </trkpt>
      <trkpt lat="42.487636000" lon="-2.562707000">
        <ele>409.50</ele>
        <time>2017-02-11T06:57:46Z</time>
      </trkpt>
      <trkpt lat="42.487668000" lon="-2.562728000">
        <ele>408.80</ele>
        <time>2017-02-11T06:57:47Z</time>
      </trkpt>
      <trkpt lat="42.487695000" lon="-2.562741000">
        <ele>408.20</ele>
        <time>2017-02-11T06:57:48Z</time>
      </trkpt>
      <trkpt lat="42.487719000" lon="-2.562754000">
        <ele>407.80</ele>
        <time>2017-02-11T06:57:49Z</time>
      </trkpt>
      <trkpt lat="42.487737000" lon="-2.562769000">
        <ele>407.50</ele>
        <time>2017-02-11T06:57:50Z</time>
      </trkpt>
      <trkpt lat="42.487738000" lon="-2.562779000">
        <ele>407.30</ele>
        <time>2017-02-11T06:57:51Z</time>
      </trkpt>
      <trkpt lat="42.487742000" lon="-2.562784000">
        <ele>407.10</ele>
        <time>2017-02-11T06:57:52Z</time>
      </trkpt>
      <trkpt lat="42.487740000" lon="-2.562787000">
        <ele>407.10</ele>
        <time>2017-02-11T06:57:53Z</time>
      </trkpt>
      <trkpt lat="42.487742000" lon="-2.562784000">
        <ele>407.00</ele>
        <time>2017-02-11T06:57:54Z</time>
      </trkpt>
      <trkpt lat="42.487742000" lon="-2.562782000">
        <ele>407.00</ele>
        <time>2017-02-11T06:57:55Z</time>
      </trkpt>
      <trkpt lat="42.487746000" lon="-2.562788000">
        <ele>407.00</ele>
        <time>2017-02-11T06:57:56Z</time>
      </trkpt>
      <trkpt lat="42.487747000" lon="-2.562791000">
        <ele>407.00</ele>
        <time>2017-02-11T06:57:57Z</time>
      </trkpt>
      <trkpt lat="42.487743000" lon="-2.562790000">
        <ele>406.90</ele>
        <time>2017-02-11T06:57:58Z</time>
      </trkpt>
      <trkpt lat="42.487740000" lon="-2.562795000">
        <ele>406.90</ele>
        <time>2017-02-11T06:57:59Z</time>
      </trkpt>
      <trkpt lat="42.487740000" lon="-2.562797000">
        <ele>406.90</ele>
        <time>2017-02-11T06:58:00Z</time>
      </trkpt>
      <trkpt lat="42.487742000" lon="-2.562798000">
        <ele>406.70</ele>
        <time>2017-02-11T06:58:01Z</time>
      </trkpt>
      <trkpt lat="42.487742000" lon="-2.562802000">
        <ele>406.50</ele>
        <time>2017-02-11T06:58:02Z</time>
      </trkpt>
      <trkpt lat="42.487744000" lon="-2.562806000">
        <ele>406.40</ele>
        <time>2017-02-11T06:58:03Z</time>
      </trkpt>
      <trkpt lat="42.487744000" lon="-2.562805000">
        <ele>406.30</ele>
        <time>2017-02-11T06:58:04Z</time>
      </trkpt>
      <trkpt lat="42.487742000" lon="-2.562806000">
        <ele>406.20</ele>
        <time>2017-02-11T06:58:05Z</time>
      </trkpt>
      <trkpt lat="42.487741000" lon="-2.562803000">
        <ele>406.10</ele>
        <time>2017-02-11T06:58:06Z</time>
      </trkpt>
      <trkpt lat="42.487746000" lon="-2.562805000">
        <ele>406.20</ele>
        <time>2017-02-11T06:58:07Z</time>
      </trkpt>
      <trkpt lat="42.487746000" lon="-2.562803000">
        <ele>406.30</ele>
        <time>2017-02-11T06:58:08Z</time>
      </trkpt>
      <trkpt lat="42.487755000" lon="-2.562811000">
        <ele>406.40</ele>
        <time>2017-02-11T06:58:09Z</time>
      </trkpt>
      <trkpt lat="42.487755000" lon="-2.562814000">
        <ele>406.50</ele>
        <time>2017-02-11T06:58:10Z</time>
      </trkpt>
      <trkpt lat="42.487754000" lon="-2.562811000">
        <ele>406.50</ele>
        <time>2017-02-11T06:58:11Z</time>
      </trkpt>
      <trkpt lat="42.487755000" lon="-2.562813000">
        <ele>406.50</ele>
        <time>2017-02-11T06:58:12Z</time>
      </trkpt>
      <trkpt lat="42.487752000" lon="-2.562813000">
        <ele>406.40</ele>
        <time>2017-02-11T06:58:13Z</time>
      </trkpt>
      <trkpt lat="42.487751000" lon="-2.562816000">
        <ele>406.20</ele>
        <time>2017-02-11T06:58:14Z</time>
      </trkpt>
      <trkpt lat="42.487748000" lon="-2.562811000">
        <ele>406.10</ele>
        <time>2017-02-11T06:58:15Z</time>
      </trkpt>
      <trkpt lat="42.487747000" lon="-2.562812000">
        <ele>406.10</ele>
        <time>2017-02-11T06:58:16Z</time>
      </trkpt>
      <trkpt lat="42.487746000" lon="-2.562807000">
        <ele>406.00</ele>
        <time>2017-02-11T06:58:17Z</time>
      </trkpt>
      <trkpt lat="42.487747000" lon="-2.562809000">
        <ele>406.00</ele>
        <time>2017-02-11T06:58:18Z</time>
      </trkpt>
      <trkpt lat="42.487750000" lon="-2.562809000">
        <ele>406.00</ele>
        <time>2017-02-11T06:58:19Z</time>
      </trkpt>
      <trkpt lat="42.487754000" lon="-2.562809000">
        <ele>406.00</ele>
        <time>2017-02-11T06:58:20Z</time>
      </trkpt>
      <trkpt lat="42.487756000" lon="-2.562806000">
        <ele>406.10</ele>
        <time>2017-02-11T06:58:21Z</time>
      </trkpt>
      <trkpt lat="42.487756000" lon="-2.562806000">
        <ele>406.10</ele>
        <time>2017-02-11T06:58:22Z</time>
      </trkpt>
      <trkpt lat="42.487757000" lon="-2.562811000">
        <ele>406.00</ele>
        <time>2017-02-11T06:58:24Z</time>
      </trkpt>
      <trkpt lat="42.487758000" lon="-2.562811000">
        <ele>405.90</ele>
        <time>2017-02-11T06:58:25Z</time>
      </trkpt>
      <trkpt lat="42.487756000" lon="-2.562812000">
        <ele>405.90</ele>
        <time>2017-02-11T06:58:26Z</time>
      </trkpt>
      <trkpt lat="42.487756000" lon="-2.562808000">
        <ele>405.90</ele>
        <time>2017-02-11T06:58:27Z</time>
      </trkpt>
      <trkpt lat="42.487755000" lon="-2.562807000">
        <ele>405.90</ele>
        <time>2017-02-11T06:58:28Z</time>
      </trkpt>
      <trkpt lat="42.487752000" lon="-2.562810000">
        <ele>405.90</ele>
        <time>2017-02-11T06:58:29Z</time>
      </trkpt>
      <trkpt lat="42.487752000" lon="-2.562809000">
        <ele>405.90</ele>
        <time>2017-02-11T06:58:30Z</time>
      </trkpt>
      <trkpt lat="42.487752000" lon="-2.562808000">
        <ele>405.90</ele>
        <time>2017-02-11T06:58:31Z</time>
      </trkpt>
      <trkpt lat="42.487758000" lon="-2.562803000">
        <ele>405.90</ele>
        <time>2017-02-11T06:58:32Z</time>
      </trkpt>
      <trkpt lat="42.487765000" lon="-2.562803000">
        <ele>406.00</ele>
        <time>2017-02-11T06:58:33Z</time>
      </trkpt>
      <trkpt lat="42.487775000" lon="-2.562799000">
        <ele>406.10</ele>
        <time>2017-02-11T06:58:34Z</time>
      </trkpt>
      <trkpt lat="42.487781000" lon="-2.562799000">
        <ele>406.20</ele>
        <time>2017-02-11T06:58:35Z</time>
      </trkpt>
      <trkpt lat="42.487786000" lon="-2.562796000">
        <ele>406.20</ele>
        <time>2017-02-11T06:58:36Z</time>
      </trkpt>
      <trkpt lat="42.487791000" lon="-2.562792000">
        <ele>406.40</ele>
        <time>2017-02-11T06:58:37Z</time>
      </trkpt>
      <trkpt lat="42.487797000" lon="-2.562793000">
        <ele>406.50</ele>
        <time>2017-02-11T06:58:38Z</time>
      </trkpt>
      <trkpt lat="42.487802000" lon="-2.562796000">
        <ele>406.60</ele>
        <time>2017-02-11T06:58:39Z</time>
      </trkpt>
      <trkpt lat="42.487813000" lon="-2.562789000">
        <ele>406.70</ele>
        <time>2017-02-11T06:58:40Z</time>
      </trkpt>
      <trkpt lat="42.487819000" lon="-2.562790000">
        <ele>406.70</ele>
        <time>2017-02-11T06:58:41Z</time>
      </trkpt>
      <trkpt lat="42.487828000" lon="-2.562794000">
        <ele>406.80</ele>
        <time>2017-02-11T06:58:42Z</time>
      </trkpt>
      <trkpt lat="42.487841000" lon="-2.562802000">
        <ele>406.80</ele>
        <time>2017-02-11T06:58:43Z</time>
      </trkpt>
      <trkpt lat="42.487849000" lon="-2.562803000">
        <ele>406.80</ele>
        <time>2017-02-11T06:58:44Z</time>
      </trkpt>
      <trkpt lat="42.487852000" lon="-2.562803000">
        <ele>406.80</ele>
        <time>2017-02-11T06:58:45Z</time>
      </trkpt>
      <trkpt lat="42.487852000" lon="-2.562800000">
        <ele>406.90</ele>
        <time>2017-02-11T06:58:46Z</time>
      </trkpt>
      <trkpt lat="42.487854000" lon="-2.562802000">
        <ele>406.90</ele>
        <time>2017-02-11T06:58:47Z</time>
      </trkpt>
      <trkpt lat="42.487859000" lon="-2.562805000">
        <ele>406.90</ele>
        <time>2017-02-11T06:58:48Z</time>
      </trkpt>
      <trkpt lat="42.487864000" lon="-2.562808000">
        <ele>406.80</ele>
        <time>2017-02-11T06:58:49Z</time>
      </trkpt>
      <trkpt lat="42.487867000" lon="-2.562811000">
        <ele>406.80</ele>
        <time>2017-02-11T06:58:50Z</time>
      </trkpt>
      <trkpt lat="42.487866000" lon="-2.562813000">
        <ele>406.70</ele>
        <time>2017-02-11T06:58:51Z</time>
      </trkpt>
      <trkpt lat="42.487869000" lon="-2.562817000">
        <ele>406.70</ele>
        <time>2017-02-11T06:58:52Z</time>
      </trkpt>
      <trkpt lat="42.487880000" lon="-2.562827000">
        <ele>406.80</ele>
        <time>2017-02-11T06:58:53Z</time>
      </trkpt>
      <trkpt lat="42.487894000" lon="-2.562841000">
        <ele>406.80</ele>
        <time>2017-02-11T06:58:54Z</time>
      </trkpt>
      <trkpt lat="42.487917000" lon="-2.562864000">
        <ele>406.80</ele>
        <time>2017-02-11T06:58:55Z</time>
      </trkpt>
      <trkpt lat="42.487936000" lon="-2.562901000">
        <ele>406.80</ele>
        <time>2017-02-11T06:58:56Z</time>
      </trkpt>
      <trkpt lat="42.487948000" lon="-2.562943000">
        <ele>406.50</ele>
        <time>2017-02-11T06:58:57Z</time>
      </trkpt>
      <trkpt lat="42.487956000" lon="-2.562982000">
        <ele>406.20</ele>
        <time>2017-02-11T06:58:58Z</time>
      </trkpt>
      <trkpt lat="42.487956000" lon="-2.563023000">
        <ele>405.70</ele>
        <time>2017-02-11T06:58:59Z</time>
      </trkpt>
      <trkpt lat="42.487955000" lon="-2.563068000">
        <ele>405.40</ele>
        <time>2017-02-11T06:59:00Z</time>
      </trkpt>
      <trkpt lat="42.487961000" lon="-2.563110000">
        <ele>405.00</ele>
        <time>2017-02-11T06:59:01Z</time>
      </trkpt>
      <trkpt lat="42.487967000" lon="-2.563145000">
        <ele>404.70</ele>
        <time>2017-02-11T06:59:02Z</time>
      </trkpt>
      <trkpt lat="42.487973000" lon="-2.563175000">
        <ele>404.40</ele>
        <time>2017-02-11T06:59:03Z</time>
      </trkpt>
      <trkpt lat="42.487981000" lon="-2.563207000">
        <ele>404.20</ele>
        <time>2017-02-11T06:59:04Z</time>
      </trkpt>
      <trkpt lat="42.487991000" lon="-2.563252000">
        <ele>404.10</ele>
        <time>2017-02-11T06:59:05Z</time>
      </trkpt>
      <trkpt lat="42.487998000" lon="-2.563307000">
        <ele>404.00</ele>
        <time>2017-02-11T06:59:06Z</time>
      </trkpt>
      <trkpt lat="42.488001000" lon="-2.563360000">
        <ele>403.90</ele>
        <time>2017-02-11T06:59:07Z</time>
      </trkpt>
      <trkpt lat="42.488007000" lon="-2.563414000">
        <ele>403.80</ele>
        <time>2017-02-11T06:59:08Z</time>
      </trkpt>
      <trkpt lat="42.488017000" lon="-2.563464000">
        <ele>403.60</ele>
        <time>2017-02-11T06:59:09Z</time>
      </trkpt>
      <trkpt lat="42.488024000" lon="-2.563515000">
        <ele>403.50</ele>
        <time>2017-02-11T06:59:10Z</time>
      </trkpt>
      <trkpt lat="42.488027000" lon="-2.563560000">
        <ele>403.30</ele>
        <time>2017-02-11T06:59:11Z</time>
      </trkpt>
      <trkpt lat="42.488030000" lon="-2.563605000">
        <ele>403.20</ele>
        <time>2017-02-11T06:59:12Z</time>
      </trkpt>
      <trkpt lat="42.488033000" lon="-2.563653000">
        <ele>403.10</ele>
        <time>2017-02-11T06:59:13Z</time>
      </trkpt>
      <trkpt lat="42.488036000" lon="-2.563703000">
        <ele>403.00</ele>
        <time>2017-02-11T06:59:14Z</time>
      </trkpt>
      <trkpt lat="42.488041000" lon="-2.563753000">
        <ele>403.10</ele>
        <time>2017-02-11T06:59:15Z</time>
      </trkpt>
      <trkpt lat="42.488047000" lon="-2.563803000">
        <ele>403.20</ele>
        <time>2017-02-11T06:59:16Z</time>
      </trkpt>
      <trkpt lat="42.488051000" lon="-2.563854000">
        <ele>403.30</ele>
        <time>2017-02-11T06:59:17Z</time>
      </trkpt>
      <trkpt lat="42.488057000" lon="-2.563904000">
        <ele>403.50</ele>
        <time>2017-02-11T06:59:18Z</time>
      </trkpt>
      <trkpt lat="42.488061000" lon="-2.563954000">
        <ele>403.60</ele>
        <time>2017-02-11T06:59:19Z</time>
      </trkpt>
      <trkpt lat="42.488063000" lon="-2.564007000">
        <ele>403.70</ele>
        <time>2017-02-11T06:59:20Z</time>
      </trkpt>
      <trkpt lat="42.488066000" lon="-2.564057000">
        <ele>403.80</ele>
        <time>2017-02-11T06:59:21Z</time>
      </trkpt>
      <trkpt lat="42.488067000" lon="-2.564108000">
        <ele>403.90</ele>
        <time>2017-02-11T06:59:22Z</time>
      </trkpt>
      <trkpt lat="42.488071000" lon="-2.564156000">
        <ele>403.90</ele>
        <time>2017-02-11T06:59:23Z</time>
      </trkpt>
      <trkpt lat="42.488078000" lon="-2.564258000">
        <ele>404.10</ele>
        <time>2017-02-11T06:59:25Z</time>
      </trkpt>
      <trkpt lat="42.488081000" lon="-2.564307000">
        <ele>404.20</ele>
        <time>2017-02-11T06:59:26Z</time>
      </trkpt>
      <trkpt lat="42.488085000" lon="-2.564357000">
        <ele>404.30</ele>
        <time>2017-02-11T06:59:27Z</time>
      </trkpt>
      <trkpt lat="42.488086000" lon="-2.564402000">
        <ele>404.40</ele>
        <time>2017-02-11T06:59:28Z</time>
      </trkpt>
      <trkpt lat="42.488091000" lon="-2.564452000">
        <ele>404.30</ele>
        <time>2017-02-11T06:59:29Z</time>
      </trkpt>
      <trkpt lat="42.488096000" lon="-2.564503000">
        <ele>404.20</ele>
        <time>2017-02-11T06:59:30Z</time>
      </trkpt>
      <trkpt lat="42.488097000" lon="-2.564554000">
        <ele>404.10</ele>
        <time>2017-02-11T06:59:31Z</time>
      </trkpt>
      <trkpt lat="42.488099000" lon="-2.564603000">
        <ele>404.00</ele>
        <time>2017-02-11T06:59:32Z</time>
      </trkpt>
      <trkpt lat="42.488101000" lon="-2.564651000">
        <ele>404.00</ele>
        <time>2017-02-11T06:59:33Z</time>
      </trkpt>
      <trkpt lat="42.488104000" lon="-2.564700000">
        <ele>404.00</ele>
        <time>2017-02-11T06:59:34Z</time>
      </trkpt>
      <trkpt lat="42.488105000" lon="-2.564747000">
        <ele>404.00</ele>
        <time>2017-02-11T06:59:35Z</time>
      </trkpt>
      <trkpt lat="42.488106000" lon="-2.564794000">
        <ele>404.00</ele>
        <time>2017-02-11T06:59:36Z</time>
      </trkpt>
      <trkpt lat="42.488109000" lon="-2.564843000">
        <ele>404.00</ele>
        <time>2017-02-11T06:59:37Z</time>
      </trkpt>
      <trkpt lat="42.488109000" lon="-2.564893000">
        <ele>404.00</ele>
        <time>2017-02-11T06:59:38Z</time>
      </trkpt>
      <trkpt lat="42.488112000" lon="-2.564942000">
        <ele>404.20</ele>
        <time>2017-02-11T06:59:39Z</time>
      </trkpt>
      <trkpt lat="42.488115000" lon="-2.564986000">
        <ele>404.30</ele>
        <time>2017-02-11T06:59:40Z</time>
      </trkpt>
      <trkpt lat="42.488119000" lon="-2.565033000">
        <ele>404.30</ele>
        <time>2017-02-11T06:59:41Z</time>
      </trkpt>
      <trkpt lat="42.488119000" lon="-2.565080000">
        <ele>404.40</ele>
        <time>2017-02-11T06:59:42Z</time>
      </trkpt>
      <trkpt lat="42.488120000" lon="-2.565124000">
        <ele>404.20</ele>
        <time>2017-02-11T06:59:43Z</time>
      </trkpt>
      <trkpt lat="42.488120000" lon="-2.565170000">
        <ele>404.10</ele>
        <time>2017-02-11T06:59:44Z</time>
      </trkpt>
      <trkpt lat="42.488121000" lon="-2.565213000">
        <ele>404.00</ele>
        <time>2017-02-11T06:59:45Z</time>
      </trkpt>
      <trkpt lat="42.488125000" lon="-2.565259000">
        <ele>404.00</ele>
        <time>2017-02-11T06:59:46Z</time>
      </trkpt>
      <trkpt lat="42.488133000" lon="-2.565302000">
        <ele>404.10</ele>
        <time>2017-02-11T06:59:47Z</time>
      </trkpt>
      <trkpt lat="42.488139000" lon="-2.565348000">
        <ele>404.20</ele>
        <time>2017-02-11T06:59:48Z</time>
      </trkpt>
      <trkpt lat="42.488144000" lon="-2.565391000">
        <ele>404.40</ele>
        <time>2017-02-11T06:59:49Z</time>
      </trkpt>
      <trkpt lat="42.488148000" lon="-2.565434000">
        <ele>404.60</ele>
        <time>2017-02-11T06:59:50Z</time>
      </trkpt>
      <trkpt lat="42.488151000" lon="-2.565478000">
        <ele>404.70</ele>
        <time>2017-02-11T06:59:51Z</time>
      </trkpt>
      <trkpt lat="42.488158000" lon="-2.565524000">
        <ele>404.80</ele>
        <time>2017-02-11T06:59:52Z</time>
      </trkpt>
      <trkpt lat="42.488163000" lon="-2.565571000">
        <ele>404.90</ele>
        <time>2017-02-11T06:59:53Z</time>
      </trkpt>
      <trkpt lat="42.488166000" lon="-2.565615000">
        <ele>405.00</ele>
        <time>2017-02-11T06:59:54Z</time>
      </trkpt>
      <trkpt lat="42.488169000" lon="-2.565656000">
        <ele>405.40</ele>
        <time>2017-02-11T06:59:55Z</time>
      </trkpt>
      <trkpt lat="42.488175000" lon="-2.565698000">
        <ele>405.60</ele>
        <time>2017-02-11T06:59:56Z</time>
      </trkpt>
      <trkpt lat="42.488181000" lon="-2.565742000">
        <ele>405.90</ele>
        <time>2017-02-11T06:59:57Z</time>
      </trkpt>
      <trkpt lat="42.488186000" lon="-2.565787000">
        <ele>406.20</ele>
        <time>2017-02-11T06:59:58Z</time>
      </trkpt>
      <trkpt lat="42.488191000" lon="-2.565834000">
        <ele>406.50</ele>
        <time>2017-02-11T06:59:59Z</time>
      </trkpt>
      <trkpt lat="42.488193000" lon="-2.565879000">
        <ele>406.70</ele>
        <time>2017-02-11T07:00:00Z</time>
      </trkpt>
      <trkpt lat="42.488192000" lon="-2.565924000">
        <ele>406.80</ele>
        <time>2017-02-11T07:00:01Z</time>
      </trkpt>
      <trkpt lat="42.488197000" lon="-2.565969000">
        <ele>406.80</ele>
        <time>2017-02-11T07:00:02Z</time>
      </trkpt>
      <trkpt lat="42.488199000" lon="-2.566015000">
        <ele>406.80</ele>
        <time>2017-02-11T07:00:03Z</time>
      </trkpt>
      <trkpt lat="42.488202000" lon="-2.566058000">
        <ele>406.80</ele>
        <time>2017-02-11T07:00:04Z</time>
      </trkpt>
      <trkpt lat="42.488207000" lon="-2.566099000">
        <ele>406.90</ele>
        <time>2017-02-11T07:00:05Z</time>
      </trkpt>
      <trkpt lat="42.488212000" lon="-2.566145000">
        <ele>406.90</ele>
        <time>2017-02-11T07:00:06Z</time>
      </trkpt>
      <trkpt lat="42.488217000" lon="-2.566188000">
        <ele>406.90</ele>
        <time>2017-02-11T07:00:07Z</time>
      </trkpt>
      <trkpt lat="42.488222000" lon="-2.566230000">
        <ele>406.90</ele>
        <time>2017-02-11T07:00:08Z</time>
      </trkpt>
      <trkpt lat="42.488225000" lon="-2.566271000">
        <ele>407.00</ele>
        <time>2017-02-11T07:00:09Z</time>
      </trkpt>
      <trkpt lat="42.488224000" lon="-2.566315000">
        <ele>407.10</ele>
        <time>2017-02-11T07:00:10Z</time>
      </trkpt>
      <trkpt lat="42.488226000" lon="-2.566362000">
        <ele>407.10</ele>
        <time>2017-02-11T07:00:11Z</time>
      </trkpt>
      <trkpt lat="42.488236000" lon="-2.566406000">
        <ele>407.10</ele>
        <time>2017-02-11T07:00:12Z</time>
      </trkpt>
      <trkpt lat="42.488244000" lon="-2.566449000">
        <ele>407.20</ele>
        <time>2017-02-11T07:00:13Z</time>
      </trkpt>
      <trkpt lat="42.488248000" lon="-2.566495000">
        <ele>407.30</ele>
        <time>2017-02-11T07:00:14Z</time>
      </trkpt>
      <trkpt lat="42.488252000" lon="-2.566536000">
        <ele>407.30</ele>
        <time>2017-02-11T07:00:15Z</time>
      </trkpt>
      <trkpt lat="42.488254000" lon="-2.566582000">
        <ele>407.30</ele>
        <time>2017-02-11T07:00:16Z</time>
      </trkpt>
      <trkpt lat="42.488256000" lon="-2.566630000">
        <ele>407.30</ele>
        <time>2017-02-11T07:00:17Z</time>
      </trkpt>
      <trkpt lat="42.488256000" lon="-2.566678000">
        <ele>407.40</ele>
        <time>2017-02-11T07:00:18Z</time>
      </trkpt>
      <trkpt lat="42.488255000" lon="-2.566728000">
        <ele>407.50</ele>
        <time>2017-02-11T07:00:19Z</time>
      </trkpt>
      <trkpt lat="42.488256000" lon="-2.566780000">
        <ele>407.60</ele>
        <time>2017-02-11T07:00:20Z</time>
      </trkpt>
      <trkpt lat="42.488264000" lon="-2.566823000">
        <ele>407.70</ele>
        <time>2017-02-11T07:00:21Z</time>
      </trkpt>
      <trkpt lat="42.488272000" lon="-2.566872000">
        <ele>407.80</ele>
        <time>2017-02-11T07:00:22Z</time>
      </trkpt>
      <trkpt lat="42.488275000" lon="-2.566916000">
        <ele>407.80</ele>
        <time>2017-02-11T07:00:23Z</time>
      </trkpt>
      <trkpt lat="42.488276000" lon="-2.566961000">
        <ele>407.80</ele>
        <time>2017-02-11T07:00:24Z</time>
      </trkpt>
      <trkpt lat="42.488277000" lon="-2.567058000">
        <ele>407.90</ele>
        <time>2017-02-11T07:00:26Z</time>
      </trkpt>
      <trkpt lat="42.488277000" lon="-2.567103000">
        <ele>407.90</ele>
        <time>2017-02-11T07:00:27Z</time>
      </trkpt>
      <trkpt lat="42.488279000" lon="-2.567147000">
        <ele>407.90</ele>
        <time>2017-02-11T07:00:28Z</time>
      </trkpt>
      <trkpt lat="42.488281000" lon="-2.567195000">
        <ele>407.80</ele>
        <time>2017-02-11T07:00:29Z</time>
      </trkpt>
      <trkpt lat="42.488279000" lon="-2.567240000">
        <ele>407.80</ele>
        <time>2017-02-11T07:00:30Z</time>
      </trkpt>
      <trkpt lat="42.488280000" lon="-2.567287000">
        <ele>407.80</ele>
        <time>2017-02-11T07:00:31Z</time>
      </trkpt>
      <trkpt lat="42.488280000" lon="-2.567335000">
        <ele>407.70</ele>
        <time>2017-02-11T07:00:32Z</time>
      </trkpt>
      <trkpt lat="42.488282000" lon="-2.567379000">
        <ele>407.90</ele>
        <time>2017-02-11T07:00:33Z</time>
      </trkpt>
      <trkpt lat="42.488284000" lon="-2.567428000">
        <ele>408.10</ele>
        <time>2017-02-11T07:00:34Z</time>
      </trkpt>
      <trkpt lat="42.488286000" lon="-2.567473000">
        <ele>408.20</ele>
        <time>2017-02-11T07:00:35Z</time>
      </trkpt>
      <trkpt lat="42.488288000" lon="-2.567520000">
        <ele>408.20</ele>
        <time>2017-02-11T07:00:36Z</time>
      </trkpt>
      <trkpt lat="42.488292000" lon="-2.567568000">
        <ele>408.20</ele>
        <time>2017-02-11T07:00:37Z</time>
      </trkpt>
      <trkpt lat="42.488292000" lon="-2.567615000">
        <ele>408.20</ele>
        <time>2017-02-11T07:00:38Z</time>
      </trkpt>
      <trkpt lat="42.488294000" lon="-2.567662000">
        <ele>408.20</ele>
        <time>2017-02-11T07:00:39Z</time>
      </trkpt>
      <trkpt lat="42.488294000" lon="-2.567709000">
        <ele>408.20</ele>
        <time>2017-02-11T07:00:40Z</time>
      </trkpt>
      <trkpt lat="42.488296000" lon="-2.567755000">
        <ele>408.20</ele>
        <time>2017-02-11T07:00:41Z</time>
      </trkpt>
      <trkpt lat="42.488301000" lon="-2.567800000">
        <ele>408.30</ele>
        <time>2017-02-11T07:00:42Z</time>
      </trkpt>
      <trkpt lat="42.488305000" lon="-2.567846000">
        <ele>408.30</ele>
        <time>2017-02-11T07:00:43Z</time>
      </trkpt>
      <trkpt lat="42.488310000" lon="-2.567892000">
        <ele>408.40</ele>
        <time>2017-02-11T07:00:44Z</time>
      </trkpt>
      <trkpt lat="42.488317000" lon="-2.567941000">
        <ele>408.40</ele>
        <time>2017-02-11T07:00:45Z</time>
      </trkpt>
      <trkpt lat="42.488324000" lon="-2.567987000">
        <ele>408.40</ele>
        <time>2017-02-11T07:00:46Z</time>
      </trkpt>
      <trkpt lat="42.488330000" lon="-2.568032000">
        <ele>408.40</ele>
        <time>2017-02-11T07:00:47Z</time>
      </trkpt>
      <trkpt lat="42.488331000" lon="-2.568079000">
        <ele>408.40</ele>
        <time>2017-02-11T07:00:48Z</time>
      </trkpt>
      <trkpt lat="42.488330000" lon="-2.568124000">
        <ele>408.40</ele>
        <time>2017-02-11T07:00:49Z</time>
      </trkpt>
      <trkpt lat="42.488329000" lon="-2.568169000">
        <ele>408.40</ele>
        <time>2017-02-11T07:00:50Z</time>
      </trkpt>
      <trkpt lat="42.488326000" lon="-2.568216000">
        <ele>408.50</ele>
        <time>2017-02-11T07:00:51Z</time>
      </trkpt>
      <trkpt lat="42.488322000" lon="-2.568265000">
        <ele>408.50</ele>
        <time>2017-02-11T07:00:52Z</time>
      </trkpt>
      <trkpt lat="42.488318000" lon="-2.568317000">
        <ele>408.60</ele>
        <time>2017-02-11T07:00:53Z</time>
      </trkpt>
      <trkpt lat="42.488323000" lon="-2.568367000">
        <ele>408.70</ele>
        <time>2017-02-11T07:00:54Z</time>
      </trkpt>
      <trkpt lat="42.488325000" lon="-2.568415000">
        <ele>408.70</ele>
        <time>2017-02-11T07:00:55Z</time>
      </trkpt>
      <trkpt lat="42.488327000" lon="-2.568464000">
        <ele>408.70</ele>
        <time>2017-02-11T07:00:56Z</time>
      </trkpt>
      <trkpt lat="42.488328000" lon="-2.568514000">
        <ele>408.60</ele>
        <time>2017-02-11T07:00:57Z</time>
      </trkpt>
      <trkpt lat="42.488331000" lon="-2.568563000">
        <ele>408.60</ele>
        <time>2017-02-11T07:00:58Z</time>
      </trkpt>
      <trkpt lat="42.488334000" lon="-2.568609000">
        <ele>408.60</ele>
        <time>2017-02-11T07:00:59Z</time>
      </trkpt>
      <trkpt lat="42.488337000" lon="-2.568656000">
        <ele>408.50</ele>
        <time>2017-02-11T07:01:00Z</time>
      </trkpt>
      <trkpt lat="42.488340000" lon="-2.568705000">
        <ele>408.40</ele>
        <time>2017-02-11T07:01:01Z</time>
      </trkpt>
      <trkpt lat="42.488344000" lon="-2.568755000">
        <ele>408.40</ele>
        <time>2017-02-11T07:01:02Z</time>
      </trkpt>
      <trkpt lat="42.488348000" lon="-2.568801000">
        <ele>408.30</ele>
        <time>2017-02-11T07:01:03Z</time>
      </trkpt>
      <trkpt lat="42.488354000" lon="-2.568849000">
        <ele>408.30</ele>
        <time>2017-02-11T07:01:04Z</time>
      </trkpt>
      <trkpt lat="42.488358000" lon="-2.568899000">
        <ele>408.20</ele>
        <time>2017-02-11T07:01:05Z</time>
      </trkpt>
      <trkpt lat="42.488361000" lon="-2.568950000">
        <ele>408.10</ele>
        <time>2017-02-11T07:01:06Z</time>
      </trkpt>
      <trkpt lat="42.488365000" lon="-2.569003000">
        <ele>408.10</ele>
        <time>2017-02-11T07:01:07Z</time>
      </trkpt>
      <trkpt lat="42.488371000" lon="-2.569054000">
        <ele>408.00</ele>
        <time>2017-02-11T07:01:08Z</time>
      </trkpt>
      <trkpt lat="42.488376000" lon="-2.569103000">
        <ele>408.20</ele>
        <time>2017-02-11T07:01:09Z</time>
      </trkpt>
      <trkpt lat="42.488380000" lon="-2.569152000">
        <ele>408.30</ele>
        <time>2017-02-11T07:01:10Z</time>
      </trkpt>
      <trkpt lat="42.488379000" lon="-2.569200000">
        <ele>408.40</ele>
        <time>2017-02-11T07:01:11Z</time>
      </trkpt>
      <trkpt lat="42.488376000" lon="-2.569248000">
        <ele>408.40</ele>
        <time>2017-02-11T07:01:12Z</time>
      </trkpt>
      <trkpt lat="42.488371000" lon="-2.569298000">
        <ele>408.50</ele>
        <time>2017-02-11T07:01:13Z</time>
      </trkpt>
      <trkpt lat="42.488367000" lon="-2.569349000">
        <ele>408.50</ele>
        <time>2017-02-11T07:01:14Z</time>
      </trkpt>
      <trkpt lat="42.488362000" lon="-2.569398000">
        <ele>408.20</ele>
        <time>2017-02-11T07:01:15Z</time>
      </trkpt>
      <trkpt lat="42.488359000" lon="-2.569446000">
        <ele>408.00</ele>
        <time>2017-02-11T07:01:16Z</time>
      </trkpt>
      <trkpt lat="42.488351000" lon="-2.569497000">
        <ele>407.90</ele>
        <time>2017-02-11T07:01:17Z</time>
      </trkpt>
      <trkpt lat="42.488342000" lon="-2.569547000">
        <ele>407.80</ele>
        <time>2017-02-11T07:01:18Z</time>
      </trkpt>
      <trkpt lat="42.488338000" lon="-2.569589000">
        <ele>407.70</ele>
        <time>2017-02-11T07:01:19Z</time>
      </trkpt>
      <trkpt lat="42.488338000" lon="-2.569623000">
        <ele>407.70</ele>
        <time>2017-02-11T07:01:20Z</time>
      </trkpt>
      <trkpt lat="42.488346000" lon="-2.569650000">
        <ele>407.80</ele>
        <time>2017-02-11T07:01:21Z</time>
      </trkpt>
      <trkpt lat="42.488364000" lon="-2.569672000">
        <ele>407.80</ele>
        <time>2017-02-11T07:01:22Z</time>
      </trkpt>
      <trkpt lat="42.488378000" lon="-2.569697000">
        <ele>407.80</ele>
        <time>2017-02-11T07:01:23Z</time>
      </trkpt>
      <trkpt lat="42.488400000" lon="-2.569729000">
        <ele>407.90</ele>
        <time>2017-02-11T07:01:24Z</time>
      </trkpt>
      <trkpt lat="42.488429000" lon="-2.569757000">
        <ele>407.60</ele>
        <time>2017-02-11T07:01:25Z</time>
      </trkpt>
      <trkpt lat="42.488489000" lon="-2.569800000">
        <ele>407.00</ele>
        <time>2017-02-11T07:01:27Z</time>
      </trkpt>
      <trkpt lat="42.488503000" lon="-2.569804000">
        <ele>406.70</ele>
        <time>2017-02-11T07:01:28Z</time>
      </trkpt>
      <trkpt lat="42.488517000" lon="-2.569816000">
        <ele>406.40</ele>
        <time>2017-02-11T07:01:29Z</time>
      </trkpt>
      <trkpt lat="42.488528000" lon="-2.569824000">
        <ele>406.20</ele>
        <time>2017-02-11T07:01:30Z</time>
      </trkpt>
      <trkpt lat="42.488549000" lon="-2.569833000">
        <ele>406.10</ele>
        <time>2017-02-11T07:01:31Z</time>
      </trkpt>
      <trkpt lat="42.488569000" lon="-2.569841000">
        <ele>406.00</ele>
        <time>2017-02-11T07:01:32Z</time>
      </trkpt>
      <trkpt lat="42.488585000" lon="-2.569854000">
        <ele>405.90</ele>
        <time>2017-02-11T07:01:33Z</time>
      </trkpt>
      <trkpt lat="42.488597000" lon="-2.569868000">
        <ele>405.70</ele>
        <time>2017-02-11T07:01:34Z</time>
      </trkpt>
      <trkpt lat="42.488604000" lon="-2.569892000">
        <ele>405.40</ele>
        <time>2017-02-11T07:01:35Z</time>
      </trkpt>
      <trkpt lat="42.488598000" lon="-2.569917000">
        <ele>405.10</ele>
        <time>2017-02-11T07:01:36Z</time>
      </trkpt>
      <trkpt lat="42.488587000" lon="-2.569947000">
        <ele>404.90</ele>
        <time>2017-02-11T07:01:37Z</time>
      </trkpt>
      <trkpt lat="42.488563000" lon="-2.569969000">
        <ele>404.70</ele>
        <time>2017-02-11T07:01:38Z</time>
      </trkpt>
      <trkpt lat="42.488533000" lon="-2.569970000">
        <ele>404.40</ele>
        <time>2017-02-11T07:01:39Z</time>
      </trkpt>
      <trkpt lat="42.488505000" lon="-2.569956000">
        <ele>404.20</ele>
        <time>2017-02-11T07:01:40Z</time>
      </trkpt>
      <trkpt lat="42.488479000" lon="-2.569956000">
        <ele>404.00</ele>
        <time>2017-02-11T07:01:41Z</time>
      </trkpt>
      <trkpt lat="42.488458000" lon="-2.569963000">
        <ele>403.80</ele>
        <time>2017-02-11T07:01:42Z</time>
      </trkpt>
      <trkpt lat="42.488440000" lon="-2.569982000">
        <ele>403.60</ele>
        <time>2017-02-11T07:01:43Z</time>
      </trkpt>
      <trkpt lat="42.488435000" lon="-2.570006000">
        <ele>403.40</ele>
        <time>2017-02-11T07:01:44Z</time>
      </trkpt>
      <trkpt lat="42.488439000" lon="-2.570031000">
        <ele>403.20</ele>
        <time>2017-02-11T07:01:45Z</time>
      </trkpt>
      <trkpt lat="42.488461000" lon="-2.570048000">
        <ele>403.00</ele>
        <time>2017-02-11T07:01:46Z</time>
      </trkpt>
      <trkpt lat="42.488489000" lon="-2.570062000">
        <ele>402.60</ele>
        <time>2017-02-11T07:01:47Z</time>
      </trkpt>
      <trkpt lat="42.488519000" lon="-2.570076000">
        <ele>402.40</ele>
        <time>2017-02-11T07:01:48Z</time>
      </trkpt>
      <trkpt lat="42.488553000" lon="-2.570091000">
        <ele>402.20</ele>
        <time>2017-02-11T07:01:49Z</time>
      </trkpt>
      <trkpt lat="42.488592000" lon="-2.570102000">
        <ele>402.10</ele>
        <time>2017-02-11T07:01:50Z</time>
      </trkpt>
      <trkpt lat="42.488630000" lon="-2.570116000">
        <ele>402.00</ele>
        <time>2017-02-11T07:01:51Z</time>
      </trkpt>
      <trkpt lat="42.488670000" lon="-2.570136000">
        <ele>401.90</ele>
        <time>2017-02-11T07:01:52Z</time>
      </trkpt>
      <trkpt lat="42.488712000" lon="-2.570162000">
        <ele>401.90</ele>
        <time>2017-02-11T07:01:53Z</time>
      </trkpt>
      <trkpt lat="42.488752000" lon="-2.570189000">
        <ele>401.80</ele>
        <time>2017-02-11T07:01:54Z</time>
      </trkpt>
      <trkpt lat="42.488793000" lon="-2.570223000">
        <ele>401.80</ele>
        <time>2017-02-11T07:01:55Z</time>
      </trkpt>
      <trkpt lat="42.488834000" lon="-2.570259000">
        <ele>401.80</ele>
        <time>2017-02-11T07:01:56Z</time>
      </trkpt>
      <trkpt lat="42.488874000" lon="-2.570300000">
        <ele>401.60</ele>
        <time>2017-02-11T07:01:57Z</time>
      </trkpt>
      <trkpt lat="42.488912000" lon="-2.570340000">
        <ele>401.50</ele>
        <time>2017-02-11T07:01:58Z</time>
      </trkpt>
      <trkpt lat="42.488951000" lon="-2.570382000">
        <ele>401.50</ele>
        <time>2017-02-11T07:01:59Z</time>
      </trkpt>
      <trkpt lat="42.488984000" lon="-2.570424000">
        <ele>401.50</ele>
        <time>2017-02-11T07:02:00Z</time>
      </trkpt>
      <trkpt lat="42.489018000" lon="-2.570470000">
        <ele>401.30</ele>
        <time>2017-02-11T07:02:01Z</time>
      </trkpt>
      <trkpt lat="42.489050000" lon="-2.570515000">
        <ele>401.20</ele>
        <time>2017-02-11T07:02:02Z</time>
      </trkpt>
      <trkpt lat="42.489082000" lon="-2.570557000">
        <ele>401.20</ele>
        <time>2017-02-11T07:02:03Z</time>
      </trkpt>
      <trkpt lat="42.489119000" lon="-2.570602000">
        <ele>401.20</ele>
        <time>2017-02-11T07:02:04Z</time>
      </trkpt>
      <trkpt lat="42.489153000" lon="-2.570652000">
        <ele>401.10</ele>
        <time>2017-02-11T07:02:05Z</time>
      </trkpt>
      <trkpt lat="42.489193000" lon="-2.570699000">
        <ele>401.10</ele>
        <time>2017-02-11T07:02:06Z</time>
      </trkpt>
      <trkpt lat="42.489237000" lon="-2.570747000">
        <ele>400.70</ele>
        <time>2017-02-11T07:02:07Z</time>
      </trkpt>
      <trkpt lat="42.489286000" lon="-2.570794000">
        <ele>400.30</ele>
        <time>2017-02-11T07:02:08Z</time>
      </trkpt>
      <trkpt lat="42.489337000" lon="-2.570844000">
        <ele>400.00</ele>
        <time>2017-02-11T07:02:09Z</time>
      </trkpt>
      <trkpt lat="42.489389000" lon="-2.570885000">
        <ele>399.70</ele>
        <time>2017-02-11T07:02:10Z</time>
      </trkpt>
      <trkpt lat="42.489449000" lon="-2.570919000">
        <ele>399.30</ele>
        <time>2017-02-11T07:02:11Z</time>
      </trkpt>
      <trkpt lat="42.489515000" lon="-2.570947000">
        <ele>399.10</ele>
        <time>2017-02-11T07:02:12Z</time>
      </trkpt>
      <trkpt lat="42.489582000" lon="-2.570971000">
        <ele>398.70</ele>
        <time>2017-02-11T07:02:13Z</time>
      </trkpt>
      <trkpt lat="42.489647000" lon="-2.570986000">
        <ele>398.40</ele>
        <time>2017-02-11T07:02:14Z</time>
      </trkpt>
      <trkpt lat="42.489708000" lon="-2.570996000">
        <ele>398.00</ele>
        <time>2017-02-11T07:02:15Z</time>
      </trkpt>
      <trkpt lat="42.489764000" lon="-2.571002000">
        <ele>397.60</ele>
        <time>2017-02-11T07:02:16Z</time>
      </trkpt>
      <trkpt lat="42.489819000" lon="-2.571008000">
        <ele>397.30</ele>
        <time>2017-02-11T07:02:17Z</time>
      </trkpt>
      <trkpt lat="42.489873000" lon="-2.571013000">
        <ele>397.00</ele>
        <time>2017-02-11T07:02:18Z</time>
      </trkpt>
      <trkpt lat="42.489926000" lon="-2.571017000">
        <ele>396.70</ele>
        <time>2017-02-11T07:02:19Z</time>
      </trkpt>
      <trkpt lat="42.489977000" lon="-2.571019000">
        <ele>396.40</ele>
        <time>2017-02-11T07:02:20Z</time>
      </trkpt>
      <trkpt lat="42.490028000" lon="-2.571023000">
        <ele>396.20</ele>
        <time>2017-02-11T07:02:21Z</time>
      </trkpt>
      <trkpt lat="42.490080000" lon="-2.571022000">
        <ele>396.00</ele>
        <time>2017-02-11T07:02:22Z</time>
      </trkpt>
      <trkpt lat="42.490132000" lon="-2.571022000">
        <ele>395.90</ele>
        <time>2017-02-11T07:02:23Z</time>
      </trkpt>
      <trkpt lat="42.490182000" lon="-2.571026000">
        <ele>395.80</ele>
        <time>2017-02-11T07:02:24Z</time>
      </trkpt>
      <trkpt lat="42.490234000" lon="-2.571026000">
        <ele>396.00</ele>
        <time>2017-02-11T07:02:25Z</time>
      </trkpt>
      <trkpt lat="42.490283000" lon="-2.571028000">
        <ele>396.20</ele>
        <time>2017-02-11T07:02:26Z</time>
      </trkpt>
      <trkpt lat="42.490383000" lon="-2.571032000">
        <ele>396.40</ele>
        <time>2017-02-11T07:02:28Z</time>
      </trkpt>
      <trkpt lat="42.490436000" lon="-2.571038000">
        <ele>396.10</ele>
        <time>2017-02-11T07:02:29Z</time>
      </trkpt>
      <trkpt lat="42.490485000" lon="-2.571045000">
        <ele>395.90</ele>
        <time>2017-02-11T07:02:30Z</time>
      </trkpt>
      <trkpt lat="42.490534000" lon="-2.571049000">
        <ele>395.70</ele>
        <time>2017-02-11T07:02:31Z</time>
      </trkpt>
      <trkpt lat="42.490581000" lon="-2.571056000">
        <ele>395.50</ele>
        <time>2017-02-11T07:02:32Z</time>
      </trkpt>
      <trkpt lat="42.490630000" lon="-2.571060000">
        <ele>395.80</ele>
        <time>2017-02-11T07:02:33Z</time>
      </trkpt>
      <trkpt lat="42.490675000" lon="-2.571067000">
        <ele>395.90</ele>
        <time>2017-02-11T07:02:34Z</time>
      </trkpt>
      <trkpt lat="42.490724000" lon="-2.571073000">
        <ele>396.10</ele>
        <time>2017-02-11T07:02:35Z</time>
      </trkpt>
      <trkpt lat="42.490773000" lon="-2.571086000">
        <ele>396.10</ele>
        <time>2017-02-11T07:02:36Z</time>
      </trkpt>
      <trkpt lat="42.490821000" lon="-2.571100000">
        <ele>396.20</ele>
        <time>2017-02-11T07:02:37Z</time>
      </trkpt>
      <trkpt lat="42.490871000" lon="-2.571111000">
        <ele>396.30</ele>
        <time>2017-02-11T07:02:38Z</time>
      </trkpt>
      <trkpt lat="42.490923000" lon="-2.571118000">
        <ele>396.20</ele>
        <time>2017-02-11T07:02:39Z</time>
      </trkpt>
      <trkpt lat="42.490969000" lon="-2.571135000">
        <ele>396.20</ele>
        <time>2017-02-11T07:02:40Z</time>
      </trkpt>
      <trkpt lat="42.491016000" lon="-2.571151000">
        <ele>396.00</ele>
        <time>2017-02-11T07:02:41Z</time>
      </trkpt>
      <trkpt lat="42.491062000" lon="-2.571170000">
        <ele>395.90</ele>
        <time>2017-02-11T07:02:42Z</time>
      </trkpt>
      <trkpt lat="42.491108000" lon="-2.571194000">
        <ele>395.70</ele>
        <time>2017-02-11T07:02:43Z</time>
      </trkpt>
      <trkpt lat="42.491153000" lon="-2.571221000">
        <ele>395.70</ele>
        <time>2017-02-11T07:02:44Z</time>
      </trkpt>
      <trkpt lat="42.491200000" lon="-2.571246000">
        <ele>395.60</ele>
        <time>2017-02-11T07:02:45Z</time>
      </trkpt>
      <trkpt lat="42.491248000" lon="-2.571276000">
        <ele>395.50</ele>
        <time>2017-02-11T07:02:46Z</time>
      </trkpt>
      <trkpt lat="42.491294000" lon="-2.571303000">
        <ele>395.20</ele>
        <time>2017-02-11T07:02:47Z</time>
      </trkpt>
      <trkpt lat="42.491340000" lon="-2.571340000">
        <ele>394.90</ele>
        <time>2017-02-11T07:02:48Z</time>
      </trkpt>
      <trkpt lat="42.491383000" lon="-2.571378000">
        <ele>394.80</ele>
        <time>2017-02-11T07:02:49Z</time>
      </trkpt>
      <trkpt lat="42.491424000" lon="-2.571423000">
        <ele>394.60</ele>
        <time>2017-02-11T07:02:50Z</time>
      </trkpt>
      <trkpt lat="42.491466000" lon="-2.571466000">
        <ele>394.50</ele>
        <time>2017-02-11T07:02:51Z</time>
      </trkpt>
      <trkpt lat="42.491504000" lon="-2.571507000">
        <ele>394.40</ele>
        <time>2017-02-11T07:02:52Z</time>
      </trkpt>
      <trkpt lat="42.491544000" lon="-2.571554000">
        <ele>394.50</ele>
        <time>2017-02-11T07:02:53Z</time>
      </trkpt>
      <trkpt lat="42.491585000" lon="-2.571598000">
        <ele>394.50</ele>
        <time>2017-02-11T07:02:54Z</time>
      </trkpt>
      <trkpt lat="42.491621000" lon="-2.571645000">
        <ele>394.70</ele>
        <time>2017-02-11T07:02:55Z</time>
      </trkpt>
      <trkpt lat="42.491657000" lon="-2.571692000">
        <ele>394.80</ele>
        <time>2017-02-11T07:02:56Z</time>
      </trkpt>
      <trkpt lat="42.491690000" lon="-2.571740000">
        <ele>394.90</ele>
        <time>2017-02-11T07:02:57Z</time>
      </trkpt>
      <trkpt lat="42.491723000" lon="-2.571789000">
        <ele>394.90</ele>
        <time>2017-02-11T07:02:58Z</time>
      </trkpt>
      <trkpt lat="42.491755000" lon="-2.571841000">
        <ele>394.80</ele>
        <time>2017-02-11T07:02:59Z</time>
      </trkpt>
      <trkpt lat="42.491786000" lon="-2.571890000">
        <ele>394.60</ele>
        <time>2017-02-11T07:03:00Z</time>
      </trkpt>
      <trkpt lat="42.491819000" lon="-2.571938000">
        <ele>394.40</ele>
        <time>2017-02-11T07:03:01Z</time>
      </trkpt>
      <trkpt lat="42.491845000" lon="-2.571986000">
        <ele>394.20</ele>
        <time>2017-02-11T07:03:02Z</time>
      </trkpt>
      <trkpt lat="42.491874000" lon="-2.572035000">
        <ele>393.90</ele>
        <time>2017-02-11T07:03:03Z</time>
      </trkpt>
      <trkpt lat="42.491904000" lon="-2.572084000">
        <ele>393.70</ele>
        <time>2017-02-11T07:03:04Z</time>
      </trkpt>
      <trkpt lat="42.491932000" lon="-2.572132000">
        <ele>393.60</ele>
        <time>2017-02-11T07:03:05Z</time>
      </trkpt>
      <trkpt lat="42.491958000" lon="-2.572180000">
        <ele>393.50</ele>
        <time>2017-02-11T07:03:06Z</time>
      </trkpt>
      <trkpt lat="42.491985000" lon="-2.572230000">
        <ele>393.40</ele>
        <time>2017-02-11T07:03:07Z</time>
      </trkpt>
      <trkpt lat="42.492010000" lon="-2.572276000">
        <ele>393.30</ele>
        <time>2017-02-11T07:03:08Z</time>
      </trkpt>
      <trkpt lat="42.492035000" lon="-2.572320000">
        <ele>393.40</ele>
        <time>2017-02-11T07:03:09Z</time>
      </trkpt>
      <trkpt lat="42.492060000" lon="-2.572370000">
        <ele>393.40</ele>
        <time>2017-02-11T07:03:10Z</time>
      </trkpt>
      <trkpt lat="42.492085000" lon="-2.572418000">
        <ele>393.30</ele>
        <time>2017-02-11T07:03:11Z</time>
      </trkpt>
      <trkpt lat="42.492112000" lon="-2.572469000">
        <ele>393.30</ele>
        <time>2017-02-11T07:03:12Z</time>
      </trkpt>
      <trkpt lat="42.492139000" lon="-2.572516000">
        <ele>393.30</ele>
        <time>2017-02-11T07:03:13Z</time>
      </trkpt>
      <trkpt lat="42.492166000" lon="-2.572564000">
        <ele>393.30</ele>
        <time>2017-02-11T07:03:14Z</time>
      </trkpt>
      <trkpt lat="42.492191000" lon="-2.572610000">
        <ele>393.40</ele>
        <time>2017-02-11T07:03:15Z</time>
      </trkpt>
      <trkpt lat="42.492216000" lon="-2.572653000">
        <ele>393.40</ele>
        <time>2017-02-11T07:03:16Z</time>
      </trkpt>
      <trkpt lat="42.492238000" lon="-2.572698000">
        <ele>393.40</ele>
        <time>2017-02-11T07:03:17Z</time>
      </trkpt>
      <trkpt lat="42.492268000" lon="-2.572743000">
        <ele>393.40</ele>
        <time>2017-02-11T07:03:18Z</time>
      </trkpt>
      <trkpt lat="42.492296000" lon="-2.572789000">
        <ele>393.50</ele>
        <time>2017-02-11T07:03:19Z</time>
      </trkpt>
      <trkpt lat="42.492322000" lon="-2.572838000">
        <ele>393.50</ele>
        <time>2017-02-11T07:03:20Z</time>
      </trkpt>
      <trkpt lat="42.492349000" lon="-2.572887000">
        <ele>393.50</ele>
        <time>2017-02-11T07:03:21Z</time>
      </trkpt>
      <trkpt lat="42.492374000" lon="-2.572935000">
        <ele>393.60</ele>
        <time>2017-02-11T07:03:22Z</time>
      </trkpt>
      <trkpt lat="42.492400000" lon="-2.572983000">
        <ele>393.90</ele>
        <time>2017-02-11T07:03:23Z</time>
      </trkpt>
      <trkpt lat="42.492428000" lon="-2.573030000">
        <ele>394.10</ele>
        <time>2017-02-11T07:03:24Z</time>
      </trkpt>
      <trkpt lat="42.492454000" lon="-2.573076000">
        <ele>394.30</ele>
        <time>2017-02-11T07:03:25Z</time>
      </trkpt>
      <trkpt lat="42.492480000" lon="-2.573123000">
        <ele>394.40</ele>
        <time>2017-02-11T07:03:26Z</time>
      </trkpt>
      <trkpt lat="42.492508000" lon="-2.573169000">
        <ele>394.50</ele>
        <time>2017-02-11T07:03:27Z</time>
      </trkpt>
      <trkpt lat="42.492563000" lon="-2.573271000">
        <ele>394.70</ele>
        <time>2017-02-11T07:03:29Z</time>
      </trkpt>
      <trkpt lat="42.492590000" lon="-2.573321000">
        <ele>394.80</ele>
        <time>2017-02-11T07:03:30Z</time>
      </trkpt>
      <trkpt lat="42.492617000" lon="-2.573372000">
        <ele>394.90</ele>
        <time>2017-02-11T07:03:31Z</time>
      </trkpt>
      <trkpt lat="42.492645000" lon="-2.573420000">
        <ele>395.00</ele>
        <time>2017-02-11T07:03:32Z</time>
      </trkpt>
      <trkpt lat="42.492673000" lon="-2.573470000">
        <ele>394.80</ele>
        <time>2017-02-11T07:03:33Z</time>
      </trkpt>
      <trkpt lat="42.492694000" lon="-2.573520000">
        <ele>394.80</ele>
        <time>2017-02-11T07:03:34Z</time>
      </trkpt>
      <trkpt lat="42.492703000" lon="-2.573574000">
        <ele>394.70</ele>
        <time>2017-02-11T07:03:35Z</time>
      </trkpt>
      <trkpt lat="42.492700000" lon="-2.573625000">
        <ele>394.70</ele>
        <time>2017-02-11T07:03:36Z</time>
      </trkpt>
      <trkpt lat="42.492687000" lon="-2.573675000">
        <ele>394.80</ele>
        <time>2017-02-11T07:03:37Z</time>
      </trkpt>
      <trkpt lat="42.492667000" lon="-2.573721000">
        <ele>394.90</ele>
        <time>2017-02-11T07:03:38Z</time>
      </trkpt>
      <trkpt lat="42.492643000" lon="-2.573766000">
        <ele>394.90</ele>
        <time>2017-02-11T07:03:39Z</time>
      </trkpt>
      <trkpt lat="42.492619000" lon="-2.573803000">
        <ele>395.00</ele>
        <time>2017-02-11T07:03:40Z</time>
      </trkpt>
      <trkpt lat="42.492593000" lon="-2.573836000">
        <ele>395.00</ele>
        <time>2017-02-11T07:03:41Z</time>
      </trkpt>
      <trkpt lat="42.492568000" lon="-2.573870000">
        <ele>395.00</ele>
        <time>2017-02-11T07:03:42Z</time>
      </trkpt>
      <trkpt lat="42.492545000" lon="-2.573902000">
        <ele>395.30</ele>
        <time>2017-02-11T07:03:43Z</time>
      </trkpt>
      <trkpt lat="42.492523000" lon="-2.573934000">
        <ele>395.40</ele>
        <time>2017-02-11T07:03:44Z</time>
      </trkpt>
      <trkpt lat="42.492502000" lon="-2.573965000">
        <ele>395.90</ele>
        <time>2017-02-11T07:03:45Z</time>
      </trkpt>
      <trkpt lat="42.492480000" lon="-2.573997000">
        <ele>396.20</ele>
        <time>2017-02-11T07:03:46Z</time>
      </trkpt>
      <trkpt lat="42.492460000" lon="-2.574028000">
        <ele>396.50</ele>
        <time>2017-02-11T07:03:47Z</time>
      </trkpt>
      <trkpt lat="42.492442000" lon="-2.574055000">
        <ele>396.60</ele>
        <time>2017-02-11T07:03:48Z</time>
      </trkpt>
      <trkpt lat="42.492427000" lon="-2.574076000">
        <ele>397.10</ele>
        <time>2017-02-11T07:03:49Z</time>
      </trkpt>
      <trkpt lat="42.492413000" lon="-2.574099000">
        <ele>397.40</ele>
        <time>2017-02-11T07:03:50Z</time>
      </trkpt>
      <trkpt lat="42.492399000" lon="-2.574124000">
        <ele>397.60</ele>
        <time>2017-02-11T07:03:51Z</time>
      </trkpt>
      <trkpt lat="42.492385000" lon="-2.574143000">
        <ele>397.80</ele>
        <time>2017-02-11T07:03:52Z</time>
      </trkpt>
      <trkpt lat="42.492371000" lon="-2.574161000">
        <ele>398.10</ele>
        <time>2017-02-11T07:03:53Z</time>
      </trkpt>
      <trkpt lat="42.492358000" lon="-2.574183000">
        <ele>398.30</ele>
        <time>2017-02-11T07:03:54Z</time>
      </trkpt>
      <trkpt lat="42.492341000" lon="-2.574197000">
        <ele>398.40</ele>
        <time>2017-02-11T07:03:55Z</time>
      </trkpt>
      <trkpt lat="42.492323000" lon="-2.574219000">
        <ele>398.50</ele>
        <time>2017-02-11T07:03:56Z</time>
      </trkpt>
      <trkpt lat="42.492304000" lon="-2.574237000">
        <ele>398.80</ele>
        <time>2017-02-11T07:03:57Z</time>
      </trkpt>
      <trkpt lat="42.492285000" lon="-2.574259000">
        <ele>399.00</ele>
        <time>2017-02-11T07:03:58Z</time>
      </trkpt>
      <trkpt lat="42.492264000" lon="-2.574280000">
        <ele>399.40</ele>
        <time>2017-02-11T07:03:59Z</time>
      </trkpt>
      <trkpt lat="42.492244000" lon="-2.574302000">
        <ele>399.60</ele>
        <time>2017-02-11T07:04:00Z</time>
      </trkpt>
      <trkpt lat="42.492220000" lon="-2.574324000">
        <ele>399.90</ele>
        <time>2017-02-11T07:04:01Z</time>
      </trkpt>
      <trkpt lat="42.492199000" lon="-2.574342000">
        <ele>400.20</ele>
        <time>2017-02-11T07:04:02Z</time>
      </trkpt>
      <trkpt lat="42.492175000" lon="-2.574357000">
        <ele>400.30</ele>
        <time>2017-02-11T07:04:03Z</time>
      </trkpt>
      <trkpt lat="42.492151000" lon="-2.574373000">
        <ele>400.50</ele>
        <time>2017-02-11T07:04:04Z</time>
      </trkpt>
      <trkpt lat="42.492130000" lon="-2.574387000">
        <ele>400.70</ele>
        <time>2017-02-11T07:04:05Z</time>
      </trkpt>
      <trkpt lat="42.492107000" lon="-2.574399000">
        <ele>400.80</ele>
        <time>2017-02-11T07:04:06Z</time>
      </trkpt>
      <trkpt lat="42.492082000" lon="-2.574409000">
        <ele>401.10</ele>
        <time>2017-02-11T07:04:07Z</time>
      </trkpt>
      <trkpt lat="42.492058000" lon="-2.574425000">
        <ele>401.30</ele>
        <time>2017-02-11T07:04:08Z</time>
      </trkpt>
      <trkpt lat="42.492036000" lon="-2.574438000">
        <ele>401.60</ele>
        <time>2017-02-11T07:04:09Z</time>
      </trkpt>
      <trkpt lat="42.492014000" lon="-2.574452000">
        <ele>401.80</ele>
        <time>2017-02-11T07:04:10Z</time>
      </trkpt>
      <trkpt lat="42.491990000" lon="-2.574462000">
        <ele>402.10</ele>
        <time>2017-02-11T07:04:11Z</time>
      </trkpt>
      <trkpt lat="42.491968000" lon="-2.574474000">
        <ele>402.40</ele>
        <time>2017-02-11T07:04:12Z</time>
      </trkpt>
      <trkpt lat="42.491949000" lon="-2.574490000">
        <ele>402.60</ele>
        <time>2017-02-11T07:04:13Z</time>
      </trkpt>
      <trkpt lat="42.491928000" lon="-2.574507000">
        <ele>402.80</ele>
        <time>2017-02-11T07:04:14Z</time>
      </trkpt>
      <trkpt lat="42.491909000" lon="-2.574523000">
        <ele>403.10</ele>
        <time>2017-02-11T07:04:15Z</time>
      </trkpt>
      <trkpt lat="42.491889000" lon="-2.574540000">
        <ele>403.30</ele>
        <time>2017-02-11T07:04:16Z</time>
      </trkpt>
      <trkpt lat="42.491871000" lon="-2.574554000">
        <ele>403.60</ele>
        <time>2017-02-11T07:04:17Z</time>
      </trkpt>
      <trkpt lat="42.491852000" lon="-2.574568000">
        <ele>403.90</ele>
        <time>2017-02-11T07:04:18Z</time>
      </trkpt>
      <trkpt lat="42.491830000" lon="-2.574581000">
        <ele>404.10</ele>
        <time>2017-02-11T07:04:19Z</time>
      </trkpt>
      <trkpt lat="42.491810000" lon="-2.574595000">
        <ele>404.20</ele>
        <time>2017-02-11T07:04:20Z</time>
      </trkpt>
      <trkpt lat="42.491789000" lon="-2.574612000">
        <ele>404.50</ele>
        <time>2017-02-11T07:04:21Z</time>
      </trkpt>
      <trkpt lat="42.491768000" lon="-2.574627000">
        <ele>404.60</ele>
        <time>2017-02-11T07:04:22Z</time>
      </trkpt>
      <trkpt lat="42.491749000" lon="-2.574638000">
        <ele>405.00</ele>
        <time>2017-02-11T07:04:23Z</time>
      </trkpt>
      <trkpt lat="42.491729000" lon="-2.574656000">
        <ele>405.20</ele>
        <time>2017-02-11T07:04:24Z</time>
      </trkpt>
      <trkpt lat="42.491708000" lon="-2.574670000">
        <ele>405.50</ele>
        <time>2017-02-11T07:04:25Z</time>
      </trkpt>
      <trkpt lat="42.491688000" lon="-2.574678000">
        <ele>405.80</ele>
        <time>2017-02-11T07:04:26Z</time>
      </trkpt>
      <trkpt lat="42.491670000" lon="-2.574692000">
        <ele>406.00</ele>
        <time>2017-02-11T07:04:27Z</time>
      </trkpt>
      <trkpt lat="42.491652000" lon="-2.574709000">
        <ele>406.20</ele>
        <time>2017-02-11T07:04:28Z</time>
      </trkpt>
      <trkpt lat="42.491618000" lon="-2.574744000">
        <ele>406.60</ele>
        <time>2017-02-11T07:04:30Z</time>
      </trkpt>
      <trkpt lat="42.491604000" lon="-2.574759000">
        <ele>406.90</ele>
        <time>2017-02-11T07:04:31Z</time>
      </trkpt>
      <trkpt lat="42.491591000" lon="-2.574776000">
        <ele>407.10</ele>
        <time>2017-02-11T07:04:32Z</time>
      </trkpt>
      <trkpt lat="42.491578000" lon="-2.574791000">
        <ele>407.20</ele>
        <time>2017-02-11T07:04:33Z</time>
      </trkpt>
      <trkpt lat="42.491561000" lon="-2.574807000">
        <ele>407.30</ele>
        <time>2017-02-11T07:04:34Z</time>
      </trkpt>
      <trkpt lat="42.491547000" lon="-2.574829000">
        <ele>407.70</ele>
        <time>2017-02-11T07:04:35Z</time>
      </trkpt>
      <trkpt lat="42.491535000" lon="-2.574852000">
        <ele>408.10</ele>
        <time>2017-02-11T07:04:36Z</time>
      </trkpt>
      <trkpt lat="42.491524000" lon="-2.574872000">
        <ele>408.40</ele>
        <time>2017-02-11T07:04:37Z</time>
      </trkpt>
      <trkpt lat="42.491514000" lon="-2.574895000">
        <ele>408.70</ele>
        <time>2017-02-11T07:04:38Z</time>
      </trkpt>
      <trkpt lat="42.491505000" lon="-2.574920000">
        <ele>408.90</ele>
        <time>2017-02-11T07:04:39Z</time>
      </trkpt>
      <trkpt lat="42.491500000" lon="-2.574948000">
        <ele>409.00</ele>
        <time>2017-02-11T07:04:40Z</time>
      </trkpt>
      <trkpt lat="42.491495000" lon="-2.574975000">
        <ele>409.50</ele>
        <time>2017-02-11T07:04:41Z</time>
      </trkpt>
      <trkpt lat="42.491484000" lon="-2.575001000">
        <ele>409.80</ele>
        <time>2017-02-11T07:04:42Z</time>
      </trkpt>
      <trkpt lat="42.491482000" lon="-2.575028000">
        <ele>410.10</ele>
        <time>2017-02-11T07:04:43Z</time>
      </trkpt>
      <trkpt lat="42.491485000" lon="-2.575054000">
        <ele>410.30</ele>
        <time>2017-02-11T07:04:44Z</time>
      </trkpt>
      <trkpt lat="42.491487000" lon="-2.575080000">
        <ele>410.40</ele>
        <time>2017-02-11T07:04:45Z</time>
      </trkpt>
      <trkpt lat="42.491488000" lon="-2.575106000">
        <ele>410.50</ele>
        <time>2017-02-11T07:04:46Z</time>
      </trkpt>
      <trkpt lat="42.491489000" lon="-2.575134000">
        <ele>410.80</ele>
        <time>2017-02-11T07:04:47Z</time>
      </trkpt>
      <trkpt lat="42.491491000" lon="-2.575160000">
        <ele>410.90</ele>
        <time>2017-02-11T07:04:48Z</time>
      </trkpt>
      <trkpt lat="42.491493000" lon="-2.575185000">
        <ele>411.10</ele>
        <time>2017-02-11T07:04:49Z</time>
      </trkpt>
      <trkpt lat="42.491500000" lon="-2.575211000">
        <ele>411.20</ele>
        <time>2017-02-11T07:04:50Z</time>
      </trkpt>
      <trkpt lat="42.491509000" lon="-2.575234000">
        <ele>411.70</ele>
        <time>2017-02-11T07:04:51Z</time>
      </trkpt>
      <trkpt lat="42.491521000" lon="-2.575254000">
        <ele>412.00</ele>
        <time>2017-02-11T07:04:52Z</time>
      </trkpt>
      <trkpt lat="42.491533000" lon="-2.575277000">
        <ele>412.30</ele>
        <time>2017-02-11T07:04:53Z</time>
      </trkpt>
      <trkpt lat="42.491544000" lon="-2.575294000">
        <ele>412.50</ele>
        <time>2017-02-11T07:04:54Z</time>
      </trkpt>
      <trkpt lat="42.491561000" lon="-2.575311000">
        <ele>412.70</ele>
        <time>2017-02-11T07:04:55Z</time>
      </trkpt>
      <trkpt lat="42.491574000" lon="-2.575328000">
        <ele>412.80</ele>
        <time>2017-02-11T07:04:56Z</time>
      </trkpt>
      <trkpt lat="42.491591000" lon="-2.575345000">
        <ele>413.00</ele>
        <time>2017-02-11T07:04:57Z</time>
      </trkpt>
      <trkpt lat="42.491608000" lon="-2.575361000">
        <ele>413.10</ele>
        <time>2017-02-11T07:04:58Z</time>
      </trkpt>
      <trkpt lat="42.491626000" lon="-2.575378000">
        <ele>413.40</ele>
        <time>2017-02-11T07:04:59Z</time>
      </trkpt>
      <trkpt lat="42.491650000" lon="-2.575393000">
        <ele>413.60</ele>
        <time>2017-02-11T07:05:00Z</time>
      </trkpt>
      <trkpt lat="42.491669000" lon="-2.575403000">
        <ele>413.80</ele>
        <time>2017-02-11T07:05:01Z</time>
      </trkpt>
      <trkpt lat="42.491689000" lon="-2.575413000">
        <ele>413.90</ele>
        <time>2017-02-11T07:05:02Z</time>
      </trkpt>
      <trkpt lat="42.491712000" lon="-2.575421000">
        <ele>414.10</ele>
        <time>2017-02-11T07:05:03Z</time>
      </trkpt>
      <trkpt lat="42.491731000" lon="-2.575427000">
        <ele>414.20</ele>
        <time>2017-02-11T07:05:04Z</time>
      </trkpt>
      <trkpt lat="42.491752000" lon="-2.575429000">
        <ele>414.40</ele>
        <time>2017-02-11T07:05:05Z</time>
      </trkpt>
      <trkpt lat="42.491771000" lon="-2.575431000">
        <ele>414.60</ele>
        <time>2017-02-11T07:05:06Z</time>
      </trkpt>
      <trkpt lat="42.491789000" lon="-2.575431000">
        <ele>414.80</ele>
        <time>2017-02-11T07:05:07Z</time>
      </trkpt>
      <trkpt lat="42.491804000" lon="-2.575426000">
        <ele>415.00</ele>
        <time>2017-02-11T07:05:08Z</time>
      </trkpt>
      <trkpt lat="42.491821000" lon="-2.575422000">
        <ele>415.10</ele>
        <time>2017-02-11T07:05:09Z</time>
      </trkpt>
      <trkpt lat="42.491837000" lon="-2.575415000">
        <ele>415.20</ele>
        <time>2017-02-11T07:05:10Z</time>
      </trkpt>
      <trkpt lat="42.491855000" lon="-2.575407000">
        <ele>415.50</ele>
        <time>2017-02-11T07:05:11Z</time>
      </trkpt>
      <trkpt lat="42.491872000" lon="-2.575398000">
        <ele>415.80</ele>
        <time>2017-02-11T07:05:12Z</time>
      </trkpt>
      <trkpt lat="42.491889000" lon="-2.575391000">
        <ele>416.10</ele>
        <time>2017-02-11T07:05:13Z</time>
      </trkpt>
      <trkpt lat="42.491907000" lon="-2.575383000">
        <ele>416.40</ele>
        <time>2017-02-11T07:05:14Z</time>
      </trkpt>
      <trkpt lat="42.491924000" lon="-2.575379000">
        <ele>416.60</ele>
        <time>2017-02-11T07:05:15Z</time>
      </trkpt>
      <trkpt lat="42.491939000" lon="-2.575372000">
        <ele>416.70</ele>
        <time>2017-02-11T07:05:16Z</time>
      </trkpt>
      <trkpt lat="42.491956000" lon="-2.575366000">
        <ele>416.90</ele>
        <time>2017-02-11T07:05:17Z</time>
      </trkpt>
      <trkpt lat="42.491974000" lon="-2.575363000">
        <ele>416.90</ele>
        <time>2017-02-11T07:05:18Z</time>
      </trkpt>
      <trkpt lat="42.491992000" lon="-2.575358000">
        <ele>417.00</ele>
        <time>2017-02-11T07:05:19Z</time>
      </trkpt>
      <trkpt lat="42.492011000" lon="-2.575355000">
        <ele>417.10</ele>
        <time>2017-02-11T07:05:20Z</time>
      </trkpt>
      <trkpt lat="42.492031000" lon="-2.575350000">
        <ele>417.20</ele>
        <time>2017-02-11T07:05:21Z</time>
      </trkpt>
      <trkpt lat="42.492051000" lon="-2.575348000">
        <ele>417.20</ele>
        <time>2017-02-11T07:05:22Z</time>
      </trkpt>
      <trkpt lat="42.492069000" lon="-2.575343000">
        <ele>417.40</ele>
        <time>2017-02-11T07:05:23Z</time>
      </trkpt>
      <trkpt lat="42.492087000" lon="-2.575338000">
        <ele>417.40</ele>
        <time>2017-02-11T07:05:24Z</time>
      </trkpt>
      <trkpt lat="42.492106000" lon="-2.575332000">
        <ele>417.60</ele>
        <time>2017-02-11T07:05:25Z</time>
      </trkpt>
      <trkpt lat="42.492123000" lon="-2.575331000">
        <ele>417.80</ele>
        <time>2017-02-11T07:05:26Z</time>
      </trkpt>
      <trkpt lat="42.492141000" lon="-2.575328000">
        <ele>417.90</ele>
        <time>2017-02-11T07:05:27Z</time>
      </trkpt>
      <trkpt lat="42.492156000" lon="-2.575322000">
        <ele>418.00</ele>
        <time>2017-02-11T07:05:28Z</time>
      </trkpt>
      <trkpt lat="42.492172000" lon="-2.575322000">
        <ele>418.20</ele>
        <time>2017-02-11T07:05:29Z</time>
      </trkpt>
      <trkpt lat="42.492202000" lon="-2.575309000">
        <ele>418.40</ele>
        <time>2017-02-11T07:05:31Z</time>
      </trkpt>
      <trkpt lat="42.492215000" lon="-2.575304000">
        <ele>418.60</ele>
        <time>2017-02-11T07:05:32Z</time>
      </trkpt>
      <trkpt lat="42.492231000" lon="-2.575300000">
        <ele>418.70</ele>
        <time>2017-02-11T07:05:33Z</time>
      </trkpt>
      <trkpt lat="42.492250000" lon="-2.575296000">
        <ele>418.80</ele>
        <time>2017-02-11T07:05:34Z</time>
      </trkpt>
      <trkpt lat="42.492269000" lon="-2.575289000">
        <ele>418.90</ele>
        <time>2017-02-11T07:05:35Z</time>
      </trkpt>
      <trkpt lat="42.492289000" lon="-2.575279000">
        <ele>419.00</ele>
        <time>2017-02-11T07:05:36Z</time>
      </trkpt>
      <trkpt lat="42.492306000" lon="-2.575266000">
        <ele>419.10</ele>
        <time>2017-02-11T07:05:37Z</time>
      </trkpt>
      <trkpt lat="42.492326000" lon="-2.575252000">
        <ele>419.10</ele>
        <time>2017-02-11T07:05:38Z</time>
      </trkpt>
      <trkpt lat="42.492341000" lon="-2.575232000">
        <ele>419.40</ele>
        <time>2017-02-11T07:05:39Z</time>
      </trkpt>
      <trkpt lat="42.492357000" lon="-2.575211000">
        <ele>419.60</ele>
        <time>2017-02-11T07:05:40Z</time>
      </trkpt>
      <trkpt lat="42.492373000" lon="-2.575187000">
        <ele>419.90</ele>
        <time>2017-02-11T07:05:41Z</time>
      </trkpt>
      <trkpt lat="42.492393000" lon="-2.575172000">
        <ele>420.10</ele>
        <time>2017-02-11T07:05:42Z</time>
      </trkpt>
      <trkpt lat="42.492411000" lon="-2.575157000">
        <ele>420.30</ele>
        <time>2017-02-11T07:05:43Z</time>
      </trkpt>
      <trkpt lat="42.492431000" lon="-2.575145000">
        <ele>420.40</ele>
        <time>2017-02-11T07:05:44Z</time>
      </trkpt>
      <trkpt lat="42.492453000" lon="-2.575141000">
        <ele>420.50</ele>
        <time>2017-02-11T07:05:45Z</time>
      </trkpt>
      <trkpt lat="42.492475000" lon="-2.575134000">
        <ele>420.50</ele>
        <time>2017-02-11T07:05:46Z</time>
      </trkpt>
      <trkpt lat="42.492497000" lon="-2.575141000">
        <ele>420.60</ele>
        <time>2017-02-11T07:05:47Z</time>
      </trkpt>
      <trkpt lat="42.492520000" lon="-2.575152000">
        <ele>420.60</ele>
        <time>2017-02-11T07:05:48Z</time>
      </trkpt>
      <trkpt lat="42.492541000" lon="-2.575162000">
        <ele>420.70</ele>
        <time>2017-02-11T07:05:49Z</time>
      </trkpt>
      <trkpt lat="42.492557000" lon="-2.575187000">
        <ele>420.80</ele>
        <time>2017-02-11T07:05:50Z</time>
      </trkpt>
      <trkpt lat="42.492566000" lon="-2.575215000">
        <ele>420.90</ele>
        <time>2017-02-11T07:05:51Z</time>
      </trkpt>
      <trkpt lat="42.492572000" lon="-2.575243000">
        <ele>421.00</ele>
        <time>2017-02-11T07:05:52Z</time>
      </trkpt>
      <trkpt lat="42.492573000" lon="-2.575271000">
        <ele>421.10</ele>
        <time>2017-02-11T07:05:53Z</time>
      </trkpt>
      <trkpt lat="42.492568000" lon="-2.575300000">
        <ele>421.20</ele>
        <time>2017-02-11T07:05:54Z</time>
      </trkpt>
      <trkpt lat="42.492555000" lon="-2.575329000">
        <ele>421.50</ele>
        <time>2017-02-11T07:05:55Z</time>
      </trkpt>
      <trkpt lat="42.492542000" lon="-2.575358000">
        <ele>421.70</ele>
        <time>2017-02-11T07:05:56Z</time>
      </trkpt>
      <trkpt lat="42.492529000" lon="-2.575381000">
        <ele>421.90</ele>
        <time>2017-02-11T07:05:57Z</time>
      </trkpt>
      <trkpt lat="42.492511000" lon="-2.575415000">
        <ele>422.00</ele>
        <time>2017-02-11T07:05:58Z</time>
      </trkpt>
      <trkpt lat="42.492491000" lon="-2.575446000">
        <ele>421.70</ele>
        <time>2017-02-11T07:05:59Z</time>
      </trkpt>
      <trkpt lat="42.492472000" lon="-2.575478000">
        <ele>421.50</ele>
        <time>2017-02-11T07:06:00Z</time>
      </trkpt>
      <trkpt lat="42.492452000" lon="-2.575506000">
        <ele>421.30</ele>
        <time>2017-02-11T07:06:01Z</time>
      </trkpt>
      <trkpt lat="42.492433000" lon="-2.575535000">
        <ele>421.20</ele>
        <time>2017-02-11T07:06:02Z</time>
      </trkpt>
      <trkpt lat="42.492415000" lon="-2.575563000">
        <ele>421.10</ele>
        <time>2017-02-11T07:06:03Z</time>
      </trkpt>
      <trkpt lat="42.492399000" lon="-2.575591000">
        <ele>421.10</ele>
        <time>2017-02-11T07:06:04Z</time>
      </trkpt>
      <trkpt lat="42.492380000" lon="-2.575617000">
        <ele>421.20</ele>
        <time>2017-02-11T07:06:05Z</time>
      </trkpt>
      <trkpt lat="42.492363000" lon="-2.575645000">
        <ele>421.20</ele>
        <time>2017-02-11T07:06:06Z</time>
      </trkpt>
      <trkpt lat="42.492344000" lon="-2.575674000">
        <ele>421.30</ele>
        <time>2017-02-11T07:06:07Z</time>
      </trkpt>
      <trkpt lat="42.492325000" lon="-2.575704000">
        <ele>421.30</ele>
        <time>2017-02-11T07:06:08Z</time>
      </trkpt>
      <trkpt lat="42.492303000" lon="-2.575731000">
        <ele>421.30</ele>
        <time>2017-02-11T07:06:09Z</time>
      </trkpt>
      <trkpt lat="42.492282000" lon="-2.575764000">
        <ele>421.30</ele>
        <time>2017-02-11T07:06:10Z</time>
      </trkpt>
      <trkpt lat="42.492257000" lon="-2.575793000">
        <ele>421.20</ele>
        <time>2017-02-11T07:06:11Z</time>
      </trkpt>
      <trkpt lat="42.492233000" lon="-2.575826000">
        <ele>421.10</ele>
        <time>2017-02-11T07:06:12Z</time>
      </trkpt>
      <trkpt lat="42.492212000" lon="-2.575858000">
        <ele>421.00</ele>
        <time>2017-02-11T07:06:13Z</time>
      </trkpt>
      <trkpt lat="42.492190000" lon="-2.575890000">
        <ele>421.00</ele>
        <time>2017-02-11T07:06:14Z</time>
      </trkpt>
      <trkpt lat="42.492167000" lon="-2.575923000">
        <ele>420.90</ele>
        <time>2017-02-11T07:06:15Z</time>
      </trkpt>
      <trkpt lat="42.492144000" lon="-2.575955000">
        <ele>420.90</ele>
        <time>2017-02-11T07:06:16Z</time>
      </trkpt>
      <trkpt lat="42.492121000" lon="-2.575986000">
        <ele>420.90</ele>
        <time>2017-02-11T07:06:17Z</time>
      </trkpt>
      <trkpt lat="42.492100000" lon="-2.576020000">
        <ele>421.00</ele>
        <time>2017-02-11T07:06:18Z</time>
      </trkpt>
      <trkpt lat="42.492072000" lon="-2.576057000">
        <ele>421.00</ele>
        <time>2017-02-11T07:06:19Z</time>
      </trkpt>
      <trkpt lat="42.492047000" lon="-2.576094000">
        <ele>421.00</ele>
        <time>2017-02-11T07:06:20Z</time>
      </trkpt>
      <trkpt lat="42.492020000" lon="-2.576132000">
        <ele>421.00</ele>
        <time>2017-02-11T07:06:21Z</time>
      </trkpt>
      <trkpt lat="42.491993000" lon="-2.576170000">
        <ele>421.00</ele>
        <time>2017-02-11T07:06:22Z</time>
      </trkpt>
      <trkpt lat="42.491961000" lon="-2.576210000">
        <ele>421.00</ele>
        <time>2017-02-11T07:06:23Z</time>
      </trkpt>
      <trkpt lat="42.491933000" lon="-2.576252000">
        <ele>420.90</ele>
        <time>2017-02-11T07:06:24Z</time>
      </trkpt>
      <trkpt lat="42.491902000" lon="-2.576295000">
        <ele>420.90</ele>
        <time>2017-02-11T07:06:25Z</time>
      </trkpt>
      <trkpt lat="42.491872000" lon="-2.576335000">
        <ele>420.90</ele>
        <time>2017-02-11T07:06:26Z</time>
      </trkpt>
      <trkpt lat="42.491844000" lon="-2.576374000">
        <ele>420.80</ele>
        <time>2017-02-11T07:06:27Z</time>
      </trkpt>
      <trkpt lat="42.491819000" lon="-2.576418000">
        <ele>420.80</ele>
        <time>2017-02-11T07:06:28Z</time>
      </trkpt>
      <trkpt lat="42.491791000" lon="-2.576458000">
        <ele>420.90</ele>
        <time>2017-02-11T07:06:29Z</time>
      </trkpt>
      <trkpt lat="42.491762000" lon="-2.576496000">
        <ele>421.00</ele>
        <time>2017-02-11T07:06:30Z</time>
      </trkpt>
      <trkpt lat="42.491704000" lon="-2.576588000">
        <ele>421.10</ele>
        <time>2017-02-11T07:06:32Z</time>
      </trkpt>
      <trkpt lat="42.491672000" lon="-2.576630000">
        <ele>421.20</ele>
        <time>2017-02-11T07:06:33Z</time>
      </trkpt>
      <trkpt lat="42.491636000" lon="-2.576667000">
        <ele>421.20</ele>
        <time>2017-02-11T07:06:34Z</time>
      </trkpt>
      <trkpt lat="42.491605000" lon="-2.576707000">
        <ele>421.10</ele>
        <time>2017-02-11T07:06:35Z</time>
      </trkpt>
      <trkpt lat="42.491572000" lon="-2.576748000">
        <ele>421.00</ele>
        <time>2017-02-11T07:06:36Z</time>
      </trkpt>
      <trkpt lat="42.491544000" lon="-2.576792000">
        <ele>420.90</ele>
        <time>2017-02-11T07:06:37Z</time>
      </trkpt>
      <trkpt lat="42.491516000" lon="-2.576830000">
        <ele>420.90</ele>
        <time>2017-02-11T07:06:38Z</time>
      </trkpt>
      <trkpt lat="42.491485000" lon="-2.576875000">
        <ele>420.70</ele>
        <time>2017-02-11T07:06:39Z</time>
      </trkpt>
      <trkpt lat="42.491455000" lon="-2.576919000">
        <ele>420.50</ele>
        <time>2017-02-11T07:06:40Z</time>
      </trkpt>
      <trkpt lat="42.491426000" lon="-2.576963000">
        <ele>420.40</ele>
        <time>2017-02-11T07:06:41Z</time>
      </trkpt>
      <trkpt lat="42.491397000" lon="-2.577004000">
        <ele>420.30</ele>
        <time>2017-02-11T07:06:42Z</time>
      </trkpt>
      <trkpt lat="42.491367000" lon="-2.577046000">
        <ele>420.20</ele>
        <time>2017-02-11T07:06:43Z</time>
      </trkpt>
      <trkpt lat="42.491338000" lon="-2.577088000">
        <ele>420.10</ele>
        <time>2017-02-11T07:06:44Z</time>
      </trkpt>
      <trkpt lat="42.491309000" lon="-2.577134000">
        <ele>420.10</ele>
        <time>2017-02-11T07:06:45Z</time>
      </trkpt>
      <trkpt lat="42.491282000" lon="-2.577176000">
        <ele>420.10</ele>
        <time>2017-02-11T07:06:46Z</time>
      </trkpt>
      <trkpt lat="42.491256000" lon="-2.577218000">
        <ele>420.00</ele>
        <time>2017-02-11T07:06:47Z</time>
      </trkpt>
      <trkpt lat="42.491228000" lon="-2.577261000">
        <ele>420.00</ele>
        <time>2017-02-11T07:06:48Z</time>
      </trkpt>
      <trkpt lat="42.491199000" lon="-2.577301000">
        <ele>420.00</ele>
        <time>2017-02-11T07:06:49Z</time>
      </trkpt>
      <trkpt lat="42.491173000" lon="-2.577340000">
        <ele>420.00</ele>
        <time>2017-02-11T07:06:50Z</time>
      </trkpt>
      <trkpt lat="42.491147000" lon="-2.577383000">
        <ele>420.00</ele>
        <time>2017-02-11T07:06:51Z</time>
      </trkpt>
      <trkpt lat="42.491120000" lon="-2.577424000">
        <ele>420.00</ele>
        <time>2017-02-11T07:06:52Z</time>
      </trkpt>
      <trkpt lat="42.491090000" lon="-2.577464000">
        <ele>419.90</ele>
        <time>2017-02-11T07:06:53Z</time>
      </trkpt>
      <trkpt lat="42.491060000" lon="-2.577504000">
        <ele>419.80</ele>
        <time>2017-02-11T07:06:54Z</time>
      </trkpt>
      <trkpt lat="42.491031000" lon="-2.577541000">
        <ele>419.70</ele>
        <time>2017-02-11T07:06:55Z</time>
      </trkpt>
      <trkpt lat="42.491000000" lon="-2.577575000">
        <ele>419.70</ele>
        <time>2017-02-11T07:06:56Z</time>
      </trkpt>
      <trkpt lat="42.490972000" lon="-2.577616000">
        <ele>419.90</ele>
        <time>2017-02-11T07:06:57Z</time>
      </trkpt>
      <trkpt lat="42.490948000" lon="-2.577651000">
        <ele>420.00</ele>
        <time>2017-02-11T07:06:58Z</time>
      </trkpt>
      <trkpt lat="42.490924000" lon="-2.577688000">
        <ele>420.10</ele>
        <time>2017-02-11T07:06:59Z</time>
      </trkpt>
      <trkpt lat="42.490899000" lon="-2.577721000">
        <ele>420.20</ele>
        <time>2017-02-11T07:07:00Z</time>
      </trkpt>
      <trkpt lat="42.490875000" lon="-2.577757000">
        <ele>420.30</ele>
        <time>2017-02-11T07:07:01Z</time>
      </trkpt>
      <trkpt lat="42.490852000" lon="-2.577795000">
        <ele>420.30</ele>
        <time>2017-02-11T07:07:02Z</time>
      </trkpt>
      <trkpt lat="42.490830000" lon="-2.577826000">
        <ele>420.30</ele>
        <time>2017-02-11T07:07:03Z</time>
      </trkpt>
      <trkpt lat="42.490808000" lon="-2.577857000">
        <ele>420.30</ele>
        <time>2017-02-11T07:07:04Z</time>
      </trkpt>
      <trkpt lat="42.490785000" lon="-2.577889000">
        <ele>420.20</ele>
        <time>2017-02-11T07:07:05Z</time>
      </trkpt>
      <trkpt lat="42.490764000" lon="-2.577920000">
        <ele>420.20</ele>
        <time>2017-02-11T07:07:06Z</time>
      </trkpt>
      <trkpt lat="42.490744000" lon="-2.577949000">
        <ele>420.10</ele>
        <time>2017-02-11T07:07:07Z</time>
      </trkpt>
      <trkpt lat="42.490721000" lon="-2.577981000">
        <ele>420.10</ele>
        <time>2017-02-11T07:07:08Z</time>
      </trkpt>
      <trkpt lat="42.490698000" lon="-2.578015000">
        <ele>420.20</ele>
        <time>2017-02-11T07:07:09Z</time>
      </trkpt>
      <trkpt lat="42.490680000" lon="-2.578053000">
        <ele>420.30</ele>
        <time>2017-02-11T07:07:10Z</time>
      </trkpt>
      <trkpt lat="42.490662000" lon="-2.578085000">
        <ele>420.30</ele>
        <time>2017-02-11T07:07:11Z</time>
      </trkpt>
      <trkpt lat="42.490643000" lon="-2.578119000">
        <ele>420.40</ele>
        <time>2017-02-11T07:07:12Z</time>
      </trkpt>
      <trkpt lat="42.490622000" lon="-2.578152000">
        <ele>420.40</ele>
        <time>2017-02-11T07:07:13Z</time>
      </trkpt>
      <trkpt lat="42.490602000" lon="-2.578187000">
        <ele>420.40</ele>
        <time>2017-02-11T07:07:14Z</time>
      </trkpt>
      <trkpt lat="42.490578000" lon="-2.578219000">
        <ele>420.40</ele>
        <time>2017-02-11T07:07:15Z</time>
      </trkpt>
      <trkpt lat="42.490553000" lon="-2.578258000">
        <ele>420.40</ele>
        <time>2017-02-11T07:07:16Z</time>
      </trkpt>
      <trkpt lat="42.490524000" lon="-2.578295000">
        <ele>420.50</ele>
        <time>2017-02-11T07:07:17Z</time>
      </trkpt>
      <trkpt lat="42.490495000" lon="-2.578332000">
        <ele>420.50</ele>
        <time>2017-02-11T07:07:18Z</time>
      </trkpt>
      <trkpt lat="42.490467000" lon="-2.578371000">
        <ele>420.40</ele>
        <time>2017-02-11T07:07:19Z</time>
      </trkpt>
      <trkpt lat="42.490440000" lon="-2.578410000">
        <ele>420.40</ele>
        <time>2017-02-11T07:07:20Z</time>
      </trkpt>
      <trkpt lat="42.490411000" lon="-2.578447000">
        <ele>420.30</ele>
        <time>2017-02-11T07:07:21Z</time>
      </trkpt>
      <trkpt lat="42.490383000" lon="-2.578482000">
        <ele>420.20</ele>
        <time>2017-02-11T07:07:22Z</time>
      </trkpt>
      <trkpt lat="42.490353000" lon="-2.578520000">
        <ele>420.00</ele>
        <time>2017-02-11T07:07:23Z</time>
      </trkpt>
      <trkpt lat="42.490327000" lon="-2.578561000">
        <ele>419.90</ele>
        <time>2017-02-11T07:07:24Z</time>
      </trkpt>
      <trkpt lat="42.490301000" lon="-2.578605000">
        <ele>419.80</ele>
        <time>2017-02-11T07:07:25Z</time>
      </trkpt>
      <trkpt lat="42.490277000" lon="-2.578650000">
        <ele>419.70</ele>
        <time>2017-02-11T07:07:26Z</time>
      </trkpt>
      <trkpt lat="42.490250000" lon="-2.578692000">
        <ele>419.60</ele>
        <time>2017-02-11T07:07:27Z</time>
      </trkpt>
      <trkpt lat="42.490223000" lon="-2.578734000">
        <ele>419.60</ele>
        <time>2017-02-11T07:07:28Z</time>
      </trkpt>
      <trkpt lat="42.490197000" lon="-2.578771000">
        <ele>419.50</ele>
        <time>2017-02-11T07:07:29Z</time>
      </trkpt>
      <trkpt lat="42.490168000" lon="-2.578811000">
        <ele>419.40</ele>
        <time>2017-02-11T07:07:30Z</time>
      </trkpt>
      <trkpt lat="42.490142000" lon="-2.578852000">
        <ele>419.40</ele>
        <time>2017-02-11T07:07:31Z</time>
      </trkpt>
      <trkpt lat="42.490092000" lon="-2.578926000">
        <ele>419.30</ele>
        <time>2017-02-11T07:07:33Z</time>
      </trkpt>
      <trkpt lat="42.490067000" lon="-2.578964000">
        <ele>419.30</ele>
        <time>2017-02-11T07:07:34Z</time>
      </trkpt>
      <trkpt lat="42.490040000" lon="-2.579003000">
        <ele>419.20</ele>
        <time>2017-02-11T07:07:35Z</time>
      </trkpt>
      <trkpt lat="42.490013000" lon="-2.579042000">
        <ele>419.20</ele>
        <time>2017-02-11T07:07:36Z</time>
      </trkpt>
      <trkpt lat="42.489985000" lon="-2.579080000">
        <ele>419.30</ele>
        <time>2017-02-11T07:07:37Z</time>
      </trkpt>
      <trkpt lat="42.489956000" lon="-2.579119000">
        <ele>419.30</ele>
        <time>2017-02-11T07:07:38Z</time>
      </trkpt>
      <trkpt lat="42.489928000" lon="-2.579159000">
        <ele>419.20</ele>
        <time>2017-02-11T07:07:39Z</time>
      </trkpt>
      <trkpt lat="42.489901000" lon="-2.579198000">
        <ele>419.10</ele>
        <time>2017-02-11T07:07:40Z</time>
      </trkpt>
      <trkpt lat="42.489873000" lon="-2.579237000">
        <ele>419.20</ele>
        <time>2017-02-11T07:07:41Z</time>
      </trkpt>
      <trkpt lat="42.489845000" lon="-2.579277000">
        <ele>419.20</ele>
        <time>2017-02-11T07:07:42Z</time>
      </trkpt>
      <trkpt lat="42.489819000" lon="-2.579315000">
        <ele>419.20</ele>
        <time>2017-02-11T07:07:43Z</time>
      </trkpt>
      <trkpt lat="42.489794000" lon="-2.579355000">
        <ele>419.20</ele>
        <time>2017-02-11T07:07:44Z</time>
      </trkpt>
      <trkpt lat="42.489766000" lon="-2.579393000">
        <ele>419.20</ele>
        <time>2017-02-11T07:07:45Z</time>
      </trkpt>
      <trkpt lat="42.489741000" lon="-2.579439000">
        <ele>419.20</ele>
        <time>2017-02-11T07:07:46Z</time>
      </trkpt>
      <trkpt lat="42.489715000" lon="-2.579483000">
        <ele>419.20</ele>
        <time>2017-02-11T07:07:47Z</time>
      </trkpt>
      <trkpt lat="42.489690000" lon="-2.579523000">
        <ele>419.20</ele>
        <time>2017-02-11T07:07:48Z</time>
      </trkpt>
      <trkpt lat="42.489663000" lon="-2.579558000">
        <ele>419.00</ele>
        <time>2017-02-11T07:07:49Z</time>
      </trkpt>
      <trkpt lat="42.489636000" lon="-2.579602000">
        <ele>418.90</ele>
        <time>2017-02-11T07:07:50Z</time>
      </trkpt>
      <trkpt lat="42.489608000" lon="-2.579642000">
        <ele>418.70</ele>
        <time>2017-02-11T07:07:51Z</time>
      </trkpt>
      <trkpt lat="42.489581000" lon="-2.579681000">
        <ele>418.60</ele>
        <time>2017-02-11T07:07:52Z</time>
      </trkpt>
      <trkpt lat="42.489550000" lon="-2.579722000">
        <ele>418.50</ele>
        <time>2017-02-11T07:07:53Z</time>
      </trkpt>
      <trkpt lat="42.489520000" lon="-2.579765000">
        <ele>418.40</ele>
        <time>2017-02-11T07:07:54Z</time>
      </trkpt>
      <trkpt lat="42.489493000" lon="-2.579811000">
        <ele>418.30</ele>
        <time>2017-02-11T07:07:55Z</time>
      </trkpt>
      <trkpt lat="42.489464000" lon="-2.579857000">
        <ele>418.20</ele>
        <time>2017-02-11T07:07:56Z</time>
      </trkpt>
      <trkpt lat="42.489436000" lon="-2.579900000">
        <ele>418.20</ele>
        <time>2017-02-11T07:07:57Z</time>
      </trkpt>
      <trkpt lat="42.489407000" lon="-2.579943000">
        <ele>418.10</ele>
        <time>2017-02-11T07:07:58Z</time>
      </trkpt>
      <trkpt lat="42.489378000" lon="-2.579983000">
        <ele>418.10</ele>
        <time>2017-02-11T07:07:59Z</time>
      </trkpt>
      <trkpt lat="42.489347000" lon="-2.580020000">
        <ele>418.10</ele>
        <time>2017-02-11T07:08:00Z</time>
      </trkpt>
      <trkpt lat="42.489318000" lon="-2.580062000">
        <ele>418.00</ele>
        <time>2017-02-11T07:08:01Z</time>
      </trkpt>
      <trkpt lat="42.489293000" lon="-2.580101000">
        <ele>418.00</ele>
        <time>2017-02-11T07:08:02Z</time>
      </trkpt>
      <trkpt lat="42.489270000" lon="-2.580143000">
        <ele>418.10</ele>
        <time>2017-02-11T07:08:03Z</time>
      </trkpt>
      <trkpt lat="42.489244000" lon="-2.580184000">
        <ele>418.10</ele>
        <time>2017-02-11T07:08:04Z</time>
      </trkpt>
      <trkpt lat="42.489220000" lon="-2.580221000">
        <ele>418.30</ele>
        <time>2017-02-11T07:08:05Z</time>
      </trkpt>
      <trkpt lat="42.489192000" lon="-2.580261000">
        <ele>418.40</ele>
        <time>2017-02-11T07:08:06Z</time>
      </trkpt>
      <trkpt lat="42.489165000" lon="-2.580301000">
        <ele>418.50</ele>
        <time>2017-02-11T07:08:07Z</time>
      </trkpt>
      <trkpt lat="42.489138000" lon="-2.580339000">
        <ele>418.60</ele>
        <time>2017-02-11T07:08:08Z</time>
      </trkpt>
      <trkpt lat="42.489111000" lon="-2.580375000">
        <ele>418.60</ele>
        <time>2017-02-11T07:08:09Z</time>
      </trkpt>
      <trkpt lat="42.489084000" lon="-2.580413000">
        <ele>418.60</ele>
        <time>2017-02-11T07:08:10Z</time>
      </trkpt>
      <trkpt lat="42.489057000" lon="-2.580451000">
        <ele>418.60</ele>
        <time>2017-02-11T07:08:11Z</time>
      </trkpt>
      <trkpt lat="42.489031000" lon="-2.580489000">
        <ele>418.60</ele>
        <time>2017-02-11T07:08:12Z</time>
      </trkpt>
      <trkpt lat="42.489005000" lon="-2.580524000">
        <ele>418.50</ele>
        <time>2017-02-11T07:08:13Z</time>
      </trkpt>
      <trkpt lat="42.488980000" lon="-2.580563000">
        <ele>418.40</ele>
        <time>2017-02-11T07:08:14Z</time>
      </trkpt>
      <trkpt lat="42.488953000" lon="-2.580596000">
        <ele>418.40</ele>
        <time>2017-02-11T07:08:15Z</time>
      </trkpt>
      <trkpt lat="42.488926000" lon="-2.580628000">
        <ele>418.30</ele>
        <time>2017-02-11T07:08:16Z</time>
      </trkpt>
      <trkpt lat="42.488897000" lon="-2.580663000">
        <ele>418.30</ele>
        <time>2017-02-11T07:08:17Z</time>
      </trkpt>
      <trkpt lat="42.488871000" lon="-2.580698000">
        <ele>418.30</ele>
        <time>2017-02-11T07:08:18Z</time>
      </trkpt>
      <trkpt lat="42.488844000" lon="-2.580734000">
        <ele>418.40</ele>
        <time>2017-02-11T07:08:19Z</time>
      </trkpt>
      <trkpt lat="42.488819000" lon="-2.580770000">
        <ele>418.50</ele>
        <time>2017-02-11T07:08:20Z</time>
      </trkpt>
      <trkpt lat="42.488793000" lon="-2.580804000">
        <ele>418.50</ele>
        <time>2017-02-11T07:08:21Z</time>
      </trkpt>
      <trkpt lat="42.488769000" lon="-2.580843000">
        <ele>418.50</ele>
        <time>2017-02-11T07:08:22Z</time>
      </trkpt>
      <trkpt lat="42.488748000" lon="-2.580882000">
        <ele>418.50</ele>
        <time>2017-02-11T07:08:23Z</time>
      </trkpt>
      <trkpt lat="42.488721000" lon="-2.580920000">
        <ele>418.50</ele>
        <time>2017-02-11T07:08:24Z</time>
      </trkpt>
      <trkpt lat="42.488701000" lon="-2.580961000">
        <ele>418.40</ele>
        <time>2017-02-11T07:08:25Z</time>
      </trkpt>
      <trkpt lat="42.488679000" lon="-2.581007000">
        <ele>418.30</ele>
        <time>2017-02-11T07:08:26Z</time>
      </trkpt>
      <trkpt lat="42.488653000" lon="-2.581057000">
        <ele>418.20</ele>
        <time>2017-02-11T07:08:27Z</time>
      </trkpt>
      <trkpt lat="42.488629000" lon="-2.581102000">
        <ele>418.10</ele>
        <time>2017-02-11T07:08:28Z</time>
      </trkpt>
      <trkpt lat="42.488607000" lon="-2.581148000">
        <ele>418.00</ele>
        <time>2017-02-11T07:08:29Z</time>
      </trkpt>
      <trkpt lat="42.488588000" lon="-2.581191000">
        <ele>417.90</ele>
        <time>2017-02-11T07:08:30Z</time>
      </trkpt>
      <trkpt lat="42.488569000" lon="-2.581241000">
        <ele>418.00</ele>
        <time>2017-02-11T07:08:31Z</time>
      </trkpt>
      <trkpt lat="42.488553000" lon="-2.581287000">
        <ele>418.00</ele>
        <time>2017-02-11T07:08:32Z</time>
      </trkpt>
      <trkpt lat="42.488515000" lon="-2.581384000">
        <ele>418.10</ele>
        <time>2017-02-11T07:08:34Z</time>
      </trkpt>
      <trkpt lat="42.488491000" lon="-2.581432000">
        <ele>418.30</ele>
        <time>2017-02-11T07:08:35Z</time>
      </trkpt>
      <trkpt lat="42.488467000" lon="-2.581479000">
        <ele>418.50</ele>
        <time>2017-02-11T07:08:36Z</time>
      </trkpt>
      <trkpt lat="42.488443000" lon="-2.581529000">
        <ele>418.60</ele>
        <time>2017-02-11T07:08:37Z</time>
      </trkpt>
      <trkpt lat="42.488421000" lon="-2.581571000">
        <ele>418.70</ele>
        <time>2017-02-11T07:08:38Z</time>
      </trkpt>
      <trkpt lat="42.488398000" lon="-2.581617000">
        <ele>418.70</ele>
        <time>2017-02-11T07:08:39Z</time>
      </trkpt>
      <trkpt lat="42.488374000" lon="-2.581662000">
        <ele>418.70</ele>
        <time>2017-02-11T07:08:40Z</time>
      </trkpt>
      <trkpt lat="42.488349000" lon="-2.581714000">
        <ele>418.70</ele>
        <time>2017-02-11T07:08:41Z</time>
      </trkpt>
      <trkpt lat="42.488325000" lon="-2.581760000">
        <ele>418.70</ele>
        <time>2017-02-11T07:08:42Z</time>
      </trkpt>
      <trkpt lat="42.488296000" lon="-2.581812000">
        <ele>418.70</ele>
        <time>2017-02-11T07:08:43Z</time>
      </trkpt>
      <trkpt lat="42.488266000" lon="-2.581860000">
        <ele>418.70</ele>
        <time>2017-02-11T07:08:44Z</time>
      </trkpt>
      <trkpt lat="42.488247000" lon="-2.581906000">
        <ele>418.80</ele>
        <time>2017-02-11T07:08:45Z</time>
      </trkpt>
      <trkpt lat="42.488227000" lon="-2.581958000">
        <ele>418.80</ele>
        <time>2017-02-11T07:08:46Z</time>
      </trkpt>
      <trkpt lat="42.488206000" lon="-2.582008000">
        <ele>418.80</ele>
        <time>2017-02-11T07:08:47Z</time>
      </trkpt>
      <trkpt lat="42.488181000" lon="-2.582055000">
        <ele>418.80</ele>
        <time>2017-02-11T07:08:48Z</time>
      </trkpt>
      <trkpt lat="42.488155000" lon="-2.582104000">
        <ele>418.80</ele>
        <time>2017-02-11T07:08:49Z</time>
      </trkpt>
      <trkpt lat="42.488131000" lon="-2.582152000">
        <ele>418.80</ele>
        <time>2017-02-11T07:08:50Z</time>
      </trkpt>
      <trkpt lat="42.488106000" lon="-2.582195000">
        <ele>418.80</ele>
        <time>2017-02-11T07:08:51Z</time>
      </trkpt>
      <trkpt lat="42.488084000" lon="-2.582239000">
        <ele>418.80</ele>
        <time>2017-02-11T07:08:52Z</time>
      </trkpt>
      <trkpt lat="42.488059000" lon="-2.582280000">
        <ele>418.80</ele>
        <time>2017-02-11T07:08:53Z</time>
      </trkpt>
      <trkpt lat="42.488031000" lon="-2.582319000">
        <ele>418.80</ele>
        <time>2017-02-11T07:08:54Z</time>
      </trkpt>
      <trkpt lat="42.487995000" lon="-2.582356000">
        <ele>418.80</ele>
        <time>2017-02-11T07:08:55Z</time>
      </trkpt>
      <trkpt lat="42.487955000" lon="-2.582390000">
        <ele>418.80</ele>
        <time>2017-02-11T07:08:56Z</time>
      </trkpt>
      <trkpt lat="42.487914000" lon="-2.582419000">
        <ele>418.80</ele>
        <time>2017-02-11T07:08:57Z</time>
      </trkpt>
      <trkpt lat="42.487873000" lon="-2.582432000">
        <ele>418.80</ele>
        <time>2017-02-11T07:08:58Z</time>
      </trkpt>
      <trkpt lat="42.487832000" lon="-2.582438000">
        <ele>418.90</ele>
        <time>2017-02-11T07:08:59Z</time>
      </trkpt>
      <trkpt lat="42.487788000" lon="-2.582437000">
        <ele>418.90</ele>
        <time>2017-02-11T07:09:00Z</time>
      </trkpt>
      <trkpt lat="42.487743000" lon="-2.582434000">
        <ele>419.00</ele>
        <time>2017-02-11T07:09:01Z</time>
      </trkpt>
      <trkpt lat="42.487698000" lon="-2.582427000">
        <ele>419.10</ele>
        <time>2017-02-11T07:09:02Z</time>
      </trkpt>
      <trkpt lat="42.487653000" lon="-2.582424000">
        <ele>419.10</ele>
        <time>2017-02-11T07:09:03Z</time>
      </trkpt>
      <trkpt lat="42.487606000" lon="-2.582419000">
        <ele>419.20</ele>
        <time>2017-02-11T07:09:04Z</time>
      </trkpt>
      <trkpt lat="42.487562000" lon="-2.582415000">
        <ele>419.30</ele>
        <time>2017-02-11T07:09:05Z</time>
      </trkpt>
      <trkpt lat="42.487515000" lon="-2.582410000">
        <ele>419.40</ele>
        <time>2017-02-11T07:09:06Z</time>
      </trkpt>
      <trkpt lat="42.487468000" lon="-2.582407000">
        <ele>419.50</ele>
        <time>2017-02-11T07:09:07Z</time>
      </trkpt>
      <trkpt lat="42.487424000" lon="-2.582404000">
        <ele>419.60</ele>
        <time>2017-02-11T07:09:08Z</time>
      </trkpt>
      <trkpt lat="42.487381000" lon="-2.582403000">
        <ele>419.40</ele>
        <time>2017-02-11T07:09:09Z</time>
      </trkpt>
      <trkpt lat="42.487337000" lon="-2.582406000">
        <ele>419.30</ele>
        <time>2017-02-11T07:09:10Z</time>
      </trkpt>
      <trkpt lat="42.487290000" lon="-2.582416000">
        <ele>419.20</ele>
        <time>2017-02-11T07:09:11Z</time>
      </trkpt>
      <trkpt lat="42.487246000" lon="-2.582423000">
        <ele>419.10</ele>
        <time>2017-02-11T07:09:12Z</time>
      </trkpt>
      <trkpt lat="42.487205000" lon="-2.582435000">
        <ele>419.00</ele>
        <time>2017-02-11T07:09:13Z</time>
      </trkpt>
      <trkpt lat="42.487163000" lon="-2.582447000">
        <ele>419.00</ele>
        <time>2017-02-11T07:09:14Z</time>
      </trkpt>
      <trkpt lat="42.487119000" lon="-2.582460000">
        <ele>419.00</ele>
        <time>2017-02-11T07:09:15Z</time>
      </trkpt>
      <trkpt lat="42.487077000" lon="-2.582474000">
        <ele>419.00</ele>
        <time>2017-02-11T07:09:16Z</time>
      </trkpt>
      <trkpt lat="42.487037000" lon="-2.582488000">
        <ele>419.00</ele>
        <time>2017-02-11T07:09:17Z</time>
      </trkpt>
      <trkpt lat="42.486994000" lon="-2.582505000">
        <ele>419.10</ele>
        <time>2017-02-11T07:09:18Z</time>
      </trkpt>
      <trkpt lat="42.486952000" lon="-2.582518000">
        <ele>418.90</ele>
        <time>2017-02-11T07:09:19Z</time>
      </trkpt>
      <trkpt lat="42.486910000" lon="-2.582531000">
        <ele>418.90</ele>
        <time>2017-02-11T07:09:20Z</time>
      </trkpt>
      <trkpt lat="42.486867000" lon="-2.582546000">
        <ele>418.80</ele>
        <time>2017-02-11T07:09:21Z</time>
      </trkpt>
      <trkpt lat="42.486825000" lon="-2.582566000">
        <ele>418.70</ele>
        <time>2017-02-11T07:09:22Z</time>
      </trkpt>
      <trkpt lat="42.486784000" lon="-2.582586000">
        <ele>418.70</ele>
        <time>2017-02-11T07:09:23Z</time>
      </trkpt>
      <trkpt lat="42.486743000" lon="-2.582609000">
        <ele>418.70</ele>
        <time>2017-02-11T07:09:24Z</time>
      </trkpt>
      <trkpt lat="42.486703000" lon="-2.582636000">
        <ele>418.80</ele>
        <time>2017-02-11T07:09:25Z</time>
      </trkpt>
      <trkpt lat="42.486665000" lon="-2.582668000">
        <ele>418.80</ele>
        <time>2017-02-11T07:09:26Z</time>
      </trkpt>
      <trkpt lat="42.486629000" lon="-2.582701000">
        <ele>419.00</ele>
        <time>2017-02-11T07:09:27Z</time>
      </trkpt>
      <trkpt lat="42.486592000" lon="-2.582735000">
        <ele>419.10</ele>
        <time>2017-02-11T07:09:28Z</time>
      </trkpt>
      <trkpt lat="42.486555000" lon="-2.582777000">
        <ele>419.20</ele>
        <time>2017-02-11T07:09:29Z</time>
      </trkpt>
      <trkpt lat="42.486523000" lon="-2.582815000">
        <ele>419.30</ele>
        <time>2017-02-11T07:09:30Z</time>
      </trkpt>
      <trkpt lat="42.486492000" lon="-2.582847000">
        <ele>419.40</ele>
        <time>2017-02-11T07:09:31Z</time>
      </trkpt>
      <trkpt lat="42.486462000" lon="-2.582888000">
        <ele>419.40</ele>
        <time>2017-02-11T07:09:32Z</time>
      </trkpt>
      <trkpt lat="42.486430000" lon="-2.582930000">
        <ele>419.60</ele>
        <time>2017-02-11T07:09:33Z</time>
      </trkpt>
      <trkpt lat="42.486366000" lon="-2.583017000">
        <ele>419.70</ele>
        <time>2017-02-11T07:09:35Z</time>
      </trkpt>
      <trkpt lat="42.486335000" lon="-2.583058000">
        <ele>419.70</ele>
        <time>2017-02-11T07:09:36Z</time>
      </trkpt>
      <trkpt lat="42.486302000" lon="-2.583095000">
        <ele>419.80</ele>
        <time>2017-02-11T07:09:37Z</time>
      </trkpt>
      <trkpt lat="42.486267000" lon="-2.583136000">
        <ele>419.80</ele>
        <time>2017-02-11T07:09:38Z</time>
      </trkpt>
      <trkpt lat="42.486232000" lon="-2.583170000">
        <ele>419.70</ele>
        <time>2017-02-11T07:09:39Z</time>
      </trkpt>
      <trkpt lat="42.486194000" lon="-2.583210000">
        <ele>419.70</ele>
        <time>2017-02-11T07:09:40Z</time>
      </trkpt>
      <trkpt lat="42.486154000" lon="-2.583250000">
        <ele>419.60</ele>
        <time>2017-02-11T07:09:41Z</time>
      </trkpt>
      <trkpt lat="42.486111000" lon="-2.583289000">
        <ele>419.60</ele>
        <time>2017-02-11T07:09:42Z</time>
      </trkpt>
      <trkpt lat="42.486069000" lon="-2.583329000">
        <ele>419.70</ele>
        <time>2017-02-11T07:09:43Z</time>
      </trkpt>
      <trkpt lat="42.486029000" lon="-2.583371000">
        <ele>419.70</ele>
        <time>2017-02-11T07:09:44Z</time>
      </trkpt>
      <trkpt lat="42.485992000" lon="-2.583411000">
        <ele>419.70</ele>
        <time>2017-02-11T07:09:45Z</time>
      </trkpt>
      <trkpt lat="42.485953000" lon="-2.583453000">
        <ele>419.70</ele>
        <time>2017-02-11T07:09:46Z</time>
      </trkpt>
      <trkpt lat="42.485915000" lon="-2.583497000">
        <ele>419.60</ele>
        <time>2017-02-11T07:09:47Z</time>
      </trkpt>
      <trkpt lat="42.485873000" lon="-2.583542000">
        <ele>419.50</ele>
        <time>2017-02-11T07:09:48Z</time>
      </trkpt>
      <trkpt lat="42.485834000" lon="-2.583587000">
        <ele>419.30</ele>
        <time>2017-02-11T07:09:49Z</time>
      </trkpt>
      <trkpt lat="42.485792000" lon="-2.583632000">
        <ele>419.10</ele>
        <time>2017-02-11T07:09:50Z</time>
      </trkpt>
      <trkpt lat="42.485743000" lon="-2.583680000">
        <ele>418.90</ele>
        <time>2017-02-11T07:09:51Z</time>
      </trkpt>
      <trkpt lat="42.485692000" lon="-2.583730000">
        <ele>418.80</ele>
        <time>2017-02-11T07:09:52Z</time>
      </trkpt>
      <trkpt lat="42.485641000" lon="-2.583785000">
        <ele>418.40</ele>
        <time>2017-02-11T07:09:53Z</time>
      </trkpt>
      <trkpt lat="42.485593000" lon="-2.583843000">
        <ele>418.10</ele>
        <time>2017-02-11T07:09:54Z</time>
      </trkpt>
      <trkpt lat="42.485545000" lon="-2.583905000">
        <ele>417.90</ele>
        <time>2017-02-11T07:09:55Z</time>
      </trkpt>
      <trkpt lat="42.485499000" lon="-2.583976000">
        <ele>417.80</ele>
        <time>2017-02-11T07:09:56Z</time>
      </trkpt>
      <trkpt lat="42.485453000" lon="-2.584051000">
        <ele>417.50</ele>
        <time>2017-02-11T07:09:57Z</time>
      </trkpt>
      <trkpt lat="42.485407000" lon="-2.584129000">
        <ele>417.20</ele>
        <time>2017-02-11T07:09:58Z</time>
      </trkpt>
      <trkpt lat="42.485356000" lon="-2.584208000">
        <ele>417.10</ele>
        <time>2017-02-11T07:09:59Z</time>
      </trkpt>
      <trkpt lat="42.485299000" lon="-2.584277000">
        <ele>417.00</ele>
        <time>2017-02-11T07:10:00Z</time>
      </trkpt>
      <trkpt lat="42.485234000" lon="-2.584336000">
        <ele>416.50</ele>
        <time>2017-02-11T07:10:01Z</time>
      </trkpt>
      <trkpt lat="42.485170000" lon="-2.584382000">
        <ele>416.10</ele>
        <time>2017-02-11T07:10:02Z</time>
      </trkpt>
      <trkpt lat="42.485105000" lon="-2.584420000">
        <ele>415.80</ele>
        <time>2017-02-11T07:10:03Z</time>
      </trkpt>
      <trkpt lat="42.485043000" lon="-2.584451000">
        <ele>415.60</ele>
        <time>2017-02-11T07:10:04Z</time>
      </trkpt>
      <trkpt lat="42.484985000" lon="-2.584484000">
        <ele>415.50</ele>
        <time>2017-02-11T07:10:05Z</time>
      </trkpt>
      <trkpt lat="42.484922000" lon="-2.584528000">
        <ele>415.40</ele>
        <time>2017-02-11T07:10:06Z</time>
      </trkpt>
      <trkpt lat="42.484868000" lon="-2.584570000">
        <ele>415.30</ele>
        <time>2017-02-11T07:10:07Z</time>
      </trkpt>
      <trkpt lat="42.484820000" lon="-2.584616000">
        <ele>415.20</ele>
        <time>2017-02-11T07:10:08Z</time>
      </trkpt>
      <trkpt lat="42.484773000" lon="-2.584670000">
        <ele>415.10</ele>
        <time>2017-02-11T07:10:09Z</time>
      </trkpt>
      <trkpt lat="42.484725000" lon="-2.584724000">
        <ele>415.00</ele>
        <time>2017-02-11T07:10:10Z</time>
      </trkpt>
      <trkpt lat="42.484678000" lon="-2.584774000">
        <ele>414.90</ele>
        <time>2017-02-11T07:10:11Z</time>
      </trkpt>
      <trkpt lat="42.484629000" lon="-2.584825000">
        <ele>414.70</ele>
        <time>2017-02-11T07:10:12Z</time>
      </trkpt>
      <trkpt lat="42.484578000" lon="-2.584869000">
        <ele>414.60</ele>
        <time>2017-02-11T07:10:13Z</time>
      </trkpt>
      <trkpt lat="42.484522000" lon="-2.584911000">
        <ele>414.40</ele>
        <time>2017-02-11T07:10:14Z</time>
      </trkpt>
      <trkpt lat="42.484462000" lon="-2.584951000">
        <ele>414.10</ele>
        <time>2017-02-11T07:10:15Z</time>
      </trkpt>
      <trkpt lat="42.484405000" lon="-2.584998000">
        <ele>413.80</ele>
        <time>2017-02-11T07:10:16Z</time>
      </trkpt>
      <trkpt lat="42.484351000" lon="-2.585055000">
        <ele>413.60</ele>
        <time>2017-02-11T07:10:17Z</time>
      </trkpt>
      <trkpt lat="42.484296000" lon="-2.585125000">
        <ele>413.50</ele>
        <time>2017-02-11T07:10:18Z</time>
      </trkpt>
      <trkpt lat="42.484249000" lon="-2.585211000">
        <ele>412.90</ele>
        <time>2017-02-11T07:10:19Z</time>
      </trkpt>
      <trkpt lat="42.484216000" lon="-2.585308000">
        <ele>412.50</ele>
        <time>2017-02-11T07:10:20Z</time>
      </trkpt>
      <trkpt lat="42.484191000" lon="-2.585411000">
        <ele>412.20</ele>
        <time>2017-02-11T07:10:21Z</time>
      </trkpt>
      <trkpt lat="42.484169000" lon="-2.585514000">
        <ele>411.90</ele>
        <time>2017-02-11T07:10:22Z</time>
      </trkpt>
      <trkpt lat="42.484143000" lon="-2.585621000">
        <ele>411.70</ele>
        <time>2017-02-11T07:10:23Z</time>
      </trkpt>
      <trkpt lat="42.484113000" lon="-2.585724000">
        <ele>411.50</ele>
        <time>2017-02-11T07:10:24Z</time>
      </trkpt>
      <trkpt lat="42.484084000" lon="-2.585826000">
        <ele>411.20</ele>
        <time>2017-02-11T07:10:25Z</time>
      </trkpt>
      <trkpt lat="42.484051000" lon="-2.585925000">
        <ele>410.90</ele>
        <time>2017-02-11T07:10:26Z</time>
      </trkpt>
      <trkpt lat="42.484023000" lon="-2.586027000">
        <ele>410.70</ele>
        <time>2017-02-11T07:10:27Z</time>
      </trkpt>
      <trkpt lat="42.483999000" lon="-2.586141000">
        <ele>410.60</ele>
        <time>2017-02-11T07:10:28Z</time>
      </trkpt>
      <trkpt lat="42.483986000" lon="-2.586254000">
        <ele>410.40</ele>
        <time>2017-02-11T07:10:29Z</time>
      </trkpt>
      <trkpt lat="42.483973000" lon="-2.586372000">
        <ele>410.20</ele>
        <time>2017-02-11T07:10:30Z</time>
      </trkpt>
      <trkpt lat="42.483965000" lon="-2.586493000">
        <ele>409.90</ele>
        <time>2017-02-11T07:10:31Z</time>
      </trkpt>
      <trkpt lat="42.483964000" lon="-2.586619000">
        <ele>409.70</ele>
        <time>2017-02-11T07:10:32Z</time>
      </trkpt>
      <trkpt lat="42.483968000" lon="-2.586748000">
        <ele>409.20</ele>
        <time>2017-02-11T07:10:33Z</time>
      </trkpt>
      <trkpt lat="42.483971000" lon="-2.586879000">
        <ele>408.80</ele>
        <time>2017-02-11T07:10:34Z</time>
      </trkpt>
      <trkpt lat="42.483967000" lon="-2.587148000">
        <ele>407.60</ele>
        <time>2017-02-11T07:10:36Z</time>
      </trkpt>
      <trkpt lat="42.483962000" lon="-2.587301000">
        <ele>407.20</ele>
        <time>2017-02-11T07:10:37Z</time>
      </trkpt>
      <trkpt lat="42.483960000" lon="-2.587462000">
        <ele>406.90</ele>
        <time>2017-02-11T07:10:38Z</time>
      </trkpt>
      <trkpt lat="42.483959000" lon="-2.587624000">
        <ele>405.90</ele>
        <time>2017-02-11T07:10:39Z</time>
      </trkpt>
      <trkpt lat="42.483956000" lon="-2.587787000">
        <ele>405.10</ele>
        <time>2017-02-11T07:10:40Z</time>
      </trkpt>
      <trkpt lat="42.483955000" lon="-2.587948000">
        <ele>403.60</ele>
        <time>2017-02-11T07:10:41Z</time>
      </trkpt>
      <trkpt lat="42.483952000" lon="-2.588106000">
        <ele>402.50</ele>
        <time>2017-02-11T07:10:42Z</time>
      </trkpt>
      <trkpt lat="42.483949000" lon="-2.588268000">
        <ele>401.70</ele>
        <time>2017-02-11T07:10:43Z</time>
      </trkpt>
      <trkpt lat="42.483946000" lon="-2.588433000">
        <ele>401.10</ele>
        <time>2017-02-11T07:10:44Z</time>
      </trkpt>
      <trkpt lat="42.483943000" lon="-2.588598000">
        <ele>400.60</ele>
        <time>2017-02-11T07:10:45Z</time>
      </trkpt>
      <trkpt lat="42.483937000" lon="-2.588761000">
        <ele>400.20</ele>
        <time>2017-02-11T07:10:46Z</time>
      </trkpt>
      <trkpt lat="42.483925000" lon="-2.588919000">
        <ele>399.20</ele>
        <time>2017-02-11T07:10:47Z</time>
      </trkpt>
      <trkpt lat="42.483908000" lon="-2.589073000">
        <ele>398.40</ele>
        <time>2017-02-11T07:10:48Z</time>
      </trkpt>
      <trkpt lat="42.483886000" lon="-2.589219000">
        <ele>397.70</ele>
        <time>2017-02-11T07:10:49Z</time>
      </trkpt>
      <trkpt lat="42.483861000" lon="-2.589358000">
        <ele>397.20</ele>
        <time>2017-02-11T07:10:50Z</time>
      </trkpt>
      <trkpt lat="42.483827000" lon="-2.589494000">
        <ele>396.70</ele>
        <time>2017-02-11T07:10:51Z</time>
      </trkpt>
      <trkpt lat="42.483789000" lon="-2.589625000">
        <ele>396.30</ele>
        <time>2017-02-11T07:10:52Z</time>
      </trkpt>
      <trkpt lat="42.483750000" lon="-2.589752000">
        <ele>395.60</ele>
        <time>2017-02-11T07:10:53Z</time>
      </trkpt>
      <trkpt lat="42.483710000" lon="-2.589873000">
        <ele>395.10</ele>
        <time>2017-02-11T07:10:54Z</time>
      </trkpt>
      <trkpt lat="42.483664000" lon="-2.589988000">
        <ele>394.70</ele>
        <time>2017-02-11T07:10:55Z</time>
      </trkpt>
      <trkpt lat="42.483616000" lon="-2.590097000">
        <ele>394.40</ele>
        <time>2017-02-11T07:10:56Z</time>
      </trkpt>
      <trkpt lat="42.483567000" lon="-2.590202000">
        <ele>394.10</ele>
        <time>2017-02-11T07:10:57Z</time>
      </trkpt>
      <trkpt lat="42.483521000" lon="-2.590304000">
        <ele>393.90</ele>
        <time>2017-02-11T07:10:58Z</time>
      </trkpt>
      <trkpt lat="42.483473000" lon="-2.590407000">
        <ele>393.70</ele>
        <time>2017-02-11T07:10:59Z</time>
      </trkpt>
      <trkpt lat="42.483428000" lon="-2.590507000">
        <ele>393.60</ele>
        <time>2017-02-11T07:11:00Z</time>
      </trkpt>
      <trkpt lat="42.483382000" lon="-2.590603000">
        <ele>393.40</ele>
        <time>2017-02-11T07:11:01Z</time>
      </trkpt>
      <trkpt lat="42.483338000" lon="-2.590699000">
        <ele>393.30</ele>
        <time>2017-02-11T07:11:02Z</time>
      </trkpt>
      <trkpt lat="42.483296000" lon="-2.590792000">
        <ele>393.20</ele>
        <time>2017-02-11T07:11:03Z</time>
      </trkpt>
      <trkpt lat="42.483256000" lon="-2.590881000">
        <ele>393.20</ele>
        <time>2017-02-11T07:11:04Z</time>
      </trkpt>
      <trkpt lat="42.483217000" lon="-2.590968000">
        <ele>393.10</ele>
        <time>2017-02-11T07:11:05Z</time>
      </trkpt>
      <trkpt lat="42.483175000" lon="-2.591052000">
        <ele>393.10</ele>
        <time>2017-02-11T07:11:06Z</time>
      </trkpt>
      <trkpt lat="42.483132000" lon="-2.591126000">
        <ele>393.00</ele>
        <time>2017-02-11T07:11:07Z</time>
      </trkpt>
      <trkpt lat="42.483089000" lon="-2.591201000">
        <ele>392.90</ele>
        <time>2017-02-11T07:11:08Z</time>
      </trkpt>
      <trkpt lat="42.483043000" lon="-2.591273000">
        <ele>392.80</ele>
        <time>2017-02-11T07:11:09Z</time>
      </trkpt>
      <trkpt lat="42.482999000" lon="-2.591346000">
        <ele>392.80</ele>
        <time>2017-02-11T07:11:10Z</time>
      </trkpt>
      <trkpt lat="42.482951000" lon="-2.591413000">
        <ele>392.60</ele>
        <time>2017-02-11T07:11:11Z</time>
      </trkpt>
      <trkpt lat="42.482905000" lon="-2.591479000">
        <ele>392.50</ele>
        <time>2017-02-11T07:11:12Z</time>
      </trkpt>
      <trkpt lat="42.482862000" lon="-2.591542000">
        <ele>392.30</ele>
        <time>2017-02-11T07:11:13Z</time>
      </trkpt>
      <trkpt lat="42.482817000" lon="-2.591607000">
        <ele>392.20</ele>
        <time>2017-02-11T07:11:14Z</time>
      </trkpt>
      <trkpt lat="42.482772000" lon="-2.591672000">
        <ele>392.10</ele>
        <time>2017-02-11T07:11:15Z</time>
      </trkpt>
      <trkpt lat="42.482731000" lon="-2.591737000">
        <ele>392.00</ele>
        <time>2017-02-11T07:11:16Z</time>
      </trkpt>
      <trkpt lat="42.482690000" lon="-2.591803000">
        <ele>392.00</ele>
        <time>2017-02-11T07:11:17Z</time>
      </trkpt>
      <trkpt lat="42.482649000" lon="-2.591868000">
        <ele>392.00</ele>
        <time>2017-02-11T07:11:18Z</time>
      </trkpt>
      <trkpt lat="42.482610000" lon="-2.591930000">
        <ele>392.00</ele>
        <time>2017-02-11T07:11:19Z</time>
      </trkpt>
      <trkpt lat="42.482572000" lon="-2.591994000">
        <ele>392.10</ele>
        <time>2017-02-11T07:11:20Z</time>
      </trkpt>
      <trkpt lat="42.482537000" lon="-2.592059000">
        <ele>391.90</ele>
        <time>2017-02-11T07:11:21Z</time>
      </trkpt>
      <trkpt lat="42.482500000" lon="-2.592119000">
        <ele>391.80</ele>
        <time>2017-02-11T07:11:22Z</time>
      </trkpt>
      <trkpt lat="42.482465000" lon="-2.592179000">
        <ele>391.90</ele>
        <time>2017-02-11T07:11:23Z</time>
      </trkpt>
      <trkpt lat="42.482433000" lon="-2.592233000">
        <ele>392.00</ele>
        <time>2017-02-11T07:11:24Z</time>
      </trkpt>
      <trkpt lat="42.482400000" lon="-2.592286000">
        <ele>392.00</ele>
        <time>2017-02-11T07:11:25Z</time>
      </trkpt>
      <trkpt lat="42.482369000" lon="-2.592335000">
        <ele>392.10</ele>
        <time>2017-02-11T07:11:26Z</time>
      </trkpt>
      <trkpt lat="42.482341000" lon="-2.592388000">
        <ele>392.20</ele>
        <time>2017-02-11T07:11:27Z</time>
      </trkpt>
      <trkpt lat="42.482314000" lon="-2.592440000">
        <ele>392.30</ele>
        <time>2017-02-11T07:11:28Z</time>
      </trkpt>
      <trkpt lat="42.482282000" lon="-2.592494000">
        <ele>392.40</ele>
        <time>2017-02-11T07:11:29Z</time>
      </trkpt>
      <trkpt lat="42.482250000" lon="-2.592543000">
        <ele>392.50</ele>
        <time>2017-02-11T07:11:30Z</time>
      </trkpt>
      <trkpt lat="42.482217000" lon="-2.592591000">
        <ele>392.60</ele>
        <time>2017-02-11T07:11:31Z</time>
      </trkpt>
      <trkpt lat="42.482186000" lon="-2.592639000">
        <ele>392.70</ele>
        <time>2017-02-11T07:11:32Z</time>
      </trkpt>
      <trkpt lat="42.482155000" lon="-2.592686000">
        <ele>392.80</ele>
        <time>2017-02-11T07:11:33Z</time>
      </trkpt>
      <trkpt lat="42.482123000" lon="-2.592726000">
        <ele>392.90</ele>
        <time>2017-02-11T07:11:34Z</time>
      </trkpt>
      <trkpt lat="42.482091000" lon="-2.592764000">
        <ele>393.00</ele>
        <time>2017-02-11T07:11:35Z</time>
      </trkpt>
      <trkpt lat="42.482037000" lon="-2.592844000">
        <ele>393.30</ele>
        <time>2017-02-11T07:11:37Z</time>
      </trkpt>
      <trkpt lat="42.482012000" lon="-2.592883000">
        <ele>393.50</ele>
        <time>2017-02-11T07:11:38Z</time>
      </trkpt>
      <trkpt lat="42.481987000" lon="-2.592925000">
        <ele>393.70</ele>
        <time>2017-02-11T07:11:39Z</time>
      </trkpt>
      <trkpt lat="42.481961000" lon="-2.592963000">
        <ele>393.90</ele>
        <time>2017-02-11T07:11:40Z</time>
      </trkpt>
      <trkpt lat="42.481933000" lon="-2.593000000">
        <ele>394.00</ele>
        <time>2017-02-11T07:11:41Z</time>
      </trkpt>
      <trkpt lat="42.481904000" lon="-2.593045000">
        <ele>394.10</ele>
        <time>2017-02-11T07:11:42Z</time>
      </trkpt>
      <trkpt lat="42.481878000" lon="-2.593089000">
        <ele>394.40</ele>
        <time>2017-02-11T07:11:43Z</time>
      </trkpt>
      <trkpt lat="42.481850000" lon="-2.593129000">
        <ele>394.70</ele>
        <time>2017-02-11T07:11:44Z</time>
      </trkpt>
      <trkpt lat="42.481826000" lon="-2.593169000">
        <ele>395.00</ele>
        <time>2017-02-11T07:11:45Z</time>
      </trkpt>
      <trkpt lat="42.481800000" lon="-2.593206000">
        <ele>395.20</ele>
        <time>2017-02-11T07:11:46Z</time>
      </trkpt>
      <trkpt lat="42.481775000" lon="-2.593243000">
        <ele>395.50</ele>
        <time>2017-02-11T07:11:47Z</time>
      </trkpt>
      <trkpt lat="42.481745000" lon="-2.593281000">
        <ele>395.70</ele>
        <time>2017-02-11T07:11:48Z</time>
      </trkpt>
      <trkpt lat="42.481715000" lon="-2.593312000">
        <ele>395.90</ele>
        <time>2017-02-11T07:11:49Z</time>
      </trkpt>
      <trkpt lat="42.481684000" lon="-2.593346000">
        <ele>396.10</ele>
        <time>2017-02-11T07:11:50Z</time>
      </trkpt>
      <trkpt lat="42.481654000" lon="-2.593381000">
        <ele>396.30</ele>
        <time>2017-02-11T07:11:51Z</time>
      </trkpt>
      <trkpt lat="42.481627000" lon="-2.593413000">
        <ele>396.40</ele>
        <time>2017-02-11T07:11:52Z</time>
      </trkpt>
      <trkpt lat="42.481600000" lon="-2.593447000">
        <ele>396.70</ele>
        <time>2017-02-11T07:11:53Z</time>
      </trkpt>
      <trkpt lat="42.481572000" lon="-2.593474000">
        <ele>397.00</ele>
        <time>2017-02-11T07:11:54Z</time>
      </trkpt>
      <trkpt lat="42.481543000" lon="-2.593501000">
        <ele>397.10</ele>
        <time>2017-02-11T07:11:55Z</time>
      </trkpt>
      <trkpt lat="42.481513000" lon="-2.593527000">
        <ele>397.30</ele>
        <time>2017-02-11T07:11:56Z</time>
      </trkpt>
      <trkpt lat="42.481486000" lon="-2.593555000">
        <ele>397.50</ele>
        <time>2017-02-11T07:11:57Z</time>
      </trkpt>
      <trkpt lat="42.481457000" lon="-2.593586000">
        <ele>397.70</ele>
        <time>2017-02-11T07:11:58Z</time>
      </trkpt>
      <trkpt lat="42.481430000" lon="-2.593613000">
        <ele>398.00</ele>
        <time>2017-02-11T07:11:59Z</time>
      </trkpt>
      <trkpt lat="42.481401000" lon="-2.593635000">
        <ele>398.30</ele>
        <time>2017-02-11T07:12:00Z</time>
      </trkpt>
      <trkpt lat="42.481373000" lon="-2.593656000">
        <ele>398.50</ele>
        <time>2017-02-11T07:12:01Z</time>
      </trkpt>
      <trkpt lat="42.481345000" lon="-2.593676000">
        <ele>398.70</ele>
        <time>2017-02-11T07:12:02Z</time>
      </trkpt>
      <trkpt lat="42.481317000" lon="-2.593698000">
        <ele>398.90</ele>
        <time>2017-02-11T07:12:03Z</time>
      </trkpt>
      <trkpt lat="42.481287000" lon="-2.593721000">
        <ele>399.00</ele>
        <time>2017-02-11T07:12:04Z</time>
      </trkpt>
      <trkpt lat="42.481258000" lon="-2.593744000">
        <ele>399.00</ele>
        <time>2017-02-11T07:12:05Z</time>
      </trkpt>
      <trkpt lat="42.481229000" lon="-2.593767000">
        <ele>399.10</ele>
        <time>2017-02-11T07:12:06Z</time>
      </trkpt>
      <trkpt lat="42.481201000" lon="-2.593791000">
        <ele>399.10</ele>
        <time>2017-02-11T07:12:07Z</time>
      </trkpt>
      <trkpt lat="42.481173000" lon="-2.593812000">
        <ele>399.20</ele>
        <time>2017-02-11T07:12:08Z</time>
      </trkpt>
      <trkpt lat="42.481145000" lon="-2.593834000">
        <ele>399.30</ele>
        <time>2017-02-11T07:12:09Z</time>
      </trkpt>
      <trkpt lat="42.481115000" lon="-2.593855000">
        <ele>399.50</ele>
        <time>2017-02-11T07:12:10Z</time>
      </trkpt>
      <trkpt lat="42.481085000" lon="-2.593876000">
        <ele>399.70</ele>
        <time>2017-02-11T07:12:11Z</time>
      </trkpt>
      <trkpt lat="42.481055000" lon="-2.593898000">
        <ele>399.80</ele>
        <time>2017-02-11T07:12:12Z</time>
      </trkpt>
      <trkpt lat="42.481025000" lon="-2.593917000">
        <ele>400.00</ele>
        <time>2017-02-11T07:12:13Z</time>
      </trkpt>
      <trkpt lat="42.480998000" lon="-2.593940000">
        <ele>400.20</ele>
        <time>2017-02-11T07:12:14Z</time>
      </trkpt>
      <trkpt lat="42.480972000" lon="-2.593964000">
        <ele>400.30</ele>
        <time>2017-02-11T07:12:15Z</time>
      </trkpt>
      <trkpt lat="42.480943000" lon="-2.593983000">
        <ele>400.30</ele>
        <time>2017-02-11T07:12:16Z</time>
      </trkpt>
      <trkpt lat="42.480916000" lon="-2.594002000">
        <ele>400.50</ele>
        <time>2017-02-11T07:12:17Z</time>
      </trkpt>
      <trkpt lat="42.480890000" lon="-2.594025000">
        <ele>400.60</ele>
        <time>2017-02-11T07:12:18Z</time>
      </trkpt>
      <trkpt lat="42.480861000" lon="-2.594047000">
        <ele>400.70</ele>
        <time>2017-02-11T07:12:19Z</time>
      </trkpt>
      <trkpt lat="42.480834000" lon="-2.594071000">
        <ele>400.80</ele>
        <time>2017-02-11T07:12:20Z</time>
      </trkpt>
      <trkpt lat="42.480803000" lon="-2.594095000">
        <ele>401.20</ele>
        <time>2017-02-11T07:12:21Z</time>
      </trkpt>
      <trkpt lat="42.480774000" lon="-2.594120000">
        <ele>401.50</ele>
        <time>2017-02-11T07:12:22Z</time>
      </trkpt>
      <trkpt lat="42.480746000" lon="-2.594146000">
        <ele>401.70</ele>
        <time>2017-02-11T07:12:23Z</time>
      </trkpt>
      <trkpt lat="42.480722000" lon="-2.594169000">
        <ele>401.90</ele>
        <time>2017-02-11T07:12:24Z</time>
      </trkpt>
      <trkpt lat="42.480696000" lon="-2.594187000">
        <ele>402.10</ele>
        <time>2017-02-11T07:12:25Z</time>
      </trkpt>
      <trkpt lat="42.480671000" lon="-2.594204000">
        <ele>402.20</ele>
        <time>2017-02-11T07:12:26Z</time>
      </trkpt>
      <trkpt lat="42.480641000" lon="-2.594222000">
        <ele>402.30</ele>
        <time>2017-02-11T07:12:27Z</time>
      </trkpt>
      <trkpt lat="42.480614000" lon="-2.594237000">
        <ele>402.40</ele>
        <time>2017-02-11T07:12:28Z</time>
      </trkpt>
      <trkpt lat="42.480589000" lon="-2.594247000">
        <ele>402.60</ele>
        <time>2017-02-11T07:12:29Z</time>
      </trkpt>
      <trkpt lat="42.480561000" lon="-2.594256000">
        <ele>402.70</ele>
        <time>2017-02-11T07:12:30Z</time>
      </trkpt>
      <trkpt lat="42.480528000" lon="-2.594264000">
        <ele>402.60</ele>
        <time>2017-02-11T07:12:31Z</time>
      </trkpt>
      <trkpt lat="42.480493000" lon="-2.594273000">
        <ele>402.50</ele>
        <time>2017-02-11T07:12:32Z</time>
      </trkpt>
      <trkpt lat="42.480451000" lon="-2.594284000">
        <ele>402.50</ele>
        <time>2017-02-11T07:12:33Z</time>
      </trkpt>
      <trkpt lat="42.480404000" lon="-2.594292000">
        <ele>402.40</ele>
        <time>2017-02-11T07:12:34Z</time>
      </trkpt>
      <trkpt lat="42.480349000" lon="-2.594289000">
        <ele>402.30</ele>
        <time>2017-02-11T07:12:35Z</time>
      </trkpt>
      <trkpt lat="42.480289000" lon="-2.594272000">
        <ele>402.30</ele>
        <time>2017-02-11T07:12:36Z</time>
      </trkpt>
      <trkpt lat="42.480163000" lon="-2.594191000">
        <ele>401.60</ele>
        <time>2017-02-11T07:12:38Z</time>
      </trkpt>
      <trkpt lat="42.480097000" lon="-2.594140000">
        <ele>400.90</ele>
        <time>2017-02-11T07:12:39Z</time>
      </trkpt>
      <trkpt lat="42.480027000" lon="-2.594088000">
        <ele>400.40</ele>
        <time>2017-02-11T07:12:40Z</time>
      </trkpt>
      <trkpt lat="42.479954000" lon="-2.594043000">
        <ele>399.90</ele>
        <time>2017-02-11T07:12:41Z</time>
      </trkpt>
      <trkpt lat="42.479881000" lon="-2.594009000">
        <ele>399.50</ele>
        <time>2017-02-11T07:12:42Z</time>
      </trkpt>
      <trkpt lat="42.479805000" lon="-2.593986000">
        <ele>399.00</ele>
        <time>2017-02-11T07:12:43Z</time>
      </trkpt>
      <trkpt lat="42.479731000" lon="-2.593975000">
        <ele>398.70</ele>
        <time>2017-02-11T07:12:44Z</time>
      </trkpt>
      <trkpt lat="42.479658000" lon="-2.593976000">
        <ele>398.30</ele>
        <time>2017-02-11T07:12:45Z</time>
      </trkpt>
      <trkpt lat="42.479584000" lon="-2.593979000">
        <ele>398.10</ele>
        <time>2017-02-11T07:12:46Z</time>
      </trkpt>
      <trkpt lat="42.479512000" lon="-2.593983000">
        <ele>397.90</ele>
        <time>2017-02-11T07:12:47Z</time>
      </trkpt>
      <trkpt lat="42.479441000" lon="-2.593991000">
        <ele>397.70</ele>
        <time>2017-02-11T07:12:48Z</time>
      </trkpt>
      <trkpt lat="42.479370000" lon="-2.593999000">
        <ele>397.60</ele>
        <time>2017-02-11T07:12:49Z</time>
      </trkpt>
      <trkpt lat="42.479301000" lon="-2.594009000">
        <ele>397.50</ele>
        <time>2017-02-11T07:12:50Z</time>
      </trkpt>
      <trkpt lat="42.479233000" lon="-2.594021000">
        <ele>397.50</ele>
        <time>2017-02-11T07:12:51Z</time>
      </trkpt>
      <trkpt lat="42.479169000" lon="-2.594029000">
        <ele>397.40</ele>
        <time>2017-02-11T07:12:52Z</time>
      </trkpt>
      <trkpt lat="42.479105000" lon="-2.594031000">
        <ele>397.30</ele>
        <time>2017-02-11T07:12:53Z</time>
      </trkpt>
      <trkpt lat="42.479042000" lon="-2.594032000">
        <ele>397.10</ele>
        <time>2017-02-11T07:12:54Z</time>
      </trkpt>
      <trkpt lat="42.478980000" lon="-2.594032000">
        <ele>397.10</ele>
        <time>2017-02-11T07:12:55Z</time>
      </trkpt>
      <trkpt lat="42.478924000" lon="-2.594023000">
        <ele>397.10</ele>
        <time>2017-02-11T07:12:56Z</time>
      </trkpt>
      <trkpt lat="42.478870000" lon="-2.594005000">
        <ele>397.10</ele>
        <time>2017-02-11T07:12:57Z</time>
      </trkpt>
      <trkpt lat="42.478821000" lon="-2.593978000">
        <ele>397.10</ele>
        <time>2017-02-11T07:12:58Z</time>
      </trkpt>
      <trkpt lat="42.478771000" lon="-2.593946000">
        <ele>397.10</ele>
        <time>2017-02-11T07:12:59Z</time>
      </trkpt>
      <trkpt lat="42.478722000" lon="-2.593915000">
        <ele>397.10</ele>
        <time>2017-02-11T07:13:00Z</time>
      </trkpt>
      <trkpt lat="42.478677000" lon="-2.593881000">
        <ele>397.00</ele>
        <time>2017-02-11T07:13:01Z</time>
      </trkpt>
      <trkpt lat="42.478631000" lon="-2.593848000">
        <ele>396.90</ele>
        <time>2017-02-11T07:13:02Z</time>
      </trkpt>
      <trkpt lat="42.478589000" lon="-2.593813000">
        <ele>396.90</ele>
        <time>2017-02-11T07:13:03Z</time>
      </trkpt>
      <trkpt lat="42.478544000" lon="-2.593783000">
        <ele>396.90</ele>
        <time>2017-02-11T07:13:04Z</time>
      </trkpt>
      <trkpt lat="42.478501000" lon="-2.593754000">
        <ele>396.80</ele>
        <time>2017-02-11T07:13:05Z</time>
      </trkpt>
      <trkpt lat="42.478457000" lon="-2.593725000">
        <ele>396.70</ele>
        <time>2017-02-11T07:13:06Z</time>
      </trkpt>
      <trkpt lat="42.478415000" lon="-2.593696000">
        <ele>396.70</ele>
        <time>2017-02-11T07:13:07Z</time>
      </trkpt>
      <trkpt lat="42.478369000" lon="-2.593671000">
        <ele>396.60</ele>
        <time>2017-02-11T07:13:08Z</time>
      </trkpt>
      <trkpt lat="42.478322000" lon="-2.593646000">
        <ele>396.60</ele>
        <time>2017-02-11T07:13:09Z</time>
      </trkpt>
      <trkpt lat="42.478277000" lon="-2.593623000">
        <ele>396.60</ele>
        <time>2017-02-11T07:13:10Z</time>
      </trkpt>
      <trkpt lat="42.478232000" lon="-2.593603000">
        <ele>396.60</ele>
        <time>2017-02-11T07:13:11Z</time>
      </trkpt>
      <trkpt lat="42.478189000" lon="-2.593581000">
        <ele>396.70</ele>
        <time>2017-02-11T07:13:12Z</time>
      </trkpt>
      <trkpt lat="42.478146000" lon="-2.593556000">
        <ele>396.70</ele>
        <time>2017-02-11T07:13:13Z</time>
      </trkpt>
      <trkpt lat="42.478103000" lon="-2.593525000">
        <ele>396.70</ele>
        <time>2017-02-11T07:13:14Z</time>
      </trkpt>
      <trkpt lat="42.478062000" lon="-2.593494000">
        <ele>396.70</ele>
        <time>2017-02-11T07:13:15Z</time>
      </trkpt>
      <trkpt lat="42.478022000" lon="-2.593459000">
        <ele>396.70</ele>
        <time>2017-02-11T07:13:16Z</time>
      </trkpt>
      <trkpt lat="42.477981000" lon="-2.593427000">
        <ele>396.70</ele>
        <time>2017-02-11T07:13:17Z</time>
      </trkpt>
      <trkpt lat="42.477943000" lon="-2.593388000">
        <ele>396.80</ele>
        <time>2017-02-11T07:13:18Z</time>
      </trkpt>
      <trkpt lat="42.477898000" lon="-2.593355000">
        <ele>396.80</ele>
        <time>2017-02-11T07:13:19Z</time>
      </trkpt>
      <trkpt lat="42.477856000" lon="-2.593320000">
        <ele>396.90</ele>
        <time>2017-02-11T07:13:20Z</time>
      </trkpt>
      <trkpt lat="42.477813000" lon="-2.593288000">
        <ele>397.10</ele>
        <time>2017-02-11T07:13:21Z</time>
      </trkpt>
      <trkpt lat="42.477771000" lon="-2.593259000">
        <ele>397.20</ele>
        <time>2017-02-11T07:13:22Z</time>
      </trkpt>
      <trkpt lat="42.477729000" lon="-2.593236000">
        <ele>397.30</ele>
        <time>2017-02-11T07:13:23Z</time>
      </trkpt>
      <trkpt lat="42.477684000" lon="-2.593218000">
        <ele>397.40</ele>
        <time>2017-02-11T07:13:24Z</time>
      </trkpt>
      <trkpt lat="42.477636000" lon="-2.593206000">
        <ele>397.30</ele>
        <time>2017-02-11T07:13:25Z</time>
      </trkpt>
      <trkpt lat="42.477589000" lon="-2.593197000">
        <ele>397.20</ele>
        <time>2017-02-11T07:13:26Z</time>
      </trkpt>
      <trkpt lat="42.477542000" lon="-2.593193000">
        <ele>397.10</ele>
        <time>2017-02-11T07:13:27Z</time>
      </trkpt>
      <trkpt lat="42.477492000" lon="-2.593192000">
        <ele>397.00</ele>
        <time>2017-02-11T07:13:28Z</time>
      </trkpt>
      <trkpt lat="42.477443000" lon="-2.593195000">
        <ele>397.10</ele>
        <time>2017-02-11T07:13:29Z</time>
      </trkpt>
      <trkpt lat="42.477396000" lon="-2.593199000">
        <ele>397.20</ele>
        <time>2017-02-11T07:13:30Z</time>
      </trkpt>
      <trkpt lat="42.477347000" lon="-2.593206000">
        <ele>397.30</ele>
        <time>2017-02-11T07:13:31Z</time>
      </trkpt>
      <trkpt lat="42.477301000" lon="-2.593208000">
        <ele>397.40</ele>
        <time>2017-02-11T07:13:32Z</time>
      </trkpt>
      <trkpt lat="42.477255000" lon="-2.593212000">
        <ele>397.60</ele>
        <time>2017-02-11T07:13:33Z</time>
      </trkpt>
      <trkpt lat="42.477206000" lon="-2.593222000">
        <ele>397.70</ele>
        <time>2017-02-11T07:13:34Z</time>
      </trkpt>
      <trkpt lat="42.477155000" lon="-2.593231000">
        <ele>397.80</ele>
        <time>2017-02-11T07:13:35Z</time>
      </trkpt>
      <trkpt lat="42.477107000" lon="-2.593240000">
        <ele>397.90</ele>
        <time>2017-02-11T07:13:36Z</time>
      </trkpt>
      <trkpt lat="42.477058000" lon="-2.593248000">
        <ele>397.60</ele>
        <time>2017-02-11T07:13:37Z</time>
      </trkpt>
      <trkpt lat="42.476959000" lon="-2.593262000">
        <ele>397.20</ele>
        <time>2017-02-11T07:13:39Z</time>
      </trkpt>
      <trkpt lat="42.476908000" lon="-2.593268000">
        <ele>397.10</ele>
        <time>2017-02-11T07:13:40Z</time>
      </trkpt>
      <trkpt lat="42.476858000" lon="-2.593272000">
        <ele>396.90</ele>
        <time>2017-02-11T07:13:41Z</time>
      </trkpt>
      <trkpt lat="42.476809000" lon="-2.593273000">
        <ele>396.90</ele>
        <time>2017-02-11T07:13:42Z</time>
      </trkpt>
      <trkpt lat="42.476757000" lon="-2.593275000">
        <ele>396.80</ele>
        <time>2017-02-11T07:13:43Z</time>
      </trkpt>
      <trkpt lat="42.476705000" lon="-2.593276000">
        <ele>396.70</ele>
        <time>2017-02-11T07:13:44Z</time>
      </trkpt>
      <trkpt lat="42.476654000" lon="-2.593271000">
        <ele>396.70</ele>
        <time>2017-02-11T07:13:45Z</time>
      </trkpt>
      <trkpt lat="42.476605000" lon="-2.593266000">
        <ele>396.90</ele>
        <time>2017-02-11T07:13:46Z</time>
      </trkpt>
      <trkpt lat="42.476557000" lon="-2.593256000">
        <ele>397.10</ele>
        <time>2017-02-11T07:13:47Z</time>
      </trkpt>
      <trkpt lat="42.476510000" lon="-2.593246000">
        <ele>397.60</ele>
        <time>2017-02-11T07:13:48Z</time>
      </trkpt>
      <trkpt lat="42.476464000" lon="-2.593240000">
        <ele>397.90</ele>
        <time>2017-02-11T07:13:49Z</time>
      </trkpt>
      <trkpt lat="42.476417000" lon="-2.593236000">
        <ele>398.20</ele>
        <time>2017-02-11T07:13:50Z</time>
      </trkpt>
      <trkpt lat="42.476368000" lon="-2.593237000">
        <ele>398.40</ele>
        <time>2017-02-11T07:13:51Z</time>
      </trkpt>
      <trkpt lat="42.476319000" lon="-2.593242000">
        <ele>398.60</ele>
        <time>2017-02-11T07:13:52Z</time>
      </trkpt>
      <trkpt lat="42.476265000" lon="-2.593240000">
        <ele>398.70</ele>
        <time>2017-02-11T07:13:53Z</time>
      </trkpt>
      <trkpt lat="42.476215000" lon="-2.593244000">
        <ele>398.60</ele>
        <time>2017-02-11T07:13:54Z</time>
      </trkpt>
      <trkpt lat="42.476163000" lon="-2.593246000">
        <ele>398.50</ele>
        <time>2017-02-11T07:13:55Z</time>
      </trkpt>
      <trkpt lat="42.476114000" lon="-2.593255000">
        <ele>398.40</ele>
        <time>2017-02-11T07:13:56Z</time>
      </trkpt>
      <trkpt lat="42.476063000" lon="-2.593259000">
        <ele>398.40</ele>
        <time>2017-02-11T07:13:57Z</time>
      </trkpt>
      <trkpt lat="42.476013000" lon="-2.593263000">
        <ele>398.50</ele>
        <time>2017-02-11T07:13:58Z</time>
      </trkpt>
      <trkpt lat="42.475961000" lon="-2.593269000">
        <ele>398.50</ele>
        <time>2017-02-11T07:13:59Z</time>
      </trkpt>
      <trkpt lat="42.475912000" lon="-2.593273000">
        <ele>398.70</ele>
        <time>2017-02-11T07:14:00Z</time>
      </trkpt>
      <trkpt lat="42.475861000" lon="-2.593283000">
        <ele>398.80</ele>
        <time>2017-02-11T07:14:01Z</time>
      </trkpt>
      <trkpt lat="42.475811000" lon="-2.593289000">
        <ele>398.80</ele>
        <time>2017-02-11T07:14:02Z</time>
      </trkpt>
      <trkpt lat="42.475761000" lon="-2.593297000">
        <ele>398.90</ele>
        <time>2017-02-11T07:14:03Z</time>
      </trkpt>
      <trkpt lat="42.475712000" lon="-2.593304000">
        <ele>398.90</ele>
        <time>2017-02-11T07:14:04Z</time>
      </trkpt>
      <trkpt lat="42.475660000" lon="-2.593306000">
        <ele>398.90</ele>
        <time>2017-02-11T07:14:05Z</time>
      </trkpt>
      <trkpt lat="42.475611000" lon="-2.593314000">
        <ele>398.90</ele>
        <time>2017-02-11T07:14:06Z</time>
      </trkpt>
      <trkpt lat="42.475562000" lon="-2.593320000">
        <ele>398.90</ele>
        <time>2017-02-11T07:14:07Z</time>
      </trkpt>
      <trkpt lat="42.475515000" lon="-2.593322000">
        <ele>398.70</ele>
        <time>2017-02-11T07:14:08Z</time>
      </trkpt>
      <trkpt lat="42.475467000" lon="-2.593328000">
        <ele>398.50</ele>
        <time>2017-02-11T07:14:09Z</time>
      </trkpt>
      <trkpt lat="42.475418000" lon="-2.593334000">
        <ele>398.40</ele>
        <time>2017-02-11T07:14:10Z</time>
      </trkpt>
      <trkpt lat="42.475374000" lon="-2.593339000">
        <ele>398.30</ele>
        <time>2017-02-11T07:14:11Z</time>
      </trkpt>
      <trkpt lat="42.475327000" lon="-2.593345000">
        <ele>398.10</ele>
        <time>2017-02-11T07:14:12Z</time>
      </trkpt>
      <trkpt lat="42.475281000" lon="-2.593348000">
        <ele>398.00</ele>
        <time>2017-02-11T07:14:13Z</time>
      </trkpt>
      <trkpt lat="42.475234000" lon="-2.593350000">
        <ele>398.00</ele>
        <time>2017-02-11T07:14:14Z</time>
      </trkpt>
      <trkpt lat="42.475188000" lon="-2.593357000">
        <ele>398.00</ele>
        <time>2017-02-11T07:14:15Z</time>
      </trkpt>
      <trkpt lat="42.475144000" lon="-2.593364000">
        <ele>398.00</ele>
        <time>2017-02-11T07:14:16Z</time>
      </trkpt>
      <trkpt lat="42.475099000" lon="-2.593368000">
        <ele>398.00</ele>
        <time>2017-02-11T07:14:17Z</time>
      </trkpt>
      <trkpt lat="42.475050000" lon="-2.593370000">
        <ele>398.10</ele>
        <time>2017-02-11T07:14:18Z</time>
      </trkpt>
      <trkpt lat="42.475003000" lon="-2.593372000">
        <ele>398.10</ele>
        <time>2017-02-11T07:14:19Z</time>
      </trkpt>
      <trkpt lat="42.474958000" lon="-2.593372000">
        <ele>398.10</ele>
        <time>2017-02-11T07:14:20Z</time>
      </trkpt>
      <trkpt lat="42.474912000" lon="-2.593369000">
        <ele>398.20</ele>
        <time>2017-02-11T07:14:21Z</time>
      </trkpt>
      <trkpt lat="42.474865000" lon="-2.593367000">
        <ele>398.00</ele>
        <time>2017-02-11T07:14:22Z</time>
      </trkpt>
      <trkpt lat="42.474819000" lon="-2.593367000">
        <ele>397.90</ele>
        <time>2017-02-11T07:14:23Z</time>
      </trkpt>
      <trkpt lat="42.474771000" lon="-2.593366000">
        <ele>397.80</ele>
        <time>2017-02-11T07:14:24Z</time>
      </trkpt>
      <trkpt lat="42.474725000" lon="-2.593363000">
        <ele>397.80</ele>
        <time>2017-02-11T07:14:25Z</time>
      </trkpt>
      <trkpt lat="42.474678000" lon="-2.593360000">
        <ele>397.70</ele>
        <time>2017-02-11T07:14:26Z</time>
      </trkpt>
      <trkpt lat="42.474632000" lon="-2.593358000">
        <ele>397.70</ele>
        <time>2017-02-11T07:14:27Z</time>
      </trkpt>
      <trkpt lat="42.474594000" lon="-2.593360000">
        <ele>397.60</ele>
        <time>2017-02-11T07:14:28Z</time>
      </trkpt>
      <trkpt lat="42.474550000" lon="-2.593360000">
        <ele>397.60</ele>
        <time>2017-02-11T07:14:29Z</time>
      </trkpt>
      <trkpt lat="42.474510000" lon="-2.593361000">
        <ele>397.70</ele>
        <time>2017-02-11T07:14:30Z</time>
      </trkpt>
      <trkpt lat="42.474468000" lon="-2.593360000">
        <ele>397.70</ele>
        <time>2017-02-11T07:14:31Z</time>
      </trkpt>
      <trkpt lat="42.474428000" lon="-2.593358000">
        <ele>397.80</ele>
        <time>2017-02-11T07:14:32Z</time>
      </trkpt>
      <trkpt lat="42.474385000" lon="-2.593356000">
        <ele>397.80</ele>
        <time>2017-02-11T07:14:33Z</time>
      </trkpt>
      <trkpt lat="42.474340000" lon="-2.593351000">
        <ele>397.90</ele>
        <time>2017-02-11T07:14:34Z</time>
      </trkpt>
      <trkpt lat="42.474295000" lon="-2.593345000">
        <ele>397.90</ele>
        <time>2017-02-11T07:14:35Z</time>
      </trkpt>
      <trkpt lat="42.474247000" lon="-2.593345000">
        <ele>397.90</ele>
        <time>2017-02-11T07:14:36Z</time>
      </trkpt>
      <trkpt lat="42.474198000" lon="-2.593345000">
        <ele>397.90</ele>
        <time>2017-02-11T07:14:37Z</time>
      </trkpt>
      <trkpt lat="42.474150000" lon="-2.593345000">
        <ele>397.80</ele>
        <time>2017-02-11T07:14:38Z</time>
      </trkpt>
      <trkpt lat="42.474052000" lon="-2.593348000">
        <ele>397.70</ele>
        <time>2017-02-11T07:14:40Z</time>
      </trkpt>
      <trkpt lat="42.474004000" lon="-2.593350000">
        <ele>397.60</ele>
        <time>2017-02-11T07:14:41Z</time>
      </trkpt>
      <trkpt lat="42.473958000" lon="-2.593355000">
        <ele>397.60</ele>
        <time>2017-02-11T07:14:42Z</time>
      </trkpt>
      <trkpt lat="42.473910000" lon="-2.593355000">
        <ele>397.60</ele>
        <time>2017-02-11T07:14:43Z</time>
      </trkpt>
      <trkpt lat="42.473858000" lon="-2.593355000">
        <ele>397.30</ele>
        <time>2017-02-11T07:14:44Z</time>
      </trkpt>
      <trkpt lat="42.473805000" lon="-2.593356000">
        <ele>397.10</ele>
        <time>2017-02-11T07:14:45Z</time>
      </trkpt>
      <trkpt lat="42.473751000" lon="-2.593360000">
        <ele>396.90</ele>
        <time>2017-02-11T07:14:46Z</time>
      </trkpt>
      <trkpt lat="42.473695000" lon="-2.593362000">
        <ele>396.80</ele>
        <time>2017-02-11T07:14:47Z</time>
      </trkpt>
      <trkpt lat="42.473638000" lon="-2.593362000">
        <ele>396.50</ele>
        <time>2017-02-11T07:14:48Z</time>
      </trkpt>
      <trkpt lat="42.473581000" lon="-2.593363000">
        <ele>396.30</ele>
        <time>2017-02-11T07:14:49Z</time>
      </trkpt>
      <trkpt lat="42.473526000" lon="-2.593366000">
        <ele>396.20</ele>
        <time>2017-02-11T07:14:50Z</time>
      </trkpt>
      <trkpt lat="42.473473000" lon="-2.593370000">
        <ele>396.10</ele>
        <time>2017-02-11T07:14:51Z</time>
      </trkpt>
      <trkpt lat="42.473430000" lon="-2.593375000">
        <ele>395.90</ele>
        <time>2017-02-11T07:14:52Z</time>
      </trkpt>
      <trkpt lat="42.473398000" lon="-2.593380000">
        <ele>395.80</ele>
        <time>2017-02-11T07:14:53Z</time>
      </trkpt>
      <trkpt lat="42.473369000" lon="-2.593387000">
        <ele>395.70</ele>
        <time>2017-02-11T07:14:54Z</time>
      </trkpt>
      <trkpt lat="42.473347000" lon="-2.593392000">
        <ele>395.70</ele>
        <time>2017-02-11T07:14:55Z</time>
      </trkpt>
      <trkpt lat="42.473328000" lon="-2.593392000">
        <ele>395.40</ele>
        <time>2017-02-11T07:14:56Z</time>
      </trkpt>
      <trkpt lat="42.473308000" lon="-2.593387000">
        <ele>395.20</ele>
        <time>2017-02-11T07:14:57Z</time>
      </trkpt>
      <trkpt lat="42.473288000" lon="-2.593385000">
        <ele>395.20</ele>
        <time>2017-02-11T07:14:58Z</time>
      </trkpt>
      <trkpt lat="42.473271000" lon="-2.593386000">
        <ele>395.30</ele>
        <time>2017-02-11T07:14:59Z</time>
      </trkpt>
      <trkpt lat="42.473255000" lon="-2.593385000">
        <ele>395.30</ele>
        <time>2017-02-11T07:15:00Z</time>
      </trkpt>
      <trkpt lat="42.473242000" lon="-2.593376000">
        <ele>395.40</ele>
        <time>2017-02-11T07:15:01Z</time>
      </trkpt>
      <trkpt lat="42.473233000" lon="-2.593372000">
        <ele>395.50</ele>
        <time>2017-02-11T07:15:02Z</time>
      </trkpt>
      <trkpt lat="42.473224000" lon="-2.593369000">
        <ele>395.50</ele>
        <time>2017-02-11T07:15:03Z</time>
      </trkpt>
      <trkpt lat="42.473213000" lon="-2.593373000">
        <ele>395.50</ele>
        <time>2017-02-11T07:15:04Z</time>
      </trkpt>
      <trkpt lat="42.473206000" lon="-2.593378000">
        <ele>395.50</ele>
        <time>2017-02-11T07:15:05Z</time>
      </trkpt>
      <trkpt lat="42.473198000" lon="-2.593381000">
        <ele>395.50</ele>
        <time>2017-02-11T07:15:06Z</time>
      </trkpt>
      <trkpt lat="42.473194000" lon="-2.593384000">
        <ele>395.50</ele>
        <time>2017-02-11T07:15:07Z</time>
      </trkpt>
      <trkpt lat="42.473196000" lon="-2.593387000">
        <ele>395.30</ele>
        <time>2017-02-11T07:15:08Z</time>
      </trkpt>
      <trkpt lat="42.473194000" lon="-2.593390000">
        <ele>395.20</ele>
        <time>2017-02-11T07:15:09Z</time>
      </trkpt>
      <trkpt lat="42.473196000" lon="-2.593394000">
        <ele>395.00</ele>
        <time>2017-02-11T07:15:10Z</time>
      </trkpt>
      <trkpt lat="42.473201000" lon="-2.593394000">
        <ele>394.90</ele>
        <time>2017-02-11T07:15:11Z</time>
      </trkpt>
      <trkpt lat="42.473202000" lon="-2.593396000">
        <ele>394.80</ele>
        <time>2017-02-11T07:15:12Z</time>
      </trkpt>
      <trkpt lat="42.473201000" lon="-2.593398000">
        <ele>394.70</ele>
        <time>2017-02-11T07:15:13Z</time>
      </trkpt>
      <trkpt lat="42.473199000" lon="-2.593404000">
        <ele>395.10</ele>
        <time>2017-02-11T07:15:14Z</time>
      </trkpt>
      <trkpt lat="42.473194000" lon="-2.593412000">
        <ele>395.40</ele>
        <time>2017-02-11T07:15:15Z</time>
      </trkpt>
      <trkpt lat="42.473192000" lon="-2.593421000">
        <ele>395.60</ele>
        <time>2017-02-11T07:15:16Z</time>
      </trkpt>
      <trkpt lat="42.473192000" lon="-2.593424000">
        <ele>395.80</ele>
        <time>2017-02-11T07:15:17Z</time>
      </trkpt>
      <trkpt lat="42.473193000" lon="-2.593426000">
        <ele>395.70</ele>
        <time>2017-02-11T07:15:18Z</time>
      </trkpt>
      <trkpt lat="42.473193000" lon="-2.593426000">
        <ele>395.60</ele>
        <time>2017-02-11T07:15:19Z</time>
      </trkpt>
      <trkpt lat="42.473192000" lon="-2.593427000">
        <ele>395.60</ele>
        <time>2017-02-11T07:15:20Z</time>
      </trkpt>
      <trkpt lat="42.473192000" lon="-2.593426000">
        <ele>395.60</ele>
        <time>2017-02-11T07:15:21Z</time>
      </trkpt>
      <trkpt lat="42.473190000" lon="-2.593425000">
        <ele>395.40</ele>
        <time>2017-02-11T07:15:22Z</time>
      </trkpt>
      <trkpt lat="42.473189000" lon="-2.593424000">
        <ele>395.20</ele>
        <time>2017-02-11T07:15:23Z</time>
      </trkpt>
      <trkpt lat="42.473190000" lon="-2.593424000">
        <ele>395.10</ele>
        <time>2017-02-11T07:15:24Z</time>
      </trkpt>
      <trkpt lat="42.473190000" lon="-2.593423000">
        <ele>395.00</ele>
        <time>2017-02-11T07:15:25Z</time>
      </trkpt>
      <trkpt lat="42.473191000" lon="-2.593422000">
        <ele>395.00</ele>
        <time>2017-02-11T07:15:26Z</time>
      </trkpt>
      <trkpt lat="42.473192000" lon="-2.593423000">
        <ele>394.90</ele>
        <time>2017-02-11T07:15:27Z</time>
      </trkpt>
      <trkpt lat="42.473187000" lon="-2.593430000">
        <ele>394.90</ele>
        <time>2017-02-11T07:15:28Z</time>
      </trkpt>
      <trkpt lat="42.473183000" lon="-2.593446000">
        <ele>394.90</ele>
        <time>2017-02-11T07:15:29Z</time>
      </trkpt>
      <trkpt lat="42.473178000" lon="-2.593466000">
        <ele>395.00</ele>
        <time>2017-02-11T07:15:30Z</time>
      </trkpt>
      <trkpt lat="42.473178000" lon="-2.593499000">
        <ele>395.00</ele>
        <time>2017-02-11T07:15:31Z</time>
      </trkpt>
      <trkpt lat="42.473192000" lon="-2.593526000">
        <ele>395.10</ele>
        <time>2017-02-11T07:15:32Z</time>
      </trkpt>
      <trkpt lat="42.473213000" lon="-2.593548000">
        <ele>395.10</ele>
        <time>2017-02-11T07:15:33Z</time>
      </trkpt>
      <trkpt lat="42.473235000" lon="-2.593570000">
        <ele>395.20</ele>
        <time>2017-02-11T07:15:34Z</time>
      </trkpt>
      <trkpt lat="42.473256000" lon="-2.593595000">
        <ele>395.30</ele>
        <time>2017-02-11T07:15:35Z</time>
      </trkpt>
      <trkpt lat="42.473267000" lon="-2.593625000">
        <ele>395.30</ele>
        <time>2017-02-11T07:15:36Z</time>
      </trkpt>
      <trkpt lat="42.473263000" lon="-2.593650000">
        <ele>395.40</ele>
        <time>2017-02-11T07:15:37Z</time>
      </trkpt>
      <trkpt lat="42.473247000" lon="-2.593667000">
        <ele>395.30</ele>
        <time>2017-02-11T07:15:38Z</time>
      </trkpt>
      <trkpt lat="42.473229000" lon="-2.593670000">
        <ele>395.30</ele>
        <time>2017-02-11T07:15:39Z</time>
      </trkpt>
      <trkpt lat="42.473195000" lon="-2.593671000">
        <ele>395.30</ele>
        <time>2017-02-11T07:15:41Z</time>
      </trkpt>
      <trkpt lat="42.473179000" lon="-2.593681000">
        <ele>395.30</ele>
        <time>2017-02-11T07:15:42Z</time>
      </trkpt>
      <trkpt lat="42.473164000" lon="-2.593684000">
        <ele>395.40</ele>
        <time>2017-02-11T07:15:43Z</time>
      </trkpt>
      <trkpt lat="42.473159000" lon="-2.593681000">
        <ele>395.40</ele>
        <time>2017-02-11T07:15:44Z</time>
      </trkpt>
      <trkpt lat="42.473150000" lon="-2.593684000">
        <ele>395.40</ele>
        <time>2017-02-11T07:15:45Z</time>
      </trkpt>
      <trkpt lat="42.473133000" lon="-2.593682000">
        <ele>395.40</ele>
        <time>2017-02-11T07:15:46Z</time>
      </trkpt>
      <trkpt lat="42.473129000" lon="-2.593665000">
        <ele>395.40</ele>
        <time>2017-02-11T07:15:47Z</time>
      </trkpt>
      <trkpt lat="42.473130000" lon="-2.593646000">
        <ele>395.40</ele>
        <time>2017-02-11T07:15:48Z</time>
      </trkpt>
      <trkpt lat="42.473133000" lon="-2.593632000">
        <ele>395.50</ele>
        <time>2017-02-11T07:15:49Z</time>
      </trkpt>
      <trkpt lat="42.473135000" lon="-2.593613000">
        <ele>395.50</ele>
        <time>2017-02-11T07:15:50Z</time>
      </trkpt>
      <trkpt lat="42.473135000" lon="-2.593598000">
        <ele>395.50</ele>
        <time>2017-02-11T07:15:51Z</time>
      </trkpt>
      <trkpt lat="42.473133000" lon="-2.593576000">
        <ele>395.50</ele>
        <time>2017-02-11T07:15:52Z</time>
      </trkpt>
      <trkpt lat="42.473128000" lon="-2.593557000">
        <ele>395.50</ele>
        <time>2017-02-11T07:15:53Z</time>
      </trkpt>
      <trkpt lat="42.473121000" lon="-2.593535000">
        <ele>395.50</ele>
        <time>2017-02-11T07:15:54Z</time>
      </trkpt>
      <trkpt lat="42.473117000" lon="-2.593518000">
        <ele>395.50</ele>
        <time>2017-02-11T07:15:55Z</time>
      </trkpt>
      <trkpt lat="42.473117000" lon="-2.593496000">
        <ele>395.50</ele>
        <time>2017-02-11T07:15:56Z</time>
      </trkpt>
      <trkpt lat="42.473115000" lon="-2.593473000">
        <ele>395.50</ele>
        <time>2017-02-11T07:15:57Z</time>
      </trkpt>
      <trkpt lat="42.473108000" lon="-2.593454000">
        <ele>395.50</ele>
        <time>2017-02-11T07:15:58Z</time>
      </trkpt>
      <trkpt lat="42.473097000" lon="-2.593440000">
        <ele>395.60</ele>
        <time>2017-02-11T07:15:59Z</time>
      </trkpt>
      <trkpt lat="42.473082000" lon="-2.593427000">
        <ele>395.60</ele>
        <time>2017-02-11T07:16:00Z</time>
      </trkpt>
      <trkpt lat="42.473060000" lon="-2.593421000">
        <ele>395.70</ele>
        <time>2017-02-11T07:16:01Z</time>
      </trkpt>
      <trkpt lat="42.473041000" lon="-2.593427000">
        <ele>395.60</ele>
        <time>2017-02-11T07:16:02Z</time>
      </trkpt>
      <trkpt lat="42.473027000" lon="-2.593447000">
        <ele>395.60</ele>
        <time>2017-02-11T07:16:03Z</time>
      </trkpt>
      <trkpt lat="42.473019000" lon="-2.593462000">
        <ele>395.60</ele>
        <time>2017-02-11T07:16:04Z</time>
      </trkpt>
      <trkpt lat="42.473003000" lon="-2.593469000">
        <ele>395.50</ele>
        <time>2017-02-11T07:16:05Z</time>
      </trkpt>
      <trkpt lat="42.472991000" lon="-2.593468000">
        <ele>395.50</ele>
        <time>2017-02-11T07:16:06Z</time>
      </trkpt>
      <trkpt lat="42.472984000" lon="-2.593469000">
        <ele>395.50</ele>
        <time>2017-02-11T07:16:07Z</time>
      </trkpt>
      <trkpt lat="42.472984000" lon="-2.593473000">
        <ele>395.30</ele>
        <time>2017-02-11T07:16:08Z</time>
      </trkpt>
      <trkpt lat="42.472980000" lon="-2.593476000">
        <ele>395.20</ele>
        <time>2017-02-11T07:16:09Z</time>
      </trkpt>
      <trkpt lat="42.472977000" lon="-2.593472000">
        <ele>395.10</ele>
        <time>2017-02-11T07:16:10Z</time>
      </trkpt>
      <trkpt lat="42.472974000" lon="-2.593474000">
        <ele>395.00</ele>
        <time>2017-02-11T07:16:11Z</time>
      </trkpt>
      <trkpt lat="42.472973000" lon="-2.593471000">
        <ele>394.90</ele>
        <time>2017-02-11T07:16:12Z</time>
      </trkpt>
      <trkpt lat="42.472975000" lon="-2.593468000">
        <ele>394.80</ele>
        <time>2017-02-11T07:16:13Z</time>
      </trkpt>
      <trkpt lat="42.472974000" lon="-2.593466000">
        <ele>394.80</ele>
        <time>2017-02-11T07:16:14Z</time>
      </trkpt>
      <trkpt lat="42.472974000" lon="-2.593467000">
        <ele>394.70</ele>
        <time>2017-02-11T07:16:15Z</time>
      </trkpt>
      <trkpt lat="42.472973000" lon="-2.593463000">
        <ele>394.70</ele>
        <time>2017-02-11T07:16:16Z</time>
      </trkpt>
      <trkpt lat="42.472973000" lon="-2.593461000">
        <ele>394.70</ele>
        <time>2017-02-11T07:16:17Z</time>
      </trkpt>
      <trkpt lat="42.472974000" lon="-2.593459000">
        <ele>394.60</ele>
        <time>2017-02-11T07:16:18Z</time>
      </trkpt>
      <trkpt lat="42.472976000" lon="-2.593459000">
        <ele>394.50</ele>
        <time>2017-02-11T07:16:19Z</time>
      </trkpt>
      <trkpt lat="42.472979000" lon="-2.593459000">
        <ele>394.60</ele>
        <time>2017-02-11T07:16:20Z</time>
      </trkpt>
      <trkpt lat="42.472980000" lon="-2.593461000">
        <ele>394.60</ele>
        <time>2017-02-11T07:16:21Z</time>
      </trkpt>
      <trkpt lat="42.472979000" lon="-2.593464000">
        <ele>394.50</ele>
        <time>2017-02-11T07:16:22Z</time>
      </trkpt>
      <trkpt lat="42.472977000" lon="-2.593464000">
        <ele>394.50</ele>
        <time>2017-02-11T07:16:23Z</time>
      </trkpt>
      <trkpt lat="42.472976000" lon="-2.593465000">
        <ele>394.40</ele>
        <time>2017-02-11T07:16:24Z</time>
      </trkpt>
      <trkpt lat="42.472976000" lon="-2.593465000">
        <ele>394.40</ele>
        <time>2017-02-11T07:16:25Z</time>
      </trkpt>
      <trkpt lat="42.472977000" lon="-2.593465000">
        <ele>394.40</ele>
        <time>2017-02-11T07:16:26Z</time>
      </trkpt>
      <trkpt lat="42.472976000" lon="-2.593466000">
        <ele>394.40</ele>
        <time>2017-02-11T07:16:27Z</time>
      </trkpt>
      <trkpt lat="42.472975000" lon="-2.593465000">
        <ele>394.30</ele>
        <time>2017-02-11T07:16:28Z</time>
      </trkpt>
      <trkpt lat="42.472974000" lon="-2.593463000">
        <ele>394.20</ele>
        <time>2017-02-11T07:16:29Z</time>
      </trkpt>
      <trkpt lat="42.472972000" lon="-2.593462000">
        <ele>394.20</ele>
        <time>2017-02-11T07:16:30Z</time>
      </trkpt>
      <trkpt lat="42.472971000" lon="-2.593461000">
        <ele>394.30</ele>
        <time>2017-02-11T07:16:31Z</time>
      </trkpt>
      <trkpt lat="42.472970000" lon="-2.593459000">
        <ele>394.30</ele>
        <time>2017-02-11T07:16:32Z</time>
      </trkpt>
      <trkpt lat="42.472970000" lon="-2.593457000">
        <ele>394.30</ele>
        <time>2017-02-11T07:16:33Z</time>
      </trkpt>
      <trkpt lat="42.472969000" lon="-2.593457000">
        <ele>394.30</ele>
        <time>2017-02-11T07:16:34Z</time>
      </trkpt>
      <trkpt lat="42.472969000" lon="-2.593456000">
        <ele>394.30</ele>
        <time>2017-02-11T07:16:35Z</time>
      </trkpt>
      <trkpt lat="42.472968000" lon="-2.593455000">
        <ele>394.30</ele>
        <time>2017-02-11T07:16:36Z</time>
      </trkpt>
      <trkpt lat="42.472969000" lon="-2.593455000">
        <ele>394.30</ele>
        <time>2017-02-11T07:16:37Z</time>
      </trkpt>
      <trkpt lat="42.472969000" lon="-2.593455000">
        <ele>394.60</ele>
        <time>2017-02-11T07:16:38Z</time>
      </trkpt>
      <trkpt lat="42.472970000" lon="-2.593453000">
        <ele>394.80</ele>
        <time>2017-02-11T07:16:39Z</time>
      </trkpt>
      <trkpt lat="42.472969000" lon="-2.593451000">
        <ele>395.00</ele>
        <time>2017-02-11T07:16:40Z</time>
      </trkpt>
      <trkpt lat="42.472969000" lon="-2.593445000">
        <ele>395.30</ele>
        <time>2017-02-11T07:16:42Z</time>
      </trkpt>
      <trkpt lat="42.472968000" lon="-2.593444000">
        <ele>395.40</ele>
        <time>2017-02-11T07:16:43Z</time>
      </trkpt>
      <trkpt lat="42.472968000" lon="-2.593441000">
        <ele>395.50</ele>
        <time>2017-02-11T07:16:44Z</time>
      </trkpt>
      <trkpt lat="42.472968000" lon="-2.593440000">
        <ele>395.60</ele>
        <time>2017-02-11T07:16:45Z</time>
      </trkpt>
      <trkpt lat="42.472968000" lon="-2.593440000">
        <ele>395.60</ele>
        <time>2017-02-11T07:16:46Z</time>
      </trkpt>
      <trkpt lat="42.472967000" lon="-2.593440000">
        <ele>395.60</ele>
        <time>2017-02-11T07:16:47Z</time>
      </trkpt>
      <trkpt lat="42.472968000" lon="-2.593440000">
        <ele>395.60</ele>
        <time>2017-02-11T07:16:48Z</time>
      </trkpt>
      <trkpt lat="42.472967000" lon="-2.593440000">
        <ele>395.60</ele>
        <time>2017-02-11T07:16:49Z</time>
      </trkpt>
      <trkpt lat="42.472967000" lon="-2.593440000">
        <ele>395.50</ele>
        <time>2017-02-11T07:16:50Z</time>
      </trkpt>
      <trkpt lat="42.472967000" lon="-2.593440000">
        <ele>395.50</ele>
        <time>2017-02-11T07:16:51Z</time>
      </trkpt>
      <trkpt lat="42.472967000" lon="-2.593440000">
        <ele>395.50</ele>
        <time>2017-02-11T07:16:52Z</time>
      </trkpt>
      <trkpt lat="42.472967000" lon="-2.593440000">
        <ele>395.40</ele>
        <time>2017-02-11T07:16:53Z</time>
      </trkpt>
      <trkpt lat="42.472966000" lon="-2.593440000">
        <ele>395.40</ele>
        <time>2017-02-11T07:16:54Z</time>
      </trkpt>
      <trkpt lat="42.472966000" lon="-2.593440000">
        <ele>395.30</ele>
        <time>2017-02-11T07:16:55Z</time>
      </trkpt>
      <trkpt lat="42.472966000" lon="-2.593440000">
        <ele>395.00</ele>
        <time>2017-02-11T07:16:56Z</time>
      </trkpt>
      <trkpt lat="42.472966000" lon="-2.593440000">
        <ele>394.70</ele>
        <time>2017-02-11T07:16:57Z</time>
      </trkpt>
      <trkpt lat="42.472965000" lon="-2.593439000">
        <ele>394.60</ele>
        <time>2017-02-11T07:16:58Z</time>
      </trkpt>
      <trkpt lat="42.472964000" lon="-2.593440000">
        <ele>394.40</ele>
        <time>2017-02-11T07:16:59Z</time>
      </trkpt>
      <trkpt lat="42.472964000" lon="-2.593440000">
        <ele>394.30</ele>
        <time>2017-02-11T07:17:00Z</time>
      </trkpt>
      <trkpt lat="42.472963000" lon="-2.593438000">
        <ele>394.10</ele>
        <time>2017-02-11T07:17:01Z</time>
      </trkpt>
      <trkpt lat="42.472963000" lon="-2.593437000">
        <ele>394.10</ele>
        <time>2017-02-11T07:17:02Z</time>
      </trkpt>
      <trkpt lat="42.472962000" lon="-2.593436000">
        <ele>394.10</ele>
        <time>2017-02-11T07:17:03Z</time>
      </trkpt>
      <trkpt lat="42.472961000" lon="-2.593435000">
        <ele>394.00</ele>
        <time>2017-02-11T07:17:04Z</time>
      </trkpt>
      <trkpt lat="42.472961000" lon="-2.593434000">
        <ele>393.90</ele>
        <time>2017-02-11T07:17:05Z</time>
      </trkpt>
      <trkpt lat="42.472960000" lon="-2.593433000">
        <ele>394.00</ele>
        <time>2017-02-11T07:17:06Z</time>
      </trkpt>
      <trkpt lat="42.472959000" lon="-2.593433000">
        <ele>394.00</ele>
        <time>2017-02-11T07:17:07Z</time>
      </trkpt>
      <trkpt lat="42.472958000" lon="-2.593432000">
        <ele>394.00</ele>
        <time>2017-02-11T07:17:08Z</time>
      </trkpt>
      <trkpt lat="42.472958000" lon="-2.593431000">
        <ele>394.00</ele>
        <time>2017-02-11T07:17:09Z</time>
      </trkpt>
      <trkpt lat="42.472957000" lon="-2.593431000">
        <ele>394.10</ele>
        <time>2017-02-11T07:17:10Z</time>
      </trkpt>
      <trkpt lat="42.472958000" lon="-2.593429000">
        <ele>394.20</ele>
        <time>2017-02-11T07:17:11Z</time>
      </trkpt>
      <trkpt lat="42.472959000" lon="-2.593427000">
        <ele>394.30</ele>
        <time>2017-02-11T07:17:12Z</time>
      </trkpt>
      <trkpt lat="42.472959000" lon="-2.593426000">
        <ele>394.40</ele>
        <time>2017-02-11T07:17:13Z</time>
      </trkpt>
      <trkpt lat="42.472958000" lon="-2.593426000">
        <ele>394.50</ele>
        <time>2017-02-11T07:17:14Z</time>
      </trkpt>
      <trkpt lat="42.472958000" lon="-2.593425000">
        <ele>394.50</ele>
        <time>2017-02-11T07:17:15Z</time>
      </trkpt>
      <trkpt lat="42.472957000" lon="-2.593426000">
        <ele>394.50</ele>
        <time>2017-02-11T07:17:16Z</time>
      </trkpt>
      <trkpt lat="42.472957000" lon="-2.593423000">
        <ele>394.40</ele>
        <time>2017-02-11T07:17:17Z</time>
      </trkpt>
      <trkpt lat="42.472958000" lon="-2.593421000">
        <ele>394.60</ele>
        <time>2017-02-11T07:17:18Z</time>
      </trkpt>
      <trkpt lat="42.472957000" lon="-2.593421000">
        <ele>394.80</ele>
        <time>2017-02-11T07:17:19Z</time>
      </trkpt>
      <trkpt lat="42.472957000" lon="-2.593421000">
        <ele>394.60</ele>
        <time>2017-02-11T07:17:20Z</time>
      </trkpt>
      <trkpt lat="42.472957000" lon="-2.593421000">
        <ele>394.60</ele>
        <time>2017-02-11T07:17:21Z</time>
      </trkpt>
      <trkpt lat="42.472957000" lon="-2.593421000">
        <ele>394.70</ele>
        <time>2017-02-11T07:17:22Z</time>
      </trkpt>
      <trkpt lat="42.472956000" lon="-2.593422000">
        <ele>394.80</ele>
        <time>2017-02-11T07:17:23Z</time>
      </trkpt>
      <trkpt lat="42.472956000" lon="-2.593423000">
        <ele>394.70</ele>
        <time>2017-02-11T07:17:24Z</time>
      </trkpt>
      <trkpt lat="42.472955000" lon="-2.593422000">
        <ele>394.60</ele>
        <time>2017-02-11T07:17:25Z</time>
      </trkpt>
      <trkpt lat="42.472956000" lon="-2.593421000">
        <ele>394.60</ele>
        <time>2017-02-11T07:17:26Z</time>
      </trkpt>
      <trkpt lat="42.472956000" lon="-2.593420000">
        <ele>394.60</ele>
        <time>2017-02-11T07:17:27Z</time>
      </trkpt>
      <trkpt lat="42.472957000" lon="-2.593418000">
        <ele>394.50</ele>
        <time>2017-02-11T07:17:28Z</time>
      </trkpt>
      <trkpt lat="42.472957000" lon="-2.593418000">
        <ele>394.40</ele>
        <time>2017-02-11T07:17:29Z</time>
      </trkpt>
      <trkpt lat="42.472957000" lon="-2.593417000">
        <ele>394.50</ele>
        <time>2017-02-11T07:17:30Z</time>
      </trkpt>
      <trkpt lat="42.472957000" lon="-2.593417000">
        <ele>394.50</ele>
        <time>2017-02-11T07:17:31Z</time>
      </trkpt>
      <trkpt lat="42.472957000" lon="-2.593416000">
        <ele>394.40</ele>
        <time>2017-02-11T07:17:32Z</time>
      </trkpt>
      <trkpt lat="42.472957000" lon="-2.593416000">
        <ele>394.40</ele>
        <time>2017-02-11T07:17:33Z</time>
      </trkpt>
      <trkpt lat="42.472956000" lon="-2.593415000">
        <ele>394.60</ele>
        <time>2017-02-11T07:17:34Z</time>
      </trkpt>
      <trkpt lat="42.472956000" lon="-2.593416000">
        <ele>394.70</ele>
        <time>2017-02-11T07:17:35Z</time>
      </trkpt>
      <trkpt lat="42.472955000" lon="-2.593416000">
        <ele>394.60</ele>
        <time>2017-02-11T07:17:36Z</time>
      </trkpt>
      <trkpt lat="42.472955000" lon="-2.593417000">
        <ele>394.50</ele>
        <time>2017-02-11T07:17:37Z</time>
      </trkpt>
      <trkpt lat="42.472955000" lon="-2.593417000">
        <ele>394.70</ele>
        <time>2017-02-11T07:17:38Z</time>
      </trkpt>
      <trkpt lat="42.472955000" lon="-2.593418000">
        <ele>394.80</ele>
        <time>2017-02-11T07:17:39Z</time>
      </trkpt>
      <trkpt lat="42.472954000" lon="-2.593417000">
        <ele>394.70</ele>
        <time>2017-02-11T07:17:40Z</time>
      </trkpt>
      <trkpt lat="42.472953000" lon="-2.593416000">
        <ele>394.60</ele>
        <time>2017-02-11T07:17:41Z</time>
      </trkpt>
      <trkpt lat="42.472951000" lon="-2.593417000">
        <ele>394.60</ele>
        <time>2017-02-11T07:17:43Z</time>
      </trkpt>
      <trkpt lat="42.472950000" lon="-2.593418000">
        <ele>394.50</ele>
        <time>2017-02-11T07:17:44Z</time>
      </trkpt>
      <trkpt lat="42.472950000" lon="-2.593419000">
        <ele>394.50</ele>
        <time>2017-02-11T07:17:45Z</time>
      </trkpt>
      <trkpt lat="42.472949000" lon="-2.593422000">
        <ele>394.50</ele>
        <time>2017-02-11T07:17:46Z</time>
      </trkpt>
      <trkpt lat="42.472950000" lon="-2.593424000">
        <ele>394.50</ele>
        <time>2017-02-11T07:17:47Z</time>
      </trkpt>
      <trkpt lat="42.472949000" lon="-2.593425000">
        <ele>394.50</ele>
        <time>2017-02-11T07:17:48Z</time>
      </trkpt>
      <trkpt lat="42.472948000" lon="-2.593426000">
        <ele>394.60</ele>
        <time>2017-02-11T07:17:49Z</time>
      </trkpt>
      <trkpt lat="42.472948000" lon="-2.593427000">
        <ele>394.70</ele>
        <time>2017-02-11T07:17:50Z</time>
      </trkpt>
      <trkpt lat="42.472948000" lon="-2.593428000">
        <ele>394.80</ele>
        <time>2017-02-11T07:17:51Z</time>
      </trkpt>
      <trkpt lat="42.472947000" lon="-2.593429000">
        <ele>394.90</ele>
        <time>2017-02-11T07:17:52Z</time>
      </trkpt>
      <trkpt lat="42.472946000" lon="-2.593430000">
        <ele>395.00</ele>
        <time>2017-02-11T07:17:53Z</time>
      </trkpt>
      <trkpt lat="42.472946000" lon="-2.593431000">
        <ele>395.00</ele>
        <time>2017-02-11T07:17:54Z</time>
      </trkpt>
      <trkpt lat="42.472946000" lon="-2.593431000">
        <ele>395.00</ele>
        <time>2017-02-11T07:17:55Z</time>
      </trkpt>
      <trkpt lat="42.472946000" lon="-2.593432000">
        <ele>395.10</ele>
        <time>2017-02-11T07:17:56Z</time>
      </trkpt>
      <trkpt lat="42.472945000" lon="-2.593433000">
        <ele>395.20</ele>
        <time>2017-02-11T07:17:57Z</time>
      </trkpt>
      <trkpt lat="42.472945000" lon="-2.593432000">
        <ele>395.00</ele>
        <time>2017-02-11T07:17:58Z</time>
      </trkpt>
      <trkpt lat="42.472944000" lon="-2.593432000">
        <ele>394.90</ele>
        <time>2017-02-11T07:17:59Z</time>
      </trkpt>
      <trkpt lat="42.472945000" lon="-2.593431000">
        <ele>394.90</ele>
        <time>2017-02-11T07:18:00Z</time>
      </trkpt>
      <trkpt lat="42.472945000" lon="-2.593430000">
        <ele>395.00</ele>
        <time>2017-02-11T07:18:01Z</time>
      </trkpt>
      <trkpt lat="42.472945000" lon="-2.593430000">
        <ele>394.90</ele>
        <time>2017-02-11T07:18:02Z</time>
      </trkpt>
      <trkpt lat="42.472945000" lon="-2.593429000">
        <ele>394.90</ele>
        <time>2017-02-11T07:18:03Z</time>
      </trkpt>
      <trkpt lat="42.472945000" lon="-2.593429000">
        <ele>394.90</ele>
        <time>2017-02-11T07:18:04Z</time>
      </trkpt>
      <trkpt lat="42.472945000" lon="-2.593429000">
        <ele>395.00</ele>
        <time>2017-02-11T07:18:05Z</time>
      </trkpt>
      <trkpt lat="42.472946000" lon="-2.593430000">
        <ele>395.10</ele>
        <time>2017-02-11T07:18:06Z</time>
      </trkpt>
      <trkpt lat="42.472946000" lon="-2.593430000">
        <ele>395.30</ele>
        <time>2017-02-11T07:18:07Z</time>
      </trkpt>
      <trkpt lat="42.472946000" lon="-2.593431000">
        <ele>395.40</ele>
        <time>2017-02-11T07:18:08Z</time>
      </trkpt>
      <trkpt lat="42.472946000" lon="-2.593430000">
        <ele>395.60</ele>
        <time>2017-02-11T07:18:09Z</time>
      </trkpt>
      <trkpt lat="42.472946000" lon="-2.593431000">
        <ele>395.60</ele>
        <time>2017-02-11T07:18:10Z</time>
      </trkpt>
      <trkpt lat="42.472947000" lon="-2.593430000">
        <ele>395.70</ele>
        <time>2017-02-11T07:18:11Z</time>
      </trkpt>
      <trkpt lat="42.472948000" lon="-2.593428000">
        <ele>395.70</ele>
        <time>2017-02-11T07:18:12Z</time>
      </trkpt>
      <trkpt lat="42.472948000" lon="-2.593427000">
        <ele>395.70</ele>
        <time>2017-02-11T07:18:13Z</time>
      </trkpt>
      <trkpt lat="42.472949000" lon="-2.593426000">
        <ele>395.60</ele>
        <time>2017-02-11T07:18:14Z</time>
      </trkpt>
      <trkpt lat="42.472950000" lon="-2.593425000">
        <ele>395.60</ele>
        <time>2017-02-11T07:18:15Z</time>
      </trkpt>
      <trkpt lat="42.472951000" lon="-2.593425000">
        <ele>395.50</ele>
        <time>2017-02-11T07:18:16Z</time>
      </trkpt>
      <trkpt lat="42.472951000" lon="-2.593424000">
        <ele>395.40</ele>
        <time>2017-02-11T07:18:17Z</time>
      </trkpt>
      <trkpt lat="42.472951000" lon="-2.593424000">
        <ele>395.10</ele>
        <time>2017-02-11T07:18:18Z</time>
      </trkpt>
      <trkpt lat="42.472951000" lon="-2.593422000">
        <ele>394.90</ele>
        <time>2017-02-11T07:18:19Z</time>
      </trkpt>
      <trkpt lat="42.472952000" lon="-2.593421000">
        <ele>394.70</ele>
        <time>2017-02-11T07:18:20Z</time>
      </trkpt>
      <trkpt lat="42.472951000" lon="-2.593421000">
        <ele>394.60</ele>
        <time>2017-02-11T07:18:21Z</time>
      </trkpt>
      <trkpt lat="42.472951000" lon="-2.593422000">
        <ele>394.60</ele>
        <time>2017-02-11T07:18:22Z</time>
      </trkpt>
      <trkpt lat="42.472952000" lon="-2.593422000">
        <ele>394.60</ele>
        <time>2017-02-11T07:18:23Z</time>
      </trkpt>
      <trkpt lat="42.472953000" lon="-2.593422000">
        <ele>394.60</ele>
        <time>2017-02-11T07:18:24Z</time>
      </trkpt>
      <trkpt lat="42.472954000" lon="-2.593422000">
        <ele>394.70</ele>
        <time>2017-02-11T07:18:25Z</time>
      </trkpt>
      <trkpt lat="42.472955000" lon="-2.593423000">
        <ele>394.60</ele>
        <time>2017-02-11T07:18:26Z</time>
      </trkpt>
      <trkpt lat="42.472954000" lon="-2.593424000">
        <ele>394.60</ele>
        <time>2017-02-11T07:18:27Z</time>
      </trkpt>
      <trkpt lat="42.472953000" lon="-2.593425000">
        <ele>394.50</ele>
        <time>2017-02-11T07:18:28Z</time>
      </trkpt>
      <trkpt lat="42.472953000" lon="-2.593425000">
        <ele>394.50</ele>
        <time>2017-02-11T07:18:29Z</time>
      </trkpt>
      <trkpt lat="42.472952000" lon="-2.593425000">
        <ele>394.70</ele>
        <time>2017-02-11T07:18:30Z</time>
      </trkpt>
      <trkpt lat="42.472951000" lon="-2.593426000">
        <ele>394.80</ele>
        <time>2017-02-11T07:18:31Z</time>
      </trkpt>
      <trkpt lat="42.472951000" lon="-2.593425000">
        <ele>394.90</ele>
        <time>2017-02-11T07:18:32Z</time>
      </trkpt>
      <trkpt lat="42.472952000" lon="-2.593425000">
        <ele>394.90</ele>
        <time>2017-02-11T07:18:33Z</time>
      </trkpt>
      <trkpt lat="42.472952000" lon="-2.593424000">
        <ele>394.90</ele>
        <time>2017-02-11T07:18:34Z</time>
      </trkpt>
      <trkpt lat="42.472952000" lon="-2.593423000">
        <ele>394.80</ele>
        <time>2017-02-11T07:18:35Z</time>
      </trkpt>
      <trkpt lat="42.472953000" lon="-2.593422000">
        <ele>394.80</ele>
        <time>2017-02-11T07:18:36Z</time>
      </trkpt>
      <trkpt lat="42.472954000" lon="-2.593423000">
        <ele>394.80</ele>
        <time>2017-02-11T07:18:37Z</time>
      </trkpt>
      <trkpt lat="42.472954000" lon="-2.593424000">
        <ele>394.80</ele>
        <time>2017-02-11T07:18:38Z</time>
      </trkpt>
      <trkpt lat="42.472955000" lon="-2.593424000">
        <ele>394.70</ele>
        <time>2017-02-11T07:18:39Z</time>
      </trkpt>
      <trkpt lat="42.472955000" lon="-2.593425000">
        <ele>394.90</ele>
        <time>2017-02-11T07:18:40Z</time>
      </trkpt>
      <trkpt lat="42.472956000" lon="-2.593424000">
        <ele>395.00</ele>
        <time>2017-02-11T07:18:41Z</time>
      </trkpt>
      <trkpt lat="42.472956000" lon="-2.593425000">
        <ele>395.10</ele>
        <time>2017-02-11T07:18:42Z</time>
      </trkpt>
      <trkpt lat="42.472956000" lon="-2.593427000">
        <ele>395.20</ele>
        <time>2017-02-11T07:18:44Z</time>
      </trkpt>
      <trkpt lat="42.472957000" lon="-2.593428000">
        <ele>395.30</ele>
        <time>2017-02-11T07:18:45Z</time>
      </trkpt>
      <trkpt lat="42.472956000" lon="-2.593428000">
        <ele>395.30</ele>
        <time>2017-02-11T07:18:46Z</time>
      </trkpt>
      <trkpt lat="42.472955000" lon="-2.593428000">
        <ele>395.30</ele>
        <time>2017-02-11T07:18:47Z</time>
      </trkpt>
      <trkpt lat="42.472954000" lon="-2.593427000">
        <ele>395.30</ele>
        <time>2017-02-11T07:18:48Z</time>
      </trkpt>
      <trkpt lat="42.472952000" lon="-2.593428000">
        <ele>395.20</ele>
        <time>2017-02-11T07:18:49Z</time>
      </trkpt>
      <trkpt lat="42.472951000" lon="-2.593430000">
        <ele>395.20</ele>
        <time>2017-02-11T07:18:50Z</time>
      </trkpt>
      <trkpt lat="42.472949000" lon="-2.593431000">
        <ele>395.20</ele>
        <time>2017-02-11T07:18:51Z</time>
      </trkpt>
      <trkpt lat="42.472949000" lon="-2.593432000">
        <ele>395.20</ele>
        <time>2017-02-11T07:18:52Z</time>
      </trkpt>
      <trkpt lat="42.472948000" lon="-2.593433000">
        <ele>395.20</ele>
        <time>2017-02-11T07:18:53Z</time>
      </trkpt>
      <trkpt lat="42.472946000" lon="-2.593433000">
        <ele>394.90</ele>
        <time>2017-02-11T07:18:54Z</time>
      </trkpt>
      <trkpt lat="42.472945000" lon="-2.593434000">
        <ele>394.70</ele>
        <time>2017-02-11T07:18:55Z</time>
      </trkpt>
      <trkpt lat="42.472944000" lon="-2.593433000">
        <ele>394.60</ele>
        <time>2017-02-11T07:18:56Z</time>
      </trkpt>
      <trkpt lat="42.472943000" lon="-2.593433000">
        <ele>394.50</ele>
        <time>2017-02-11T07:18:57Z</time>
      </trkpt>
      <trkpt lat="42.472943000" lon="-2.593434000">
        <ele>394.70</ele>
        <time>2017-02-11T07:18:58Z</time>
      </trkpt>
      <trkpt lat="42.472943000" lon="-2.593435000">
        <ele>394.90</ele>
        <time>2017-02-11T07:18:59Z</time>
      </trkpt>
      <trkpt lat="42.472942000" lon="-2.593436000">
        <ele>395.00</ele>
        <time>2017-02-11T07:19:00Z</time>
      </trkpt>
      <trkpt lat="42.472942000" lon="-2.593437000">
        <ele>395.10</ele>
        <time>2017-02-11T07:19:01Z</time>
      </trkpt>
      <trkpt lat="42.472940000" lon="-2.593438000">
        <ele>395.00</ele>
        <time>2017-02-11T07:19:02Z</time>
      </trkpt>
      <trkpt lat="42.472939000" lon="-2.593439000">
        <ele>394.90</ele>
        <time>2017-02-11T07:19:03Z</time>
      </trkpt>
      <trkpt lat="42.472938000" lon="-2.593440000">
        <ele>394.70</ele>
        <time>2017-02-11T07:19:04Z</time>
      </trkpt>
      <trkpt lat="42.472936000" lon="-2.593441000">
        <ele>394.50</ele>
        <time>2017-02-11T07:19:05Z</time>
      </trkpt>
      <trkpt lat="42.472936000" lon="-2.593440000">
        <ele>394.50</ele>
        <time>2017-02-11T07:19:06Z</time>
      </trkpt>
      <trkpt lat="42.472936000" lon="-2.593440000">
        <ele>394.50</ele>
        <time>2017-02-11T07:19:07Z</time>
      </trkpt>
      <trkpt lat="42.472937000" lon="-2.593440000">
        <ele>394.40</ele>
        <time>2017-02-11T07:19:08Z</time>
      </trkpt>
      <trkpt lat="42.472937000" lon="-2.593440000">
        <ele>394.30</ele>
        <time>2017-02-11T07:19:09Z</time>
      </trkpt>
      <trkpt lat="42.472938000" lon="-2.593441000">
        <ele>394.40</ele>
        <time>2017-02-11T07:19:10Z</time>
      </trkpt>
      <trkpt lat="42.472938000" lon="-2.593440000">
        <ele>394.40</ele>
        <time>2017-02-11T07:19:11Z</time>
      </trkpt>
      <trkpt lat="42.472939000" lon="-2.593441000">
        <ele>394.40</ele>
        <time>2017-02-11T07:19:12Z</time>
      </trkpt>
      <trkpt lat="42.472940000" lon="-2.593441000">
        <ele>394.40</ele>
        <time>2017-02-11T07:19:13Z</time>
      </trkpt>
      <trkpt lat="42.472941000" lon="-2.593442000">
        <ele>394.70</ele>
        <time>2017-02-11T07:19:14Z</time>
      </trkpt>
      <trkpt lat="42.472942000" lon="-2.593441000">
        <ele>394.80</ele>
        <time>2017-02-11T07:19:15Z</time>
      </trkpt>
      <trkpt lat="42.472943000" lon="-2.593442000">
        <ele>395.00</ele>
        <time>2017-02-11T07:19:16Z</time>
      </trkpt>
      <trkpt lat="42.472944000" lon="-2.593442000">
        <ele>395.10</ele>
        <time>2017-02-11T07:19:17Z</time>
      </trkpt>
      <trkpt lat="42.472945000" lon="-2.593442000">
        <ele>395.20</ele>
        <time>2017-02-11T07:19:18Z</time>
      </trkpt>
      <trkpt lat="42.472945000" lon="-2.593442000">
        <ele>395.20</ele>
        <time>2017-02-11T07:19:19Z</time>
      </trkpt>
      <trkpt lat="42.472946000" lon="-2.593441000">
        <ele>395.10</ele>
        <time>2017-02-11T07:19:20Z</time>
      </trkpt>
      <trkpt lat="42.472946000" lon="-2.593440000">
        <ele>395.00</ele>
        <time>2017-02-11T07:19:21Z</time>
      </trkpt>
      <trkpt lat="42.472946000" lon="-2.593439000">
        <ele>394.90</ele>
        <time>2017-02-11T07:19:22Z</time>
      </trkpt>
      <trkpt lat="42.472947000" lon="-2.593438000">
        <ele>394.90</ele>
        <time>2017-02-11T07:19:23Z</time>
      </trkpt>
      <trkpt lat="42.472947000" lon="-2.593438000">
        <ele>394.80</ele>
        <time>2017-02-11T07:19:24Z</time>
      </trkpt>
      <trkpt lat="42.472947000" lon="-2.593436000">
        <ele>394.80</ele>
        <time>2017-02-11T07:19:25Z</time>
      </trkpt>
      <trkpt lat="42.472947000" lon="-2.593436000">
        <ele>395.00</ele>
        <time>2017-02-11T07:19:26Z</time>
      </trkpt>
      <trkpt lat="42.472947000" lon="-2.593436000">
        <ele>395.20</ele>
        <time>2017-02-11T07:19:27Z</time>
      </trkpt>
      <trkpt lat="42.472947000" lon="-2.593435000">
        <ele>395.20</ele>
        <time>2017-02-11T07:19:28Z</time>
      </trkpt>
      <trkpt lat="42.472947000" lon="-2.593435000">
        <ele>395.30</ele>
        <time>2017-02-11T07:19:29Z</time>
      </trkpt>
      <trkpt lat="42.472948000" lon="-2.593435000">
        <ele>395.30</ele>
        <time>2017-02-11T07:19:30Z</time>
      </trkpt>
      <trkpt lat="42.472947000" lon="-2.593436000">
        <ele>395.30</ele>
        <time>2017-02-11T07:19:31Z</time>
      </trkpt>
      <trkpt lat="42.472947000" lon="-2.593435000">
        <ele>395.30</ele>
        <time>2017-02-11T07:19:32Z</time>
      </trkpt>
      <trkpt lat="42.472948000" lon="-2.593435000">
        <ele>395.20</ele>
        <time>2017-02-11T07:19:33Z</time>
      </trkpt>
      <trkpt lat="42.472947000" lon="-2.593435000">
        <ele>395.20</ele>
        <time>2017-02-11T07:19:34Z</time>
      </trkpt>
      <trkpt lat="42.472948000" lon="-2.593434000">
        <ele>395.20</ele>
        <time>2017-02-11T07:19:35Z</time>
      </trkpt>
      <trkpt lat="42.472947000" lon="-2.593433000">
        <ele>395.20</ele>
        <time>2017-02-11T07:19:36Z</time>
      </trkpt>
      <trkpt lat="42.472947000" lon="-2.593433000">
        <ele>395.20</ele>
        <time>2017-02-11T07:19:37Z</time>
      </trkpt>
      <trkpt lat="42.472947000" lon="-2.593432000">
        <ele>395.20</ele>
        <time>2017-02-11T07:19:38Z</time>
      </trkpt>
      <trkpt lat="42.472947000" lon="-2.593431000">
        <ele>395.20</ele>
        <time>2017-02-11T07:19:39Z</time>
      </trkpt>
      <trkpt lat="42.472947000" lon="-2.593431000">
        <ele>395.10</ele>
        <time>2017-02-11T07:19:40Z</time>
      </trkpt>
      <trkpt lat="42.472947000" lon="-2.593431000">
        <ele>395.10</ele>
        <time>2017-02-11T07:19:41Z</time>
      </trkpt>
      <trkpt lat="42.472948000" lon="-2.593431000">
        <ele>395.10</ele>
        <time>2017-02-11T07:19:42Z</time>
      </trkpt>
      <trkpt lat="42.472949000" lon="-2.593431000">
        <ele>395.10</ele>
        <time>2017-02-11T07:19:43Z</time>
      </trkpt>
      <trkpt lat="42.472949000" lon="-2.593430000">
        <ele>394.80</ele>
        <time>2017-02-11T07:19:45Z</time>
      </trkpt>
      <trkpt lat="42.472949000" lon="-2.593431000">
        <ele>394.70</ele>
        <time>2017-02-11T07:19:46Z</time>
      </trkpt>
      <trkpt lat="42.472950000" lon="-2.593431000">
        <ele>394.50</ele>
        <time>2017-02-11T07:19:47Z</time>
      </trkpt>
      <trkpt lat="42.472950000" lon="-2.593432000">
        <ele>394.40</ele>
        <time>2017-02-11T07:19:48Z</time>
      </trkpt>
      <trkpt lat="42.472951000" lon="-2.593431000">
        <ele>394.30</ele>
        <time>2017-02-11T07:19:49Z</time>
      </trkpt>
      <trkpt lat="42.472951000" lon="-2.593432000">
        <ele>394.30</ele>
        <time>2017-02-11T07:19:50Z</time>
      </trkpt>
      <trkpt lat="42.472953000" lon="-2.593434000">
        <ele>394.20</ele>
        <time>2017-02-11T07:19:51Z</time>
      </trkpt>
      <trkpt lat="42.472953000" lon="-2.593435000">
        <ele>394.20</ele>
        <time>2017-02-11T07:19:52Z</time>
      </trkpt>
      <trkpt lat="42.472954000" lon="-2.593438000">
        <ele>394.10</ele>
        <time>2017-02-11T07:19:53Z</time>
      </trkpt>
      <trkpt lat="42.472955000" lon="-2.593439000">
        <ele>394.10</ele>
        <time>2017-02-11T07:19:54Z</time>
      </trkpt>
      <trkpt lat="42.472956000" lon="-2.593443000">
        <ele>394.10</ele>
        <time>2017-02-11T07:19:55Z</time>
      </trkpt>
      <trkpt lat="42.472956000" lon="-2.593445000">
        <ele>394.10</ele>
        <time>2017-02-11T07:19:56Z</time>
      </trkpt>
      <trkpt lat="42.472956000" lon="-2.593446000">
        <ele>394.20</ele>
        <time>2017-02-11T07:19:57Z</time>
      </trkpt>
      <trkpt lat="42.472956000" lon="-2.593447000">
        <ele>394.20</ele>
        <time>2017-02-11T07:19:58Z</time>
      </trkpt>
      <trkpt lat="42.472957000" lon="-2.593447000">
        <ele>394.20</ele>
        <time>2017-02-11T07:19:59Z</time>
      </trkpt>
      <trkpt lat="42.472957000" lon="-2.593446000">
        <ele>394.20</ele>
        <time>2017-02-11T07:20:00Z</time>
      </trkpt>
      <trkpt lat="42.472958000" lon="-2.593446000">
        <ele>394.20</ele>
        <time>2017-02-11T07:20:01Z</time>
      </trkpt>
      <trkpt lat="42.472959000" lon="-2.593446000">
        <ele>394.20</ele>
        <time>2017-02-11T07:20:02Z</time>
      </trkpt>
      <trkpt lat="42.472960000" lon="-2.593446000">
        <ele>394.20</ele>
        <time>2017-02-11T07:20:03Z</time>
      </trkpt>
      <trkpt lat="42.472961000" lon="-2.593445000">
        <ele>394.20</ele>
        <time>2017-02-11T07:20:04Z</time>
      </trkpt>
      <trkpt lat="42.472962000" lon="-2.593444000">
        <ele>394.20</ele>
        <time>2017-02-11T07:20:05Z</time>
      </trkpt>
      <trkpt lat="42.472962000" lon="-2.593443000">
        <ele>394.20</ele>
        <time>2017-02-11T07:20:06Z</time>
      </trkpt>
      <trkpt lat="42.472962000" lon="-2.593441000">
        <ele>394.20</ele>
        <time>2017-02-11T07:20:07Z</time>
      </trkpt>
      <trkpt lat="42.472962000" lon="-2.593440000">
        <ele>394.20</ele>
        <time>2017-02-11T07:20:08Z</time>
      </trkpt>
      <trkpt lat="42.472962000" lon="-2.593441000">
        <ele>394.20</ele>
        <time>2017-02-11T07:20:09Z</time>
      </trkpt>
      <trkpt lat="42.472961000" lon="-2.593442000">
        <ele>394.20</ele>
        <time>2017-02-11T07:20:10Z</time>
      </trkpt>
      <trkpt lat="42.472961000" lon="-2.593442000">
        <ele>394.30</ele>
        <time>2017-02-11T07:20:11Z</time>
      </trkpt>
      <trkpt lat="42.472962000" lon="-2.593442000">
        <ele>394.30</ele>
        <time>2017-02-11T07:20:12Z</time>
      </trkpt>
      <trkpt lat="42.472962000" lon="-2.593443000">
        <ele>394.40</ele>
        <time>2017-02-11T07:20:13Z</time>
      </trkpt>
      <trkpt lat="42.472962000" lon="-2.593443000">
        <ele>394.40</ele>
        <time>2017-02-11T07:20:14Z</time>
      </trkpt>
      <trkpt lat="42.472963000" lon="-2.593444000">
        <ele>394.40</ele>
        <time>2017-02-11T07:20:15Z</time>
      </trkpt>
      <trkpt lat="42.472963000" lon="-2.593444000">
        <ele>394.50</ele>
        <time>2017-02-11T07:20:16Z</time>
      </trkpt>
      <trkpt lat="42.472962000" lon="-2.593445000">
        <ele>394.50</ele>
        <time>2017-02-11T07:20:17Z</time>
      </trkpt>
      <trkpt lat="42.472961000" lon="-2.593444000">
        <ele>394.60</ele>
        <time>2017-02-11T07:20:18Z</time>
      </trkpt>
      <trkpt lat="42.472960000" lon="-2.593444000">
        <ele>394.60</ele>
        <time>2017-02-11T07:20:19Z</time>
      </trkpt>
      <trkpt lat="42.472959000" lon="-2.593446000">
        <ele>394.60</ele>
        <time>2017-02-11T07:20:20Z</time>
      </trkpt>
      <trkpt lat="42.472959000" lon="-2.593449000">
        <ele>394.60</ele>
        <time>2017-02-11T07:20:21Z</time>
      </trkpt>
      <trkpt lat="42.472958000" lon="-2.593451000">
        <ele>394.70</ele>
        <time>2017-02-11T07:20:22Z</time>
      </trkpt>
      <trkpt lat="42.472958000" lon="-2.593451000">
        <ele>394.70</ele>
        <time>2017-02-11T07:20:23Z</time>
      </trkpt>
      <trkpt lat="42.472957000" lon="-2.593451000">
        <ele>394.60</ele>
        <time>2017-02-11T07:20:24Z</time>
      </trkpt>
      <trkpt lat="42.472956000" lon="-2.593450000">
        <ele>394.60</ele>
        <time>2017-02-11T07:20:25Z</time>
      </trkpt>
      <trkpt lat="42.472955000" lon="-2.593450000">
        <ele>394.50</ele>
        <time>2017-02-11T07:20:26Z</time>
      </trkpt>
      <trkpt lat="42.472955000" lon="-2.593449000">
        <ele>394.50</ele>
        <time>2017-02-11T07:20:27Z</time>
      </trkpt>
      <trkpt lat="42.472954000" lon="-2.593448000">
        <ele>394.40</ele>
        <time>2017-02-11T07:20:28Z</time>
      </trkpt>
      <trkpt lat="42.472954000" lon="-2.593446000">
        <ele>394.30</ele>
        <time>2017-02-11T07:20:29Z</time>
      </trkpt>
      <trkpt lat="42.472955000" lon="-2.593444000">
        <ele>394.40</ele>
        <time>2017-02-11T07:20:30Z</time>
      </trkpt>
      <trkpt lat="42.472955000" lon="-2.593444000">
        <ele>394.50</ele>
        <time>2017-02-11T07:20:31Z</time>
      </trkpt>
      <trkpt lat="42.472955000" lon="-2.593443000">
        <ele>394.30</ele>
        <time>2017-02-11T07:20:32Z</time>
      </trkpt>
      <trkpt lat="42.472956000" lon="-2.593442000">
        <ele>394.10</ele>
        <time>2017-02-11T07:20:33Z</time>
      </trkpt>
      <trkpt lat="42.472956000" lon="-2.593441000">
        <ele>394.10</ele>
        <time>2017-02-11T07:20:34Z</time>
      </trkpt>
      <trkpt lat="42.472956000" lon="-2.593441000">
        <ele>394.00</ele>
        <time>2017-02-11T07:20:35Z</time>
      </trkpt>
      <trkpt lat="42.472955000" lon="-2.593442000">
        <ele>394.00</ele>
        <time>2017-02-11T07:20:36Z</time>
      </trkpt>
      <trkpt lat="42.472954000" lon="-2.593442000">
        <ele>394.00</ele>
        <time>2017-02-11T07:20:37Z</time>
      </trkpt>
      <trkpt lat="42.472953000" lon="-2.593443000">
        <ele>394.00</ele>
        <time>2017-02-11T07:20:38Z</time>
      </trkpt>
      <trkpt lat="42.472953000" lon="-2.593442000">
        <ele>394.10</ele>
        <time>2017-02-11T07:20:39Z</time>
      </trkpt>
      <trkpt lat="42.472952000" lon="-2.593442000">
        <ele>394.20</ele>
        <time>2017-02-11T07:20:40Z</time>
      </trkpt>
      <trkpt lat="42.472953000" lon="-2.593442000">
        <ele>394.20</ele>
        <time>2017-02-11T07:20:41Z</time>
      </trkpt>
      <trkpt lat="42.472953000" lon="-2.593441000">
        <ele>394.30</ele>
        <time>2017-02-11T07:20:42Z</time>
      </trkpt>
      <trkpt lat="42.472954000" lon="-2.593441000">
        <ele>394.30</ele>
        <time>2017-02-11T07:20:43Z</time>
      </trkpt>
      <trkpt lat="42.472955000" lon="-2.593441000">
        <ele>394.40</ele>
        <time>2017-02-11T07:20:44Z</time>
      </trkpt>
      <trkpt lat="42.472957000" lon="-2.593441000">
        <ele>394.50</ele>
        <time>2017-02-11T07:20:46Z</time>
      </trkpt>
      <trkpt lat="42.472958000" lon="-2.593441000">
        <ele>394.50</ele>
        <time>2017-02-11T07:20:47Z</time>
      </trkpt>
      <trkpt lat="42.472960000" lon="-2.593440000">
        <ele>394.50</ele>
        <time>2017-02-11T07:20:48Z</time>
      </trkpt>
      <trkpt lat="42.472961000" lon="-2.593440000">
        <ele>394.60</ele>
        <time>2017-02-11T07:20:49Z</time>
      </trkpt>
      <trkpt lat="42.472963000" lon="-2.593440000">
        <ele>394.50</ele>
        <time>2017-02-11T07:20:50Z</time>
      </trkpt>
      <trkpt lat="42.472963000" lon="-2.593439000">
        <ele>394.50</ele>
        <time>2017-02-11T07:20:51Z</time>
      </trkpt>
      <trkpt lat="42.472965000" lon="-2.593437000">
        <ele>394.50</ele>
        <time>2017-02-11T07:20:52Z</time>
      </trkpt>
      <trkpt lat="42.472967000" lon="-2.593436000">
        <ele>394.50</ele>
        <time>2017-02-11T07:20:53Z</time>
      </trkpt>
      <trkpt lat="42.472968000" lon="-2.593435000">
        <ele>394.50</ele>
        <time>2017-02-11T07:20:54Z</time>
      </trkpt>
      <trkpt lat="42.472970000" lon="-2.593434000">
        <ele>394.50</ele>
        <time>2017-02-11T07:20:55Z</time>
      </trkpt>
      <trkpt lat="42.472972000" lon="-2.593432000">
        <ele>394.30</ele>
        <time>2017-02-11T07:20:56Z</time>
      </trkpt>
      <trkpt lat="42.472973000" lon="-2.593431000">
        <ele>394.20</ele>
        <time>2017-02-11T07:20:57Z</time>
      </trkpt>
      <trkpt lat="42.472975000" lon="-2.593430000">
        <ele>394.20</ele>
        <time>2017-02-11T07:20:58Z</time>
      </trkpt>
      <trkpt lat="42.472977000" lon="-2.593431000">
        <ele>394.10</ele>
        <time>2017-02-11T07:20:59Z</time>
      </trkpt>
      <trkpt lat="42.472977000" lon="-2.593431000">
        <ele>394.20</ele>
        <time>2017-02-11T07:21:00Z</time>
      </trkpt>
      <trkpt lat="42.472979000" lon="-2.593430000">
        <ele>394.40</ele>
        <time>2017-02-11T07:21:01Z</time>
      </trkpt>
      <trkpt lat="42.472979000" lon="-2.593431000">
        <ele>394.40</ele>
        <time>2017-02-11T07:21:02Z</time>
      </trkpt>
      <trkpt lat="42.472981000" lon="-2.593431000">
        <ele>394.50</ele>
        <time>2017-02-11T07:21:03Z</time>
      </trkpt>
      <trkpt lat="42.472982000" lon="-2.593430000">
        <ele>394.50</ele>
        <time>2017-02-11T07:21:04Z</time>
      </trkpt>
      <trkpt lat="42.472983000" lon="-2.593430000">
        <ele>394.60</ele>
        <time>2017-02-11T07:21:05Z</time>
      </trkpt>
      <trkpt lat="42.472984000" lon="-2.593430000">
        <ele>394.50</ele>
        <time>2017-02-11T07:21:06Z</time>
      </trkpt>
      <trkpt lat="42.472986000" lon="-2.593431000">
        <ele>394.40</ele>
        <time>2017-02-11T07:21:07Z</time>
      </trkpt>
      <trkpt lat="42.472988000" lon="-2.593431000">
        <ele>394.30</ele>
        <time>2017-02-11T07:21:08Z</time>
      </trkpt>
      <trkpt lat="42.472991000" lon="-2.593431000">
        <ele>394.20</ele>
        <time>2017-02-11T07:21:09Z</time>
      </trkpt>
      <trkpt lat="42.472992000" lon="-2.593432000">
        <ele>394.20</ele>
        <time>2017-02-11T07:21:10Z</time>
      </trkpt>
      <trkpt lat="42.472993000" lon="-2.593432000">
        <ele>394.20</ele>
        <time>2017-02-11T07:21:11Z</time>
      </trkpt>
      <trkpt lat="42.472994000" lon="-2.593432000">
        <ele>394.40</ele>
        <time>2017-02-11T07:21:12Z</time>
      </trkpt>
      <trkpt lat="42.472995000" lon="-2.593430000">
        <ele>394.60</ele>
        <time>2017-02-11T07:21:13Z</time>
      </trkpt>
      <trkpt lat="42.472996000" lon="-2.593430000">
        <ele>394.70</ele>
        <time>2017-02-11T07:21:14Z</time>
      </trkpt>
      <trkpt lat="42.472998000" lon="-2.593429000">
        <ele>394.80</ele>
        <time>2017-02-11T07:21:15Z</time>
      </trkpt>
      <trkpt lat="42.473000000" lon="-2.593429000">
        <ele>394.70</ele>
        <time>2017-02-11T07:21:16Z</time>
      </trkpt>
      <trkpt lat="42.473001000" lon="-2.593430000">
        <ele>394.70</ele>
        <time>2017-02-11T07:21:17Z</time>
      </trkpt>
      <trkpt lat="42.473002000" lon="-2.593429000">
        <ele>394.70</ele>
        <time>2017-02-11T07:21:18Z</time>
      </trkpt>
      <trkpt lat="42.473003000" lon="-2.593428000">
        <ele>394.70</ele>
        <time>2017-02-11T07:21:19Z</time>
      </trkpt>
      <trkpt lat="42.473004000" lon="-2.593427000">
        <ele>394.70</ele>
        <time>2017-02-11T07:21:20Z</time>
      </trkpt>
      <trkpt lat="42.473004000" lon="-2.593427000">
        <ele>394.60</ele>
        <time>2017-02-11T07:21:21Z</time>
      </trkpt>
      <trkpt lat="42.473005000" lon="-2.593427000">
        <ele>394.70</ele>
        <time>2017-02-11T07:21:22Z</time>
      </trkpt>
      <trkpt lat="42.473007000" lon="-2.593427000">
        <ele>394.70</ele>
        <time>2017-02-11T07:21:23Z</time>
      </trkpt>
      <trkpt lat="42.473008000" lon="-2.593427000">
        <ele>394.70</ele>
        <time>2017-02-11T07:21:24Z</time>
      </trkpt>
      <trkpt lat="42.473008000" lon="-2.593427000">
        <ele>394.60</ele>
        <time>2017-02-11T07:21:25Z</time>
      </trkpt>
      <trkpt lat="42.473008000" lon="-2.593427000">
        <ele>394.70</ele>
        <time>2017-02-11T07:21:26Z</time>
      </trkpt>
      <trkpt lat="42.473008000" lon="-2.593425000">
        <ele>394.70</ele>
        <time>2017-02-11T07:21:27Z</time>
      </trkpt>
      <trkpt lat="42.473008000" lon="-2.593425000">
        <ele>394.80</ele>
        <time>2017-02-11T07:21:28Z</time>
      </trkpt>
      <trkpt lat="42.473007000" lon="-2.593425000">
        <ele>394.90</ele>
        <time>2017-02-11T07:21:29Z</time>
      </trkpt>
      <trkpt lat="42.473006000" lon="-2.593426000">
        <ele>395.00</ele>
        <time>2017-02-11T07:21:30Z</time>
      </trkpt>
      <trkpt lat="42.473005000" lon="-2.593426000">
        <ele>395.10</ele>
        <time>2017-02-11T07:21:31Z</time>
      </trkpt>
      <trkpt lat="42.473004000" lon="-2.593426000">
        <ele>395.20</ele>
        <time>2017-02-11T07:21:32Z</time>
      </trkpt>
      <trkpt lat="42.473004000" lon="-2.593426000">
        <ele>395.20</ele>
        <time>2017-02-11T07:21:33Z</time>
      </trkpt>
      <trkpt lat="42.473004000" lon="-2.593425000">
        <ele>395.20</ele>
        <time>2017-02-11T07:21:34Z</time>
      </trkpt>
      <trkpt lat="42.473003000" lon="-2.593425000">
        <ele>395.10</ele>
        <time>2017-02-11T07:21:35Z</time>
      </trkpt>
      <trkpt lat="42.473003000" lon="-2.593426000">
        <ele>394.80</ele>
        <time>2017-02-11T07:21:36Z</time>
      </trkpt>
      <trkpt lat="42.473003000" lon="-2.593426000">
        <ele>394.50</ele>
        <time>2017-02-11T07:21:37Z</time>
      </trkpt>
      <trkpt lat="42.473003000" lon="-2.593427000">
        <ele>394.30</ele>
        <time>2017-02-11T07:21:38Z</time>
      </trkpt>
      <trkpt lat="42.473004000" lon="-2.593429000">
        <ele>394.10</ele>
        <time>2017-02-11T07:21:39Z</time>
      </trkpt>
      <trkpt lat="42.473004000" lon="-2.593430000">
        <ele>394.20</ele>
        <time>2017-02-11T07:21:40Z</time>
      </trkpt>
      <trkpt lat="42.473004000" lon="-2.593431000">
        <ele>394.30</ele>
        <time>2017-02-11T07:21:41Z</time>
      </trkpt>
      <trkpt lat="42.473005000" lon="-2.593430000">
        <ele>394.40</ele>
        <time>2017-02-11T07:21:42Z</time>
      </trkpt>
      <trkpt lat="42.473006000" lon="-2.593430000">
        <ele>394.50</ele>
        <time>2017-02-11T07:21:43Z</time>
      </trkpt>
      <trkpt lat="42.473006000" lon="-2.593429000">
        <ele>394.50</ele>
        <time>2017-02-11T07:21:44Z</time>
      </trkpt>
      <trkpt lat="42.473005000" lon="-2.593429000">
        <ele>394.50</ele>
        <time>2017-02-11T07:21:45Z</time>
      </trkpt>
      <trkpt lat="42.473003000" lon="-2.593429000">
        <ele>394.60</ele>
        <time>2017-02-11T07:21:47Z</time>
      </trkpt>
      <trkpt lat="42.473002000" lon="-2.593428000">
        <ele>394.50</ele>
        <time>2017-02-11T07:21:48Z</time>
      </trkpt>
      <trkpt lat="42.473001000" lon="-2.593429000">
        <ele>394.50</ele>
        <time>2017-02-11T07:21:49Z</time>
      </trkpt>
      <trkpt lat="42.473000000" lon="-2.593429000">
        <ele>394.50</ele>
        <time>2017-02-11T07:21:50Z</time>
      </trkpt>
      <trkpt lat="42.472999000" lon="-2.593428000">
        <ele>394.50</ele>
        <time>2017-02-11T07:21:51Z</time>
      </trkpt>
      <trkpt lat="42.472999000" lon="-2.593428000">
        <ele>394.60</ele>
        <time>2017-02-11T07:21:52Z</time>
      </trkpt>
      <trkpt lat="42.472998000" lon="-2.593427000">
        <ele>394.70</ele>
        <time>2017-02-11T07:21:53Z</time>
      </trkpt>
      <trkpt lat="42.472997000" lon="-2.593427000">
        <ele>394.80</ele>
        <time>2017-02-11T07:21:54Z</time>
      </trkpt>
      <trkpt lat="42.472996000" lon="-2.593428000">
        <ele>394.90</ele>
        <time>2017-02-11T07:21:55Z</time>
      </trkpt>
      <trkpt lat="42.472995000" lon="-2.593428000">
        <ele>394.90</ele>
        <time>2017-02-11T07:21:56Z</time>
      </trkpt>
      <trkpt lat="42.472994000" lon="-2.593430000">
        <ele>394.90</ele>
        <time>2017-02-11T07:21:57Z</time>
      </trkpt>
      <trkpt lat="42.472993000" lon="-2.593432000">
        <ele>394.90</ele>
        <time>2017-02-11T07:21:58Z</time>
      </trkpt>
      <trkpt lat="42.472992000" lon="-2.593433000">
        <ele>394.80</ele>
        <time>2017-02-11T07:21:59Z</time>
      </trkpt>
      <trkpt lat="42.472993000" lon="-2.593433000">
        <ele>394.80</ele>
        <time>2017-02-11T07:22:00Z</time>
      </trkpt>
      <trkpt lat="42.472993000" lon="-2.593434000">
        <ele>394.70</ele>
        <time>2017-02-11T07:22:01Z</time>
      </trkpt>
      <trkpt lat="42.472993000" lon="-2.593435000">
        <ele>394.70</ele>
        <time>2017-02-11T07:22:02Z</time>
      </trkpt>
      <trkpt lat="42.472993000" lon="-2.593436000">
        <ele>394.70</ele>
        <time>2017-02-11T07:22:03Z</time>
      </trkpt>
      <trkpt lat="42.472993000" lon="-2.593438000">
        <ele>394.60</ele>
        <time>2017-02-11T07:22:04Z</time>
      </trkpt>
      <trkpt lat="42.472994000" lon="-2.593439000">
        <ele>394.60</ele>
        <time>2017-02-11T07:22:05Z</time>
      </trkpt>
      <trkpt lat="42.472995000" lon="-2.593439000">
        <ele>394.50</ele>
        <time>2017-02-11T07:22:06Z</time>
      </trkpt>
      <trkpt lat="42.472995000" lon="-2.593440000">
        <ele>394.50</ele>
        <time>2017-02-11T07:22:07Z</time>
      </trkpt>
      <trkpt lat="42.472996000" lon="-2.593441000">
        <ele>394.50</ele>
        <time>2017-02-11T07:22:08Z</time>
      </trkpt>
      <trkpt lat="42.472997000" lon="-2.593440000">
        <ele>394.50</ele>
        <time>2017-02-11T07:22:09Z</time>
      </trkpt>
      <trkpt lat="42.472998000" lon="-2.593441000">
        <ele>394.30</ele>
        <time>2017-02-11T07:22:10Z</time>
      </trkpt>
      <trkpt lat="42.473000000" lon="-2.593440000">
        <ele>394.20</ele>
        <time>2017-02-11T07:22:11Z</time>
      </trkpt>
      <trkpt lat="42.473001000" lon="-2.593439000">
        <ele>394.20</ele>
        <time>2017-02-11T07:22:12Z</time>
      </trkpt>
      <trkpt lat="42.473002000" lon="-2.593438000">
        <ele>394.10</ele>
        <time>2017-02-11T07:22:13Z</time>
      </trkpt>
      <trkpt lat="42.473002000" lon="-2.593437000">
        <ele>394.20</ele>
        <time>2017-02-11T07:22:14Z</time>
      </trkpt>
      <trkpt lat="42.473002000" lon="-2.593437000">
        <ele>394.20</ele>
        <time>2017-02-11T07:22:15Z</time>
      </trkpt>
      <trkpt lat="42.473002000" lon="-2.593436000">
        <ele>394.30</ele>
        <time>2017-02-11T07:22:16Z</time>
      </trkpt>
      <trkpt lat="42.473003000" lon="-2.593436000">
        <ele>394.30</ele>
        <time>2017-02-11T07:22:17Z</time>
      </trkpt>
      <trkpt lat="42.473004000" lon="-2.593436000">
        <ele>394.40</ele>
        <time>2017-02-11T07:22:18Z</time>
      </trkpt>
      <trkpt lat="42.473005000" lon="-2.593436000">
        <ele>394.40</ele>
        <time>2017-02-11T07:22:19Z</time>
      </trkpt>
      <trkpt lat="42.473006000" lon="-2.593434000">
        <ele>394.30</ele>
        <time>2017-02-11T07:22:20Z</time>
      </trkpt>
      <trkpt lat="42.473007000" lon="-2.593432000">
        <ele>394.20</ele>
        <time>2017-02-11T07:22:21Z</time>
      </trkpt>
      <trkpt lat="42.473007000" lon="-2.593430000">
        <ele>394.10</ele>
        <time>2017-02-11T07:22:22Z</time>
      </trkpt>
      <trkpt lat="42.473008000" lon="-2.593429000">
        <ele>394.20</ele>
        <time>2017-02-11T07:22:23Z</time>
      </trkpt>
      <trkpt lat="42.473008000" lon="-2.593427000">
        <ele>394.30</ele>
        <time>2017-02-11T07:22:24Z</time>
      </trkpt>
      <trkpt lat="42.473008000" lon="-2.593426000">
        <ele>394.30</ele>
        <time>2017-02-11T07:22:25Z</time>
      </trkpt>
      <trkpt lat="42.473007000" lon="-2.593425000">
        <ele>394.30</ele>
        <time>2017-02-11T07:22:26Z</time>
      </trkpt>
      <trkpt lat="42.473006000" lon="-2.593425000">
        <ele>394.40</ele>
        <time>2017-02-11T07:22:27Z</time>
      </trkpt>
      <trkpt lat="42.473005000" lon="-2.593424000">
        <ele>394.40</ele>
        <time>2017-02-11T07:22:28Z</time>
      </trkpt>
      <trkpt lat="42.473005000" lon="-2.593423000">
        <ele>394.30</ele>
        <time>2017-02-11T07:22:29Z</time>
      </trkpt>
      <trkpt lat="42.473005000" lon="-2.593423000">
        <ele>394.30</ele>
        <time>2017-02-11T07:22:30Z</time>
      </trkpt>
      <trkpt lat="42.473006000" lon="-2.593422000">
        <ele>394.30</ele>
        <time>2017-02-11T07:22:31Z</time>
      </trkpt>
      <trkpt lat="42.473008000" lon="-2.593422000">
        <ele>394.40</ele>
        <time>2017-02-11T07:22:32Z</time>
      </trkpt>
      <trkpt lat="42.473008000" lon="-2.593421000">
        <ele>394.60</ele>
        <time>2017-02-11T07:22:33Z</time>
      </trkpt>
      <trkpt lat="42.473007000" lon="-2.593420000">
        <ele>394.80</ele>
        <time>2017-02-11T07:22:34Z</time>
      </trkpt>
      <trkpt lat="42.473007000" lon="-2.593418000">
        <ele>395.00</ele>
        <time>2017-02-11T07:22:35Z</time>
      </trkpt>
      <trkpt lat="42.473007000" lon="-2.593417000">
        <ele>395.10</ele>
        <time>2017-02-11T07:22:36Z</time>
      </trkpt>
      <trkpt lat="42.473006000" lon="-2.593415000">
        <ele>395.00</ele>
        <time>2017-02-11T07:22:37Z</time>
      </trkpt>
      <trkpt lat="42.473007000" lon="-2.593414000">
        <ele>394.90</ele>
        <time>2017-02-11T07:22:38Z</time>
      </trkpt>
      <trkpt lat="42.473007000" lon="-2.593414000">
        <ele>394.90</ele>
        <time>2017-02-11T07:22:39Z</time>
      </trkpt>
      <trkpt lat="42.473009000" lon="-2.593412000">
        <ele>394.80</ele>
        <time>2017-02-11T07:22:40Z</time>
      </trkpt>
      <trkpt lat="42.473010000" lon="-2.593409000">
        <ele>394.80</ele>
        <time>2017-02-11T07:22:41Z</time>
      </trkpt>
      <trkpt lat="42.473014000" lon="-2.593403000">
        <ele>394.80</ele>
        <time>2017-02-11T07:22:42Z</time>
      </trkpt>
      <trkpt lat="42.473016000" lon="-2.593404000">
        <ele>394.70</ele>
        <time>2017-02-11T07:22:43Z</time>
      </trkpt>
      <trkpt lat="42.473020000" lon="-2.593411000">
        <ele>394.70</ele>
        <time>2017-02-11T07:22:44Z</time>
      </trkpt>
      <trkpt lat="42.473021000" lon="-2.593420000">
        <ele>394.70</ele>
        <time>2017-02-11T07:22:45Z</time>
      </trkpt>
      <trkpt lat="42.473022000" lon="-2.593425000">
        <ele>394.70</ele>
        <time>2017-02-11T07:22:46Z</time>
      </trkpt>
      <trkpt lat="42.473022000" lon="-2.593428000">
        <ele>394.70</ele>
        <time>2017-02-11T07:22:48Z</time>
      </trkpt>
      <trkpt lat="42.473023000" lon="-2.593428000">
        <ele>394.60</ele>
        <time>2017-02-11T07:22:49Z</time>
      </trkpt>
      <trkpt lat="42.473023000" lon="-2.593430000">
        <ele>394.60</ele>
        <time>2017-02-11T07:22:50Z</time>
      </trkpt>
      <trkpt lat="42.473024000" lon="-2.593429000">
        <ele>394.60</ele>
        <time>2017-02-11T07:22:51Z</time>
      </trkpt>
      <trkpt lat="42.473024000" lon="-2.593429000">
        <ele>394.50</ele>
        <time>2017-02-11T07:22:52Z</time>
      </trkpt>
      <trkpt lat="42.473021000" lon="-2.593433000">
        <ele>394.50</ele>
        <time>2017-02-11T07:22:53Z</time>
      </trkpt>
      <trkpt lat="42.473023000" lon="-2.593437000">
        <ele>394.50</ele>
        <time>2017-02-11T07:22:54Z</time>
      </trkpt>
      <trkpt lat="42.473025000" lon="-2.593449000">
        <ele>394.70</ele>
        <time>2017-02-11T07:22:55Z</time>
      </trkpt>
      <trkpt lat="42.473027000" lon="-2.593454000">
        <ele>394.80</ele>
        <time>2017-02-11T07:22:56Z</time>
      </trkpt>
      <trkpt lat="42.473026000" lon="-2.593459000">
        <ele>394.90</ele>
        <time>2017-02-11T07:22:57Z</time>
      </trkpt>
      <trkpt lat="42.473025000" lon="-2.593476000">
        <ele>394.90</ele>
        <time>2017-02-11T07:22:58Z</time>
      </trkpt>
      <trkpt lat="42.473014000" lon="-2.593497000">
        <ele>394.90</ele>
        <time>2017-02-11T07:22:59Z</time>
      </trkpt>
      <trkpt lat="42.473004000" lon="-2.593518000">
        <ele>394.80</ele>
        <time>2017-02-11T07:23:00Z</time>
      </trkpt>
      <trkpt lat="42.472993000" lon="-2.593551000">
        <ele>394.70</ele>
        <time>2017-02-11T07:23:01Z</time>
      </trkpt>
      <trkpt lat="42.472983000" lon="-2.593578000">
        <ele>394.60</ele>
        <time>2017-02-11T07:23:02Z</time>
      </trkpt>
      <trkpt lat="42.472971000" lon="-2.593611000">
        <ele>394.50</ele>
        <time>2017-02-11T07:23:03Z</time>
      </trkpt>
      <trkpt lat="42.472964000" lon="-2.593642000">
        <ele>394.40</ele>
        <time>2017-02-11T07:23:04Z</time>
      </trkpt>
      <trkpt lat="42.472950000" lon="-2.593678000">
        <ele>394.40</ele>
        <time>2017-02-11T07:23:05Z</time>
      </trkpt>
      <trkpt lat="42.472945000" lon="-2.593710000">
        <ele>394.40</ele>
        <time>2017-02-11T07:23:06Z</time>
      </trkpt>
      <trkpt lat="42.472938000" lon="-2.593739000">
        <ele>394.40</ele>
        <time>2017-02-11T07:23:07Z</time>
      </trkpt>
      <trkpt lat="42.472931000" lon="-2.593774000">
        <ele>394.40</ele>
        <time>2017-02-11T07:23:08Z</time>
      </trkpt>
      <trkpt lat="42.472924000" lon="-2.593807000">
        <ele>394.50</ele>
        <time>2017-02-11T07:23:09Z</time>
      </trkpt>
      <trkpt lat="42.472918000" lon="-2.593840000">
        <ele>394.50</ele>
        <time>2017-02-11T07:23:10Z</time>
      </trkpt>
      <trkpt lat="42.472915000" lon="-2.593869000">
        <ele>394.50</ele>
        <time>2017-02-11T07:23:11Z</time>
      </trkpt>
      <trkpt lat="42.472910000" lon="-2.593900000">
        <ele>394.50</ele>
        <time>2017-02-11T07:23:12Z</time>
      </trkpt>
      <trkpt lat="42.472904000" lon="-2.593930000">
        <ele>394.50</ele>
        <time>2017-02-11T07:23:13Z</time>
      </trkpt>
      <trkpt lat="42.472903000" lon="-2.593965000">
        <ele>394.50</ele>
        <time>2017-02-11T07:23:14Z</time>
      </trkpt>
      <trkpt lat="42.472898000" lon="-2.593994000">
        <ele>394.50</ele>
        <time>2017-02-11T07:23:15Z</time>
      </trkpt>
      <trkpt lat="42.472890000" lon="-2.594021000">
        <ele>394.50</ele>
        <time>2017-02-11T07:23:16Z</time>
      </trkpt>
      <trkpt lat="42.472891000" lon="-2.594056000">
        <ele>394.50</ele>
        <time>2017-02-11T07:23:17Z</time>
      </trkpt>
      <trkpt lat="42.472893000" lon="-2.594093000">
        <ele>394.40</ele>
        <time>2017-02-11T07:23:18Z</time>
      </trkpt>
      <trkpt lat="42.472889000" lon="-2.594127000">
        <ele>394.40</ele>
        <time>2017-02-11T07:23:19Z</time>
      </trkpt>
      <trkpt lat="42.472889000" lon="-2.594162000">
        <ele>394.30</ele>
        <time>2017-02-11T07:23:20Z</time>
      </trkpt>
      <trkpt lat="42.472892000" lon="-2.594191000">
        <ele>394.20</ele>
        <time>2017-02-11T07:23:21Z</time>
      </trkpt>
      <trkpt lat="42.472893000" lon="-2.594217000">
        <ele>394.10</ele>
        <time>2017-02-11T07:23:22Z</time>
      </trkpt>
      <trkpt lat="42.472891000" lon="-2.594243000">
        <ele>394.00</ele>
        <time>2017-02-11T07:23:23Z</time>
      </trkpt>
      <trkpt lat="42.472891000" lon="-2.594272000">
        <ele>393.90</ele>
        <time>2017-02-11T07:23:24Z</time>
      </trkpt>
      <trkpt lat="42.472891000" lon="-2.594304000">
        <ele>393.90</ele>
        <time>2017-02-11T07:23:25Z</time>
      </trkpt>
      <trkpt lat="42.472894000" lon="-2.594338000">
        <ele>393.90</ele>
        <time>2017-02-11T07:23:26Z</time>
      </trkpt>
      <trkpt lat="42.472894000" lon="-2.594371000">
        <ele>393.80</ele>
        <time>2017-02-11T07:23:27Z</time>
      </trkpt>
      <trkpt lat="42.472891000" lon="-2.594401000">
        <ele>393.80</ele>
        <time>2017-02-11T07:23:28Z</time>
      </trkpt>
      <trkpt lat="42.472884000" lon="-2.594429000">
        <ele>393.80</ele>
        <time>2017-02-11T07:23:29Z</time>
      </trkpt>
      <trkpt lat="42.472873000" lon="-2.594452000">
        <ele>393.80</ele>
        <time>2017-02-11T07:23:30Z</time>
      </trkpt>
      <trkpt lat="42.472866000" lon="-2.594470000">
        <ele>393.60</ele>
        <time>2017-02-11T07:23:31Z</time>
      </trkpt>
      <trkpt lat="42.472864000" lon="-2.594490000">
        <ele>393.50</ele>
        <time>2017-02-11T07:23:32Z</time>
      </trkpt>
      <trkpt lat="42.472858000" lon="-2.594524000">
        <ele>393.40</ele>
        <time>2017-02-11T07:23:33Z</time>
      </trkpt>
      <trkpt lat="42.472856000" lon="-2.594556000">
        <ele>393.30</ele>
        <time>2017-02-11T07:23:34Z</time>
      </trkpt>
      <trkpt lat="42.472857000" lon="-2.594576000">
        <ele>393.40</ele>
        <time>2017-02-11T07:23:35Z</time>
      </trkpt>
      <trkpt lat="42.472872000" lon="-2.594597000">
        <ele>393.40</ele>
        <time>2017-02-11T07:23:36Z</time>
      </trkpt>
      <trkpt lat="42.472892000" lon="-2.594609000">
        <ele>393.50</ele>
        <time>2017-02-11T07:23:37Z</time>
      </trkpt>
      <trkpt lat="42.472915000" lon="-2.594614000">
        <ele>393.50</ele>
        <time>2017-02-11T07:23:38Z</time>
      </trkpt>
      <trkpt lat="42.472935000" lon="-2.594611000">
        <ele>393.50</ele>
        <time>2017-02-11T07:23:39Z</time>
      </trkpt>
      <trkpt lat="42.472950000" lon="-2.594608000">
        <ele>393.50</ele>
        <time>2017-02-11T07:23:40Z</time>
      </trkpt>
      <trkpt lat="42.472965000" lon="-2.594613000">
        <ele>393.60</ele>
        <time>2017-02-11T07:23:41Z</time>
      </trkpt>
      <trkpt lat="42.472979000" lon="-2.594614000">
        <ele>393.60</ele>
        <time>2017-02-11T07:23:42Z</time>
      </trkpt>
      <trkpt lat="42.472994000" lon="-2.594619000">
        <ele>393.70</ele>
        <time>2017-02-11T07:23:43Z</time>
      </trkpt>
      <trkpt lat="42.473010000" lon="-2.594630000">
        <ele>393.70</ele>
        <time>2017-02-11T07:23:44Z</time>
      </trkpt>
      <trkpt lat="42.473020000" lon="-2.594641000">
        <ele>393.70</ele>
        <time>2017-02-11T07:23:45Z</time>
      </trkpt>
      <trkpt lat="42.473024000" lon="-2.594656000">
        <ele>393.70</ele>
        <time>2017-02-11T07:23:46Z</time>
      </trkpt>
      <trkpt lat="42.473035000" lon="-2.594664000">
        <ele>393.70</ele>
        <time>2017-02-11T07:23:47Z</time>
      </trkpt>
      <trkpt lat="42.473041000" lon="-2.594679000">
        <ele>393.70</ele>
        <time>2017-02-11T07:23:49Z</time>
      </trkpt>
      <trkpt lat="42.473041000" lon="-2.594678000">
        <ele>393.70</ele>
        <time>2017-02-11T07:23:50Z</time>
      </trkpt>
      <trkpt lat="42.473042000" lon="-2.594678000">
        <ele>393.70</ele>
        <time>2017-02-11T07:23:51Z</time>
      </trkpt>
      <trkpt lat="42.473047000" lon="-2.594674000">
        <ele>393.80</ele>
        <time>2017-02-11T07:23:52Z</time>
      </trkpt>
      <trkpt lat="42.473052000" lon="-2.594679000">
        <ele>393.70</ele>
        <time>2017-02-11T07:23:53Z</time>
      </trkpt>
      <trkpt lat="42.473057000" lon="-2.594687000">
        <ele>393.70</ele>
        <time>2017-02-11T07:23:54Z</time>
      </trkpt>
      <trkpt lat="42.473061000" lon="-2.594700000">
        <ele>393.50</ele>
        <time>2017-02-11T07:23:55Z</time>
      </trkpt>
      <trkpt lat="42.473056000" lon="-2.594720000">
        <ele>393.40</ele>
        <time>2017-02-11T07:23:56Z</time>
      </trkpt>
      <trkpt lat="42.473051000" lon="-2.594735000">
        <ele>393.30</ele>
        <time>2017-02-11T07:23:57Z</time>
      </trkpt>
      <trkpt lat="42.473051000" lon="-2.594758000">
        <ele>393.30</ele>
        <time>2017-02-11T07:23:58Z</time>
      </trkpt>
      <trkpt lat="42.473054000" lon="-2.594779000">
        <ele>393.30</ele>
        <time>2017-02-11T07:23:59Z</time>
      </trkpt>
      <trkpt lat="42.473056000" lon="-2.594801000">
        <ele>393.40</ele>
        <time>2017-02-11T07:24:00Z</time>
      </trkpt>
      <trkpt lat="42.473059000" lon="-2.594823000">
        <ele>393.40</ele>
        <time>2017-02-11T07:24:01Z</time>
      </trkpt>
      <trkpt lat="42.473062000" lon="-2.594850000">
        <ele>393.50</ele>
        <time>2017-02-11T07:24:02Z</time>
      </trkpt>
      <trkpt lat="42.473065000" lon="-2.594884000">
        <ele>393.50</ele>
        <time>2017-02-11T07:24:03Z</time>
      </trkpt>
      <trkpt lat="42.473070000" lon="-2.594914000">
        <ele>393.50</ele>
        <time>2017-02-11T07:24:04Z</time>
      </trkpt>
      <trkpt lat="42.473075000" lon="-2.594934000">
        <ele>393.50</ele>
        <time>2017-02-11T07:24:05Z</time>
      </trkpt>
      <trkpt lat="42.473076000" lon="-2.594965000">
        <ele>393.50</ele>
        <time>2017-02-11T07:24:06Z</time>
      </trkpt>
      <trkpt lat="42.473077000" lon="-2.594997000">
        <ele>393.60</ele>
        <time>2017-02-11T07:24:07Z</time>
      </trkpt>
      <trkpt lat="42.473082000" lon="-2.595031000">
        <ele>393.60</ele>
        <time>2017-02-11T07:24:08Z</time>
      </trkpt>
      <trkpt lat="42.473088000" lon="-2.595065000">
        <ele>393.50</ele>
        <time>2017-02-11T07:24:09Z</time>
      </trkpt>
      <trkpt lat="42.473096000" lon="-2.595104000">
        <ele>393.50</ele>
        <time>2017-02-11T07:24:10Z</time>
      </trkpt>
      <trkpt lat="42.473104000" lon="-2.595140000">
        <ele>393.40</ele>
        <time>2017-02-11T07:24:11Z</time>
      </trkpt>
      <trkpt lat="42.473111000" lon="-2.595179000">
        <ele>393.40</ele>
        <time>2017-02-11T07:24:12Z</time>
      </trkpt>
      <trkpt lat="42.473119000" lon="-2.595214000">
        <ele>393.40</ele>
        <time>2017-02-11T07:24:13Z</time>
      </trkpt>
      <trkpt lat="42.473129000" lon="-2.595248000">
        <ele>393.50</ele>
        <time>2017-02-11T07:24:14Z</time>
      </trkpt>
      <trkpt lat="42.473134000" lon="-2.595280000">
        <ele>393.50</ele>
        <time>2017-02-11T07:24:15Z</time>
      </trkpt>
      <trkpt lat="42.473143000" lon="-2.595308000">
        <ele>393.50</ele>
        <time>2017-02-11T07:24:16Z</time>
      </trkpt>
      <trkpt lat="42.473152000" lon="-2.595342000">
        <ele>393.40</ele>
        <time>2017-02-11T07:24:17Z</time>
      </trkpt>
      <trkpt lat="42.473159000" lon="-2.595375000">
        <ele>393.30</ele>
        <time>2017-02-11T07:24:18Z</time>
      </trkpt>
      <trkpt lat="42.473167000" lon="-2.595408000">
        <ele>393.30</ele>
        <time>2017-02-11T07:24:19Z</time>
      </trkpt>
      <trkpt lat="42.473175000" lon="-2.595444000">
        <ele>393.20</ele>
        <time>2017-02-11T07:24:20Z</time>
      </trkpt>
      <trkpt lat="42.473184000" lon="-2.595480000">
        <ele>393.20</ele>
        <time>2017-02-11T07:24:21Z</time>
      </trkpt>
      <trkpt lat="42.473194000" lon="-2.595522000">
        <ele>393.10</ele>
        <time>2017-02-11T07:24:22Z</time>
      </trkpt>
      <trkpt lat="42.473203000" lon="-2.595561000">
        <ele>393.20</ele>
        <time>2017-02-11T07:24:23Z</time>
      </trkpt>
      <trkpt lat="42.473211000" lon="-2.595598000">
        <ele>393.20</ele>
        <time>2017-02-11T07:24:24Z</time>
      </trkpt>
      <trkpt lat="42.473214000" lon="-2.595643000">
        <ele>393.30</ele>
        <time>2017-02-11T07:24:25Z</time>
      </trkpt>
      <trkpt lat="42.473219000" lon="-2.595686000">
        <ele>393.40</ele>
        <time>2017-02-11T07:24:26Z</time>
      </trkpt>
      <trkpt lat="42.473229000" lon="-2.595732000">
        <ele>393.40</ele>
        <time>2017-02-11T07:24:27Z</time>
      </trkpt>
      <trkpt lat="42.473236000" lon="-2.595775000">
        <ele>393.50</ele>
        <time>2017-02-11T07:24:28Z</time>
      </trkpt>
      <trkpt lat="42.473251000" lon="-2.595812000">
        <ele>393.30</ele>
        <time>2017-02-11T07:24:29Z</time>
      </trkpt>
      <trkpt lat="42.473266000" lon="-2.595849000">
        <ele>393.10</ele>
        <time>2017-02-11T07:24:30Z</time>
      </trkpt>
      <trkpt lat="42.473270000" lon="-2.595885000">
        <ele>393.00</ele>
        <time>2017-02-11T07:24:31Z</time>
      </trkpt>
      <trkpt lat="42.473288000" lon="-2.595918000">
        <ele>392.90</ele>
        <time>2017-02-11T07:24:32Z</time>
      </trkpt>
      <trkpt lat="42.473313000" lon="-2.595948000">
        <ele>392.80</ele>
        <time>2017-02-11T07:24:33Z</time>
      </trkpt>
      <trkpt lat="42.473330000" lon="-2.595982000">
        <ele>392.80</ele>
        <time>2017-02-11T07:24:34Z</time>
      </trkpt>
      <trkpt lat="42.473354000" lon="-2.596021000">
        <ele>392.70</ele>
        <time>2017-02-11T07:24:35Z</time>
      </trkpt>
      <trkpt lat="42.473377000" lon="-2.596065000">
        <ele>392.70</ele>
        <time>2017-02-11T07:24:36Z</time>
      </trkpt>
      <trkpt lat="42.473397000" lon="-2.596106000">
        <ele>392.70</ele>
        <time>2017-02-11T07:24:37Z</time>
      </trkpt>
      <trkpt lat="42.473420000" lon="-2.596149000">
        <ele>392.70</ele>
        <time>2017-02-11T07:24:38Z</time>
      </trkpt>
      <trkpt lat="42.473441000" lon="-2.596186000">
        <ele>392.90</ele>
        <time>2017-02-11T07:24:39Z</time>
      </trkpt>
      <trkpt lat="42.473460000" lon="-2.596227000">
        <ele>393.00</ele>
        <time>2017-02-11T07:24:40Z</time>
      </trkpt>
      <trkpt lat="42.473476000" lon="-2.596262000">
        <ele>393.10</ele>
        <time>2017-02-11T07:24:41Z</time>
      </trkpt>
      <trkpt lat="42.473499000" lon="-2.596297000">
        <ele>393.20</ele>
        <time>2017-02-11T07:24:42Z</time>
      </trkpt>
      <trkpt lat="42.473518000" lon="-2.596333000">
        <ele>393.20</ele>
        <time>2017-02-11T07:24:43Z</time>
      </trkpt>
      <trkpt lat="42.473536000" lon="-2.596368000">
        <ele>393.30</ele>
        <time>2017-02-11T07:24:44Z</time>
      </trkpt>
      <trkpt lat="42.473550000" lon="-2.596406000">
        <ele>393.20</ele>
        <time>2017-02-11T07:24:45Z</time>
      </trkpt>
      <trkpt lat="42.473562000" lon="-2.596441000">
        <ele>393.10</ele>
        <time>2017-02-11T07:24:46Z</time>
      </trkpt>
      <trkpt lat="42.473578000" lon="-2.596465000">
        <ele>393.00</ele>
        <time>2017-02-11T07:24:47Z</time>
      </trkpt>
      <trkpt lat="42.473591000" lon="-2.596496000">
        <ele>393.00</ele>
        <time>2017-02-11T07:24:48Z</time>
      </trkpt>
      <trkpt lat="42.473618000" lon="-2.596559000">
        <ele>393.00</ele>
        <time>2017-02-11T07:24:50Z</time>
      </trkpt>
      <trkpt lat="42.473636000" lon="-2.596589000">
        <ele>393.10</ele>
        <time>2017-02-11T07:24:51Z</time>
      </trkpt>
      <trkpt lat="42.473653000" lon="-2.596623000">
        <ele>393.20</ele>
        <time>2017-02-11T07:24:52Z</time>
      </trkpt>
      <trkpt lat="42.473668000" lon="-2.596657000">
        <ele>393.20</ele>
        <time>2017-02-11T07:24:53Z</time>
      </trkpt>
      <trkpt lat="42.473683000" lon="-2.596692000">
        <ele>393.30</ele>
        <time>2017-02-11T07:24:54Z</time>
      </trkpt>
      <trkpt lat="42.473697000" lon="-2.596731000">
        <ele>393.20</ele>
        <time>2017-02-11T07:24:55Z</time>
      </trkpt>
      <trkpt lat="42.473713000" lon="-2.596768000">
        <ele>393.10</ele>
        <time>2017-02-11T07:24:56Z</time>
      </trkpt>
      <trkpt lat="42.473733000" lon="-2.596808000">
        <ele>393.00</ele>
        <time>2017-02-11T07:24:57Z</time>
      </trkpt>
      <trkpt lat="42.473752000" lon="-2.596841000">
        <ele>393.00</ele>
        <time>2017-02-11T07:24:58Z</time>
      </trkpt>
      <trkpt lat="42.473770000" lon="-2.596869000">
        <ele>393.00</ele>
        <time>2017-02-11T07:24:59Z</time>
      </trkpt>
      <trkpt lat="42.473791000" lon="-2.596901000">
        <ele>393.00</ele>
        <time>2017-02-11T07:25:00Z</time>
      </trkpt>
      <trkpt lat="42.473808000" lon="-2.596939000">
        <ele>392.90</ele>
        <time>2017-02-11T07:25:01Z</time>
      </trkpt>
      <trkpt lat="42.473824000" lon="-2.596975000">
        <ele>392.90</ele>
        <time>2017-02-11T07:25:02Z</time>
      </trkpt>
      <trkpt lat="42.473839000" lon="-2.597011000">
        <ele>392.80</ele>
        <time>2017-02-11T07:25:03Z</time>
      </trkpt>
      <trkpt lat="42.473857000" lon="-2.597040000">
        <ele>392.80</ele>
        <time>2017-02-11T07:25:04Z</time>
      </trkpt>
      <trkpt lat="42.473880000" lon="-2.597068000">
        <ele>392.80</ele>
        <time>2017-02-11T07:25:05Z</time>
      </trkpt>
      <trkpt lat="42.473896000" lon="-2.597103000">
        <ele>392.70</ele>
        <time>2017-02-11T07:25:06Z</time>
      </trkpt>
      <trkpt lat="42.473916000" lon="-2.597133000">
        <ele>392.80</ele>
        <time>2017-02-11T07:25:07Z</time>
      </trkpt>
      <trkpt lat="42.473940000" lon="-2.597162000">
        <ele>392.80</ele>
        <time>2017-02-11T07:25:08Z</time>
      </trkpt>
      <trkpt lat="42.473958000" lon="-2.597196000">
        <ele>392.80</ele>
        <time>2017-02-11T07:25:09Z</time>
      </trkpt>
      <trkpt lat="42.473976000" lon="-2.597233000">
        <ele>392.80</ele>
        <time>2017-02-11T07:25:10Z</time>
      </trkpt>
      <trkpt lat="42.473997000" lon="-2.597265000">
        <ele>392.80</ele>
        <time>2017-02-11T07:25:11Z</time>
      </trkpt>
      <trkpt lat="42.474016000" lon="-2.597297000">
        <ele>392.90</ele>
        <time>2017-02-11T07:25:12Z</time>
      </trkpt>
      <trkpt lat="42.474030000" lon="-2.597333000">
        <ele>392.90</ele>
        <time>2017-02-11T07:25:13Z</time>
      </trkpt>
      <trkpt lat="42.474045000" lon="-2.597367000">
        <ele>392.90</ele>
        <time>2017-02-11T07:25:14Z</time>
      </trkpt>
      <trkpt lat="42.474062000" lon="-2.597403000">
        <ele>392.90</ele>
        <time>2017-02-11T07:25:15Z</time>
      </trkpt>
      <trkpt lat="42.474076000" lon="-2.597437000">
        <ele>393.00</ele>
        <time>2017-02-11T07:25:16Z</time>
      </trkpt>
      <trkpt lat="42.474087000" lon="-2.597468000">
        <ele>393.00</ele>
        <time>2017-02-11T07:25:17Z</time>
      </trkpt>
      <trkpt lat="42.474098000" lon="-2.597497000">
        <ele>393.10</ele>
        <time>2017-02-11T07:25:18Z</time>
      </trkpt>
      <trkpt lat="42.474113000" lon="-2.597531000">
        <ele>393.20</ele>
        <time>2017-02-11T07:25:19Z</time>
      </trkpt>
      <trkpt lat="42.474125000" lon="-2.597566000">
        <ele>393.20</ele>
        <time>2017-02-11T07:25:20Z</time>
      </trkpt>
      <trkpt lat="42.474143000" lon="-2.597594000">
        <ele>393.20</ele>
        <time>2017-02-11T07:25:21Z</time>
      </trkpt>
      <trkpt lat="42.474155000" lon="-2.597623000">
        <ele>393.30</ele>
        <time>2017-02-11T07:25:22Z</time>
      </trkpt>
      <trkpt lat="42.474169000" lon="-2.597652000">
        <ele>393.30</ele>
        <time>2017-02-11T07:25:23Z</time>
      </trkpt>
      <trkpt lat="42.474186000" lon="-2.597680000">
        <ele>393.40</ele>
        <time>2017-02-11T07:25:24Z</time>
      </trkpt>
      <trkpt lat="42.474195000" lon="-2.597711000">
        <ele>393.60</ele>
        <time>2017-02-11T07:25:25Z</time>
      </trkpt>
      <trkpt lat="42.474206000" lon="-2.597746000">
        <ele>393.70</ele>
        <time>2017-02-11T07:25:26Z</time>
      </trkpt>
      <trkpt lat="42.474219000" lon="-2.597784000">
        <ele>393.80</ele>
        <time>2017-02-11T07:25:27Z</time>
      </trkpt>
      <trkpt lat="42.474233000" lon="-2.597820000">
        <ele>393.90</ele>
        <time>2017-02-11T07:25:28Z</time>
      </trkpt>
      <trkpt lat="42.474247000" lon="-2.597853000">
        <ele>393.90</ele>
        <time>2017-02-11T07:25:29Z</time>
      </trkpt>
      <trkpt lat="42.474266000" lon="-2.597887000">
        <ele>394.00</ele>
        <time>2017-02-11T07:25:30Z</time>
      </trkpt>
      <trkpt lat="42.474282000" lon="-2.597918000">
        <ele>393.90</ele>
        <time>2017-02-11T07:25:31Z</time>
      </trkpt>
      <trkpt lat="42.474300000" lon="-2.597949000">
        <ele>393.90</ele>
        <time>2017-02-11T07:25:32Z</time>
      </trkpt>
      <trkpt lat="42.474319000" lon="-2.597981000">
        <ele>394.00</ele>
        <time>2017-02-11T07:25:33Z</time>
      </trkpt>
      <trkpt lat="42.474338000" lon="-2.598019000">
        <ele>394.00</ele>
        <time>2017-02-11T07:25:34Z</time>
      </trkpt>
      <trkpt lat="42.474359000" lon="-2.598056000">
        <ele>394.00</ele>
        <time>2017-02-11T07:25:35Z</time>
      </trkpt>
      <trkpt lat="42.474377000" lon="-2.598093000">
        <ele>393.90</ele>
        <time>2017-02-11T07:25:36Z</time>
      </trkpt>
      <trkpt lat="42.474395000" lon="-2.598127000">
        <ele>393.90</ele>
        <time>2017-02-11T07:25:37Z</time>
      </trkpt>
      <trkpt lat="42.474419000" lon="-2.598158000">
        <ele>393.90</ele>
        <time>2017-02-11T07:25:38Z</time>
      </trkpt>
      <trkpt lat="42.474445000" lon="-2.598186000">
        <ele>393.90</ele>
        <time>2017-02-11T07:25:39Z</time>
      </trkpt>
      <trkpt lat="42.474466000" lon="-2.598212000">
        <ele>393.90</ele>
        <time>2017-02-11T07:25:40Z</time>
      </trkpt>
      <trkpt lat="42.474487000" lon="-2.598234000">
        <ele>393.80</ele>
        <time>2017-02-11T07:25:41Z</time>
      </trkpt>
      <trkpt lat="42.474514000" lon="-2.598255000">
        <ele>393.70</ele>
        <time>2017-02-11T07:25:42Z</time>
      </trkpt>
      <trkpt lat="42.474538000" lon="-2.598277000">
        <ele>393.70</ele>
        <time>2017-02-11T07:25:43Z</time>
      </trkpt>
      <trkpt lat="42.474568000" lon="-2.598300000">
        <ele>393.70</ele>
        <time>2017-02-11T07:25:44Z</time>
      </trkpt>
      <trkpt lat="42.474597000" lon="-2.598320000">
        <ele>393.60</ele>
        <time>2017-02-11T07:25:45Z</time>
      </trkpt>
      <trkpt lat="42.474620000" lon="-2.598336000">
        <ele>393.50</ele>
        <time>2017-02-11T07:25:46Z</time>
      </trkpt>
      <trkpt lat="42.474644000" lon="-2.598355000">
        <ele>393.50</ele>
        <time>2017-02-11T07:25:47Z</time>
      </trkpt>
      <trkpt lat="42.474665000" lon="-2.598378000">
        <ele>393.50</ele>
        <time>2017-02-11T07:25:48Z</time>
      </trkpt>
      <trkpt lat="42.474685000" lon="-2.598404000">
        <ele>393.40</ele>
        <time>2017-02-11T07:25:49Z</time>
      </trkpt>
      <trkpt lat="42.474726000" lon="-2.598470000">
        <ele>393.20</ele>
        <time>2017-02-11T07:25:51Z</time>
      </trkpt>
      <trkpt lat="42.474741000" lon="-2.598507000">
        <ele>393.10</ele>
        <time>2017-02-11T07:25:52Z</time>
      </trkpt>
      <trkpt lat="42.474761000" lon="-2.598542000">
        <ele>393.00</ele>
        <time>2017-02-11T07:25:53Z</time>
      </trkpt>
      <trkpt lat="42.474780000" lon="-2.598578000">
        <ele>393.00</ele>
        <time>2017-02-11T07:25:54Z</time>
      </trkpt>
      <trkpt lat="42.474801000" lon="-2.598612000">
        <ele>393.10</ele>
        <time>2017-02-11T07:25:55Z</time>
      </trkpt>
      <trkpt lat="42.474823000" lon="-2.598643000">
        <ele>393.10</ele>
        <time>2017-02-11T07:25:56Z</time>
      </trkpt>
      <trkpt lat="42.474841000" lon="-2.598673000">
        <ele>393.20</ele>
        <time>2017-02-11T07:25:57Z</time>
      </trkpt>
      <trkpt lat="42.474858000" lon="-2.598708000">
        <ele>393.30</ele>
        <time>2017-02-11T07:25:58Z</time>
      </trkpt>
      <trkpt lat="42.474871000" lon="-2.598746000">
        <ele>393.40</ele>
        <time>2017-02-11T07:25:59Z</time>
      </trkpt>
      <trkpt lat="42.474889000" lon="-2.598780000">
        <ele>393.50</ele>
        <time>2017-02-11T07:26:00Z</time>
      </trkpt>
      <trkpt lat="42.474905000" lon="-2.598816000">
        <ele>393.60</ele>
        <time>2017-02-11T07:26:01Z</time>
      </trkpt>
      <trkpt lat="42.474919000" lon="-2.598844000">
        <ele>393.70</ele>
        <time>2017-02-11T07:26:02Z</time>
      </trkpt>
      <trkpt lat="42.474938000" lon="-2.598867000">
        <ele>393.70</ele>
        <time>2017-02-11T07:26:03Z</time>
      </trkpt>
      <trkpt lat="42.474955000" lon="-2.598891000">
        <ele>393.70</ele>
        <time>2017-02-11T07:26:04Z</time>
      </trkpt>
      <trkpt lat="42.474969000" lon="-2.598914000">
        <ele>393.80</ele>
        <time>2017-02-11T07:26:05Z</time>
      </trkpt>
      <trkpt lat="42.474985000" lon="-2.598934000">
        <ele>393.80</ele>
        <time>2017-02-11T07:26:06Z</time>
      </trkpt>
      <trkpt lat="42.475005000" lon="-2.598955000">
        <ele>393.90</ele>
        <time>2017-02-11T07:26:07Z</time>
      </trkpt>
      <trkpt lat="42.475026000" lon="-2.598980000">
        <ele>393.90</ele>
        <time>2017-02-11T07:26:08Z</time>
      </trkpt>
      <trkpt lat="42.475046000" lon="-2.599013000">
        <ele>394.00</ele>
        <time>2017-02-11T07:26:09Z</time>
      </trkpt>
      <trkpt lat="42.475069000" lon="-2.599049000">
        <ele>394.00</ele>
        <time>2017-02-11T07:26:10Z</time>
      </trkpt>
      <trkpt lat="42.475095000" lon="-2.599086000">
        <ele>394.00</ele>
        <time>2017-02-11T07:26:11Z</time>
      </trkpt>
      <trkpt lat="42.475124000" lon="-2.599123000">
        <ele>393.90</ele>
        <time>2017-02-11T07:26:12Z</time>
      </trkpt>
      <trkpt lat="42.475156000" lon="-2.599162000">
        <ele>393.80</ele>
        <time>2017-02-11T07:26:13Z</time>
      </trkpt>
      <trkpt lat="42.475190000" lon="-2.599202000">
        <ele>393.80</ele>
        <time>2017-02-11T07:26:14Z</time>
      </trkpt>
      <trkpt lat="42.475217000" lon="-2.599237000">
        <ele>393.70</ele>
        <time>2017-02-11T07:26:15Z</time>
      </trkpt>
      <trkpt lat="42.475243000" lon="-2.599272000">
        <ele>393.70</ele>
        <time>2017-02-11T07:26:16Z</time>
      </trkpt>
      <trkpt lat="42.475269000" lon="-2.599308000">
        <ele>393.80</ele>
        <time>2017-02-11T07:26:17Z</time>
      </trkpt>
      <trkpt lat="42.475292000" lon="-2.599342000">
        <ele>393.90</ele>
        <time>2017-02-11T07:26:18Z</time>
      </trkpt>
      <trkpt lat="42.475314000" lon="-2.599379000">
        <ele>394.00</ele>
        <time>2017-02-11T07:26:19Z</time>
      </trkpt>
      <trkpt lat="42.475337000" lon="-2.599406000">
        <ele>394.10</ele>
        <time>2017-02-11T07:26:20Z</time>
      </trkpt>
      <trkpt lat="42.475363000" lon="-2.599433000">
        <ele>394.20</ele>
        <time>2017-02-11T07:26:21Z</time>
      </trkpt>
      <trkpt lat="42.475389000" lon="-2.599459000">
        <ele>394.20</ele>
        <time>2017-02-11T07:26:22Z</time>
      </trkpt>
      <trkpt lat="42.475414000" lon="-2.599478000">
        <ele>394.20</ele>
        <time>2017-02-11T07:26:23Z</time>
      </trkpt>
      <trkpt lat="42.475440000" lon="-2.599506000">
        <ele>394.20</ele>
        <time>2017-02-11T07:26:24Z</time>
      </trkpt>
      <trkpt lat="42.475467000" lon="-2.599531000">
        <ele>394.20</ele>
        <time>2017-02-11T07:26:25Z</time>
      </trkpt>
      <trkpt lat="42.475490000" lon="-2.599554000">
        <ele>394.20</ele>
        <time>2017-02-11T07:26:26Z</time>
      </trkpt>
      <trkpt lat="42.475514000" lon="-2.599576000">
        <ele>394.20</ele>
        <time>2017-02-11T07:26:27Z</time>
      </trkpt>
      <trkpt lat="42.475538000" lon="-2.599602000">
        <ele>394.20</ele>
        <time>2017-02-11T07:26:28Z</time>
      </trkpt>
      <trkpt lat="42.475558000" lon="-2.599628000">
        <ele>394.20</ele>
        <time>2017-02-11T07:26:29Z</time>
      </trkpt>
      <trkpt lat="42.475582000" lon="-2.599651000">
        <ele>394.20</ele>
        <time>2017-02-11T07:26:30Z</time>
      </trkpt>
      <trkpt lat="42.475605000" lon="-2.599680000">
        <ele>394.40</ele>
        <time>2017-02-11T07:26:31Z</time>
      </trkpt>
      <trkpt lat="42.475632000" lon="-2.599704000">
        <ele>394.50</ele>
        <time>2017-02-11T07:26:32Z</time>
      </trkpt>
      <trkpt lat="42.475657000" lon="-2.599726000">
        <ele>394.60</ele>
        <time>2017-02-11T07:26:33Z</time>
      </trkpt>
      <trkpt lat="42.475686000" lon="-2.599743000">
        <ele>394.60</ele>
        <time>2017-02-11T07:26:34Z</time>
      </trkpt>
      <trkpt lat="42.475716000" lon="-2.599749000">
        <ele>394.70</ele>
        <time>2017-02-11T07:26:35Z</time>
      </trkpt>
      <trkpt lat="42.475739000" lon="-2.599741000">
        <ele>394.70</ele>
        <time>2017-02-11T07:26:36Z</time>
      </trkpt>
      <trkpt lat="42.475758000" lon="-2.599727000">
        <ele>395.10</ele>
        <time>2017-02-11T07:26:37Z</time>
      </trkpt>
      <trkpt lat="42.475780000" lon="-2.599707000">
        <ele>395.50</ele>
        <time>2017-02-11T07:26:38Z</time>
      </trkpt>
      <trkpt lat="42.475801000" lon="-2.599684000">
        <ele>395.90</ele>
        <time>2017-02-11T07:26:39Z</time>
      </trkpt>
      <trkpt lat="42.475821000" lon="-2.599667000">
        <ele>396.20</ele>
        <time>2017-02-11T07:26:40Z</time>
      </trkpt>
      <trkpt lat="42.475841000" lon="-2.599647000">
        <ele>396.40</ele>
        <time>2017-02-11T07:26:41Z</time>
      </trkpt>
      <trkpt lat="42.475860000" lon="-2.599624000">
        <ele>396.50</ele>
        <time>2017-02-11T07:26:42Z</time>
      </trkpt>
      <trkpt lat="42.475877000" lon="-2.599603000">
        <ele>396.70</ele>
        <time>2017-02-11T07:26:43Z</time>
      </trkpt>
      <trkpt lat="42.475896000" lon="-2.599582000">
        <ele>396.80</ele>
        <time>2017-02-11T07:26:44Z</time>
      </trkpt>
      <trkpt lat="42.475912000" lon="-2.599565000">
        <ele>396.80</ele>
        <time>2017-02-11T07:26:45Z</time>
      </trkpt>
      <trkpt lat="42.475929000" lon="-2.599548000">
        <ele>396.90</ele>
        <time>2017-02-11T07:26:46Z</time>
      </trkpt>
      <trkpt lat="42.475943000" lon="-2.599532000">
        <ele>397.20</ele>
        <time>2017-02-11T07:26:47Z</time>
      </trkpt>
      <trkpt lat="42.475960000" lon="-2.599516000">
        <ele>397.40</ele>
        <time>2017-02-11T07:26:48Z</time>
      </trkpt>
      <trkpt lat="42.475975000" lon="-2.599498000">
        <ele>397.70</ele>
        <time>2017-02-11T07:26:49Z</time>
      </trkpt>
      <trkpt lat="42.475990000" lon="-2.599484000">
        <ele>397.90</ele>
        <time>2017-02-11T07:26:50Z</time>
      </trkpt>
      <trkpt lat="42.476026000" lon="-2.599449000">
        <ele>398.10</ele>
        <time>2017-02-11T07:26:52Z</time>
      </trkpt>
      <trkpt lat="42.476044000" lon="-2.599432000">
        <ele>398.00</ele>
        <time>2017-02-11T07:26:53Z</time>
      </trkpt>
      <trkpt lat="42.476064000" lon="-2.599416000">
        <ele>398.00</ele>
        <time>2017-02-11T07:26:54Z</time>
      </trkpt>
      <trkpt lat="42.476082000" lon="-2.599400000">
        <ele>397.90</ele>
        <time>2017-02-11T07:26:55Z</time>
      </trkpt>
      <trkpt lat="42.476097000" lon="-2.599384000">
        <ele>397.90</ele>
        <time>2017-02-11T07:26:56Z</time>
      </trkpt>
      <trkpt lat="42.476115000" lon="-2.599371000">
        <ele>398.00</ele>
        <time>2017-02-11T07:26:57Z</time>
      </trkpt>
      <trkpt lat="42.476131000" lon="-2.599358000">
        <ele>398.10</ele>
        <time>2017-02-11T07:26:58Z</time>
      </trkpt>
      <trkpt lat="42.476148000" lon="-2.599345000">
        <ele>398.30</ele>
        <time>2017-02-11T07:26:59Z</time>
      </trkpt>
      <trkpt lat="42.476163000" lon="-2.599328000">
        <ele>398.40</ele>
        <time>2017-02-11T07:27:00Z</time>
      </trkpt>
      <trkpt lat="42.476180000" lon="-2.599311000">
        <ele>398.40</ele>
        <time>2017-02-11T07:27:01Z</time>
      </trkpt>
      <trkpt lat="42.476194000" lon="-2.599297000">
        <ele>398.50</ele>
        <time>2017-02-11T07:27:02Z</time>
      </trkpt>
      <trkpt lat="42.476213000" lon="-2.599281000">
        <ele>398.40</ele>
        <time>2017-02-11T07:27:03Z</time>
      </trkpt>
      <trkpt lat="42.476230000" lon="-2.599264000">
        <ele>398.30</ele>
        <time>2017-02-11T07:27:04Z</time>
      </trkpt>
      <trkpt lat="42.476247000" lon="-2.599249000">
        <ele>398.20</ele>
        <time>2017-02-11T07:27:05Z</time>
      </trkpt>
      <trkpt lat="42.476266000" lon="-2.599235000">
        <ele>398.10</ele>
        <time>2017-02-11T07:27:06Z</time>
      </trkpt>
      <trkpt lat="42.476285000" lon="-2.599220000">
        <ele>398.10</ele>
        <time>2017-02-11T07:27:07Z</time>
      </trkpt>
      <trkpt lat="42.476302000" lon="-2.599205000">
        <ele>398.10</ele>
        <time>2017-02-11T07:27:08Z</time>
      </trkpt>
      <trkpt lat="42.476320000" lon="-2.599192000">
        <ele>398.10</ele>
        <time>2017-02-11T07:27:09Z</time>
      </trkpt>
      <trkpt lat="42.476337000" lon="-2.599178000">
        <ele>398.10</ele>
        <time>2017-02-11T07:27:10Z</time>
      </trkpt>
      <trkpt lat="42.476353000" lon="-2.599160000">
        <ele>398.10</ele>
        <time>2017-02-11T07:27:11Z</time>
      </trkpt>
      <trkpt lat="42.476365000" lon="-2.599146000">
        <ele>398.10</ele>
        <time>2017-02-11T07:27:12Z</time>
      </trkpt>
      <trkpt lat="42.476381000" lon="-2.599129000">
        <ele>398.30</ele>
        <time>2017-02-11T07:27:13Z</time>
      </trkpt>
      <trkpt lat="42.476398000" lon="-2.599117000">
        <ele>398.50</ele>
        <time>2017-02-11T07:27:14Z</time>
      </trkpt>
      <trkpt lat="42.476415000" lon="-2.599103000">
        <ele>398.60</ele>
        <time>2017-02-11T07:27:15Z</time>
      </trkpt>
      <trkpt lat="42.476434000" lon="-2.599088000">
        <ele>398.70</ele>
        <time>2017-02-11T07:27:16Z</time>
      </trkpt>
      <trkpt lat="42.476454000" lon="-2.599072000">
        <ele>398.70</ele>
        <time>2017-02-11T07:27:17Z</time>
      </trkpt>
      <trkpt lat="42.476471000" lon="-2.599059000">
        <ele>398.80</ele>
        <time>2017-02-11T07:27:18Z</time>
      </trkpt>
      <trkpt lat="42.476489000" lon="-2.599046000">
        <ele>398.80</ele>
        <time>2017-02-11T07:27:19Z</time>
      </trkpt>
      <trkpt lat="42.476508000" lon="-2.599034000">
        <ele>398.90</ele>
        <time>2017-02-11T07:27:20Z</time>
      </trkpt>
      <trkpt lat="42.476527000" lon="-2.599016000">
        <ele>398.90</ele>
        <time>2017-02-11T07:27:21Z</time>
      </trkpt>
      <trkpt lat="42.476546000" lon="-2.599000000">
        <ele>398.90</ele>
        <time>2017-02-11T07:27:22Z</time>
      </trkpt>
      <trkpt lat="42.476568000" lon="-2.598982000">
        <ele>398.90</ele>
        <time>2017-02-11T07:27:23Z</time>
      </trkpt>
      <trkpt lat="42.476587000" lon="-2.598964000">
        <ele>398.90</ele>
        <time>2017-02-11T07:27:24Z</time>
      </trkpt>
      <trkpt lat="42.476609000" lon="-2.598946000">
        <ele>398.90</ele>
        <time>2017-02-11T07:27:25Z</time>
      </trkpt>
      <trkpt lat="42.476628000" lon="-2.598923000">
        <ele>398.90</ele>
        <time>2017-02-11T07:27:26Z</time>
      </trkpt>
      <trkpt lat="42.476650000" lon="-2.598903000">
        <ele>398.90</ele>
        <time>2017-02-11T07:27:27Z</time>
      </trkpt>
      <trkpt lat="42.476671000" lon="-2.598883000">
        <ele>398.90</ele>
        <time>2017-02-11T07:27:28Z</time>
      </trkpt>
      <trkpt lat="42.476693000" lon="-2.598865000">
        <ele>398.80</ele>
        <time>2017-02-11T07:27:29Z</time>
      </trkpt>
      <trkpt lat="42.476717000" lon="-2.598846000">
        <ele>398.70</ele>
        <time>2017-02-11T07:27:30Z</time>
      </trkpt>
      <trkpt lat="42.476738000" lon="-2.598827000">
        <ele>398.80</ele>
        <time>2017-02-11T07:27:31Z</time>
      </trkpt>
      <trkpt lat="42.476760000" lon="-2.598807000">
        <ele>398.80</ele>
        <time>2017-02-11T07:27:32Z</time>
      </trkpt>
      <trkpt lat="42.476779000" lon="-2.598784000">
        <ele>398.60</ele>
        <time>2017-02-11T07:27:33Z</time>
      </trkpt>
      <trkpt lat="42.476799000" lon="-2.598762000">
        <ele>398.50</ele>
        <time>2017-02-11T07:27:34Z</time>
      </trkpt>
      <trkpt lat="42.476825000" lon="-2.598746000">
        <ele>398.60</ele>
        <time>2017-02-11T07:27:35Z</time>
      </trkpt>
      <trkpt lat="42.476848000" lon="-2.598729000">
        <ele>398.60</ele>
        <time>2017-02-11T07:27:36Z</time>
      </trkpt>
      <trkpt lat="42.476867000" lon="-2.598715000">
        <ele>398.60</ele>
        <time>2017-02-11T07:27:37Z</time>
      </trkpt>
      <trkpt lat="42.476885000" lon="-2.598697000">
        <ele>398.70</ele>
        <time>2017-02-11T07:27:38Z</time>
      </trkpt>
      <trkpt lat="42.476903000" lon="-2.598675000">
        <ele>398.70</ele>
        <time>2017-02-11T07:27:39Z</time>
      </trkpt>
      <trkpt lat="42.476922000" lon="-2.598660000">
        <ele>398.70</ele>
        <time>2017-02-11T07:27:40Z</time>
      </trkpt>
      <trkpt lat="42.476943000" lon="-2.598639000">
        <ele>398.90</ele>
        <time>2017-02-11T07:27:41Z</time>
      </trkpt>
      <trkpt lat="42.476963000" lon="-2.598623000">
        <ele>399.00</ele>
        <time>2017-02-11T07:27:42Z</time>
      </trkpt>
      <trkpt lat="42.476985000" lon="-2.598605000">
        <ele>399.20</ele>
        <time>2017-02-11T07:27:43Z</time>
      </trkpt>
      <trkpt lat="42.477006000" lon="-2.598586000">
        <ele>399.30</ele>
        <time>2017-02-11T07:27:44Z</time>
      </trkpt>
      <trkpt lat="42.477025000" lon="-2.598570000">
        <ele>399.30</ele>
        <time>2017-02-11T07:27:45Z</time>
      </trkpt>
      <trkpt lat="42.477042000" lon="-2.598553000">
        <ele>399.30</ele>
        <time>2017-02-11T07:27:46Z</time>
      </trkpt>
      <trkpt lat="42.477062000" lon="-2.598532000">
        <ele>399.40</ele>
        <time>2017-02-11T07:27:47Z</time>
      </trkpt>
      <trkpt lat="42.477080000" lon="-2.598516000">
        <ele>399.40</ele>
        <time>2017-02-11T07:27:48Z</time>
      </trkpt>
      <trkpt lat="42.477100000" lon="-2.598495000">
        <ele>399.40</ele>
        <time>2017-02-11T07:27:49Z</time>
      </trkpt>
      <trkpt lat="42.477121000" lon="-2.598477000">
        <ele>399.50</ele>
        <time>2017-02-11T07:27:50Z</time>
      </trkpt>
      <trkpt lat="42.477144000" lon="-2.598462000">
        <ele>399.50</ele>
        <time>2017-02-11T07:27:51Z</time>
      </trkpt>
      <trkpt lat="42.477184000" lon="-2.598417000">
        <ele>399.50</ele>
        <time>2017-02-11T07:27:53Z</time>
      </trkpt>
      <trkpt lat="42.477204000" lon="-2.598395000">
        <ele>399.50</ele>
        <time>2017-02-11T07:27:54Z</time>
      </trkpt>
      <trkpt lat="42.477229000" lon="-2.598377000">
        <ele>399.50</ele>
        <time>2017-02-11T07:27:55Z</time>
      </trkpt>
      <trkpt lat="42.477255000" lon="-2.598364000">
        <ele>399.50</ele>
        <time>2017-02-11T07:27:56Z</time>
      </trkpt>
      <trkpt lat="42.477279000" lon="-2.598355000">
        <ele>399.60</ele>
        <time>2017-02-11T07:27:57Z</time>
      </trkpt>
      <trkpt lat="42.477307000" lon="-2.598361000">
        <ele>399.70</ele>
        <time>2017-02-11T07:27:58Z</time>
      </trkpt>
      <trkpt lat="42.477333000" lon="-2.598372000">
        <ele>399.80</ele>
        <time>2017-02-11T07:27:59Z</time>
      </trkpt>
      <trkpt lat="42.477360000" lon="-2.598389000">
        <ele>399.80</ele>
        <time>2017-02-11T07:28:00Z</time>
      </trkpt>
      <trkpt lat="42.477389000" lon="-2.598411000">
        <ele>400.10</ele>
        <time>2017-02-11T07:28:01Z</time>
      </trkpt>
      <trkpt lat="42.477419000" lon="-2.598430000">
        <ele>400.20</ele>
        <time>2017-02-11T07:28:02Z</time>
      </trkpt>
      <trkpt lat="42.477450000" lon="-2.598449000">
        <ele>400.20</ele>
        <time>2017-02-11T07:28:03Z</time>
      </trkpt>
      <trkpt lat="42.477484000" lon="-2.598464000">
        <ele>400.10</ele>
        <time>2017-02-11T07:28:04Z</time>
      </trkpt>
      <trkpt lat="42.477517000" lon="-2.598476000">
        <ele>400.10</ele>
        <time>2017-02-11T07:28:05Z</time>
      </trkpt>
      <trkpt lat="42.477552000" lon="-2.598487000">
        <ele>400.10</ele>
        <time>2017-02-11T07:28:06Z</time>
      </trkpt>
      <trkpt lat="42.477585000" lon="-2.598502000">
        <ele>399.90</ele>
        <time>2017-02-11T07:28:07Z</time>
      </trkpt>
      <trkpt lat="42.477613000" lon="-2.598523000">
        <ele>399.80</ele>
        <time>2017-02-11T07:28:08Z</time>
      </trkpt>
      <trkpt lat="42.477642000" lon="-2.598545000">
        <ele>399.70</ele>
        <time>2017-02-11T07:28:09Z</time>
      </trkpt>
      <trkpt lat="42.477673000" lon="-2.598564000">
        <ele>399.60</ele>
        <time>2017-02-11T07:28:10Z</time>
      </trkpt>
      <trkpt lat="42.477704000" lon="-2.598574000">
        <ele>399.50</ele>
        <time>2017-02-11T07:28:11Z</time>
      </trkpt>
      <trkpt lat="42.477734000" lon="-2.598584000">
        <ele>399.40</ele>
        <time>2017-02-11T07:28:12Z</time>
      </trkpt>
      <trkpt lat="42.477766000" lon="-2.598598000">
        <ele>399.40</ele>
        <time>2017-02-11T07:28:13Z</time>
      </trkpt>
      <trkpt lat="42.477798000" lon="-2.598613000">
        <ele>399.30</ele>
        <time>2017-02-11T07:28:14Z</time>
      </trkpt>
      <trkpt lat="42.477829000" lon="-2.598628000">
        <ele>399.30</ele>
        <time>2017-02-11T07:28:15Z</time>
      </trkpt>
      <trkpt lat="42.477857000" lon="-2.598646000">
        <ele>399.30</ele>
        <time>2017-02-11T07:28:16Z</time>
      </trkpt>
      <trkpt lat="42.477886000" lon="-2.598661000">
        <ele>399.30</ele>
        <time>2017-02-11T07:28:17Z</time>
      </trkpt>
      <trkpt lat="42.477916000" lon="-2.598671000">
        <ele>399.20</ele>
        <time>2017-02-11T07:28:18Z</time>
      </trkpt>
      <trkpt lat="42.477947000" lon="-2.598685000">
        <ele>399.20</ele>
        <time>2017-02-11T07:28:19Z</time>
      </trkpt>
      <trkpt lat="42.477978000" lon="-2.598702000">
        <ele>399.20</ele>
        <time>2017-02-11T07:28:20Z</time>
      </trkpt>
      <trkpt lat="42.478008000" lon="-2.598720000">
        <ele>399.20</ele>
        <time>2017-02-11T07:28:21Z</time>
      </trkpt>
      <trkpt lat="42.478037000" lon="-2.598736000">
        <ele>399.20</ele>
        <time>2017-02-11T07:28:22Z</time>
      </trkpt>
      <trkpt lat="42.478071000" lon="-2.598752000">
        <ele>399.20</ele>
        <time>2017-02-11T07:28:23Z</time>
      </trkpt>
      <trkpt lat="42.478101000" lon="-2.598765000">
        <ele>399.20</ele>
        <time>2017-02-11T07:28:24Z</time>
      </trkpt>
      <trkpt lat="42.478132000" lon="-2.598782000">
        <ele>399.30</ele>
        <time>2017-02-11T07:28:25Z</time>
      </trkpt>
      <trkpt lat="42.478163000" lon="-2.598799000">
        <ele>399.30</ele>
        <time>2017-02-11T07:28:26Z</time>
      </trkpt>
      <trkpt lat="42.478196000" lon="-2.598814000">
        <ele>399.40</ele>
        <time>2017-02-11T07:28:27Z</time>
      </trkpt>
      <trkpt lat="42.478227000" lon="-2.598832000">
        <ele>399.50</ele>
        <time>2017-02-11T07:28:28Z</time>
      </trkpt>
      <trkpt lat="42.478259000" lon="-2.598850000">
        <ele>399.50</ele>
        <time>2017-02-11T07:28:29Z</time>
      </trkpt>
      <trkpt lat="42.478290000" lon="-2.598864000">
        <ele>399.60</ele>
        <time>2017-02-11T07:28:30Z</time>
      </trkpt>
      <trkpt lat="42.478321000" lon="-2.598877000">
        <ele>399.60</ele>
        <time>2017-02-11T07:28:31Z</time>
      </trkpt>
      <trkpt lat="42.478352000" lon="-2.598895000">
        <ele>399.60</ele>
        <time>2017-02-11T07:28:32Z</time>
      </trkpt>
      <trkpt lat="42.478383000" lon="-2.598910000">
        <ele>399.70</ele>
        <time>2017-02-11T07:28:33Z</time>
      </trkpt>
      <trkpt lat="42.478416000" lon="-2.598924000">
        <ele>399.70</ele>
        <time>2017-02-11T07:28:34Z</time>
      </trkpt>
      <trkpt lat="42.478450000" lon="-2.598935000">
        <ele>399.70</ele>
        <time>2017-02-11T07:28:35Z</time>
      </trkpt>
      <trkpt lat="42.478483000" lon="-2.598950000">
        <ele>399.60</ele>
        <time>2017-02-11T07:28:36Z</time>
      </trkpt>
      <trkpt lat="42.478514000" lon="-2.598968000">
        <ele>399.60</ele>
        <time>2017-02-11T07:28:37Z</time>
      </trkpt>
      <trkpt lat="42.478547000" lon="-2.598991000">
        <ele>399.60</ele>
        <time>2017-02-11T07:28:38Z</time>
      </trkpt>
      <trkpt lat="42.478582000" lon="-2.599009000">
        <ele>399.60</ele>
        <time>2017-02-11T07:28:39Z</time>
      </trkpt>
      <trkpt lat="42.478614000" lon="-2.599027000">
        <ele>399.70</ele>
        <time>2017-02-11T07:28:40Z</time>
      </trkpt>
      <trkpt lat="42.478647000" lon="-2.599043000">
        <ele>399.80</ele>
        <time>2017-02-11T07:28:41Z</time>
      </trkpt>
      <trkpt lat="42.478679000" lon="-2.599061000">
        <ele>399.80</ele>
        <time>2017-02-11T07:28:42Z</time>
      </trkpt>
      <trkpt lat="42.478710000" lon="-2.599080000">
        <ele>399.90</ele>
        <time>2017-02-11T07:28:43Z</time>
      </trkpt>
      <trkpt lat="42.478744000" lon="-2.599096000">
        <ele>399.90</ele>
        <time>2017-02-11T07:28:44Z</time>
      </trkpt>
      <trkpt lat="42.478774000" lon="-2.599111000">
        <ele>399.90</ele>
        <time>2017-02-11T07:28:45Z</time>
      </trkpt>
      <trkpt lat="42.478806000" lon="-2.599126000">
        <ele>399.90</ele>
        <time>2017-02-11T07:28:46Z</time>
      </trkpt>
      <trkpt lat="42.478839000" lon="-2.599140000">
        <ele>399.90</ele>
        <time>2017-02-11T07:28:47Z</time>
      </trkpt>
      <trkpt lat="42.478870000" lon="-2.599154000">
        <ele>399.90</ele>
        <time>2017-02-11T07:28:48Z</time>
      </trkpt>
      <trkpt lat="42.478905000" lon="-2.599168000">
        <ele>400.00</ele>
        <time>2017-02-11T07:28:49Z</time>
      </trkpt>
      <trkpt lat="42.478944000" lon="-2.599185000">
        <ele>400.10</ele>
        <time>2017-02-11T07:28:50Z</time>
      </trkpt>
      <trkpt lat="42.478979000" lon="-2.599194000">
        <ele>400.20</ele>
        <time>2017-02-11T07:28:51Z</time>
      </trkpt>
      <trkpt lat="42.479013000" lon="-2.599206000">
        <ele>400.30</ele>
        <time>2017-02-11T07:28:52Z</time>
      </trkpt>
      <trkpt lat="42.479080000" lon="-2.599223000">
        <ele>400.60</ele>
        <time>2017-02-11T07:28:54Z</time>
      </trkpt>
      <trkpt lat="42.479110000" lon="-2.599221000">
        <ele>400.80</ele>
        <time>2017-02-11T07:28:55Z</time>
      </trkpt>
      <trkpt lat="42.479136000" lon="-2.599215000">
        <ele>401.00</ele>
        <time>2017-02-11T07:28:56Z</time>
      </trkpt>
      <trkpt lat="42.479164000" lon="-2.599196000">
        <ele>401.10</ele>
        <time>2017-02-11T07:28:57Z</time>
      </trkpt>
      <trkpt lat="42.479191000" lon="-2.599166000">
        <ele>400.90</ele>
        <time>2017-02-11T07:28:58Z</time>
      </trkpt>
      <trkpt lat="42.479219000" lon="-2.599139000">
        <ele>400.80</ele>
        <time>2017-02-11T07:28:59Z</time>
      </trkpt>
      <trkpt lat="42.479242000" lon="-2.599105000">
        <ele>400.70</ele>
        <time>2017-02-11T07:29:00Z</time>
      </trkpt>
      <trkpt lat="42.479263000" lon="-2.599068000">
        <ele>400.60</ele>
        <time>2017-02-11T07:29:01Z</time>
      </trkpt>
      <trkpt lat="42.479286000" lon="-2.599031000">
        <ele>400.60</ele>
        <time>2017-02-11T07:29:02Z</time>
      </trkpt>
      <trkpt lat="42.479308000" lon="-2.598995000">
        <ele>400.60</ele>
        <time>2017-02-11T07:29:03Z</time>
      </trkpt>
      <trkpt lat="42.479333000" lon="-2.598958000">
        <ele>400.70</ele>
        <time>2017-02-11T07:29:04Z</time>
      </trkpt>
      <trkpt lat="42.479360000" lon="-2.598929000">
        <ele>400.70</ele>
        <time>2017-02-11T07:29:05Z</time>
      </trkpt>
      <trkpt lat="42.479386000" lon="-2.598903000">
        <ele>400.70</ele>
        <time>2017-02-11T07:29:06Z</time>
      </trkpt>
      <trkpt lat="42.479412000" lon="-2.598884000">
        <ele>400.60</ele>
        <time>2017-02-11T07:29:07Z</time>
      </trkpt>
      <trkpt lat="42.479440000" lon="-2.598872000">
        <ele>400.70</ele>
        <time>2017-02-11T07:29:08Z</time>
      </trkpt>
      <trkpt lat="42.479474000" lon="-2.598873000">
        <ele>400.80</ele>
        <time>2017-02-11T07:29:09Z</time>
      </trkpt>
      <trkpt lat="42.479508000" lon="-2.598872000">
        <ele>400.80</ele>
        <time>2017-02-11T07:29:10Z</time>
      </trkpt>
      <trkpt lat="42.479545000" lon="-2.598870000">
        <ele>400.80</ele>
        <time>2017-02-11T07:29:11Z</time>
      </trkpt>
      <trkpt lat="42.479579000" lon="-2.598876000">
        <ele>400.90</ele>
        <time>2017-02-11T07:29:12Z</time>
      </trkpt>
      <trkpt lat="42.479614000" lon="-2.598884000">
        <ele>400.90</ele>
        <time>2017-02-11T07:29:13Z</time>
      </trkpt>
      <trkpt lat="42.479650000" lon="-2.598892000">
        <ele>401.00</ele>
        <time>2017-02-11T07:29:14Z</time>
      </trkpt>
      <trkpt lat="42.479685000" lon="-2.598894000">
        <ele>401.10</ele>
        <time>2017-02-11T07:29:15Z</time>
      </trkpt>
      <trkpt lat="42.479720000" lon="-2.598900000">
        <ele>401.10</ele>
        <time>2017-02-11T07:29:16Z</time>
      </trkpt>
      <trkpt lat="42.479756000" lon="-2.598904000">
        <ele>401.10</ele>
        <time>2017-02-11T07:29:17Z</time>
      </trkpt>
      <trkpt lat="42.479791000" lon="-2.598910000">
        <ele>401.20</ele>
        <time>2017-02-11T07:29:18Z</time>
      </trkpt>
      <trkpt lat="42.479826000" lon="-2.598913000">
        <ele>401.20</ele>
        <time>2017-02-11T07:29:19Z</time>
      </trkpt>
      <trkpt lat="42.479859000" lon="-2.598918000">
        <ele>401.30</ele>
        <time>2017-02-11T07:29:20Z</time>
      </trkpt>
      <trkpt lat="42.479893000" lon="-2.598917000">
        <ele>401.40</ele>
        <time>2017-02-11T07:29:21Z</time>
      </trkpt>
      <trkpt lat="42.479928000" lon="-2.598921000">
        <ele>401.40</ele>
        <time>2017-02-11T07:29:22Z</time>
      </trkpt>
      <trkpt lat="42.479962000" lon="-2.598920000">
        <ele>401.40</ele>
        <time>2017-02-11T07:29:23Z</time>
      </trkpt>
      <trkpt lat="42.479997000" lon="-2.598922000">
        <ele>401.50</ele>
        <time>2017-02-11T07:29:24Z</time>
      </trkpt>
      <trkpt lat="42.480032000" lon="-2.598920000">
        <ele>401.50</ele>
        <time>2017-02-11T07:29:25Z</time>
      </trkpt>
      <trkpt lat="42.480066000" lon="-2.598911000">
        <ele>401.40</ele>
        <time>2017-02-11T07:29:26Z</time>
      </trkpt>
      <trkpt lat="42.480101000" lon="-2.598905000">
        <ele>401.30</ele>
        <time>2017-02-11T07:29:27Z</time>
      </trkpt>
      <trkpt lat="42.480136000" lon="-2.598904000">
        <ele>401.20</ele>
        <time>2017-02-11T07:29:28Z</time>
      </trkpt>
      <trkpt lat="42.480172000" lon="-2.598898000">
        <ele>401.20</ele>
        <time>2017-02-11T07:29:29Z</time>
      </trkpt>
      <trkpt lat="42.480209000" lon="-2.598890000">
        <ele>401.20</ele>
        <time>2017-02-11T07:29:30Z</time>
      </trkpt>
      <trkpt lat="42.480244000" lon="-2.598886000">
        <ele>401.20</ele>
        <time>2017-02-11T07:29:31Z</time>
      </trkpt>
      <trkpt lat="42.480279000" lon="-2.598879000">
        <ele>401.30</ele>
        <time>2017-02-11T07:29:32Z</time>
      </trkpt>
      <trkpt lat="42.480313000" lon="-2.598869000">
        <ele>401.30</ele>
        <time>2017-02-11T07:29:33Z</time>
      </trkpt>
      <trkpt lat="42.480346000" lon="-2.598858000">
        <ele>401.50</ele>
        <time>2017-02-11T07:29:34Z</time>
      </trkpt>
      <trkpt lat="42.480382000" lon="-2.598850000">
        <ele>401.50</ele>
        <time>2017-02-11T07:29:35Z</time>
      </trkpt>
      <trkpt lat="42.480414000" lon="-2.598840000">
        <ele>401.60</ele>
        <time>2017-02-11T07:29:36Z</time>
      </trkpt>
      <trkpt lat="42.480450000" lon="-2.598835000">
        <ele>401.70</ele>
        <time>2017-02-11T07:29:37Z</time>
      </trkpt>
      <trkpt lat="42.480488000" lon="-2.598824000">
        <ele>401.50</ele>
        <time>2017-02-11T07:29:38Z</time>
      </trkpt>
      <trkpt lat="42.480520000" lon="-2.598814000">
        <ele>401.40</ele>
        <time>2017-02-11T07:29:39Z</time>
      </trkpt>
      <trkpt lat="42.480551000" lon="-2.598807000">
        <ele>401.30</ele>
        <time>2017-02-11T07:29:40Z</time>
      </trkpt>
      <trkpt lat="42.480586000" lon="-2.598801000">
        <ele>401.20</ele>
        <time>2017-02-11T07:29:41Z</time>
      </trkpt>
      <trkpt lat="42.480619000" lon="-2.598792000">
        <ele>401.20</ele>
        <time>2017-02-11T07:29:42Z</time>
      </trkpt>
      <trkpt lat="42.480652000" lon="-2.598787000">
        <ele>401.10</ele>
        <time>2017-02-11T07:29:43Z</time>
      </trkpt>
      <trkpt lat="42.480684000" lon="-2.598786000">
        <ele>401.20</ele>
        <time>2017-02-11T07:29:44Z</time>
      </trkpt>
      <trkpt lat="42.480717000" lon="-2.598776000">
        <ele>401.30</ele>
        <time>2017-02-11T07:29:45Z</time>
      </trkpt>
      <trkpt lat="42.480743000" lon="-2.598763000">
        <ele>401.40</ele>
        <time>2017-02-11T07:29:46Z</time>
      </trkpt>
      <trkpt lat="42.480769000" lon="-2.598754000">
        <ele>401.40</ele>
        <time>2017-02-11T07:29:47Z</time>
      </trkpt>
      <trkpt lat="42.480795000" lon="-2.598750000">
        <ele>401.50</ele>
        <time>2017-02-11T07:29:48Z</time>
      </trkpt>
      <trkpt lat="42.480821000" lon="-2.598748000">
        <ele>401.60</ele>
        <time>2017-02-11T07:29:49Z</time>
      </trkpt>
      <trkpt lat="42.480849000" lon="-2.598745000">
        <ele>401.60</ele>
        <time>2017-02-11T07:29:50Z</time>
      </trkpt>
      <trkpt lat="42.480879000" lon="-2.598739000">
        <ele>401.70</ele>
        <time>2017-02-11T07:29:51Z</time>
      </trkpt>
      <trkpt lat="42.480906000" lon="-2.598737000">
        <ele>401.70</ele>
        <time>2017-02-11T07:29:52Z</time>
      </trkpt>
      <trkpt lat="42.480937000" lon="-2.598736000">
        <ele>401.70</ele>
        <time>2017-02-11T07:29:53Z</time>
      </trkpt>
      <trkpt lat="42.480995000" lon="-2.598729000">
        <ele>401.60</ele>
        <time>2017-02-11T07:29:55Z</time>
      </trkpt>
      <trkpt lat="42.481023000" lon="-2.598730000">
        <ele>401.60</ele>
        <time>2017-02-11T07:29:56Z</time>
      </trkpt>
      <trkpt lat="42.481053000" lon="-2.598725000">
        <ele>401.60</ele>
        <time>2017-02-11T07:29:57Z</time>
      </trkpt>
      <trkpt lat="42.481082000" lon="-2.598721000">
        <ele>401.50</ele>
        <time>2017-02-11T07:29:58Z</time>
      </trkpt>
      <trkpt lat="42.481112000" lon="-2.598722000">
        <ele>401.50</ele>
        <time>2017-02-11T07:29:59Z</time>
      </trkpt>
      <trkpt lat="42.481142000" lon="-2.598725000">
        <ele>401.50</ele>
        <time>2017-02-11T07:30:00Z</time>
      </trkpt>
      <trkpt lat="42.481171000" lon="-2.598725000">
        <ele>401.50</ele>
        <time>2017-02-11T07:30:01Z</time>
      </trkpt>
      <trkpt lat="42.481200000" lon="-2.598724000">
        <ele>401.60</ele>
        <time>2017-02-11T07:30:02Z</time>
      </trkpt>
      <trkpt lat="42.481226000" lon="-2.598727000">
        <ele>401.60</ele>
        <time>2017-02-11T07:30:03Z</time>
      </trkpt>
      <trkpt lat="42.481254000" lon="-2.598730000">
        <ele>401.80</ele>
        <time>2017-02-11T07:30:04Z</time>
      </trkpt>
      <trkpt lat="42.481282000" lon="-2.598729000">
        <ele>401.90</ele>
        <time>2017-02-11T07:30:05Z</time>
      </trkpt>
      <trkpt lat="42.481312000" lon="-2.598729000">
        <ele>402.10</ele>
        <time>2017-02-11T07:30:06Z</time>
      </trkpt>
      <trkpt lat="42.481340000" lon="-2.598728000">
        <ele>402.20</ele>
        <time>2017-02-11T07:30:07Z</time>
      </trkpt>
      <trkpt lat="42.481370000" lon="-2.598729000">
        <ele>402.30</ele>
        <time>2017-02-11T07:30:08Z</time>
      </trkpt>
      <trkpt lat="42.481395000" lon="-2.598737000">
        <ele>402.40</ele>
        <time>2017-02-11T07:30:09Z</time>
      </trkpt>
      <trkpt lat="42.481423000" lon="-2.598738000">
        <ele>402.20</ele>
        <time>2017-02-11T07:30:10Z</time>
      </trkpt>
      <trkpt lat="42.481451000" lon="-2.598733000">
        <ele>402.10</ele>
        <time>2017-02-11T07:30:11Z</time>
      </trkpt>
      <trkpt lat="42.481481000" lon="-2.598732000">
        <ele>402.00</ele>
        <time>2017-02-11T07:30:12Z</time>
      </trkpt>
      <trkpt lat="42.481512000" lon="-2.598731000">
        <ele>402.00</ele>
        <time>2017-02-11T07:30:13Z</time>
      </trkpt>
      <trkpt lat="42.481543000" lon="-2.598736000">
        <ele>401.90</ele>
        <time>2017-02-11T07:30:14Z</time>
      </trkpt>
      <trkpt lat="42.481576000" lon="-2.598739000">
        <ele>401.80</ele>
        <time>2017-02-11T07:30:15Z</time>
      </trkpt>
      <trkpt lat="42.481610000" lon="-2.598735000">
        <ele>401.80</ele>
        <time>2017-02-11T07:30:16Z</time>
      </trkpt>
      <trkpt lat="42.481641000" lon="-2.598733000">
        <ele>401.80</ele>
        <time>2017-02-11T07:30:17Z</time>
      </trkpt>
      <trkpt lat="42.481670000" lon="-2.598735000">
        <ele>401.70</ele>
        <time>2017-02-11T07:30:18Z</time>
      </trkpt>
      <trkpt lat="42.481700000" lon="-2.598729000">
        <ele>401.70</ele>
        <time>2017-02-11T07:30:19Z</time>
      </trkpt>
      <trkpt lat="42.481732000" lon="-2.598721000">
        <ele>401.70</ele>
        <time>2017-02-11T07:30:20Z</time>
      </trkpt>
      <trkpt lat="42.481762000" lon="-2.598718000">
        <ele>401.70</ele>
        <time>2017-02-11T07:30:21Z</time>
      </trkpt>
      <trkpt lat="42.481791000" lon="-2.598719000">
        <ele>401.60</ele>
        <time>2017-02-11T07:30:22Z</time>
      </trkpt>
      <trkpt lat="42.481820000" lon="-2.598715000">
        <ele>401.50</ele>
        <time>2017-02-11T07:30:23Z</time>
      </trkpt>
      <trkpt lat="42.481848000" lon="-2.598707000">
        <ele>401.60</ele>
        <time>2017-02-11T07:30:24Z</time>
      </trkpt>
      <trkpt lat="42.481878000" lon="-2.598704000">
        <ele>401.60</ele>
        <time>2017-02-11T07:30:25Z</time>
      </trkpt>
      <trkpt lat="42.481908000" lon="-2.598697000">
        <ele>401.70</ele>
        <time>2017-02-11T07:30:26Z</time>
      </trkpt>
      <trkpt lat="42.481939000" lon="-2.598694000">
        <ele>401.70</ele>
        <time>2017-02-11T07:30:27Z</time>
      </trkpt>
      <trkpt lat="42.481970000" lon="-2.598691000">
        <ele>401.90</ele>
        <time>2017-02-11T07:30:28Z</time>
      </trkpt>
      <trkpt lat="42.482000000" lon="-2.598687000">
        <ele>402.10</ele>
        <time>2017-02-11T07:30:29Z</time>
      </trkpt>
      <trkpt lat="42.482029000" lon="-2.598677000">
        <ele>402.20</ele>
        <time>2017-02-11T07:30:30Z</time>
      </trkpt>
      <trkpt lat="42.482057000" lon="-2.598671000">
        <ele>402.30</ele>
        <time>2017-02-11T07:30:31Z</time>
      </trkpt>
      <trkpt lat="42.482082000" lon="-2.598665000">
        <ele>402.40</ele>
        <time>2017-02-11T07:30:32Z</time>
      </trkpt>
      <trkpt lat="42.482107000" lon="-2.598650000">
        <ele>402.40</ele>
        <time>2017-02-11T07:30:33Z</time>
      </trkpt>
      <trkpt lat="42.482130000" lon="-2.598640000">
        <ele>402.50</ele>
        <time>2017-02-11T07:30:34Z</time>
      </trkpt>
      <trkpt lat="42.482153000" lon="-2.598626000">
        <ele>402.50</ele>
        <time>2017-02-11T07:30:35Z</time>
      </trkpt>
      <trkpt lat="42.482176000" lon="-2.598618000">
        <ele>402.60</ele>
        <time>2017-02-11T07:30:36Z</time>
      </trkpt>
      <trkpt lat="42.482201000" lon="-2.598612000">
        <ele>402.60</ele>
        <time>2017-02-11T07:30:37Z</time>
      </trkpt>
      <trkpt lat="42.482225000" lon="-2.598602000">
        <ele>402.80</ele>
        <time>2017-02-11T07:30:38Z</time>
      </trkpt>
      <trkpt lat="42.482248000" lon="-2.598591000">
        <ele>402.90</ele>
        <time>2017-02-11T07:30:39Z</time>
      </trkpt>
      <trkpt lat="42.482270000" lon="-2.598580000">
        <ele>403.00</ele>
        <time>2017-02-11T07:30:40Z</time>
      </trkpt>
      <trkpt lat="42.482290000" lon="-2.598569000">
        <ele>403.10</ele>
        <time>2017-02-11T07:30:41Z</time>
      </trkpt>
      <trkpt lat="42.482310000" lon="-2.598559000">
        <ele>403.20</ele>
        <time>2017-02-11T07:30:42Z</time>
      </trkpt>
      <trkpt lat="42.482335000" lon="-2.598553000">
        <ele>403.20</ele>
        <time>2017-02-11T07:30:43Z</time>
      </trkpt>
      <trkpt lat="42.482360000" lon="-2.598538000">
        <ele>403.40</ele>
        <time>2017-02-11T07:30:44Z</time>
      </trkpt>
      <trkpt lat="42.482383000" lon="-2.598522000">
        <ele>403.50</ele>
        <time>2017-02-11T07:30:45Z</time>
      </trkpt>
      <trkpt lat="42.482404000" lon="-2.598507000">
        <ele>403.50</ele>
        <time>2017-02-11T07:30:46Z</time>
      </trkpt>
      <trkpt lat="42.482426000" lon="-2.598490000">
        <ele>403.60</ele>
        <time>2017-02-11T07:30:47Z</time>
      </trkpt>
      <trkpt lat="42.482445000" lon="-2.598478000">
        <ele>403.60</ele>
        <time>2017-02-11T07:30:48Z</time>
      </trkpt>
      <trkpt lat="42.482468000" lon="-2.598462000">
        <ele>403.60</ele>
        <time>2017-02-11T07:30:49Z</time>
      </trkpt>
      <trkpt lat="42.482492000" lon="-2.598451000">
        <ele>403.60</ele>
        <time>2017-02-11T07:30:50Z</time>
      </trkpt>
      <trkpt lat="42.482517000" lon="-2.598439000">
        <ele>403.50</ele>
        <time>2017-02-11T07:30:51Z</time>
      </trkpt>
      <trkpt lat="42.482542000" lon="-2.598429000">
        <ele>403.50</ele>
        <time>2017-02-11T07:30:52Z</time>
      </trkpt>
      <trkpt lat="42.482568000" lon="-2.598416000">
        <ele>403.50</ele>
        <time>2017-02-11T07:30:53Z</time>
      </trkpt>
      <trkpt lat="42.482591000" lon="-2.598402000">
        <ele>403.60</ele>
        <time>2017-02-11T07:30:54Z</time>
      </trkpt>
      <trkpt lat="42.482642000" lon="-2.598381000">
        <ele>403.60</ele>
        <time>2017-02-11T07:30:56Z</time>
      </trkpt>
      <trkpt lat="42.482665000" lon="-2.598367000">
        <ele>403.60</ele>
        <time>2017-02-11T07:30:57Z</time>
      </trkpt>
      <trkpt lat="42.482689000" lon="-2.598349000">
        <ele>403.60</ele>
        <time>2017-02-11T07:30:58Z</time>
      </trkpt>
      <trkpt lat="42.482715000" lon="-2.598338000">
        <ele>403.70</ele>
        <time>2017-02-11T07:30:59Z</time>
      </trkpt>
      <trkpt lat="42.482742000" lon="-2.598329000">
        <ele>403.80</ele>
        <time>2017-02-11T07:31:00Z</time>
      </trkpt>
      <trkpt lat="42.482768000" lon="-2.598321000">
        <ele>403.80</ele>
        <time>2017-02-11T07:31:01Z</time>
      </trkpt>
      <trkpt lat="42.482790000" lon="-2.598307000">
        <ele>403.90</ele>
        <time>2017-02-11T07:31:02Z</time>
      </trkpt>
      <trkpt lat="42.482817000" lon="-2.598296000">
        <ele>403.90</ele>
        <time>2017-02-11T07:31:03Z</time>
      </trkpt>
      <trkpt lat="42.482842000" lon="-2.598291000">
        <ele>404.00</ele>
        <time>2017-02-11T07:31:04Z</time>
      </trkpt>
      <trkpt lat="42.482870000" lon="-2.598279000">
        <ele>404.00</ele>
        <time>2017-02-11T07:31:05Z</time>
      </trkpt>
      <trkpt lat="42.482899000" lon="-2.598274000">
        <ele>404.00</ele>
        <time>2017-02-11T07:31:06Z</time>
      </trkpt>
      <trkpt lat="42.482929000" lon="-2.598270000">
        <ele>404.00</ele>
        <time>2017-02-11T07:31:07Z</time>
      </trkpt>
      <trkpt lat="42.482965000" lon="-2.598267000">
        <ele>404.10</ele>
        <time>2017-02-11T07:31:08Z</time>
      </trkpt>
      <trkpt lat="42.482995000" lon="-2.598257000">
        <ele>404.20</ele>
        <time>2017-02-11T07:31:09Z</time>
      </trkpt>
      <trkpt lat="42.483021000" lon="-2.598252000">
        <ele>404.30</ele>
        <time>2017-02-11T07:31:10Z</time>
      </trkpt>
      <trkpt lat="42.483048000" lon="-2.598241000">
        <ele>404.40</ele>
        <time>2017-02-11T07:31:11Z</time>
      </trkpt>
      <trkpt lat="42.483072000" lon="-2.598233000">
        <ele>404.20</ele>
        <time>2017-02-11T07:31:12Z</time>
      </trkpt>
      <trkpt lat="42.483098000" lon="-2.598225000">
        <ele>404.10</ele>
        <time>2017-02-11T07:31:13Z</time>
      </trkpt>
      <trkpt lat="42.483122000" lon="-2.598206000">
        <ele>404.00</ele>
        <time>2017-02-11T07:31:14Z</time>
      </trkpt>
      <trkpt lat="42.483145000" lon="-2.598189000">
        <ele>404.00</ele>
        <time>2017-02-11T07:31:15Z</time>
      </trkpt>
      <trkpt lat="42.483172000" lon="-2.598170000">
        <ele>403.90</ele>
        <time>2017-02-11T07:31:16Z</time>
      </trkpt>
      <trkpt lat="42.483198000" lon="-2.598157000">
        <ele>403.90</ele>
        <time>2017-02-11T07:31:17Z</time>
      </trkpt>
      <trkpt lat="42.483222000" lon="-2.598135000">
        <ele>404.10</ele>
        <time>2017-02-11T07:31:18Z</time>
      </trkpt>
      <trkpt lat="42.483247000" lon="-2.598115000">
        <ele>404.20</ele>
        <time>2017-02-11T07:31:19Z</time>
      </trkpt>
      <trkpt lat="42.483273000" lon="-2.598100000">
        <ele>404.10</ele>
        <time>2017-02-11T07:31:20Z</time>
      </trkpt>
      <trkpt lat="42.483300000" lon="-2.598083000">
        <ele>404.10</ele>
        <time>2017-02-11T07:31:21Z</time>
      </trkpt>
      <trkpt lat="42.483328000" lon="-2.598068000">
        <ele>404.10</ele>
        <time>2017-02-11T07:31:22Z</time>
      </trkpt>
      <trkpt lat="42.483353000" lon="-2.598056000">
        <ele>404.10</ele>
        <time>2017-02-11T07:31:23Z</time>
      </trkpt>
      <trkpt lat="42.483383000" lon="-2.598044000">
        <ele>403.90</ele>
        <time>2017-02-11T07:31:24Z</time>
      </trkpt>
      <trkpt lat="42.483410000" lon="-2.598031000">
        <ele>403.80</ele>
        <time>2017-02-11T07:31:25Z</time>
      </trkpt>
      <trkpt lat="42.483440000" lon="-2.598021000">
        <ele>403.70</ele>
        <time>2017-02-11T07:31:26Z</time>
      </trkpt>
      <trkpt lat="42.483468000" lon="-2.598012000">
        <ele>403.60</ele>
        <time>2017-02-11T07:31:27Z</time>
      </trkpt>
      <trkpt lat="42.483497000" lon="-2.597997000">
        <ele>403.50</ele>
        <time>2017-02-11T07:31:28Z</time>
      </trkpt>
      <trkpt lat="42.483528000" lon="-2.597982000">
        <ele>403.50</ele>
        <time>2017-02-11T07:31:29Z</time>
      </trkpt>
      <trkpt lat="42.483559000" lon="-2.597966000">
        <ele>403.60</ele>
        <time>2017-02-11T07:31:30Z</time>
      </trkpt>
      <trkpt lat="42.483593000" lon="-2.597942000">
        <ele>403.80</ele>
        <time>2017-02-11T07:31:31Z</time>
      </trkpt>
      <trkpt lat="42.483625000" lon="-2.597917000">
        <ele>403.70</ele>
        <time>2017-02-11T07:31:32Z</time>
      </trkpt>
      <trkpt lat="42.483659000" lon="-2.597893000">
        <ele>403.60</ele>
        <time>2017-02-11T07:31:33Z</time>
      </trkpt>
      <trkpt lat="42.483694000" lon="-2.597864000">
        <ele>403.50</ele>
        <time>2017-02-11T07:31:34Z</time>
      </trkpt>
      <trkpt lat="42.483729000" lon="-2.597837000">
        <ele>403.40</ele>
        <time>2017-02-11T07:31:35Z</time>
      </trkpt>
      <trkpt lat="42.483765000" lon="-2.597811000">
        <ele>403.30</ele>
        <time>2017-02-11T07:31:36Z</time>
      </trkpt>
      <trkpt lat="42.483801000" lon="-2.597779000">
        <ele>403.20</ele>
        <time>2017-02-11T07:31:37Z</time>
      </trkpt>
      <trkpt lat="42.483837000" lon="-2.597752000">
        <ele>403.10</ele>
        <time>2017-02-11T07:31:38Z</time>
      </trkpt>
      <trkpt lat="42.483873000" lon="-2.597721000">
        <ele>402.90</ele>
        <time>2017-02-11T07:31:39Z</time>
      </trkpt>
      <trkpt lat="42.483908000" lon="-2.597694000">
        <ele>402.90</ele>
        <time>2017-02-11T07:31:40Z</time>
      </trkpt>
      <trkpt lat="42.483944000" lon="-2.597665000">
        <ele>402.80</ele>
        <time>2017-02-11T07:31:41Z</time>
      </trkpt>
      <trkpt lat="42.483986000" lon="-2.597630000">
        <ele>402.50</ele>
        <time>2017-02-11T07:31:42Z</time>
      </trkpt>
      <trkpt lat="42.484025000" lon="-2.597594000">
        <ele>402.20</ele>
        <time>2017-02-11T07:31:43Z</time>
      </trkpt>
      <trkpt lat="42.484062000" lon="-2.597554000">
        <ele>402.10</ele>
        <time>2017-02-11T07:31:44Z</time>
      </trkpt>
      <trkpt lat="42.484097000" lon="-2.597515000">
        <ele>401.90</ele>
        <time>2017-02-11T07:31:45Z</time>
      </trkpt>
      <trkpt lat="42.484133000" lon="-2.597473000">
        <ele>401.80</ele>
        <time>2017-02-11T07:31:46Z</time>
      </trkpt>
      <trkpt lat="42.484167000" lon="-2.597430000">
        <ele>401.80</ele>
        <time>2017-02-11T07:31:47Z</time>
      </trkpt>
      <trkpt lat="42.484207000" lon="-2.597380000">
        <ele>401.60</ele>
        <time>2017-02-11T07:31:48Z</time>
      </trkpt>
      <trkpt lat="42.484245000" lon="-2.597332000">
        <ele>401.40</ele>
        <time>2017-02-11T07:31:49Z</time>
      </trkpt>
      <trkpt lat="42.484283000" lon="-2.597285000">
        <ele>401.30</ele>
        <time>2017-02-11T07:31:50Z</time>
      </trkpt>
      <trkpt lat="42.484316000" lon="-2.597242000">
        <ele>401.20</ele>
        <time>2017-02-11T07:31:51Z</time>
      </trkpt>
      <trkpt lat="42.484348000" lon="-2.597201000">
        <ele>401.30</ele>
        <time>2017-02-11T07:31:52Z</time>
      </trkpt>
      <trkpt lat="42.484378000" lon="-2.597159000">
        <ele>401.40</ele>
        <time>2017-02-11T07:31:53Z</time>
      </trkpt>
      <trkpt lat="42.484407000" lon="-2.597121000">
        <ele>401.40</ele>
        <time>2017-02-11T07:31:54Z</time>
      </trkpt>
      <trkpt lat="42.484438000" lon="-2.597084000">
        <ele>401.40</ele>
        <time>2017-02-11T07:31:55Z</time>
      </trkpt>
      <trkpt lat="42.484497000" lon="-2.597013000">
        <ele>401.50</ele>
        <time>2017-02-11T07:31:57Z</time>
      </trkpt>
      <trkpt lat="42.484525000" lon="-2.596979000">
        <ele>401.60</ele>
        <time>2017-02-11T07:31:58Z</time>
      </trkpt>
      <trkpt lat="42.484554000" lon="-2.596942000">
        <ele>401.60</ele>
        <time>2017-02-11T07:31:59Z</time>
      </trkpt>
      <trkpt lat="42.484581000" lon="-2.596907000">
        <ele>401.80</ele>
        <time>2017-02-11T07:32:00Z</time>
      </trkpt>
      <trkpt lat="42.484609000" lon="-2.596870000">
        <ele>401.90</ele>
        <time>2017-02-11T07:32:01Z</time>
      </trkpt>
      <trkpt lat="42.484639000" lon="-2.596831000">
        <ele>402.00</ele>
        <time>2017-02-11T07:32:02Z</time>
      </trkpt>
      <trkpt lat="42.484667000" lon="-2.596794000">
        <ele>402.10</ele>
        <time>2017-02-11T07:32:03Z</time>
      </trkpt>
      <trkpt lat="42.484697000" lon="-2.596755000">
        <ele>402.10</ele>
        <time>2017-02-11T07:32:04Z</time>
      </trkpt>
      <trkpt lat="42.484725000" lon="-2.596715000">
        <ele>402.20</ele>
        <time>2017-02-11T07:32:05Z</time>
      </trkpt>
      <trkpt lat="42.484756000" lon="-2.596674000">
        <ele>402.30</ele>
        <time>2017-02-11T07:32:06Z</time>
      </trkpt>
      <trkpt lat="42.484784000" lon="-2.596631000">
        <ele>402.40</ele>
        <time>2017-02-11T07:32:07Z</time>
      </trkpt>
      <trkpt lat="42.484813000" lon="-2.596585000">
        <ele>402.50</ele>
        <time>2017-02-11T07:32:08Z</time>
      </trkpt>
      <trkpt lat="42.484843000" lon="-2.596539000">
        <ele>402.60</ele>
        <time>2017-02-11T07:32:09Z</time>
      </trkpt>
      <trkpt lat="42.484872000" lon="-2.596494000">
        <ele>402.60</ele>
        <time>2017-02-11T07:32:10Z</time>
      </trkpt>
      <trkpt lat="42.484901000" lon="-2.596448000">
        <ele>402.70</ele>
        <time>2017-02-11T07:32:11Z</time>
      </trkpt>
      <trkpt lat="42.484928000" lon="-2.596403000">
        <ele>402.60</ele>
        <time>2017-02-11T07:32:12Z</time>
      </trkpt>
      <trkpt lat="42.484957000" lon="-2.596359000">
        <ele>402.50</ele>
        <time>2017-02-11T07:32:13Z</time>
      </trkpt>
      <trkpt lat="42.484983000" lon="-2.596315000">
        <ele>402.50</ele>
        <time>2017-02-11T07:32:14Z</time>
      </trkpt>
      <trkpt lat="42.485007000" lon="-2.596275000">
        <ele>402.40</ele>
        <time>2017-02-11T07:32:15Z</time>
      </trkpt>
      <trkpt lat="42.485030000" lon="-2.596235000">
        <ele>402.50</ele>
        <time>2017-02-11T07:32:16Z</time>
      </trkpt>
      <trkpt lat="42.485052000" lon="-2.596196000">
        <ele>402.60</ele>
        <time>2017-02-11T07:32:17Z</time>
      </trkpt>
      <trkpt lat="42.485075000" lon="-2.596160000">
        <ele>402.70</ele>
        <time>2017-02-11T07:32:18Z</time>
      </trkpt>
      <trkpt lat="42.485102000" lon="-2.596128000">
        <ele>402.70</ele>
        <time>2017-02-11T07:32:19Z</time>
      </trkpt>
      <trkpt lat="42.485122000" lon="-2.596094000">
        <ele>402.90</ele>
        <time>2017-02-11T07:32:20Z</time>
      </trkpt>
      <trkpt lat="42.485142000" lon="-2.596058000">
        <ele>403.00</ele>
        <time>2017-02-11T07:32:21Z</time>
      </trkpt>
      <trkpt lat="42.485162000" lon="-2.596024000">
        <ele>403.10</ele>
        <time>2017-02-11T07:32:22Z</time>
      </trkpt>
      <trkpt lat="42.485181000" lon="-2.595992000">
        <ele>403.10</ele>
        <time>2017-02-11T07:32:23Z</time>
      </trkpt>
      <trkpt lat="42.485205000" lon="-2.595962000">
        <ele>403.20</ele>
        <time>2017-02-11T07:32:24Z</time>
      </trkpt>
      <trkpt lat="42.485227000" lon="-2.595932000">
        <ele>403.30</ele>
        <time>2017-02-11T07:32:25Z</time>
      </trkpt>
      <trkpt lat="42.485249000" lon="-2.595902000">
        <ele>403.50</ele>
        <time>2017-02-11T07:32:26Z</time>
      </trkpt>
      <trkpt lat="42.485270000" lon="-2.595870000">
        <ele>403.60</ele>
        <time>2017-02-11T07:32:27Z</time>
      </trkpt>
      <trkpt lat="42.485291000" lon="-2.595838000">
        <ele>403.90</ele>
        <time>2017-02-11T07:32:28Z</time>
      </trkpt>
      <trkpt lat="42.485311000" lon="-2.595809000">
        <ele>404.00</ele>
        <time>2017-02-11T07:32:29Z</time>
      </trkpt>
      <trkpt lat="42.485331000" lon="-2.595777000">
        <ele>404.40</ele>
        <time>2017-02-11T07:32:30Z</time>
      </trkpt>
      <trkpt lat="42.485351000" lon="-2.595748000">
        <ele>404.70</ele>
        <time>2017-02-11T07:32:31Z</time>
      </trkpt>
      <trkpt lat="42.485370000" lon="-2.595718000">
        <ele>404.90</ele>
        <time>2017-02-11T07:32:32Z</time>
      </trkpt>
      <trkpt lat="42.485386000" lon="-2.595691000">
        <ele>405.10</ele>
        <time>2017-02-11T07:32:33Z</time>
      </trkpt>
      <trkpt lat="42.485404000" lon="-2.595667000">
        <ele>405.20</ele>
        <time>2017-02-11T07:32:34Z</time>
      </trkpt>
      <trkpt lat="42.485421000" lon="-2.595645000">
        <ele>405.30</ele>
        <time>2017-02-11T07:32:35Z</time>
      </trkpt>
      <trkpt lat="42.485440000" lon="-2.595620000">
        <ele>405.50</ele>
        <time>2017-02-11T07:32:36Z</time>
      </trkpt>
      <trkpt lat="42.485460000" lon="-2.595598000">
        <ele>405.60</ele>
        <time>2017-02-11T07:32:37Z</time>
      </trkpt>
      <trkpt lat="42.485482000" lon="-2.595571000">
        <ele>405.60</ele>
        <time>2017-02-11T07:32:38Z</time>
      </trkpt>
      <trkpt lat="42.485504000" lon="-2.595549000">
        <ele>405.70</ele>
        <time>2017-02-11T07:32:39Z</time>
      </trkpt>
      <trkpt lat="42.485522000" lon="-2.595525000">
        <ele>405.80</ele>
        <time>2017-02-11T07:32:40Z</time>
      </trkpt>
      <trkpt lat="42.485545000" lon="-2.595502000">
        <ele>405.80</ele>
        <time>2017-02-11T07:32:41Z</time>
      </trkpt>
      <trkpt lat="42.485566000" lon="-2.595481000">
        <ele>405.80</ele>
        <time>2017-02-11T07:32:42Z</time>
      </trkpt>
      <trkpt lat="42.485586000" lon="-2.595458000">
        <ele>405.80</ele>
        <time>2017-02-11T07:32:43Z</time>
      </trkpt>
      <trkpt lat="42.485610000" lon="-2.595437000">
        <ele>405.90</ele>
        <time>2017-02-11T07:32:44Z</time>
      </trkpt>
      <trkpt lat="42.485634000" lon="-2.595415000">
        <ele>405.90</ele>
        <time>2017-02-11T07:32:45Z</time>
      </trkpt>
      <trkpt lat="42.485658000" lon="-2.595389000">
        <ele>406.20</ele>
        <time>2017-02-11T07:32:46Z</time>
      </trkpt>
      <trkpt lat="42.485685000" lon="-2.595364000">
        <ele>406.40</ele>
        <time>2017-02-11T07:32:47Z</time>
      </trkpt>
      <trkpt lat="42.485711000" lon="-2.595337000">
        <ele>406.60</ele>
        <time>2017-02-11T07:32:48Z</time>
      </trkpt>
      <trkpt lat="42.485738000" lon="-2.595311000">
        <ele>406.70</ele>
        <time>2017-02-11T07:32:49Z</time>
      </trkpt>
      <trkpt lat="42.485764000" lon="-2.595286000">
        <ele>406.80</ele>
        <time>2017-02-11T07:32:50Z</time>
      </trkpt>
      <trkpt lat="42.485794000" lon="-2.595260000">
        <ele>406.90</ele>
        <time>2017-02-11T07:32:51Z</time>
      </trkpt>
      <trkpt lat="42.485823000" lon="-2.595233000">
        <ele>406.80</ele>
        <time>2017-02-11T07:32:52Z</time>
      </trkpt>
      <trkpt lat="42.485852000" lon="-2.595207000">
        <ele>406.70</ele>
        <time>2017-02-11T07:32:53Z</time>
      </trkpt>
      <trkpt lat="42.485881000" lon="-2.595180000">
        <ele>406.70</ele>
        <time>2017-02-11T07:32:54Z</time>
      </trkpt>
      <trkpt lat="42.485908000" lon="-2.595151000">
        <ele>406.60</ele>
        <time>2017-02-11T07:32:55Z</time>
      </trkpt>
      <trkpt lat="42.485934000" lon="-2.595119000">
        <ele>406.60</ele>
        <time>2017-02-11T07:32:56Z</time>
      </trkpt>
      <trkpt lat="42.485992000" lon="-2.595054000">
        <ele>406.60</ele>
        <time>2017-02-11T07:32:58Z</time>
      </trkpt>
      <trkpt lat="42.486024000" lon="-2.595022000">
        <ele>406.60</ele>
        <time>2017-02-11T07:32:59Z</time>
      </trkpt>
      <trkpt lat="42.486055000" lon="-2.594987000">
        <ele>406.60</ele>
        <time>2017-02-11T07:33:00Z</time>
      </trkpt>
      <trkpt lat="42.486086000" lon="-2.594957000">
        <ele>406.60</ele>
        <time>2017-02-11T07:33:01Z</time>
      </trkpt>
      <trkpt lat="42.486120000" lon="-2.594931000">
        <ele>406.60</ele>
        <time>2017-02-11T07:33:02Z</time>
      </trkpt>
      <trkpt lat="42.486153000" lon="-2.594904000">
        <ele>406.60</ele>
        <time>2017-02-11T07:33:03Z</time>
      </trkpt>
      <trkpt lat="42.486186000" lon="-2.594875000">
        <ele>406.60</ele>
        <time>2017-02-11T07:33:04Z</time>
      </trkpt>
      <trkpt lat="42.486216000" lon="-2.594849000">
        <ele>406.60</ele>
        <time>2017-02-11T07:33:05Z</time>
      </trkpt>
      <trkpt lat="42.486249000" lon="-2.594817000">
        <ele>406.60</ele>
        <time>2017-02-11T07:33:06Z</time>
      </trkpt>
      <trkpt lat="42.486282000" lon="-2.594788000">
        <ele>406.60</ele>
        <time>2017-02-11T07:33:07Z</time>
      </trkpt>
      <trkpt lat="42.486316000" lon="-2.594760000">
        <ele>406.50</ele>
        <time>2017-02-11T07:33:08Z</time>
      </trkpt>
      <trkpt lat="42.486349000" lon="-2.594733000">
        <ele>406.50</ele>
        <time>2017-02-11T07:33:09Z</time>
      </trkpt>
      <trkpt lat="42.486382000" lon="-2.594700000">
        <ele>406.50</ele>
        <time>2017-02-11T07:33:10Z</time>
      </trkpt>
      <trkpt lat="42.486414000" lon="-2.594673000">
        <ele>406.50</ele>
        <time>2017-02-11T07:33:11Z</time>
      </trkpt>
      <trkpt lat="42.486445000" lon="-2.594641000">
        <ele>406.30</ele>
        <time>2017-02-11T07:33:12Z</time>
      </trkpt>
      <trkpt lat="42.486477000" lon="-2.594609000">
        <ele>406.10</ele>
        <time>2017-02-11T07:33:13Z</time>
      </trkpt>
      <trkpt lat="42.486510000" lon="-2.594587000">
        <ele>406.00</ele>
        <time>2017-02-11T07:33:14Z</time>
      </trkpt>
      <trkpt lat="42.486543000" lon="-2.594559000">
        <ele>406.00</ele>
        <time>2017-02-11T07:33:15Z</time>
      </trkpt>
      <trkpt lat="42.486574000" lon="-2.594535000">
        <ele>405.90</ele>
        <time>2017-02-11T07:33:16Z</time>
      </trkpt>
      <trkpt lat="42.486601000" lon="-2.594509000">
        <ele>405.90</ele>
        <time>2017-02-11T07:33:17Z</time>
      </trkpt>
      <trkpt lat="42.486630000" lon="-2.594482000">
        <ele>405.90</ele>
        <time>2017-02-11T07:33:18Z</time>
      </trkpt>
      <trkpt lat="42.486663000" lon="-2.594460000">
        <ele>405.90</ele>
        <time>2017-02-11T07:33:19Z</time>
      </trkpt>
      <trkpt lat="42.486692000" lon="-2.594437000">
        <ele>406.00</ele>
        <time>2017-02-11T07:33:20Z</time>
      </trkpt>
      <trkpt lat="42.486723000" lon="-2.594414000">
        <ele>406.10</ele>
        <time>2017-02-11T07:33:21Z</time>
      </trkpt>
      <trkpt lat="42.486755000" lon="-2.594396000">
        <ele>406.10</ele>
        <time>2017-02-11T07:33:22Z</time>
      </trkpt>
      <trkpt lat="42.486786000" lon="-2.594375000">
        <ele>406.20</ele>
        <time>2017-02-11T07:33:23Z</time>
      </trkpt>
      <trkpt lat="42.486818000" lon="-2.594352000">
        <ele>406.20</ele>
        <time>2017-02-11T07:33:24Z</time>
      </trkpt>
      <trkpt lat="42.486855000" lon="-2.594329000">
        <ele>406.20</ele>
        <time>2017-02-11T07:33:25Z</time>
      </trkpt>
      <trkpt lat="42.486893000" lon="-2.594304000">
        <ele>406.20</ele>
        <time>2017-02-11T07:33:26Z</time>
      </trkpt>
      <trkpt lat="42.486935000" lon="-2.594286000">
        <ele>406.10</ele>
        <time>2017-02-11T07:33:27Z</time>
      </trkpt>
      <trkpt lat="42.486975000" lon="-2.594270000">
        <ele>405.90</ele>
        <time>2017-02-11T07:33:28Z</time>
      </trkpt>
      <trkpt lat="42.487021000" lon="-2.594256000">
        <ele>405.80</ele>
        <time>2017-02-11T07:33:29Z</time>
      </trkpt>
      <trkpt lat="42.487067000" lon="-2.594247000">
        <ele>405.60</ele>
        <time>2017-02-11T07:33:30Z</time>
      </trkpt>
      <trkpt lat="42.487112000" lon="-2.594243000">
        <ele>405.50</ele>
        <time>2017-02-11T07:33:31Z</time>
      </trkpt>
      <trkpt lat="42.487158000" lon="-2.594243000">
        <ele>405.30</ele>
        <time>2017-02-11T07:33:32Z</time>
      </trkpt>
      <trkpt lat="42.487205000" lon="-2.594242000">
        <ele>405.20</ele>
        <time>2017-02-11T07:33:33Z</time>
      </trkpt>
      <trkpt lat="42.487253000" lon="-2.594239000">
        <ele>405.10</ele>
        <time>2017-02-11T07:33:34Z</time>
      </trkpt>
      <trkpt lat="42.487301000" lon="-2.594227000">
        <ele>405.00</ele>
        <time>2017-02-11T07:33:35Z</time>
      </trkpt>
      <trkpt lat="42.487353000" lon="-2.594208000">
        <ele>404.90</ele>
        <time>2017-02-11T07:33:36Z</time>
      </trkpt>
      <trkpt lat="42.487403000" lon="-2.594183000">
        <ele>404.80</ele>
        <time>2017-02-11T07:33:37Z</time>
      </trkpt>
      <trkpt lat="42.487454000" lon="-2.594146000">
        <ele>404.50</ele>
        <time>2017-02-11T07:33:38Z</time>
      </trkpt>
      <trkpt lat="42.487498000" lon="-2.594101000">
        <ele>404.30</ele>
        <time>2017-02-11T07:33:39Z</time>
      </trkpt>
      <trkpt lat="42.487541000" lon="-2.594052000">
        <ele>404.10</ele>
        <time>2017-02-11T07:33:40Z</time>
      </trkpt>
      <trkpt lat="42.487581000" lon="-2.594002000">
        <ele>403.90</ele>
        <time>2017-02-11T07:33:41Z</time>
      </trkpt>
      <trkpt lat="42.487623000" lon="-2.593958000">
        <ele>403.70</ele>
        <time>2017-02-11T07:33:42Z</time>
      </trkpt>
      <trkpt lat="42.487666000" lon="-2.593910000">
        <ele>403.50</ele>
        <time>2017-02-11T07:33:43Z</time>
      </trkpt>
      <trkpt lat="42.487705000" lon="-2.593865000">
        <ele>403.40</ele>
        <time>2017-02-11T07:33:44Z</time>
      </trkpt>
      <trkpt lat="42.487744000" lon="-2.593819000">
        <ele>403.30</ele>
        <time>2017-02-11T07:33:45Z</time>
      </trkpt>
      <trkpt lat="42.487783000" lon="-2.593773000">
        <ele>403.30</ele>
        <time>2017-02-11T07:33:46Z</time>
      </trkpt>
      <trkpt lat="42.487821000" lon="-2.593725000">
        <ele>403.20</ele>
        <time>2017-02-11T07:33:47Z</time>
      </trkpt>
      <trkpt lat="42.487858000" lon="-2.593686000">
        <ele>403.20</ele>
        <time>2017-02-11T07:33:48Z</time>
      </trkpt>
      <trkpt lat="42.487898000" lon="-2.593645000">
        <ele>403.20</ele>
        <time>2017-02-11T07:33:49Z</time>
      </trkpt>
      <trkpt lat="42.487935000" lon="-2.593604000">
        <ele>403.20</ele>
        <time>2017-02-11T07:33:50Z</time>
      </trkpt>
      <trkpt lat="42.487972000" lon="-2.593562000">
        <ele>403.20</ele>
        <time>2017-02-11T07:33:51Z</time>
      </trkpt>
      <trkpt lat="42.488012000" lon="-2.593524000">
        <ele>403.10</ele>
        <time>2017-02-11T07:33:52Z</time>
      </trkpt>
      <trkpt lat="42.488050000" lon="-2.593482000">
        <ele>403.10</ele>
        <time>2017-02-11T07:33:53Z</time>
      </trkpt>
      <trkpt lat="42.488089000" lon="-2.593443000">
        <ele>402.90</ele>
        <time>2017-02-11T07:33:54Z</time>
      </trkpt>
      <trkpt lat="42.488126000" lon="-2.593399000">
        <ele>402.80</ele>
        <time>2017-02-11T07:33:55Z</time>
      </trkpt>
      <trkpt lat="42.488163000" lon="-2.593356000">
        <ele>402.80</ele>
        <time>2017-02-11T07:33:56Z</time>
      </trkpt>
      <trkpt lat="42.488200000" lon="-2.593315000">
        <ele>402.70</ele>
        <time>2017-02-11T07:33:57Z</time>
      </trkpt>
      <trkpt lat="42.488279000" lon="-2.593236000">
        <ele>402.80</ele>
        <time>2017-02-11T07:33:59Z</time>
      </trkpt>
      <trkpt lat="42.488321000" lon="-2.593194000">
        <ele>402.80</ele>
        <time>2017-02-11T07:34:00Z</time>
      </trkpt>
      <trkpt lat="42.488365000" lon="-2.593161000">
        <ele>402.80</ele>
        <time>2017-02-11T07:34:01Z</time>
      </trkpt>
      <trkpt lat="42.488414000" lon="-2.593129000">
        <ele>402.80</ele>
        <time>2017-02-11T07:34:02Z</time>
      </trkpt>
      <trkpt lat="42.488466000" lon="-2.593106000">
        <ele>402.80</ele>
        <time>2017-02-11T07:34:03Z</time>
      </trkpt>
      <trkpt lat="42.488518000" lon="-2.593088000">
        <ele>402.80</ele>
        <time>2017-02-11T07:34:04Z</time>
      </trkpt>
      <trkpt lat="42.488574000" lon="-2.593078000">
        <ele>402.80</ele>
        <time>2017-02-11T07:34:05Z</time>
      </trkpt>
      <trkpt lat="42.488633000" lon="-2.593073000">
        <ele>402.80</ele>
        <time>2017-02-11T07:34:06Z</time>
      </trkpt>
      <trkpt lat="42.488695000" lon="-2.593067000">
        <ele>402.80</ele>
        <time>2017-02-11T07:34:07Z</time>
      </trkpt>
      <trkpt lat="42.488755000" lon="-2.593061000">
        <ele>402.80</ele>
        <time>2017-02-11T07:34:08Z</time>
      </trkpt>
      <trkpt lat="42.488814000" lon="-2.593050000">
        <ele>402.70</ele>
        <time>2017-02-11T07:34:09Z</time>
      </trkpt>
      <trkpt lat="42.488872000" lon="-2.593035000">
        <ele>402.50</ele>
        <time>2017-02-11T07:34:10Z</time>
      </trkpt>
      <trkpt lat="42.488932000" lon="-2.593015000">
        <ele>402.30</ele>
        <time>2017-02-11T07:34:11Z</time>
      </trkpt>
      <trkpt lat="42.488992000" lon="-2.593000000">
        <ele>402.00</ele>
        <time>2017-02-11T07:34:12Z</time>
      </trkpt>
      <trkpt lat="42.489048000" lon="-2.592979000">
        <ele>401.90</ele>
        <time>2017-02-11T07:34:13Z</time>
      </trkpt>
      <trkpt lat="42.489106000" lon="-2.592958000">
        <ele>401.70</ele>
        <time>2017-02-11T07:34:14Z</time>
      </trkpt>
      <trkpt lat="42.489159000" lon="-2.592934000">
        <ele>401.60</ele>
        <time>2017-02-11T07:34:15Z</time>
      </trkpt>
      <trkpt lat="42.489211000" lon="-2.592914000">
        <ele>401.50</ele>
        <time>2017-02-11T07:34:16Z</time>
      </trkpt>
      <trkpt lat="42.489264000" lon="-2.592895000">
        <ele>401.50</ele>
        <time>2017-02-11T07:34:17Z</time>
      </trkpt>
      <trkpt lat="42.489312000" lon="-2.592874000">
        <ele>401.50</ele>
        <time>2017-02-11T07:34:18Z</time>
      </trkpt>
      <trkpt lat="42.489361000" lon="-2.592852000">
        <ele>401.50</ele>
        <time>2017-02-11T07:34:19Z</time>
      </trkpt>
      <trkpt lat="42.489405000" lon="-2.592835000">
        <ele>401.50</ele>
        <time>2017-02-11T07:34:20Z</time>
      </trkpt>
      <trkpt lat="42.489451000" lon="-2.592816000">
        <ele>401.50</ele>
        <time>2017-02-11T07:34:21Z</time>
      </trkpt>
      <trkpt lat="42.489497000" lon="-2.592800000">
        <ele>401.60</ele>
        <time>2017-02-11T07:34:22Z</time>
      </trkpt>
      <trkpt lat="42.489542000" lon="-2.592780000">
        <ele>401.60</ele>
        <time>2017-02-11T07:34:23Z</time>
      </trkpt>
      <trkpt lat="42.489586000" lon="-2.592757000">
        <ele>401.80</ele>
        <time>2017-02-11T07:34:24Z</time>
      </trkpt>
      <trkpt lat="42.489631000" lon="-2.592733000">
        <ele>401.90</ele>
        <time>2017-02-11T07:34:25Z</time>
      </trkpt>
      <trkpt lat="42.489672000" lon="-2.592705000">
        <ele>402.20</ele>
        <time>2017-02-11T07:34:26Z</time>
      </trkpt>
      <trkpt lat="42.489716000" lon="-2.592678000">
        <ele>402.30</ele>
        <time>2017-02-11T07:34:27Z</time>
      </trkpt>
      <trkpt lat="42.489763000" lon="-2.592651000">
        <ele>402.50</ele>
        <time>2017-02-11T07:34:28Z</time>
      </trkpt>
      <trkpt lat="42.489812000" lon="-2.592626000">
        <ele>402.70</ele>
        <time>2017-02-11T07:34:29Z</time>
      </trkpt>
      <trkpt lat="42.489863000" lon="-2.592600000">
        <ele>402.80</ele>
        <time>2017-02-11T07:34:30Z</time>
      </trkpt>
      <trkpt lat="42.489910000" lon="-2.592572000">
        <ele>402.80</ele>
        <time>2017-02-11T07:34:31Z</time>
      </trkpt>
      <trkpt lat="42.489954000" lon="-2.592544000">
        <ele>402.90</ele>
        <time>2017-02-11T07:34:32Z</time>
      </trkpt>
      <trkpt lat="42.490001000" lon="-2.592519000">
        <ele>403.00</ele>
        <time>2017-02-11T07:34:33Z</time>
      </trkpt>
      <trkpt lat="42.490046000" lon="-2.592490000">
        <ele>403.00</ele>
        <time>2017-02-11T07:34:34Z</time>
      </trkpt>
      <trkpt lat="42.490093000" lon="-2.592462000">
        <ele>403.00</ele>
        <time>2017-02-11T07:34:35Z</time>
      </trkpt>
      <trkpt lat="42.490136000" lon="-2.592434000">
        <ele>403.00</ele>
        <time>2017-02-11T07:34:36Z</time>
      </trkpt>
      <trkpt lat="42.490180000" lon="-2.592402000">
        <ele>403.00</ele>
        <time>2017-02-11T07:34:37Z</time>
      </trkpt>
      <trkpt lat="42.490222000" lon="-2.592370000">
        <ele>403.10</ele>
        <time>2017-02-11T07:34:38Z</time>
      </trkpt>
      <trkpt lat="42.490262000" lon="-2.592336000">
        <ele>403.20</ele>
        <time>2017-02-11T07:34:39Z</time>
      </trkpt>
      <trkpt lat="42.490299000" lon="-2.592301000">
        <ele>403.40</ele>
        <time>2017-02-11T07:34:40Z</time>
      </trkpt>
      <trkpt lat="42.490332000" lon="-2.592262000">
        <ele>403.60</ele>
        <time>2017-02-11T07:34:41Z</time>
      </trkpt>
      <trkpt lat="42.490364000" lon="-2.592221000">
        <ele>403.80</ele>
        <time>2017-02-11T07:34:42Z</time>
      </trkpt>
      <trkpt lat="42.490396000" lon="-2.592178000">
        <ele>404.00</ele>
        <time>2017-02-11T07:34:43Z</time>
      </trkpt>
      <trkpt lat="42.490428000" lon="-2.592141000">
        <ele>404.10</ele>
        <time>2017-02-11T07:34:44Z</time>
      </trkpt>
      <trkpt lat="42.490465000" lon="-2.592104000">
        <ele>404.20</ele>
        <time>2017-02-11T07:34:45Z</time>
      </trkpt>
      <trkpt lat="42.490508000" lon="-2.592071000">
        <ele>404.30</ele>
        <time>2017-02-11T07:34:46Z</time>
      </trkpt>
      <trkpt lat="42.490553000" lon="-2.592041000">
        <ele>404.30</ele>
        <time>2017-02-11T07:34:47Z</time>
      </trkpt>
      <trkpt lat="42.490600000" lon="-2.592011000">
        <ele>404.20</ele>
        <time>2017-02-11T07:34:48Z</time>
      </trkpt>
      <trkpt lat="42.490649000" lon="-2.591987000">
        <ele>404.10</ele>
        <time>2017-02-11T07:34:49Z</time>
      </trkpt>
      <trkpt lat="42.490699000" lon="-2.591968000">
        <ele>404.00</ele>
        <time>2017-02-11T07:34:50Z</time>
      </trkpt>
      <trkpt lat="42.490749000" lon="-2.591945000">
        <ele>403.90</ele>
        <time>2017-02-11T07:34:51Z</time>
      </trkpt>
      <trkpt lat="42.490794000" lon="-2.591924000">
        <ele>403.60</ele>
        <time>2017-02-11T07:34:52Z</time>
      </trkpt>
      <trkpt lat="42.490842000" lon="-2.591908000">
        <ele>403.40</ele>
        <time>2017-02-11T07:34:53Z</time>
      </trkpt>
      <trkpt lat="42.490887000" lon="-2.591889000">
        <ele>403.30</ele>
        <time>2017-02-11T07:34:54Z</time>
      </trkpt>
      <trkpt lat="42.490931000" lon="-2.591868000">
        <ele>403.20</ele>
        <time>2017-02-11T07:34:55Z</time>
      </trkpt>
      <trkpt lat="42.490974000" lon="-2.591850000">
        <ele>403.10</ele>
        <time>2017-02-11T07:34:56Z</time>
      </trkpt>
      <trkpt lat="42.491016000" lon="-2.591835000">
        <ele>403.00</ele>
        <time>2017-02-11T07:34:57Z</time>
      </trkpt>
      <trkpt lat="42.491056000" lon="-2.591818000">
        <ele>403.20</ele>
        <time>2017-02-11T07:34:58Z</time>
      </trkpt>
      <trkpt lat="42.491136000" lon="-2.591779000">
        <ele>403.50</ele>
        <time>2017-02-11T07:35:00Z</time>
      </trkpt>
      <trkpt lat="42.491176000" lon="-2.591757000">
        <ele>403.60</ele>
        <time>2017-02-11T07:35:01Z</time>
      </trkpt>
      <trkpt lat="42.491213000" lon="-2.591736000">
        <ele>403.80</ele>
        <time>2017-02-11T07:35:02Z</time>
      </trkpt>
      <trkpt lat="42.491255000" lon="-2.591714000">
        <ele>403.90</ele>
        <time>2017-02-11T07:35:03Z</time>
      </trkpt>
      <trkpt lat="42.491297000" lon="-2.591689000">
        <ele>403.90</ele>
        <time>2017-02-11T07:35:04Z</time>
      </trkpt>
      <trkpt lat="42.491344000" lon="-2.591658000">
        <ele>403.90</ele>
        <time>2017-02-11T07:35:05Z</time>
      </trkpt>
      <trkpt lat="42.491395000" lon="-2.591634000">
        <ele>403.90</ele>
        <time>2017-02-11T07:35:06Z</time>
      </trkpt>
      <trkpt lat="42.491442000" lon="-2.591605000">
        <ele>403.90</ele>
        <time>2017-02-11T07:35:07Z</time>
      </trkpt>
      <trkpt lat="42.491490000" lon="-2.591576000">
        <ele>403.90</ele>
        <time>2017-02-11T07:35:08Z</time>
      </trkpt>
      <trkpt lat="42.491537000" lon="-2.591550000">
        <ele>403.90</ele>
        <time>2017-02-11T07:35:09Z</time>
      </trkpt>
      <trkpt lat="42.491582000" lon="-2.591531000">
        <ele>403.90</ele>
        <time>2017-02-11T07:35:10Z</time>
      </trkpt>
      <trkpt lat="42.491627000" lon="-2.591511000">
        <ele>403.90</ele>
        <time>2017-02-11T07:35:11Z</time>
      </trkpt>
      <trkpt lat="42.491672000" lon="-2.591493000">
        <ele>403.90</ele>
        <time>2017-02-11T07:35:12Z</time>
      </trkpt>
      <trkpt lat="42.491715000" lon="-2.591480000">
        <ele>403.90</ele>
        <time>2017-02-11T07:35:13Z</time>
      </trkpt>
      <trkpt lat="42.491758000" lon="-2.591471000">
        <ele>404.10</ele>
        <time>2017-02-11T07:35:14Z</time>
      </trkpt>
      <trkpt lat="42.491800000" lon="-2.591469000">
        <ele>404.20</ele>
        <time>2017-02-11T07:35:15Z</time>
      </trkpt>
      <trkpt lat="42.491842000" lon="-2.591472000">
        <ele>404.40</ele>
        <time>2017-02-11T07:35:16Z</time>
      </trkpt>
      <trkpt lat="42.491884000" lon="-2.591480000">
        <ele>404.50</ele>
        <time>2017-02-11T07:35:17Z</time>
      </trkpt>
      <trkpt lat="42.491925000" lon="-2.591492000">
        <ele>404.50</ele>
        <time>2017-02-11T07:35:18Z</time>
      </trkpt>
      <trkpt lat="42.491971000" lon="-2.591507000">
        <ele>404.60</ele>
        <time>2017-02-11T07:35:19Z</time>
      </trkpt>
      <trkpt lat="42.492017000" lon="-2.591520000">
        <ele>404.80</ele>
        <time>2017-02-11T07:35:20Z</time>
      </trkpt>
      <trkpt lat="42.492059000" lon="-2.591537000">
        <ele>404.90</ele>
        <time>2017-02-11T07:35:21Z</time>
      </trkpt>
      <trkpt lat="42.492100000" lon="-2.591557000">
        <ele>404.80</ele>
        <time>2017-02-11T07:35:22Z</time>
      </trkpt>
      <trkpt lat="42.492143000" lon="-2.591579000">
        <ele>404.80</ele>
        <time>2017-02-11T07:35:23Z</time>
      </trkpt>
      <trkpt lat="42.492183000" lon="-2.591595000">
        <ele>404.90</ele>
        <time>2017-02-11T07:35:24Z</time>
      </trkpt>
      <trkpt lat="42.492224000" lon="-2.591620000">
        <ele>404.90</ele>
        <time>2017-02-11T07:35:25Z</time>
      </trkpt>
      <trkpt lat="42.492266000" lon="-2.591643000">
        <ele>405.00</ele>
        <time>2017-02-11T07:35:26Z</time>
      </trkpt>
      <trkpt lat="42.492313000" lon="-2.591663000">
        <ele>405.00</ele>
        <time>2017-02-11T07:35:27Z</time>
      </trkpt>
      <trkpt lat="42.492361000" lon="-2.591686000">
        <ele>405.10</ele>
        <time>2017-02-11T07:35:28Z</time>
      </trkpt>
      <trkpt lat="42.492405000" lon="-2.591715000">
        <ele>405.10</ele>
        <time>2017-02-11T07:35:29Z</time>
      </trkpt>
      <trkpt lat="42.492450000" lon="-2.591746000">
        <ele>405.20</ele>
        <time>2017-02-11T07:35:30Z</time>
      </trkpt>
      <trkpt lat="42.492492000" lon="-2.591778000">
        <ele>405.20</ele>
        <time>2017-02-11T07:35:31Z</time>
      </trkpt>
      <trkpt lat="42.492535000" lon="-2.591806000">
        <ele>405.30</ele>
        <time>2017-02-11T07:35:32Z</time>
      </trkpt>
      <trkpt lat="42.492580000" lon="-2.591837000">
        <ele>405.30</ele>
        <time>2017-02-11T07:35:33Z</time>
      </trkpt>
      <trkpt lat="42.492623000" lon="-2.591866000">
        <ele>405.30</ele>
        <time>2017-02-11T07:35:34Z</time>
      </trkpt>
      <trkpt lat="42.492667000" lon="-2.591897000">
        <ele>405.30</ele>
        <time>2017-02-11T07:35:35Z</time>
      </trkpt>
      <trkpt lat="42.492709000" lon="-2.591927000">
        <ele>405.00</ele>
        <time>2017-02-11T07:35:36Z</time>
      </trkpt>
      <trkpt lat="42.492755000" lon="-2.591953000">
        <ele>404.80</ele>
        <time>2017-02-11T07:35:37Z</time>
      </trkpt>
      <trkpt lat="42.492799000" lon="-2.591983000">
        <ele>404.60</ele>
        <time>2017-02-11T07:35:38Z</time>
      </trkpt>
      <trkpt lat="42.492844000" lon="-2.592016000">
        <ele>404.50</ele>
        <time>2017-02-11T07:35:39Z</time>
      </trkpt>
      <trkpt lat="42.492887000" lon="-2.592048000">
        <ele>404.40</ele>
        <time>2017-02-11T07:35:40Z</time>
      </trkpt>
      <trkpt lat="42.492921000" lon="-2.592082000">
        <ele>404.30</ele>
        <time>2017-02-11T07:35:41Z</time>
      </trkpt>
      <trkpt lat="42.492958000" lon="-2.592119000">
        <ele>404.20</ele>
        <time>2017-02-11T07:35:42Z</time>
      </trkpt>
      <trkpt lat="42.492999000" lon="-2.592158000">
        <ele>404.00</ele>
        <time>2017-02-11T07:35:43Z</time>
      </trkpt>
      <trkpt lat="42.493035000" lon="-2.592196000">
        <ele>403.70</ele>
        <time>2017-02-11T07:35:44Z</time>
      </trkpt>
      <trkpt lat="42.493073000" lon="-2.592233000">
        <ele>403.50</ele>
        <time>2017-02-11T07:35:45Z</time>
      </trkpt>
      <trkpt lat="42.493110000" lon="-2.592270000">
        <ele>403.40</ele>
        <time>2017-02-11T07:35:46Z</time>
      </trkpt>
      <trkpt lat="42.493147000" lon="-2.592308000">
        <ele>403.30</ele>
        <time>2017-02-11T07:35:47Z</time>
      </trkpt>
      <trkpt lat="42.493185000" lon="-2.592348000">
        <ele>403.20</ele>
        <time>2017-02-11T07:35:48Z</time>
      </trkpt>
      <trkpt lat="42.493224000" lon="-2.592388000">
        <ele>403.10</ele>
        <time>2017-02-11T07:35:49Z</time>
      </trkpt>
      <trkpt lat="42.493264000" lon="-2.592427000">
        <ele>403.20</ele>
        <time>2017-02-11T07:35:50Z</time>
      </trkpt>
      <trkpt lat="42.493301000" lon="-2.592464000">
        <ele>403.30</ele>
        <time>2017-02-11T07:35:51Z</time>
      </trkpt>
      <trkpt lat="42.493340000" lon="-2.592499000">
        <ele>403.20</ele>
        <time>2017-02-11T07:35:52Z</time>
      </trkpt>
      <trkpt lat="42.493380000" lon="-2.592532000">
        <ele>403.10</ele>
        <time>2017-02-11T07:35:53Z</time>
      </trkpt>
      <trkpt lat="42.493418000" lon="-2.592565000">
        <ele>403.00</ele>
        <time>2017-02-11T07:35:54Z</time>
      </trkpt>
      <trkpt lat="42.493456000" lon="-2.592594000">
        <ele>402.90</ele>
        <time>2017-02-11T07:35:55Z</time>
      </trkpt>
      <trkpt lat="42.493495000" lon="-2.592621000">
        <ele>402.80</ele>
        <time>2017-02-11T07:35:56Z</time>
      </trkpt>
      <trkpt lat="42.493533000" lon="-2.592650000">
        <ele>402.80</ele>
        <time>2017-02-11T07:35:57Z</time>
      </trkpt>
      <trkpt lat="42.493573000" lon="-2.592679000">
        <ele>402.80</ele>
        <time>2017-02-11T07:35:58Z</time>
      </trkpt>
      <trkpt lat="42.493615000" lon="-2.592706000">
        <ele>402.70</ele>
        <time>2017-02-11T07:35:59Z</time>
      </trkpt>
      <trkpt lat="42.493694000" lon="-2.592769000">
        <ele>403.10</ele>
        <time>2017-02-11T07:36:01Z</time>
      </trkpt>
      <trkpt lat="42.493732000" lon="-2.592804000">
        <ele>403.20</ele>
        <time>2017-02-11T07:36:02Z</time>
      </trkpt>
      <trkpt lat="42.493767000" lon="-2.592839000">
        <ele>403.30</ele>
        <time>2017-02-11T07:36:03Z</time>
      </trkpt>
      <trkpt lat="42.493801000" lon="-2.592876000">
        <ele>403.30</ele>
        <time>2017-02-11T07:36:04Z</time>
      </trkpt>
      <trkpt lat="42.493837000" lon="-2.592912000">
        <ele>403.30</ele>
        <time>2017-02-11T07:36:05Z</time>
      </trkpt>
      <trkpt lat="42.493874000" lon="-2.592949000">
        <ele>403.10</ele>
        <time>2017-02-11T07:36:06Z</time>
      </trkpt>
      <trkpt lat="42.493908000" lon="-2.592986000">
        <ele>402.90</ele>
        <time>2017-02-11T07:36:07Z</time>
      </trkpt>
      <trkpt lat="42.493944000" lon="-2.593024000">
        <ele>402.70</ele>
        <time>2017-02-11T07:36:08Z</time>
      </trkpt>
      <trkpt lat="42.493983000" lon="-2.593060000">
        <ele>402.60</ele>
        <time>2017-02-11T07:36:09Z</time>
      </trkpt>
      <trkpt lat="42.494021000" lon="-2.593093000">
        <ele>402.60</ele>
        <time>2017-02-11T07:36:10Z</time>
      </trkpt>
      <trkpt lat="42.494061000" lon="-2.593120000">
        <ele>402.50</ele>
        <time>2017-02-11T07:36:11Z</time>
      </trkpt>
      <trkpt lat="42.494102000" lon="-2.593152000">
        <ele>402.40</ele>
        <time>2017-02-11T07:36:12Z</time>
      </trkpt>
      <trkpt lat="42.494142000" lon="-2.593185000">
        <ele>402.40</ele>
        <time>2017-02-11T07:36:13Z</time>
      </trkpt>
      <trkpt lat="42.494183000" lon="-2.593215000">
        <ele>402.50</ele>
        <time>2017-02-11T07:36:14Z</time>
      </trkpt>
      <trkpt lat="42.494225000" lon="-2.593245000">
        <ele>402.60</ele>
        <time>2017-02-11T07:36:15Z</time>
      </trkpt>
      <trkpt lat="42.494266000" lon="-2.593269000">
        <ele>402.70</ele>
        <time>2017-02-11T07:36:16Z</time>
      </trkpt>
      <trkpt lat="42.494309000" lon="-2.593298000">
        <ele>402.70</ele>
        <time>2017-02-11T07:36:17Z</time>
      </trkpt>
      <trkpt lat="42.494351000" lon="-2.593328000">
        <ele>402.70</ele>
        <time>2017-02-11T07:36:18Z</time>
      </trkpt>
      <trkpt lat="42.494390000" lon="-2.593356000">
        <ele>402.60</ele>
        <time>2017-02-11T07:36:19Z</time>
      </trkpt>
      <trkpt lat="42.494430000" lon="-2.593387000">
        <ele>402.40</ele>
        <time>2017-02-11T07:36:20Z</time>
      </trkpt>
      <trkpt lat="42.494470000" lon="-2.593413000">
        <ele>402.20</ele>
        <time>2017-02-11T07:36:21Z</time>
      </trkpt>
      <trkpt lat="42.494510000" lon="-2.593444000">
        <ele>402.00</ele>
        <time>2017-02-11T07:36:22Z</time>
      </trkpt>
      <trkpt lat="42.494551000" lon="-2.593476000">
        <ele>401.90</ele>
        <time>2017-02-11T07:36:23Z</time>
      </trkpt>
      <trkpt lat="42.494591000" lon="-2.593509000">
        <ele>402.00</ele>
        <time>2017-02-11T07:36:24Z</time>
      </trkpt>
      <trkpt lat="42.494630000" lon="-2.593542000">
        <ele>402.10</ele>
        <time>2017-02-11T07:36:25Z</time>
      </trkpt>
      <trkpt lat="42.494670000" lon="-2.593575000">
        <ele>402.20</ele>
        <time>2017-02-11T07:36:26Z</time>
      </trkpt>
      <trkpt lat="42.494711000" lon="-2.593610000">
        <ele>402.30</ele>
        <time>2017-02-11T07:36:27Z</time>
      </trkpt>
      <trkpt lat="42.494750000" lon="-2.593646000">
        <ele>402.30</ele>
        <time>2017-02-11T07:36:28Z</time>
      </trkpt>
      <trkpt lat="42.494790000" lon="-2.593674000">
        <ele>402.30</ele>
        <time>2017-02-11T07:36:29Z</time>
      </trkpt>
      <trkpt lat="42.494829000" lon="-2.593707000">
        <ele>402.50</ele>
        <time>2017-02-11T07:36:30Z</time>
      </trkpt>
      <trkpt lat="42.494867000" lon="-2.593739000">
        <ele>402.60</ele>
        <time>2017-02-11T07:36:31Z</time>
      </trkpt>
      <trkpt lat="42.494908000" lon="-2.593773000">
        <ele>402.40</ele>
        <time>2017-02-11T07:36:32Z</time>
      </trkpt>
      <trkpt lat="42.494949000" lon="-2.593809000">
        <ele>402.30</ele>
        <time>2017-02-11T07:36:33Z</time>
      </trkpt>
      <trkpt lat="42.494985000" lon="-2.593842000">
        <ele>402.20</ele>
        <time>2017-02-11T07:36:34Z</time>
      </trkpt>
      <trkpt lat="42.495026000" lon="-2.593875000">
        <ele>402.20</ele>
        <time>2017-02-11T07:36:35Z</time>
      </trkpt>
      <trkpt lat="42.495065000" lon="-2.593911000">
        <ele>402.10</ele>
        <time>2017-02-11T07:36:36Z</time>
      </trkpt>
      <trkpt lat="42.495105000" lon="-2.593946000">
        <ele>402.00</ele>
        <time>2017-02-11T07:36:37Z</time>
      </trkpt>
      <trkpt lat="42.495144000" lon="-2.593979000">
        <ele>402.00</ele>
        <time>2017-02-11T07:36:38Z</time>
      </trkpt>
      <trkpt lat="42.495185000" lon="-2.594014000">
        <ele>401.90</ele>
        <time>2017-02-11T07:36:39Z</time>
      </trkpt>
      <trkpt lat="42.495226000" lon="-2.594048000">
        <ele>401.90</ele>
        <time>2017-02-11T07:36:40Z</time>
      </trkpt>
      <trkpt lat="42.495263000" lon="-2.594085000">
        <ele>401.90</ele>
        <time>2017-02-11T07:36:41Z</time>
      </trkpt>
      <trkpt lat="42.495301000" lon="-2.594122000">
        <ele>401.90</ele>
        <time>2017-02-11T07:36:42Z</time>
      </trkpt>
      <trkpt lat="42.495343000" lon="-2.594156000">
        <ele>401.90</ele>
        <time>2017-02-11T07:36:43Z</time>
      </trkpt>
      <trkpt lat="42.495381000" lon="-2.594196000">
        <ele>402.10</ele>
        <time>2017-02-11T07:36:44Z</time>
      </trkpt>
      <trkpt lat="42.495421000" lon="-2.594229000">
        <ele>402.20</ele>
        <time>2017-02-11T07:36:45Z</time>
      </trkpt>
      <trkpt lat="42.495458000" lon="-2.594266000">
        <ele>402.10</ele>
        <time>2017-02-11T07:36:46Z</time>
      </trkpt>
      <trkpt lat="42.495494000" lon="-2.594309000">
        <ele>402.10</ele>
        <time>2017-02-11T07:36:47Z</time>
      </trkpt>
      <trkpt lat="42.495530000" lon="-2.594348000">
        <ele>402.00</ele>
        <time>2017-02-11T07:36:48Z</time>
      </trkpt>
      <trkpt lat="42.495567000" lon="-2.594388000">
        <ele>402.00</ele>
        <time>2017-02-11T07:36:49Z</time>
      </trkpt>
      <trkpt lat="42.495601000" lon="-2.594432000">
        <ele>401.90</ele>
        <time>2017-02-11T07:36:50Z</time>
      </trkpt>
      <trkpt lat="42.495634000" lon="-2.594478000">
        <ele>401.90</ele>
        <time>2017-02-11T07:36:51Z</time>
      </trkpt>
      <trkpt lat="42.495670000" lon="-2.594520000">
        <ele>401.90</ele>
        <time>2017-02-11T07:36:52Z</time>
      </trkpt>
      <trkpt lat="42.495704000" lon="-2.594562000">
        <ele>401.80</ele>
        <time>2017-02-11T07:36:53Z</time>
      </trkpt>
      <trkpt lat="42.495736000" lon="-2.594605000">
        <ele>401.80</ele>
        <time>2017-02-11T07:36:54Z</time>
      </trkpt>
      <trkpt lat="42.495769000" lon="-2.594644000">
        <ele>401.70</ele>
        <time>2017-02-11T07:36:55Z</time>
      </trkpt>
      <trkpt lat="42.495802000" lon="-2.594684000">
        <ele>401.70</ele>
        <time>2017-02-11T07:36:56Z</time>
      </trkpt>
      <trkpt lat="42.495834000" lon="-2.594726000">
        <ele>401.60</ele>
        <time>2017-02-11T07:36:57Z</time>
      </trkpt>
      <trkpt lat="42.495867000" lon="-2.594764000">
        <ele>401.60</ele>
        <time>2017-02-11T07:36:58Z</time>
      </trkpt>
      <trkpt lat="42.495900000" lon="-2.594801000">
        <ele>401.60</ele>
        <time>2017-02-11T07:36:59Z</time>
      </trkpt>
      <trkpt lat="42.495932000" lon="-2.594841000">
        <ele>401.60</ele>
        <time>2017-02-11T07:37:00Z</time>
      </trkpt>
      <trkpt lat="42.496002000" lon="-2.594922000">
        <ele>401.50</ele>
        <time>2017-02-11T07:37:02Z</time>
      </trkpt>
      <trkpt lat="42.496033000" lon="-2.594956000">
        <ele>401.50</ele>
        <time>2017-02-11T07:37:03Z</time>
      </trkpt>
      <trkpt lat="42.496067000" lon="-2.594996000">
        <ele>401.50</ele>
        <time>2017-02-11T07:37:04Z</time>
      </trkpt>
      <trkpt lat="42.496104000" lon="-2.595035000">
        <ele>401.50</ele>
        <time>2017-02-11T07:37:05Z</time>
      </trkpt>
      <trkpt lat="42.496140000" lon="-2.595070000">
        <ele>401.30</ele>
        <time>2017-02-11T07:37:06Z</time>
      </trkpt>
      <trkpt lat="42.496176000" lon="-2.595102000">
        <ele>401.20</ele>
        <time>2017-02-11T07:37:07Z</time>
      </trkpt>
      <trkpt lat="42.496211000" lon="-2.595135000">
        <ele>401.20</ele>
        <time>2017-02-11T07:37:08Z</time>
      </trkpt>
      <trkpt lat="42.496251000" lon="-2.595166000">
        <ele>401.10</ele>
        <time>2017-02-11T07:37:09Z</time>
      </trkpt>
      <trkpt lat="42.496289000" lon="-2.595200000">
        <ele>401.10</ele>
        <time>2017-02-11T07:37:10Z</time>
      </trkpt>
      <trkpt lat="42.496325000" lon="-2.595233000">
        <ele>401.00</ele>
        <time>2017-02-11T07:37:11Z</time>
      </trkpt>
      <trkpt lat="42.496368000" lon="-2.595266000">
        <ele>401.10</ele>
        <time>2017-02-11T07:37:12Z</time>
      </trkpt>
      <trkpt lat="42.496410000" lon="-2.595297000">
        <ele>401.20</ele>
        <time>2017-02-11T07:37:13Z</time>
      </trkpt>
      <trkpt lat="42.496448000" lon="-2.595330000">
        <ele>401.40</ele>
        <time>2017-02-11T07:37:14Z</time>
      </trkpt>
      <trkpt lat="42.496486000" lon="-2.595365000">
        <ele>401.50</ele>
        <time>2017-02-11T07:37:15Z</time>
      </trkpt>
      <trkpt lat="42.496524000" lon="-2.595400000">
        <ele>401.60</ele>
        <time>2017-02-11T07:37:16Z</time>
      </trkpt>
      <trkpt lat="42.496561000" lon="-2.595436000">
        <ele>401.70</ele>
        <time>2017-02-11T07:37:17Z</time>
      </trkpt>
      <trkpt lat="42.496600000" lon="-2.595472000">
        <ele>401.70</ele>
        <time>2017-02-11T07:37:18Z</time>
      </trkpt>
      <trkpt lat="42.496638000" lon="-2.595510000">
        <ele>401.70</ele>
        <time>2017-02-11T07:37:19Z</time>
      </trkpt>
      <trkpt lat="42.496672000" lon="-2.595548000">
        <ele>401.70</ele>
        <time>2017-02-11T07:37:20Z</time>
      </trkpt>
      <trkpt lat="42.496707000" lon="-2.595587000">
        <ele>401.60</ele>
        <time>2017-02-11T07:37:21Z</time>
      </trkpt>
      <trkpt lat="42.496741000" lon="-2.595627000">
        <ele>401.60</ele>
        <time>2017-02-11T07:37:22Z</time>
      </trkpt>
      <trkpt lat="42.496776000" lon="-2.595665000">
        <ele>401.60</ele>
        <time>2017-02-11T07:37:23Z</time>
      </trkpt>
      <trkpt lat="42.496810000" lon="-2.595708000">
        <ele>401.60</ele>
        <time>2017-02-11T07:37:24Z</time>
      </trkpt>
      <trkpt lat="42.496840000" lon="-2.595751000">
        <ele>401.60</ele>
        <time>2017-02-11T07:37:25Z</time>
      </trkpt>
      <trkpt lat="42.496875000" lon="-2.595794000">
        <ele>401.60</ele>
        <time>2017-02-11T07:37:26Z</time>
      </trkpt>
      <trkpt lat="42.496905000" lon="-2.595836000">
        <ele>401.70</ele>
        <time>2017-02-11T07:37:27Z</time>
      </trkpt>
      <trkpt lat="42.496938000" lon="-2.595880000">
        <ele>401.80</ele>
        <time>2017-02-11T07:37:28Z</time>
      </trkpt>
      <trkpt lat="42.496968000" lon="-2.595924000">
        <ele>401.90</ele>
        <time>2017-02-11T07:37:29Z</time>
      </trkpt>
      <trkpt lat="42.497001000" lon="-2.595966000">
        <ele>402.10</ele>
        <time>2017-02-11T07:37:30Z</time>
      </trkpt>
      <trkpt lat="42.497035000" lon="-2.596011000">
        <ele>402.20</ele>
        <time>2017-02-11T07:37:31Z</time>
      </trkpt>
      <trkpt lat="42.497065000" lon="-2.596054000">
        <ele>402.30</ele>
        <time>2017-02-11T07:37:32Z</time>
      </trkpt>
      <trkpt lat="42.497097000" lon="-2.596098000">
        <ele>402.30</ele>
        <time>2017-02-11T07:37:33Z</time>
      </trkpt>
      <trkpt lat="42.497130000" lon="-2.596145000">
        <ele>402.30</ele>
        <time>2017-02-11T07:37:34Z</time>
      </trkpt>
      <trkpt lat="42.497161000" lon="-2.596188000">
        <ele>402.30</ele>
        <time>2017-02-11T07:37:35Z</time>
      </trkpt>
      <trkpt lat="42.497193000" lon="-2.596230000">
        <ele>402.30</ele>
        <time>2017-02-11T07:37:36Z</time>
      </trkpt>
      <trkpt lat="42.497226000" lon="-2.596274000">
        <ele>402.30</ele>
        <time>2017-02-11T07:37:37Z</time>
      </trkpt>
      <trkpt lat="42.497259000" lon="-2.596315000">
        <ele>402.30</ele>
        <time>2017-02-11T07:37:38Z</time>
      </trkpt>
      <trkpt lat="42.497293000" lon="-2.596352000">
        <ele>402.40</ele>
        <time>2017-02-11T07:37:39Z</time>
      </trkpt>
      <trkpt lat="42.497326000" lon="-2.596395000">
        <ele>402.40</ele>
        <time>2017-02-11T07:37:40Z</time>
      </trkpt>
      <trkpt lat="42.497358000" lon="-2.596442000">
        <ele>402.40</ele>
        <time>2017-02-11T07:37:41Z</time>
      </trkpt>
      <trkpt lat="42.497390000" lon="-2.596486000">
        <ele>402.60</ele>
        <time>2017-02-11T07:37:42Z</time>
      </trkpt>
      <trkpt lat="42.497422000" lon="-2.596532000">
        <ele>402.70</ele>
        <time>2017-02-11T07:37:43Z</time>
      </trkpt>
      <trkpt lat="42.497456000" lon="-2.596573000">
        <ele>402.60</ele>
        <time>2017-02-11T07:37:44Z</time>
      </trkpt>
      <trkpt lat="42.497491000" lon="-2.596615000">
        <ele>402.60</ele>
        <time>2017-02-11T07:37:45Z</time>
      </trkpt>
      <trkpt lat="42.497526000" lon="-2.596659000">
        <ele>402.70</ele>
        <time>2017-02-11T07:37:46Z</time>
      </trkpt>
      <trkpt lat="42.497557000" lon="-2.596704000">
        <ele>402.80</ele>
        <time>2017-02-11T07:37:47Z</time>
      </trkpt>
      <trkpt lat="42.497592000" lon="-2.596747000">
        <ele>402.80</ele>
        <time>2017-02-11T07:37:48Z</time>
      </trkpt>
      <trkpt lat="42.497626000" lon="-2.596797000">
        <ele>402.90</ele>
        <time>2017-02-11T07:37:49Z</time>
      </trkpt>
      <trkpt lat="42.497659000" lon="-2.596841000">
        <ele>402.90</ele>
        <time>2017-02-11T07:37:50Z</time>
      </trkpt>
      <trkpt lat="42.497690000" lon="-2.596884000">
        <ele>402.90</ele>
        <time>2017-02-11T07:37:51Z</time>
      </trkpt>
      <trkpt lat="42.497724000" lon="-2.596927000">
        <ele>402.80</ele>
        <time>2017-02-11T07:37:52Z</time>
      </trkpt>
      <trkpt lat="42.497759000" lon="-2.596969000">
        <ele>402.70</ele>
        <time>2017-02-11T07:37:53Z</time>
      </trkpt>
      <trkpt lat="42.497796000" lon="-2.597013000">
        <ele>402.50</ele>
        <time>2017-02-11T07:37:54Z</time>
      </trkpt>
      <trkpt lat="42.497831000" lon="-2.597061000">
        <ele>402.40</ele>
        <time>2017-02-11T07:37:55Z</time>
      </trkpt>
      <trkpt lat="42.497862000" lon="-2.597107000">
        <ele>402.30</ele>
        <time>2017-02-11T07:37:56Z</time>
      </trkpt>
      <trkpt lat="42.497893000" lon="-2.597146000">
        <ele>402.20</ele>
        <time>2017-02-11T07:37:57Z</time>
      </trkpt>
      <trkpt lat="42.497926000" lon="-2.597188000">
        <ele>402.10</ele>
        <time>2017-02-11T07:37:58Z</time>
      </trkpt>
      <trkpt lat="42.497957000" lon="-2.597234000">
        <ele>402.10</ele>
        <time>2017-02-11T07:37:59Z</time>
      </trkpt>
      <trkpt lat="42.497991000" lon="-2.597275000">
        <ele>402.20</ele>
        <time>2017-02-11T07:38:00Z</time>
      </trkpt>
      <trkpt lat="42.498023000" lon="-2.597317000">
        <ele>402.30</ele>
        <time>2017-02-11T07:38:01Z</time>
      </trkpt>
      <trkpt lat="42.498088000" lon="-2.597407000">
        <ele>402.40</ele>
        <time>2017-02-11T07:38:03Z</time>
      </trkpt>
      <trkpt lat="42.498122000" lon="-2.597453000">
        <ele>402.40</ele>
        <time>2017-02-11T07:38:04Z</time>
      </trkpt>
      <trkpt lat="42.498157000" lon="-2.597496000">
        <ele>402.40</ele>
        <time>2017-02-11T07:38:05Z</time>
      </trkpt>
      <trkpt lat="42.498189000" lon="-2.597538000">
        <ele>402.40</ele>
        <time>2017-02-11T07:38:06Z</time>
      </trkpt>
      <trkpt lat="42.498225000" lon="-2.597583000">
        <ele>402.40</ele>
        <time>2017-02-11T07:38:07Z</time>
      </trkpt>
      <trkpt lat="42.498261000" lon="-2.597627000">
        <ele>402.50</ele>
        <time>2017-02-11T07:38:08Z</time>
      </trkpt>
      <trkpt lat="42.498294000" lon="-2.597671000">
        <ele>402.60</ele>
        <time>2017-02-11T07:38:09Z</time>
      </trkpt>
      <trkpt lat="42.498327000" lon="-2.597718000">
        <ele>402.60</ele>
        <time>2017-02-11T07:38:10Z</time>
      </trkpt>
      <trkpt lat="42.498362000" lon="-2.597763000">
        <ele>402.60</ele>
        <time>2017-02-11T07:38:11Z</time>
      </trkpt>
      <trkpt lat="42.498397000" lon="-2.597810000">
        <ele>402.70</ele>
        <time>2017-02-11T07:38:12Z</time>
      </trkpt>
      <trkpt lat="42.498429000" lon="-2.597853000">
        <ele>402.70</ele>
        <time>2017-02-11T07:38:13Z</time>
      </trkpt>
      <trkpt lat="42.498461000" lon="-2.597899000">
        <ele>402.80</ele>
        <time>2017-02-11T07:38:14Z</time>
      </trkpt>
      <trkpt lat="42.498495000" lon="-2.597941000">
        <ele>402.80</ele>
        <time>2017-02-11T07:38:15Z</time>
      </trkpt>
      <trkpt lat="42.498528000" lon="-2.597988000">
        <ele>402.90</ele>
        <time>2017-02-11T07:38:16Z</time>
      </trkpt>
      <trkpt lat="42.498560000" lon="-2.598037000">
        <ele>402.90</ele>
        <time>2017-02-11T07:38:17Z</time>
      </trkpt>
      <trkpt lat="42.498594000" lon="-2.598083000">
        <ele>402.70</ele>
        <time>2017-02-11T07:38:18Z</time>
      </trkpt>
      <trkpt lat="42.498628000" lon="-2.598126000">
        <ele>402.60</ele>
        <time>2017-02-11T07:38:19Z</time>
      </trkpt>
      <trkpt lat="42.498662000" lon="-2.598168000">
        <ele>402.20</ele>
        <time>2017-02-11T07:38:20Z</time>
      </trkpt>
      <trkpt lat="42.498695000" lon="-2.598217000">
        <ele>401.90</ele>
        <time>2017-02-11T07:38:21Z</time>
      </trkpt>
      <trkpt lat="42.498727000" lon="-2.598266000">
        <ele>401.60</ele>
        <time>2017-02-11T07:38:22Z</time>
      </trkpt>
      <trkpt lat="42.498757000" lon="-2.598315000">
        <ele>401.50</ele>
        <time>2017-02-11T07:38:23Z</time>
      </trkpt>
      <trkpt lat="42.498787000" lon="-2.598363000">
        <ele>401.50</ele>
        <time>2017-02-11T07:38:24Z</time>
      </trkpt>
      <trkpt lat="42.498816000" lon="-2.598415000">
        <ele>401.60</ele>
        <time>2017-02-11T07:38:25Z</time>
      </trkpt>
      <trkpt lat="42.498851000" lon="-2.598465000">
        <ele>401.60</ele>
        <time>2017-02-11T07:38:26Z</time>
      </trkpt>
      <trkpt lat="42.498884000" lon="-2.598515000">
        <ele>401.60</ele>
        <time>2017-02-11T07:38:27Z</time>
      </trkpt>
      <trkpt lat="42.498917000" lon="-2.598565000">
        <ele>401.70</ele>
        <time>2017-02-11T07:38:28Z</time>
      </trkpt>
      <trkpt lat="42.498952000" lon="-2.598607000">
        <ele>401.80</ele>
        <time>2017-02-11T07:38:29Z</time>
      </trkpt>
      <trkpt lat="42.498985000" lon="-2.598653000">
        <ele>401.80</ele>
        <time>2017-02-11T07:38:30Z</time>
      </trkpt>
      <trkpt lat="42.499016000" lon="-2.598699000">
        <ele>401.90</ele>
        <time>2017-02-11T07:38:31Z</time>
      </trkpt>
      <trkpt lat="42.499049000" lon="-2.598744000">
        <ele>401.90</ele>
        <time>2017-02-11T07:38:32Z</time>
      </trkpt>
      <trkpt lat="42.499082000" lon="-2.598788000">
        <ele>401.90</ele>
        <time>2017-02-11T07:38:33Z</time>
      </trkpt>
      <trkpt lat="42.499118000" lon="-2.598829000">
        <ele>401.90</ele>
        <time>2017-02-11T07:38:34Z</time>
      </trkpt>
      <trkpt lat="42.499152000" lon="-2.598879000">
        <ele>401.90</ele>
        <time>2017-02-11T07:38:35Z</time>
      </trkpt>
      <trkpt lat="42.499186000" lon="-2.598920000">
        <ele>401.90</ele>
        <time>2017-02-11T07:38:36Z</time>
      </trkpt>
      <trkpt lat="42.499220000" lon="-2.598968000">
        <ele>401.90</ele>
        <time>2017-02-11T07:38:37Z</time>
      </trkpt>
      <trkpt lat="42.499260000" lon="-2.599015000">
        <ele>402.10</ele>
        <time>2017-02-11T07:38:38Z</time>
      </trkpt>
      <trkpt lat="42.499296000" lon="-2.599062000">
        <ele>402.20</ele>
        <time>2017-02-11T07:38:39Z</time>
      </trkpt>
      <trkpt lat="42.499332000" lon="-2.599104000">
        <ele>402.30</ele>
        <time>2017-02-11T07:38:40Z</time>
      </trkpt>
      <trkpt lat="42.499368000" lon="-2.599146000">
        <ele>402.30</ele>
        <time>2017-02-11T07:38:41Z</time>
      </trkpt>
      <trkpt lat="42.499404000" lon="-2.599192000">
        <ele>402.20</ele>
        <time>2017-02-11T07:38:42Z</time>
      </trkpt>
      <trkpt lat="42.499438000" lon="-2.599237000">
        <ele>402.20</ele>
        <time>2017-02-11T07:38:43Z</time>
      </trkpt>
      <trkpt lat="42.499473000" lon="-2.599282000">
        <ele>402.10</ele>
        <time>2017-02-11T07:38:44Z</time>
      </trkpt>
      <trkpt lat="42.499505000" lon="-2.599323000">
        <ele>402.10</ele>
        <time>2017-02-11T07:38:45Z</time>
      </trkpt>
      <trkpt lat="42.499537000" lon="-2.599365000">
        <ele>402.00</ele>
        <time>2017-02-11T07:38:46Z</time>
      </trkpt>
      <trkpt lat="42.499567000" lon="-2.599406000">
        <ele>401.90</ele>
        <time>2017-02-11T07:38:47Z</time>
      </trkpt>
      <trkpt lat="42.499596000" lon="-2.599449000">
        <ele>402.00</ele>
        <time>2017-02-11T07:38:48Z</time>
      </trkpt>
      <trkpt lat="42.499627000" lon="-2.599494000">
        <ele>402.10</ele>
        <time>2017-02-11T07:38:49Z</time>
      </trkpt>
      <trkpt lat="42.499661000" lon="-2.599530000">
        <ele>402.20</ele>
        <time>2017-02-11T07:38:50Z</time>
      </trkpt>
      <trkpt lat="42.499695000" lon="-2.599564000">
        <ele>402.20</ele>
        <time>2017-02-11T07:38:51Z</time>
      </trkpt>
      <trkpt lat="42.499733000" lon="-2.599602000">
        <ele>402.40</ele>
        <time>2017-02-11T07:38:52Z</time>
      </trkpt>
      <trkpt lat="42.499767000" lon="-2.599640000">
        <ele>402.50</ele>
        <time>2017-02-11T07:38:53Z</time>
      </trkpt>
      <trkpt lat="42.499799000" lon="-2.599681000">
        <ele>402.50</ele>
        <time>2017-02-11T07:38:54Z</time>
      </trkpt>
      <trkpt lat="42.499831000" lon="-2.599720000">
        <ele>402.60</ele>
        <time>2017-02-11T07:38:55Z</time>
      </trkpt>
      <trkpt lat="42.499862000" lon="-2.599759000">
        <ele>402.70</ele>
        <time>2017-02-11T07:38:56Z</time>
      </trkpt>
      <trkpt lat="42.499896000" lon="-2.599797000">
        <ele>402.80</ele>
        <time>2017-02-11T07:38:57Z</time>
      </trkpt>
      <trkpt lat="42.499929000" lon="-2.599836000">
        <ele>402.80</ele>
        <time>2017-02-11T07:38:58Z</time>
      </trkpt>
      <trkpt lat="42.499962000" lon="-2.599877000">
        <ele>402.80</ele>
        <time>2017-02-11T07:38:59Z</time>
      </trkpt>
      <trkpt lat="42.499994000" lon="-2.599916000">
        <ele>402.80</ele>
        <time>2017-02-11T07:39:00Z</time>
      </trkpt>
      <trkpt lat="42.500028000" lon="-2.599955000">
        <ele>402.70</ele>
        <time>2017-02-11T07:39:01Z</time>
      </trkpt>
      <trkpt lat="42.500064000" lon="-2.599988000">
        <ele>402.70</ele>
        <time>2017-02-11T07:39:02Z</time>
      </trkpt>
      <trkpt lat="42.500137000" lon="-2.600059000">
        <ele>402.70</ele>
        <time>2017-02-11T07:39:04Z</time>
      </trkpt>
      <trkpt lat="42.500177000" lon="-2.600094000">
        <ele>402.70</ele>
        <time>2017-02-11T07:39:05Z</time>
      </trkpt>
      <trkpt lat="42.500213000" lon="-2.600128000">
        <ele>402.70</ele>
        <time>2017-02-11T07:39:06Z</time>
      </trkpt>
      <trkpt lat="42.500252000" lon="-2.600165000">
        <ele>402.60</ele>
        <time>2017-02-11T07:39:07Z</time>
      </trkpt>
      <trkpt lat="42.500290000" lon="-2.600203000">
        <ele>402.50</ele>
        <time>2017-02-11T07:39:08Z</time>
      </trkpt>
      <trkpt lat="42.500327000" lon="-2.600237000">
        <ele>402.50</ele>
        <time>2017-02-11T07:39:09Z</time>
      </trkpt>
      <trkpt lat="42.500368000" lon="-2.600273000">
        <ele>402.40</ele>
        <time>2017-02-11T07:39:10Z</time>
      </trkpt>
      <trkpt lat="42.500409000" lon="-2.600307000">
        <ele>402.40</ele>
        <time>2017-02-11T07:39:11Z</time>
      </trkpt>
      <trkpt lat="42.500450000" lon="-2.600342000">
        <ele>402.40</ele>
        <time>2017-02-11T07:39:12Z</time>
      </trkpt>
      <trkpt lat="42.500491000" lon="-2.600375000">
        <ele>402.40</ele>
        <time>2017-02-11T07:39:13Z</time>
      </trkpt>
      <trkpt lat="42.500530000" lon="-2.600410000">
        <ele>402.40</ele>
        <time>2017-02-11T07:39:14Z</time>
      </trkpt>
      <trkpt lat="42.500570000" lon="-2.600444000">
        <ele>402.40</ele>
        <time>2017-02-11T07:39:15Z</time>
      </trkpt>
      <trkpt lat="42.500609000" lon="-2.600479000">
        <ele>402.40</ele>
        <time>2017-02-11T07:39:16Z</time>
      </trkpt>
      <trkpt lat="42.500649000" lon="-2.600508000">
        <ele>402.40</ele>
        <time>2017-02-11T07:39:17Z</time>
      </trkpt>
      <trkpt lat="42.500693000" lon="-2.600541000">
        <ele>402.50</ele>
        <time>2017-02-11T07:39:18Z</time>
      </trkpt>
      <trkpt lat="42.500733000" lon="-2.600577000">
        <ele>402.50</ele>
        <time>2017-02-11T07:39:19Z</time>
      </trkpt>
      <trkpt lat="42.500771000" lon="-2.600613000">
        <ele>402.50</ele>
        <time>2017-02-11T07:39:20Z</time>
      </trkpt>
      <trkpt lat="42.500810000" lon="-2.600645000">
        <ele>402.50</ele>
        <time>2017-02-11T07:39:21Z</time>
      </trkpt>
      <trkpt lat="42.500850000" lon="-2.600675000">
        <ele>402.50</ele>
        <time>2017-02-11T07:39:22Z</time>
      </trkpt>
      <trkpt lat="42.500892000" lon="-2.600703000">
        <ele>402.50</ele>
        <time>2017-02-11T07:39:23Z</time>
      </trkpt>
      <trkpt lat="42.500931000" lon="-2.600733000">
        <ele>402.50</ele>
        <time>2017-02-11T07:39:24Z</time>
      </trkpt>
      <trkpt lat="42.500972000" lon="-2.600762000">
        <ele>402.50</ele>
        <time>2017-02-11T07:39:25Z</time>
      </trkpt>
      <trkpt lat="42.501016000" lon="-2.600788000">
        <ele>402.50</ele>
        <time>2017-02-11T07:39:26Z</time>
      </trkpt>
      <trkpt lat="42.501060000" lon="-2.600818000">
        <ele>402.50</ele>
        <time>2017-02-11T07:39:27Z</time>
      </trkpt>
      <trkpt lat="42.501103000" lon="-2.600850000">
        <ele>402.30</ele>
        <time>2017-02-11T07:39:28Z</time>
      </trkpt>
      <trkpt lat="42.501144000" lon="-2.600885000">
        <ele>402.20</ele>
        <time>2017-02-11T07:39:29Z</time>
      </trkpt>
      <trkpt lat="42.501186000" lon="-2.600918000">
        <ele>402.10</ele>
        <time>2017-02-11T07:39:30Z</time>
      </trkpt>
      <trkpt lat="42.501228000" lon="-2.600955000">
        <ele>402.00</ele>
        <time>2017-02-11T07:39:31Z</time>
      </trkpt>
      <trkpt lat="42.501272000" lon="-2.600995000">
        <ele>402.00</ele>
        <time>2017-02-11T07:39:32Z</time>
      </trkpt>
      <trkpt lat="42.501314000" lon="-2.601041000">
        <ele>401.90</ele>
        <time>2017-02-11T07:39:33Z</time>
      </trkpt>
      <trkpt lat="42.501358000" lon="-2.601090000">
        <ele>401.90</ele>
        <time>2017-02-11T07:39:34Z</time>
      </trkpt>
      <trkpt lat="42.501402000" lon="-2.601148000">
        <ele>401.90</ele>
        <time>2017-02-11T07:39:35Z</time>
      </trkpt>
      <trkpt lat="42.501447000" lon="-2.601209000">
        <ele>401.60</ele>
        <time>2017-02-11T07:39:36Z</time>
      </trkpt>
      <trkpt lat="42.501493000" lon="-2.601275000">
        <ele>401.40</ele>
        <time>2017-02-11T07:39:37Z</time>
      </trkpt>
      <trkpt lat="42.501540000" lon="-2.601340000">
        <ele>401.20</ele>
        <time>2017-02-11T07:39:38Z</time>
      </trkpt>
      <trkpt lat="42.501589000" lon="-2.601400000">
        <ele>401.00</ele>
        <time>2017-02-11T07:39:39Z</time>
      </trkpt>
      <trkpt lat="42.501639000" lon="-2.601459000">
        <ele>400.70</ele>
        <time>2017-02-11T07:39:40Z</time>
      </trkpt>
      <trkpt lat="42.501688000" lon="-2.601515000">
        <ele>400.40</ele>
        <time>2017-02-11T07:39:41Z</time>
      </trkpt>
      <trkpt lat="42.501735000" lon="-2.601566000">
        <ele>400.30</ele>
        <time>2017-02-11T07:39:42Z</time>
      </trkpt>
      <trkpt lat="42.501780000" lon="-2.601618000">
        <ele>400.10</ele>
        <time>2017-02-11T07:39:43Z</time>
      </trkpt>
      <trkpt lat="42.501826000" lon="-2.601669000">
        <ele>400.00</ele>
        <time>2017-02-11T07:39:44Z</time>
      </trkpt>
      <trkpt lat="42.501873000" lon="-2.601720000">
        <ele>399.90</ele>
        <time>2017-02-11T07:39:45Z</time>
      </trkpt>
      <trkpt lat="42.501919000" lon="-2.601766000">
        <ele>399.90</ele>
        <time>2017-02-11T07:39:46Z</time>
      </trkpt>
      <trkpt lat="42.501963000" lon="-2.601813000">
        <ele>400.00</ele>
        <time>2017-02-11T07:39:47Z</time>
      </trkpt>
      <trkpt lat="42.502003000" lon="-2.601857000">
        <ele>400.00</ele>
        <time>2017-02-11T07:39:48Z</time>
      </trkpt>
      <trkpt lat="42.502038000" lon="-2.601897000">
        <ele>400.00</ele>
        <time>2017-02-11T07:39:49Z</time>
      </trkpt>
      <trkpt lat="42.502073000" lon="-2.601934000">
        <ele>400.00</ele>
        <time>2017-02-11T07:39:50Z</time>
      </trkpt>
      <trkpt lat="42.502107000" lon="-2.601969000">
        <ele>400.00</ele>
        <time>2017-02-11T07:39:51Z</time>
      </trkpt>
      <trkpt lat="42.502137000" lon="-2.602002000">
        <ele>400.20</ele>
        <time>2017-02-11T07:39:52Z</time>
      </trkpt>
      <trkpt lat="42.502168000" lon="-2.602032000">
        <ele>400.40</ele>
        <time>2017-02-11T07:39:53Z</time>
      </trkpt>
      <trkpt lat="42.502197000" lon="-2.602067000">
        <ele>400.50</ele>
        <time>2017-02-11T07:39:54Z</time>
      </trkpt>
      <trkpt lat="42.502227000" lon="-2.602103000">
        <ele>400.60</ele>
        <time>2017-02-11T07:39:55Z</time>
      </trkpt>
      <trkpt lat="42.502257000" lon="-2.602142000">
        <ele>400.60</ele>
        <time>2017-02-11T07:39:56Z</time>
      </trkpt>
      <trkpt lat="42.502283000" lon="-2.602183000">
        <ele>400.60</ele>
        <time>2017-02-11T07:39:57Z</time>
      </trkpt>
      <trkpt lat="42.502308000" lon="-2.602228000">
        <ele>400.60</ele>
        <time>2017-02-11T07:39:58Z</time>
      </trkpt>
      <trkpt lat="42.502331000" lon="-2.602275000">
        <ele>400.70</ele>
        <time>2017-02-11T07:39:59Z</time>
      </trkpt>
      <trkpt lat="42.502354000" lon="-2.602321000">
        <ele>401.20</ele>
        <time>2017-02-11T07:40:00Z</time>
      </trkpt>
      <trkpt lat="42.502376000" lon="-2.602368000">
        <ele>401.60</ele>
        <time>2017-02-11T07:40:01Z</time>
      </trkpt>
      <trkpt lat="42.502399000" lon="-2.602414000">
        <ele>401.90</ele>
        <time>2017-02-11T07:40:02Z</time>
      </trkpt>
      <trkpt lat="42.502423000" lon="-2.602460000">
        <ele>402.10</ele>
        <time>2017-02-11T07:40:03Z</time>
      </trkpt>
      <trkpt lat="42.502473000" lon="-2.602558000">
        <ele>402.20</ele>
        <time>2017-02-11T07:40:05Z</time>
      </trkpt>
      <trkpt lat="42.502498000" lon="-2.602606000">
        <ele>402.30</ele>
        <time>2017-02-11T07:40:06Z</time>
      </trkpt>
      <trkpt lat="42.502525000" lon="-2.602654000">
        <ele>402.30</ele>
        <time>2017-02-11T07:40:07Z</time>
      </trkpt>
      <trkpt lat="42.502553000" lon="-2.602698000">
        <ele>402.30</ele>
        <time>2017-02-11T07:40:08Z</time>
      </trkpt>
      <trkpt lat="42.502580000" lon="-2.602739000">
        <ele>402.30</ele>
        <time>2017-02-11T07:40:09Z</time>
      </trkpt>
      <trkpt lat="42.502611000" lon="-2.602779000">
        <ele>402.40</ele>
        <time>2017-02-11T07:40:10Z</time>
      </trkpt>
      <trkpt lat="42.502639000" lon="-2.602818000">
        <ele>402.50</ele>
        <time>2017-02-11T07:40:11Z</time>
      </trkpt>
      <trkpt lat="42.502669000" lon="-2.602857000">
        <ele>402.90</ele>
        <time>2017-02-11T07:40:12Z</time>
      </trkpt>
      <trkpt lat="42.502700000" lon="-2.602894000">
        <ele>403.20</ele>
        <time>2017-02-11T07:40:13Z</time>
      </trkpt>
      <trkpt lat="42.502729000" lon="-2.602930000">
        <ele>403.50</ele>
        <time>2017-02-11T07:40:14Z</time>
      </trkpt>
      <trkpt lat="42.502757000" lon="-2.602965000">
        <ele>403.80</ele>
        <time>2017-02-11T07:40:15Z</time>
      </trkpt>
      <trkpt lat="42.502786000" lon="-2.603003000">
        <ele>404.00</ele>
        <time>2017-02-11T07:40:16Z</time>
      </trkpt>
      <trkpt lat="42.502817000" lon="-2.603038000">
        <ele>404.10</ele>
        <time>2017-02-11T07:40:17Z</time>
      </trkpt>
      <trkpt lat="42.502847000" lon="-2.603077000">
        <ele>404.20</ele>
        <time>2017-02-11T07:40:18Z</time>
      </trkpt>
      <trkpt lat="42.502877000" lon="-2.603117000">
        <ele>404.40</ele>
        <time>2017-02-11T07:40:19Z</time>
      </trkpt>
      <trkpt lat="42.502905000" lon="-2.603161000">
        <ele>404.50</ele>
        <time>2017-02-11T07:40:20Z</time>
      </trkpt>
      <trkpt lat="42.502929000" lon="-2.603206000">
        <ele>404.50</ele>
        <time>2017-02-11T07:40:21Z</time>
      </trkpt>
      <trkpt lat="42.502955000" lon="-2.603252000">
        <ele>404.60</ele>
        <time>2017-02-11T07:40:22Z</time>
      </trkpt>
      <trkpt lat="42.502981000" lon="-2.603295000">
        <ele>404.60</ele>
        <time>2017-02-11T07:40:23Z</time>
      </trkpt>
      <trkpt lat="42.503006000" lon="-2.603340000">
        <ele>404.50</ele>
        <time>2017-02-11T07:40:24Z</time>
      </trkpt>
      <trkpt lat="42.503031000" lon="-2.603384000">
        <ele>404.40</ele>
        <time>2017-02-11T07:40:25Z</time>
      </trkpt>
      <trkpt lat="42.503056000" lon="-2.603433000">
        <ele>404.20</ele>
        <time>2017-02-11T07:40:26Z</time>
      </trkpt>
      <trkpt lat="42.503080000" lon="-2.603485000">
        <ele>404.00</ele>
        <time>2017-02-11T07:40:27Z</time>
      </trkpt>
      <trkpt lat="42.503106000" lon="-2.603535000">
        <ele>403.70</ele>
        <time>2017-02-11T07:40:28Z</time>
      </trkpt>
      <trkpt lat="42.503135000" lon="-2.603581000">
        <ele>403.50</ele>
        <time>2017-02-11T07:40:29Z</time>
      </trkpt>
      <trkpt lat="42.503164000" lon="-2.603629000">
        <ele>403.50</ele>
        <time>2017-02-11T07:40:30Z</time>
      </trkpt>
      <trkpt lat="42.503195000" lon="-2.603680000">
        <ele>403.50</ele>
        <time>2017-02-11T07:40:31Z</time>
      </trkpt>
      <trkpt lat="42.503222000" lon="-2.603733000">
        <ele>403.40</ele>
        <time>2017-02-11T07:40:32Z</time>
      </trkpt>
      <trkpt lat="42.503248000" lon="-2.603784000">
        <ele>403.30</ele>
        <time>2017-02-11T07:40:33Z</time>
      </trkpt>
      <trkpt lat="42.503276000" lon="-2.603839000">
        <ele>403.40</ele>
        <time>2017-02-11T07:40:34Z</time>
      </trkpt>
      <trkpt lat="42.503304000" lon="-2.603896000">
        <ele>403.40</ele>
        <time>2017-02-11T07:40:35Z</time>
      </trkpt>
      <trkpt lat="42.503330000" lon="-2.603948000">
        <ele>403.30</ele>
        <time>2017-02-11T07:40:36Z</time>
      </trkpt>
      <trkpt lat="42.503358000" lon="-2.604000000">
        <ele>403.30</ele>
        <time>2017-02-11T07:40:37Z</time>
      </trkpt>
      <trkpt lat="42.503387000" lon="-2.604055000">
        <ele>403.20</ele>
        <time>2017-02-11T07:40:38Z</time>
      </trkpt>
      <trkpt lat="42.503415000" lon="-2.604107000">
        <ele>403.10</ele>
        <time>2017-02-11T07:40:39Z</time>
      </trkpt>
      <trkpt lat="42.503445000" lon="-2.604162000">
        <ele>403.10</ele>
        <time>2017-02-11T07:40:40Z</time>
      </trkpt>
      <trkpt lat="42.503472000" lon="-2.604220000">
        <ele>403.00</ele>
        <time>2017-02-11T07:40:41Z</time>
      </trkpt>
      <trkpt lat="42.503495000" lon="-2.604279000">
        <ele>403.00</ele>
        <time>2017-02-11T07:40:42Z</time>
      </trkpt>
      <trkpt lat="42.503520000" lon="-2.604341000">
        <ele>403.00</ele>
        <time>2017-02-11T07:40:43Z</time>
      </trkpt>
      <trkpt lat="42.503549000" lon="-2.604403000">
        <ele>402.80</ele>
        <time>2017-02-11T07:40:44Z</time>
      </trkpt>
      <trkpt lat="42.503578000" lon="-2.604470000">
        <ele>402.60</ele>
        <time>2017-02-11T07:40:45Z</time>
      </trkpt>
      <trkpt lat="42.503605000" lon="-2.604542000">
        <ele>402.40</ele>
        <time>2017-02-11T07:40:46Z</time>
      </trkpt>
      <trkpt lat="42.503630000" lon="-2.604620000">
        <ele>402.30</ele>
        <time>2017-02-11T07:40:47Z</time>
      </trkpt>
      <trkpt lat="42.503654000" lon="-2.604703000">
        <ele>402.10</ele>
        <time>2017-02-11T07:40:48Z</time>
      </trkpt>
      <trkpt lat="42.503678000" lon="-2.604788000">
        <ele>402.00</ele>
        <time>2017-02-11T07:40:49Z</time>
      </trkpt>
      <trkpt lat="42.503707000" lon="-2.604873000">
        <ele>401.80</ele>
        <time>2017-02-11T07:40:50Z</time>
      </trkpt>
      <trkpt lat="42.503740000" lon="-2.604945000">
        <ele>401.60</ele>
        <time>2017-02-11T07:40:51Z</time>
      </trkpt>
      <trkpt lat="42.503777000" lon="-2.605017000">
        <ele>401.50</ele>
        <time>2017-02-11T07:40:52Z</time>
      </trkpt>
      <trkpt lat="42.503815000" lon="-2.605088000">
        <ele>401.40</ele>
        <time>2017-02-11T07:40:53Z</time>
      </trkpt>
      <trkpt lat="42.503853000" lon="-2.605155000">
        <ele>401.00</ele>
        <time>2017-02-11T07:40:54Z</time>
      </trkpt>
      <trkpt lat="42.503888000" lon="-2.605218000">
        <ele>400.60</ele>
        <time>2017-02-11T07:40:55Z</time>
      </trkpt>
      <trkpt lat="42.503920000" lon="-2.605282000">
        <ele>400.40</ele>
        <time>2017-02-11T07:40:56Z</time>
      </trkpt>
      <trkpt lat="42.503950000" lon="-2.605331000">
        <ele>400.20</ele>
        <time>2017-02-11T07:40:57Z</time>
      </trkpt>
      <trkpt lat="42.503973000" lon="-2.605376000">
        <ele>400.10</ele>
        <time>2017-02-11T07:40:58Z</time>
      </trkpt>
      <trkpt lat="42.503997000" lon="-2.605422000">
        <ele>400.00</ele>
        <time>2017-02-11T07:40:59Z</time>
      </trkpt>
      <trkpt lat="42.504017000" lon="-2.605470000">
        <ele>399.90</ele>
        <time>2017-02-11T07:41:00Z</time>
      </trkpt>
      <trkpt lat="42.504038000" lon="-2.605517000">
        <ele>399.80</ele>
        <time>2017-02-11T07:41:01Z</time>
      </trkpt>
      <trkpt lat="42.504063000" lon="-2.605561000">
        <ele>399.80</ele>
        <time>2017-02-11T07:41:02Z</time>
      </trkpt>
      <trkpt lat="42.504093000" lon="-2.605602000">
        <ele>399.70</ele>
        <time>2017-02-11T07:41:03Z</time>
      </trkpt>
      <trkpt lat="42.504133000" lon="-2.605632000">
        <ele>399.80</ele>
        <time>2017-02-11T07:41:04Z</time>
      </trkpt>
      <trkpt lat="42.504219000" lon="-2.605663000">
        <ele>400.00</ele>
        <time>2017-02-11T07:41:06Z</time>
      </trkpt>
      <trkpt lat="42.504264000" lon="-2.605671000">
        <ele>400.10</ele>
        <time>2017-02-11T07:41:07Z</time>
      </trkpt>
      <trkpt lat="42.504309000" lon="-2.605675000">
        <ele>400.20</ele>
        <time>2017-02-11T07:41:08Z</time>
      </trkpt>
      <trkpt lat="42.504352000" lon="-2.605673000">
        <ele>400.20</ele>
        <time>2017-02-11T07:41:09Z</time>
      </trkpt>
      <trkpt lat="42.504391000" lon="-2.605666000">
        <ele>400.30</ele>
        <time>2017-02-11T07:41:10Z</time>
      </trkpt>
      <trkpt lat="42.504428000" lon="-2.605650000">
        <ele>400.30</ele>
        <time>2017-02-11T07:41:11Z</time>
      </trkpt>
      <trkpt lat="42.504463000" lon="-2.605631000">
        <ele>400.30</ele>
        <time>2017-02-11T07:41:12Z</time>
      </trkpt>
      <trkpt lat="42.504500000" lon="-2.605620000">
        <ele>400.40</ele>
        <time>2017-02-11T07:41:13Z</time>
      </trkpt>
      <trkpt lat="42.504539000" lon="-2.605619000">
        <ele>400.40</ele>
        <time>2017-02-11T07:41:14Z</time>
      </trkpt>
      <trkpt lat="42.504576000" lon="-2.605627000">
        <ele>400.40</ele>
        <time>2017-02-11T07:41:15Z</time>
      </trkpt>
      <trkpt lat="42.504616000" lon="-2.605636000">
        <ele>400.50</ele>
        <time>2017-02-11T07:41:16Z</time>
      </trkpt>
      <trkpt lat="42.504653000" lon="-2.605644000">
        <ele>400.50</ele>
        <time>2017-02-11T07:41:17Z</time>
      </trkpt>
      <trkpt lat="42.504688000" lon="-2.605662000">
        <ele>400.50</ele>
        <time>2017-02-11T07:41:18Z</time>
      </trkpt>
      <trkpt lat="42.504713000" lon="-2.605700000">
        <ele>400.60</ele>
        <time>2017-02-11T07:41:19Z</time>
      </trkpt>
      <trkpt lat="42.504717000" lon="-2.605748000">
        <ele>400.90</ele>
        <time>2017-02-11T07:41:20Z</time>
      </trkpt>
      <trkpt lat="42.504703000" lon="-2.605792000">
        <ele>401.10</ele>
        <time>2017-02-11T07:41:21Z</time>
      </trkpt>
      <trkpt lat="42.504680000" lon="-2.605831000">
        <ele>401.20</ele>
        <time>2017-02-11T07:41:22Z</time>
      </trkpt>
      <trkpt lat="42.504649000" lon="-2.605857000">
        <ele>401.30</ele>
        <time>2017-02-11T07:41:23Z</time>
      </trkpt>
      <trkpt lat="42.504615000" lon="-2.605875000">
        <ele>401.20</ele>
        <time>2017-02-11T07:41:24Z</time>
      </trkpt>
      <trkpt lat="42.504580000" lon="-2.605885000">
        <ele>401.00</ele>
        <time>2017-02-11T07:41:25Z</time>
      </trkpt>
      <trkpt lat="42.504546000" lon="-2.605892000">
        <ele>401.00</ele>
        <time>2017-02-11T07:41:26Z</time>
      </trkpt>
      <trkpt lat="42.504520000" lon="-2.605902000">
        <ele>400.90</ele>
        <time>2017-02-11T07:41:27Z</time>
      </trkpt>
      <trkpt lat="42.504498000" lon="-2.605911000">
        <ele>400.90</ele>
        <time>2017-02-11T07:41:28Z</time>
      </trkpt>
      <trkpt lat="42.504479000" lon="-2.605921000">
        <ele>400.90</ele>
        <time>2017-02-11T07:41:29Z</time>
      </trkpt>
      <trkpt lat="42.504458000" lon="-2.605929000">
        <ele>401.00</ele>
        <time>2017-02-11T07:41:30Z</time>
      </trkpt>
      <trkpt lat="42.504440000" lon="-2.605934000">
        <ele>401.00</ele>
        <time>2017-02-11T07:41:31Z</time>
      </trkpt>
      <trkpt lat="42.504428000" lon="-2.605934000">
        <ele>401.20</ele>
        <time>2017-02-11T07:41:32Z</time>
      </trkpt>
      <trkpt lat="42.504421000" lon="-2.605935000">
        <ele>401.30</ele>
        <time>2017-02-11T07:41:33Z</time>
      </trkpt>
      <trkpt lat="42.504412000" lon="-2.605940000">
        <ele>401.30</ele>
        <time>2017-02-11T07:41:34Z</time>
      </trkpt>
      <trkpt lat="42.504408000" lon="-2.605941000">
        <ele>401.30</ele>
        <time>2017-02-11T07:41:35Z</time>
      </trkpt>
      <trkpt lat="42.504402000" lon="-2.605941000">
        <ele>401.40</ele>
        <time>2017-02-11T07:41:36Z</time>
      </trkpt>
      <trkpt lat="42.504400000" lon="-2.605937000">
        <ele>401.50</ele>
        <time>2017-02-11T07:41:37Z</time>
      </trkpt>
      <trkpt lat="42.504401000" lon="-2.605936000">
        <ele>401.50</ele>
        <time>2017-02-11T07:41:38Z</time>
      </trkpt>
      <trkpt lat="42.504401000" lon="-2.605935000">
        <ele>401.60</ele>
        <time>2017-02-11T07:41:39Z</time>
      </trkpt>
      <trkpt lat="42.504402000" lon="-2.605932000">
        <ele>401.70</ele>
        <time>2017-02-11T07:41:40Z</time>
      </trkpt>
      <trkpt lat="42.504402000" lon="-2.605931000">
        <ele>401.70</ele>
        <time>2017-02-11T07:41:41Z</time>
      </trkpt>
      <trkpt lat="42.504403000" lon="-2.605931000">
        <ele>401.70</ele>
        <time>2017-02-11T07:41:42Z</time>
      </trkpt>
      <trkpt lat="42.504404000" lon="-2.605930000">
        <ele>401.70</ele>
        <time>2017-02-11T07:41:43Z</time>
      </trkpt>
      <trkpt lat="42.504403000" lon="-2.605928000">
        <ele>401.80</ele>
        <time>2017-02-11T07:41:44Z</time>
      </trkpt>
      <trkpt lat="42.504404000" lon="-2.605928000">
        <ele>401.80</ele>
        <time>2017-02-11T07:41:45Z</time>
      </trkpt>
      <trkpt lat="42.504403000" lon="-2.605926000">
        <ele>401.90</ele>
        <time>2017-02-11T07:41:46Z</time>
      </trkpt>
      <trkpt lat="42.504404000" lon="-2.605924000">
        <ele>401.90</ele>
        <time>2017-02-11T07:41:47Z</time>
      </trkpt>
      <trkpt lat="42.504403000" lon="-2.605924000">
        <ele>401.90</ele>
        <time>2017-02-11T07:41:48Z</time>
      </trkpt>
      <trkpt lat="42.504404000" lon="-2.605924000">
        <ele>401.90</ele>
        <time>2017-02-11T07:41:49Z</time>
      </trkpt>
      <trkpt lat="42.504403000" lon="-2.605924000">
        <ele>401.90</ele>
        <time>2017-02-11T07:41:50Z</time>
      </trkpt>
      <trkpt lat="42.504402000" lon="-2.605925000">
        <ele>401.90</ele>
        <time>2017-02-11T07:41:51Z</time>
      </trkpt>
      <trkpt lat="42.504390000" lon="-2.605936000">
        <ele>401.90</ele>
        <time>2017-02-11T07:41:52Z</time>
      </trkpt>
      <trkpt lat="42.504377000" lon="-2.605944000">
        <ele>401.90</ele>
        <time>2017-02-11T07:41:53Z</time>
      </trkpt>
      <trkpt lat="42.504366000" lon="-2.605951000">
        <ele>401.90</ele>
        <time>2017-02-11T07:41:54Z</time>
      </trkpt>
      <trkpt lat="42.504350000" lon="-2.605965000">
        <ele>401.80</ele>
        <time>2017-02-11T07:41:55Z</time>
      </trkpt>
      <trkpt lat="42.504334000" lon="-2.605977000">
        <ele>401.90</ele>
        <time>2017-02-11T07:41:56Z</time>
      </trkpt>
      <trkpt lat="42.504316000" lon="-2.605991000">
        <ele>402.00</ele>
        <time>2017-02-11T07:41:57Z</time>
      </trkpt>
      <trkpt lat="42.504299000" lon="-2.606009000">
        <ele>401.90</ele>
        <time>2017-02-11T07:41:58Z</time>
      </trkpt>
      <trkpt lat="42.504281000" lon="-2.606029000">
        <ele>401.90</ele>
        <time>2017-02-11T07:41:59Z</time>
      </trkpt>
      <trkpt lat="42.504261000" lon="-2.606052000">
        <ele>401.90</ele>
        <time>2017-02-11T07:42:00Z</time>
      </trkpt>
      <trkpt lat="42.504241000" lon="-2.606079000">
        <ele>402.00</ele>
        <time>2017-02-11T07:42:01Z</time>
      </trkpt>
      <trkpt lat="42.504225000" lon="-2.606108000">
        <ele>402.00</ele>
        <time>2017-02-11T07:42:02Z</time>
      </trkpt>
      <trkpt lat="42.504209000" lon="-2.606135000">
        <ele>402.10</ele>
        <time>2017-02-11T07:42:03Z</time>
      </trkpt>
      <trkpt lat="42.504193000" lon="-2.606162000">
        <ele>402.10</ele>
        <time>2017-02-11T07:42:04Z</time>
      </trkpt>
      <trkpt lat="42.504180000" lon="-2.606196000">
        <ele>402.10</ele>
        <time>2017-02-11T07:42:05Z</time>
      </trkpt>
      <trkpt lat="42.504169000" lon="-2.606270000">
        <ele>402.10</ele>
        <time>2017-02-11T07:42:07Z</time>
      </trkpt>
      <trkpt lat="42.504164000" lon="-2.606308000">
        <ele>402.20</ele>
        <time>2017-02-11T07:42:08Z</time>
      </trkpt>
      <trkpt lat="42.504163000" lon="-2.606352000">
        <ele>402.20</ele>
        <time>2017-02-11T07:42:09Z</time>
      </trkpt>
      <trkpt lat="42.504163000" lon="-2.606391000">
        <ele>402.30</ele>
        <time>2017-02-11T07:42:10Z</time>
      </trkpt>
      <trkpt lat="42.504164000" lon="-2.606433000">
        <ele>402.30</ele>
        <time>2017-02-11T07:42:11Z</time>
      </trkpt>
      <trkpt lat="42.504162000" lon="-2.606476000">
        <ele>402.40</ele>
        <time>2017-02-11T07:42:12Z</time>
      </trkpt>
      <trkpt lat="42.504162000" lon="-2.606522000">
        <ele>402.50</ele>
        <time>2017-02-11T07:42:13Z</time>
      </trkpt>
      <trkpt lat="42.504166000" lon="-2.606569000">
        <ele>402.60</ele>
        <time>2017-02-11T07:42:14Z</time>
      </trkpt>
      <trkpt lat="42.504165000" lon="-2.606617000">
        <ele>402.70</ele>
        <time>2017-02-11T07:42:15Z</time>
      </trkpt>
      <trkpt lat="42.504161000" lon="-2.606663000">
        <ele>402.70</ele>
        <time>2017-02-11T07:42:16Z</time>
      </trkpt>
      <trkpt lat="42.504162000" lon="-2.606716000">
        <ele>402.80</ele>
        <time>2017-02-11T07:42:17Z</time>
      </trkpt>
      <trkpt lat="42.504158000" lon="-2.606765000">
        <ele>402.80</ele>
        <time>2017-02-11T07:42:18Z</time>
      </trkpt>
      <trkpt lat="42.504153000" lon="-2.606815000">
        <ele>402.80</ele>
        <time>2017-02-11T07:42:19Z</time>
      </trkpt>
      <trkpt lat="42.504148000" lon="-2.606863000">
        <ele>402.90</ele>
        <time>2017-02-11T07:42:20Z</time>
      </trkpt>
      <trkpt lat="42.504147000" lon="-2.606912000">
        <ele>402.90</ele>
        <time>2017-02-11T07:42:21Z</time>
      </trkpt>
      <trkpt lat="42.504144000" lon="-2.606964000">
        <ele>402.90</ele>
        <time>2017-02-11T07:42:22Z</time>
      </trkpt>
      <trkpt lat="42.504141000" lon="-2.607015000">
        <ele>402.90</ele>
        <time>2017-02-11T07:42:23Z</time>
      </trkpt>
      <trkpt lat="42.504140000" lon="-2.607064000">
        <ele>402.90</ele>
        <time>2017-02-11T07:42:24Z</time>
      </trkpt>
      <trkpt lat="42.504139000" lon="-2.607115000">
        <ele>402.90</ele>
        <time>2017-02-11T07:42:25Z</time>
      </trkpt>
      <trkpt lat="42.504138000" lon="-2.607165000">
        <ele>402.90</ele>
        <time>2017-02-11T07:42:26Z</time>
      </trkpt>
      <trkpt lat="42.504137000" lon="-2.607212000">
        <ele>402.90</ele>
        <time>2017-02-11T07:42:27Z</time>
      </trkpt>
      <trkpt lat="42.504140000" lon="-2.607259000">
        <ele>403.10</ele>
        <time>2017-02-11T07:42:28Z</time>
      </trkpt>
      <trkpt lat="42.504140000" lon="-2.607304000">
        <ele>403.30</ele>
        <time>2017-02-11T07:42:29Z</time>
      </trkpt>
      <trkpt lat="42.504140000" lon="-2.607347000">
        <ele>403.40</ele>
        <time>2017-02-11T07:42:30Z</time>
      </trkpt>
      <trkpt lat="42.504139000" lon="-2.607391000">
        <ele>403.40</ele>
        <time>2017-02-11T07:42:31Z</time>
      </trkpt>
      <trkpt lat="42.504144000" lon="-2.607432000">
        <ele>403.50</ele>
        <time>2017-02-11T07:42:32Z</time>
      </trkpt>
      <trkpt lat="42.504147000" lon="-2.607470000">
        <ele>403.60</ele>
        <time>2017-02-11T07:42:33Z</time>
      </trkpt>
      <trkpt lat="42.504148000" lon="-2.607510000">
        <ele>403.70</ele>
        <time>2017-02-11T07:42:34Z</time>
      </trkpt>
      <trkpt lat="42.504150000" lon="-2.607552000">
        <ele>403.80</ele>
        <time>2017-02-11T07:42:35Z</time>
      </trkpt>
      <trkpt lat="42.504152000" lon="-2.607582000">
        <ele>404.10</ele>
        <time>2017-02-11T07:42:36Z</time>
      </trkpt>
      <trkpt lat="42.504159000" lon="-2.607611000">
        <ele>404.20</ele>
        <time>2017-02-11T07:42:37Z</time>
      </trkpt>
      <trkpt lat="42.504161000" lon="-2.607644000">
        <ele>404.40</ele>
        <time>2017-02-11T07:42:38Z</time>
      </trkpt>
      <trkpt lat="42.504164000" lon="-2.607676000">
        <ele>404.40</ele>
        <time>2017-02-11T07:42:39Z</time>
      </trkpt>
      <trkpt lat="42.504164000" lon="-2.607710000">
        <ele>404.50</ele>
        <time>2017-02-11T07:42:40Z</time>
      </trkpt>
      <trkpt lat="42.504167000" lon="-2.607746000">
        <ele>404.60</ele>
        <time>2017-02-11T07:42:41Z</time>
      </trkpt>
      <trkpt lat="42.504167000" lon="-2.607782000">
        <ele>404.60</ele>
        <time>2017-02-11T07:42:42Z</time>
      </trkpt>
      <trkpt lat="42.504171000" lon="-2.607813000">
        <ele>404.60</ele>
        <time>2017-02-11T07:42:43Z</time>
      </trkpt>
      <trkpt lat="42.504175000" lon="-2.607845000">
        <ele>404.80</ele>
        <time>2017-02-11T07:42:44Z</time>
      </trkpt>
      <trkpt lat="42.504179000" lon="-2.607880000">
        <ele>404.90</ele>
        <time>2017-02-11T07:42:45Z</time>
      </trkpt>
      <trkpt lat="42.504185000" lon="-2.607914000">
        <ele>405.20</ele>
        <time>2017-02-11T07:42:46Z</time>
      </trkpt>
      <trkpt lat="42.504189000" lon="-2.607952000">
        <ele>405.50</ele>
        <time>2017-02-11T07:42:47Z</time>
      </trkpt>
      <trkpt lat="42.504193000" lon="-2.607996000">
        <ele>405.70</ele>
        <time>2017-02-11T07:42:48Z</time>
      </trkpt>
      <trkpt lat="42.504205000" lon="-2.608036000">
        <ele>405.90</ele>
        <time>2017-02-11T07:42:49Z</time>
      </trkpt>
      <trkpt lat="42.504216000" lon="-2.608072000">
        <ele>406.10</ele>
        <time>2017-02-11T07:42:50Z</time>
      </trkpt>
      <trkpt lat="42.504227000" lon="-2.608115000">
        <ele>406.30</ele>
        <time>2017-02-11T07:42:51Z</time>
      </trkpt>
      <trkpt lat="42.504236000" lon="-2.608154000">
        <ele>406.40</ele>
        <time>2017-02-11T07:42:52Z</time>
      </trkpt>
      <trkpt lat="42.504249000" lon="-2.608184000">
        <ele>406.60</ele>
        <time>2017-02-11T07:42:53Z</time>
      </trkpt>
      <trkpt lat="42.504261000" lon="-2.608219000">
        <ele>406.70</ele>
        <time>2017-02-11T07:42:54Z</time>
      </trkpt>
      <trkpt lat="42.504269000" lon="-2.608255000">
        <ele>406.80</ele>
        <time>2017-02-11T07:42:55Z</time>
      </trkpt>
      <trkpt lat="42.504284000" lon="-2.608282000">
        <ele>406.80</ele>
        <time>2017-02-11T07:42:56Z</time>
      </trkpt>
      <trkpt lat="42.504301000" lon="-2.608315000">
        <ele>406.90</ele>
        <time>2017-02-11T07:42:57Z</time>
      </trkpt>
      <trkpt lat="42.504316000" lon="-2.608356000">
        <ele>406.80</ele>
        <time>2017-02-11T07:42:58Z</time>
      </trkpt>
      <trkpt lat="42.504328000" lon="-2.608391000">
        <ele>406.80</ele>
        <time>2017-02-11T07:42:59Z</time>
      </trkpt>
      <trkpt lat="42.504342000" lon="-2.608422000">
        <ele>406.80</ele>
        <time>2017-02-11T07:43:00Z</time>
      </trkpt>
      <trkpt lat="42.504350000" lon="-2.608459000">
        <ele>406.80</ele>
        <time>2017-02-11T07:43:01Z</time>
      </trkpt>
      <trkpt lat="42.504353000" lon="-2.608493000">
        <ele>406.80</ele>
        <time>2017-02-11T07:43:02Z</time>
      </trkpt>
      <trkpt lat="42.504348000" lon="-2.608530000">
        <ele>406.90</ele>
        <time>2017-02-11T07:43:03Z</time>
      </trkpt>
      <trkpt lat="42.504336000" lon="-2.608566000">
        <ele>407.00</ele>
        <time>2017-02-11T07:43:04Z</time>
      </trkpt>
      <trkpt lat="42.504317000" lon="-2.608594000">
        <ele>407.00</ele>
        <time>2017-02-11T07:43:05Z</time>
      </trkpt>
      <trkpt lat="42.504293000" lon="-2.608616000">
        <ele>407.30</ele>
        <time>2017-02-11T07:43:06Z</time>
      </trkpt>
      <trkpt lat="42.504228000" lon="-2.608635000">
        <ele>407.70</ele>
        <time>2017-02-11T07:43:08Z</time>
      </trkpt>
      <trkpt lat="42.504192000" lon="-2.608634000">
        <ele>407.80</ele>
        <time>2017-02-11T07:43:09Z</time>
      </trkpt>
      <trkpt lat="42.504161000" lon="-2.608631000">
        <ele>408.00</ele>
        <time>2017-02-11T07:43:10Z</time>
      </trkpt>
      <trkpt lat="42.504130000" lon="-2.608625000">
        <ele>408.20</ele>
        <time>2017-02-11T07:43:11Z</time>
      </trkpt>
      <trkpt lat="42.504099000" lon="-2.608617000">
        <ele>408.20</ele>
        <time>2017-02-11T07:43:12Z</time>
      </trkpt>
      <trkpt lat="42.504070000" lon="-2.608615000">
        <ele>408.20</ele>
        <time>2017-02-11T07:43:13Z</time>
      </trkpt>
      <trkpt lat="42.504045000" lon="-2.608609000">
        <ele>408.20</ele>
        <time>2017-02-11T07:43:14Z</time>
      </trkpt>
      <trkpt lat="42.504020000" lon="-2.608605000">
        <ele>408.20</ele>
        <time>2017-02-11T07:43:15Z</time>
      </trkpt>
      <trkpt lat="42.503997000" lon="-2.608605000">
        <ele>408.10</ele>
        <time>2017-02-11T07:43:16Z</time>
      </trkpt>
      <trkpt lat="42.503973000" lon="-2.608600000">
        <ele>408.00</ele>
        <time>2017-02-11T07:43:17Z</time>
      </trkpt>
      <trkpt lat="42.503950000" lon="-2.608598000">
        <ele>408.00</ele>
        <time>2017-02-11T07:43:18Z</time>
      </trkpt>
      <trkpt lat="42.503925000" lon="-2.608603000">
        <ele>407.90</ele>
        <time>2017-02-11T07:43:19Z</time>
      </trkpt>
      <trkpt lat="42.503896000" lon="-2.608607000">
        <ele>407.90</ele>
        <time>2017-02-11T07:43:20Z</time>
      </trkpt>
      <trkpt lat="42.503863000" lon="-2.608620000">
        <ele>408.00</ele>
        <time>2017-02-11T07:43:21Z</time>
      </trkpt>
      <trkpt lat="42.503832000" lon="-2.608634000">
        <ele>408.10</ele>
        <time>2017-02-11T07:43:22Z</time>
      </trkpt>
      <trkpt lat="42.503800000" lon="-2.608653000">
        <ele>408.20</ele>
        <time>2017-02-11T07:43:23Z</time>
      </trkpt>
      <trkpt lat="42.503772000" lon="-2.608678000">
        <ele>408.30</ele>
        <time>2017-02-11T07:43:24Z</time>
      </trkpt>
      <trkpt lat="42.503746000" lon="-2.608704000">
        <ele>408.40</ele>
        <time>2017-02-11T07:43:25Z</time>
      </trkpt>
      <trkpt lat="42.503719000" lon="-2.608729000">
        <ele>408.30</ele>
        <time>2017-02-11T07:43:26Z</time>
      </trkpt>
      <trkpt lat="42.503696000" lon="-2.608756000">
        <ele>408.20</ele>
        <time>2017-02-11T07:43:27Z</time>
      </trkpt>
      <trkpt lat="42.503673000" lon="-2.608784000">
        <ele>408.20</ele>
        <time>2017-02-11T07:43:28Z</time>
      </trkpt>
      <trkpt lat="42.503651000" lon="-2.608816000">
        <ele>408.10</ele>
        <time>2017-02-11T07:43:29Z</time>
      </trkpt>
      <trkpt lat="42.503627000" lon="-2.608844000">
        <ele>408.10</ele>
        <time>2017-02-11T07:43:30Z</time>
      </trkpt>
      <trkpt lat="42.503603000" lon="-2.608872000">
        <ele>408.10</ele>
        <time>2017-02-11T07:43:31Z</time>
      </trkpt>
      <trkpt lat="42.503580000" lon="-2.608901000">
        <ele>408.10</ele>
        <time>2017-02-11T07:43:32Z</time>
      </trkpt>
      <trkpt lat="42.503558000" lon="-2.608929000">
        <ele>408.10</ele>
        <time>2017-02-11T07:43:33Z</time>
      </trkpt>
      <trkpt lat="42.503536000" lon="-2.608956000">
        <ele>408.00</ele>
        <time>2017-02-11T07:43:34Z</time>
      </trkpt>
      <trkpt lat="42.503515000" lon="-2.608984000">
        <ele>408.00</ele>
        <time>2017-02-11T07:43:35Z</time>
      </trkpt>
      <trkpt lat="42.503491000" lon="-2.609008000">
        <ele>408.00</ele>
        <time>2017-02-11T07:43:36Z</time>
      </trkpt>
      <trkpt lat="42.503466000" lon="-2.609033000">
        <ele>408.00</ele>
        <time>2017-02-11T07:43:37Z</time>
      </trkpt>
      <trkpt lat="42.503441000" lon="-2.609059000">
        <ele>408.20</ele>
        <time>2017-02-11T07:43:38Z</time>
      </trkpt>
      <trkpt lat="42.503417000" lon="-2.609084000">
        <ele>408.30</ele>
        <time>2017-02-11T07:43:39Z</time>
      </trkpt>
      <trkpt lat="42.503391000" lon="-2.609113000">
        <ele>408.20</ele>
        <time>2017-02-11T07:43:40Z</time>
      </trkpt>
      <trkpt lat="42.503367000" lon="-2.609140000">
        <ele>408.10</ele>
        <time>2017-02-11T07:43:41Z</time>
      </trkpt>
      <trkpt lat="42.503339000" lon="-2.609164000">
        <ele>408.10</ele>
        <time>2017-02-11T07:43:42Z</time>
      </trkpt>
      <trkpt lat="42.503313000" lon="-2.609190000">
        <ele>408.10</ele>
        <time>2017-02-11T07:43:43Z</time>
      </trkpt>
      <trkpt lat="42.503289000" lon="-2.609215000">
        <ele>408.10</ele>
        <time>2017-02-11T07:43:44Z</time>
      </trkpt>
      <trkpt lat="42.503265000" lon="-2.609240000">
        <ele>408.10</ele>
        <time>2017-02-11T07:43:45Z</time>
      </trkpt>
      <trkpt lat="42.503241000" lon="-2.609265000">
        <ele>408.00</ele>
        <time>2017-02-11T07:43:46Z</time>
      </trkpt>
      <trkpt lat="42.503221000" lon="-2.609295000">
        <ele>407.90</ele>
        <time>2017-02-11T07:43:47Z</time>
      </trkpt>
      <trkpt lat="42.503201000" lon="-2.609325000">
        <ele>408.00</ele>
        <time>2017-02-11T07:43:48Z</time>
      </trkpt>
      <trkpt lat="42.503182000" lon="-2.609358000">
        <ele>408.00</ele>
        <time>2017-02-11T07:43:49Z</time>
      </trkpt>
      <trkpt lat="42.503164000" lon="-2.609390000">
        <ele>407.90</ele>
        <time>2017-02-11T07:43:50Z</time>
      </trkpt>
      <trkpt lat="42.503147000" lon="-2.609425000">
        <ele>407.90</ele>
        <time>2017-02-11T07:43:51Z</time>
      </trkpt>
      <trkpt lat="42.503131000" lon="-2.609465000">
        <ele>408.00</ele>
        <time>2017-02-11T07:43:52Z</time>
      </trkpt>
      <trkpt lat="42.503116000" lon="-2.609504000">
        <ele>408.00</ele>
        <time>2017-02-11T07:43:53Z</time>
      </trkpt>
      <trkpt lat="42.503103000" lon="-2.609542000">
        <ele>408.00</ele>
        <time>2017-02-11T07:43:54Z</time>
      </trkpt>
      <trkpt lat="42.503089000" lon="-2.609586000">
        <ele>407.90</ele>
        <time>2017-02-11T07:43:55Z</time>
      </trkpt>
      <trkpt lat="42.503074000" lon="-2.609631000">
        <ele>407.80</ele>
        <time>2017-02-11T07:43:56Z</time>
      </trkpt>
      <trkpt lat="42.503058000" lon="-2.609676000">
        <ele>407.80</ele>
        <time>2017-02-11T07:43:57Z</time>
      </trkpt>
      <trkpt lat="42.503041000" lon="-2.609718000">
        <ele>407.70</ele>
        <time>2017-02-11T07:43:58Z</time>
      </trkpt>
      <trkpt lat="42.503020000" lon="-2.609758000">
        <ele>407.70</ele>
        <time>2017-02-11T07:43:59Z</time>
      </trkpt>
      <trkpt lat="42.503001000" lon="-2.609801000">
        <ele>407.70</ele>
        <time>2017-02-11T07:44:00Z</time>
      </trkpt>
      <trkpt lat="42.502986000" lon="-2.609844000">
        <ele>407.60</ele>
        <time>2017-02-11T07:44:01Z</time>
      </trkpt>
      <trkpt lat="42.502969000" lon="-2.609885000">
        <ele>407.70</ele>
        <time>2017-02-11T07:44:02Z</time>
      </trkpt>
      <trkpt lat="42.502950000" lon="-2.609929000">
        <ele>407.70</ele>
        <time>2017-02-11T07:44:03Z</time>
      </trkpt>
      <trkpt lat="42.502930000" lon="-2.609972000">
        <ele>407.80</ele>
        <time>2017-02-11T07:44:04Z</time>
      </trkpt>
      <trkpt lat="42.502907000" lon="-2.610015000">
        <ele>407.80</ele>
        <time>2017-02-11T07:44:05Z</time>
      </trkpt>
      <trkpt lat="42.502883000" lon="-2.610056000">
        <ele>407.80</ele>
        <time>2017-02-11T07:44:06Z</time>
      </trkpt>
      <trkpt lat="42.502859000" lon="-2.610099000">
        <ele>407.80</ele>
        <time>2017-02-11T07:44:07Z</time>
      </trkpt>
      <trkpt lat="42.502803000" lon="-2.610195000">
        <ele>407.50</ele>
        <time>2017-02-11T07:44:09Z</time>
      </trkpt>
      <trkpt lat="42.502774000" lon="-2.610254000">
        <ele>407.10</ele>
        <time>2017-02-11T07:44:10Z</time>
      </trkpt>
      <trkpt lat="42.502730000" lon="-2.610299000">
        <ele>406.80</ele>
        <time>2017-02-11T07:44:11Z</time>
      </trkpt>
      <trkpt lat="42.502677000" lon="-2.610321000">
        <ele>406.30</ele>
        <time>2017-02-11T07:44:12Z</time>
      </trkpt>
      <trkpt lat="42.502626000" lon="-2.610324000">
        <ele>406.00</ele>
        <time>2017-02-11T07:44:13Z</time>
      </trkpt>
      <trkpt lat="42.502572000" lon="-2.610285000">
        <ele>405.80</ele>
        <time>2017-02-11T07:44:14Z</time>
      </trkpt>
      <trkpt lat="42.502523000" lon="-2.610236000">
        <ele>405.60</ele>
        <time>2017-02-11T07:44:15Z</time>
      </trkpt>
      <trkpt lat="42.502472000" lon="-2.610183000">
        <ele>405.40</ele>
        <time>2017-02-11T07:44:16Z</time>
      </trkpt>
      <trkpt lat="42.502421000" lon="-2.610132000">
        <ele>405.30</ele>
        <time>2017-02-11T07:44:17Z</time>
      </trkpt>
      <trkpt lat="42.502371000" lon="-2.610083000">
        <ele>405.20</ele>
        <time>2017-02-11T07:44:18Z</time>
      </trkpt>
      <trkpt lat="42.502322000" lon="-2.610034000">
        <ele>405.10</ele>
        <time>2017-02-11T07:44:19Z</time>
      </trkpt>
      <trkpt lat="42.502277000" lon="-2.609982000">
        <ele>404.60</ele>
        <time>2017-02-11T07:44:20Z</time>
      </trkpt>
      <trkpt lat="42.502231000" lon="-2.609931000">
        <ele>404.20</ele>
        <time>2017-02-11T07:44:21Z</time>
      </trkpt>
      <trkpt lat="42.502187000" lon="-2.609884000">
        <ele>403.90</ele>
        <time>2017-02-11T07:44:22Z</time>
      </trkpt>
      <trkpt lat="42.502141000" lon="-2.609842000">
        <ele>403.70</ele>
        <time>2017-02-11T07:44:23Z</time>
      </trkpt>
      <trkpt lat="42.502099000" lon="-2.609800000">
        <ele>403.40</ele>
        <time>2017-02-11T07:44:24Z</time>
      </trkpt>
      <trkpt lat="42.502056000" lon="-2.609766000">
        <ele>403.20</ele>
        <time>2017-02-11T07:44:25Z</time>
      </trkpt>
      <trkpt lat="42.502011000" lon="-2.609743000">
        <ele>403.20</ele>
        <time>2017-02-11T07:44:26Z</time>
      </trkpt>
      <trkpt lat="42.501965000" lon="-2.609735000">
        <ele>403.10</ele>
        <time>2017-02-11T07:44:27Z</time>
      </trkpt>
      <trkpt lat="42.501918000" lon="-2.609751000">
        <ele>403.00</ele>
        <time>2017-02-11T07:44:28Z</time>
      </trkpt>
      <trkpt lat="42.501871000" lon="-2.609775000">
        <ele>402.90</ele>
        <time>2017-02-11T07:44:29Z</time>
      </trkpt>
      <trkpt lat="42.501832000" lon="-2.609810000">
        <ele>402.60</ele>
        <time>2017-02-11T07:44:30Z</time>
      </trkpt>
      <trkpt lat="42.501794000" lon="-2.609851000">
        <ele>402.40</ele>
        <time>2017-02-11T07:44:31Z</time>
      </trkpt>
      <trkpt lat="42.501758000" lon="-2.609892000">
        <ele>402.30</ele>
        <time>2017-02-11T07:44:32Z</time>
      </trkpt>
      <trkpt lat="42.501720000" lon="-2.609931000">
        <ele>402.10</ele>
        <time>2017-02-11T07:44:33Z</time>
      </trkpt>
      <trkpt lat="42.501684000" lon="-2.609971000">
        <ele>402.10</ele>
        <time>2017-02-11T07:44:34Z</time>
      </trkpt>
      <trkpt lat="42.501649000" lon="-2.610011000">
        <ele>402.00</ele>
        <time>2017-02-11T07:44:35Z</time>
      </trkpt>
      <trkpt lat="42.501612000" lon="-2.610049000">
        <ele>402.10</ele>
        <time>2017-02-11T07:44:36Z</time>
      </trkpt>
      <trkpt lat="42.501577000" lon="-2.610086000">
        <ele>402.10</ele>
        <time>2017-02-11T07:44:37Z</time>
      </trkpt>
      <trkpt lat="42.501540000" lon="-2.610122000">
        <ele>402.20</ele>
        <time>2017-02-11T07:44:38Z</time>
      </trkpt>
      <trkpt lat="42.501502000" lon="-2.610162000">
        <ele>402.20</ele>
        <time>2017-02-11T07:44:39Z</time>
      </trkpt>
      <trkpt lat="42.501464000" lon="-2.610201000">
        <ele>402.20</ele>
        <time>2017-02-11T07:44:40Z</time>
      </trkpt>
      <trkpt lat="42.501429000" lon="-2.610243000">
        <ele>402.20</ele>
        <time>2017-02-11T07:44:41Z</time>
      </trkpt>
      <trkpt lat="42.501394000" lon="-2.610282000">
        <ele>402.20</ele>
        <time>2017-02-11T07:44:42Z</time>
      </trkpt>
      <trkpt lat="42.501362000" lon="-2.610320000">
        <ele>402.20</ele>
        <time>2017-02-11T07:44:43Z</time>
      </trkpt>
      <trkpt lat="42.501333000" lon="-2.610355000">
        <ele>402.10</ele>
        <time>2017-02-11T07:44:44Z</time>
      </trkpt>
      <trkpt lat="42.501307000" lon="-2.610393000">
        <ele>402.00</ele>
        <time>2017-02-11T07:44:45Z</time>
      </trkpt>
      <trkpt lat="42.501281000" lon="-2.610430000">
        <ele>402.00</ele>
        <time>2017-02-11T07:44:46Z</time>
      </trkpt>
      <trkpt lat="42.501251000" lon="-2.610467000">
        <ele>402.00</ele>
        <time>2017-02-11T07:44:47Z</time>
      </trkpt>
      <trkpt lat="42.501222000" lon="-2.610505000">
        <ele>401.90</ele>
        <time>2017-02-11T07:44:48Z</time>
      </trkpt>
      <trkpt lat="42.501189000" lon="-2.610545000">
        <ele>401.90</ele>
        <time>2017-02-11T07:44:49Z</time>
      </trkpt>
      <trkpt lat="42.501158000" lon="-2.610586000">
        <ele>402.00</ele>
        <time>2017-02-11T07:44:50Z</time>
      </trkpt>
      <trkpt lat="42.501123000" lon="-2.610623000">
        <ele>402.10</ele>
        <time>2017-02-11T07:44:51Z</time>
      </trkpt>
      <trkpt lat="42.501088000" lon="-2.610657000">
        <ele>402.40</ele>
        <time>2017-02-11T07:44:52Z</time>
      </trkpt>
      <trkpt lat="42.501054000" lon="-2.610687000">
        <ele>402.50</ele>
        <time>2017-02-11T07:44:53Z</time>
      </trkpt>
      <trkpt lat="42.501018000" lon="-2.610718000">
        <ele>402.90</ele>
        <time>2017-02-11T07:44:54Z</time>
      </trkpt>
      <trkpt lat="42.500980000" lon="-2.610751000">
        <ele>403.10</ele>
        <time>2017-02-11T07:44:55Z</time>
      </trkpt>
      <trkpt lat="42.500945000" lon="-2.610786000">
        <ele>403.30</ele>
        <time>2017-02-11T07:44:56Z</time>
      </trkpt>
      <trkpt lat="42.500910000" lon="-2.610822000">
        <ele>403.40</ele>
        <time>2017-02-11T07:44:57Z</time>
      </trkpt>
      <trkpt lat="42.500877000" lon="-2.610861000">
        <ele>403.40</ele>
        <time>2017-02-11T07:44:58Z</time>
      </trkpt>
      <trkpt lat="42.500846000" lon="-2.610903000">
        <ele>403.40</ele>
        <time>2017-02-11T07:44:59Z</time>
      </trkpt>
      <trkpt lat="42.500817000" lon="-2.610953000">
        <ele>403.40</ele>
        <time>2017-02-11T07:45:00Z</time>
      </trkpt>
      <trkpt lat="42.500798000" lon="-2.611005000">
        <ele>403.40</ele>
        <time>2017-02-11T07:45:01Z</time>
      </trkpt>
      <trkpt lat="42.500777000" lon="-2.611061000">
        <ele>403.40</ele>
        <time>2017-02-11T07:45:02Z</time>
      </trkpt>
      <trkpt lat="42.500757000" lon="-2.611116000">
        <ele>403.40</ele>
        <time>2017-02-11T07:45:03Z</time>
      </trkpt>
      <trkpt lat="42.500741000" lon="-2.611170000">
        <ele>403.40</ele>
        <time>2017-02-11T07:45:04Z</time>
      </trkpt>
      <trkpt lat="42.500724000" lon="-2.611221000">
        <ele>403.40</ele>
        <time>2017-02-11T07:45:05Z</time>
      </trkpt>
      <trkpt lat="42.500703000" lon="-2.611274000">
        <ele>403.40</ele>
        <time>2017-02-11T07:45:06Z</time>
      </trkpt>
      <trkpt lat="42.500678000" lon="-2.611325000">
        <ele>403.40</ele>
        <time>2017-02-11T07:45:07Z</time>
      </trkpt>
      <trkpt lat="42.500652000" lon="-2.611370000">
        <ele>403.20</ele>
        <time>2017-02-11T07:45:08Z</time>
      </trkpt>
      <trkpt lat="42.500593000" lon="-2.611441000">
        <ele>403.00</ele>
        <time>2017-02-11T07:45:10Z</time>
      </trkpt>
      <trkpt lat="42.500561000" lon="-2.611470000">
        <ele>402.90</ele>
        <time>2017-02-11T07:45:11Z</time>
      </trkpt>
      <trkpt lat="42.500530000" lon="-2.611495000">
        <ele>403.00</ele>
        <time>2017-02-11T07:45:12Z</time>
      </trkpt>
      <trkpt lat="42.500501000" lon="-2.611514000">
        <ele>403.00</ele>
        <time>2017-02-11T07:45:13Z</time>
      </trkpt>
      <trkpt lat="42.500472000" lon="-2.611527000">
        <ele>403.10</ele>
        <time>2017-02-11T07:45:14Z</time>
      </trkpt>
      <trkpt lat="42.500447000" lon="-2.611534000">
        <ele>403.10</ele>
        <time>2017-02-11T07:45:15Z</time>
      </trkpt>
      <trkpt lat="42.500422000" lon="-2.611541000">
        <ele>403.10</ele>
        <time>2017-02-11T07:45:16Z</time>
      </trkpt>
      <trkpt lat="42.500395000" lon="-2.611543000">
        <ele>403.10</ele>
        <time>2017-02-11T07:45:17Z</time>
      </trkpt>
      <trkpt lat="42.500369000" lon="-2.611551000">
        <ele>403.10</ele>
        <time>2017-02-11T07:45:18Z</time>
      </trkpt>
      <trkpt lat="42.500337000" lon="-2.611558000">
        <ele>403.00</ele>
        <time>2017-02-11T07:45:19Z</time>
      </trkpt>
      <trkpt lat="42.500307000" lon="-2.611574000">
        <ele>403.00</ele>
        <time>2017-02-11T07:45:20Z</time>
      </trkpt>
      <trkpt lat="42.500278000" lon="-2.611591000">
        <ele>403.00</ele>
        <time>2017-02-11T07:45:21Z</time>
      </trkpt>
      <trkpt lat="42.500246000" lon="-2.611608000">
        <ele>402.90</ele>
        <time>2017-02-11T07:45:22Z</time>
      </trkpt>
      <trkpt lat="42.500212000" lon="-2.611633000">
        <ele>402.80</ele>
        <time>2017-02-11T07:45:23Z</time>
      </trkpt>
      <trkpt lat="42.500180000" lon="-2.611658000">
        <ele>403.10</ele>
        <time>2017-02-11T07:45:24Z</time>
      </trkpt>
      <trkpt lat="42.500150000" lon="-2.611688000">
        <ele>403.20</ele>
        <time>2017-02-11T07:45:25Z</time>
      </trkpt>
      <trkpt lat="42.500118000" lon="-2.611716000">
        <ele>403.30</ele>
        <time>2017-02-11T07:45:26Z</time>
      </trkpt>
      <trkpt lat="42.500087000" lon="-2.611746000">
        <ele>403.40</ele>
        <time>2017-02-11T07:45:27Z</time>
      </trkpt>
      <trkpt lat="42.500057000" lon="-2.611775000">
        <ele>403.50</ele>
        <time>2017-02-11T07:45:28Z</time>
      </trkpt>
      <trkpt lat="42.500025000" lon="-2.611807000">
        <ele>403.50</ele>
        <time>2017-02-11T07:45:29Z</time>
      </trkpt>
      <trkpt lat="42.499993000" lon="-2.611828000">
        <ele>403.60</ele>
        <time>2017-02-11T07:45:30Z</time>
      </trkpt>
      <trkpt lat="42.499961000" lon="-2.611856000">
        <ele>403.70</ele>
        <time>2017-02-11T07:45:31Z</time>
      </trkpt>
      <trkpt lat="42.499927000" lon="-2.611882000">
        <ele>403.80</ele>
        <time>2017-02-11T07:45:32Z</time>
      </trkpt>
      <trkpt lat="42.499891000" lon="-2.611907000">
        <ele>403.80</ele>
        <time>2017-02-11T07:45:33Z</time>
      </trkpt>
      <trkpt lat="42.499856000" lon="-2.611929000">
        <ele>403.90</ele>
        <time>2017-02-11T07:45:34Z</time>
      </trkpt>
      <trkpt lat="42.499819000" lon="-2.611953000">
        <ele>404.00</ele>
        <time>2017-02-11T07:45:35Z</time>
      </trkpt>
      <trkpt lat="42.499783000" lon="-2.611977000">
        <ele>404.00</ele>
        <time>2017-02-11T07:45:36Z</time>
      </trkpt>
      <trkpt lat="42.499747000" lon="-2.611997000">
        <ele>404.10</ele>
        <time>2017-02-11T07:45:37Z</time>
      </trkpt>
      <trkpt lat="42.499709000" lon="-2.612019000">
        <ele>404.10</ele>
        <time>2017-02-11T07:45:38Z</time>
      </trkpt>
      <trkpt lat="42.499671000" lon="-2.612041000">
        <ele>404.10</ele>
        <time>2017-02-11T07:45:39Z</time>
      </trkpt>
      <trkpt lat="42.499634000" lon="-2.612065000">
        <ele>404.10</ele>
        <time>2017-02-11T07:45:40Z</time>
      </trkpt>
      <trkpt lat="42.499597000" lon="-2.612086000">
        <ele>404.10</ele>
        <time>2017-02-11T07:45:41Z</time>
      </trkpt>
      <trkpt lat="42.499560000" lon="-2.612113000">
        <ele>404.00</ele>
        <time>2017-02-11T07:45:42Z</time>
      </trkpt>
      <trkpt lat="42.499523000" lon="-2.612142000">
        <ele>403.90</ele>
        <time>2017-02-11T07:45:43Z</time>
      </trkpt>
      <trkpt lat="42.499491000" lon="-2.612167000">
        <ele>403.80</ele>
        <time>2017-02-11T07:45:44Z</time>
      </trkpt>
      <trkpt lat="42.499456000" lon="-2.612193000">
        <ele>403.80</ele>
        <time>2017-02-11T07:45:45Z</time>
      </trkpt>
      <trkpt lat="42.499427000" lon="-2.612216000">
        <ele>403.80</ele>
        <time>2017-02-11T07:45:46Z</time>
      </trkpt>
      <trkpt lat="42.499397000" lon="-2.612246000">
        <ele>403.80</ele>
        <time>2017-02-11T07:45:47Z</time>
      </trkpt>
      <trkpt lat="42.499370000" lon="-2.612270000">
        <ele>403.70</ele>
        <time>2017-02-11T07:45:48Z</time>
      </trkpt>
      <trkpt lat="42.499340000" lon="-2.612297000">
        <ele>403.70</ele>
        <time>2017-02-11T07:45:49Z</time>
      </trkpt>
      <trkpt lat="42.499309000" lon="-2.612323000">
        <ele>403.90</ele>
        <time>2017-02-11T07:45:50Z</time>
      </trkpt>
      <trkpt lat="42.499279000" lon="-2.612345000">
        <ele>404.00</ele>
        <time>2017-02-11T07:45:51Z</time>
      </trkpt>
      <trkpt lat="42.499250000" lon="-2.612369000">
        <ele>404.20</ele>
        <time>2017-02-11T07:45:52Z</time>
      </trkpt>
      <trkpt lat="42.499220000" lon="-2.612396000">
        <ele>404.30</ele>
        <time>2017-02-11T07:45:53Z</time>
      </trkpt>
      <trkpt lat="42.499191000" lon="-2.612416000">
        <ele>404.40</ele>
        <time>2017-02-11T07:45:54Z</time>
      </trkpt>
      <trkpt lat="42.499159000" lon="-2.612436000">
        <ele>404.40</ele>
        <time>2017-02-11T07:45:55Z</time>
      </trkpt>
      <trkpt lat="42.499126000" lon="-2.612457000">
        <ele>404.40</ele>
        <time>2017-02-11T07:45:56Z</time>
      </trkpt>
      <trkpt lat="42.499091000" lon="-2.612469000">
        <ele>404.40</ele>
        <time>2017-02-11T07:45:57Z</time>
      </trkpt>
      <trkpt lat="42.499058000" lon="-2.612471000">
        <ele>404.40</ele>
        <time>2017-02-11T07:45:58Z</time>
      </trkpt>
      <trkpt lat="42.499023000" lon="-2.612469000">
        <ele>404.40</ele>
        <time>2017-02-11T07:45:59Z</time>
      </trkpt>
      <trkpt lat="42.498986000" lon="-2.612461000">
        <ele>404.50</ele>
        <time>2017-02-11T07:46:00Z</time>
      </trkpt>
      <trkpt lat="42.498952000" lon="-2.612447000">
        <ele>404.60</ele>
        <time>2017-02-11T07:46:01Z</time>
      </trkpt>
      <trkpt lat="42.498915000" lon="-2.612429000">
        <ele>404.80</ele>
        <time>2017-02-11T07:46:02Z</time>
      </trkpt>
      <trkpt lat="42.498877000" lon="-2.612411000">
        <ele>404.90</ele>
        <time>2017-02-11T07:46:03Z</time>
      </trkpt>
      <trkpt lat="42.498842000" lon="-2.612389000">
        <ele>404.90</ele>
        <time>2017-02-11T07:46:04Z</time>
      </trkpt>
      <trkpt lat="42.498808000" lon="-2.612365000">
        <ele>405.00</ele>
        <time>2017-02-11T07:46:05Z</time>
      </trkpt>
      <trkpt lat="42.498776000" lon="-2.612337000">
        <ele>405.00</ele>
        <time>2017-02-11T07:46:06Z</time>
      </trkpt>
      <trkpt lat="42.498744000" lon="-2.612305000">
        <ele>405.10</ele>
        <time>2017-02-11T07:46:07Z</time>
      </trkpt>
      <trkpt lat="42.498708000" lon="-2.612281000">
        <ele>405.10</ele>
        <time>2017-02-11T07:46:08Z</time>
      </trkpt>
      <trkpt lat="42.498674000" lon="-2.612248000">
        <ele>405.10</ele>
        <time>2017-02-11T07:46:09Z</time>
      </trkpt>
      <trkpt lat="42.498607000" lon="-2.612185000">
        <ele>405.10</ele>
        <time>2017-02-11T07:46:11Z</time>
      </trkpt>
      <trkpt lat="42.498573000" lon="-2.612154000">
        <ele>404.90</ele>
        <time>2017-02-11T07:46:12Z</time>
      </trkpt>
      <trkpt lat="42.498538000" lon="-2.612128000">
        <ele>404.80</ele>
        <time>2017-02-11T07:46:13Z</time>
      </trkpt>
      <trkpt lat="42.498504000" lon="-2.612105000">
        <ele>404.70</ele>
        <time>2017-02-11T07:46:14Z</time>
      </trkpt>
      <trkpt lat="42.498471000" lon="-2.612080000">
        <ele>404.60</ele>
        <time>2017-02-11T07:46:15Z</time>
      </trkpt>
      <trkpt lat="42.498434000" lon="-2.612058000">
        <ele>404.60</ele>
        <time>2017-02-11T07:46:16Z</time>
      </trkpt>
      <trkpt lat="42.498397000" lon="-2.612046000">
        <ele>404.50</ele>
        <time>2017-02-11T07:46:17Z</time>
      </trkpt>
      <trkpt lat="42.498356000" lon="-2.612038000">
        <ele>404.80</ele>
        <time>2017-02-11T07:46:18Z</time>
      </trkpt>
      <trkpt lat="42.498315000" lon="-2.612032000">
        <ele>405.00</ele>
        <time>2017-02-11T07:46:19Z</time>
      </trkpt>
      <trkpt lat="42.498274000" lon="-2.612033000">
        <ele>405.20</ele>
        <time>2017-02-11T07:46:20Z</time>
      </trkpt>
      <trkpt lat="42.498235000" lon="-2.612040000">
        <ele>405.30</ele>
        <time>2017-02-11T07:46:21Z</time>
      </trkpt>
      <trkpt lat="42.498198000" lon="-2.612052000">
        <ele>405.30</ele>
        <time>2017-02-11T07:46:22Z</time>
      </trkpt>
      <trkpt lat="42.498160000" lon="-2.612071000">
        <ele>405.40</ele>
        <time>2017-02-11T07:46:23Z</time>
      </trkpt>
      <trkpt lat="42.498120000" lon="-2.612093000">
        <ele>404.90</ele>
        <time>2017-02-11T07:46:24Z</time>
      </trkpt>
      <trkpt lat="42.498087000" lon="-2.612114000">
        <ele>404.60</ele>
        <time>2017-02-11T07:46:25Z</time>
      </trkpt>
      <trkpt lat="42.498051000" lon="-2.612133000">
        <ele>404.30</ele>
        <time>2017-02-11T07:46:26Z</time>
      </trkpt>
      <trkpt lat="42.498015000" lon="-2.612151000">
        <ele>404.20</ele>
        <time>2017-02-11T07:46:27Z</time>
      </trkpt>
      <trkpt lat="42.497980000" lon="-2.612168000">
        <ele>404.00</ele>
        <time>2017-02-11T07:46:28Z</time>
      </trkpt>
      <trkpt lat="42.497947000" lon="-2.612187000">
        <ele>403.90</ele>
        <time>2017-02-11T07:46:29Z</time>
      </trkpt>
      <trkpt lat="42.497914000" lon="-2.612202000">
        <ele>404.00</ele>
        <time>2017-02-11T07:46:30Z</time>
      </trkpt>
      <trkpt lat="42.497882000" lon="-2.612218000">
        <ele>404.00</ele>
        <time>2017-02-11T07:46:31Z</time>
      </trkpt>
      <trkpt lat="42.497847000" lon="-2.612234000">
        <ele>404.10</ele>
        <time>2017-02-11T07:46:32Z</time>
      </trkpt>
      <trkpt lat="42.497812000" lon="-2.612251000">
        <ele>404.20</ele>
        <time>2017-02-11T07:46:33Z</time>
      </trkpt>
      <trkpt lat="42.497781000" lon="-2.612261000">
        <ele>404.20</ele>
        <time>2017-02-11T07:46:34Z</time>
      </trkpt>
      <trkpt lat="42.497748000" lon="-2.612271000">
        <ele>404.30</ele>
        <time>2017-02-11T07:46:35Z</time>
      </trkpt>
      <trkpt lat="42.497714000" lon="-2.612282000">
        <ele>404.20</ele>
        <time>2017-02-11T07:46:36Z</time>
      </trkpt>
      <trkpt lat="42.497680000" lon="-2.612291000">
        <ele>404.20</ele>
        <time>2017-02-11T07:46:37Z</time>
      </trkpt>
      <trkpt lat="42.497646000" lon="-2.612301000">
        <ele>404.20</ele>
        <time>2017-02-11T07:46:38Z</time>
      </trkpt>
      <trkpt lat="42.497613000" lon="-2.612307000">
        <ele>404.20</ele>
        <time>2017-02-11T07:46:39Z</time>
      </trkpt>
      <trkpt lat="42.497582000" lon="-2.612320000">
        <ele>404.20</ele>
        <time>2017-02-11T07:46:40Z</time>
      </trkpt>
      <trkpt lat="42.497552000" lon="-2.612332000">
        <ele>404.20</ele>
        <time>2017-02-11T07:46:41Z</time>
      </trkpt>
      <trkpt lat="42.497521000" lon="-2.612345000">
        <ele>404.10</ele>
        <time>2017-02-11T07:46:42Z</time>
      </trkpt>
      <trkpt lat="42.497490000" lon="-2.612368000">
        <ele>404.00</ele>
        <time>2017-02-11T07:46:43Z</time>
      </trkpt>
      <trkpt lat="42.497460000" lon="-2.612395000">
        <ele>404.00</ele>
        <time>2017-02-11T07:46:44Z</time>
      </trkpt>
      <trkpt lat="42.497433000" lon="-2.612423000">
        <ele>404.00</ele>
        <time>2017-02-11T07:46:45Z</time>
      </trkpt>
      <trkpt lat="42.497408000" lon="-2.612454000">
        <ele>403.90</ele>
        <time>2017-02-11T07:46:46Z</time>
      </trkpt>
      <trkpt lat="42.497381000" lon="-2.612489000">
        <ele>403.90</ele>
        <time>2017-02-11T07:46:47Z</time>
      </trkpt>
      <trkpt lat="42.497359000" lon="-2.612523000">
        <ele>403.80</ele>
        <time>2017-02-11T07:46:48Z</time>
      </trkpt>
      <trkpt lat="42.497343000" lon="-2.612563000">
        <ele>403.70</ele>
        <time>2017-02-11T07:46:49Z</time>
      </trkpt>
      <trkpt lat="42.497325000" lon="-2.612604000">
        <ele>403.60</ele>
        <time>2017-02-11T07:46:50Z</time>
      </trkpt>
      <trkpt lat="42.497312000" lon="-2.612645000">
        <ele>403.60</ele>
        <time>2017-02-11T07:46:51Z</time>
      </trkpt>
      <trkpt lat="42.497301000" lon="-2.612688000">
        <ele>403.60</ele>
        <time>2017-02-11T07:46:52Z</time>
      </trkpt>
      <trkpt lat="42.497289000" lon="-2.612728000">
        <ele>403.60</ele>
        <time>2017-02-11T07:46:53Z</time>
      </trkpt>
      <trkpt lat="42.497277000" lon="-2.612770000">
        <ele>403.60</ele>
        <time>2017-02-11T07:46:54Z</time>
      </trkpt>
      <trkpt lat="42.497265000" lon="-2.612808000">
        <ele>403.60</ele>
        <time>2017-02-11T07:46:55Z</time>
      </trkpt>
      <trkpt lat="42.497257000" lon="-2.612850000">
        <ele>403.60</ele>
        <time>2017-02-11T07:46:56Z</time>
      </trkpt>
      <trkpt lat="42.497249000" lon="-2.612894000">
        <ele>403.60</ele>
        <time>2017-02-11T07:46:57Z</time>
      </trkpt>
      <trkpt lat="42.497247000" lon="-2.612941000">
        <ele>403.60</ele>
        <time>2017-02-11T07:46:58Z</time>
      </trkpt>
      <trkpt lat="42.497250000" lon="-2.612983000">
        <ele>403.60</ele>
        <time>2017-02-11T07:46:59Z</time>
      </trkpt>
      <trkpt lat="42.497263000" lon="-2.613020000">
        <ele>403.80</ele>
        <time>2017-02-11T07:47:00Z</time>
      </trkpt>
      <trkpt lat="42.497287000" lon="-2.613049000">
        <ele>403.90</ele>
        <time>2017-02-11T07:47:01Z</time>
      </trkpt>
      <trkpt lat="42.497316000" lon="-2.613076000">
        <ele>404.10</ele>
        <time>2017-02-11T07:47:02Z</time>
      </trkpt>
      <trkpt lat="42.497344000" lon="-2.613102000">
        <ele>404.10</ele>
        <time>2017-02-11T07:47:03Z</time>
      </trkpt>
      <trkpt lat="42.497373000" lon="-2.613129000">
        <ele>404.30</ele>
        <time>2017-02-11T07:47:04Z</time>
      </trkpt>
      <trkpt lat="42.497400000" lon="-2.613154000">
        <ele>404.50</ele>
        <time>2017-02-11T07:47:05Z</time>
      </trkpt>
      <trkpt lat="42.497429000" lon="-2.613180000">
        <ele>404.70</ele>
        <time>2017-02-11T07:47:06Z</time>
      </trkpt>
      <trkpt lat="42.497459000" lon="-2.613205000">
        <ele>404.90</ele>
        <time>2017-02-11T07:47:07Z</time>
      </trkpt>
      <trkpt lat="42.497490000" lon="-2.613231000">
        <ele>405.20</ele>
        <time>2017-02-11T07:47:08Z</time>
      </trkpt>
      <trkpt lat="42.497519000" lon="-2.613260000">
        <ele>405.30</ele>
        <time>2017-02-11T07:47:09Z</time>
      </trkpt>
      <trkpt lat="42.497548000" lon="-2.613293000">
        <ele>405.40</ele>
        <time>2017-02-11T07:47:10Z</time>
      </trkpt>
      <trkpt lat="42.497607000" lon="-2.613356000">
        <ele>405.50</ele>
        <time>2017-02-11T07:47:12Z</time>
      </trkpt>
      <trkpt lat="42.497632000" lon="-2.613389000">
        <ele>405.50</ele>
        <time>2017-02-11T07:47:13Z</time>
      </trkpt>
      <trkpt lat="42.497659000" lon="-2.613421000">
        <ele>405.60</ele>
        <time>2017-02-11T07:47:14Z</time>
      </trkpt>
      <trkpt lat="42.497684000" lon="-2.613453000">
        <ele>405.60</ele>
        <time>2017-02-11T07:47:15Z</time>
      </trkpt>
      <trkpt lat="42.497707000" lon="-2.613487000">
        <ele>405.60</ele>
        <time>2017-02-11T07:47:16Z</time>
      </trkpt>
      <trkpt lat="42.497731000" lon="-2.613519000">
        <ele>405.60</ele>
        <time>2017-02-11T07:47:17Z</time>
      </trkpt>
      <trkpt lat="42.497753000" lon="-2.613553000">
        <ele>405.60</ele>
        <time>2017-02-11T07:47:18Z</time>
      </trkpt>
      <trkpt lat="42.497772000" lon="-2.613588000">
        <ele>405.70</ele>
        <time>2017-02-11T07:47:19Z</time>
      </trkpt>
      <trkpt lat="42.497793000" lon="-2.613620000">
        <ele>405.80</ele>
        <time>2017-02-11T07:47:20Z</time>
      </trkpt>
      <trkpt lat="42.497811000" lon="-2.613650000">
        <ele>405.90</ele>
        <time>2017-02-11T07:47:21Z</time>
      </trkpt>
      <trkpt lat="42.497830000" lon="-2.613678000">
        <ele>406.00</ele>
        <time>2017-02-11T07:47:22Z</time>
      </trkpt>
      <trkpt lat="42.497849000" lon="-2.613706000">
        <ele>406.10</ele>
        <time>2017-02-11T07:47:23Z</time>
      </trkpt>
      <trkpt lat="42.497870000" lon="-2.613728000">
        <ele>406.40</ele>
        <time>2017-02-11T07:47:24Z</time>
      </trkpt>
      <trkpt lat="42.497893000" lon="-2.613748000">
        <ele>406.60</ele>
        <time>2017-02-11T07:47:25Z</time>
      </trkpt>
      <trkpt lat="42.497915000" lon="-2.613767000">
        <ele>406.90</ele>
        <time>2017-02-11T07:47:26Z</time>
      </trkpt>
      <trkpt lat="42.497937000" lon="-2.613786000">
        <ele>407.20</ele>
        <time>2017-02-11T07:47:27Z</time>
      </trkpt>
      <trkpt lat="42.497962000" lon="-2.613805000">
        <ele>407.40</ele>
        <time>2017-02-11T07:47:28Z</time>
      </trkpt>
      <trkpt lat="42.497989000" lon="-2.613826000">
        <ele>407.50</ele>
        <time>2017-02-11T07:47:29Z</time>
      </trkpt>
      <trkpt lat="42.498014000" lon="-2.613841000">
        <ele>407.70</ele>
        <time>2017-02-11T07:47:30Z</time>
      </trkpt>
      <trkpt lat="42.498041000" lon="-2.613857000">
        <ele>407.90</ele>
        <time>2017-02-11T07:47:31Z</time>
      </trkpt>
      <trkpt lat="42.498065000" lon="-2.613871000">
        <ele>408.40</ele>
        <time>2017-02-11T07:47:32Z</time>
      </trkpt>
      <trkpt lat="42.498090000" lon="-2.613887000">
        <ele>408.80</ele>
        <time>2017-02-11T07:47:33Z</time>
      </trkpt>
      <trkpt lat="42.498111000" lon="-2.613905000">
        <ele>409.30</ele>
        <time>2017-02-11T07:47:34Z</time>
      </trkpt>
      <trkpt lat="42.498136000" lon="-2.613924000">
        <ele>409.70</ele>
        <time>2017-02-11T07:47:35Z</time>
      </trkpt>
      <trkpt lat="42.498163000" lon="-2.613947000">
        <ele>410.20</ele>
        <time>2017-02-11T07:47:36Z</time>
      </trkpt>
      <trkpt lat="42.498190000" lon="-2.613972000">
        <ele>410.60</ele>
        <time>2017-02-11T07:47:37Z</time>
      </trkpt>
      <trkpt lat="42.498216000" lon="-2.613997000">
        <ele>410.90</ele>
        <time>2017-02-11T07:47:38Z</time>
      </trkpt>
      <trkpt lat="42.498240000" lon="-2.614021000">
        <ele>411.20</ele>
        <time>2017-02-11T07:47:39Z</time>
      </trkpt>
      <trkpt lat="42.498260000" lon="-2.614051000">
        <ele>411.50</ele>
        <time>2017-02-11T07:47:40Z</time>
      </trkpt>
      <trkpt lat="42.498284000" lon="-2.614085000">
        <ele>411.60</ele>
        <time>2017-02-11T07:47:41Z</time>
      </trkpt>
      <trkpt lat="42.498304000" lon="-2.614121000">
        <ele>412.30</ele>
        <time>2017-02-11T07:47:42Z</time>
      </trkpt>
      <trkpt lat="42.498324000" lon="-2.614157000">
        <ele>412.70</ele>
        <time>2017-02-11T07:47:43Z</time>
      </trkpt>
      <trkpt lat="42.498347000" lon="-2.614188000">
        <ele>413.20</ele>
        <time>2017-02-11T07:47:44Z</time>
      </trkpt>
      <trkpt lat="42.498368000" lon="-2.614215000">
        <ele>413.50</ele>
        <time>2017-02-11T07:47:45Z</time>
      </trkpt>
      <trkpt lat="42.498391000" lon="-2.614242000">
        <ele>413.80</ele>
        <time>2017-02-11T07:47:46Z</time>
      </trkpt>
      <trkpt lat="42.498417000" lon="-2.614268000">
        <ele>414.00</ele>
        <time>2017-02-11T07:47:47Z</time>
      </trkpt>
      <trkpt lat="42.498440000" lon="-2.614292000">
        <ele>414.20</ele>
        <time>2017-02-11T07:47:48Z</time>
      </trkpt>
      <trkpt lat="42.498463000" lon="-2.614315000">
        <ele>414.30</ele>
        <time>2017-02-11T07:47:49Z</time>
      </trkpt>
      <trkpt lat="42.498487000" lon="-2.614336000">
        <ele>414.40</ele>
        <time>2017-02-11T07:47:50Z</time>
      </trkpt>
      <trkpt lat="42.498515000" lon="-2.614354000">
        <ele>414.50</ele>
        <time>2017-02-11T07:47:51Z</time>
      </trkpt>
      <trkpt lat="42.498549000" lon="-2.614370000">
        <ele>414.50</ele>
        <time>2017-02-11T07:47:52Z</time>
      </trkpt>
      <trkpt lat="42.498585000" lon="-2.614387000">
        <ele>414.60</ele>
        <time>2017-02-11T07:47:53Z</time>
      </trkpt>
      <trkpt lat="42.498617000" lon="-2.614400000">
        <ele>414.90</ele>
        <time>2017-02-11T07:47:54Z</time>
      </trkpt>
      <trkpt lat="42.498650000" lon="-2.614417000">
        <ele>415.10</ele>
        <time>2017-02-11T07:47:55Z</time>
      </trkpt>
      <trkpt lat="42.498681000" lon="-2.614441000">
        <ele>415.40</ele>
        <time>2017-02-11T07:47:56Z</time>
      </trkpt>
      <trkpt lat="42.498713000" lon="-2.614471000">
        <ele>415.60</ele>
        <time>2017-02-11T07:47:57Z</time>
      </trkpt>
      <trkpt lat="42.498743000" lon="-2.614505000">
        <ele>415.90</ele>
        <time>2017-02-11T07:47:58Z</time>
      </trkpt>
      <trkpt lat="42.498772000" lon="-2.614535000">
        <ele>416.20</ele>
        <time>2017-02-11T07:47:59Z</time>
      </trkpt>
      <trkpt lat="42.498798000" lon="-2.614570000">
        <ele>416.40</ele>
        <time>2017-02-11T07:48:00Z</time>
      </trkpt>
      <trkpt lat="42.498820000" lon="-2.614611000">
        <ele>416.50</ele>
        <time>2017-02-11T07:48:01Z</time>
      </trkpt>
      <trkpt lat="42.498844000" lon="-2.614650000">
        <ele>416.60</ele>
        <time>2017-02-11T07:48:02Z</time>
      </trkpt>
      <trkpt lat="42.498867000" lon="-2.614692000">
        <ele>416.70</ele>
        <time>2017-02-11T07:48:03Z</time>
      </trkpt>
      <trkpt lat="42.498889000" lon="-2.614737000">
        <ele>416.80</ele>
        <time>2017-02-11T07:48:04Z</time>
      </trkpt>
      <trkpt lat="42.498906000" lon="-2.614779000">
        <ele>416.80</ele>
        <time>2017-02-11T07:48:05Z</time>
      </trkpt>
      <trkpt lat="42.498924000" lon="-2.614822000">
        <ele>416.90</ele>
        <time>2017-02-11T07:48:06Z</time>
      </trkpt>
      <trkpt lat="42.498946000" lon="-2.614863000">
        <ele>417.00</ele>
        <time>2017-02-11T07:48:07Z</time>
      </trkpt>
      <trkpt lat="42.498966000" lon="-2.614910000">
        <ele>417.20</ele>
        <time>2017-02-11T07:48:08Z</time>
      </trkpt>
      <trkpt lat="42.498985000" lon="-2.614955000">
        <ele>417.30</ele>
        <time>2017-02-11T07:48:09Z</time>
      </trkpt>
      <trkpt lat="42.499006000" lon="-2.615005000">
        <ele>417.30</ele>
        <time>2017-02-11T07:48:10Z</time>
      </trkpt>
      <trkpt lat="42.499028000" lon="-2.615054000">
        <ele>417.40</ele>
        <time>2017-02-11T07:48:11Z</time>
      </trkpt>
      <trkpt lat="42.499066000" lon="-2.615143000">
        <ele>417.50</ele>
        <time>2017-02-11T07:48:13Z</time>
      </trkpt>
      <trkpt lat="42.499085000" lon="-2.615190000">
        <ele>417.30</ele>
        <time>2017-02-11T07:48:14Z</time>
      </trkpt>
      <trkpt lat="42.499103000" lon="-2.615233000">
        <ele>417.20</ele>
        <time>2017-02-11T07:48:15Z</time>
      </trkpt>
      <trkpt lat="42.499120000" lon="-2.615274000">
        <ele>417.20</ele>
        <time>2017-02-11T07:48:16Z</time>
      </trkpt>
      <trkpt lat="42.499136000" lon="-2.615314000">
        <ele>417.10</ele>
        <time>2017-02-11T07:48:17Z</time>
      </trkpt>
      <trkpt lat="42.499154000" lon="-2.615349000">
        <ele>417.10</ele>
        <time>2017-02-11T07:48:18Z</time>
      </trkpt>
      <trkpt lat="42.499170000" lon="-2.615377000">
        <ele>417.00</ele>
        <time>2017-02-11T07:48:19Z</time>
      </trkpt>
      <trkpt lat="42.499190000" lon="-2.615399000">
        <ele>417.10</ele>
        <time>2017-02-11T07:48:20Z</time>
      </trkpt>
      <trkpt lat="42.499204000" lon="-2.615416000">
        <ele>417.10</ele>
        <time>2017-02-11T07:48:21Z</time>
      </trkpt>
      <trkpt lat="42.499216000" lon="-2.615439000">
        <ele>416.90</ele>
        <time>2017-02-11T07:48:22Z</time>
      </trkpt>
      <trkpt lat="42.499220000" lon="-2.615460000">
        <ele>416.80</ele>
        <time>2017-02-11T07:48:23Z</time>
      </trkpt>
      <trkpt lat="42.499217000" lon="-2.615479000">
        <ele>416.90</ele>
        <time>2017-02-11T07:48:24Z</time>
      </trkpt>
      <trkpt lat="42.499199000" lon="-2.615496000">
        <ele>417.00</ele>
        <time>2017-02-11T07:48:25Z</time>
      </trkpt>
      <trkpt lat="42.499180000" lon="-2.615504000">
        <ele>417.10</ele>
        <time>2017-02-11T07:48:26Z</time>
      </trkpt>
      <trkpt lat="42.499158000" lon="-2.615507000">
        <ele>417.10</ele>
        <time>2017-02-11T07:48:27Z</time>
      </trkpt>
      <trkpt lat="42.499137000" lon="-2.615509000">
        <ele>417.20</ele>
        <time>2017-02-11T07:48:28Z</time>
      </trkpt>
      <trkpt lat="42.499114000" lon="-2.615515000">
        <ele>417.20</ele>
        <time>2017-02-11T07:48:29Z</time>
      </trkpt>
      <trkpt lat="42.499085000" lon="-2.615513000">
        <ele>417.30</ele>
        <time>2017-02-11T07:48:30Z</time>
      </trkpt>
      <trkpt lat="42.499054000" lon="-2.615514000">
        <ele>417.30</ele>
        <time>2017-02-11T07:48:31Z</time>
      </trkpt>
      <trkpt lat="42.499021000" lon="-2.615517000">
        <ele>417.50</ele>
        <time>2017-02-11T07:48:32Z</time>
      </trkpt>
      <trkpt lat="42.498991000" lon="-2.615522000">
        <ele>417.70</ele>
        <time>2017-02-11T07:48:33Z</time>
      </trkpt>
      <trkpt lat="42.498960000" lon="-2.615521000">
        <ele>418.00</ele>
        <time>2017-02-11T07:48:34Z</time>
      </trkpt>
      <trkpt lat="42.498930000" lon="-2.615526000">
        <ele>418.20</ele>
        <time>2017-02-11T07:48:35Z</time>
      </trkpt>
      <trkpt lat="42.498896000" lon="-2.615533000">
        <ele>418.30</ele>
        <time>2017-02-11T07:48:36Z</time>
      </trkpt>
      <trkpt lat="42.498853000" lon="-2.615546000">
        <ele>418.50</ele>
        <time>2017-02-11T07:48:37Z</time>
      </trkpt>
      <trkpt lat="42.498801000" lon="-2.615558000">
        <ele>418.60</ele>
        <time>2017-02-11T07:48:38Z</time>
      </trkpt>
      <trkpt lat="42.498741000" lon="-2.615550000">
        <ele>418.60</ele>
        <time>2017-02-11T07:48:39Z</time>
      </trkpt>
      <trkpt lat="42.498680000" lon="-2.615549000">
        <ele>418.70</ele>
        <time>2017-02-11T07:48:40Z</time>
      </trkpt>
      <trkpt lat="42.498621000" lon="-2.615550000">
        <ele>418.70</ele>
        <time>2017-02-11T07:48:41Z</time>
      </trkpt>
      <trkpt lat="42.498575000" lon="-2.615550000">
        <ele>418.80</ele>
        <time>2017-02-11T07:48:42Z</time>
      </trkpt>
      <trkpt lat="42.498535000" lon="-2.615552000">
        <ele>418.80</ele>
        <time>2017-02-11T07:48:43Z</time>
      </trkpt>
      <trkpt lat="42.498497000" lon="-2.615554000">
        <ele>418.80</ele>
        <time>2017-02-11T07:48:44Z</time>
      </trkpt>
      <trkpt lat="42.498460000" lon="-2.615557000">
        <ele>418.80</ele>
        <time>2017-02-11T07:48:45Z</time>
      </trkpt>
      <trkpt lat="42.498423000" lon="-2.615556000">
        <ele>418.60</ele>
        <time>2017-02-11T07:48:46Z</time>
      </trkpt>
      <trkpt lat="42.498384000" lon="-2.615555000">
        <ele>418.50</ele>
        <time>2017-02-11T07:48:47Z</time>
      </trkpt>
      <trkpt lat="42.498343000" lon="-2.615557000">
        <ele>418.40</ele>
        <time>2017-02-11T07:48:48Z</time>
      </trkpt>
      <trkpt lat="42.498305000" lon="-2.615557000">
        <ele>418.30</ele>
        <time>2017-02-11T07:48:49Z</time>
      </trkpt>
      <trkpt lat="42.498268000" lon="-2.615552000">
        <ele>418.40</ele>
        <time>2017-02-11T07:48:50Z</time>
      </trkpt>
      <trkpt lat="42.498231000" lon="-2.615549000">
        <ele>418.50</ele>
        <time>2017-02-11T07:48:51Z</time>
      </trkpt>
      <trkpt lat="42.498195000" lon="-2.615551000">
        <ele>418.60</ele>
        <time>2017-02-11T07:48:52Z</time>
      </trkpt>
      <trkpt lat="42.498160000" lon="-2.615552000">
        <ele>418.70</ele>
        <time>2017-02-11T07:48:53Z</time>
      </trkpt>
      <trkpt lat="42.498124000" lon="-2.615553000">
        <ele>418.70</ele>
        <time>2017-02-11T07:48:54Z</time>
      </trkpt>
      <trkpt lat="42.498089000" lon="-2.615556000">
        <ele>418.70</ele>
        <time>2017-02-11T07:48:55Z</time>
      </trkpt>
      <trkpt lat="42.498053000" lon="-2.615559000">
        <ele>418.60</ele>
        <time>2017-02-11T07:48:56Z</time>
      </trkpt>
      <trkpt lat="42.498017000" lon="-2.615563000">
        <ele>418.40</ele>
        <time>2017-02-11T07:48:57Z</time>
      </trkpt>
      <trkpt lat="42.497980000" lon="-2.615562000">
        <ele>418.50</ele>
        <time>2017-02-11T07:48:58Z</time>
      </trkpt>
      <trkpt lat="42.497944000" lon="-2.615569000">
        <ele>418.60</ele>
        <time>2017-02-11T07:48:59Z</time>
      </trkpt>
      <trkpt lat="42.497907000" lon="-2.615574000">
        <ele>418.50</ele>
        <time>2017-02-11T07:49:00Z</time>
      </trkpt>
      <trkpt lat="42.497867000" lon="-2.615577000">
        <ele>418.40</ele>
        <time>2017-02-11T07:49:01Z</time>
      </trkpt>
      <trkpt lat="42.497828000" lon="-2.615591000">
        <ele>418.20</ele>
        <time>2017-02-11T07:49:02Z</time>
      </trkpt>
      <trkpt lat="42.497787000" lon="-2.615608000">
        <ele>418.00</ele>
        <time>2017-02-11T07:49:03Z</time>
      </trkpt>
      <trkpt lat="42.497747000" lon="-2.615624000">
        <ele>417.70</ele>
        <time>2017-02-11T07:49:04Z</time>
      </trkpt>
      <trkpt lat="42.497708000" lon="-2.615642000">
        <ele>417.40</ele>
        <time>2017-02-11T07:49:05Z</time>
      </trkpt>
      <trkpt lat="42.497667000" lon="-2.615659000">
        <ele>417.40</ele>
        <time>2017-02-11T07:49:06Z</time>
      </trkpt>
      <trkpt lat="42.497628000" lon="-2.615675000">
        <ele>417.30</ele>
        <time>2017-02-11T07:49:07Z</time>
      </trkpt>
      <trkpt lat="42.497591000" lon="-2.615691000">
        <ele>417.30</ele>
        <time>2017-02-11T07:49:08Z</time>
      </trkpt>
      <trkpt lat="42.497555000" lon="-2.615710000">
        <ele>417.30</ele>
        <time>2017-02-11T07:49:09Z</time>
      </trkpt>
      <trkpt lat="42.497522000" lon="-2.615732000">
        <ele>417.30</ele>
        <time>2017-02-11T07:49:10Z</time>
      </trkpt>
      <trkpt lat="42.497489000" lon="-2.615757000">
        <ele>417.30</ele>
        <time>2017-02-11T07:49:11Z</time>
      </trkpt>
      <trkpt lat="42.497453000" lon="-2.615783000">
        <ele>417.10</ele>
        <time>2017-02-11T07:49:12Z</time>
      </trkpt>
      <trkpt lat="42.497380000" lon="-2.615844000">
        <ele>416.90</ele>
        <time>2017-02-11T07:49:14Z</time>
      </trkpt>
      <trkpt lat="42.497344000" lon="-2.615872000">
        <ele>416.80</ele>
        <time>2017-02-11T07:49:15Z</time>
      </trkpt>
      <trkpt lat="42.497309000" lon="-2.615899000">
        <ele>416.80</ele>
        <time>2017-02-11T07:49:16Z</time>
      </trkpt>
      <trkpt lat="42.497273000" lon="-2.615927000">
        <ele>416.80</ele>
        <time>2017-02-11T07:49:17Z</time>
      </trkpt>
      <trkpt lat="42.497238000" lon="-2.615953000">
        <ele>416.80</ele>
        <time>2017-02-11T07:49:18Z</time>
      </trkpt>
      <trkpt lat="42.497201000" lon="-2.615979000">
        <ele>416.80</ele>
        <time>2017-02-11T07:49:19Z</time>
      </trkpt>
      <trkpt lat="42.497164000" lon="-2.616009000">
        <ele>416.80</ele>
        <time>2017-02-11T07:49:20Z</time>
      </trkpt>
      <trkpt lat="42.497129000" lon="-2.616035000">
        <ele>416.70</ele>
        <time>2017-02-11T07:49:21Z</time>
      </trkpt>
      <trkpt lat="42.497092000" lon="-2.616064000">
        <ele>416.70</ele>
        <time>2017-02-11T07:49:22Z</time>
      </trkpt>
      <trkpt lat="42.497053000" lon="-2.616094000">
        <ele>416.70</ele>
        <time>2017-02-11T07:49:23Z</time>
      </trkpt>
      <trkpt lat="42.497017000" lon="-2.616127000">
        <ele>416.90</ele>
        <time>2017-02-11T07:49:24Z</time>
      </trkpt>
      <trkpt lat="42.496984000" lon="-2.616160000">
        <ele>417.10</ele>
        <time>2017-02-11T07:49:25Z</time>
      </trkpt>
      <trkpt lat="42.496954000" lon="-2.616199000">
        <ele>417.20</ele>
        <time>2017-02-11T07:49:26Z</time>
      </trkpt>
      <trkpt lat="42.496926000" lon="-2.616241000">
        <ele>417.30</ele>
        <time>2017-02-11T07:49:27Z</time>
      </trkpt>
      <trkpt lat="42.496901000" lon="-2.616287000">
        <ele>417.00</ele>
        <time>2017-02-11T07:49:28Z</time>
      </trkpt>
      <trkpt lat="42.496875000" lon="-2.616327000">
        <ele>416.70</ele>
        <time>2017-02-11T07:49:29Z</time>
      </trkpt>
      <trkpt lat="42.496849000" lon="-2.616373000">
        <ele>416.60</ele>
        <time>2017-02-11T07:49:30Z</time>
      </trkpt>
      <trkpt lat="42.496820000" lon="-2.616408000">
        <ele>416.40</ele>
        <time>2017-02-11T07:49:31Z</time>
      </trkpt>
      <trkpt lat="42.496789000" lon="-2.616449000">
        <ele>416.30</ele>
        <time>2017-02-11T07:49:32Z</time>
      </trkpt>
      <trkpt lat="42.496759000" lon="-2.616488000">
        <ele>416.20</ele>
        <time>2017-02-11T07:49:33Z</time>
      </trkpt>
      <trkpt lat="42.496726000" lon="-2.616528000">
        <ele>416.10</ele>
        <time>2017-02-11T07:49:34Z</time>
      </trkpt>
      <trkpt lat="42.496692000" lon="-2.616565000">
        <ele>416.00</ele>
        <time>2017-02-11T07:49:35Z</time>
      </trkpt>
      <trkpt lat="42.496658000" lon="-2.616595000">
        <ele>416.00</ele>
        <time>2017-02-11T07:49:36Z</time>
      </trkpt>
      <trkpt lat="42.496623000" lon="-2.616625000">
        <ele>415.90</ele>
        <time>2017-02-11T07:49:37Z</time>
      </trkpt>
      <trkpt lat="42.496589000" lon="-2.616659000">
        <ele>416.00</ele>
        <time>2017-02-11T07:49:38Z</time>
      </trkpt>
      <trkpt lat="42.496555000" lon="-2.616695000">
        <ele>416.00</ele>
        <time>2017-02-11T07:49:39Z</time>
      </trkpt>
      <trkpt lat="42.496522000" lon="-2.616734000">
        <ele>416.00</ele>
        <time>2017-02-11T07:49:40Z</time>
      </trkpt>
      <trkpt lat="42.496487000" lon="-2.616779000">
        <ele>416.00</ele>
        <time>2017-02-11T07:49:41Z</time>
      </trkpt>
      <trkpt lat="42.496456000" lon="-2.616828000">
        <ele>416.00</ele>
        <time>2017-02-11T07:49:42Z</time>
      </trkpt>
      <trkpt lat="42.496427000" lon="-2.616886000">
        <ele>416.00</ele>
        <time>2017-02-11T07:49:43Z</time>
      </trkpt>
      <trkpt lat="42.496396000" lon="-2.616941000">
        <ele>415.90</ele>
        <time>2017-02-11T07:49:44Z</time>
      </trkpt>
      <trkpt lat="42.496368000" lon="-2.617003000">
        <ele>415.70</ele>
        <time>2017-02-11T07:49:45Z</time>
      </trkpt>
      <trkpt lat="42.496349000" lon="-2.617066000">
        <ele>415.50</ele>
        <time>2017-02-11T07:49:46Z</time>
      </trkpt>
      <trkpt lat="42.496341000" lon="-2.617128000">
        <ele>415.30</ele>
        <time>2017-02-11T07:49:47Z</time>
      </trkpt>
      <trkpt lat="42.496340000" lon="-2.617187000">
        <ele>415.00</ele>
        <time>2017-02-11T07:49:48Z</time>
      </trkpt>
      <trkpt lat="42.496345000" lon="-2.617238000">
        <ele>414.80</ele>
        <time>2017-02-11T07:49:49Z</time>
      </trkpt>
      <trkpt lat="42.496346000" lon="-2.617286000">
        <ele>414.70</ele>
        <time>2017-02-11T07:49:50Z</time>
      </trkpt>
      <trkpt lat="42.496345000" lon="-2.617333000">
        <ele>414.60</ele>
        <time>2017-02-11T07:49:51Z</time>
      </trkpt>
      <trkpt lat="42.496347000" lon="-2.617375000">
        <ele>414.50</ele>
        <time>2017-02-11T07:49:52Z</time>
      </trkpt>
      <trkpt lat="42.496349000" lon="-2.617416000">
        <ele>414.40</ele>
        <time>2017-02-11T07:49:53Z</time>
      </trkpt>
      <trkpt lat="42.496351000" lon="-2.617457000">
        <ele>414.50</ele>
        <time>2017-02-11T07:49:54Z</time>
      </trkpt>
      <trkpt lat="42.496353000" lon="-2.617501000">
        <ele>414.60</ele>
        <time>2017-02-11T07:49:55Z</time>
      </trkpt>
      <trkpt lat="42.496354000" lon="-2.617544000">
        <ele>414.70</ele>
        <time>2017-02-11T07:49:56Z</time>
      </trkpt>
      <trkpt lat="42.496359000" lon="-2.617585000">
        <ele>414.80</ele>
        <time>2017-02-11T07:49:57Z</time>
      </trkpt>
      <trkpt lat="42.496373000" lon="-2.617624000">
        <ele>414.90</ele>
        <time>2017-02-11T07:49:58Z</time>
      </trkpt>
      <trkpt lat="42.496388000" lon="-2.617666000">
        <ele>415.00</ele>
        <time>2017-02-11T07:49:59Z</time>
      </trkpt>
      <trkpt lat="42.496412000" lon="-2.617699000">
        <ele>415.00</ele>
        <time>2017-02-11T07:50:00Z</time>
      </trkpt>
      <trkpt lat="42.496434000" lon="-2.617735000">
        <ele>415.00</ele>
        <time>2017-02-11T07:50:01Z</time>
      </trkpt>
      <trkpt lat="42.496457000" lon="-2.617767000">
        <ele>415.20</ele>
        <time>2017-02-11T07:50:02Z</time>
      </trkpt>
      <trkpt lat="42.496483000" lon="-2.617800000">
        <ele>415.40</ele>
        <time>2017-02-11T07:50:03Z</time>
      </trkpt>
      <trkpt lat="42.496510000" lon="-2.617831000">
        <ele>415.50</ele>
        <time>2017-02-11T07:50:04Z</time>
      </trkpt>
      <trkpt lat="42.496534000" lon="-2.617864000">
        <ele>415.60</ele>
        <time>2017-02-11T07:50:05Z</time>
      </trkpt>
      <trkpt lat="42.496561000" lon="-2.617887000">
        <ele>415.60</ele>
        <time>2017-02-11T07:50:06Z</time>
      </trkpt>
      <trkpt lat="42.496587000" lon="-2.617911000">
        <ele>415.70</ele>
        <time>2017-02-11T07:50:07Z</time>
      </trkpt>
      <trkpt lat="42.496610000" lon="-2.617939000">
        <ele>415.60</ele>
        <time>2017-02-11T07:50:08Z</time>
      </trkpt>
      <trkpt lat="42.496634000" lon="-2.617964000">
        <ele>415.60</ele>
        <time>2017-02-11T07:50:09Z</time>
      </trkpt>
      <trkpt lat="42.496659000" lon="-2.617989000">
        <ele>415.40</ele>
        <time>2017-02-11T07:50:10Z</time>
      </trkpt>
      <trkpt lat="42.496683000" lon="-2.618016000">
        <ele>415.20</ele>
        <time>2017-02-11T07:50:11Z</time>
      </trkpt>
      <trkpt lat="42.496706000" lon="-2.618046000">
        <ele>415.30</ele>
        <time>2017-02-11T07:50:12Z</time>
      </trkpt>
      <trkpt lat="42.496723000" lon="-2.618075000">
        <ele>415.40</ele>
        <time>2017-02-11T07:50:13Z</time>
      </trkpt>
      <trkpt lat="42.496760000" lon="-2.618146000">
        <ele>415.30</ele>
        <time>2017-02-11T07:50:15Z</time>
      </trkpt>
      <trkpt lat="42.496775000" lon="-2.618191000">
        <ele>415.30</ele>
        <time>2017-02-11T07:50:16Z</time>
      </trkpt>
      <trkpt lat="42.496784000" lon="-2.618247000">
        <ele>415.30</ele>
        <time>2017-02-11T07:50:17Z</time>
      </trkpt>
      <trkpt lat="42.496799000" lon="-2.618308000">
        <ele>415.30</ele>
        <time>2017-02-11T07:50:18Z</time>
      </trkpt>
      <trkpt lat="42.496820000" lon="-2.618378000">
        <ele>415.30</ele>
        <time>2017-02-11T07:50:19Z</time>
      </trkpt>
      <trkpt lat="42.496858000" lon="-2.618454000">
        <ele>414.80</ele>
        <time>2017-02-11T07:50:20Z</time>
      </trkpt>
      <trkpt lat="42.496905000" lon="-2.618523000">
        <ele>414.40</ele>
        <time>2017-02-11T07:50:21Z</time>
      </trkpt>
      <trkpt lat="42.496950000" lon="-2.618588000">
        <ele>414.00</ele>
        <time>2017-02-11T07:50:22Z</time>
      </trkpt>
      <trkpt lat="42.496987000" lon="-2.618659000">
        <ele>413.60</ele>
        <time>2017-02-11T07:50:23Z</time>
      </trkpt>
      <trkpt lat="42.497009000" lon="-2.618731000">
        <ele>413.20</ele>
        <time>2017-02-11T07:50:24Z</time>
      </trkpt>
      <trkpt lat="42.497019000" lon="-2.618801000">
        <ele>412.90</ele>
        <time>2017-02-11T07:50:25Z</time>
      </trkpt>
      <trkpt lat="42.497032000" lon="-2.618856000">
        <ele>412.60</ele>
        <time>2017-02-11T07:50:26Z</time>
      </trkpt>
      <trkpt lat="42.497049000" lon="-2.618912000">
        <ele>412.40</ele>
        <time>2017-02-11T07:50:27Z</time>
      </trkpt>
      <trkpt lat="42.497069000" lon="-2.618965000">
        <ele>412.20</ele>
        <time>2017-02-11T07:50:28Z</time>
      </trkpt>
      <trkpt lat="42.497093000" lon="-2.619023000">
        <ele>412.10</ele>
        <time>2017-02-11T07:50:29Z</time>
      </trkpt>
      <trkpt lat="42.497113000" lon="-2.619083000">
        <ele>411.90</ele>
        <time>2017-02-11T07:50:30Z</time>
      </trkpt>
      <trkpt lat="42.497132000" lon="-2.619148000">
        <ele>411.70</ele>
        <time>2017-02-11T07:50:31Z</time>
      </trkpt>
      <trkpt lat="42.497154000" lon="-2.619217000">
        <ele>411.40</ele>
        <time>2017-02-11T07:50:32Z</time>
      </trkpt>
      <trkpt lat="42.497178000" lon="-2.619281000">
        <ele>411.20</ele>
        <time>2017-02-11T07:50:33Z</time>
      </trkpt>
      <trkpt lat="42.497208000" lon="-2.619345000">
        <ele>410.90</ele>
        <time>2017-02-11T07:50:34Z</time>
      </trkpt>
      <trkpt lat="42.497241000" lon="-2.619404000">
        <ele>410.70</ele>
        <time>2017-02-11T07:50:35Z</time>
      </trkpt>
      <trkpt lat="42.497280000" lon="-2.619459000">
        <ele>410.40</ele>
        <time>2017-02-11T07:50:36Z</time>
      </trkpt>
      <trkpt lat="42.497322000" lon="-2.619508000">
        <ele>410.20</ele>
        <time>2017-02-11T07:50:37Z</time>
      </trkpt>
      <trkpt lat="42.497364000" lon="-2.619552000">
        <ele>409.90</ele>
        <time>2017-02-11T07:50:38Z</time>
      </trkpt>
      <trkpt lat="42.497406000" lon="-2.619595000">
        <ele>409.60</ele>
        <time>2017-02-11T07:50:39Z</time>
      </trkpt>
      <trkpt lat="42.497445000" lon="-2.619633000">
        <ele>409.30</ele>
        <time>2017-02-11T07:50:40Z</time>
      </trkpt>
      <trkpt lat="42.497483000" lon="-2.619666000">
        <ele>409.10</ele>
        <time>2017-02-11T07:50:41Z</time>
      </trkpt>
      <trkpt lat="42.497522000" lon="-2.619694000">
        <ele>409.00</ele>
        <time>2017-02-11T07:50:42Z</time>
      </trkpt>
      <trkpt lat="42.497559000" lon="-2.619719000">
        <ele>409.00</ele>
        <time>2017-02-11T07:50:43Z</time>
      </trkpt>
      <trkpt lat="42.497591000" lon="-2.619745000">
        <ele>409.00</ele>
        <time>2017-02-11T07:50:44Z</time>
      </trkpt>
      <trkpt lat="42.497625000" lon="-2.619767000">
        <ele>409.00</ele>
        <time>2017-02-11T07:50:45Z</time>
      </trkpt>
      <trkpt lat="42.497659000" lon="-2.619787000">
        <ele>409.00</ele>
        <time>2017-02-11T07:50:46Z</time>
      </trkpt>
      <trkpt lat="42.497695000" lon="-2.619805000">
        <ele>409.00</ele>
        <time>2017-02-11T07:50:47Z</time>
      </trkpt>
      <trkpt lat="42.497731000" lon="-2.619820000">
        <ele>409.00</ele>
        <time>2017-02-11T07:50:48Z</time>
      </trkpt>
      <trkpt lat="42.497766000" lon="-2.619836000">
        <ele>409.00</ele>
        <time>2017-02-11T07:50:49Z</time>
      </trkpt>
      <trkpt lat="42.497800000" lon="-2.619849000">
        <ele>409.00</ele>
        <time>2017-02-11T07:50:50Z</time>
      </trkpt>
      <trkpt lat="42.497835000" lon="-2.619861000">
        <ele>409.00</ele>
        <time>2017-02-11T07:50:51Z</time>
      </trkpt>
      <trkpt lat="42.497866000" lon="-2.619879000">
        <ele>409.40</ele>
        <time>2017-02-11T07:50:52Z</time>
      </trkpt>
      <trkpt lat="42.497897000" lon="-2.619891000">
        <ele>409.70</ele>
        <time>2017-02-11T07:50:53Z</time>
      </trkpt>
      <trkpt lat="42.497925000" lon="-2.619906000">
        <ele>409.90</ele>
        <time>2017-02-11T07:50:54Z</time>
      </trkpt>
      <trkpt lat="42.497954000" lon="-2.619921000">
        <ele>410.10</ele>
        <time>2017-02-11T07:50:55Z</time>
      </trkpt>
      <trkpt lat="42.497981000" lon="-2.619940000">
        <ele>410.30</ele>
        <time>2017-02-11T07:50:56Z</time>
      </trkpt>
      <trkpt lat="42.498005000" lon="-2.619965000">
        <ele>410.40</ele>
        <time>2017-02-11T07:50:57Z</time>
      </trkpt>
      <trkpt lat="42.498029000" lon="-2.619989000">
        <ele>410.60</ele>
        <time>2017-02-11T07:50:58Z</time>
      </trkpt>
      <trkpt lat="42.498052000" lon="-2.620013000">
        <ele>410.90</ele>
        <time>2017-02-11T07:50:59Z</time>
      </trkpt>
      <trkpt lat="42.498071000" lon="-2.620037000">
        <ele>410.90</ele>
        <time>2017-02-11T07:51:00Z</time>
      </trkpt>
      <trkpt lat="42.498087000" lon="-2.620064000">
        <ele>410.90</ele>
        <time>2017-02-11T07:51:01Z</time>
      </trkpt>
      <trkpt lat="42.498102000" lon="-2.620087000">
        <ele>410.90</ele>
        <time>2017-02-11T07:51:02Z</time>
      </trkpt>
      <trkpt lat="42.498115000" lon="-2.620112000">
        <ele>410.90</ele>
        <time>2017-02-11T07:51:03Z</time>
      </trkpt>
      <trkpt lat="42.498121000" lon="-2.620149000">
        <ele>410.60</ele>
        <time>2017-02-11T07:51:04Z</time>
      </trkpt>
      <trkpt lat="42.498125000" lon="-2.620196000">
        <ele>410.40</ele>
        <time>2017-02-11T07:51:05Z</time>
      </trkpt>
      <trkpt lat="42.498121000" lon="-2.620248000">
        <ele>410.20</ele>
        <time>2017-02-11T07:51:06Z</time>
      </trkpt>
      <trkpt lat="42.498118000" lon="-2.620298000">
        <ele>410.10</ele>
        <time>2017-02-11T07:51:07Z</time>
      </trkpt>
      <trkpt lat="42.498111000" lon="-2.620350000">
        <ele>410.10</ele>
        <time>2017-02-11T07:51:08Z</time>
      </trkpt>
      <trkpt lat="42.498102000" lon="-2.620403000">
        <ele>410.10</ele>
        <time>2017-02-11T07:51:09Z</time>
      </trkpt>
      <trkpt lat="42.498094000" lon="-2.620456000">
        <ele>410.10</ele>
        <time>2017-02-11T07:51:10Z</time>
      </trkpt>
      <trkpt lat="42.498089000" lon="-2.620507000">
        <ele>410.00</ele>
        <time>2017-02-11T07:51:11Z</time>
      </trkpt>
      <trkpt lat="42.498085000" lon="-2.620557000">
        <ele>409.80</ele>
        <time>2017-02-11T07:51:12Z</time>
      </trkpt>
      <trkpt lat="42.498079000" lon="-2.620605000">
        <ele>409.70</ele>
        <time>2017-02-11T07:51:13Z</time>
      </trkpt>
      <trkpt lat="42.498072000" lon="-2.620653000">
        <ele>409.10</ele>
        <time>2017-02-11T07:51:14Z</time>
      </trkpt>
      <trkpt lat="42.498056000" lon="-2.620751000">
        <ele>408.20</ele>
        <time>2017-02-11T07:51:16Z</time>
      </trkpt>
      <trkpt lat="42.498045000" lon="-2.620800000">
        <ele>407.90</ele>
        <time>2017-02-11T07:51:17Z</time>
      </trkpt>
      <trkpt lat="42.498033000" lon="-2.620851000">
        <ele>407.30</ele>
        <time>2017-02-11T07:51:18Z</time>
      </trkpt>
      <trkpt lat="42.498014000" lon="-2.620899000">
        <ele>406.90</ele>
        <time>2017-02-11T07:51:19Z</time>
      </trkpt>
      <trkpt lat="42.497990000" lon="-2.620943000">
        <ele>406.60</ele>
        <time>2017-02-11T07:51:20Z</time>
      </trkpt>
      <trkpt lat="42.497971000" lon="-2.620987000">
        <ele>406.30</ele>
        <time>2017-02-11T07:51:21Z</time>
      </trkpt>
      <trkpt lat="42.497950000" lon="-2.621028000">
        <ele>406.10</ele>
        <time>2017-02-11T07:51:22Z</time>
      </trkpt>
      <trkpt lat="42.497932000" lon="-2.621073000">
        <ele>405.90</ele>
        <time>2017-02-11T07:51:23Z</time>
      </trkpt>
      <trkpt lat="42.497914000" lon="-2.621106000">
        <ele>405.80</ele>
        <time>2017-02-11T07:51:24Z</time>
      </trkpt>
      <trkpt lat="42.497893000" lon="-2.621140000">
        <ele>405.70</ele>
        <time>2017-02-11T07:51:25Z</time>
      </trkpt>
      <trkpt lat="42.497874000" lon="-2.621173000">
        <ele>405.80</ele>
        <time>2017-02-11T07:51:26Z</time>
      </trkpt>
      <trkpt lat="42.497856000" lon="-2.621207000">
        <ele>405.90</ele>
        <time>2017-02-11T07:51:27Z</time>
      </trkpt>
      <trkpt lat="42.497839000" lon="-2.621244000">
        <ele>406.00</ele>
        <time>2017-02-11T07:51:28Z</time>
      </trkpt>
      <trkpt lat="42.497821000" lon="-2.621279000">
        <ele>406.00</ele>
        <time>2017-02-11T07:51:29Z</time>
      </trkpt>
      <trkpt lat="42.497804000" lon="-2.621315000">
        <ele>406.30</ele>
        <time>2017-02-11T07:51:30Z</time>
      </trkpt>
      <trkpt lat="42.497786000" lon="-2.621351000">
        <ele>406.50</ele>
        <time>2017-02-11T07:51:31Z</time>
      </trkpt>
      <trkpt lat="42.497767000" lon="-2.621387000">
        <ele>406.70</ele>
        <time>2017-02-11T07:51:32Z</time>
      </trkpt>
      <trkpt lat="42.497749000" lon="-2.621421000">
        <ele>406.90</ele>
        <time>2017-02-11T07:51:33Z</time>
      </trkpt>
      <trkpt lat="42.497732000" lon="-2.621454000">
        <ele>407.20</ele>
        <time>2017-02-11T07:51:34Z</time>
      </trkpt>
      <trkpt lat="42.497716000" lon="-2.621488000">
        <ele>407.50</ele>
        <time>2017-02-11T07:51:35Z</time>
      </trkpt>
      <trkpt lat="42.497697000" lon="-2.621520000">
        <ele>407.90</ele>
        <time>2017-02-11T07:51:36Z</time>
      </trkpt>
      <trkpt lat="42.497679000" lon="-2.621557000">
        <ele>408.20</ele>
        <time>2017-02-11T07:51:37Z</time>
      </trkpt>
      <trkpt lat="42.497661000" lon="-2.621592000">
        <ele>408.60</ele>
        <time>2017-02-11T07:51:38Z</time>
      </trkpt>
      <trkpt lat="42.497643000" lon="-2.621625000">
        <ele>408.90</ele>
        <time>2017-02-11T07:51:39Z</time>
      </trkpt>
      <trkpt lat="42.497623000" lon="-2.621660000">
        <ele>409.40</ele>
        <time>2017-02-11T07:51:40Z</time>
      </trkpt>
      <trkpt lat="42.497600000" lon="-2.621684000">
        <ele>409.80</ele>
        <time>2017-02-11T07:51:41Z</time>
      </trkpt>
      <trkpt lat="42.497575000" lon="-2.621696000">
        <ele>410.20</ele>
        <time>2017-02-11T07:51:42Z</time>
      </trkpt>
      <trkpt lat="42.497551000" lon="-2.621704000">
        <ele>410.50</ele>
        <time>2017-02-11T07:51:43Z</time>
      </trkpt>
      <trkpt lat="42.497525000" lon="-2.621700000">
        <ele>411.00</ele>
        <time>2017-02-11T07:51:44Z</time>
      </trkpt>
      <trkpt lat="42.497497000" lon="-2.621693000">
        <ele>411.30</ele>
        <time>2017-02-11T07:51:45Z</time>
      </trkpt>
      <trkpt lat="42.497468000" lon="-2.621686000">
        <ele>411.70</ele>
        <time>2017-02-11T07:51:46Z</time>
      </trkpt>
      <trkpt lat="42.497438000" lon="-2.621683000">
        <ele>411.90</ele>
        <time>2017-02-11T07:51:47Z</time>
      </trkpt>
      <trkpt lat="42.497409000" lon="-2.621683000">
        <ele>412.30</ele>
        <time>2017-02-11T07:51:48Z</time>
      </trkpt>
      <trkpt lat="42.497381000" lon="-2.621684000">
        <ele>412.50</ele>
        <time>2017-02-11T07:51:49Z</time>
      </trkpt>
      <trkpt lat="42.497351000" lon="-2.621691000">
        <ele>412.90</ele>
        <time>2017-02-11T07:51:50Z</time>
      </trkpt>
      <trkpt lat="42.497327000" lon="-2.621704000">
        <ele>413.10</ele>
        <time>2017-02-11T07:51:51Z</time>
      </trkpt>
      <trkpt lat="42.497303000" lon="-2.621713000">
        <ele>413.40</ele>
        <time>2017-02-11T07:51:52Z</time>
      </trkpt>
      <trkpt lat="42.497282000" lon="-2.621728000">
        <ele>413.60</ele>
        <time>2017-02-11T07:51:53Z</time>
      </trkpt>
      <trkpt lat="42.497259000" lon="-2.621741000">
        <ele>414.10</ele>
        <time>2017-02-11T07:51:54Z</time>
      </trkpt>
      <trkpt lat="42.497239000" lon="-2.621754000">
        <ele>414.40</ele>
        <time>2017-02-11T07:51:55Z</time>
      </trkpt>
      <trkpt lat="42.497217000" lon="-2.621769000">
        <ele>414.70</ele>
        <time>2017-02-11T07:51:56Z</time>
      </trkpt>
      <trkpt lat="42.497194000" lon="-2.621784000">
        <ele>414.90</ele>
        <time>2017-02-11T07:51:57Z</time>
      </trkpt>
      <trkpt lat="42.497172000" lon="-2.621798000">
        <ele>415.10</ele>
        <time>2017-02-11T07:51:58Z</time>
      </trkpt>
      <trkpt lat="42.497151000" lon="-2.621810000">
        <ele>415.30</ele>
        <time>2017-02-11T07:51:59Z</time>
      </trkpt>
      <trkpt lat="42.497132000" lon="-2.621822000">
        <ele>415.40</ele>
        <time>2017-02-11T07:52:00Z</time>
      </trkpt>
      <trkpt lat="42.497113000" lon="-2.621841000">
        <ele>415.60</ele>
        <time>2017-02-11T07:52:01Z</time>
      </trkpt>
      <trkpt lat="42.497090000" lon="-2.621856000">
        <ele>416.00</ele>
        <time>2017-02-11T07:52:02Z</time>
      </trkpt>
      <trkpt lat="42.497066000" lon="-2.621873000">
        <ele>416.30</ele>
        <time>2017-02-11T07:52:03Z</time>
      </trkpt>
      <trkpt lat="42.497044000" lon="-2.621888000">
        <ele>416.50</ele>
        <time>2017-02-11T07:52:04Z</time>
      </trkpt>
      <trkpt lat="42.497026000" lon="-2.621905000">
        <ele>416.70</ele>
        <time>2017-02-11T07:52:05Z</time>
      </trkpt>
      <trkpt lat="42.497008000" lon="-2.621919000">
        <ele>416.90</ele>
        <time>2017-02-11T07:52:06Z</time>
      </trkpt>
      <trkpt lat="42.496990000" lon="-2.621933000">
        <ele>417.10</ele>
        <time>2017-02-11T07:52:07Z</time>
      </trkpt>
      <trkpt lat="42.496970000" lon="-2.621939000">
        <ele>417.60</ele>
        <time>2017-02-11T07:52:08Z</time>
      </trkpt>
      <trkpt lat="42.496949000" lon="-2.621946000">
        <ele>418.00</ele>
        <time>2017-02-11T07:52:09Z</time>
      </trkpt>
      <trkpt lat="42.496925000" lon="-2.621953000">
        <ele>418.30</ele>
        <time>2017-02-11T07:52:10Z</time>
      </trkpt>
      <trkpt lat="42.496900000" lon="-2.621970000">
        <ele>418.50</ele>
        <time>2017-02-11T07:52:11Z</time>
      </trkpt>
      <trkpt lat="42.496878000" lon="-2.621983000">
        <ele>418.60</ele>
        <time>2017-02-11T07:52:12Z</time>
      </trkpt>
      <trkpt lat="42.496853000" lon="-2.621990000">
        <ele>418.70</ele>
        <time>2017-02-11T07:52:13Z</time>
      </trkpt>
      <trkpt lat="42.496825000" lon="-2.622002000">
        <ele>418.80</ele>
        <time>2017-02-11T07:52:14Z</time>
      </trkpt>
      <trkpt lat="42.496796000" lon="-2.622014000">
        <ele>418.80</ele>
        <time>2017-02-11T07:52:15Z</time>
      </trkpt>
      <trkpt lat="42.496741000" lon="-2.622036000">
        <ele>419.40</ele>
        <time>2017-02-11T07:52:17Z</time>
      </trkpt>
      <trkpt lat="42.496713000" lon="-2.622047000">
        <ele>419.60</ele>
        <time>2017-02-11T07:52:18Z</time>
      </trkpt>
      <trkpt lat="42.496688000" lon="-2.622066000">
        <ele>419.80</ele>
        <time>2017-02-11T07:52:19Z</time>
      </trkpt>
      <trkpt lat="42.496666000" lon="-2.622080000">
        <ele>419.90</ele>
        <time>2017-02-11T07:52:20Z</time>
      </trkpt>
      <trkpt lat="42.496645000" lon="-2.622095000">
        <ele>420.00</ele>
        <time>2017-02-11T07:52:21Z</time>
      </trkpt>
      <trkpt lat="42.496621000" lon="-2.622107000">
        <ele>419.90</ele>
        <time>2017-02-11T07:52:22Z</time>
      </trkpt>
      <trkpt lat="42.496600000" lon="-2.622115000">
        <ele>419.90</ele>
        <time>2017-02-11T07:52:23Z</time>
      </trkpt>
      <trkpt lat="42.496577000" lon="-2.622128000">
        <ele>419.80</ele>
        <time>2017-02-11T07:52:24Z</time>
      </trkpt>
      <trkpt lat="42.496556000" lon="-2.622146000">
        <ele>419.80</ele>
        <time>2017-02-11T07:52:25Z</time>
      </trkpt>
      <trkpt lat="42.496531000" lon="-2.622160000">
        <ele>419.70</ele>
        <time>2017-02-11T07:52:26Z</time>
      </trkpt>
      <trkpt lat="42.496510000" lon="-2.622175000">
        <ele>419.60</ele>
        <time>2017-02-11T07:52:27Z</time>
      </trkpt>
      <trkpt lat="42.496485000" lon="-2.622186000">
        <ele>419.70</ele>
        <time>2017-02-11T07:52:28Z</time>
      </trkpt>
      <trkpt lat="42.496465000" lon="-2.622201000">
        <ele>419.70</ele>
        <time>2017-02-11T07:52:29Z</time>
      </trkpt>
      <trkpt lat="42.496445000" lon="-2.622216000">
        <ele>419.70</ele>
        <time>2017-02-11T07:52:30Z</time>
      </trkpt>
      <trkpt lat="42.496427000" lon="-2.622231000">
        <ele>419.70</ele>
        <time>2017-02-11T07:52:31Z</time>
      </trkpt>
      <trkpt lat="42.496410000" lon="-2.622244000">
        <ele>419.70</ele>
        <time>2017-02-11T07:52:32Z</time>
      </trkpt>
      <trkpt lat="42.496391000" lon="-2.622262000">
        <ele>419.70</ele>
        <time>2017-02-11T07:52:33Z</time>
      </trkpt>
      <trkpt lat="42.496374000" lon="-2.622282000">
        <ele>419.80</ele>
        <time>2017-02-11T07:52:34Z</time>
      </trkpt>
      <trkpt lat="42.496355000" lon="-2.622304000">
        <ele>419.80</ele>
        <time>2017-02-11T07:52:35Z</time>
      </trkpt>
      <trkpt lat="42.496339000" lon="-2.622330000">
        <ele>419.90</ele>
        <time>2017-02-11T07:52:36Z</time>
      </trkpt>
      <trkpt lat="42.496324000" lon="-2.622360000">
        <ele>419.90</ele>
        <time>2017-02-11T07:52:37Z</time>
      </trkpt>
      <trkpt lat="42.496313000" lon="-2.622393000">
        <ele>419.80</ele>
        <time>2017-02-11T07:52:38Z</time>
      </trkpt>
      <trkpt lat="42.496308000" lon="-2.622430000">
        <ele>419.70</ele>
        <time>2017-02-11T07:52:39Z</time>
      </trkpt>
      <trkpt lat="42.496305000" lon="-2.622461000">
        <ele>419.60</ele>
        <time>2017-02-11T07:52:40Z</time>
      </trkpt>
      <trkpt lat="42.496301000" lon="-2.622493000">
        <ele>419.50</ele>
        <time>2017-02-11T07:52:41Z</time>
      </trkpt>
      <trkpt lat="42.496295000" lon="-2.622518000">
        <ele>419.40</ele>
        <time>2017-02-11T07:52:42Z</time>
      </trkpt>
      <trkpt lat="42.496295000" lon="-2.622542000">
        <ele>419.30</ele>
        <time>2017-02-11T07:52:43Z</time>
      </trkpt>
      <trkpt lat="42.496299000" lon="-2.622563000">
        <ele>419.30</ele>
        <time>2017-02-11T07:52:44Z</time>
      </trkpt>
      <trkpt lat="42.496306000" lon="-2.622582000">
        <ele>419.30</ele>
        <time>2017-02-11T07:52:45Z</time>
      </trkpt>
      <trkpt lat="42.496307000" lon="-2.622592000">
        <ele>419.10</ele>
        <time>2017-02-11T07:52:46Z</time>
      </trkpt>
      <trkpt lat="42.496310000" lon="-2.622600000">
        <ele>419.00</ele>
        <time>2017-02-11T07:52:47Z</time>
      </trkpt>
      <trkpt lat="42.496310000" lon="-2.622599000">
        <ele>419.00</ele>
        <time>2017-02-11T07:52:48Z</time>
      </trkpt>
      <trkpt lat="42.496309000" lon="-2.622598000">
        <ele>418.90</ele>
        <time>2017-02-11T07:52:49Z</time>
      </trkpt>
      <trkpt lat="42.496307000" lon="-2.622595000">
        <ele>418.90</ele>
        <time>2017-02-11T07:52:50Z</time>
      </trkpt>
      <trkpt lat="42.496309000" lon="-2.622591000">
        <ele>419.00</ele>
        <time>2017-02-11T07:52:51Z</time>
      </trkpt>
      <trkpt lat="42.496306000" lon="-2.622598000">
        <ele>419.00</ele>
        <time>2017-02-11T07:52:52Z</time>
      </trkpt>
      <trkpt lat="42.496304000" lon="-2.622599000">
        <ele>419.10</ele>
        <time>2017-02-11T07:52:53Z</time>
      </trkpt>
      <trkpt lat="42.496304000" lon="-2.622599000">
        <ele>419.10</ele>
        <time>2017-02-11T07:52:54Z</time>
      </trkpt>
      <trkpt lat="42.496303000" lon="-2.622599000">
        <ele>419.20</ele>
        <time>2017-02-11T07:52:55Z</time>
      </trkpt>
      <trkpt lat="42.496300000" lon="-2.622596000">
        <ele>419.20</ele>
        <time>2017-02-11T07:52:56Z</time>
      </trkpt>
      <trkpt lat="42.496299000" lon="-2.622596000">
        <ele>419.20</ele>
        <time>2017-02-11T07:52:57Z</time>
      </trkpt>
      <trkpt lat="42.496299000" lon="-2.622598000">
        <ele>419.20</ele>
        <time>2017-02-11T07:52:58Z</time>
      </trkpt>
      <trkpt lat="42.496295000" lon="-2.622596000">
        <ele>419.20</ele>
        <time>2017-02-11T07:52:59Z</time>
      </trkpt>
      <trkpt lat="42.496295000" lon="-2.622597000">
        <ele>419.20</ele>
        <time>2017-02-11T07:53:00Z</time>
      </trkpt>
      <trkpt lat="42.496290000" lon="-2.622601000">
        <ele>419.10</ele>
        <time>2017-02-11T07:53:01Z</time>
      </trkpt>
      <trkpt lat="42.496286000" lon="-2.622601000">
        <ele>419.10</ele>
        <time>2017-02-11T07:53:02Z</time>
      </trkpt>
      <trkpt lat="42.496283000" lon="-2.622601000">
        <ele>419.10</ele>
        <time>2017-02-11T07:53:03Z</time>
      </trkpt>
      <trkpt lat="42.496282000" lon="-2.622608000">
        <ele>418.90</ele>
        <time>2017-02-11T07:53:04Z</time>
      </trkpt>
      <trkpt lat="42.496286000" lon="-2.622616000">
        <ele>418.80</ele>
        <time>2017-02-11T07:53:05Z</time>
      </trkpt>
      <trkpt lat="42.496288000" lon="-2.622612000">
        <ele>418.70</ele>
        <time>2017-02-11T07:53:06Z</time>
      </trkpt>
      <trkpt lat="42.496289000" lon="-2.622612000">
        <ele>418.60</ele>
        <time>2017-02-11T07:53:07Z</time>
      </trkpt>
      <trkpt lat="42.496290000" lon="-2.622615000">
        <ele>418.50</ele>
        <time>2017-02-11T07:53:08Z</time>
      </trkpt>
      <trkpt lat="42.496290000" lon="-2.622619000">
        <ele>418.50</ele>
        <time>2017-02-11T07:53:09Z</time>
      </trkpt>
      <trkpt lat="42.496291000" lon="-2.622613000">
        <ele>418.50</ele>
        <time>2017-02-11T07:53:10Z</time>
      </trkpt>
      <trkpt lat="42.496291000" lon="-2.622608000">
        <ele>418.50</ele>
        <time>2017-02-11T07:53:11Z</time>
      </trkpt>
      <trkpt lat="42.496291000" lon="-2.622609000">
        <ele>418.70</ele>
        <time>2017-02-11T07:53:12Z</time>
      </trkpt>
      <trkpt lat="42.496292000" lon="-2.622611000">
        <ele>418.80</ele>
        <time>2017-02-11T07:53:13Z</time>
      </trkpt>
      <trkpt lat="42.496304000" lon="-2.622624000">
        <ele>418.80</ele>
        <time>2017-02-11T07:53:14Z</time>
      </trkpt>
      <trkpt lat="42.496314000" lon="-2.622649000">
        <ele>418.90</ele>
        <time>2017-02-11T07:53:15Z</time>
      </trkpt>
      <trkpt lat="42.496332000" lon="-2.622679000">
        <ele>419.00</ele>
        <time>2017-02-11T07:53:16Z</time>
      </trkpt>
      <trkpt lat="42.496375000" lon="-2.622725000">
        <ele>419.00</ele>
        <time>2017-02-11T07:53:18Z</time>
      </trkpt>
      <trkpt lat="42.496390000" lon="-2.622750000">
        <ele>419.00</ele>
        <time>2017-02-11T07:53:19Z</time>
      </trkpt>
      <trkpt lat="42.496400000" lon="-2.622792000">
        <ele>418.90</ele>
        <time>2017-02-11T07:53:20Z</time>
      </trkpt>
      <trkpt lat="42.496396000" lon="-2.622846000">
        <ele>418.70</ele>
        <time>2017-02-11T07:53:21Z</time>
      </trkpt>
      <trkpt lat="42.496376000" lon="-2.622902000">
        <ele>418.50</ele>
        <time>2017-02-11T07:53:22Z</time>
      </trkpt>
      <trkpt lat="42.496347000" lon="-2.622954000">
        <ele>418.30</ele>
        <time>2017-02-11T07:53:23Z</time>
      </trkpt>
      <trkpt lat="42.496319000" lon="-2.623002000">
        <ele>417.90</ele>
        <time>2017-02-11T07:53:24Z</time>
      </trkpt>
      <trkpt lat="42.496292000" lon="-2.623046000">
        <ele>417.60</ele>
        <time>2017-02-11T07:53:25Z</time>
      </trkpt>
      <trkpt lat="42.496263000" lon="-2.623089000">
        <ele>417.10</ele>
        <time>2017-02-11T07:53:26Z</time>
      </trkpt>
      <trkpt lat="42.496230000" lon="-2.623134000">
        <ele>416.70</ele>
        <time>2017-02-11T07:53:27Z</time>
      </trkpt>
      <trkpt lat="42.496199000" lon="-2.623184000">
        <ele>416.30</ele>
        <time>2017-02-11T07:53:28Z</time>
      </trkpt>
      <trkpt lat="42.496164000" lon="-2.623234000">
        <ele>415.90</ele>
        <time>2017-02-11T07:53:29Z</time>
      </trkpt>
      <trkpt lat="42.496125000" lon="-2.623284000">
        <ele>415.60</ele>
        <time>2017-02-11T07:53:30Z</time>
      </trkpt>
      <trkpt lat="42.496076000" lon="-2.623333000">
        <ele>415.40</ele>
        <time>2017-02-11T07:53:31Z</time>
      </trkpt>
      <trkpt lat="42.496023000" lon="-2.623377000">
        <ele>414.90</ele>
        <time>2017-02-11T07:53:32Z</time>
      </trkpt>
      <trkpt lat="42.495962000" lon="-2.623421000">
        <ele>414.50</ele>
        <time>2017-02-11T07:53:33Z</time>
      </trkpt>
      <trkpt lat="42.495899000" lon="-2.623462000">
        <ele>414.00</ele>
        <time>2017-02-11T07:53:34Z</time>
      </trkpt>
      <trkpt lat="42.495833000" lon="-2.623499000">
        <ele>413.70</ele>
        <time>2017-02-11T07:53:35Z</time>
      </trkpt>
      <trkpt lat="42.495767000" lon="-2.623533000">
        <ele>413.20</ele>
        <time>2017-02-11T07:53:36Z</time>
      </trkpt>
      <trkpt lat="42.495701000" lon="-2.623560000">
        <ele>412.90</ele>
        <time>2017-02-11T07:53:37Z</time>
      </trkpt>
      <trkpt lat="42.495636000" lon="-2.623584000">
        <ele>412.50</ele>
        <time>2017-02-11T07:53:38Z</time>
      </trkpt>
      <trkpt lat="42.495573000" lon="-2.623608000">
        <ele>412.30</ele>
        <time>2017-02-11T07:53:39Z</time>
      </trkpt>
      <trkpt lat="42.495512000" lon="-2.623631000">
        <ele>412.10</ele>
        <time>2017-02-11T07:53:40Z</time>
      </trkpt>
      <trkpt lat="42.495454000" lon="-2.623652000">
        <ele>412.00</ele>
        <time>2017-02-11T07:53:41Z</time>
      </trkpt>
      <trkpt lat="42.495396000" lon="-2.623673000">
        <ele>411.90</ele>
        <time>2017-02-11T07:53:42Z</time>
      </trkpt>
      <trkpt lat="42.495340000" lon="-2.623695000">
        <ele>411.90</ele>
        <time>2017-02-11T07:53:43Z</time>
      </trkpt>
      <trkpt lat="42.495286000" lon="-2.623714000">
        <ele>412.00</ele>
        <time>2017-02-11T07:53:44Z</time>
      </trkpt>
      <trkpt lat="42.495232000" lon="-2.623733000">
        <ele>412.10</ele>
        <time>2017-02-11T07:53:45Z</time>
      </trkpt>
      <trkpt lat="42.495182000" lon="-2.623753000">
        <ele>412.20</ele>
        <time>2017-02-11T07:53:46Z</time>
      </trkpt>
      <trkpt lat="42.495132000" lon="-2.623771000">
        <ele>412.20</ele>
        <time>2017-02-11T07:53:47Z</time>
      </trkpt>
      <trkpt lat="42.495085000" lon="-2.623791000">
        <ele>412.20</ele>
        <time>2017-02-11T07:53:48Z</time>
      </trkpt>
      <trkpt lat="42.495040000" lon="-2.623806000">
        <ele>412.20</ele>
        <time>2017-02-11T07:53:49Z</time>
      </trkpt>
      <trkpt lat="42.494996000" lon="-2.623821000">
        <ele>412.10</ele>
        <time>2017-02-11T07:53:50Z</time>
      </trkpt>
      <trkpt lat="42.494951000" lon="-2.623834000">
        <ele>412.00</ele>
        <time>2017-02-11T07:53:51Z</time>
      </trkpt>
      <trkpt lat="42.494905000" lon="-2.623851000">
        <ele>411.90</ele>
        <time>2017-02-11T07:53:52Z</time>
      </trkpt>
      <trkpt lat="42.494858000" lon="-2.623866000">
        <ele>411.80</ele>
        <time>2017-02-11T07:53:53Z</time>
      </trkpt>
      <trkpt lat="42.494811000" lon="-2.623880000">
        <ele>411.80</ele>
        <time>2017-02-11T07:53:54Z</time>
      </trkpt>
      <trkpt lat="42.494764000" lon="-2.623894000">
        <ele>411.70</ele>
        <time>2017-02-11T07:53:55Z</time>
      </trkpt>
      <trkpt lat="42.494718000" lon="-2.623907000">
        <ele>411.70</ele>
        <time>2017-02-11T07:53:56Z</time>
      </trkpt>
      <trkpt lat="42.494672000" lon="-2.623926000">
        <ele>411.60</ele>
        <time>2017-02-11T07:53:57Z</time>
      </trkpt>
      <trkpt lat="42.494629000" lon="-2.623948000">
        <ele>411.60</ele>
        <time>2017-02-11T07:53:58Z</time>
      </trkpt>
      <trkpt lat="42.494582000" lon="-2.623966000">
        <ele>411.60</ele>
        <time>2017-02-11T07:53:59Z</time>
      </trkpt>
      <trkpt lat="42.494537000" lon="-2.623986000">
        <ele>411.60</ele>
        <time>2017-02-11T07:54:00Z</time>
      </trkpt>
      <trkpt lat="42.494490000" lon="-2.624007000">
        <ele>411.60</ele>
        <time>2017-02-11T07:54:01Z</time>
      </trkpt>
      <trkpt lat="42.494440000" lon="-2.624024000">
        <ele>411.60</ele>
        <time>2017-02-11T07:54:02Z</time>
      </trkpt>
      <trkpt lat="42.494388000" lon="-2.624040000">
        <ele>411.60</ele>
        <time>2017-02-11T07:54:03Z</time>
      </trkpt>
      <trkpt lat="42.494334000" lon="-2.624059000">
        <ele>411.60</ele>
        <time>2017-02-11T07:54:04Z</time>
      </trkpt>
      <trkpt lat="42.494280000" lon="-2.624082000">
        <ele>411.60</ele>
        <time>2017-02-11T07:54:05Z</time>
      </trkpt>
      <trkpt lat="42.494227000" lon="-2.624102000">
        <ele>411.60</ele>
        <time>2017-02-11T07:54:06Z</time>
      </trkpt>
      <trkpt lat="42.494168000" lon="-2.624120000">
        <ele>411.60</ele>
        <time>2017-02-11T07:54:07Z</time>
      </trkpt>
      <trkpt lat="42.494108000" lon="-2.624140000">
        <ele>411.50</ele>
        <time>2017-02-11T07:54:08Z</time>
      </trkpt>
      <trkpt lat="42.494049000" lon="-2.624159000">
        <ele>411.50</ele>
        <time>2017-02-11T07:54:09Z</time>
      </trkpt>
      <trkpt lat="42.493991000" lon="-2.624178000">
        <ele>411.40</ele>
        <time>2017-02-11T07:54:10Z</time>
      </trkpt>
      <trkpt lat="42.493932000" lon="-2.624198000">
        <ele>411.30</ele>
        <time>2017-02-11T07:54:11Z</time>
      </trkpt>
      <trkpt lat="42.493872000" lon="-2.624217000">
        <ele>411.30</ele>
        <time>2017-02-11T07:54:12Z</time>
      </trkpt>
      <trkpt lat="42.493814000" lon="-2.624238000">
        <ele>411.30</ele>
        <time>2017-02-11T07:54:13Z</time>
      </trkpt>
      <trkpt lat="42.493757000" lon="-2.624257000">
        <ele>411.20</ele>
        <time>2017-02-11T07:54:14Z</time>
      </trkpt>
      <trkpt lat="42.493700000" lon="-2.624279000">
        <ele>411.20</ele>
        <time>2017-02-11T07:54:15Z</time>
      </trkpt>
      <trkpt lat="42.493645000" lon="-2.624294000">
        <ele>411.20</ele>
        <time>2017-02-11T07:54:16Z</time>
      </trkpt>
      <trkpt lat="42.493594000" lon="-2.624309000">
        <ele>411.10</ele>
        <time>2017-02-11T07:54:17Z</time>
      </trkpt>
      <trkpt lat="42.493493000" lon="-2.624359000">
        <ele>410.90</ele>
        <time>2017-02-11T07:54:19Z</time>
      </trkpt>
      <trkpt lat="42.493445000" lon="-2.624386000">
        <ele>410.70</ele>
        <time>2017-02-11T07:54:20Z</time>
      </trkpt>
      <trkpt lat="42.493398000" lon="-2.624414000">
        <ele>410.60</ele>
        <time>2017-02-11T07:54:21Z</time>
      </trkpt>
      <trkpt lat="42.493355000" lon="-2.624450000">
        <ele>410.50</ele>
        <time>2017-02-11T07:54:22Z</time>
      </trkpt>
      <trkpt lat="42.493312000" lon="-2.624488000">
        <ele>410.50</ele>
        <time>2017-02-11T07:54:23Z</time>
      </trkpt>
      <trkpt lat="42.493270000" lon="-2.624528000">
        <ele>410.50</ele>
        <time>2017-02-11T07:54:24Z</time>
      </trkpt>
      <trkpt lat="42.493232000" lon="-2.624574000">
        <ele>410.40</ele>
        <time>2017-02-11T07:54:25Z</time>
      </trkpt>
      <trkpt lat="42.493193000" lon="-2.624616000">
        <ele>410.50</ele>
        <time>2017-02-11T07:54:26Z</time>
      </trkpt>
      <trkpt lat="42.493154000" lon="-2.624660000">
        <ele>410.60</ele>
        <time>2017-02-11T07:54:27Z</time>
      </trkpt>
      <trkpt lat="42.493117000" lon="-2.624700000">
        <ele>410.70</ele>
        <time>2017-02-11T07:54:28Z</time>
      </trkpt>
      <trkpt lat="42.493079000" lon="-2.624727000">
        <ele>410.70</ele>
        <time>2017-02-11T07:54:29Z</time>
      </trkpt>
      <trkpt lat="42.493045000" lon="-2.624737000">
        <ele>410.70</ele>
        <time>2017-02-11T07:54:30Z</time>
      </trkpt>
      <trkpt lat="42.493016000" lon="-2.624724000">
        <ele>410.70</ele>
        <time>2017-02-11T07:54:31Z</time>
      </trkpt>
      <trkpt lat="42.492990000" lon="-2.624701000">
        <ele>410.70</ele>
        <time>2017-02-11T07:54:32Z</time>
      </trkpt>
      <trkpt lat="42.492965000" lon="-2.624667000">
        <ele>410.70</ele>
        <time>2017-02-11T07:54:33Z</time>
      </trkpt>
      <trkpt lat="42.492941000" lon="-2.624630000">
        <ele>411.10</ele>
        <time>2017-02-11T07:54:34Z</time>
      </trkpt>
      <trkpt lat="42.492915000" lon="-2.624592000">
        <ele>411.50</ele>
        <time>2017-02-11T07:54:35Z</time>
      </trkpt>
      <trkpt lat="42.492893000" lon="-2.624559000">
        <ele>411.80</ele>
        <time>2017-02-11T07:54:36Z</time>
      </trkpt>
      <trkpt lat="42.492864000" lon="-2.624524000">
        <ele>412.00</ele>
        <time>2017-02-11T07:54:37Z</time>
      </trkpt>
      <trkpt lat="42.492834000" lon="-2.624491000">
        <ele>411.50</ele>
        <time>2017-02-11T07:54:38Z</time>
      </trkpt>
      <trkpt lat="42.492804000" lon="-2.624457000">
        <ele>411.10</ele>
        <time>2017-02-11T07:54:39Z</time>
      </trkpt>
      <trkpt lat="42.492776000" lon="-2.624423000">
        <ele>410.80</ele>
        <time>2017-02-11T07:54:40Z</time>
      </trkpt>
      <trkpt lat="42.492750000" lon="-2.624386000">
        <ele>410.60</ele>
        <time>2017-02-11T07:54:41Z</time>
      </trkpt>
      <trkpt lat="42.492724000" lon="-2.624350000">
        <ele>410.50</ele>
        <time>2017-02-11T07:54:42Z</time>
      </trkpt>
      <trkpt lat="42.492696000" lon="-2.624318000">
        <ele>410.40</ele>
        <time>2017-02-11T07:54:43Z</time>
      </trkpt>
      <trkpt lat="42.492669000" lon="-2.624284000">
        <ele>410.40</ele>
        <time>2017-02-11T07:54:44Z</time>
      </trkpt>
      <trkpt lat="42.492645000" lon="-2.624248000">
        <ele>410.40</ele>
        <time>2017-02-11T07:54:45Z</time>
      </trkpt>
      <trkpt lat="42.492620000" lon="-2.624213000">
        <ele>410.40</ele>
        <time>2017-02-11T07:54:46Z</time>
      </trkpt>
      <trkpt lat="42.492594000" lon="-2.624178000">
        <ele>410.40</ele>
        <time>2017-02-11T07:54:47Z</time>
      </trkpt>
      <trkpt lat="42.492569000" lon="-2.624140000">
        <ele>410.40</ele>
        <time>2017-02-11T07:54:48Z</time>
      </trkpt>
      <trkpt lat="42.492543000" lon="-2.624101000">
        <ele>410.40</ele>
        <time>2017-02-11T07:54:49Z</time>
      </trkpt>
      <trkpt lat="42.492517000" lon="-2.624063000">
        <ele>410.30</ele>
        <time>2017-02-11T07:54:50Z</time>
      </trkpt>
      <trkpt lat="42.492489000" lon="-2.624033000">
        <ele>410.20</ele>
        <time>2017-02-11T07:54:51Z</time>
      </trkpt>
      <trkpt lat="42.492464000" lon="-2.624001000">
        <ele>410.00</ele>
        <time>2017-02-11T07:54:52Z</time>
      </trkpt>
      <trkpt lat="42.492439000" lon="-2.623970000">
        <ele>409.80</ele>
        <time>2017-02-11T07:54:53Z</time>
      </trkpt>
      <trkpt lat="42.492417000" lon="-2.623939000">
        <ele>409.90</ele>
        <time>2017-02-11T07:54:54Z</time>
      </trkpt>
      <trkpt lat="42.492394000" lon="-2.623906000">
        <ele>409.90</ele>
        <time>2017-02-11T07:54:55Z</time>
      </trkpt>
      <trkpt lat="42.492372000" lon="-2.623871000">
        <ele>409.80</ele>
        <time>2017-02-11T07:54:56Z</time>
      </trkpt>
      <trkpt lat="42.492347000" lon="-2.623838000">
        <ele>409.80</ele>
        <time>2017-02-11T07:54:57Z</time>
      </trkpt>
      <trkpt lat="42.492322000" lon="-2.623806000">
        <ele>409.80</ele>
        <time>2017-02-11T07:54:58Z</time>
      </trkpt>
      <trkpt lat="42.492297000" lon="-2.623779000">
        <ele>409.70</ele>
        <time>2017-02-11T07:54:59Z</time>
      </trkpt>
      <trkpt lat="42.492273000" lon="-2.623752000">
        <ele>409.70</ele>
        <time>2017-02-11T07:55:00Z</time>
      </trkpt>
      <trkpt lat="42.492251000" lon="-2.623724000">
        <ele>409.70</ele>
        <time>2017-02-11T07:55:01Z</time>
      </trkpt>
      <trkpt lat="42.492230000" lon="-2.623701000">
        <ele>410.00</ele>
        <time>2017-02-11T07:55:02Z</time>
      </trkpt>
      <trkpt lat="42.492205000" lon="-2.623677000">
        <ele>410.20</ele>
        <time>2017-02-11T07:55:03Z</time>
      </trkpt>
      <trkpt lat="42.492179000" lon="-2.623652000">
        <ele>410.30</ele>
        <time>2017-02-11T07:55:04Z</time>
      </trkpt>
      <trkpt lat="42.492158000" lon="-2.623621000">
        <ele>410.40</ele>
        <time>2017-02-11T07:55:05Z</time>
      </trkpt>
      <trkpt lat="42.492134000" lon="-2.623596000">
        <ele>410.50</ele>
        <time>2017-02-11T07:55:06Z</time>
      </trkpt>
      <trkpt lat="42.492112000" lon="-2.623567000">
        <ele>410.60</ele>
        <time>2017-02-11T07:55:07Z</time>
      </trkpt>
      <trkpt lat="42.492089000" lon="-2.623544000">
        <ele>410.40</ele>
        <time>2017-02-11T07:55:08Z</time>
      </trkpt>
      <trkpt lat="42.492069000" lon="-2.623516000">
        <ele>410.30</ele>
        <time>2017-02-11T07:55:09Z</time>
      </trkpt>
      <trkpt lat="42.492049000" lon="-2.623490000">
        <ele>410.60</ele>
        <time>2017-02-11T07:55:10Z</time>
      </trkpt>
      <trkpt lat="42.492027000" lon="-2.623462000">
        <ele>410.80</ele>
        <time>2017-02-11T07:55:11Z</time>
      </trkpt>
      <trkpt lat="42.492008000" lon="-2.623433000">
        <ele>410.60</ele>
        <time>2017-02-11T07:55:12Z</time>
      </trkpt>
      <trkpt lat="42.491984000" lon="-2.623407000">
        <ele>410.40</ele>
        <time>2017-02-11T07:55:13Z</time>
      </trkpt>
      <trkpt lat="42.491958000" lon="-2.623385000">
        <ele>410.50</ele>
        <time>2017-02-11T07:55:14Z</time>
      </trkpt>
      <trkpt lat="42.491938000" lon="-2.623354000">
        <ele>410.60</ele>
        <time>2017-02-11T07:55:15Z</time>
      </trkpt>
      <trkpt lat="42.491916000" lon="-2.623319000">
        <ele>410.50</ele>
        <time>2017-02-11T07:55:16Z</time>
      </trkpt>
      <trkpt lat="42.491896000" lon="-2.623284000">
        <ele>410.40</ele>
        <time>2017-02-11T07:55:17Z</time>
      </trkpt>
      <trkpt lat="42.491877000" lon="-2.623254000">
        <ele>410.30</ele>
        <time>2017-02-11T07:55:18Z</time>
      </trkpt>
      <trkpt lat="42.491839000" lon="-2.623179000">
        <ele>410.10</ele>
        <time>2017-02-11T07:55:20Z</time>
      </trkpt>
      <trkpt lat="42.491822000" lon="-2.623142000">
        <ele>410.00</ele>
        <time>2017-02-11T07:55:21Z</time>
      </trkpt>
      <trkpt lat="42.491804000" lon="-2.623104000">
        <ele>409.90</ele>
        <time>2017-02-11T07:55:22Z</time>
      </trkpt>
      <trkpt lat="42.491786000" lon="-2.623069000">
        <ele>409.80</ele>
        <time>2017-02-11T07:55:23Z</time>
      </trkpt>
      <trkpt lat="42.491768000" lon="-2.623032000">
        <ele>409.70</ele>
        <time>2017-02-11T07:55:24Z</time>
      </trkpt>
      <trkpt lat="42.491756000" lon="-2.622992000">
        <ele>409.70</ele>
        <time>2017-02-11T07:55:25Z</time>
      </trkpt>
      <trkpt lat="42.491746000" lon="-2.622954000">
        <ele>409.70</ele>
        <time>2017-02-11T07:55:26Z</time>
      </trkpt>
      <trkpt lat="42.491727000" lon="-2.622918000">
        <ele>409.60</ele>
        <time>2017-02-11T07:55:27Z</time>
      </trkpt>
      <trkpt lat="42.491707000" lon="-2.622885000">
        <ele>409.60</ele>
        <time>2017-02-11T07:55:28Z</time>
      </trkpt>
      <trkpt lat="42.491688000" lon="-2.622851000">
        <ele>409.60</ele>
        <time>2017-02-11T07:55:29Z</time>
      </trkpt>
      <trkpt lat="42.491671000" lon="-2.622814000">
        <ele>409.70</ele>
        <time>2017-02-11T07:55:30Z</time>
      </trkpt>
      <trkpt lat="42.491656000" lon="-2.622774000">
        <ele>409.70</ele>
        <time>2017-02-11T07:55:31Z</time>
      </trkpt>
      <trkpt lat="42.491639000" lon="-2.622730000">
        <ele>409.70</ele>
        <time>2017-02-11T07:55:32Z</time>
      </trkpt>
      <trkpt lat="42.491622000" lon="-2.622688000">
        <ele>409.70</ele>
        <time>2017-02-11T07:55:33Z</time>
      </trkpt>
      <trkpt lat="42.491606000" lon="-2.622641000">
        <ele>409.70</ele>
        <time>2017-02-11T07:55:34Z</time>
      </trkpt>
      <trkpt lat="42.491589000" lon="-2.622596000">
        <ele>409.70</ele>
        <time>2017-02-11T07:55:35Z</time>
      </trkpt>
      <trkpt lat="42.491570000" lon="-2.622550000">
        <ele>409.60</ele>
        <time>2017-02-11T07:55:36Z</time>
      </trkpt>
      <trkpt lat="42.491550000" lon="-2.622503000">
        <ele>409.50</ele>
        <time>2017-02-11T07:55:37Z</time>
      </trkpt>
      <trkpt lat="42.491529000" lon="-2.622463000">
        <ele>409.50</ele>
        <time>2017-02-11T07:55:38Z</time>
      </trkpt>
      <trkpt lat="42.491505000" lon="-2.622426000">
        <ele>409.50</ele>
        <time>2017-02-11T07:55:39Z</time>
      </trkpt>
      <trkpt lat="42.491479000" lon="-2.622386000">
        <ele>409.10</ele>
        <time>2017-02-11T07:55:40Z</time>
      </trkpt>
      <trkpt lat="42.491456000" lon="-2.622346000">
        <ele>408.90</ele>
        <time>2017-02-11T07:55:41Z</time>
      </trkpt>
      <trkpt lat="42.491436000" lon="-2.622309000">
        <ele>408.70</ele>
        <time>2017-02-11T07:55:42Z</time>
      </trkpt>
      <trkpt lat="42.491412000" lon="-2.622269000">
        <ele>408.50</ele>
        <time>2017-02-11T07:55:43Z</time>
      </trkpt>
      <trkpt lat="42.491388000" lon="-2.622234000">
        <ele>408.40</ele>
        <time>2017-02-11T07:55:44Z</time>
      </trkpt>
      <trkpt lat="42.491366000" lon="-2.622197000">
        <ele>408.40</ele>
        <time>2017-02-11T07:55:45Z</time>
      </trkpt>
      <trkpt lat="42.491347000" lon="-2.622160000">
        <ele>408.80</ele>
        <time>2017-02-11T07:55:46Z</time>
      </trkpt>
      <trkpt lat="42.491331000" lon="-2.622121000">
        <ele>409.20</ele>
        <time>2017-02-11T07:55:47Z</time>
      </trkpt>
      <trkpt lat="42.491313000" lon="-2.622082000">
        <ele>409.50</ele>
        <time>2017-02-11T07:55:48Z</time>
      </trkpt>
      <trkpt lat="42.491295000" lon="-2.622047000">
        <ele>409.70</ele>
        <time>2017-02-11T07:55:49Z</time>
      </trkpt>
      <trkpt lat="42.491281000" lon="-2.622014000">
        <ele>410.10</ele>
        <time>2017-02-11T07:55:50Z</time>
      </trkpt>
      <trkpt lat="42.491266000" lon="-2.621981000">
        <ele>410.40</ele>
        <time>2017-02-11T07:55:51Z</time>
      </trkpt>
      <trkpt lat="42.491250000" lon="-2.621952000">
        <ele>410.80</ele>
        <time>2017-02-11T07:55:52Z</time>
      </trkpt>
      <trkpt lat="42.491234000" lon="-2.621919000">
        <ele>411.20</ele>
        <time>2017-02-11T07:55:53Z</time>
      </trkpt>
      <trkpt lat="42.491222000" lon="-2.621890000">
        <ele>411.40</ele>
        <time>2017-02-11T07:55:54Z</time>
      </trkpt>
      <trkpt lat="42.491209000" lon="-2.621864000">
        <ele>411.60</ele>
        <time>2017-02-11T07:55:55Z</time>
      </trkpt>
      <trkpt lat="42.491194000" lon="-2.621841000">
        <ele>411.80</ele>
        <time>2017-02-11T07:55:56Z</time>
      </trkpt>
      <trkpt lat="42.491180000" lon="-2.621820000">
        <ele>411.90</ele>
        <time>2017-02-11T07:55:57Z</time>
      </trkpt>
      <trkpt lat="42.491167000" lon="-2.621798000">
        <ele>412.00</ele>
        <time>2017-02-11T07:55:58Z</time>
      </trkpt>
      <trkpt lat="42.491154000" lon="-2.621776000">
        <ele>412.10</ele>
        <time>2017-02-11T07:55:59Z</time>
      </trkpt>
      <trkpt lat="42.491140000" lon="-2.621751000">
        <ele>412.30</ele>
        <time>2017-02-11T07:56:00Z</time>
      </trkpt>
      <trkpt lat="42.491126000" lon="-2.621729000">
        <ele>412.40</ele>
        <time>2017-02-11T07:56:01Z</time>
      </trkpt>
      <trkpt lat="42.491112000" lon="-2.621708000">
        <ele>412.70</ele>
        <time>2017-02-11T07:56:02Z</time>
      </trkpt>
      <trkpt lat="42.491098000" lon="-2.621684000">
        <ele>412.90</ele>
        <time>2017-02-11T07:56:03Z</time>
      </trkpt>
      <trkpt lat="42.491080000" lon="-2.621663000">
        <ele>413.20</ele>
        <time>2017-02-11T07:56:04Z</time>
      </trkpt>
      <trkpt lat="42.491066000" lon="-2.621641000">
        <ele>413.40</ele>
        <time>2017-02-11T07:56:05Z</time>
      </trkpt>
      <trkpt lat="42.491050000" lon="-2.621623000">
        <ele>414.00</ele>
        <time>2017-02-11T07:56:06Z</time>
      </trkpt>
      <trkpt lat="42.491036000" lon="-2.621604000">
        <ele>414.40</ele>
        <time>2017-02-11T07:56:07Z</time>
      </trkpt>
      <trkpt lat="42.491023000" lon="-2.621583000">
        <ele>415.20</ele>
        <time>2017-02-11T07:56:08Z</time>
      </trkpt>
      <trkpt lat="42.491009000" lon="-2.621566000">
        <ele>415.80</ele>
        <time>2017-02-11T07:56:09Z</time>
      </trkpt>
      <trkpt lat="42.490995000" lon="-2.621543000">
        <ele>416.30</ele>
        <time>2017-02-11T07:56:10Z</time>
      </trkpt>
      <trkpt lat="42.490981000" lon="-2.621523000">
        <ele>416.70</ele>
        <time>2017-02-11T07:56:11Z</time>
      </trkpt>
      <trkpt lat="42.490968000" lon="-2.621499000">
        <ele>417.20</ele>
        <time>2017-02-11T07:56:12Z</time>
      </trkpt>
      <trkpt lat="42.490955000" lon="-2.621474000">
        <ele>417.60</ele>
        <time>2017-02-11T07:56:13Z</time>
      </trkpt>
      <trkpt lat="42.490942000" lon="-2.621451000">
        <ele>418.00</ele>
        <time>2017-02-11T07:56:14Z</time>
      </trkpt>
      <trkpt lat="42.490927000" lon="-2.621436000">
        <ele>418.30</ele>
        <time>2017-02-11T07:56:15Z</time>
      </trkpt>
      <trkpt lat="42.490916000" lon="-2.621417000">
        <ele>418.50</ele>
        <time>2017-02-11T07:56:16Z</time>
      </trkpt>
      <trkpt lat="42.490904000" lon="-2.621398000">
        <ele>418.60</ele>
        <time>2017-02-11T07:56:17Z</time>
      </trkpt>
      <trkpt lat="42.490891000" lon="-2.621382000">
        <ele>419.10</ele>
        <time>2017-02-11T07:56:18Z</time>
      </trkpt>
      <trkpt lat="42.490875000" lon="-2.621365000">
        <ele>419.40</ele>
        <time>2017-02-11T07:56:19Z</time>
      </trkpt>
      <trkpt lat="42.490847000" lon="-2.621330000">
        <ele>420.00</ele>
        <time>2017-02-11T07:56:21Z</time>
      </trkpt>
      <trkpt lat="42.490831000" lon="-2.621311000">
        <ele>420.40</ele>
        <time>2017-02-11T07:56:22Z</time>
      </trkpt>
      <trkpt lat="42.490821000" lon="-2.621293000">
        <ele>420.70</ele>
        <time>2017-02-11T07:56:23Z</time>
      </trkpt>
      <trkpt lat="42.490808000" lon="-2.621278000">
        <ele>421.00</ele>
        <time>2017-02-11T07:56:24Z</time>
      </trkpt>
      <trkpt lat="42.490795000" lon="-2.621266000">
        <ele>421.20</ele>
        <time>2017-02-11T07:56:25Z</time>
      </trkpt>
      <trkpt lat="42.490782000" lon="-2.621245000">
        <ele>421.40</ele>
        <time>2017-02-11T07:56:26Z</time>
      </trkpt>
      <trkpt lat="42.490769000" lon="-2.621228000">
        <ele>421.50</ele>
        <time>2017-02-11T07:56:27Z</time>
      </trkpt>
      <trkpt lat="42.490755000" lon="-2.621210000">
        <ele>421.60</ele>
        <time>2017-02-11T07:56:28Z</time>
      </trkpt>
      <trkpt lat="42.490742000" lon="-2.621192000">
        <ele>421.70</ele>
        <time>2017-02-11T07:56:29Z</time>
      </trkpt>
      <trkpt lat="42.490727000" lon="-2.621175000">
        <ele>421.70</ele>
        <time>2017-02-11T07:56:30Z</time>
      </trkpt>
      <trkpt lat="42.490706000" lon="-2.621175000">
        <ele>421.80</ele>
        <time>2017-02-11T07:56:31Z</time>
      </trkpt>
      <trkpt lat="42.490685000" lon="-2.621170000">
        <ele>421.50</ele>
        <time>2017-02-11T07:56:32Z</time>
      </trkpt>
      <trkpt lat="42.490664000" lon="-2.621162000">
        <ele>421.40</ele>
        <time>2017-02-11T07:56:33Z</time>
      </trkpt>
      <trkpt lat="42.490644000" lon="-2.621149000">
        <ele>421.50</ele>
        <time>2017-02-11T07:56:34Z</time>
      </trkpt>
      <trkpt lat="42.490625000" lon="-2.621144000">
        <ele>421.60</ele>
        <time>2017-02-11T07:56:35Z</time>
      </trkpt>
      <trkpt lat="42.490603000" lon="-2.621138000">
        <ele>421.40</ele>
        <time>2017-02-11T07:56:36Z</time>
      </trkpt>
      <trkpt lat="42.490581000" lon="-2.621135000">
        <ele>421.30</ele>
        <time>2017-02-11T07:56:37Z</time>
      </trkpt>
      <trkpt lat="42.490558000" lon="-2.621130000">
        <ele>421.10</ele>
        <time>2017-02-11T07:56:38Z</time>
      </trkpt>
      <trkpt lat="42.490537000" lon="-2.621123000">
        <ele>421.10</ele>
        <time>2017-02-11T07:56:39Z</time>
      </trkpt>
      <trkpt lat="42.490513000" lon="-2.621117000">
        <ele>421.00</ele>
        <time>2017-02-11T07:56:40Z</time>
      </trkpt>
      <trkpt lat="42.490488000" lon="-2.621108000">
        <ele>421.00</ele>
        <time>2017-02-11T07:56:41Z</time>
      </trkpt>
      <trkpt lat="42.490465000" lon="-2.621094000">
        <ele>420.90</ele>
        <time>2017-02-11T07:56:42Z</time>
      </trkpt>
      <trkpt lat="42.490439000" lon="-2.621083000">
        <ele>420.90</ele>
        <time>2017-02-11T07:56:43Z</time>
      </trkpt>
      <trkpt lat="42.490413000" lon="-2.621076000">
        <ele>420.80</ele>
        <time>2017-02-11T07:56:44Z</time>
      </trkpt>
      <trkpt lat="42.490387000" lon="-2.621069000">
        <ele>420.60</ele>
        <time>2017-02-11T07:56:45Z</time>
      </trkpt>
      <trkpt lat="42.490362000" lon="-2.621060000">
        <ele>420.60</ele>
        <time>2017-02-11T07:56:46Z</time>
      </trkpt>
      <trkpt lat="42.490339000" lon="-2.621050000">
        <ele>420.50</ele>
        <time>2017-02-11T07:56:47Z</time>
      </trkpt>
      <trkpt lat="42.490314000" lon="-2.621045000">
        <ele>420.50</ele>
        <time>2017-02-11T07:56:48Z</time>
      </trkpt>
      <trkpt lat="42.490289000" lon="-2.621036000">
        <ele>420.40</ele>
        <time>2017-02-11T07:56:49Z</time>
      </trkpt>
      <trkpt lat="42.490261000" lon="-2.621029000">
        <ele>420.30</ele>
        <time>2017-02-11T07:56:50Z</time>
      </trkpt>
      <trkpt lat="42.490236000" lon="-2.621022000">
        <ele>420.30</ele>
        <time>2017-02-11T07:56:51Z</time>
      </trkpt>
      <trkpt lat="42.490211000" lon="-2.621014000">
        <ele>420.10</ele>
        <time>2017-02-11T07:56:52Z</time>
      </trkpt>
      <trkpt lat="42.490183000" lon="-2.621009000">
        <ele>420.10</ele>
        <time>2017-02-11T07:56:53Z</time>
      </trkpt>
      <trkpt lat="42.490151000" lon="-2.621002000">
        <ele>420.10</ele>
        <time>2017-02-11T07:56:54Z</time>
      </trkpt>
      <trkpt lat="42.490121000" lon="-2.620997000">
        <ele>420.10</ele>
        <time>2017-02-11T07:56:55Z</time>
      </trkpt>
      <trkpt lat="42.490089000" lon="-2.620988000">
        <ele>420.00</ele>
        <time>2017-02-11T07:56:56Z</time>
      </trkpt>
      <trkpt lat="42.490060000" lon="-2.620979000">
        <ele>419.90</ele>
        <time>2017-02-11T07:56:57Z</time>
      </trkpt>
      <trkpt lat="42.490029000" lon="-2.620970000">
        <ele>419.90</ele>
        <time>2017-02-11T07:56:58Z</time>
      </trkpt>
      <trkpt lat="42.489998000" lon="-2.620957000">
        <ele>419.90</ele>
        <time>2017-02-11T07:56:59Z</time>
      </trkpt>
      <trkpt lat="42.489966000" lon="-2.620946000">
        <ele>419.80</ele>
        <time>2017-02-11T07:57:00Z</time>
      </trkpt>
      <trkpt lat="42.489935000" lon="-2.620933000">
        <ele>419.70</ele>
        <time>2017-02-11T07:57:01Z</time>
      </trkpt>
      <trkpt lat="42.489902000" lon="-2.620922000">
        <ele>419.70</ele>
        <time>2017-02-11T07:57:02Z</time>
      </trkpt>
      <trkpt lat="42.489869000" lon="-2.620909000">
        <ele>419.60</ele>
        <time>2017-02-11T07:57:03Z</time>
      </trkpt>
      <trkpt lat="42.489833000" lon="-2.620894000">
        <ele>419.60</ele>
        <time>2017-02-11T07:57:04Z</time>
      </trkpt>
      <trkpt lat="42.489800000" lon="-2.620877000">
        <ele>419.60</ele>
        <time>2017-02-11T07:57:05Z</time>
      </trkpt>
      <trkpt lat="42.489766000" lon="-2.620855000">
        <ele>419.60</ele>
        <time>2017-02-11T07:57:06Z</time>
      </trkpt>
      <trkpt lat="42.489734000" lon="-2.620835000">
        <ele>419.70</ele>
        <time>2017-02-11T07:57:07Z</time>
      </trkpt>
      <trkpt lat="42.489704000" lon="-2.620813000">
        <ele>419.80</ele>
        <time>2017-02-11T07:57:08Z</time>
      </trkpt>
      <trkpt lat="42.489671000" lon="-2.620791000">
        <ele>420.00</ele>
        <time>2017-02-11T07:57:09Z</time>
      </trkpt>
      <trkpt lat="42.489639000" lon="-2.620776000">
        <ele>420.00</ele>
        <time>2017-02-11T07:57:10Z</time>
      </trkpt>
      <trkpt lat="42.489605000" lon="-2.620757000">
        <ele>420.10</ele>
        <time>2017-02-11T07:57:11Z</time>
      </trkpt>
      <trkpt lat="42.489571000" lon="-2.620741000">
        <ele>420.10</ele>
        <time>2017-02-11T07:57:12Z</time>
      </trkpt>
      <trkpt lat="42.489537000" lon="-2.620726000">
        <ele>420.10</ele>
        <time>2017-02-11T07:57:13Z</time>
      </trkpt>
      <trkpt lat="42.489503000" lon="-2.620710000">
        <ele>419.90</ele>
        <time>2017-02-11T07:57:14Z</time>
      </trkpt>
      <trkpt lat="42.489469000" lon="-2.620695000">
        <ele>419.80</ele>
        <time>2017-02-11T07:57:15Z</time>
      </trkpt>
      <trkpt lat="42.489437000" lon="-2.620678000">
        <ele>419.80</ele>
        <time>2017-02-11T07:57:16Z</time>
      </trkpt>
      <trkpt lat="42.489407000" lon="-2.620662000">
        <ele>419.70</ele>
        <time>2017-02-11T07:57:17Z</time>
      </trkpt>
      <trkpt lat="42.489378000" lon="-2.620642000">
        <ele>419.60</ele>
        <time>2017-02-11T07:57:18Z</time>
      </trkpt>
      <trkpt lat="42.489345000" lon="-2.620625000">
        <ele>419.50</ele>
        <time>2017-02-11T07:57:19Z</time>
      </trkpt>
      <trkpt lat="42.489310000" lon="-2.620607000">
        <ele>419.50</ele>
        <time>2017-02-11T07:57:20Z</time>
      </trkpt>
      <trkpt lat="42.489245000" lon="-2.620577000">
        <ele>419.60</ele>
        <time>2017-02-11T07:57:22Z</time>
      </trkpt>
      <trkpt lat="42.489211000" lon="-2.620561000">
        <ele>419.80</ele>
        <time>2017-02-11T07:57:23Z</time>
      </trkpt>
      <trkpt lat="42.489177000" lon="-2.620547000">
        <ele>419.90</ele>
        <time>2017-02-11T07:57:24Z</time>
      </trkpt>
      <trkpt lat="42.489144000" lon="-2.620535000">
        <ele>420.00</ele>
        <time>2017-02-11T07:57:25Z</time>
      </trkpt>
      <trkpt lat="42.489112000" lon="-2.620520000">
        <ele>420.00</ele>
        <time>2017-02-11T07:57:26Z</time>
      </trkpt>
      <trkpt lat="42.489082000" lon="-2.620507000">
        <ele>420.10</ele>
        <time>2017-02-11T07:57:27Z</time>
      </trkpt>
      <trkpt lat="42.489054000" lon="-2.620495000">
        <ele>420.20</ele>
        <time>2017-02-11T07:57:28Z</time>
      </trkpt>
      <trkpt lat="42.489029000" lon="-2.620482000">
        <ele>420.40</ele>
        <time>2017-02-11T07:57:29Z</time>
      </trkpt>
      <trkpt lat="42.489005000" lon="-2.620471000">
        <ele>420.50</ele>
        <time>2017-02-11T07:57:30Z</time>
      </trkpt>
      <trkpt lat="42.488981000" lon="-2.620457000">
        <ele>420.70</ele>
        <time>2017-02-11T07:57:31Z</time>
      </trkpt>
      <trkpt lat="42.488961000" lon="-2.620443000">
        <ele>420.70</ele>
        <time>2017-02-11T07:57:32Z</time>
      </trkpt>
      <trkpt lat="42.488941000" lon="-2.620433000">
        <ele>420.70</ele>
        <time>2017-02-11T07:57:33Z</time>
      </trkpt>
      <trkpt lat="42.488924000" lon="-2.620420000">
        <ele>421.00</ele>
        <time>2017-02-11T07:57:34Z</time>
      </trkpt>
      <trkpt lat="42.488909000" lon="-2.620407000">
        <ele>421.20</ele>
        <time>2017-02-11T07:57:35Z</time>
      </trkpt>
      <trkpt lat="42.488900000" lon="-2.620385000">
        <ele>421.30</ele>
        <time>2017-02-11T07:57:36Z</time>
      </trkpt>
      <trkpt lat="42.488895000" lon="-2.620363000">
        <ele>421.40</ele>
        <time>2017-02-11T07:57:37Z</time>
      </trkpt>
      <trkpt lat="42.488896000" lon="-2.620339000">
        <ele>421.60</ele>
        <time>2017-02-11T07:57:38Z</time>
      </trkpt>
      <trkpt lat="42.488899000" lon="-2.620316000">
        <ele>421.70</ele>
        <time>2017-02-11T07:57:39Z</time>
      </trkpt>
      <trkpt lat="42.488908000" lon="-2.620289000">
        <ele>421.90</ele>
        <time>2017-02-11T07:57:40Z</time>
      </trkpt>
      <trkpt lat="42.488918000" lon="-2.620262000">
        <ele>422.00</ele>
        <time>2017-02-11T07:57:41Z</time>
      </trkpt>
      <trkpt lat="42.488925000" lon="-2.620233000">
        <ele>422.10</ele>
        <time>2017-02-11T07:57:42Z</time>
      </trkpt>
      <trkpt lat="42.488932000" lon="-2.620207000">
        <ele>422.10</ele>
        <time>2017-02-11T07:57:43Z</time>
      </trkpt>
      <trkpt lat="42.488943000" lon="-2.620176000">
        <ele>422.30</ele>
        <time>2017-02-11T07:57:44Z</time>
      </trkpt>
      <trkpt lat="42.488956000" lon="-2.620148000">
        <ele>422.50</ele>
        <time>2017-02-11T07:57:45Z</time>
      </trkpt>
      <trkpt lat="42.488965000" lon="-2.620120000">
        <ele>422.60</ele>
        <time>2017-02-11T07:57:46Z</time>
      </trkpt>
      <trkpt lat="42.488971000" lon="-2.620089000">
        <ele>422.70</ele>
        <time>2017-02-11T07:57:47Z</time>
      </trkpt>
      <trkpt lat="42.488979000" lon="-2.620058000">
        <ele>422.80</ele>
        <time>2017-02-11T07:57:48Z</time>
      </trkpt>
      <trkpt lat="42.488989000" lon="-2.620026000">
        <ele>422.80</ele>
        <time>2017-02-11T07:57:49Z</time>
      </trkpt>
      <trkpt lat="42.489000000" lon="-2.619993000">
        <ele>422.80</ele>
        <time>2017-02-11T07:57:50Z</time>
      </trkpt>
      <trkpt lat="42.489010000" lon="-2.619958000">
        <ele>422.80</ele>
        <time>2017-02-11T07:57:51Z</time>
      </trkpt>
      <trkpt lat="42.489019000" lon="-2.619926000">
        <ele>422.80</ele>
        <time>2017-02-11T07:57:52Z</time>
      </trkpt>
      <trkpt lat="42.489023000" lon="-2.619896000">
        <ele>422.80</ele>
        <time>2017-02-11T07:57:53Z</time>
      </trkpt>
      <trkpt lat="42.489033000" lon="-2.619861000">
        <ele>422.80</ele>
        <time>2017-02-11T07:57:54Z</time>
      </trkpt>
      <trkpt lat="42.489041000" lon="-2.619829000">
        <ele>422.80</ele>
        <time>2017-02-11T07:57:55Z</time>
      </trkpt>
      <trkpt lat="42.489051000" lon="-2.619798000">
        <ele>422.70</ele>
        <time>2017-02-11T07:57:56Z</time>
      </trkpt>
      <trkpt lat="42.489061000" lon="-2.619763000">
        <ele>422.60</ele>
        <time>2017-02-11T07:57:57Z</time>
      </trkpt>
      <trkpt lat="42.489068000" lon="-2.619733000">
        <ele>422.60</ele>
        <time>2017-02-11T07:57:58Z</time>
      </trkpt>
      <trkpt lat="42.489076000" lon="-2.619702000">
        <ele>422.60</ele>
        <time>2017-02-11T07:57:59Z</time>
      </trkpt>
      <trkpt lat="42.489086000" lon="-2.619672000">
        <ele>422.50</ele>
        <time>2017-02-11T07:58:00Z</time>
      </trkpt>
      <trkpt lat="42.489094000" lon="-2.619646000">
        <ele>422.40</ele>
        <time>2017-02-11T07:58:01Z</time>
      </trkpt>
      <trkpt lat="42.489103000" lon="-2.619615000">
        <ele>422.40</ele>
        <time>2017-02-11T07:58:02Z</time>
      </trkpt>
      <trkpt lat="42.489111000" lon="-2.619584000">
        <ele>422.30</ele>
        <time>2017-02-11T07:58:03Z</time>
      </trkpt>
      <trkpt lat="42.489120000" lon="-2.619552000">
        <ele>422.30</ele>
        <time>2017-02-11T07:58:04Z</time>
      </trkpt>
      <trkpt lat="42.489128000" lon="-2.619521000">
        <ele>422.30</ele>
        <time>2017-02-11T07:58:05Z</time>
      </trkpt>
      <trkpt lat="42.489138000" lon="-2.619490000">
        <ele>422.30</ele>
        <time>2017-02-11T07:58:06Z</time>
      </trkpt>
      <trkpt lat="42.489145000" lon="-2.619460000">
        <ele>422.40</ele>
        <time>2017-02-11T07:58:07Z</time>
      </trkpt>
      <trkpt lat="42.489150000" lon="-2.619430000">
        <ele>422.50</ele>
        <time>2017-02-11T07:58:08Z</time>
      </trkpt>
      <trkpt lat="42.489159000" lon="-2.619399000">
        <ele>422.60</ele>
        <time>2017-02-11T07:58:09Z</time>
      </trkpt>
      <trkpt lat="42.489167000" lon="-2.619366000">
        <ele>422.70</ele>
        <time>2017-02-11T07:58:10Z</time>
      </trkpt>
      <trkpt lat="42.489174000" lon="-2.619335000">
        <ele>422.70</ele>
        <time>2017-02-11T07:58:11Z</time>
      </trkpt>
      <trkpt lat="42.489182000" lon="-2.619299000">
        <ele>422.80</ele>
        <time>2017-02-11T07:58:12Z</time>
      </trkpt>
      <trkpt lat="42.489192000" lon="-2.619261000">
        <ele>422.80</ele>
        <time>2017-02-11T07:58:13Z</time>
      </trkpt>
      <trkpt lat="42.489201000" lon="-2.619226000">
        <ele>423.00</ele>
        <time>2017-02-11T07:58:14Z</time>
      </trkpt>
      <trkpt lat="42.489208000" lon="-2.619189000">
        <ele>423.10</ele>
        <time>2017-02-11T07:58:15Z</time>
      </trkpt>
      <trkpt lat="42.489218000" lon="-2.619154000">
        <ele>423.20</ele>
        <time>2017-02-11T07:58:16Z</time>
      </trkpt>
      <trkpt lat="42.489229000" lon="-2.619119000">
        <ele>423.30</ele>
        <time>2017-02-11T07:58:17Z</time>
      </trkpt>
      <trkpt lat="42.489238000" lon="-2.619088000">
        <ele>423.30</ele>
        <time>2017-02-11T07:58:18Z</time>
      </trkpt>
      <trkpt lat="42.489246000" lon="-2.619051000">
        <ele>423.30</ele>
        <time>2017-02-11T07:58:19Z</time>
      </trkpt>
      <trkpt lat="42.489254000" lon="-2.619014000">
        <ele>423.30</ele>
        <time>2017-02-11T07:58:20Z</time>
      </trkpt>
      <trkpt lat="42.489261000" lon="-2.618976000">
        <ele>423.30</ele>
        <time>2017-02-11T07:58:21Z</time>
      </trkpt>
      <trkpt lat="42.489279000" lon="-2.618905000">
        <ele>423.20</ele>
        <time>2017-02-11T07:58:23Z</time>
      </trkpt>
      <trkpt lat="42.489288000" lon="-2.618873000">
        <ele>423.30</ele>
        <time>2017-02-11T07:58:24Z</time>
      </trkpt>
      <trkpt lat="42.489297000" lon="-2.618841000">
        <ele>423.40</ele>
        <time>2017-02-11T07:58:25Z</time>
      </trkpt>
      <trkpt lat="42.489304000" lon="-2.618805000">
        <ele>423.50</ele>
        <time>2017-02-11T07:58:26Z</time>
      </trkpt>
      <trkpt lat="42.489312000" lon="-2.618771000">
        <ele>423.50</ele>
        <time>2017-02-11T07:58:27Z</time>
      </trkpt>
      <trkpt lat="42.489321000" lon="-2.618739000">
        <ele>423.50</ele>
        <time>2017-02-11T07:58:28Z</time>
      </trkpt>
      <trkpt lat="42.489331000" lon="-2.618705000">
        <ele>423.50</ele>
        <time>2017-02-11T07:58:29Z</time>
      </trkpt>
      <trkpt lat="42.489339000" lon="-2.618671000">
        <ele>423.50</ele>
        <time>2017-02-11T07:58:30Z</time>
      </trkpt>
      <trkpt lat="42.489347000" lon="-2.618637000">
        <ele>423.50</ele>
        <time>2017-02-11T07:58:31Z</time>
      </trkpt>
      <trkpt lat="42.489352000" lon="-2.618602000">
        <ele>423.60</ele>
        <time>2017-02-11T07:58:32Z</time>
      </trkpt>
      <trkpt lat="42.489360000" lon="-2.618566000">
        <ele>423.70</ele>
        <time>2017-02-11T07:58:33Z</time>
      </trkpt>
      <trkpt lat="42.489364000" lon="-2.618529000">
        <ele>423.80</ele>
        <time>2017-02-11T07:58:34Z</time>
      </trkpt>
      <trkpt lat="42.489375000" lon="-2.618493000">
        <ele>423.90</ele>
        <time>2017-02-11T07:58:35Z</time>
      </trkpt>
      <trkpt lat="42.489386000" lon="-2.618458000">
        <ele>423.90</ele>
        <time>2017-02-11T07:58:36Z</time>
      </trkpt>
      <trkpt lat="42.489396000" lon="-2.618422000">
        <ele>423.90</ele>
        <time>2017-02-11T07:58:37Z</time>
      </trkpt>
      <trkpt lat="42.489404000" lon="-2.618384000">
        <ele>424.00</ele>
        <time>2017-02-11T07:58:38Z</time>
      </trkpt>
      <trkpt lat="42.489412000" lon="-2.618348000">
        <ele>424.00</ele>
        <time>2017-02-11T07:58:39Z</time>
      </trkpt>
      <trkpt lat="42.489421000" lon="-2.618314000">
        <ele>424.00</ele>
        <time>2017-02-11T07:58:40Z</time>
      </trkpt>
      <trkpt lat="42.489432000" lon="-2.618280000">
        <ele>424.10</ele>
        <time>2017-02-11T07:58:41Z</time>
      </trkpt>
      <trkpt lat="42.489444000" lon="-2.618244000">
        <ele>424.10</ele>
        <time>2017-02-11T07:58:42Z</time>
      </trkpt>
      <trkpt lat="42.489453000" lon="-2.618210000">
        <ele>424.10</ele>
        <time>2017-02-11T07:58:43Z</time>
      </trkpt>
      <trkpt lat="42.489462000" lon="-2.618177000">
        <ele>424.30</ele>
        <time>2017-02-11T07:58:44Z</time>
      </trkpt>
      <trkpt lat="42.489471000" lon="-2.618144000">
        <ele>424.40</ele>
        <time>2017-02-11T07:58:45Z</time>
      </trkpt>
      <trkpt lat="42.489479000" lon="-2.618113000">
        <ele>424.50</ele>
        <time>2017-02-11T07:58:46Z</time>
      </trkpt>
      <trkpt lat="42.489486000" lon="-2.618078000">
        <ele>424.50</ele>
        <time>2017-02-11T07:58:47Z</time>
      </trkpt>
      <trkpt lat="42.489497000" lon="-2.618045000">
        <ele>424.70</ele>
        <time>2017-02-11T07:58:48Z</time>
      </trkpt>
      <trkpt lat="42.489511000" lon="-2.618014000">
        <ele>424.80</ele>
        <time>2017-02-11T07:58:49Z</time>
      </trkpt>
      <trkpt lat="42.489524000" lon="-2.617979000">
        <ele>424.80</ele>
        <time>2017-02-11T07:58:50Z</time>
      </trkpt>
      <trkpt lat="42.489537000" lon="-2.617942000">
        <ele>424.80</ele>
        <time>2017-02-11T07:58:51Z</time>
      </trkpt>
      <trkpt lat="42.489547000" lon="-2.617904000">
        <ele>424.80</ele>
        <time>2017-02-11T07:58:52Z</time>
      </trkpt>
      <trkpt lat="42.489558000" lon="-2.617869000">
        <ele>424.80</ele>
        <time>2017-02-11T07:58:53Z</time>
      </trkpt>
      <trkpt lat="42.489571000" lon="-2.617831000">
        <ele>424.80</ele>
        <time>2017-02-11T07:58:54Z</time>
      </trkpt>
      <trkpt lat="42.489585000" lon="-2.617793000">
        <ele>424.70</ele>
        <time>2017-02-11T07:58:55Z</time>
      </trkpt>
      <trkpt lat="42.489597000" lon="-2.617756000">
        <ele>424.80</ele>
        <time>2017-02-11T07:58:56Z</time>
      </trkpt>
      <trkpt lat="42.489611000" lon="-2.617717000">
        <ele>424.90</ele>
        <time>2017-02-11T07:58:57Z</time>
      </trkpt>
      <trkpt lat="42.489622000" lon="-2.617679000">
        <ele>424.90</ele>
        <time>2017-02-11T07:58:58Z</time>
      </trkpt>
      <trkpt lat="42.489635000" lon="-2.617644000">
        <ele>424.90</ele>
        <time>2017-02-11T07:58:59Z</time>
      </trkpt>
      <trkpt lat="42.489648000" lon="-2.617608000">
        <ele>425.00</ele>
        <time>2017-02-11T07:59:00Z</time>
      </trkpt>
      <trkpt lat="42.489661000" lon="-2.617571000">
        <ele>425.00</ele>
        <time>2017-02-11T07:59:01Z</time>
      </trkpt>
      <trkpt lat="42.489673000" lon="-2.617537000">
        <ele>425.10</ele>
        <time>2017-02-11T07:59:02Z</time>
      </trkpt>
      <trkpt lat="42.489684000" lon="-2.617501000">
        <ele>425.10</ele>
        <time>2017-02-11T07:59:03Z</time>
      </trkpt>
      <trkpt lat="42.489697000" lon="-2.617469000">
        <ele>425.10</ele>
        <time>2017-02-11T07:59:04Z</time>
      </trkpt>
      <trkpt lat="42.489709000" lon="-2.617436000">
        <ele>425.10</ele>
        <time>2017-02-11T07:59:05Z</time>
      </trkpt>
      <trkpt lat="42.489720000" lon="-2.617400000">
        <ele>425.10</ele>
        <time>2017-02-11T07:59:06Z</time>
      </trkpt>
      <trkpt lat="42.489733000" lon="-2.617371000">
        <ele>425.10</ele>
        <time>2017-02-11T07:59:07Z</time>
      </trkpt>
      <trkpt lat="42.489746000" lon="-2.617338000">
        <ele>425.10</ele>
        <time>2017-02-11T07:59:08Z</time>
      </trkpt>
      <trkpt lat="42.489759000" lon="-2.617301000">
        <ele>425.20</ele>
        <time>2017-02-11T07:59:09Z</time>
      </trkpt>
      <trkpt lat="42.489771000" lon="-2.617266000">
        <ele>425.20</ele>
        <time>2017-02-11T07:59:10Z</time>
      </trkpt>
      <trkpt lat="42.489781000" lon="-2.617228000">
        <ele>425.20</ele>
        <time>2017-02-11T07:59:11Z</time>
      </trkpt>
      <trkpt lat="42.489795000" lon="-2.617194000">
        <ele>425.20</ele>
        <time>2017-02-11T07:59:12Z</time>
      </trkpt>
      <trkpt lat="42.489807000" lon="-2.617156000">
        <ele>425.20</ele>
        <time>2017-02-11T07:59:13Z</time>
      </trkpt>
      <trkpt lat="42.489818000" lon="-2.617121000">
        <ele>425.20</ele>
        <time>2017-02-11T07:59:14Z</time>
      </trkpt>
      <trkpt lat="42.489831000" lon="-2.617087000">
        <ele>425.20</ele>
        <time>2017-02-11T07:59:15Z</time>
      </trkpt>
      <trkpt lat="42.489842000" lon="-2.617051000">
        <ele>425.20</ele>
        <time>2017-02-11T07:59:16Z</time>
      </trkpt>
      <trkpt lat="42.489858000" lon="-2.617017000">
        <ele>425.20</ele>
        <time>2017-02-11T07:59:17Z</time>
      </trkpt>
      <trkpt lat="42.489868000" lon="-2.616982000">
        <ele>425.20</ele>
        <time>2017-02-11T07:59:18Z</time>
      </trkpt>
      <trkpt lat="42.489879000" lon="-2.616949000">
        <ele>425.20</ele>
        <time>2017-02-11T07:59:19Z</time>
      </trkpt>
      <trkpt lat="42.489886000" lon="-2.616913000">
        <ele>425.20</ele>
        <time>2017-02-11T07:59:20Z</time>
      </trkpt>
      <trkpt lat="42.489898000" lon="-2.616879000">
        <ele>425.20</ele>
        <time>2017-02-11T07:59:21Z</time>
      </trkpt>
      <trkpt lat="42.489909000" lon="-2.616847000">
        <ele>425.20</ele>
        <time>2017-02-11T07:59:22Z</time>
      </trkpt>
      <trkpt lat="42.489929000" lon="-2.616786000">
        <ele>425.30</ele>
        <time>2017-02-11T07:59:24Z</time>
      </trkpt>
      <trkpt lat="42.489941000" lon="-2.616749000">
        <ele>425.40</ele>
        <time>2017-02-11T07:59:25Z</time>
      </trkpt>
      <trkpt lat="42.489951000" lon="-2.616719000">
        <ele>425.50</ele>
        <time>2017-02-11T07:59:26Z</time>
      </trkpt>
      <trkpt lat="42.489959000" lon="-2.616690000">
        <ele>425.50</ele>
        <time>2017-02-11T07:59:27Z</time>
      </trkpt>
      <trkpt lat="42.489969000" lon="-2.616660000">
        <ele>425.60</ele>
        <time>2017-02-11T07:59:28Z</time>
      </trkpt>
      <trkpt lat="42.489981000" lon="-2.616627000">
        <ele>425.60</ele>
        <time>2017-02-11T07:59:29Z</time>
      </trkpt>
      <trkpt lat="42.489993000" lon="-2.616593000">
        <ele>425.70</ele>
        <time>2017-02-11T07:59:30Z</time>
      </trkpt>
      <trkpt lat="42.490001000" lon="-2.616557000">
        <ele>425.70</ele>
        <time>2017-02-11T07:59:31Z</time>
      </trkpt>
      <trkpt lat="42.490012000" lon="-2.616523000">
        <ele>425.70</ele>
        <time>2017-02-11T07:59:32Z</time>
      </trkpt>
      <trkpt lat="42.490022000" lon="-2.616487000">
        <ele>425.80</ele>
        <time>2017-02-11T07:59:33Z</time>
      </trkpt>
      <trkpt lat="42.490030000" lon="-2.616449000">
        <ele>425.90</ele>
        <time>2017-02-11T07:59:34Z</time>
      </trkpt>
      <trkpt lat="42.490040000" lon="-2.616411000">
        <ele>426.00</ele>
        <time>2017-02-11T07:59:35Z</time>
      </trkpt>
      <trkpt lat="42.490052000" lon="-2.616371000">
        <ele>426.00</ele>
        <time>2017-02-11T07:59:36Z</time>
      </trkpt>
      <trkpt lat="42.490066000" lon="-2.616333000">
        <ele>426.00</ele>
        <time>2017-02-11T07:59:37Z</time>
      </trkpt>
      <trkpt lat="42.490079000" lon="-2.616293000">
        <ele>426.10</ele>
        <time>2017-02-11T07:59:38Z</time>
      </trkpt>
      <trkpt lat="42.490095000" lon="-2.616252000">
        <ele>426.10</ele>
        <time>2017-02-11T07:59:39Z</time>
      </trkpt>
      <trkpt lat="42.490110000" lon="-2.616206000">
        <ele>426.30</ele>
        <time>2017-02-11T07:59:40Z</time>
      </trkpt>
      <trkpt lat="42.490119000" lon="-2.616166000">
        <ele>426.40</ele>
        <time>2017-02-11T07:59:41Z</time>
      </trkpt>
      <trkpt lat="42.490130000" lon="-2.616128000">
        <ele>426.40</ele>
        <time>2017-02-11T07:59:42Z</time>
      </trkpt>
      <trkpt lat="42.490144000" lon="-2.616093000">
        <ele>426.50</ele>
        <time>2017-02-11T07:59:43Z</time>
      </trkpt>
      <trkpt lat="42.490157000" lon="-2.616059000">
        <ele>426.50</ele>
        <time>2017-02-11T07:59:44Z</time>
      </trkpt>
      <trkpt lat="42.490167000" lon="-2.616020000">
        <ele>426.40</ele>
        <time>2017-02-11T07:59:45Z</time>
      </trkpt>
      <trkpt lat="42.490182000" lon="-2.615979000">
        <ele>426.40</ele>
        <time>2017-02-11T07:59:46Z</time>
      </trkpt>
      <trkpt lat="42.490197000" lon="-2.615942000">
        <ele>426.40</ele>
        <time>2017-02-11T07:59:47Z</time>
      </trkpt>
      <trkpt lat="42.490209000" lon="-2.615903000">
        <ele>426.40</ele>
        <time>2017-02-11T07:59:48Z</time>
      </trkpt>
      <trkpt lat="42.490224000" lon="-2.615861000">
        <ele>426.40</ele>
        <time>2017-02-11T07:59:49Z</time>
      </trkpt>
      <trkpt lat="42.490239000" lon="-2.615822000">
        <ele>426.20</ele>
        <time>2017-02-11T07:59:50Z</time>
      </trkpt>
      <trkpt lat="42.490251000" lon="-2.615780000">
        <ele>426.00</ele>
        <time>2017-02-11T07:59:51Z</time>
      </trkpt>
      <trkpt lat="42.490264000" lon="-2.615735000">
        <ele>425.90</ele>
        <time>2017-02-11T07:59:52Z</time>
      </trkpt>
      <trkpt lat="42.490275000" lon="-2.615690000">
        <ele>425.90</ele>
        <time>2017-02-11T07:59:53Z</time>
      </trkpt>
      <trkpt lat="42.490290000" lon="-2.615647000">
        <ele>425.50</ele>
        <time>2017-02-11T07:59:54Z</time>
      </trkpt>
      <trkpt lat="42.490304000" lon="-2.615599000">
        <ele>425.20</ele>
        <time>2017-02-11T07:59:55Z</time>
      </trkpt>
      <trkpt lat="42.490318000" lon="-2.615553000">
        <ele>425.10</ele>
        <time>2017-02-11T07:59:56Z</time>
      </trkpt>
      <trkpt lat="42.490331000" lon="-2.615510000">
        <ele>424.90</ele>
        <time>2017-02-11T07:59:57Z</time>
      </trkpt>
      <trkpt lat="42.490344000" lon="-2.615467000">
        <ele>425.00</ele>
        <time>2017-02-11T07:59:58Z</time>
      </trkpt>
      <trkpt lat="42.490356000" lon="-2.615418000">
        <ele>425.00</ele>
        <time>2017-02-11T07:59:59Z</time>
      </trkpt>
      <trkpt lat="42.490369000" lon="-2.615371000">
        <ele>425.00</ele>
        <time>2017-02-11T08:00:00Z</time>
      </trkpt>
      <trkpt lat="42.490382000" lon="-2.615326000">
        <ele>425.00</ele>
        <time>2017-02-11T08:00:01Z</time>
      </trkpt>
      <trkpt lat="42.490399000" lon="-2.615283000">
        <ele>425.00</ele>
        <time>2017-02-11T08:00:02Z</time>
      </trkpt>
      <trkpt lat="42.490413000" lon="-2.615240000">
        <ele>425.00</ele>
        <time>2017-02-11T08:00:03Z</time>
      </trkpt>
      <trkpt lat="42.490427000" lon="-2.615195000">
        <ele>425.00</ele>
        <time>2017-02-11T08:00:04Z</time>
      </trkpt>
      <trkpt lat="42.490435000" lon="-2.615149000">
        <ele>424.90</ele>
        <time>2017-02-11T08:00:05Z</time>
      </trkpt>
      <trkpt lat="42.490447000" lon="-2.615106000">
        <ele>425.00</ele>
        <time>2017-02-11T08:00:06Z</time>
      </trkpt>
      <trkpt lat="42.490460000" lon="-2.615064000">
        <ele>425.00</ele>
        <time>2017-02-11T08:00:07Z</time>
      </trkpt>
      <trkpt lat="42.490473000" lon="-2.615025000">
        <ele>425.10</ele>
        <time>2017-02-11T08:00:08Z</time>
      </trkpt>
      <trkpt lat="42.490488000" lon="-2.614985000">
        <ele>425.10</ele>
        <time>2017-02-11T08:00:09Z</time>
      </trkpt>
      <trkpt lat="42.490500000" lon="-2.614945000">
        <ele>425.10</ele>
        <time>2017-02-11T08:00:10Z</time>
      </trkpt>
      <trkpt lat="42.490515000" lon="-2.614903000">
        <ele>425.10</ele>
        <time>2017-02-11T08:00:11Z</time>
      </trkpt>
      <trkpt lat="42.490529000" lon="-2.614864000">
        <ele>425.00</ele>
        <time>2017-02-11T08:00:12Z</time>
      </trkpt>
      <trkpt lat="42.490543000" lon="-2.614825000">
        <ele>425.00</ele>
        <time>2017-02-11T08:00:13Z</time>
      </trkpt>
      <trkpt lat="42.490554000" lon="-2.614783000">
        <ele>425.10</ele>
        <time>2017-02-11T08:00:14Z</time>
      </trkpt>
      <trkpt lat="42.490569000" lon="-2.614742000">
        <ele>425.10</ele>
        <time>2017-02-11T08:00:15Z</time>
      </trkpt>
      <trkpt lat="42.490583000" lon="-2.614700000">
        <ele>425.10</ele>
        <time>2017-02-11T08:00:16Z</time>
      </trkpt>
      <trkpt lat="42.490596000" lon="-2.614658000">
        <ele>425.10</ele>
        <time>2017-02-11T08:00:17Z</time>
      </trkpt>
      <trkpt lat="42.490612000" lon="-2.614620000">
        <ele>425.20</ele>
        <time>2017-02-11T08:00:18Z</time>
      </trkpt>
      <trkpt lat="42.490624000" lon="-2.614578000">
        <ele>425.30</ele>
        <time>2017-02-11T08:00:19Z</time>
      </trkpt>
      <trkpt lat="42.490636000" lon="-2.614540000">
        <ele>425.30</ele>
        <time>2017-02-11T08:00:20Z</time>
      </trkpt>
      <trkpt lat="42.490648000" lon="-2.614502000">
        <ele>425.30</ele>
        <time>2017-02-11T08:00:21Z</time>
      </trkpt>
      <trkpt lat="42.490662000" lon="-2.614460000">
        <ele>425.40</ele>
        <time>2017-02-11T08:00:22Z</time>
      </trkpt>
      <trkpt lat="42.490674000" lon="-2.614419000">
        <ele>425.40</ele>
        <time>2017-02-11T08:00:23Z</time>
      </trkpt>
      <trkpt lat="42.490692000" lon="-2.614348000">
        <ele>425.40</ele>
        <time>2017-02-11T08:00:25Z</time>
      </trkpt>
      <trkpt lat="42.490700000" lon="-2.614312000">
        <ele>425.40</ele>
        <time>2017-02-11T08:00:26Z</time>
      </trkpt>
      <trkpt lat="42.490709000" lon="-2.614271000">
        <ele>425.40</ele>
        <time>2017-02-11T08:00:27Z</time>
      </trkpt>
      <trkpt lat="42.490719000" lon="-2.614237000">
        <ele>425.50</ele>
        <time>2017-02-11T08:00:28Z</time>
      </trkpt>
      <trkpt lat="42.490730000" lon="-2.614197000">
        <ele>425.50</ele>
        <time>2017-02-11T08:00:29Z</time>
      </trkpt>
      <trkpt lat="42.490740000" lon="-2.614158000">
        <ele>425.60</ele>
        <time>2017-02-11T08:00:30Z</time>
      </trkpt>
      <trkpt lat="42.490750000" lon="-2.614115000">
        <ele>425.60</ele>
        <time>2017-02-11T08:00:31Z</time>
      </trkpt>
      <trkpt lat="42.490763000" lon="-2.614076000">
        <ele>425.70</ele>
        <time>2017-02-11T08:00:32Z</time>
      </trkpt>
      <trkpt lat="42.490770000" lon="-2.614031000">
        <ele>425.80</ele>
        <time>2017-02-11T08:00:33Z</time>
      </trkpt>
      <trkpt lat="42.490780000" lon="-2.613992000">
        <ele>426.00</ele>
        <time>2017-02-11T08:00:34Z</time>
      </trkpt>
      <trkpt lat="42.490787000" lon="-2.613946000">
        <ele>426.20</ele>
        <time>2017-02-11T08:00:35Z</time>
      </trkpt>
      <trkpt lat="42.490793000" lon="-2.613905000">
        <ele>426.20</ele>
        <time>2017-02-11T08:00:36Z</time>
      </trkpt>
      <trkpt lat="42.490801000" lon="-2.613860000">
        <ele>426.20</ele>
        <time>2017-02-11T08:00:37Z</time>
      </trkpt>
      <trkpt lat="42.490811000" lon="-2.613816000">
        <ele>426.20</ele>
        <time>2017-02-11T08:00:38Z</time>
      </trkpt>
      <trkpt lat="42.490822000" lon="-2.613771000">
        <ele>426.20</ele>
        <time>2017-02-11T08:00:39Z</time>
      </trkpt>
      <trkpt lat="42.490833000" lon="-2.613722000">
        <ele>426.20</ele>
        <time>2017-02-11T08:00:40Z</time>
      </trkpt>
      <trkpt lat="42.490841000" lon="-2.613679000">
        <ele>426.20</ele>
        <time>2017-02-11T08:00:41Z</time>
      </trkpt>
      <trkpt lat="42.490847000" lon="-2.613637000">
        <ele>426.10</ele>
        <time>2017-02-11T08:00:42Z</time>
      </trkpt>
      <trkpt lat="42.490855000" lon="-2.613594000">
        <ele>426.10</ele>
        <time>2017-02-11T08:00:43Z</time>
      </trkpt>
      <trkpt lat="42.490859000" lon="-2.613552000">
        <ele>426.10</ele>
        <time>2017-02-11T08:00:44Z</time>
      </trkpt>
      <trkpt lat="42.490867000" lon="-2.613510000">
        <ele>426.10</ele>
        <time>2017-02-11T08:00:45Z</time>
      </trkpt>
      <trkpt lat="42.490875000" lon="-2.613468000">
        <ele>426.10</ele>
        <time>2017-02-11T08:00:46Z</time>
      </trkpt>
      <trkpt lat="42.490882000" lon="-2.613426000">
        <ele>426.00</ele>
        <time>2017-02-11T08:00:47Z</time>
      </trkpt>
      <trkpt lat="42.490888000" lon="-2.613382000">
        <ele>426.10</ele>
        <time>2017-02-11T08:00:48Z</time>
      </trkpt>
      <trkpt lat="42.490890000" lon="-2.613340000">
        <ele>426.10</ele>
        <time>2017-02-11T08:00:49Z</time>
      </trkpt>
      <trkpt lat="42.490898000" lon="-2.613299000">
        <ele>426.00</ele>
        <time>2017-02-11T08:00:50Z</time>
      </trkpt>
      <trkpt lat="42.490904000" lon="-2.613259000">
        <ele>426.00</ele>
        <time>2017-02-11T08:00:51Z</time>
      </trkpt>
      <trkpt lat="42.490910000" lon="-2.613216000">
        <ele>425.90</ele>
        <time>2017-02-11T08:00:52Z</time>
      </trkpt>
      <trkpt lat="42.490915000" lon="-2.613180000">
        <ele>425.90</ele>
        <time>2017-02-11T08:00:53Z</time>
      </trkpt>
      <trkpt lat="42.490920000" lon="-2.613142000">
        <ele>425.80</ele>
        <time>2017-02-11T08:00:54Z</time>
      </trkpt>
      <trkpt lat="42.490929000" lon="-2.613107000">
        <ele>425.70</ele>
        <time>2017-02-11T08:00:55Z</time>
      </trkpt>
      <trkpt lat="42.490935000" lon="-2.613074000">
        <ele>425.70</ele>
        <time>2017-02-11T08:00:56Z</time>
      </trkpt>
      <trkpt lat="42.490940000" lon="-2.613040000">
        <ele>425.70</ele>
        <time>2017-02-11T08:00:57Z</time>
      </trkpt>
      <trkpt lat="42.490945000" lon="-2.613001000">
        <ele>425.60</ele>
        <time>2017-02-11T08:00:58Z</time>
      </trkpt>
      <trkpt lat="42.490947000" lon="-2.612959000">
        <ele>425.60</ele>
        <time>2017-02-11T08:00:59Z</time>
      </trkpt>
      <trkpt lat="42.490950000" lon="-2.612917000">
        <ele>425.50</ele>
        <time>2017-02-11T08:01:00Z</time>
      </trkpt>
      <trkpt lat="42.490949000" lon="-2.612874000">
        <ele>425.50</ele>
        <time>2017-02-11T08:01:01Z</time>
      </trkpt>
      <trkpt lat="42.490949000" lon="-2.612831000">
        <ele>425.50</ele>
        <time>2017-02-11T08:01:02Z</time>
      </trkpt>
      <trkpt lat="42.490949000" lon="-2.612788000">
        <ele>425.50</ele>
        <time>2017-02-11T08:01:03Z</time>
      </trkpt>
      <trkpt lat="42.490952000" lon="-2.612741000">
        <ele>425.40</ele>
        <time>2017-02-11T08:01:04Z</time>
      </trkpt>
      <trkpt lat="42.490953000" lon="-2.612695000">
        <ele>425.30</ele>
        <time>2017-02-11T08:01:05Z</time>
      </trkpt>
      <trkpt lat="42.490955000" lon="-2.612647000">
        <ele>425.20</ele>
        <time>2017-02-11T08:01:06Z</time>
      </trkpt>
      <trkpt lat="42.490959000" lon="-2.612599000">
        <ele>425.10</ele>
        <time>2017-02-11T08:01:07Z</time>
      </trkpt>
      <trkpt lat="42.490964000" lon="-2.612549000">
        <ele>425.10</ele>
        <time>2017-02-11T08:01:08Z</time>
      </trkpt>
      <trkpt lat="42.490969000" lon="-2.612498000">
        <ele>425.10</ele>
        <time>2017-02-11T08:01:09Z</time>
      </trkpt>
      <trkpt lat="42.490971000" lon="-2.612451000">
        <ele>425.30</ele>
        <time>2017-02-11T08:01:10Z</time>
      </trkpt>
      <trkpt lat="42.490971000" lon="-2.612404000">
        <ele>425.50</ele>
        <time>2017-02-11T08:01:11Z</time>
      </trkpt>
      <trkpt lat="42.490975000" lon="-2.612359000">
        <ele>425.70</ele>
        <time>2017-02-11T08:01:12Z</time>
      </trkpt>
      <trkpt lat="42.490977000" lon="-2.612313000">
        <ele>425.80</ele>
        <time>2017-02-11T08:01:13Z</time>
      </trkpt>
      <trkpt lat="42.490979000" lon="-2.612272000">
        <ele>425.70</ele>
        <time>2017-02-11T08:01:14Z</time>
      </trkpt>
      <trkpt lat="42.490978000" lon="-2.612227000">
        <ele>425.60</ele>
        <time>2017-02-11T08:01:15Z</time>
      </trkpt>
      <trkpt lat="42.490976000" lon="-2.612176000">
        <ele>425.40</ele>
        <time>2017-02-11T08:01:16Z</time>
      </trkpt>
      <trkpt lat="42.490974000" lon="-2.612130000">
        <ele>425.30</ele>
        <time>2017-02-11T08:01:17Z</time>
      </trkpt>
      <trkpt lat="42.490970000" lon="-2.612088000">
        <ele>425.20</ele>
        <time>2017-02-11T08:01:18Z</time>
      </trkpt>
      <trkpt lat="42.490966000" lon="-2.612042000">
        <ele>425.20</ele>
        <time>2017-02-11T08:01:19Z</time>
      </trkpt>
      <trkpt lat="42.490963000" lon="-2.611998000">
        <ele>425.30</ele>
        <time>2017-02-11T08:01:20Z</time>
      </trkpt>
      <trkpt lat="42.490957000" lon="-2.611957000">
        <ele>425.40</ele>
        <time>2017-02-11T08:01:21Z</time>
      </trkpt>
      <trkpt lat="42.490956000" lon="-2.611918000">
        <ele>425.40</ele>
        <time>2017-02-11T08:01:22Z</time>
      </trkpt>
      <trkpt lat="42.490955000" lon="-2.611875000">
        <ele>425.50</ele>
        <time>2017-02-11T08:01:23Z</time>
      </trkpt>
      <trkpt lat="42.490957000" lon="-2.611830000">
        <ele>425.50</ele>
        <time>2017-02-11T08:01:24Z</time>
      </trkpt>
      <trkpt lat="42.490957000" lon="-2.611741000">
        <ele>425.90</ele>
        <time>2017-02-11T08:01:26Z</time>
      </trkpt>
      <trkpt lat="42.490958000" lon="-2.611701000">
        <ele>426.20</ele>
        <time>2017-02-11T08:01:27Z</time>
      </trkpt>
      <trkpt lat="42.490961000" lon="-2.611654000">
        <ele>426.50</ele>
        <time>2017-02-11T08:01:28Z</time>
      </trkpt>
      <trkpt lat="42.490958000" lon="-2.611607000">
        <ele>426.60</ele>
        <time>2017-02-11T08:01:29Z</time>
      </trkpt>
      <trkpt lat="42.490954000" lon="-2.611559000">
        <ele>426.50</ele>
        <time>2017-02-11T08:01:30Z</time>
      </trkpt>
      <trkpt lat="42.490950000" lon="-2.611512000">
        <ele>426.40</ele>
        <time>2017-02-11T08:01:31Z</time>
      </trkpt>
      <trkpt lat="42.490946000" lon="-2.611467000">
        <ele>426.30</ele>
        <time>2017-02-11T08:01:32Z</time>
      </trkpt>
      <trkpt lat="42.490943000" lon="-2.611423000">
        <ele>426.30</ele>
        <time>2017-02-11T08:01:33Z</time>
      </trkpt>
      <trkpt lat="42.490939000" lon="-2.611381000">
        <ele>426.30</ele>
        <time>2017-02-11T08:01:34Z</time>
      </trkpt>
      <trkpt lat="42.490938000" lon="-2.611334000">
        <ele>426.30</ele>
        <time>2017-02-11T08:01:35Z</time>
      </trkpt>
      <trkpt lat="42.490940000" lon="-2.611291000">
        <ele>426.30</ele>
        <time>2017-02-11T08:01:36Z</time>
      </trkpt>
      <trkpt lat="42.490934000" lon="-2.611246000">
        <ele>426.40</ele>
        <time>2017-02-11T08:01:37Z</time>
      </trkpt>
      <trkpt lat="42.490930000" lon="-2.611204000">
        <ele>426.20</ele>
        <time>2017-02-11T08:01:38Z</time>
      </trkpt>
      <trkpt lat="42.490925000" lon="-2.611157000">
        <ele>426.00</ele>
        <time>2017-02-11T08:01:39Z</time>
      </trkpt>
      <trkpt lat="42.490921000" lon="-2.611114000">
        <ele>425.90</ele>
        <time>2017-02-11T08:01:40Z</time>
      </trkpt>
      <trkpt lat="42.490918000" lon="-2.611071000">
        <ele>425.80</ele>
        <time>2017-02-11T08:01:41Z</time>
      </trkpt>
      <trkpt lat="42.490914000" lon="-2.611029000">
        <ele>425.80</ele>
        <time>2017-02-11T08:01:42Z</time>
      </trkpt>
      <trkpt lat="42.490914000" lon="-2.610989000">
        <ele>425.60</ele>
        <time>2017-02-11T08:01:43Z</time>
      </trkpt>
      <trkpt lat="42.490919000" lon="-2.610945000">
        <ele>425.50</ele>
        <time>2017-02-11T08:01:44Z</time>
      </trkpt>
      <trkpt lat="42.490923000" lon="-2.610903000">
        <ele>425.40</ele>
        <time>2017-02-11T08:01:45Z</time>
      </trkpt>
      <trkpt lat="42.490926000" lon="-2.610858000">
        <ele>425.30</ele>
        <time>2017-02-11T08:01:46Z</time>
      </trkpt>
      <trkpt lat="42.490924000" lon="-2.610814000">
        <ele>425.20</ele>
        <time>2017-02-11T08:01:47Z</time>
      </trkpt>
      <trkpt lat="42.490920000" lon="-2.610774000">
        <ele>425.20</ele>
        <time>2017-02-11T08:01:48Z</time>
      </trkpt>
      <trkpt lat="42.490915000" lon="-2.610732000">
        <ele>425.30</ele>
        <time>2017-02-11T08:01:49Z</time>
      </trkpt>
      <trkpt lat="42.490911000" lon="-2.610692000">
        <ele>425.40</ele>
        <time>2017-02-11T08:01:50Z</time>
      </trkpt>
      <trkpt lat="42.490907000" lon="-2.610652000">
        <ele>425.40</ele>
        <time>2017-02-11T08:01:51Z</time>
      </trkpt>
      <trkpt lat="42.490905000" lon="-2.610615000">
        <ele>425.40</ele>
        <time>2017-02-11T08:01:52Z</time>
      </trkpt>
      <trkpt lat="42.490903000" lon="-2.610576000">
        <ele>425.40</ele>
        <time>2017-02-11T08:01:53Z</time>
      </trkpt>
      <trkpt lat="42.490901000" lon="-2.610539000">
        <ele>425.40</ele>
        <time>2017-02-11T08:01:54Z</time>
      </trkpt>
      <trkpt lat="42.490897000" lon="-2.610502000">
        <ele>425.30</ele>
        <time>2017-02-11T08:01:55Z</time>
      </trkpt>
      <trkpt lat="42.490892000" lon="-2.610464000">
        <ele>425.30</ele>
        <time>2017-02-11T08:01:56Z</time>
      </trkpt>
      <trkpt lat="42.490890000" lon="-2.610426000">
        <ele>425.20</ele>
        <time>2017-02-11T08:01:57Z</time>
      </trkpt>
      <trkpt lat="42.490886000" lon="-2.610386000">
        <ele>425.20</ele>
        <time>2017-02-11T08:01:58Z</time>
      </trkpt>
      <trkpt lat="42.490888000" lon="-2.610354000">
        <ele>425.00</ele>
        <time>2017-02-11T08:01:59Z</time>
      </trkpt>
      <trkpt lat="42.490886000" lon="-2.610314000">
        <ele>424.90</ele>
        <time>2017-02-11T08:02:00Z</time>
      </trkpt>
      <trkpt lat="42.490885000" lon="-2.610274000">
        <ele>424.90</ele>
        <time>2017-02-11T08:02:01Z</time>
      </trkpt>
      <trkpt lat="42.490885000" lon="-2.610235000">
        <ele>424.80</ele>
        <time>2017-02-11T08:02:02Z</time>
      </trkpt>
      <trkpt lat="42.490886000" lon="-2.610199000">
        <ele>424.80</ele>
        <time>2017-02-11T08:02:03Z</time>
      </trkpt>
      <trkpt lat="42.490886000" lon="-2.610166000">
        <ele>424.70</ele>
        <time>2017-02-11T08:02:04Z</time>
      </trkpt>
      <trkpt lat="42.490884000" lon="-2.610139000">
        <ele>424.80</ele>
        <time>2017-02-11T08:02:05Z</time>
      </trkpt>
      <trkpt lat="42.490880000" lon="-2.610118000">
        <ele>424.80</ele>
        <time>2017-02-11T08:02:06Z</time>
      </trkpt>
      <trkpt lat="42.490880000" lon="-2.610098000">
        <ele>424.80</ele>
        <time>2017-02-11T08:02:07Z</time>
      </trkpt>
      <trkpt lat="42.490878000" lon="-2.610079000">
        <ele>424.90</ele>
        <time>2017-02-11T08:02:08Z</time>
      </trkpt>
      <trkpt lat="42.490874000" lon="-2.610056000">
        <ele>424.90</ele>
        <time>2017-02-11T08:02:09Z</time>
      </trkpt>
      <trkpt lat="42.490871000" lon="-2.610034000">
        <ele>424.90</ele>
        <time>2017-02-11T08:02:10Z</time>
      </trkpt>
      <trkpt lat="42.490872000" lon="-2.610012000">
        <ele>424.80</ele>
        <time>2017-02-11T08:02:11Z</time>
      </trkpt>
      <trkpt lat="42.490867000" lon="-2.609990000">
        <ele>424.80</ele>
        <time>2017-02-11T08:02:12Z</time>
      </trkpt>
      <trkpt lat="42.490862000" lon="-2.609965000">
        <ele>424.70</ele>
        <time>2017-02-11T08:02:13Z</time>
      </trkpt>
      <trkpt lat="42.490858000" lon="-2.609940000">
        <ele>424.70</ele>
        <time>2017-02-11T08:02:14Z</time>
      </trkpt>
      <trkpt lat="42.490861000" lon="-2.609917000">
        <ele>424.60</ele>
        <time>2017-02-11T08:02:15Z</time>
      </trkpt>
      <trkpt lat="42.490859000" lon="-2.609891000">
        <ele>424.60</ele>
        <time>2017-02-11T08:02:16Z</time>
      </trkpt>
      <trkpt lat="42.490859000" lon="-2.609865000">
        <ele>424.60</ele>
        <time>2017-02-11T08:02:17Z</time>
      </trkpt>
      <trkpt lat="42.490860000" lon="-2.609840000">
        <ele>424.60</ele>
        <time>2017-02-11T08:02:18Z</time>
      </trkpt>
      <trkpt lat="42.490857000" lon="-2.609815000">
        <ele>424.60</ele>
        <time>2017-02-11T08:02:19Z</time>
      </trkpt>
      <trkpt lat="42.490857000" lon="-2.609794000">
        <ele>424.60</ele>
        <time>2017-02-11T08:02:20Z</time>
      </trkpt>
      <trkpt lat="42.490855000" lon="-2.609769000">
        <ele>424.60</ele>
        <time>2017-02-11T08:02:21Z</time>
      </trkpt>
      <trkpt lat="42.490856000" lon="-2.609746000">
        <ele>424.60</ele>
        <time>2017-02-11T08:02:22Z</time>
      </trkpt>
      <trkpt lat="42.490857000" lon="-2.609722000">
        <ele>424.60</ele>
        <time>2017-02-11T08:02:23Z</time>
      </trkpt>
      <trkpt lat="42.490853000" lon="-2.609694000">
        <ele>424.60</ele>
        <time>2017-02-11T08:02:24Z</time>
      </trkpt>
      <trkpt lat="42.490850000" lon="-2.609667000">
        <ele>424.60</ele>
        <time>2017-02-11T08:02:25Z</time>
      </trkpt>
      <trkpt lat="42.490856000" lon="-2.609625000">
        <ele>424.60</ele>
        <time>2017-02-11T08:02:27Z</time>
      </trkpt>
      <trkpt lat="42.490864000" lon="-2.609607000">
        <ele>424.60</ele>
        <time>2017-02-11T08:02:28Z</time>
      </trkpt>
      <trkpt lat="42.490871000" lon="-2.609591000">
        <ele>424.60</ele>
        <time>2017-02-11T08:02:29Z</time>
      </trkpt>
      <trkpt lat="42.490878000" lon="-2.609574000">
        <ele>424.60</ele>
        <time>2017-02-11T08:02:30Z</time>
      </trkpt>
      <trkpt lat="42.490886000" lon="-2.609564000">
        <ele>424.60</ele>
        <time>2017-02-11T08:02:31Z</time>
      </trkpt>
      <trkpt lat="42.490887000" lon="-2.609567000">
        <ele>424.60</ele>
        <time>2017-02-11T08:02:32Z</time>
      </trkpt>
      <trkpt lat="42.490890000" lon="-2.609565000">
        <ele>424.70</ele>
        <time>2017-02-11T08:02:33Z</time>
      </trkpt>
      <trkpt lat="42.490893000" lon="-2.609565000">
        <ele>424.70</ele>
        <time>2017-02-11T08:02:34Z</time>
      </trkpt>
      <trkpt lat="42.490895000" lon="-2.609565000">
        <ele>424.80</ele>
        <time>2017-02-11T08:02:35Z</time>
      </trkpt>
      <trkpt lat="42.490894000" lon="-2.609556000">
        <ele>424.80</ele>
        <time>2017-02-11T08:02:36Z</time>
      </trkpt>
      <trkpt lat="42.490898000" lon="-2.609548000">
        <ele>424.80</ele>
        <time>2017-02-11T08:02:37Z</time>
      </trkpt>
      <trkpt lat="42.490895000" lon="-2.609547000">
        <ele>424.90</ele>
        <time>2017-02-11T08:02:38Z</time>
      </trkpt>
      <trkpt lat="42.490895000" lon="-2.609544000">
        <ele>424.90</ele>
        <time>2017-02-11T08:02:39Z</time>
      </trkpt>
      <trkpt lat="42.490895000" lon="-2.609545000">
        <ele>424.90</ele>
        <time>2017-02-11T08:02:40Z</time>
      </trkpt>
      <trkpt lat="42.490900000" lon="-2.609546000">
        <ele>424.90</ele>
        <time>2017-02-11T08:02:41Z</time>
      </trkpt>
      <trkpt lat="42.490899000" lon="-2.609548000">
        <ele>425.00</ele>
        <time>2017-02-11T08:02:42Z</time>
      </trkpt>
      <trkpt lat="42.490899000" lon="-2.609548000">
        <ele>425.00</ele>
        <time>2017-02-11T08:02:43Z</time>
      </trkpt>
      <trkpt lat="42.490897000" lon="-2.609543000">
        <ele>425.00</ele>
        <time>2017-02-11T08:02:44Z</time>
      </trkpt>
      <trkpt lat="42.490899000" lon="-2.609540000">
        <ele>425.00</ele>
        <time>2017-02-11T08:02:45Z</time>
      </trkpt>
      <trkpt lat="42.490900000" lon="-2.609540000">
        <ele>425.00</ele>
        <time>2017-02-11T08:02:46Z</time>
      </trkpt>
      <trkpt lat="42.490902000" lon="-2.609540000">
        <ele>425.10</ele>
        <time>2017-02-11T08:02:47Z</time>
      </trkpt>
      <trkpt lat="42.490904000" lon="-2.609544000">
        <ele>425.10</ele>
        <time>2017-02-11T08:02:48Z</time>
      </trkpt>
      <trkpt lat="42.490904000" lon="-2.609550000">
        <ele>425.10</ele>
        <time>2017-02-11T08:02:49Z</time>
      </trkpt>
      <trkpt lat="42.490903000" lon="-2.609551000">
        <ele>425.10</ele>
        <time>2017-02-11T08:02:50Z</time>
      </trkpt>
      <trkpt lat="42.490902000" lon="-2.609550000">
        <ele>425.10</ele>
        <time>2017-02-11T08:02:51Z</time>
      </trkpt>
      <trkpt lat="42.490903000" lon="-2.609548000">
        <ele>425.10</ele>
        <time>2017-02-11T08:02:52Z</time>
      </trkpt>
      <trkpt lat="42.490903000" lon="-2.609545000">
        <ele>425.10</ele>
        <time>2017-02-11T08:02:53Z</time>
      </trkpt>
      <trkpt lat="42.490904000" lon="-2.609548000">
        <ele>425.20</ele>
        <time>2017-02-11T08:02:54Z</time>
      </trkpt>
      <trkpt lat="42.490903000" lon="-2.609552000">
        <ele>425.20</ele>
        <time>2017-02-11T08:02:55Z</time>
      </trkpt>
      <trkpt lat="42.490902000" lon="-2.609555000">
        <ele>425.30</ele>
        <time>2017-02-11T08:02:56Z</time>
      </trkpt>
      <trkpt lat="42.490902000" lon="-2.609558000">
        <ele>425.30</ele>
        <time>2017-02-11T08:02:57Z</time>
      </trkpt>
      <trkpt lat="42.490903000" lon="-2.609561000">
        <ele>425.30</ele>
        <time>2017-02-11T08:02:58Z</time>
      </trkpt>
      <trkpt lat="42.490907000" lon="-2.609566000">
        <ele>425.40</ele>
        <time>2017-02-11T08:02:59Z</time>
      </trkpt>
      <trkpt lat="42.490912000" lon="-2.609573000">
        <ele>425.40</ele>
        <time>2017-02-11T08:03:00Z</time>
      </trkpt>
      <trkpt lat="42.490916000" lon="-2.609574000">
        <ele>425.40</ele>
        <time>2017-02-11T08:03:01Z</time>
      </trkpt>
      <trkpt lat="42.490920000" lon="-2.609578000">
        <ele>425.40</ele>
        <time>2017-02-11T08:03:02Z</time>
      </trkpt>
      <trkpt lat="42.490920000" lon="-2.609582000">
        <ele>425.30</ele>
        <time>2017-02-11T08:03:03Z</time>
      </trkpt>
      <trkpt lat="42.490918000" lon="-2.609583000">
        <ele>425.20</ele>
        <time>2017-02-11T08:03:04Z</time>
      </trkpt>
      <trkpt lat="42.490916000" lon="-2.609584000">
        <ele>425.10</ele>
        <time>2017-02-11T08:03:05Z</time>
      </trkpt>
      <trkpt lat="42.490913000" lon="-2.609584000">
        <ele>425.10</ele>
        <time>2017-02-11T08:03:06Z</time>
      </trkpt>
      <trkpt lat="42.490907000" lon="-2.609579000">
        <ele>425.20</ele>
        <time>2017-02-11T08:03:07Z</time>
      </trkpt>
      <trkpt lat="42.490902000" lon="-2.609572000">
        <ele>425.30</ele>
        <time>2017-02-11T08:03:08Z</time>
      </trkpt>
      <trkpt lat="42.490901000" lon="-2.609564000">
        <ele>425.30</ele>
        <time>2017-02-11T08:03:09Z</time>
      </trkpt>
      <trkpt lat="42.490898000" lon="-2.609562000">
        <ele>425.40</ele>
        <time>2017-02-11T08:03:10Z</time>
      </trkpt>
      <trkpt lat="42.490898000" lon="-2.609559000">
        <ele>425.40</ele>
        <time>2017-02-11T08:03:11Z</time>
      </trkpt>
      <trkpt lat="42.490902000" lon="-2.609559000">
        <ele>425.40</ele>
        <time>2017-02-11T08:03:12Z</time>
      </trkpt>
      <trkpt lat="42.490906000" lon="-2.609564000">
        <ele>425.50</ele>
        <time>2017-02-11T08:03:13Z</time>
      </trkpt>
      <trkpt lat="42.490912000" lon="-2.609568000">
        <ele>425.50</ele>
        <time>2017-02-11T08:03:14Z</time>
      </trkpt>
      <trkpt lat="42.490918000" lon="-2.609577000">
        <ele>425.40</ele>
        <time>2017-02-11T08:03:15Z</time>
      </trkpt>
      <trkpt lat="42.490924000" lon="-2.609584000">
        <ele>425.40</ele>
        <time>2017-02-11T08:03:16Z</time>
      </trkpt>
      <trkpt lat="42.490925000" lon="-2.609587000">
        <ele>425.30</ele>
        <time>2017-02-11T08:03:17Z</time>
      </trkpt>
      <trkpt lat="42.490924000" lon="-2.609591000">
        <ele>425.30</ele>
        <time>2017-02-11T08:03:18Z</time>
      </trkpt>
      <trkpt lat="42.490922000" lon="-2.609592000">
        <ele>425.30</ele>
        <time>2017-02-11T08:03:19Z</time>
      </trkpt>
      <trkpt lat="42.490916000" lon="-2.609588000">
        <ele>425.30</ele>
        <time>2017-02-11T08:03:20Z</time>
      </trkpt>
      <trkpt lat="42.490913000" lon="-2.609583000">
        <ele>425.30</ele>
        <time>2017-02-11T08:03:21Z</time>
      </trkpt>
      <trkpt lat="42.490912000" lon="-2.609578000">
        <ele>425.30</ele>
        <time>2017-02-11T08:03:22Z</time>
      </trkpt>
      <trkpt lat="42.490915000" lon="-2.609580000">
        <ele>425.20</ele>
        <time>2017-02-11T08:03:23Z</time>
      </trkpt>
      <trkpt lat="42.490921000" lon="-2.609583000">
        <ele>425.20</ele>
        <time>2017-02-11T08:03:24Z</time>
      </trkpt>
      <trkpt lat="42.490925000" lon="-2.609589000">
        <ele>425.20</ele>
        <time>2017-02-11T08:03:25Z</time>
      </trkpt>
      <trkpt lat="42.490931000" lon="-2.609594000">
        <ele>425.10</ele>
        <time>2017-02-11T08:03:26Z</time>
      </trkpt>
      <trkpt lat="42.490938000" lon="-2.609605000">
        <ele>425.00</ele>
        <time>2017-02-11T08:03:28Z</time>
      </trkpt>
      <trkpt lat="42.490937000" lon="-2.609606000">
        <ele>425.00</ele>
        <time>2017-02-11T08:03:29Z</time>
      </trkpt>
      <trkpt lat="42.490936000" lon="-2.609602000">
        <ele>425.00</ele>
        <time>2017-02-11T08:03:30Z</time>
      </trkpt>
      <trkpt lat="42.490934000" lon="-2.609597000">
        <ele>425.00</ele>
        <time>2017-02-11T08:03:31Z</time>
      </trkpt>
      <trkpt lat="42.490931000" lon="-2.609589000">
        <ele>425.00</ele>
        <time>2017-02-11T08:03:32Z</time>
      </trkpt>
      <trkpt lat="42.490932000" lon="-2.609586000">
        <ele>425.00</ele>
        <time>2017-02-11T08:03:33Z</time>
      </trkpt>
      <trkpt lat="42.490932000" lon="-2.609582000">
        <ele>425.00</ele>
        <time>2017-02-11T08:03:34Z</time>
      </trkpt>
      <trkpt lat="42.490934000" lon="-2.609581000">
        <ele>425.00</ele>
        <time>2017-02-11T08:03:35Z</time>
      </trkpt>
      <trkpt lat="42.490937000" lon="-2.609581000">
        <ele>425.00</ele>
        <time>2017-02-11T08:03:36Z</time>
      </trkpt>
      <trkpt lat="42.490940000" lon="-2.609579000">
        <ele>424.90</ele>
        <time>2017-02-11T08:03:37Z</time>
      </trkpt>
      <trkpt lat="42.490945000" lon="-2.609580000">
        <ele>424.80</ele>
        <time>2017-02-11T08:03:38Z</time>
      </trkpt>
      <trkpt lat="42.490947000" lon="-2.609578000">
        <ele>424.90</ele>
        <time>2017-02-11T08:03:39Z</time>
      </trkpt>
      <trkpt lat="42.490944000" lon="-2.609575000">
        <ele>424.90</ele>
        <time>2017-02-11T08:03:40Z</time>
      </trkpt>
      <trkpt lat="42.490941000" lon="-2.609573000">
        <ele>424.90</ele>
        <time>2017-02-11T08:03:41Z</time>
      </trkpt>
      <trkpt lat="42.490936000" lon="-2.609572000">
        <ele>424.90</ele>
        <time>2017-02-11T08:03:42Z</time>
      </trkpt>
      <trkpt lat="42.490932000" lon="-2.609572000">
        <ele>425.00</ele>
        <time>2017-02-11T08:03:43Z</time>
      </trkpt>
      <trkpt lat="42.490928000" lon="-2.609571000">
        <ele>425.00</ele>
        <time>2017-02-11T08:03:44Z</time>
      </trkpt>
      <trkpt lat="42.490927000" lon="-2.609579000">
        <ele>425.20</ele>
        <time>2017-02-11T08:03:45Z</time>
      </trkpt>
      <trkpt lat="42.490925000" lon="-2.609578000">
        <ele>425.30</ele>
        <time>2017-02-11T08:03:46Z</time>
      </trkpt>
      <trkpt lat="42.490927000" lon="-2.609581000">
        <ele>425.30</ele>
        <time>2017-02-11T08:03:47Z</time>
      </trkpt>
      <trkpt lat="42.490930000" lon="-2.609588000">
        <ele>425.40</ele>
        <time>2017-02-11T08:03:48Z</time>
      </trkpt>
      <trkpt lat="42.490933000" lon="-2.609592000">
        <ele>425.40</ele>
        <time>2017-02-11T08:03:49Z</time>
      </trkpt>
      <trkpt lat="42.490936000" lon="-2.609593000">
        <ele>425.40</ele>
        <time>2017-02-11T08:03:50Z</time>
      </trkpt>
      <trkpt lat="42.490937000" lon="-2.609591000">
        <ele>425.20</ele>
        <time>2017-02-11T08:03:51Z</time>
      </trkpt>
      <trkpt lat="42.490932000" lon="-2.609588000">
        <ele>425.10</ele>
        <time>2017-02-11T08:03:52Z</time>
      </trkpt>
      <trkpt lat="42.490924000" lon="-2.609584000">
        <ele>425.00</ele>
        <time>2017-02-11T08:03:53Z</time>
      </trkpt>
      <trkpt lat="42.490916000" lon="-2.609583000">
        <ele>424.90</ele>
        <time>2017-02-11T08:03:54Z</time>
      </trkpt>
      <trkpt lat="42.490911000" lon="-2.609580000">
        <ele>424.90</ele>
        <time>2017-02-11T08:03:55Z</time>
      </trkpt>
      <trkpt lat="42.490908000" lon="-2.609578000">
        <ele>424.90</ele>
        <time>2017-02-11T08:03:56Z</time>
      </trkpt>
      <trkpt lat="42.490906000" lon="-2.609577000">
        <ele>424.90</ele>
        <time>2017-02-11T08:03:57Z</time>
      </trkpt>
      <trkpt lat="42.490911000" lon="-2.609577000">
        <ele>425.00</ele>
        <time>2017-02-11T08:03:58Z</time>
      </trkpt>
      <trkpt lat="42.490916000" lon="-2.609576000">
        <ele>425.00</ele>
        <time>2017-02-11T08:03:59Z</time>
      </trkpt>
      <trkpt lat="42.490923000" lon="-2.609574000">
        <ele>425.00</ele>
        <time>2017-02-11T08:04:00Z</time>
      </trkpt>
      <trkpt lat="42.490929000" lon="-2.609570000">
        <ele>425.00</ele>
        <time>2017-02-11T08:04:01Z</time>
      </trkpt>
      <trkpt lat="42.490933000" lon="-2.609566000">
        <ele>424.90</ele>
        <time>2017-02-11T08:04:02Z</time>
      </trkpt>
      <trkpt lat="42.490932000" lon="-2.609558000">
        <ele>424.90</ele>
        <time>2017-02-11T08:04:03Z</time>
      </trkpt>
      <trkpt lat="42.490930000" lon="-2.609552000">
        <ele>424.90</ele>
        <time>2017-02-11T08:04:04Z</time>
      </trkpt>
      <trkpt lat="42.490928000" lon="-2.609549000">
        <ele>424.90</ele>
        <time>2017-02-11T08:04:05Z</time>
      </trkpt>
      <trkpt lat="42.490924000" lon="-2.609548000">
        <ele>425.00</ele>
        <time>2017-02-11T08:04:06Z</time>
      </trkpt>
      <trkpt lat="42.490919000" lon="-2.609542000">
        <ele>425.00</ele>
        <time>2017-02-11T08:04:07Z</time>
      </trkpt>
      <trkpt lat="42.490916000" lon="-2.609543000">
        <ele>425.00</ele>
        <time>2017-02-11T08:04:08Z</time>
      </trkpt>
      <trkpt lat="42.490915000" lon="-2.609545000">
        <ele>425.00</ele>
        <time>2017-02-11T08:04:09Z</time>
      </trkpt>
      <trkpt lat="42.490915000" lon="-2.609540000">
        <ele>425.00</ele>
        <time>2017-02-11T08:04:10Z</time>
      </trkpt>
      <trkpt lat="42.490915000" lon="-2.609534000">
        <ele>425.10</ele>
        <time>2017-02-11T08:04:11Z</time>
      </trkpt>
      <trkpt lat="42.490916000" lon="-2.609533000">
        <ele>425.10</ele>
        <time>2017-02-11T08:04:12Z</time>
      </trkpt>
      <trkpt lat="42.490919000" lon="-2.609535000">
        <ele>425.20</ele>
        <time>2017-02-11T08:04:13Z</time>
      </trkpt>
      <trkpt lat="42.490920000" lon="-2.609533000">
        <ele>425.20</ele>
        <time>2017-02-11T08:04:14Z</time>
      </trkpt>
      <trkpt lat="42.490917000" lon="-2.609529000">
        <ele>425.30</ele>
        <time>2017-02-11T08:04:15Z</time>
      </trkpt>
      <trkpt lat="42.490914000" lon="-2.609521000">
        <ele>425.30</ele>
        <time>2017-02-11T08:04:16Z</time>
      </trkpt>
      <trkpt lat="42.490911000" lon="-2.609514000">
        <ele>425.30</ele>
        <time>2017-02-11T08:04:17Z</time>
      </trkpt>
      <trkpt lat="42.490907000" lon="-2.609509000">
        <ele>425.30</ele>
        <time>2017-02-11T08:04:18Z</time>
      </trkpt>
      <trkpt lat="42.490904000" lon="-2.609506000">
        <ele>425.40</ele>
        <time>2017-02-11T08:04:19Z</time>
      </trkpt>
      <trkpt lat="42.490900000" lon="-2.609502000">
        <ele>425.50</ele>
        <time>2017-02-11T08:04:20Z</time>
      </trkpt>
      <trkpt lat="42.490900000" lon="-2.609503000">
        <ele>425.40</ele>
        <time>2017-02-11T08:04:21Z</time>
      </trkpt>
      <trkpt lat="42.490900000" lon="-2.609502000">
        <ele>425.30</ele>
        <time>2017-02-11T08:04:22Z</time>
      </trkpt>
      <trkpt lat="42.490905000" lon="-2.609505000">
        <ele>425.30</ele>
        <time>2017-02-11T08:04:23Z</time>
      </trkpt>
      <trkpt lat="42.490910000" lon="-2.609511000">
        <ele>425.20</ele>
        <time>2017-02-11T08:04:24Z</time>
      </trkpt>
      <trkpt lat="42.490913000" lon="-2.609517000">
        <ele>425.20</ele>
        <time>2017-02-11T08:04:25Z</time>
      </trkpt>
      <trkpt lat="42.490916000" lon="-2.609520000">
        <ele>425.20</ele>
        <time>2017-02-11T08:04:26Z</time>
      </trkpt>
      <trkpt lat="42.490917000" lon="-2.609525000">
        <ele>425.20</ele>
        <time>2017-02-11T08:04:27Z</time>
      </trkpt>
      <trkpt lat="42.490916000" lon="-2.609534000">
        <ele>425.40</ele>
        <time>2017-02-11T08:04:29Z</time>
      </trkpt>
      <trkpt lat="42.490913000" lon="-2.609535000">
        <ele>425.40</ele>
        <time>2017-02-11T08:04:30Z</time>
      </trkpt>
      <trkpt lat="42.490912000" lon="-2.609536000">
        <ele>425.40</ele>
        <time>2017-02-11T08:04:31Z</time>
      </trkpt>
      <trkpt lat="42.490912000" lon="-2.609538000">
        <ele>425.50</ele>
        <time>2017-02-11T08:04:32Z</time>
      </trkpt>
      <trkpt lat="42.490914000" lon="-2.609540000">
        <ele>425.40</ele>
        <time>2017-02-11T08:04:33Z</time>
      </trkpt>
      <trkpt lat="42.490915000" lon="-2.609542000">
        <ele>425.30</ele>
        <time>2017-02-11T08:04:34Z</time>
      </trkpt>
      <trkpt lat="42.490918000" lon="-2.609544000">
        <ele>425.20</ele>
        <time>2017-02-11T08:04:35Z</time>
      </trkpt>
      <trkpt lat="42.490922000" lon="-2.609545000">
        <ele>425.10</ele>
        <time>2017-02-11T08:04:36Z</time>
      </trkpt>
      <trkpt lat="42.490927000" lon="-2.609550000">
        <ele>425.00</ele>
        <time>2017-02-11T08:04:37Z</time>
      </trkpt>
      <trkpt lat="42.490933000" lon="-2.609553000">
        <ele>424.90</ele>
        <time>2017-02-11T08:04:38Z</time>
      </trkpt>
      <trkpt lat="42.490936000" lon="-2.609558000">
        <ele>424.80</ele>
        <time>2017-02-11T08:04:39Z</time>
      </trkpt>
      <trkpt lat="42.490933000" lon="-2.609560000">
        <ele>424.80</ele>
        <time>2017-02-11T08:04:40Z</time>
      </trkpt>
      <trkpt lat="42.490928000" lon="-2.609560000">
        <ele>424.90</ele>
        <time>2017-02-11T08:04:41Z</time>
      </trkpt>
      <trkpt lat="42.490921000" lon="-2.609559000">
        <ele>425.00</ele>
        <time>2017-02-11T08:04:42Z</time>
      </trkpt>
      <trkpt lat="42.490918000" lon="-2.609559000">
        <ele>425.10</ele>
        <time>2017-02-11T08:04:43Z</time>
      </trkpt>
      <trkpt lat="42.490915000" lon="-2.609559000">
        <ele>425.10</ele>
        <time>2017-02-11T08:04:44Z</time>
      </trkpt>
      <trkpt lat="42.490915000" lon="-2.609561000">
        <ele>425.20</ele>
        <time>2017-02-11T08:04:45Z</time>
      </trkpt>
      <trkpt lat="42.490915000" lon="-2.609562000">
        <ele>425.30</ele>
        <time>2017-02-11T08:04:46Z</time>
      </trkpt>
      <trkpt lat="42.490912000" lon="-2.609556000">
        <ele>425.30</ele>
        <time>2017-02-11T08:04:47Z</time>
      </trkpt>
      <trkpt lat="42.490912000" lon="-2.609550000">
        <ele>425.40</ele>
        <time>2017-02-11T08:04:48Z</time>
      </trkpt>
      <trkpt lat="42.490909000" lon="-2.609543000">
        <ele>425.40</ele>
        <time>2017-02-11T08:04:49Z</time>
      </trkpt>
      <trkpt lat="42.490904000" lon="-2.609541000">
        <ele>425.40</ele>
        <time>2017-02-11T08:04:50Z</time>
      </trkpt>
      <trkpt lat="42.490900000" lon="-2.609541000">
        <ele>425.40</ele>
        <time>2017-02-11T08:04:51Z</time>
      </trkpt>
      <trkpt lat="42.490894000" lon="-2.609538000">
        <ele>425.30</ele>
        <time>2017-02-11T08:04:52Z</time>
      </trkpt>
      <trkpt lat="42.490887000" lon="-2.609535000">
        <ele>425.20</ele>
        <time>2017-02-11T08:04:53Z</time>
      </trkpt>
      <trkpt lat="42.490884000" lon="-2.609532000">
        <ele>425.10</ele>
        <time>2017-02-11T08:04:54Z</time>
      </trkpt>
      <trkpt lat="42.490883000" lon="-2.609533000">
        <ele>425.10</ele>
        <time>2017-02-11T08:04:55Z</time>
      </trkpt>
      <trkpt lat="42.490885000" lon="-2.609537000">
        <ele>425.00</ele>
        <time>2017-02-11T08:04:56Z</time>
      </trkpt>
      <trkpt lat="42.490892000" lon="-2.609544000">
        <ele>425.00</ele>
        <time>2017-02-11T08:04:57Z</time>
      </trkpt>
      <trkpt lat="42.490898000" lon="-2.609552000">
        <ele>425.00</ele>
        <time>2017-02-11T08:04:58Z</time>
      </trkpt>
      <trkpt lat="42.490900000" lon="-2.609552000">
        <ele>425.10</ele>
        <time>2017-02-11T08:04:59Z</time>
      </trkpt>
      <trkpt lat="42.490902000" lon="-2.609552000">
        <ele>425.10</ele>
        <time>2017-02-11T08:05:00Z</time>
      </trkpt>
      <trkpt lat="42.490903000" lon="-2.609546000">
        <ele>425.10</ele>
        <time>2017-02-11T08:05:01Z</time>
      </trkpt>
      <trkpt lat="42.490901000" lon="-2.609541000">
        <ele>425.10</ele>
        <time>2017-02-11T08:05:02Z</time>
      </trkpt>
      <trkpt lat="42.490899000" lon="-2.609537000">
        <ele>425.20</ele>
        <time>2017-02-11T08:05:03Z</time>
      </trkpt>
      <trkpt lat="42.490895000" lon="-2.609534000">
        <ele>425.20</ele>
        <time>2017-02-11T08:05:04Z</time>
      </trkpt>
      <trkpt lat="42.490892000" lon="-2.609532000">
        <ele>425.20</ele>
        <time>2017-02-11T08:05:05Z</time>
      </trkpt>
      <trkpt lat="42.490892000" lon="-2.609533000">
        <ele>425.20</ele>
        <time>2017-02-11T08:05:06Z</time>
      </trkpt>
      <trkpt lat="42.490895000" lon="-2.609536000">
        <ele>425.10</ele>
        <time>2017-02-11T08:05:07Z</time>
      </trkpt>
      <trkpt lat="42.490899000" lon="-2.609538000">
        <ele>425.10</ele>
        <time>2017-02-11T08:05:08Z</time>
      </trkpt>
      <trkpt lat="42.490906000" lon="-2.609542000">
        <ele>425.00</ele>
        <time>2017-02-11T08:05:09Z</time>
      </trkpt>
      <trkpt lat="42.490912000" lon="-2.609548000">
        <ele>425.00</ele>
        <time>2017-02-11T08:05:10Z</time>
      </trkpt>
      <trkpt lat="42.490917000" lon="-2.609549000">
        <ele>425.00</ele>
        <time>2017-02-11T08:05:11Z</time>
      </trkpt>
      <trkpt lat="42.490919000" lon="-2.609549000">
        <ele>425.00</ele>
        <time>2017-02-11T08:05:12Z</time>
      </trkpt>
      <trkpt lat="42.490918000" lon="-2.609553000">
        <ele>425.00</ele>
        <time>2017-02-11T08:05:13Z</time>
      </trkpt>
      <trkpt lat="42.490916000" lon="-2.609558000">
        <ele>425.00</ele>
        <time>2017-02-11T08:05:14Z</time>
      </trkpt>
      <trkpt lat="42.490910000" lon="-2.609560000">
        <ele>425.00</ele>
        <time>2017-02-11T08:05:15Z</time>
      </trkpt>
      <trkpt lat="42.490904000" lon="-2.609559000">
        <ele>425.00</ele>
        <time>2017-02-11T08:05:16Z</time>
      </trkpt>
      <trkpt lat="42.490901000" lon="-2.609558000">
        <ele>425.00</ele>
        <time>2017-02-11T08:05:17Z</time>
      </trkpt>
      <trkpt lat="42.490901000" lon="-2.609557000">
        <ele>425.00</ele>
        <time>2017-02-11T08:05:18Z</time>
      </trkpt>
      <trkpt lat="42.490902000" lon="-2.609556000">
        <ele>425.00</ele>
        <time>2017-02-11T08:05:19Z</time>
      </trkpt>
      <trkpt lat="42.490908000" lon="-2.609557000">
        <ele>425.00</ele>
        <time>2017-02-11T08:05:20Z</time>
      </trkpt>
      <trkpt lat="42.490914000" lon="-2.609560000">
        <ele>425.00</ele>
        <time>2017-02-11T08:05:21Z</time>
      </trkpt>
      <trkpt lat="42.490919000" lon="-2.609560000">
        <ele>424.90</ele>
        <time>2017-02-11T08:05:22Z</time>
      </trkpt>
      <trkpt lat="42.490921000" lon="-2.609558000">
        <ele>424.90</ele>
        <time>2017-02-11T08:05:23Z</time>
      </trkpt>
      <trkpt lat="42.490922000" lon="-2.609559000">
        <ele>424.90</ele>
        <time>2017-02-11T08:05:24Z</time>
      </trkpt>
      <trkpt lat="42.490920000" lon="-2.609562000">
        <ele>424.90</ele>
        <time>2017-02-11T08:05:25Z</time>
      </trkpt>
      <trkpt lat="42.490915000" lon="-2.609562000">
        <ele>424.90</ele>
        <time>2017-02-11T08:05:26Z</time>
      </trkpt>
      <trkpt lat="42.490910000" lon="-2.609561000">
        <ele>424.90</ele>
        <time>2017-02-11T08:05:27Z</time>
      </trkpt>
      <trkpt lat="42.490906000" lon="-2.609558000">
        <ele>424.90</ele>
        <time>2017-02-11T08:05:28Z</time>
      </trkpt>
      <trkpt lat="42.490902000" lon="-2.609553000">
        <ele>424.90</ele>
        <time>2017-02-11T08:05:30Z</time>
      </trkpt>
      <trkpt lat="42.490904000" lon="-2.609552000">
        <ele>424.90</ele>
        <time>2017-02-11T08:05:31Z</time>
      </trkpt>
      <trkpt lat="42.490906000" lon="-2.609551000">
        <ele>424.90</ele>
        <time>2017-02-11T08:05:32Z</time>
      </trkpt>
      <trkpt lat="42.490909000" lon="-2.609553000">
        <ele>424.80</ele>
        <time>2017-02-11T08:05:33Z</time>
      </trkpt>
      <trkpt lat="42.490909000" lon="-2.609549000">
        <ele>424.80</ele>
        <time>2017-02-11T08:05:34Z</time>
      </trkpt>
      <trkpt lat="42.490909000" lon="-2.609549000">
        <ele>424.80</ele>
        <time>2017-02-11T08:05:35Z</time>
      </trkpt>
      <trkpt lat="42.490905000" lon="-2.609545000">
        <ele>424.70</ele>
        <time>2017-02-11T08:05:36Z</time>
      </trkpt>
      <trkpt lat="42.490898000" lon="-2.609541000">
        <ele>424.80</ele>
        <time>2017-02-11T08:05:37Z</time>
      </trkpt>
      <trkpt lat="42.490891000" lon="-2.609541000">
        <ele>424.80</ele>
        <time>2017-02-11T08:05:38Z</time>
      </trkpt>
      <trkpt lat="42.490883000" lon="-2.609544000">
        <ele>424.80</ele>
        <time>2017-02-11T08:05:39Z</time>
      </trkpt>
      <trkpt lat="42.490881000" lon="-2.609544000">
        <ele>424.90</ele>
        <time>2017-02-11T08:05:40Z</time>
      </trkpt>
      <trkpt lat="42.490882000" lon="-2.609542000">
        <ele>424.70</ele>
        <time>2017-02-11T08:05:41Z</time>
      </trkpt>
      <trkpt lat="42.490885000" lon="-2.609538000">
        <ele>424.60</ele>
        <time>2017-02-11T08:05:42Z</time>
      </trkpt>
      <trkpt lat="42.490893000" lon="-2.609539000">
        <ele>424.60</ele>
        <time>2017-02-11T08:05:43Z</time>
      </trkpt>
      <trkpt lat="42.490901000" lon="-2.609545000">
        <ele>424.50</ele>
        <time>2017-02-11T08:05:44Z</time>
      </trkpt>
      <trkpt lat="42.490909000" lon="-2.609554000">
        <ele>424.70</ele>
        <time>2017-02-11T08:05:45Z</time>
      </trkpt>
      <trkpt lat="42.490910000" lon="-2.609557000">
        <ele>424.80</ele>
        <time>2017-02-11T08:05:46Z</time>
      </trkpt>
      <trkpt lat="42.490909000" lon="-2.609553000">
        <ele>425.00</ele>
        <time>2017-02-11T08:05:47Z</time>
      </trkpt>
      <trkpt lat="42.490903000" lon="-2.609550000">
        <ele>425.10</ele>
        <time>2017-02-11T08:05:48Z</time>
      </trkpt>
      <trkpt lat="42.490898000" lon="-2.609547000">
        <ele>425.20</ele>
        <time>2017-02-11T08:05:49Z</time>
      </trkpt>
      <trkpt lat="42.490894000" lon="-2.609543000">
        <ele>425.20</ele>
        <time>2017-02-11T08:05:50Z</time>
      </trkpt>
      <trkpt lat="42.490892000" lon="-2.609539000">
        <ele>425.30</ele>
        <time>2017-02-11T08:05:51Z</time>
      </trkpt>
      <trkpt lat="42.490895000" lon="-2.609538000">
        <ele>425.40</ele>
        <time>2017-02-11T08:05:52Z</time>
      </trkpt>
      <trkpt lat="42.490898000" lon="-2.609543000">
        <ele>425.40</ele>
        <time>2017-02-11T08:05:53Z</time>
      </trkpt>
      <trkpt lat="42.490902000" lon="-2.609546000">
        <ele>425.40</ele>
        <time>2017-02-11T08:05:54Z</time>
      </trkpt>
      <trkpt lat="42.490906000" lon="-2.609549000">
        <ele>425.40</ele>
        <time>2017-02-11T08:05:55Z</time>
      </trkpt>
      <trkpt lat="42.490912000" lon="-2.609546000">
        <ele>425.40</ele>
        <time>2017-02-11T08:05:56Z</time>
      </trkpt>
      <trkpt lat="42.490915000" lon="-2.609539000">
        <ele>425.40</ele>
        <time>2017-02-11T08:05:57Z</time>
      </trkpt>
      <trkpt lat="42.490912000" lon="-2.609535000">
        <ele>425.40</ele>
        <time>2017-02-11T08:05:58Z</time>
      </trkpt>
      <trkpt lat="42.490907000" lon="-2.609529000">
        <ele>425.30</ele>
        <time>2017-02-11T08:05:59Z</time>
      </trkpt>
      <trkpt lat="42.490901000" lon="-2.609525000">
        <ele>425.20</ele>
        <time>2017-02-11T08:06:00Z</time>
      </trkpt>
      <trkpt lat="42.490897000" lon="-2.609523000">
        <ele>425.20</ele>
        <time>2017-02-11T08:06:01Z</time>
      </trkpt>
      <trkpt lat="42.490897000" lon="-2.609520000">
        <ele>425.10</ele>
        <time>2017-02-11T08:06:02Z</time>
      </trkpt>
      <trkpt lat="42.490900000" lon="-2.609519000">
        <ele>425.10</ele>
        <time>2017-02-11T08:06:03Z</time>
      </trkpt>
      <trkpt lat="42.490906000" lon="-2.609523000">
        <ele>425.10</ele>
        <time>2017-02-11T08:06:04Z</time>
      </trkpt>
      <trkpt lat="42.490911000" lon="-2.609530000">
        <ele>425.10</ele>
        <time>2017-02-11T08:06:05Z</time>
      </trkpt>
      <trkpt lat="42.490916000" lon="-2.609535000">
        <ele>425.10</ele>
        <time>2017-02-11T08:06:06Z</time>
      </trkpt>
      <trkpt lat="42.490917000" lon="-2.609541000">
        <ele>425.10</ele>
        <time>2017-02-11T08:06:07Z</time>
      </trkpt>
      <trkpt lat="42.490916000" lon="-2.609538000">
        <ele>425.10</ele>
        <time>2017-02-11T08:06:08Z</time>
      </trkpt>
      <trkpt lat="42.490911000" lon="-2.609538000">
        <ele>425.10</ele>
        <time>2017-02-11T08:06:09Z</time>
      </trkpt>
      <trkpt lat="42.490905000" lon="-2.609535000">
        <ele>425.10</ele>
        <time>2017-02-11T08:06:10Z</time>
      </trkpt>
      <trkpt lat="42.490897000" lon="-2.609526000">
        <ele>425.20</ele>
        <time>2017-02-11T08:06:11Z</time>
      </trkpt>
      <trkpt lat="42.490890000" lon="-2.609517000">
        <ele>425.20</ele>
        <time>2017-02-11T08:06:12Z</time>
      </trkpt>
      <trkpt lat="42.490886000" lon="-2.609510000">
        <ele>425.10</ele>
        <time>2017-02-11T08:06:13Z</time>
      </trkpt>
      <trkpt lat="42.490890000" lon="-2.609511000">
        <ele>425.10</ele>
        <time>2017-02-11T08:06:14Z</time>
      </trkpt>
      <trkpt lat="42.490896000" lon="-2.609516000">
        <ele>425.10</ele>
        <time>2017-02-11T08:06:15Z</time>
      </trkpt>
      <trkpt lat="42.490903000" lon="-2.609516000">
        <ele>425.10</ele>
        <time>2017-02-11T08:06:16Z</time>
      </trkpt>
      <trkpt lat="42.490908000" lon="-2.609516000">
        <ele>425.20</ele>
        <time>2017-02-11T08:06:17Z</time>
      </trkpt>
      <trkpt lat="42.490912000" lon="-2.609517000">
        <ele>425.30</ele>
        <time>2017-02-11T08:06:18Z</time>
      </trkpt>
      <trkpt lat="42.490914000" lon="-2.609522000">
        <ele>425.30</ele>
        <time>2017-02-11T08:06:19Z</time>
      </trkpt>
      <trkpt lat="42.490912000" lon="-2.609522000">
        <ele>425.30</ele>
        <time>2017-02-11T08:06:20Z</time>
      </trkpt>
      <trkpt lat="42.490909000" lon="-2.609524000">
        <ele>425.40</ele>
        <time>2017-02-11T08:06:21Z</time>
      </trkpt>
      <trkpt lat="42.490902000" lon="-2.609528000">
        <ele>425.40</ele>
        <time>2017-02-11T08:06:22Z</time>
      </trkpt>
      <trkpt lat="42.490897000" lon="-2.609533000">
        <ele>425.40</ele>
        <time>2017-02-11T08:06:23Z</time>
      </trkpt>
      <trkpt lat="42.490896000" lon="-2.609541000">
        <ele>425.40</ele>
        <time>2017-02-11T08:06:24Z</time>
      </trkpt>
      <trkpt lat="42.490897000" lon="-2.609550000">
        <ele>425.30</ele>
        <time>2017-02-11T08:06:25Z</time>
      </trkpt>
      <trkpt lat="42.490900000" lon="-2.609552000">
        <ele>425.30</ele>
        <time>2017-02-11T08:06:26Z</time>
      </trkpt>
      <trkpt lat="42.490900000" lon="-2.609550000">
        <ele>425.30</ele>
        <time>2017-02-11T08:06:27Z</time>
      </trkpt>
      <trkpt lat="42.490901000" lon="-2.609549000">
        <ele>425.20</ele>
        <time>2017-02-11T08:06:28Z</time>
      </trkpt>
      <trkpt lat="42.490902000" lon="-2.609547000">
        <ele>425.20</ele>
        <time>2017-02-11T08:06:29Z</time>
      </trkpt>
      <trkpt lat="42.490905000" lon="-2.609548000">
        <ele>425.30</ele>
        <time>2017-02-11T08:06:31Z</time>
      </trkpt>
      <trkpt lat="42.490906000" lon="-2.609548000">
        <ele>425.40</ele>
        <time>2017-02-11T08:06:32Z</time>
      </trkpt>
      <trkpt lat="42.490906000" lon="-2.609547000">
        <ele>425.50</ele>
        <time>2017-02-11T08:06:33Z</time>
      </trkpt>
      <trkpt lat="42.490905000" lon="-2.609549000">
        <ele>425.50</ele>
        <time>2017-02-11T08:06:34Z</time>
      </trkpt>
      <trkpt lat="42.490904000" lon="-2.609549000">
        <ele>425.60</ele>
        <time>2017-02-11T08:06:35Z</time>
      </trkpt>
      <trkpt lat="42.490903000" lon="-2.609549000">
        <ele>425.60</ele>
        <time>2017-02-11T08:06:36Z</time>
      </trkpt>
      <trkpt lat="42.490901000" lon="-2.609546000">
        <ele>425.50</ele>
        <time>2017-02-11T08:06:37Z</time>
      </trkpt>
      <trkpt lat="42.490897000" lon="-2.609539000">
        <ele>425.40</ele>
        <time>2017-02-11T08:06:38Z</time>
      </trkpt>
      <trkpt lat="42.490897000" lon="-2.609529000">
        <ele>425.40</ele>
        <time>2017-02-11T08:06:39Z</time>
      </trkpt>
      <trkpt lat="42.490898000" lon="-2.609532000">
        <ele>425.40</ele>
        <time>2017-02-11T08:06:40Z</time>
      </trkpt>
      <trkpt lat="42.490898000" lon="-2.609531000">
        <ele>425.40</ele>
        <time>2017-02-11T08:06:41Z</time>
      </trkpt>
      <trkpt lat="42.490897000" lon="-2.609530000">
        <ele>425.40</ele>
        <time>2017-02-11T08:06:42Z</time>
      </trkpt>
      <trkpt lat="42.490898000" lon="-2.609532000">
        <ele>425.60</ele>
        <time>2017-02-11T08:06:43Z</time>
      </trkpt>
      <trkpt lat="42.490896000" lon="-2.609537000">
        <ele>425.80</ele>
        <time>2017-02-11T08:06:44Z</time>
      </trkpt>
      <trkpt lat="42.490894000" lon="-2.609543000">
        <ele>425.90</ele>
        <time>2017-02-11T08:06:45Z</time>
      </trkpt>
      <trkpt lat="42.490889000" lon="-2.609546000">
        <ele>426.00</ele>
        <time>2017-02-11T08:06:46Z</time>
      </trkpt>
      <trkpt lat="42.490892000" lon="-2.609551000">
        <ele>425.80</ele>
        <time>2017-02-11T08:06:47Z</time>
      </trkpt>
      <trkpt lat="42.490895000" lon="-2.609553000">
        <ele>425.60</ele>
        <time>2017-02-11T08:06:48Z</time>
      </trkpt>
      <trkpt lat="42.490901000" lon="-2.609554000">
        <ele>425.50</ele>
        <time>2017-02-11T08:06:49Z</time>
      </trkpt>
      <trkpt lat="42.490907000" lon="-2.609554000">
        <ele>425.40</ele>
        <time>2017-02-11T08:06:50Z</time>
      </trkpt>
      <trkpt lat="42.490917000" lon="-2.609554000">
        <ele>425.40</ele>
        <time>2017-02-11T08:06:51Z</time>
      </trkpt>
      <trkpt lat="42.490924000" lon="-2.609558000">
        <ele>425.30</ele>
        <time>2017-02-11T08:06:52Z</time>
      </trkpt>
      <trkpt lat="42.490930000" lon="-2.609563000">
        <ele>425.30</ele>
        <time>2017-02-11T08:06:53Z</time>
      </trkpt>
      <trkpt lat="42.490935000" lon="-2.609567000">
        <ele>425.30</ele>
        <time>2017-02-11T08:06:54Z</time>
      </trkpt>
      <trkpt lat="42.490935000" lon="-2.609571000">
        <ele>425.30</ele>
        <time>2017-02-11T08:06:55Z</time>
      </trkpt>
      <trkpt lat="42.490928000" lon="-2.609571000">
        <ele>425.30</ele>
        <time>2017-02-11T08:06:56Z</time>
      </trkpt>
      <trkpt lat="42.490923000" lon="-2.609573000">
        <ele>425.30</ele>
        <time>2017-02-11T08:06:57Z</time>
      </trkpt>
      <trkpt lat="42.490917000" lon="-2.609574000">
        <ele>425.30</ele>
        <time>2017-02-11T08:06:58Z</time>
      </trkpt>
      <trkpt lat="42.490914000" lon="-2.609574000">
        <ele>425.30</ele>
        <time>2017-02-11T08:06:59Z</time>
      </trkpt>
      <trkpt lat="42.490915000" lon="-2.609570000">
        <ele>425.30</ele>
        <time>2017-02-11T08:07:00Z</time>
      </trkpt>
      <trkpt lat="42.490920000" lon="-2.609564000">
        <ele>425.30</ele>
        <time>2017-02-11T08:07:01Z</time>
      </trkpt>
      <trkpt lat="42.490923000" lon="-2.609558000">
        <ele>425.30</ele>
        <time>2017-02-11T08:07:02Z</time>
      </trkpt>
      <trkpt lat="42.490930000" lon="-2.609556000">
        <ele>425.30</ele>
        <time>2017-02-11T08:07:03Z</time>
      </trkpt>
      <trkpt lat="42.490933000" lon="-2.609552000">
        <ele>425.40</ele>
        <time>2017-02-11T08:07:04Z</time>
      </trkpt>
      <trkpt lat="42.490931000" lon="-2.609548000">
        <ele>425.40</ele>
        <time>2017-02-11T08:07:05Z</time>
      </trkpt>
      <trkpt lat="42.490929000" lon="-2.609547000">
        <ele>425.40</ele>
        <time>2017-02-11T08:07:06Z</time>
      </trkpt>
      <trkpt lat="42.490926000" lon="-2.609546000">
        <ele>425.50</ele>
        <time>2017-02-11T08:07:07Z</time>
      </trkpt>
      <trkpt lat="42.490924000" lon="-2.609548000">
        <ele>425.60</ele>
        <time>2017-02-11T08:07:08Z</time>
      </trkpt>
      <trkpt lat="42.490926000" lon="-2.609550000">
        <ele>425.60</ele>
        <time>2017-02-11T08:07:09Z</time>
      </trkpt>
      <trkpt lat="42.490929000" lon="-2.609555000">
        <ele>425.60</ele>
        <time>2017-02-11T08:07:10Z</time>
      </trkpt>
      <trkpt lat="42.490931000" lon="-2.609560000">
        <ele>425.50</ele>
        <time>2017-02-11T08:07:11Z</time>
      </trkpt>
      <trkpt lat="42.490935000" lon="-2.609563000">
        <ele>425.50</ele>
        <time>2017-02-11T08:07:12Z</time>
      </trkpt>
      <trkpt lat="42.490936000" lon="-2.609564000">
        <ele>425.50</ele>
        <time>2017-02-11T08:07:13Z</time>
      </trkpt>
      <trkpt lat="42.490936000" lon="-2.609562000">
        <ele>425.50</ele>
        <time>2017-02-11T08:07:14Z</time>
      </trkpt>
      <trkpt lat="42.490936000" lon="-2.609563000">
        <ele>425.70</ele>
        <time>2017-02-11T08:07:15Z</time>
      </trkpt>
      <trkpt lat="42.490934000" lon="-2.609561000">
        <ele>425.70</ele>
        <time>2017-02-11T08:07:16Z</time>
      </trkpt>
      <trkpt lat="42.490933000" lon="-2.609562000">
        <ele>425.80</ele>
        <time>2017-02-11T08:07:17Z</time>
      </trkpt>
      <trkpt lat="42.490931000" lon="-2.609562000">
        <ele>425.90</ele>
        <time>2017-02-11T08:07:18Z</time>
      </trkpt>
      <trkpt lat="42.490928000" lon="-2.609561000">
        <ele>425.90</ele>
        <time>2017-02-11T08:07:19Z</time>
      </trkpt>
      <trkpt lat="42.490927000" lon="-2.609559000">
        <ele>425.90</ele>
        <time>2017-02-11T08:07:20Z</time>
      </trkpt>
      <trkpt lat="42.490927000" lon="-2.609558000">
        <ele>426.00</ele>
        <time>2017-02-11T08:07:21Z</time>
      </trkpt>
      <trkpt lat="42.490927000" lon="-2.609559000">
        <ele>426.00</ele>
        <time>2017-02-11T08:07:22Z</time>
      </trkpt>
      <trkpt lat="42.490929000" lon="-2.609563000">
        <ele>425.90</ele>
        <time>2017-02-11T08:07:23Z</time>
      </trkpt>
      <trkpt lat="42.490932000" lon="-2.609568000">
        <ele>425.80</ele>
        <time>2017-02-11T08:07:24Z</time>
      </trkpt>
      <trkpt lat="42.490932000" lon="-2.609570000">
        <ele>425.70</ele>
        <time>2017-02-11T08:07:25Z</time>
      </trkpt>
      <trkpt lat="42.490932000" lon="-2.609573000">
        <ele>425.70</ele>
        <time>2017-02-11T08:07:26Z</time>
      </trkpt>
      <trkpt lat="42.490932000" lon="-2.609573000">
        <ele>425.50</ele>
        <time>2017-02-11T08:07:27Z</time>
      </trkpt>
      <trkpt lat="42.490932000" lon="-2.609575000">
        <ele>425.40</ele>
        <time>2017-02-11T08:07:28Z</time>
      </trkpt>
      <trkpt lat="42.490931000" lon="-2.609576000">
        <ele>425.30</ele>
        <time>2017-02-11T08:07:29Z</time>
      </trkpt>
      <trkpt lat="42.490931000" lon="-2.609579000">
        <ele>425.30</ele>
        <time>2017-02-11T08:07:30Z</time>
      </trkpt>
      <trkpt lat="42.490929000" lon="-2.609578000">
        <ele>425.30</ele>
        <time>2017-02-11T08:07:32Z</time>
      </trkpt>
      <trkpt lat="42.490931000" lon="-2.609584000">
        <ele>425.30</ele>
        <time>2017-02-11T08:07:33Z</time>
      </trkpt>
      <trkpt lat="42.490931000" lon="-2.609590000">
        <ele>425.30</ele>
        <time>2017-02-11T08:07:34Z</time>
      </trkpt>
      <trkpt lat="42.490931000" lon="-2.609596000">
        <ele>425.30</ele>
        <time>2017-02-11T08:07:35Z</time>
      </trkpt>
      <trkpt lat="42.490929000" lon="-2.609601000">
        <ele>425.30</ele>
        <time>2017-02-11T08:07:36Z</time>
      </trkpt>
      <trkpt lat="42.490927000" lon="-2.609603000">
        <ele>425.30</ele>
        <time>2017-02-11T08:07:37Z</time>
      </trkpt>
      <trkpt lat="42.490922000" lon="-2.609605000">
        <ele>425.40</ele>
        <time>2017-02-11T08:07:38Z</time>
      </trkpt>
      <trkpt lat="42.490920000" lon="-2.609605000">
        <ele>425.40</ele>
        <time>2017-02-11T08:07:39Z</time>
      </trkpt>
      <trkpt lat="42.490918000" lon="-2.609606000">
        <ele>425.40</ele>
        <time>2017-02-11T08:07:40Z</time>
      </trkpt>
      <trkpt lat="42.490918000" lon="-2.609605000">
        <ele>425.40</ele>
        <time>2017-02-11T08:07:41Z</time>
      </trkpt>
      <trkpt lat="42.490917000" lon="-2.609604000">
        <ele>425.40</ele>
        <time>2017-02-11T08:07:42Z</time>
      </trkpt>
      <trkpt lat="42.490916000" lon="-2.609602000">
        <ele>425.30</ele>
        <time>2017-02-11T08:07:43Z</time>
      </trkpt>
      <trkpt lat="42.490917000" lon="-2.609601000">
        <ele>425.20</ele>
        <time>2017-02-11T08:07:44Z</time>
      </trkpt>
      <trkpt lat="42.490918000" lon="-2.609601000">
        <ele>425.20</ele>
        <time>2017-02-11T08:07:45Z</time>
      </trkpt>
      <trkpt lat="42.490920000" lon="-2.609602000">
        <ele>425.20</ele>
        <time>2017-02-11T08:07:46Z</time>
      </trkpt>
      <trkpt lat="42.490923000" lon="-2.609602000">
        <ele>425.10</ele>
        <time>2017-02-11T08:07:47Z</time>
      </trkpt>
      <trkpt lat="42.490925000" lon="-2.609604000">
        <ele>425.10</ele>
        <time>2017-02-11T08:07:48Z</time>
      </trkpt>
      <trkpt lat="42.490928000" lon="-2.609602000">
        <ele>425.10</ele>
        <time>2017-02-11T08:07:49Z</time>
      </trkpt>
      <trkpt lat="42.490932000" lon="-2.609601000">
        <ele>425.10</ele>
        <time>2017-02-11T08:07:50Z</time>
      </trkpt>
      <trkpt lat="42.490934000" lon="-2.609599000">
        <ele>425.10</ele>
        <time>2017-02-11T08:07:51Z</time>
      </trkpt>
      <trkpt lat="42.490937000" lon="-2.609593000">
        <ele>425.10</ele>
        <time>2017-02-11T08:07:52Z</time>
      </trkpt>
      <trkpt lat="42.490938000" lon="-2.609585000">
        <ele>425.10</ele>
        <time>2017-02-11T08:07:53Z</time>
      </trkpt>
      <trkpt lat="42.490939000" lon="-2.609575000">
        <ele>425.10</ele>
        <time>2017-02-11T08:07:54Z</time>
      </trkpt>
      <trkpt lat="42.490937000" lon="-2.609567000">
        <ele>425.10</ele>
        <time>2017-02-11T08:07:55Z</time>
      </trkpt>
      <trkpt lat="42.490939000" lon="-2.609562000">
        <ele>425.10</ele>
        <time>2017-02-11T08:07:56Z</time>
      </trkpt>
      <trkpt lat="42.490940000" lon="-2.609558000">
        <ele>425.10</ele>
        <time>2017-02-11T08:07:57Z</time>
      </trkpt>
      <trkpt lat="42.490941000" lon="-2.609555000">
        <ele>425.10</ele>
        <time>2017-02-11T08:07:58Z</time>
      </trkpt>
      <trkpt lat="42.490941000" lon="-2.609550000">
        <ele>425.10</ele>
        <time>2017-02-11T08:07:59Z</time>
      </trkpt>
      <trkpt lat="42.490939000" lon="-2.609543000">
        <ele>425.10</ele>
        <time>2017-02-11T08:08:00Z</time>
      </trkpt>
      <trkpt lat="42.490936000" lon="-2.609539000">
        <ele>425.10</ele>
        <time>2017-02-11T08:08:01Z</time>
      </trkpt>
      <trkpt lat="42.490934000" lon="-2.609533000">
        <ele>425.10</ele>
        <time>2017-02-11T08:08:02Z</time>
      </trkpt>
      <trkpt lat="42.490929000" lon="-2.609529000">
        <ele>425.10</ele>
        <time>2017-02-11T08:08:03Z</time>
      </trkpt>
      <trkpt lat="42.490925000" lon="-2.609527000">
        <ele>425.10</ele>
        <time>2017-02-11T08:08:04Z</time>
      </trkpt>
      <trkpt lat="42.490922000" lon="-2.609524000">
        <ele>425.00</ele>
        <time>2017-02-11T08:08:05Z</time>
      </trkpt>
      <trkpt lat="42.490917000" lon="-2.609521000">
        <ele>424.90</ele>
        <time>2017-02-11T08:08:06Z</time>
      </trkpt>
      <trkpt lat="42.490916000" lon="-2.609521000">
        <ele>424.90</ele>
        <time>2017-02-11T08:08:07Z</time>
      </trkpt>
      <trkpt lat="42.490921000" lon="-2.609526000">
        <ele>425.00</ele>
        <time>2017-02-11T08:08:08Z</time>
      </trkpt>
      <trkpt lat="42.490924000" lon="-2.609528000">
        <ele>425.00</ele>
        <time>2017-02-11T08:08:09Z</time>
      </trkpt>
      <trkpt lat="42.490924000" lon="-2.609533000">
        <ele>425.00</ele>
        <time>2017-02-11T08:08:10Z</time>
      </trkpt>
      <trkpt lat="42.490925000" lon="-2.609534000">
        <ele>425.10</ele>
        <time>2017-02-11T08:08:11Z</time>
      </trkpt>
      <trkpt lat="42.490923000" lon="-2.609534000">
        <ele>425.20</ele>
        <time>2017-02-11T08:08:12Z</time>
      </trkpt>
      <trkpt lat="42.490920000" lon="-2.609535000">
        <ele>425.30</ele>
        <time>2017-02-11T08:08:13Z</time>
      </trkpt>
      <trkpt lat="42.490917000" lon="-2.609536000">
        <ele>425.40</ele>
        <time>2017-02-11T08:08:14Z</time>
      </trkpt>
      <trkpt lat="42.490915000" lon="-2.609534000">
        <ele>425.40</ele>
        <time>2017-02-11T08:08:15Z</time>
      </trkpt>
      <trkpt lat="42.490914000" lon="-2.609536000">
        <ele>425.40</ele>
        <time>2017-02-11T08:08:16Z</time>
      </trkpt>
      <trkpt lat="42.490916000" lon="-2.609540000">
        <ele>425.30</ele>
        <time>2017-02-11T08:08:17Z</time>
      </trkpt>
      <trkpt lat="42.490917000" lon="-2.609547000">
        <ele>425.30</ele>
        <time>2017-02-11T08:08:18Z</time>
      </trkpt>
      <trkpt lat="42.490919000" lon="-2.609552000">
        <ele>425.30</ele>
        <time>2017-02-11T08:08:19Z</time>
      </trkpt>
      <trkpt lat="42.490920000" lon="-2.609556000">
        <ele>425.40</ele>
        <time>2017-02-11T08:08:20Z</time>
      </trkpt>
      <trkpt lat="42.490921000" lon="-2.609562000">
        <ele>425.30</ele>
        <time>2017-02-11T08:08:21Z</time>
      </trkpt>
      <trkpt lat="42.490921000" lon="-2.609562000">
        <ele>425.20</ele>
        <time>2017-02-11T08:08:22Z</time>
      </trkpt>
      <trkpt lat="42.490917000" lon="-2.609559000">
        <ele>425.10</ele>
        <time>2017-02-11T08:08:23Z</time>
      </trkpt>
      <trkpt lat="42.490911000" lon="-2.609559000">
        <ele>425.10</ele>
        <time>2017-02-11T08:08:24Z</time>
      </trkpt>
      <trkpt lat="42.490906000" lon="-2.609567000">
        <ele>425.10</ele>
        <time>2017-02-11T08:08:25Z</time>
      </trkpt>
      <trkpt lat="42.490902000" lon="-2.609568000">
        <ele>425.10</ele>
        <time>2017-02-11T08:08:26Z</time>
      </trkpt>
      <trkpt lat="42.490901000" lon="-2.609568000">
        <ele>425.10</ele>
        <time>2017-02-11T08:08:27Z</time>
      </trkpt>
      <trkpt lat="42.490902000" lon="-2.609568000">
        <ele>425.10</ele>
        <time>2017-02-11T08:08:28Z</time>
      </trkpt>
      <trkpt lat="42.490903000" lon="-2.609567000">
        <ele>425.10</ele>
        <time>2017-02-11T08:08:29Z</time>
      </trkpt>
      <trkpt lat="42.490906000" lon="-2.609573000">
        <ele>425.10</ele>
        <time>2017-02-11T08:08:30Z</time>
      </trkpt>
      <trkpt lat="42.490909000" lon="-2.609577000">
        <ele>425.00</ele>
        <time>2017-02-11T08:08:31Z</time>
      </trkpt>
      <trkpt lat="42.490912000" lon="-2.609581000">
        <ele>425.00</ele>
        <time>2017-02-11T08:08:33Z</time>
      </trkpt>
      <trkpt lat="42.490911000" lon="-2.609583000">
        <ele>425.00</ele>
        <time>2017-02-11T08:08:34Z</time>
      </trkpt>
      <trkpt lat="42.490907000" lon="-2.609583000">
        <ele>425.10</ele>
        <time>2017-02-11T08:08:35Z</time>
      </trkpt>
      <trkpt lat="42.490907000" lon="-2.609583000">
        <ele>425.10</ele>
        <time>2017-02-11T08:08:36Z</time>
      </trkpt>
      <trkpt lat="42.490906000" lon="-2.609582000">
        <ele>425.20</ele>
        <time>2017-02-11T08:08:37Z</time>
      </trkpt>
      <trkpt lat="42.490907000" lon="-2.609580000">
        <ele>425.30</ele>
        <time>2017-02-11T08:08:38Z</time>
      </trkpt>
      <trkpt lat="42.490908000" lon="-2.609580000">
        <ele>425.30</ele>
        <time>2017-02-11T08:08:39Z</time>
      </trkpt>
      <trkpt lat="42.490908000" lon="-2.609578000">
        <ele>425.30</ele>
        <time>2017-02-11T08:08:40Z</time>
      </trkpt>
      <trkpt lat="42.490912000" lon="-2.609576000">
        <ele>425.30</ele>
        <time>2017-02-11T08:08:41Z</time>
      </trkpt>
      <trkpt lat="42.490913000" lon="-2.609573000">
        <ele>425.30</ele>
        <time>2017-02-11T08:08:42Z</time>
      </trkpt>
      <trkpt lat="42.490916000" lon="-2.609572000">
        <ele>425.30</ele>
        <time>2017-02-11T08:08:43Z</time>
      </trkpt>
      <trkpt lat="42.490917000" lon="-2.609572000">
        <ele>425.30</ele>
        <time>2017-02-11T08:08:44Z</time>
      </trkpt>
      <trkpt lat="42.490917000" lon="-2.609570000">
        <ele>425.30</ele>
        <time>2017-02-11T08:08:45Z</time>
      </trkpt>
      <trkpt lat="42.490919000" lon="-2.609569000">
        <ele>425.30</ele>
        <time>2017-02-11T08:08:46Z</time>
      </trkpt>
      <trkpt lat="42.490918000" lon="-2.609570000">
        <ele>425.30</ele>
        <time>2017-02-11T08:08:47Z</time>
      </trkpt>
      <trkpt lat="42.490916000" lon="-2.609568000">
        <ele>425.20</ele>
        <time>2017-02-11T08:08:48Z</time>
      </trkpt>
      <trkpt lat="42.490913000" lon="-2.609569000">
        <ele>425.10</ele>
        <time>2017-02-11T08:08:49Z</time>
      </trkpt>
      <trkpt lat="42.490912000" lon="-2.609573000">
        <ele>425.10</ele>
        <time>2017-02-11T08:08:50Z</time>
      </trkpt>
      <trkpt lat="42.490912000" lon="-2.609574000">
        <ele>425.00</ele>
        <time>2017-02-11T08:08:51Z</time>
      </trkpt>
      <trkpt lat="42.490908000" lon="-2.609576000">
        <ele>425.00</ele>
        <time>2017-02-11T08:08:52Z</time>
      </trkpt>
      <trkpt lat="42.490904000" lon="-2.609576000">
        <ele>424.90</ele>
        <time>2017-02-11T08:08:53Z</time>
      </trkpt>
      <trkpt lat="42.490899000" lon="-2.609569000">
        <ele>424.80</ele>
        <time>2017-02-11T08:08:54Z</time>
      </trkpt>
      <trkpt lat="42.490894000" lon="-2.609570000">
        <ele>424.70</ele>
        <time>2017-02-11T08:08:55Z</time>
      </trkpt>
      <trkpt lat="42.490894000" lon="-2.609571000">
        <ele>424.60</ele>
        <time>2017-02-11T08:08:56Z</time>
      </trkpt>
      <trkpt lat="42.490895000" lon="-2.609561000">
        <ele>424.60</ele>
        <time>2017-02-11T08:08:57Z</time>
      </trkpt>
      <trkpt lat="42.490895000" lon="-2.609553000">
        <ele>424.50</ele>
        <time>2017-02-11T08:08:58Z</time>
      </trkpt>
      <trkpt lat="42.490897000" lon="-2.609546000">
        <ele>424.70</ele>
        <time>2017-02-11T08:08:59Z</time>
      </trkpt>
      <trkpt lat="42.490900000" lon="-2.609539000">
        <ele>424.80</ele>
        <time>2017-02-11T08:09:00Z</time>
      </trkpt>
      <trkpt lat="42.490904000" lon="-2.609537000">
        <ele>424.90</ele>
        <time>2017-02-11T08:09:01Z</time>
      </trkpt>
      <trkpt lat="42.490905000" lon="-2.609538000">
        <ele>425.00</ele>
        <time>2017-02-11T08:09:02Z</time>
      </trkpt>
      <trkpt lat="42.490904000" lon="-2.609540000">
        <ele>425.10</ele>
        <time>2017-02-11T08:09:03Z</time>
      </trkpt>
      <trkpt lat="42.490904000" lon="-2.609543000">
        <ele>425.20</ele>
        <time>2017-02-11T08:09:04Z</time>
      </trkpt>
      <trkpt lat="42.490905000" lon="-2.609545000">
        <ele>425.30</ele>
        <time>2017-02-11T08:09:05Z</time>
      </trkpt>
      <trkpt lat="42.490905000" lon="-2.609548000">
        <ele>425.40</ele>
        <time>2017-02-11T08:09:06Z</time>
      </trkpt>
      <trkpt lat="42.490907000" lon="-2.609550000">
        <ele>425.40</ele>
        <time>2017-02-11T08:09:07Z</time>
      </trkpt>
      <trkpt lat="42.490907000" lon="-2.609550000">
        <ele>425.50</ele>
        <time>2017-02-11T08:09:08Z</time>
      </trkpt>
      <trkpt lat="42.490907000" lon="-2.609551000">
        <ele>425.50</ele>
        <time>2017-02-11T08:09:09Z</time>
      </trkpt>
      <trkpt lat="42.490907000" lon="-2.609550000">
        <ele>425.50</ele>
        <time>2017-02-11T08:09:10Z</time>
      </trkpt>
      <trkpt lat="42.490906000" lon="-2.609554000">
        <ele>425.50</ele>
        <time>2017-02-11T08:09:11Z</time>
      </trkpt>
      <trkpt lat="42.490906000" lon="-2.609555000">
        <ele>425.60</ele>
        <time>2017-02-11T08:09:12Z</time>
      </trkpt>
      <trkpt lat="42.490903000" lon="-2.609557000">
        <ele>425.60</ele>
        <time>2017-02-11T08:09:13Z</time>
      </trkpt>
      <trkpt lat="42.490902000" lon="-2.609559000">
        <ele>425.60</ele>
        <time>2017-02-11T08:09:14Z</time>
      </trkpt>
      <trkpt lat="42.490901000" lon="-2.609560000">
        <ele>425.60</ele>
        <time>2017-02-11T08:09:15Z</time>
      </trkpt>
      <trkpt lat="42.490901000" lon="-2.609561000">
        <ele>425.60</ele>
        <time>2017-02-11T08:09:16Z</time>
      </trkpt>
      <trkpt lat="42.490905000" lon="-2.609563000">
        <ele>425.40</ele>
        <time>2017-02-11T08:09:17Z</time>
      </trkpt>
      <trkpt lat="42.490906000" lon="-2.609564000">
        <ele>425.30</ele>
        <time>2017-02-11T08:09:18Z</time>
      </trkpt>
      <trkpt lat="42.490898000" lon="-2.609566000">
        <ele>425.20</ele>
        <time>2017-02-11T08:09:19Z</time>
      </trkpt>
      <trkpt lat="42.490889000" lon="-2.609574000">
        <ele>425.20</ele>
        <time>2017-02-11T08:09:20Z</time>
      </trkpt>
      <trkpt lat="42.490882000" lon="-2.609585000">
        <ele>425.10</ele>
        <time>2017-02-11T08:09:21Z</time>
      </trkpt>
      <trkpt lat="42.490881000" lon="-2.609605000">
        <ele>425.10</ele>
        <time>2017-02-11T08:09:22Z</time>
      </trkpt>
      <trkpt lat="42.490885000" lon="-2.609624000">
        <ele>425.10</ele>
        <time>2017-02-11T08:09:23Z</time>
      </trkpt>
      <trkpt lat="42.490888000" lon="-2.609641000">
        <ele>425.10</ele>
        <time>2017-02-11T08:09:24Z</time>
      </trkpt>
      <trkpt lat="42.490888000" lon="-2.609656000">
        <ele>425.00</ele>
        <time>2017-02-11T08:09:25Z</time>
      </trkpt>
      <trkpt lat="42.490886000" lon="-2.609666000">
        <ele>425.00</ele>
        <time>2017-02-11T08:09:26Z</time>
      </trkpt>
      <trkpt lat="42.490885000" lon="-2.609668000">
        <ele>425.00</ele>
        <time>2017-02-11T08:09:27Z</time>
      </trkpt>
      <trkpt lat="42.490886000" lon="-2.609668000">
        <ele>425.00</ele>
        <time>2017-02-11T08:09:28Z</time>
      </trkpt>
      <trkpt lat="42.490886000" lon="-2.609668000">
        <ele>425.00</ele>
        <time>2017-02-11T08:09:29Z</time>
      </trkpt>
      <trkpt lat="42.490887000" lon="-2.609669000">
        <ele>425.00</ele>
        <time>2017-02-11T08:09:30Z</time>
      </trkpt>
      <trkpt lat="42.490889000" lon="-2.609671000">
        <ele>425.00</ele>
        <time>2017-02-11T08:09:31Z</time>
      </trkpt>
      <trkpt lat="42.490889000" lon="-2.609675000">
        <ele>425.00</ele>
        <time>2017-02-11T08:09:32Z</time>
      </trkpt>
      <trkpt lat="42.490886000" lon="-2.609676000">
        <ele>424.80</ele>
        <time>2017-02-11T08:09:34Z</time>
      </trkpt>
      <trkpt lat="42.490884000" lon="-2.609676000">
        <ele>424.80</ele>
        <time>2017-02-11T08:09:35Z</time>
      </trkpt>
      <trkpt lat="42.490882000" lon="-2.609679000">
        <ele>424.80</ele>
        <time>2017-02-11T08:09:36Z</time>
      </trkpt>
      <trkpt lat="42.490885000" lon="-2.609683000">
        <ele>424.70</ele>
        <time>2017-02-11T08:09:37Z</time>
      </trkpt>
      <trkpt lat="42.490884000" lon="-2.609685000">
        <ele>424.60</ele>
        <time>2017-02-11T08:09:38Z</time>
      </trkpt>
      <trkpt lat="42.490879000" lon="-2.609691000">
        <ele>424.60</ele>
        <time>2017-02-11T08:09:39Z</time>
      </trkpt>
      <trkpt lat="42.490876000" lon="-2.609680000">
        <ele>424.60</ele>
        <time>2017-02-11T08:09:40Z</time>
      </trkpt>
      <trkpt lat="42.490872000" lon="-2.609667000">
        <ele>424.50</ele>
        <time>2017-02-11T08:09:41Z</time>
      </trkpt>
      <trkpt lat="42.490873000" lon="-2.609640000">
        <ele>424.50</ele>
        <time>2017-02-11T08:09:42Z</time>
      </trkpt>
      <trkpt lat="42.490872000" lon="-2.609617000">
        <ele>424.50</ele>
        <time>2017-02-11T08:09:43Z</time>
      </trkpt>
      <trkpt lat="42.490867000" lon="-2.609588000">
        <ele>424.50</ele>
        <time>2017-02-11T08:09:44Z</time>
      </trkpt>
      <trkpt lat="42.490865000" lon="-2.609566000">
        <ele>424.50</ele>
        <time>2017-02-11T08:09:45Z</time>
      </trkpt>
      <trkpt lat="42.490865000" lon="-2.609543000">
        <ele>424.50</ele>
        <time>2017-02-11T08:09:46Z</time>
      </trkpt>
      <trkpt lat="42.490870000" lon="-2.609518000">
        <ele>424.50</ele>
        <time>2017-02-11T08:09:47Z</time>
      </trkpt>
      <trkpt lat="42.490866000" lon="-2.609483000">
        <ele>424.50</ele>
        <time>2017-02-11T08:09:48Z</time>
      </trkpt>
      <trkpt lat="42.490862000" lon="-2.609451000">
        <ele>424.60</ele>
        <time>2017-02-11T08:09:49Z</time>
      </trkpt>
      <trkpt lat="42.490858000" lon="-2.609417000">
        <ele>424.70</ele>
        <time>2017-02-11T08:09:50Z</time>
      </trkpt>
      <trkpt lat="42.490856000" lon="-2.609381000">
        <ele>424.70</ele>
        <time>2017-02-11T08:09:51Z</time>
      </trkpt>
      <trkpt lat="42.490854000" lon="-2.609345000">
        <ele>424.70</ele>
        <time>2017-02-11T08:09:52Z</time>
      </trkpt>
      <trkpt lat="42.490855000" lon="-2.609311000">
        <ele>424.70</ele>
        <time>2017-02-11T08:09:53Z</time>
      </trkpt>
      <trkpt lat="42.490854000" lon="-2.609277000">
        <ele>424.70</ele>
        <time>2017-02-11T08:09:54Z</time>
      </trkpt>
      <trkpt lat="42.490855000" lon="-2.609248000">
        <ele>424.60</ele>
        <time>2017-02-11T08:09:55Z</time>
      </trkpt>
      <trkpt lat="42.490856000" lon="-2.609215000">
        <ele>424.50</ele>
        <time>2017-02-11T08:09:56Z</time>
      </trkpt>
      <trkpt lat="42.490858000" lon="-2.609182000">
        <ele>424.50</ele>
        <time>2017-02-11T08:09:57Z</time>
      </trkpt>
      <trkpt lat="42.490857000" lon="-2.609142000">
        <ele>424.40</ele>
        <time>2017-02-11T08:09:58Z</time>
      </trkpt>
      <trkpt lat="42.490852000" lon="-2.609103000">
        <ele>424.40</ele>
        <time>2017-02-11T08:09:59Z</time>
      </trkpt>
      <trkpt lat="42.490851000" lon="-2.609062000">
        <ele>424.40</ele>
        <time>2017-02-11T08:10:00Z</time>
      </trkpt>
      <trkpt lat="42.490851000" lon="-2.609020000">
        <ele>424.30</ele>
        <time>2017-02-11T08:10:01Z</time>
      </trkpt>
      <trkpt lat="42.490849000" lon="-2.608983000">
        <ele>424.30</ele>
        <time>2017-02-11T08:10:02Z</time>
      </trkpt>
      <trkpt lat="42.490843000" lon="-2.608944000">
        <ele>424.30</ele>
        <time>2017-02-11T08:10:03Z</time>
      </trkpt>
      <trkpt lat="42.490838000" lon="-2.608908000">
        <ele>424.30</ele>
        <time>2017-02-11T08:10:04Z</time>
      </trkpt>
      <trkpt lat="42.490834000" lon="-2.608871000">
        <ele>424.30</ele>
        <time>2017-02-11T08:10:05Z</time>
      </trkpt>
      <trkpt lat="42.490833000" lon="-2.608834000">
        <ele>424.20</ele>
        <time>2017-02-11T08:10:06Z</time>
      </trkpt>
      <trkpt lat="42.490830000" lon="-2.608795000">
        <ele>424.30</ele>
        <time>2017-02-11T08:10:07Z</time>
      </trkpt>
      <trkpt lat="42.490824000" lon="-2.608756000">
        <ele>424.40</ele>
        <time>2017-02-11T08:10:08Z</time>
      </trkpt>
      <trkpt lat="42.490823000" lon="-2.608718000">
        <ele>424.40</ele>
        <time>2017-02-11T08:10:09Z</time>
      </trkpt>
      <trkpt lat="42.490822000" lon="-2.608680000">
        <ele>424.40</ele>
        <time>2017-02-11T08:10:10Z</time>
      </trkpt>
      <trkpt lat="42.490817000" lon="-2.608640000">
        <ele>424.50</ele>
        <time>2017-02-11T08:10:11Z</time>
      </trkpt>
      <trkpt lat="42.490819000" lon="-2.608599000">
        <ele>424.50</ele>
        <time>2017-02-11T08:10:12Z</time>
      </trkpt>
      <trkpt lat="42.490820000" lon="-2.608561000">
        <ele>424.60</ele>
        <time>2017-02-11T08:10:13Z</time>
      </trkpt>
      <trkpt lat="42.490818000" lon="-2.608519000">
        <ele>424.60</ele>
        <time>2017-02-11T08:10:14Z</time>
      </trkpt>
      <trkpt lat="42.490818000" lon="-2.608474000">
        <ele>424.60</ele>
        <time>2017-02-11T08:10:15Z</time>
      </trkpt>
      <trkpt lat="42.490812000" lon="-2.608429000">
        <ele>424.60</ele>
        <time>2017-02-11T08:10:16Z</time>
      </trkpt>
      <trkpt lat="42.490808000" lon="-2.608384000">
        <ele>424.70</ele>
        <time>2017-02-11T08:10:17Z</time>
      </trkpt>
      <trkpt lat="42.490809000" lon="-2.608338000">
        <ele>424.70</ele>
        <time>2017-02-11T08:10:18Z</time>
      </trkpt>
      <trkpt lat="42.490807000" lon="-2.608293000">
        <ele>424.70</ele>
        <time>2017-02-11T08:10:19Z</time>
      </trkpt>
      <trkpt lat="42.490808000" lon="-2.608250000">
        <ele>424.60</ele>
        <time>2017-02-11T08:10:20Z</time>
      </trkpt>
      <trkpt lat="42.490807000" lon="-2.608204000">
        <ele>424.70</ele>
        <time>2017-02-11T08:10:21Z</time>
      </trkpt>
      <trkpt lat="42.490805000" lon="-2.608160000">
        <ele>424.70</ele>
        <time>2017-02-11T08:10:22Z</time>
      </trkpt>
      <trkpt lat="42.490806000" lon="-2.608115000">
        <ele>424.70</ele>
        <time>2017-02-11T08:10:23Z</time>
      </trkpt>
      <trkpt lat="42.490803000" lon="-2.608069000">
        <ele>424.80</ele>
        <time>2017-02-11T08:10:24Z</time>
      </trkpt>
      <trkpt lat="42.490802000" lon="-2.608023000">
        <ele>424.80</ele>
        <time>2017-02-11T08:10:25Z</time>
      </trkpt>
      <trkpt lat="42.490800000" lon="-2.607978000">
        <ele>424.80</ele>
        <time>2017-02-11T08:10:26Z</time>
      </trkpt>
      <trkpt lat="42.490797000" lon="-2.607931000">
        <ele>424.70</ele>
        <time>2017-02-11T08:10:27Z</time>
      </trkpt>
      <trkpt lat="42.490793000" lon="-2.607884000">
        <ele>424.70</ele>
        <time>2017-02-11T08:10:28Z</time>
      </trkpt>
      <trkpt lat="42.490790000" lon="-2.607836000">
        <ele>424.70</ele>
        <time>2017-02-11T08:10:29Z</time>
      </trkpt>
      <trkpt lat="42.490785000" lon="-2.607785000">
        <ele>424.60</ele>
        <time>2017-02-11T08:10:30Z</time>
      </trkpt>
      <trkpt lat="42.490786000" lon="-2.607735000">
        <ele>424.60</ele>
        <time>2017-02-11T08:10:31Z</time>
      </trkpt>
      <trkpt lat="42.490786000" lon="-2.607686000">
        <ele>424.60</ele>
        <time>2017-02-11T08:10:32Z</time>
      </trkpt>
      <trkpt lat="42.490785000" lon="-2.607636000">
        <ele>424.50</ele>
        <time>2017-02-11T08:10:33Z</time>
      </trkpt>
      <trkpt lat="42.490779000" lon="-2.607540000">
        <ele>424.40</ele>
        <time>2017-02-11T08:10:35Z</time>
      </trkpt>
      <trkpt lat="42.490777000" lon="-2.607495000">
        <ele>424.40</ele>
        <time>2017-02-11T08:10:36Z</time>
      </trkpt>
      <trkpt lat="42.490776000" lon="-2.607450000">
        <ele>424.50</ele>
        <time>2017-02-11T08:10:37Z</time>
      </trkpt>
      <trkpt lat="42.490774000" lon="-2.607404000">
        <ele>424.70</ele>
        <time>2017-02-11T08:10:38Z</time>
      </trkpt>
      <trkpt lat="42.490773000" lon="-2.607356000">
        <ele>424.70</ele>
        <time>2017-02-11T08:10:39Z</time>
      </trkpt>
      <trkpt lat="42.490771000" lon="-2.607308000">
        <ele>424.80</ele>
        <time>2017-02-11T08:10:40Z</time>
      </trkpt>
      <trkpt lat="42.490768000" lon="-2.607261000">
        <ele>424.70</ele>
        <time>2017-02-11T08:10:41Z</time>
      </trkpt>
      <trkpt lat="42.490765000" lon="-2.607211000">
        <ele>424.70</ele>
        <time>2017-02-11T08:10:42Z</time>
      </trkpt>
      <trkpt lat="42.490764000" lon="-2.607159000">
        <ele>424.70</ele>
        <time>2017-02-11T08:10:43Z</time>
      </trkpt>
      <trkpt lat="42.490762000" lon="-2.607110000">
        <ele>424.60</ele>
        <time>2017-02-11T08:10:44Z</time>
      </trkpt>
      <trkpt lat="42.490760000" lon="-2.607064000">
        <ele>424.60</ele>
        <time>2017-02-11T08:10:45Z</time>
      </trkpt>
      <trkpt lat="42.490757000" lon="-2.607016000">
        <ele>424.60</ele>
        <time>2017-02-11T08:10:46Z</time>
      </trkpt>
      <trkpt lat="42.490753000" lon="-2.606968000">
        <ele>424.50</ele>
        <time>2017-02-11T08:10:47Z</time>
      </trkpt>
      <trkpt lat="42.490746000" lon="-2.606921000">
        <ele>424.40</ele>
        <time>2017-02-11T08:10:48Z</time>
      </trkpt>
      <trkpt lat="42.490743000" lon="-2.606875000">
        <ele>424.30</ele>
        <time>2017-02-11T08:10:49Z</time>
      </trkpt>
      <trkpt lat="42.490738000" lon="-2.606828000">
        <ele>424.20</ele>
        <time>2017-02-11T08:10:50Z</time>
      </trkpt>
      <trkpt lat="42.490731000" lon="-2.606779000">
        <ele>424.30</ele>
        <time>2017-02-11T08:10:51Z</time>
      </trkpt>
      <trkpt lat="42.490724000" lon="-2.606733000">
        <ele>424.40</ele>
        <time>2017-02-11T08:10:52Z</time>
      </trkpt>
      <trkpt lat="42.490718000" lon="-2.606683000">
        <ele>424.50</ele>
        <time>2017-02-11T08:10:53Z</time>
      </trkpt>
      <trkpt lat="42.490711000" lon="-2.606630000">
        <ele>424.70</ele>
        <time>2017-02-11T08:10:54Z</time>
      </trkpt>
      <trkpt lat="42.490703000" lon="-2.606578000">
        <ele>424.80</ele>
        <time>2017-02-11T08:10:55Z</time>
      </trkpt>
      <trkpt lat="42.490693000" lon="-2.606523000">
        <ele>424.90</ele>
        <time>2017-02-11T08:10:56Z</time>
      </trkpt>
      <trkpt lat="42.490684000" lon="-2.606469000">
        <ele>425.10</ele>
        <time>2017-02-11T08:10:57Z</time>
      </trkpt>
      <trkpt lat="42.490672000" lon="-2.606415000">
        <ele>425.30</ele>
        <time>2017-02-11T08:10:58Z</time>
      </trkpt>
      <trkpt lat="42.490661000" lon="-2.606362000">
        <ele>425.20</ele>
        <time>2017-02-11T08:10:59Z</time>
      </trkpt>
      <trkpt lat="42.490648000" lon="-2.606310000">
        <ele>425.20</ele>
        <time>2017-02-11T08:11:00Z</time>
      </trkpt>
      <trkpt lat="42.490637000" lon="-2.606257000">
        <ele>425.20</ele>
        <time>2017-02-11T08:11:01Z</time>
      </trkpt>
      <trkpt lat="42.490626000" lon="-2.606209000">
        <ele>425.20</ele>
        <time>2017-02-11T08:11:02Z</time>
      </trkpt>
      <trkpt lat="42.490618000" lon="-2.606159000">
        <ele>425.10</ele>
        <time>2017-02-11T08:11:03Z</time>
      </trkpt>
      <trkpt lat="42.490608000" lon="-2.606109000">
        <ele>425.10</ele>
        <time>2017-02-11T08:11:04Z</time>
      </trkpt>
      <trkpt lat="42.490595000" lon="-2.606056000">
        <ele>424.90</ele>
        <time>2017-02-11T08:11:05Z</time>
      </trkpt>
      <trkpt lat="42.490584000" lon="-2.606003000">
        <ele>424.70</ele>
        <time>2017-02-11T08:11:06Z</time>
      </trkpt>
      <trkpt lat="42.490573000" lon="-2.605950000">
        <ele>424.60</ele>
        <time>2017-02-11T08:11:07Z</time>
      </trkpt>
      <trkpt lat="42.490561000" lon="-2.605901000">
        <ele>424.60</ele>
        <time>2017-02-11T08:11:08Z</time>
      </trkpt>
      <trkpt lat="42.490549000" lon="-2.605846000">
        <ele>424.70</ele>
        <time>2017-02-11T08:11:09Z</time>
      </trkpt>
      <trkpt lat="42.490534000" lon="-2.605795000">
        <ele>424.80</ele>
        <time>2017-02-11T08:11:10Z</time>
      </trkpt>
      <trkpt lat="42.490521000" lon="-2.605744000">
        <ele>424.90</ele>
        <time>2017-02-11T08:11:11Z</time>
      </trkpt>
      <trkpt lat="42.490506000" lon="-2.605693000">
        <ele>425.00</ele>
        <time>2017-02-11T08:11:12Z</time>
      </trkpt>
      <trkpt lat="42.490494000" lon="-2.605642000">
        <ele>424.80</ele>
        <time>2017-02-11T08:11:13Z</time>
      </trkpt>
      <trkpt lat="42.490481000" lon="-2.605593000">
        <ele>424.70</ele>
        <time>2017-02-11T08:11:14Z</time>
      </trkpt>
      <trkpt lat="42.490466000" lon="-2.605544000">
        <ele>424.50</ele>
        <time>2017-02-11T08:11:15Z</time>
      </trkpt>
      <trkpt lat="42.490454000" lon="-2.605492000">
        <ele>424.40</ele>
        <time>2017-02-11T08:11:16Z</time>
      </trkpt>
      <trkpt lat="42.490440000" lon="-2.605445000">
        <ele>424.30</ele>
        <time>2017-02-11T08:11:17Z</time>
      </trkpt>
      <trkpt lat="42.490427000" lon="-2.605397000">
        <ele>424.20</ele>
        <time>2017-02-11T08:11:18Z</time>
      </trkpt>
      <trkpt lat="42.490411000" lon="-2.605349000">
        <ele>424.30</ele>
        <time>2017-02-11T08:11:19Z</time>
      </trkpt>
      <trkpt lat="42.490395000" lon="-2.605304000">
        <ele>424.40</ele>
        <time>2017-02-11T08:11:20Z</time>
      </trkpt>
      <trkpt lat="42.490378000" lon="-2.605261000">
        <ele>424.50</ele>
        <time>2017-02-11T08:11:21Z</time>
      </trkpt>
      <trkpt lat="42.490364000" lon="-2.605215000">
        <ele>424.50</ele>
        <time>2017-02-11T08:11:22Z</time>
      </trkpt>
      <trkpt lat="42.490345000" lon="-2.605173000">
        <ele>424.60</ele>
        <time>2017-02-11T08:11:23Z</time>
      </trkpt>
      <trkpt lat="42.490326000" lon="-2.605130000">
        <ele>424.70</ele>
        <time>2017-02-11T08:11:24Z</time>
      </trkpt>
      <trkpt lat="42.490308000" lon="-2.605086000">
        <ele>424.80</ele>
        <time>2017-02-11T08:11:25Z</time>
      </trkpt>
      <trkpt lat="42.490290000" lon="-2.605036000">
        <ele>424.80</ele>
        <time>2017-02-11T08:11:26Z</time>
      </trkpt>
      <trkpt lat="42.490274000" lon="-2.604985000">
        <ele>424.80</ele>
        <time>2017-02-11T08:11:27Z</time>
      </trkpt>
      <trkpt lat="42.490250000" lon="-2.604936000">
        <ele>424.70</ele>
        <time>2017-02-11T08:11:28Z</time>
      </trkpt>
      <trkpt lat="42.490229000" lon="-2.604885000">
        <ele>424.70</ele>
        <time>2017-02-11T08:11:29Z</time>
      </trkpt>
      <trkpt lat="42.490207000" lon="-2.604834000">
        <ele>424.70</ele>
        <time>2017-02-11T08:11:30Z</time>
      </trkpt>
      <trkpt lat="42.490183000" lon="-2.604778000">
        <ele>424.50</ele>
        <time>2017-02-11T08:11:31Z</time>
      </trkpt>
      <trkpt lat="42.490160000" lon="-2.604725000">
        <ele>424.30</ele>
        <time>2017-02-11T08:11:32Z</time>
      </trkpt>
      <trkpt lat="42.490136000" lon="-2.604676000">
        <ele>424.20</ele>
        <time>2017-02-11T08:11:33Z</time>
      </trkpt>
      <trkpt lat="42.490113000" lon="-2.604625000">
        <ele>424.20</ele>
        <time>2017-02-11T08:11:34Z</time>
      </trkpt>
      <trkpt lat="42.490064000" lon="-2.604526000">
        <ele>424.10</ele>
        <time>2017-02-11T08:11:36Z</time>
      </trkpt>
      <trkpt lat="42.490043000" lon="-2.604478000">
        <ele>423.90</ele>
        <time>2017-02-11T08:11:37Z</time>
      </trkpt>
      <trkpt lat="42.490021000" lon="-2.604430000">
        <ele>423.80</ele>
        <time>2017-02-11T08:11:38Z</time>
      </trkpt>
      <trkpt lat="42.489998000" lon="-2.604383000">
        <ele>423.50</ele>
        <time>2017-02-11T08:11:39Z</time>
      </trkpt>
      <trkpt lat="42.489974000" lon="-2.604337000">
        <ele>423.20</ele>
        <time>2017-02-11T08:11:40Z</time>
      </trkpt>
      <trkpt lat="42.489948000" lon="-2.604293000">
        <ele>423.00</ele>
        <time>2017-02-11T08:11:41Z</time>
      </trkpt>
      <trkpt lat="42.489922000" lon="-2.604246000">
        <ele>422.90</ele>
        <time>2017-02-11T08:11:42Z</time>
      </trkpt>
      <trkpt lat="42.489897000" lon="-2.604198000">
        <ele>422.90</ele>
        <time>2017-02-11T08:11:43Z</time>
      </trkpt>
      <trkpt lat="42.489872000" lon="-2.604151000">
        <ele>422.90</ele>
        <time>2017-02-11T08:11:44Z</time>
      </trkpt>
      <trkpt lat="42.489850000" lon="-2.604107000">
        <ele>423.10</ele>
        <time>2017-02-11T08:11:45Z</time>
      </trkpt>
      <trkpt lat="42.489826000" lon="-2.604059000">
        <ele>423.20</ele>
        <time>2017-02-11T08:11:46Z</time>
      </trkpt>
      <trkpt lat="42.489803000" lon="-2.604012000">
        <ele>423.30</ele>
        <time>2017-02-11T08:11:47Z</time>
      </trkpt>
      <trkpt lat="42.489778000" lon="-2.603967000">
        <ele>423.30</ele>
        <time>2017-02-11T08:11:48Z</time>
      </trkpt>
      <trkpt lat="42.489752000" lon="-2.603919000">
        <ele>423.30</ele>
        <time>2017-02-11T08:11:49Z</time>
      </trkpt>
      <trkpt lat="42.489727000" lon="-2.603873000">
        <ele>423.20</ele>
        <time>2017-02-11T08:11:50Z</time>
      </trkpt>
      <trkpt lat="42.489702000" lon="-2.603828000">
        <ele>423.10</ele>
        <time>2017-02-11T08:11:51Z</time>
      </trkpt>
      <trkpt lat="42.489675000" lon="-2.603787000">
        <ele>423.10</ele>
        <time>2017-02-11T08:11:52Z</time>
      </trkpt>
      <trkpt lat="42.489649000" lon="-2.603746000">
        <ele>423.10</ele>
        <time>2017-02-11T08:11:53Z</time>
      </trkpt>
      <trkpt lat="42.489622000" lon="-2.603707000">
        <ele>423.00</ele>
        <time>2017-02-11T08:11:54Z</time>
      </trkpt>
      <trkpt lat="42.489596000" lon="-2.603665000">
        <ele>422.80</ele>
        <time>2017-02-11T08:11:55Z</time>
      </trkpt>
      <trkpt lat="42.489566000" lon="-2.603623000">
        <ele>422.70</ele>
        <time>2017-02-11T08:11:56Z</time>
      </trkpt>
      <trkpt lat="42.489539000" lon="-2.603582000">
        <ele>422.60</ele>
        <time>2017-02-11T08:11:57Z</time>
      </trkpt>
      <trkpt lat="42.489511000" lon="-2.603542000">
        <ele>422.60</ele>
        <time>2017-02-11T08:11:58Z</time>
      </trkpt>
      <trkpt lat="42.489482000" lon="-2.603504000">
        <ele>422.60</ele>
        <time>2017-02-11T08:11:59Z</time>
      </trkpt>
      <trkpt lat="42.489452000" lon="-2.603463000">
        <ele>422.50</ele>
        <time>2017-02-11T08:12:00Z</time>
      </trkpt>
      <trkpt lat="42.489422000" lon="-2.603424000">
        <ele>422.60</ele>
        <time>2017-02-11T08:12:01Z</time>
      </trkpt>
      <trkpt lat="42.489391000" lon="-2.603384000">
        <ele>422.60</ele>
        <time>2017-02-11T08:12:02Z</time>
      </trkpt>
      <trkpt lat="42.489361000" lon="-2.603342000">
        <ele>422.80</ele>
        <time>2017-02-11T08:12:03Z</time>
      </trkpt>
      <trkpt lat="42.489330000" lon="-2.603302000">
        <ele>422.90</ele>
        <time>2017-02-11T08:12:04Z</time>
      </trkpt>
      <trkpt lat="42.489297000" lon="-2.603264000">
        <ele>423.10</ele>
        <time>2017-02-11T08:12:05Z</time>
      </trkpt>
      <trkpt lat="42.489264000" lon="-2.603225000">
        <ele>423.20</ele>
        <time>2017-02-11T08:12:06Z</time>
      </trkpt>
      <trkpt lat="42.489231000" lon="-2.603185000">
        <ele>423.20</ele>
        <time>2017-02-11T08:12:07Z</time>
      </trkpt>
      <trkpt lat="42.489196000" lon="-2.603144000">
        <ele>423.20</ele>
        <time>2017-02-11T08:12:08Z</time>
      </trkpt>
      <trkpt lat="42.489162000" lon="-2.603107000">
        <ele>423.10</ele>
        <time>2017-02-11T08:12:09Z</time>
      </trkpt>
      <trkpt lat="42.489126000" lon="-2.603074000">
        <ele>423.10</ele>
        <time>2017-02-11T08:12:10Z</time>
      </trkpt>
      <trkpt lat="42.489089000" lon="-2.603038000">
        <ele>423.00</ele>
        <time>2017-02-11T08:12:11Z</time>
      </trkpt>
      <trkpt lat="42.489050000" lon="-2.603001000">
        <ele>423.00</ele>
        <time>2017-02-11T08:12:12Z</time>
      </trkpt>
      <trkpt lat="42.489012000" lon="-2.602964000">
        <ele>423.00</ele>
        <time>2017-02-11T08:12:13Z</time>
      </trkpt>
      <trkpt lat="42.488973000" lon="-2.602925000">
        <ele>423.00</ele>
        <time>2017-02-11T08:12:14Z</time>
      </trkpt>
      <trkpt lat="42.488932000" lon="-2.602888000">
        <ele>423.00</ele>
        <time>2017-02-11T08:12:15Z</time>
      </trkpt>
      <trkpt lat="42.488889000" lon="-2.602850000">
        <ele>422.90</ele>
        <time>2017-02-11T08:12:16Z</time>
      </trkpt>
      <trkpt lat="42.488843000" lon="-2.602814000">
        <ele>422.90</ele>
        <time>2017-02-11T08:12:17Z</time>
      </trkpt>
      <trkpt lat="42.488795000" lon="-2.602776000">
        <ele>422.90</ele>
        <time>2017-02-11T08:12:18Z</time>
      </trkpt>
      <trkpt lat="42.488746000" lon="-2.602737000">
        <ele>422.90</ele>
        <time>2017-02-11T08:12:19Z</time>
      </trkpt>
      <trkpt lat="42.488696000" lon="-2.602696000">
        <ele>422.80</ele>
        <time>2017-02-11T08:12:20Z</time>
      </trkpt>
      <trkpt lat="42.488645000" lon="-2.602657000">
        <ele>422.70</ele>
        <time>2017-02-11T08:12:21Z</time>
      </trkpt>
      <trkpt lat="42.488594000" lon="-2.602615000">
        <ele>422.60</ele>
        <time>2017-02-11T08:12:22Z</time>
      </trkpt>
      <trkpt lat="42.488547000" lon="-2.602574000">
        <ele>422.60</ele>
        <time>2017-02-11T08:12:23Z</time>
      </trkpt>
      <trkpt lat="42.488499000" lon="-2.602539000">
        <ele>422.50</ele>
        <time>2017-02-11T08:12:24Z</time>
      </trkpt>
      <trkpt lat="42.488454000" lon="-2.602508000">
        <ele>422.50</ele>
        <time>2017-02-11T08:12:25Z</time>
      </trkpt>
      <trkpt lat="42.488410000" lon="-2.602474000">
        <ele>422.50</ele>
        <time>2017-02-11T08:12:26Z</time>
      </trkpt>
      <trkpt lat="42.488367000" lon="-2.602442000">
        <ele>422.40</ele>
        <time>2017-02-11T08:12:27Z</time>
      </trkpt>
      <trkpt lat="42.488322000" lon="-2.602409000">
        <ele>422.40</ele>
        <time>2017-02-11T08:12:28Z</time>
      </trkpt>
      <trkpt lat="42.488278000" lon="-2.602375000">
        <ele>422.30</ele>
        <time>2017-02-11T08:12:29Z</time>
      </trkpt>
      <trkpt lat="42.488238000" lon="-2.602345000">
        <ele>422.10</ele>
        <time>2017-02-11T08:12:30Z</time>
      </trkpt>
      <trkpt lat="42.488196000" lon="-2.602316000">
        <ele>422.00</ele>
        <time>2017-02-11T08:12:31Z</time>
      </trkpt>
      <trkpt lat="42.488154000" lon="-2.602285000">
        <ele>421.90</ele>
        <time>2017-02-11T08:12:32Z</time>
      </trkpt>
      <trkpt lat="42.488109000" lon="-2.602256000">
        <ele>421.90</ele>
        <time>2017-02-11T08:12:33Z</time>
      </trkpt>
      <trkpt lat="42.488065000" lon="-2.602226000">
        <ele>421.90</ele>
        <time>2017-02-11T08:12:34Z</time>
      </trkpt>
      <trkpt lat="42.488019000" lon="-2.602194000">
        <ele>422.00</ele>
        <time>2017-02-11T08:12:35Z</time>
      </trkpt>
      <trkpt lat="42.487928000" lon="-2.602135000">
        <ele>422.10</ele>
        <time>2017-02-11T08:12:37Z</time>
      </trkpt>
      <trkpt lat="42.487882000" lon="-2.602108000">
        <ele>422.10</ele>
        <time>2017-02-11T08:12:38Z</time>
      </trkpt>
      <trkpt lat="42.487836000" lon="-2.602080000">
        <ele>422.10</ele>
        <time>2017-02-11T08:12:39Z</time>
      </trkpt>
      <trkpt lat="42.487788000" lon="-2.602052000">
        <ele>422.10</ele>
        <time>2017-02-11T08:12:40Z</time>
      </trkpt>
      <trkpt lat="42.487743000" lon="-2.602027000">
        <ele>422.00</ele>
        <time>2017-02-11T08:12:41Z</time>
      </trkpt>
      <trkpt lat="42.487698000" lon="-2.602004000">
        <ele>421.90</ele>
        <time>2017-02-11T08:12:42Z</time>
      </trkpt>
      <trkpt lat="42.487652000" lon="-2.601984000">
        <ele>421.90</ele>
        <time>2017-02-11T08:12:43Z</time>
      </trkpt>
      <trkpt lat="42.487610000" lon="-2.601966000">
        <ele>421.80</ele>
        <time>2017-02-11T08:12:44Z</time>
      </trkpt>
      <trkpt lat="42.487565000" lon="-2.601946000">
        <ele>421.70</ele>
        <time>2017-02-11T08:12:45Z</time>
      </trkpt>
      <trkpt lat="42.487525000" lon="-2.601927000">
        <ele>421.50</ele>
        <time>2017-02-11T08:12:46Z</time>
      </trkpt>
      <trkpt lat="42.487481000" lon="-2.601908000">
        <ele>421.50</ele>
        <time>2017-02-11T08:12:47Z</time>
      </trkpt>
      <trkpt lat="42.487436000" lon="-2.601889000">
        <ele>421.40</ele>
        <time>2017-02-11T08:12:48Z</time>
      </trkpt>
      <trkpt lat="42.487393000" lon="-2.601871000">
        <ele>421.30</ele>
        <time>2017-02-11T08:12:49Z</time>
      </trkpt>
      <trkpt lat="42.487350000" lon="-2.601852000">
        <ele>421.30</ele>
        <time>2017-02-11T08:12:50Z</time>
      </trkpt>
      <trkpt lat="42.487315000" lon="-2.601839000">
        <ele>421.30</ele>
        <time>2017-02-11T08:12:51Z</time>
      </trkpt>
      <trkpt lat="42.487280000" lon="-2.601827000">
        <ele>421.40</ele>
        <time>2017-02-11T08:12:52Z</time>
      </trkpt>
      <trkpt lat="42.487249000" lon="-2.601813000">
        <ele>421.40</ele>
        <time>2017-02-11T08:12:53Z</time>
      </trkpt>
      <trkpt lat="42.487221000" lon="-2.601804000">
        <ele>421.40</ele>
        <time>2017-02-11T08:12:54Z</time>
      </trkpt>
      <trkpt lat="42.487195000" lon="-2.601799000">
        <ele>421.30</ele>
        <time>2017-02-11T08:12:55Z</time>
      </trkpt>
      <trkpt lat="42.487173000" lon="-2.601809000">
        <ele>421.30</ele>
        <time>2017-02-11T08:12:56Z</time>
      </trkpt>
      <trkpt lat="42.487158000" lon="-2.601839000">
        <ele>421.20</ele>
        <time>2017-02-11T08:12:57Z</time>
      </trkpt>
      <trkpt lat="42.487145000" lon="-2.601882000">
        <ele>421.10</ele>
        <time>2017-02-11T08:12:58Z</time>
      </trkpt>
      <trkpt lat="42.487133000" lon="-2.601931000">
        <ele>421.00</ele>
        <time>2017-02-11T08:12:59Z</time>
      </trkpt>
      <trkpt lat="42.487116000" lon="-2.601979000">
        <ele>420.90</ele>
        <time>2017-02-11T08:13:00Z</time>
      </trkpt>
      <trkpt lat="42.487088000" lon="-2.602013000">
        <ele>420.90</ele>
        <time>2017-02-11T08:13:01Z</time>
      </trkpt>
      <trkpt lat="42.487053000" lon="-2.602036000">
        <ele>420.80</ele>
        <time>2017-02-11T08:13:02Z</time>
      </trkpt>
      <trkpt lat="42.487015000" lon="-2.602040000">
        <ele>420.70</ele>
        <time>2017-02-11T08:13:03Z</time>
      </trkpt>
      <trkpt lat="42.486976000" lon="-2.602032000">
        <ele>420.70</ele>
        <time>2017-02-11T08:13:04Z</time>
      </trkpt>
      <trkpt lat="42.486935000" lon="-2.602017000">
        <ele>420.70</ele>
        <time>2017-02-11T08:13:05Z</time>
      </trkpt>
      <trkpt lat="42.486896000" lon="-2.602005000">
        <ele>420.70</ele>
        <time>2017-02-11T08:13:06Z</time>
      </trkpt>
      <trkpt lat="42.486855000" lon="-2.601998000">
        <ele>420.70</ele>
        <time>2017-02-11T08:13:07Z</time>
      </trkpt>
      <trkpt lat="42.486813000" lon="-2.601992000">
        <ele>420.70</ele>
        <time>2017-02-11T08:13:08Z</time>
      </trkpt>
      <trkpt lat="42.486775000" lon="-2.601992000">
        <ele>421.00</ele>
        <time>2017-02-11T08:13:09Z</time>
      </trkpt>
      <trkpt lat="42.486737000" lon="-2.601990000">
        <ele>421.10</ele>
        <time>2017-02-11T08:13:10Z</time>
      </trkpt>
      <trkpt lat="42.486702000" lon="-2.601990000">
        <ele>421.20</ele>
        <time>2017-02-11T08:13:11Z</time>
      </trkpt>
      <trkpt lat="42.486666000" lon="-2.601989000">
        <ele>421.30</ele>
        <time>2017-02-11T08:13:12Z</time>
      </trkpt>
      <trkpt lat="42.486631000" lon="-2.601991000">
        <ele>421.40</ele>
        <time>2017-02-11T08:13:13Z</time>
      </trkpt>
      <trkpt lat="42.486594000" lon="-2.601995000">
        <ele>421.50</ele>
        <time>2017-02-11T08:13:14Z</time>
      </trkpt>
      <trkpt lat="42.486558000" lon="-2.602000000">
        <ele>421.50</ele>
        <time>2017-02-11T08:13:15Z</time>
      </trkpt>
      <trkpt lat="42.486522000" lon="-2.602008000">
        <ele>421.50</ele>
        <time>2017-02-11T08:13:16Z</time>
      </trkpt>
      <trkpt lat="42.486482000" lon="-2.602028000">
        <ele>421.60</ele>
        <time>2017-02-11T08:13:17Z</time>
      </trkpt>
      <trkpt lat="42.486446000" lon="-2.602031000">
        <ele>421.60</ele>
        <time>2017-02-11T08:13:18Z</time>
      </trkpt>
      <trkpt lat="42.486413000" lon="-2.602031000">
        <ele>421.70</ele>
        <time>2017-02-11T08:13:19Z</time>
      </trkpt>
      <trkpt lat="42.486381000" lon="-2.602031000">
        <ele>421.90</ele>
        <time>2017-02-11T08:13:20Z</time>
      </trkpt>
      <trkpt lat="42.486353000" lon="-2.602035000">
        <ele>422.10</ele>
        <time>2017-02-11T08:13:21Z</time>
      </trkpt>
      <trkpt lat="42.486324000" lon="-2.602039000">
        <ele>422.20</ele>
        <time>2017-02-11T08:13:22Z</time>
      </trkpt>
      <trkpt lat="42.486295000" lon="-2.602042000">
        <ele>422.40</ele>
        <time>2017-02-11T08:13:23Z</time>
      </trkpt>
      <trkpt lat="42.486264000" lon="-2.602042000">
        <ele>422.50</ele>
        <time>2017-02-11T08:13:24Z</time>
      </trkpt>
      <trkpt lat="42.486230000" lon="-2.602038000">
        <ele>422.50</ele>
        <time>2017-02-11T08:13:25Z</time>
      </trkpt>
      <trkpt lat="42.486199000" lon="-2.602041000">
        <ele>422.60</ele>
        <time>2017-02-11T08:13:26Z</time>
      </trkpt>
      <trkpt lat="42.486166000" lon="-2.602044000">
        <ele>422.60</ele>
        <time>2017-02-11T08:13:27Z</time>
      </trkpt>
      <trkpt lat="42.486133000" lon="-2.602048000">
        <ele>422.70</ele>
        <time>2017-02-11T08:13:28Z</time>
      </trkpt>
      <trkpt lat="42.486100000" lon="-2.602051000">
        <ele>422.70</ele>
        <time>2017-02-11T08:13:29Z</time>
      </trkpt>
      <trkpt lat="42.486063000" lon="-2.602057000">
        <ele>422.80</ele>
        <time>2017-02-11T08:13:30Z</time>
      </trkpt>
      <trkpt lat="42.486032000" lon="-2.602060000">
        <ele>423.00</ele>
        <time>2017-02-11T08:13:31Z</time>
      </trkpt>
      <trkpt lat="42.485997000" lon="-2.602064000">
        <ele>423.10</ele>
        <time>2017-02-11T08:13:32Z</time>
      </trkpt>
      <trkpt lat="42.485965000" lon="-2.602068000">
        <ele>423.20</ele>
        <time>2017-02-11T08:13:33Z</time>
      </trkpt>
      <trkpt lat="42.485930000" lon="-2.602069000">
        <ele>423.20</ele>
        <time>2017-02-11T08:13:34Z</time>
      </trkpt>
      <trkpt lat="42.485894000" lon="-2.602075000">
        <ele>423.30</ele>
        <time>2017-02-11T08:13:35Z</time>
      </trkpt>
      <trkpt lat="42.485858000" lon="-2.602077000">
        <ele>423.30</ele>
        <time>2017-02-11T08:13:36Z</time>
      </trkpt>
      <trkpt lat="42.485787000" lon="-2.602079000">
        <ele>423.40</ele>
        <time>2017-02-11T08:13:38Z</time>
      </trkpt>
      <trkpt lat="42.485753000" lon="-2.602076000">
        <ele>423.30</ele>
        <time>2017-02-11T08:13:39Z</time>
      </trkpt>
      <trkpt lat="42.485720000" lon="-2.602073000">
        <ele>423.20</ele>
        <time>2017-02-11T08:13:40Z</time>
      </trkpt>
      <trkpt lat="42.485687000" lon="-2.602072000">
        <ele>423.50</ele>
        <time>2017-02-11T08:13:41Z</time>
      </trkpt>
      <trkpt lat="42.485655000" lon="-2.602072000">
        <ele>423.80</ele>
        <time>2017-02-11T08:13:42Z</time>
      </trkpt>
      <trkpt lat="42.485625000" lon="-2.602071000">
        <ele>423.90</ele>
        <time>2017-02-11T08:13:43Z</time>
      </trkpt>
      <trkpt lat="42.485592000" lon="-2.602070000">
        <ele>424.00</ele>
        <time>2017-02-11T08:13:44Z</time>
      </trkpt>
      <trkpt lat="42.485559000" lon="-2.602071000">
        <ele>424.00</ele>
        <time>2017-02-11T08:13:45Z</time>
      </trkpt>
      <trkpt lat="42.485527000" lon="-2.602073000">
        <ele>424.10</ele>
        <time>2017-02-11T08:13:46Z</time>
      </trkpt>
      <trkpt lat="42.485494000" lon="-2.602079000">
        <ele>424.10</ele>
        <time>2017-02-11T08:13:47Z</time>
      </trkpt>
      <trkpt lat="42.485460000" lon="-2.602082000">
        <ele>424.10</ele>
        <time>2017-02-11T08:13:48Z</time>
      </trkpt>
      <trkpt lat="42.485427000" lon="-2.602087000">
        <ele>423.90</ele>
        <time>2017-02-11T08:13:49Z</time>
      </trkpt>
      <trkpt lat="42.485393000" lon="-2.602094000">
        <ele>423.70</ele>
        <time>2017-02-11T08:13:50Z</time>
      </trkpt>
      <trkpt lat="42.485355000" lon="-2.602101000">
        <ele>423.60</ele>
        <time>2017-02-11T08:13:51Z</time>
      </trkpt>
      <trkpt lat="42.485320000" lon="-2.602111000">
        <ele>423.50</ele>
        <time>2017-02-11T08:13:52Z</time>
      </trkpt>
      <trkpt lat="42.485287000" lon="-2.602116000">
        <ele>423.40</ele>
        <time>2017-02-11T08:13:53Z</time>
      </trkpt>
      <trkpt lat="42.485254000" lon="-2.602122000">
        <ele>423.30</ele>
        <time>2017-02-11T08:13:54Z</time>
      </trkpt>
      <trkpt lat="42.485221000" lon="-2.602131000">
        <ele>423.30</ele>
        <time>2017-02-11T08:13:55Z</time>
      </trkpt>
      <trkpt lat="42.485187000" lon="-2.602142000">
        <ele>423.30</ele>
        <time>2017-02-11T08:13:56Z</time>
      </trkpt>
      <trkpt lat="42.485152000" lon="-2.602149000">
        <ele>423.20</ele>
        <time>2017-02-11T08:13:57Z</time>
      </trkpt>
      <trkpt lat="42.485116000" lon="-2.602161000">
        <ele>423.20</ele>
        <time>2017-02-11T08:13:58Z</time>
      </trkpt>
      <trkpt lat="42.485078000" lon="-2.602172000">
        <ele>423.30</ele>
        <time>2017-02-11T08:13:59Z</time>
      </trkpt>
      <trkpt lat="42.485044000" lon="-2.602185000">
        <ele>423.30</ele>
        <time>2017-02-11T08:14:00Z</time>
      </trkpt>
      <trkpt lat="42.485011000" lon="-2.602201000">
        <ele>423.30</ele>
        <time>2017-02-11T08:14:01Z</time>
      </trkpt>
      <trkpt lat="42.484978000" lon="-2.602220000">
        <ele>423.40</ele>
        <time>2017-02-11T08:14:02Z</time>
      </trkpt>
      <trkpt lat="42.484943000" lon="-2.602237000">
        <ele>423.40</ele>
        <time>2017-02-11T08:14:03Z</time>
      </trkpt>
      <trkpt lat="42.484909000" lon="-2.602251000">
        <ele>423.40</ele>
        <time>2017-02-11T08:14:04Z</time>
      </trkpt>
      <trkpt lat="42.484874000" lon="-2.602264000">
        <ele>423.50</ele>
        <time>2017-02-11T08:14:05Z</time>
      </trkpt>
      <trkpt lat="42.484839000" lon="-2.602275000">
        <ele>423.50</ele>
        <time>2017-02-11T08:14:06Z</time>
      </trkpt>
      <trkpt lat="42.484802000" lon="-2.602285000">
        <ele>423.70</ele>
        <time>2017-02-11T08:14:07Z</time>
      </trkpt>
      <trkpt lat="42.484763000" lon="-2.602299000">
        <ele>423.80</ele>
        <time>2017-02-11T08:14:08Z</time>
      </trkpt>
      <trkpt lat="42.484725000" lon="-2.602312000">
        <ele>424.00</ele>
        <time>2017-02-11T08:14:09Z</time>
      </trkpt>
      <trkpt lat="42.484685000" lon="-2.602328000">
        <ele>424.10</ele>
        <time>2017-02-11T08:14:10Z</time>
      </trkpt>
      <trkpt lat="42.484646000" lon="-2.602339000">
        <ele>424.10</ele>
        <time>2017-02-11T08:14:11Z</time>
      </trkpt>
      <trkpt lat="42.484604000" lon="-2.602353000">
        <ele>424.20</ele>
        <time>2017-02-11T08:14:12Z</time>
      </trkpt>
      <trkpt lat="42.484567000" lon="-2.602370000">
        <ele>424.20</ele>
        <time>2017-02-11T08:14:13Z</time>
      </trkpt>
      <trkpt lat="42.484530000" lon="-2.602386000">
        <ele>424.20</ele>
        <time>2017-02-11T08:14:14Z</time>
      </trkpt>
      <trkpt lat="42.484496000" lon="-2.602398000">
        <ele>424.20</ele>
        <time>2017-02-11T08:14:15Z</time>
      </trkpt>
      <trkpt lat="42.484462000" lon="-2.602413000">
        <ele>424.20</ele>
        <time>2017-02-11T08:14:16Z</time>
      </trkpt>
      <trkpt lat="42.484430000" lon="-2.602425000">
        <ele>424.20</ele>
        <time>2017-02-11T08:14:17Z</time>
      </trkpt>
      <trkpt lat="42.484396000" lon="-2.602442000">
        <ele>424.20</ele>
        <time>2017-02-11T08:14:18Z</time>
      </trkpt>
      <trkpt lat="42.484361000" lon="-2.602459000">
        <ele>424.10</ele>
        <time>2017-02-11T08:14:19Z</time>
      </trkpt>
      <trkpt lat="42.484325000" lon="-2.602478000">
        <ele>424.10</ele>
        <time>2017-02-11T08:14:20Z</time>
      </trkpt>
      <trkpt lat="42.484290000" lon="-2.602494000">
        <ele>424.10</ele>
        <time>2017-02-11T08:14:21Z</time>
      </trkpt>
      <trkpt lat="42.484257000" lon="-2.602512000">
        <ele>424.00</ele>
        <time>2017-02-11T08:14:22Z</time>
      </trkpt>
      <trkpt lat="42.484221000" lon="-2.602528000">
        <ele>423.90</ele>
        <time>2017-02-11T08:14:23Z</time>
      </trkpt>
      <trkpt lat="42.484186000" lon="-2.602546000">
        <ele>423.90</ele>
        <time>2017-02-11T08:14:24Z</time>
      </trkpt>
      <trkpt lat="42.484147000" lon="-2.602563000">
        <ele>423.70</ele>
        <time>2017-02-11T08:14:25Z</time>
      </trkpt>
      <trkpt lat="42.484110000" lon="-2.602582000">
        <ele>423.60</ele>
        <time>2017-02-11T08:14:26Z</time>
      </trkpt>
      <trkpt lat="42.484072000" lon="-2.602602000">
        <ele>423.50</ele>
        <time>2017-02-11T08:14:27Z</time>
      </trkpt>
      <trkpt lat="42.484033000" lon="-2.602621000">
        <ele>423.40</ele>
        <time>2017-02-11T08:14:28Z</time>
      </trkpt>
      <trkpt lat="42.483992000" lon="-2.602639000">
        <ele>423.20</ele>
        <time>2017-02-11T08:14:29Z</time>
      </trkpt>
      <trkpt lat="42.483951000" lon="-2.602655000">
        <ele>423.10</ele>
        <time>2017-02-11T08:14:30Z</time>
      </trkpt>
      <trkpt lat="42.483910000" lon="-2.602674000">
        <ele>423.00</ele>
        <time>2017-02-11T08:14:31Z</time>
      </trkpt>
      <trkpt lat="42.483866000" lon="-2.602698000">
        <ele>422.90</ele>
        <time>2017-02-11T08:14:32Z</time>
      </trkpt>
      <trkpt lat="42.483827000" lon="-2.602717000">
        <ele>422.70</ele>
        <time>2017-02-11T08:14:33Z</time>
      </trkpt>
      <trkpt lat="42.483788000" lon="-2.602738000">
        <ele>422.50</ele>
        <time>2017-02-11T08:14:34Z</time>
      </trkpt>
      <trkpt lat="42.483750000" lon="-2.602759000">
        <ele>422.40</ele>
        <time>2017-02-11T08:14:35Z</time>
      </trkpt>
      <trkpt lat="42.483710000" lon="-2.602782000">
        <ele>422.30</ele>
        <time>2017-02-11T08:14:36Z</time>
      </trkpt>
      <trkpt lat="42.483669000" lon="-2.602808000">
        <ele>422.10</ele>
        <time>2017-02-11T08:14:37Z</time>
      </trkpt>
      <trkpt lat="42.483582000" lon="-2.602843000">
        <ele>422.00</ele>
        <time>2017-02-11T08:14:39Z</time>
      </trkpt>
      <trkpt lat="42.483538000" lon="-2.602858000">
        <ele>422.00</ele>
        <time>2017-02-11T08:14:40Z</time>
      </trkpt>
      <trkpt lat="42.483500000" lon="-2.602869000">
        <ele>422.00</ele>
        <time>2017-02-11T08:14:41Z</time>
      </trkpt>
      <trkpt lat="42.483464000" lon="-2.602880000">
        <ele>422.00</ele>
        <time>2017-02-11T08:14:42Z</time>
      </trkpt>
      <trkpt lat="42.483427000" lon="-2.602890000">
        <ele>422.00</ele>
        <time>2017-02-11T08:14:43Z</time>
      </trkpt>
      <trkpt lat="42.483392000" lon="-2.602899000">
        <ele>422.00</ele>
        <time>2017-02-11T08:14:44Z</time>
      </trkpt>
      <trkpt lat="42.483353000" lon="-2.602910000">
        <ele>421.70</ele>
        <time>2017-02-11T08:14:45Z</time>
      </trkpt>
      <trkpt lat="42.483318000" lon="-2.602921000">
        <ele>421.50</ele>
        <time>2017-02-11T08:14:46Z</time>
      </trkpt>
      <trkpt lat="42.483284000" lon="-2.602933000">
        <ele>421.40</ele>
        <time>2017-02-11T08:14:47Z</time>
      </trkpt>
      <trkpt lat="42.483247000" lon="-2.602948000">
        <ele>421.30</ele>
        <time>2017-02-11T08:14:48Z</time>
      </trkpt>
      <trkpt lat="42.483213000" lon="-2.602961000">
        <ele>421.50</ele>
        <time>2017-02-11T08:14:49Z</time>
      </trkpt>
      <trkpt lat="42.483180000" lon="-2.602981000">
        <ele>421.70</ele>
        <time>2017-02-11T08:14:50Z</time>
      </trkpt>
      <trkpt lat="42.483144000" lon="-2.602995000">
        <ele>422.00</ele>
        <time>2017-02-11T08:14:51Z</time>
      </trkpt>
      <trkpt lat="42.483107000" lon="-2.603005000">
        <ele>422.30</ele>
        <time>2017-02-11T08:14:52Z</time>
      </trkpt>
      <trkpt lat="42.483071000" lon="-2.603019000">
        <ele>422.50</ele>
        <time>2017-02-11T08:14:53Z</time>
      </trkpt>
      <trkpt lat="42.483034000" lon="-2.603034000">
        <ele>422.60</ele>
        <time>2017-02-11T08:14:54Z</time>
      </trkpt>
      <trkpt lat="42.483000000" lon="-2.603048000">
        <ele>422.60</ele>
        <time>2017-02-11T08:14:55Z</time>
      </trkpt>
      <trkpt lat="42.482963000" lon="-2.603068000">
        <ele>422.70</ele>
        <time>2017-02-11T08:14:56Z</time>
      </trkpt>
      <trkpt lat="42.482928000" lon="-2.603086000">
        <ele>422.70</ele>
        <time>2017-02-11T08:14:57Z</time>
      </trkpt>
      <trkpt lat="42.482892000" lon="-2.603103000">
        <ele>422.70</ele>
        <time>2017-02-11T08:14:58Z</time>
      </trkpt>
      <trkpt lat="42.482855000" lon="-2.603122000">
        <ele>422.70</ele>
        <time>2017-02-11T08:14:59Z</time>
      </trkpt>
      <trkpt lat="42.482817000" lon="-2.603144000">
        <ele>422.70</ele>
        <time>2017-02-11T08:15:00Z</time>
      </trkpt>
      <trkpt lat="42.482779000" lon="-2.603166000">
        <ele>423.00</ele>
        <time>2017-02-11T08:15:01Z</time>
      </trkpt>
      <trkpt lat="42.482741000" lon="-2.603188000">
        <ele>423.20</ele>
        <time>2017-02-11T08:15:02Z</time>
      </trkpt>
      <trkpt lat="42.482701000" lon="-2.603210000">
        <ele>423.30</ele>
        <time>2017-02-11T08:15:03Z</time>
      </trkpt>
      <trkpt lat="42.482660000" lon="-2.603228000">
        <ele>423.40</ele>
        <time>2017-02-11T08:15:04Z</time>
      </trkpt>
      <trkpt lat="42.482620000" lon="-2.603244000">
        <ele>423.60</ele>
        <time>2017-02-11T08:15:05Z</time>
      </trkpt>
      <trkpt lat="42.482584000" lon="-2.603257000">
        <ele>423.70</ele>
        <time>2017-02-11T08:15:06Z</time>
      </trkpt>
      <trkpt lat="42.482548000" lon="-2.603273000">
        <ele>423.70</ele>
        <time>2017-02-11T08:15:07Z</time>
      </trkpt>
      <trkpt lat="42.482510000" lon="-2.603289000">
        <ele>423.70</ele>
        <time>2017-02-11T08:15:08Z</time>
      </trkpt>
      <trkpt lat="42.482473000" lon="-2.603306000">
        <ele>423.90</ele>
        <time>2017-02-11T08:15:09Z</time>
      </trkpt>
      <trkpt lat="42.482438000" lon="-2.603321000">
        <ele>424.00</ele>
        <time>2017-02-11T08:15:10Z</time>
      </trkpt>
      <trkpt lat="42.482400000" lon="-2.603332000">
        <ele>424.00</ele>
        <time>2017-02-11T08:15:11Z</time>
      </trkpt>
      <trkpt lat="42.482362000" lon="-2.603344000">
        <ele>424.00</ele>
        <time>2017-02-11T08:15:12Z</time>
      </trkpt>
      <trkpt lat="42.482325000" lon="-2.603356000">
        <ele>424.10</ele>
        <time>2017-02-11T08:15:13Z</time>
      </trkpt>
      <trkpt lat="42.482285000" lon="-2.603368000">
        <ele>424.10</ele>
        <time>2017-02-11T08:15:14Z</time>
      </trkpt>
      <trkpt lat="42.482243000" lon="-2.603375000">
        <ele>424.20</ele>
        <time>2017-02-11T08:15:15Z</time>
      </trkpt>
      <trkpt lat="42.482205000" lon="-2.603385000">
        <ele>424.20</ele>
        <time>2017-02-11T08:15:16Z</time>
      </trkpt>
      <trkpt lat="42.482165000" lon="-2.603395000">
        <ele>424.80</ele>
        <time>2017-02-11T08:15:17Z</time>
      </trkpt>
      <trkpt lat="42.482123000" lon="-2.603405000">
        <ele>425.30</ele>
        <time>2017-02-11T08:15:18Z</time>
      </trkpt>
      <trkpt lat="42.482080000" lon="-2.603414000">
        <ele>425.70</ele>
        <time>2017-02-11T08:15:19Z</time>
      </trkpt>
      <trkpt lat="42.482036000" lon="-2.603423000">
        <ele>425.90</ele>
        <time>2017-02-11T08:15:20Z</time>
      </trkpt>
      <trkpt lat="42.481990000" lon="-2.603433000">
        <ele>425.70</ele>
        <time>2017-02-11T08:15:21Z</time>
      </trkpt>
      <trkpt lat="42.481943000" lon="-2.603442000">
        <ele>425.50</ele>
        <time>2017-02-11T08:15:22Z</time>
      </trkpt>
      <trkpt lat="42.481896000" lon="-2.603450000">
        <ele>425.40</ele>
        <time>2017-02-11T08:15:23Z</time>
      </trkpt>
      <trkpt lat="42.481849000" lon="-2.603460000">
        <ele>425.30</ele>
        <time>2017-02-11T08:15:24Z</time>
      </trkpt>
      <trkpt lat="42.481806000" lon="-2.603472000">
        <ele>425.10</ele>
        <time>2017-02-11T08:15:25Z</time>
      </trkpt>
      <trkpt lat="42.481763000" lon="-2.603481000">
        <ele>424.90</ele>
        <time>2017-02-11T08:15:26Z</time>
      </trkpt>
      <trkpt lat="42.481721000" lon="-2.603496000">
        <ele>424.90</ele>
        <time>2017-02-11T08:15:27Z</time>
      </trkpt>
      <trkpt lat="42.481679000" lon="-2.603502000">
        <ele>424.80</ele>
        <time>2017-02-11T08:15:28Z</time>
      </trkpt>
      <trkpt lat="42.481639000" lon="-2.603516000">
        <ele>424.80</ele>
        <time>2017-02-11T08:15:29Z</time>
      </trkpt>
      <trkpt lat="42.481601000" lon="-2.603526000">
        <ele>424.70</ele>
        <time>2017-02-11T08:15:30Z</time>
      </trkpt>
      <trkpt lat="42.481563000" lon="-2.603535000">
        <ele>424.30</ele>
        <time>2017-02-11T08:15:31Z</time>
      </trkpt>
      <trkpt lat="42.481526000" lon="-2.603542000">
        <ele>424.00</ele>
        <time>2017-02-11T08:15:32Z</time>
      </trkpt>
      <trkpt lat="42.481491000" lon="-2.603550000">
        <ele>423.60</ele>
        <time>2017-02-11T08:15:33Z</time>
      </trkpt>
      <trkpt lat="42.481456000" lon="-2.603560000">
        <ele>423.20</ele>
        <time>2017-02-11T08:15:34Z</time>
      </trkpt>
      <trkpt lat="42.481420000" lon="-2.603568000">
        <ele>423.20</ele>
        <time>2017-02-11T08:15:35Z</time>
      </trkpt>
      <trkpt lat="42.481382000" lon="-2.603574000">
        <ele>423.20</ele>
        <time>2017-02-11T08:15:36Z</time>
      </trkpt>
      <trkpt lat="42.481340000" lon="-2.603578000">
        <ele>423.60</ele>
        <time>2017-02-11T08:15:37Z</time>
      </trkpt>
      <trkpt lat="42.481300000" lon="-2.603584000">
        <ele>423.90</ele>
        <time>2017-02-11T08:15:38Z</time>
      </trkpt>
      <trkpt lat="42.481222000" lon="-2.603595000">
        <ele>424.30</ele>
        <time>2017-02-11T08:15:40Z</time>
      </trkpt>
      <trkpt lat="42.481184000" lon="-2.603600000">
        <ele>424.50</ele>
        <time>2017-02-11T08:15:41Z</time>
      </trkpt>
      <trkpt lat="42.481148000" lon="-2.603609000">
        <ele>424.70</ele>
        <time>2017-02-11T08:15:42Z</time>
      </trkpt>
      <trkpt lat="42.481110000" lon="-2.603614000">
        <ele>424.80</ele>
        <time>2017-02-11T08:15:43Z</time>
      </trkpt>
      <trkpt lat="42.481070000" lon="-2.603622000">
        <ele>424.90</ele>
        <time>2017-02-11T08:15:44Z</time>
      </trkpt>
      <trkpt lat="42.481031000" lon="-2.603632000">
        <ele>424.90</ele>
        <time>2017-02-11T08:15:45Z</time>
      </trkpt>
      <trkpt lat="42.480994000" lon="-2.603642000">
        <ele>425.00</ele>
        <time>2017-02-11T08:15:46Z</time>
      </trkpt>
      <trkpt lat="42.480959000" lon="-2.603659000">
        <ele>424.90</ele>
        <time>2017-02-11T08:15:47Z</time>
      </trkpt>
      <trkpt lat="42.480926000" lon="-2.603682000">
        <ele>424.80</ele>
        <time>2017-02-11T08:15:48Z</time>
      </trkpt>
      <trkpt lat="42.480898000" lon="-2.603713000">
        <ele>424.60</ele>
        <time>2017-02-11T08:15:49Z</time>
      </trkpt>
      <trkpt lat="42.480876000" lon="-2.603751000">
        <ele>424.50</ele>
        <time>2017-02-11T08:15:50Z</time>
      </trkpt>
      <trkpt lat="42.480852000" lon="-2.603783000">
        <ele>424.40</ele>
        <time>2017-02-11T08:15:51Z</time>
      </trkpt>
      <trkpt lat="42.480831000" lon="-2.603820000">
        <ele>424.40</ele>
        <time>2017-02-11T08:15:52Z</time>
      </trkpt>
      <trkpt lat="42.480815000" lon="-2.603865000">
        <ele>424.10</ele>
        <time>2017-02-11T08:15:53Z</time>
      </trkpt>
      <trkpt lat="42.480798000" lon="-2.603909000">
        <ele>423.90</ele>
        <time>2017-02-11T08:15:54Z</time>
      </trkpt>
      <trkpt lat="42.480780000" lon="-2.603955000">
        <ele>423.60</ele>
        <time>2017-02-11T08:15:55Z</time>
      </trkpt>
      <trkpt lat="42.480759000" lon="-2.604001000">
        <ele>423.40</ele>
        <time>2017-02-11T08:15:56Z</time>
      </trkpt>
      <trkpt lat="42.480734000" lon="-2.604048000">
        <ele>423.30</ele>
        <time>2017-02-11T08:15:57Z</time>
      </trkpt>
      <trkpt lat="42.480719000" lon="-2.604100000">
        <ele>423.20</ele>
        <time>2017-02-11T08:15:58Z</time>
      </trkpt>
      <trkpt lat="42.480696000" lon="-2.604150000">
        <ele>423.10</ele>
        <time>2017-02-11T08:15:59Z</time>
      </trkpt>
      <trkpt lat="42.480676000" lon="-2.604201000">
        <ele>423.00</ele>
        <time>2017-02-11T08:16:00Z</time>
      </trkpt>
      <trkpt lat="42.480656000" lon="-2.604249000">
        <ele>422.80</ele>
        <time>2017-02-11T08:16:01Z</time>
      </trkpt>
      <trkpt lat="42.480636000" lon="-2.604299000">
        <ele>422.70</ele>
        <time>2017-02-11T08:16:02Z</time>
      </trkpt>
      <trkpt lat="42.480623000" lon="-2.604337000">
        <ele>422.60</ele>
        <time>2017-02-11T08:16:03Z</time>
      </trkpt>
      <trkpt lat="42.480610000" lon="-2.604380000">
        <ele>422.60</ele>
        <time>2017-02-11T08:16:04Z</time>
      </trkpt>
      <trkpt lat="42.480599000" lon="-2.604424000">
        <ele>422.50</ele>
        <time>2017-02-11T08:16:05Z</time>
      </trkpt>
      <trkpt lat="42.480583000" lon="-2.604464000">
        <ele>422.50</ele>
        <time>2017-02-11T08:16:06Z</time>
      </trkpt>
      <trkpt lat="42.480563000" lon="-2.604507000">
        <ele>422.50</ele>
        <time>2017-02-11T08:16:07Z</time>
      </trkpt>
      <trkpt lat="42.480537000" lon="-2.604547000">
        <ele>422.50</ele>
        <time>2017-02-11T08:16:08Z</time>
      </trkpt>
      <trkpt lat="42.480510000" lon="-2.604585000">
        <ele>422.40</ele>
        <time>2017-02-11T08:16:09Z</time>
      </trkpt>
      <trkpt lat="42.480483000" lon="-2.604626000">
        <ele>422.30</ele>
        <time>2017-02-11T08:16:10Z</time>
      </trkpt>
      <trkpt lat="42.480455000" lon="-2.604670000">
        <ele>422.30</ele>
        <time>2017-02-11T08:16:11Z</time>
      </trkpt>
      <trkpt lat="42.480426000" lon="-2.604716000">
        <ele>422.30</ele>
        <time>2017-02-11T08:16:12Z</time>
      </trkpt>
      <trkpt lat="42.480398000" lon="-2.604761000">
        <ele>422.40</ele>
        <time>2017-02-11T08:16:13Z</time>
      </trkpt>
      <trkpt lat="42.480368000" lon="-2.604802000">
        <ele>422.40</ele>
        <time>2017-02-11T08:16:14Z</time>
      </trkpt>
      <trkpt lat="42.480339000" lon="-2.604840000">
        <ele>422.40</ele>
        <time>2017-02-11T08:16:15Z</time>
      </trkpt>
      <trkpt lat="42.480308000" lon="-2.604877000">
        <ele>422.40</ele>
        <time>2017-02-11T08:16:16Z</time>
      </trkpt>
      <trkpt lat="42.480274000" lon="-2.604914000">
        <ele>422.40</ele>
        <time>2017-02-11T08:16:17Z</time>
      </trkpt>
      <trkpt lat="42.480239000" lon="-2.604951000">
        <ele>422.40</ele>
        <time>2017-02-11T08:16:18Z</time>
      </trkpt>
      <trkpt lat="42.480202000" lon="-2.604988000">
        <ele>422.30</ele>
        <time>2017-02-11T08:16:19Z</time>
      </trkpt>
      <trkpt lat="42.480164000" lon="-2.605021000">
        <ele>422.30</ele>
        <time>2017-02-11T08:16:20Z</time>
      </trkpt>
      <trkpt lat="42.480124000" lon="-2.605050000">
        <ele>422.20</ele>
        <time>2017-02-11T08:16:21Z</time>
      </trkpt>
      <trkpt lat="42.480082000" lon="-2.605079000">
        <ele>422.10</ele>
        <time>2017-02-11T08:16:22Z</time>
      </trkpt>
      <trkpt lat="42.480041000" lon="-2.605108000">
        <ele>421.80</ele>
        <time>2017-02-11T08:16:23Z</time>
      </trkpt>
      <trkpt lat="42.479999000" lon="-2.605136000">
        <ele>421.50</ele>
        <time>2017-02-11T08:16:24Z</time>
      </trkpt>
      <trkpt lat="42.479956000" lon="-2.605163000">
        <ele>421.40</ele>
        <time>2017-02-11T08:16:25Z</time>
      </trkpt>
      <trkpt lat="42.479912000" lon="-2.605185000">
        <ele>421.20</ele>
        <time>2017-02-11T08:16:26Z</time>
      </trkpt>
      <trkpt lat="42.479870000" lon="-2.605211000">
        <ele>421.10</ele>
        <time>2017-02-11T08:16:27Z</time>
      </trkpt>
      <trkpt lat="42.479829000" lon="-2.605238000">
        <ele>421.10</ele>
        <time>2017-02-11T08:16:28Z</time>
      </trkpt>
      <trkpt lat="42.479786000" lon="-2.605266000">
        <ele>421.00</ele>
        <time>2017-02-11T08:16:29Z</time>
      </trkpt>
      <trkpt lat="42.479743000" lon="-2.605296000">
        <ele>421.00</ele>
        <time>2017-02-11T08:16:30Z</time>
      </trkpt>
      <trkpt lat="42.479697000" lon="-2.605326000">
        <ele>420.80</ele>
        <time>2017-02-11T08:16:31Z</time>
      </trkpt>
      <trkpt lat="42.479651000" lon="-2.605361000">
        <ele>420.70</ele>
        <time>2017-02-11T08:16:32Z</time>
      </trkpt>
      <trkpt lat="42.479607000" lon="-2.605402000">
        <ele>420.50</ele>
        <time>2017-02-11T08:16:33Z</time>
      </trkpt>
      <trkpt lat="42.479565000" lon="-2.605447000">
        <ele>420.40</ele>
        <time>2017-02-11T08:16:34Z</time>
      </trkpt>
      <trkpt lat="42.479528000" lon="-2.605495000">
        <ele>420.30</ele>
        <time>2017-02-11T08:16:35Z</time>
      </trkpt>
      <trkpt lat="42.479494000" lon="-2.605548000">
        <ele>420.30</ele>
        <time>2017-02-11T08:16:36Z</time>
      </trkpt>
      <trkpt lat="42.479466000" lon="-2.605607000">
        <ele>420.30</ele>
        <time>2017-02-11T08:16:37Z</time>
      </trkpt>
      <trkpt lat="42.479444000" lon="-2.605662000">
        <ele>420.30</ele>
        <time>2017-02-11T08:16:38Z</time>
      </trkpt>
      <trkpt lat="42.479425000" lon="-2.605718000">
        <ele>420.30</ele>
        <time>2017-02-11T08:16:39Z</time>
      </trkpt>
      <trkpt lat="42.479397000" lon="-2.605824000">
        <ele>420.10</ele>
        <time>2017-02-11T08:16:41Z</time>
      </trkpt>
      <trkpt lat="42.479378000" lon="-2.605876000">
        <ele>420.00</ele>
        <time>2017-02-11T08:16:42Z</time>
      </trkpt>
      <trkpt lat="42.479355000" lon="-2.605931000">
        <ele>419.90</ele>
        <time>2017-02-11T08:16:43Z</time>
      </trkpt>
      <trkpt lat="42.479325000" lon="-2.605974000">
        <ele>419.80</ele>
        <time>2017-02-11T08:16:44Z</time>
      </trkpt>
      <trkpt lat="42.479291000" lon="-2.606016000">
        <ele>420.00</ele>
        <time>2017-02-11T08:16:45Z</time>
      </trkpt>
      <trkpt lat="42.479254000" lon="-2.606051000">
        <ele>420.10</ele>
        <time>2017-02-11T08:16:46Z</time>
      </trkpt>
      <trkpt lat="42.479216000" lon="-2.606077000">
        <ele>420.40</ele>
        <time>2017-02-11T08:16:47Z</time>
      </trkpt>
      <trkpt lat="42.479175000" lon="-2.606099000">
        <ele>420.60</ele>
        <time>2017-02-11T08:16:48Z</time>
      </trkpt>
      <trkpt lat="42.479135000" lon="-2.606114000">
        <ele>420.80</ele>
        <time>2017-02-11T08:16:49Z</time>
      </trkpt>
      <trkpt lat="42.479095000" lon="-2.606125000">
        <ele>421.00</ele>
        <time>2017-02-11T08:16:50Z</time>
      </trkpt>
      <trkpt lat="42.479054000" lon="-2.606128000">
        <ele>421.10</ele>
        <time>2017-02-11T08:16:51Z</time>
      </trkpt>
      <trkpt lat="42.479014000" lon="-2.606122000">
        <ele>421.10</ele>
        <time>2017-02-11T08:16:52Z</time>
      </trkpt>
      <trkpt lat="42.478973000" lon="-2.606114000">
        <ele>420.90</ele>
        <time>2017-02-11T08:16:53Z</time>
      </trkpt>
      <trkpt lat="42.478932000" lon="-2.606105000">
        <ele>420.70</ele>
        <time>2017-02-11T08:16:54Z</time>
      </trkpt>
      <trkpt lat="42.478893000" lon="-2.606090000">
        <ele>420.80</ele>
        <time>2017-02-11T08:16:55Z</time>
      </trkpt>
      <trkpt lat="42.478855000" lon="-2.606076000">
        <ele>420.90</ele>
        <time>2017-02-11T08:16:56Z</time>
      </trkpt>
      <trkpt lat="42.478816000" lon="-2.606057000">
        <ele>421.00</ele>
        <time>2017-02-11T08:16:57Z</time>
      </trkpt>
      <trkpt lat="42.478777000" lon="-2.606037000">
        <ele>421.00</ele>
        <time>2017-02-11T08:16:58Z</time>
      </trkpt>
      <trkpt lat="42.478736000" lon="-2.606022000">
        <ele>421.40</ele>
        <time>2017-02-11T08:16:59Z</time>
      </trkpt>
      <trkpt lat="42.478698000" lon="-2.606009000">
        <ele>421.70</ele>
        <time>2017-02-11T08:17:00Z</time>
      </trkpt>
      <trkpt lat="42.478664000" lon="-2.605998000">
        <ele>421.90</ele>
        <time>2017-02-11T08:17:01Z</time>
      </trkpt>
      <trkpt lat="42.478629000" lon="-2.605983000">
        <ele>422.00</ele>
        <time>2017-02-11T08:17:02Z</time>
      </trkpt>
      <trkpt lat="42.478598000" lon="-2.605971000">
        <ele>422.00</ele>
        <time>2017-02-11T08:17:03Z</time>
      </trkpt>
      <trkpt lat="42.478569000" lon="-2.605960000">
        <ele>422.00</ele>
        <time>2017-02-11T08:17:04Z</time>
      </trkpt>
      <trkpt lat="42.478537000" lon="-2.605946000">
        <ele>421.90</ele>
        <time>2017-02-11T08:17:05Z</time>
      </trkpt>
      <trkpt lat="42.478504000" lon="-2.605934000">
        <ele>421.90</ele>
        <time>2017-02-11T08:17:06Z</time>
      </trkpt>
      <trkpt lat="42.478471000" lon="-2.605918000">
        <ele>421.90</ele>
        <time>2017-02-11T08:17:07Z</time>
      </trkpt>
      <trkpt lat="42.478436000" lon="-2.605901000">
        <ele>421.90</ele>
        <time>2017-02-11T08:17:08Z</time>
      </trkpt>
      <trkpt lat="42.478401000" lon="-2.605877000">
        <ele>422.00</ele>
        <time>2017-02-11T08:17:09Z</time>
      </trkpt>
      <trkpt lat="42.478368000" lon="-2.605846000">
        <ele>422.00</ele>
        <time>2017-02-11T08:17:10Z</time>
      </trkpt>
      <trkpt lat="42.478333000" lon="-2.605810000">
        <ele>422.10</ele>
        <time>2017-02-11T08:17:11Z</time>
      </trkpt>
      <trkpt lat="42.478302000" lon="-2.605769000">
        <ele>422.10</ele>
        <time>2017-02-11T08:17:12Z</time>
      </trkpt>
      <trkpt lat="42.478271000" lon="-2.605725000">
        <ele>422.10</ele>
        <time>2017-02-11T08:17:13Z</time>
      </trkpt>
      <trkpt lat="42.478242000" lon="-2.605673000">
        <ele>422.20</ele>
        <time>2017-02-11T08:17:14Z</time>
      </trkpt>
      <trkpt lat="42.478216000" lon="-2.605620000">
        <ele>422.00</ele>
        <time>2017-02-11T08:17:15Z</time>
      </trkpt>
      <trkpt lat="42.478194000" lon="-2.605565000">
        <ele>421.80</ele>
        <time>2017-02-11T08:17:16Z</time>
      </trkpt>
      <trkpt lat="42.478176000" lon="-2.605512000">
        <ele>421.70</ele>
        <time>2017-02-11T08:17:17Z</time>
      </trkpt>
      <trkpt lat="42.478157000" lon="-2.605457000">
        <ele>421.70</ele>
        <time>2017-02-11T08:17:18Z</time>
      </trkpt>
      <trkpt lat="42.478139000" lon="-2.605405000">
        <ele>421.60</ele>
        <time>2017-02-11T08:17:19Z</time>
      </trkpt>
      <trkpt lat="42.478118000" lon="-2.605353000">
        <ele>421.60</ele>
        <time>2017-02-11T08:17:20Z</time>
      </trkpt>
      <trkpt lat="42.478097000" lon="-2.605304000">
        <ele>421.70</ele>
        <time>2017-02-11T08:17:21Z</time>
      </trkpt>
      <trkpt lat="42.478077000" lon="-2.605253000">
        <ele>421.70</ele>
        <time>2017-02-11T08:17:22Z</time>
      </trkpt>
      <trkpt lat="42.478055000" lon="-2.605206000">
        <ele>421.80</ele>
        <time>2017-02-11T08:17:23Z</time>
      </trkpt>
      <trkpt lat="42.478030000" lon="-2.605162000">
        <ele>421.90</ele>
        <time>2017-02-11T08:17:24Z</time>
      </trkpt>
      <trkpt lat="42.478007000" lon="-2.605115000">
        <ele>421.90</ele>
        <time>2017-02-11T08:17:25Z</time>
      </trkpt>
      <trkpt lat="42.477982000" lon="-2.605066000">
        <ele>421.90</ele>
        <time>2017-02-11T08:17:26Z</time>
      </trkpt>
      <trkpt lat="42.477954000" lon="-2.605022000">
        <ele>422.00</ele>
        <time>2017-02-11T08:17:27Z</time>
      </trkpt>
      <trkpt lat="42.477927000" lon="-2.604975000">
        <ele>422.00</ele>
        <time>2017-02-11T08:17:28Z</time>
      </trkpt>
      <trkpt lat="42.477897000" lon="-2.604933000">
        <ele>422.00</ele>
        <time>2017-02-11T08:17:29Z</time>
      </trkpt>
      <trkpt lat="42.477866000" lon="-2.604893000">
        <ele>422.10</ele>
        <time>2017-02-11T08:17:30Z</time>
      </trkpt>
      <trkpt lat="42.477838000" lon="-2.604851000">
        <ele>422.10</ele>
        <time>2017-02-11T08:17:31Z</time>
      </trkpt>
      <trkpt lat="42.477806000" lon="-2.604810000">
        <ele>422.10</ele>
        <time>2017-02-11T08:17:32Z</time>
      </trkpt>
      <trkpt lat="42.477774000" lon="-2.604773000">
        <ele>422.10</ele>
        <time>2017-02-11T08:17:33Z</time>
      </trkpt>
      <trkpt lat="42.477743000" lon="-2.604737000">
        <ele>422.10</ele>
        <time>2017-02-11T08:17:34Z</time>
      </trkpt>
      <trkpt lat="42.477710000" lon="-2.604704000">
        <ele>422.20</ele>
        <time>2017-02-11T08:17:35Z</time>
      </trkpt>
      <trkpt lat="42.477674000" lon="-2.604674000">
        <ele>422.20</ele>
        <time>2017-02-11T08:17:36Z</time>
      </trkpt>
      <trkpt lat="42.477641000" lon="-2.604645000">
        <ele>422.50</ele>
        <time>2017-02-11T08:17:37Z</time>
      </trkpt>
      <trkpt lat="42.477606000" lon="-2.604617000">
        <ele>422.60</ele>
        <time>2017-02-11T08:17:38Z</time>
      </trkpt>
      <trkpt lat="42.477569000" lon="-2.604594000">
        <ele>422.90</ele>
        <time>2017-02-11T08:17:39Z</time>
      </trkpt>
      <trkpt lat="42.477531000" lon="-2.604571000">
        <ele>423.10</ele>
        <time>2017-02-11T08:17:40Z</time>
      </trkpt>
      <trkpt lat="42.477455000" lon="-2.604530000">
        <ele>423.40</ele>
        <time>2017-02-11T08:17:42Z</time>
      </trkpt>
      <trkpt lat="42.477413000" lon="-2.604511000">
        <ele>423.40</ele>
        <time>2017-02-11T08:17:43Z</time>
      </trkpt>
      <trkpt lat="42.477374000" lon="-2.604490000">
        <ele>423.50</ele>
        <time>2017-02-11T08:17:44Z</time>
      </trkpt>
      <trkpt lat="42.477331000" lon="-2.604469000">
        <ele>423.60</ele>
        <time>2017-02-11T08:17:45Z</time>
      </trkpt>
      <trkpt lat="42.477290000" lon="-2.604452000">
        <ele>423.60</ele>
        <time>2017-02-11T08:17:46Z</time>
      </trkpt>
      <trkpt lat="42.477251000" lon="-2.604430000">
        <ele>423.70</ele>
        <time>2017-02-11T08:17:47Z</time>
      </trkpt>
      <trkpt lat="42.477209000" lon="-2.604404000">
        <ele>423.70</ele>
        <time>2017-02-11T08:17:48Z</time>
      </trkpt>
      <trkpt lat="42.477166000" lon="-2.604375000">
        <ele>423.80</ele>
        <time>2017-02-11T08:17:49Z</time>
      </trkpt>
      <trkpt lat="42.477126000" lon="-2.604344000">
        <ele>423.90</ele>
        <time>2017-02-11T08:17:50Z</time>
      </trkpt>
      <trkpt lat="42.477086000" lon="-2.604314000">
        <ele>424.00</ele>
        <time>2017-02-11T08:17:51Z</time>
      </trkpt>
      <trkpt lat="42.477046000" lon="-2.604278000">
        <ele>424.00</ele>
        <time>2017-02-11T08:17:52Z</time>
      </trkpt>
      <trkpt lat="42.477007000" lon="-2.604243000">
        <ele>424.00</ele>
        <time>2017-02-11T08:17:53Z</time>
      </trkpt>
      <trkpt lat="42.476967000" lon="-2.604212000">
        <ele>423.90</ele>
        <time>2017-02-11T08:17:54Z</time>
      </trkpt>
      <trkpt lat="42.476929000" lon="-2.604177000">
        <ele>423.90</ele>
        <time>2017-02-11T08:17:55Z</time>
      </trkpt>
      <trkpt lat="42.476887000" lon="-2.604147000">
        <ele>423.80</ele>
        <time>2017-02-11T08:17:56Z</time>
      </trkpt>
      <trkpt lat="42.476845000" lon="-2.604119000">
        <ele>423.70</ele>
        <time>2017-02-11T08:17:57Z</time>
      </trkpt>
      <trkpt lat="42.476804000" lon="-2.604093000">
        <ele>423.60</ele>
        <time>2017-02-11T08:17:58Z</time>
      </trkpt>
      <trkpt lat="42.476765000" lon="-2.604065000">
        <ele>423.40</ele>
        <time>2017-02-11T08:17:59Z</time>
      </trkpt>
      <trkpt lat="42.476727000" lon="-2.604045000">
        <ele>423.30</ele>
        <time>2017-02-11T08:18:00Z</time>
      </trkpt>
      <trkpt lat="42.476687000" lon="-2.604027000">
        <ele>423.10</ele>
        <time>2017-02-11T08:18:01Z</time>
      </trkpt>
      <trkpt lat="42.476647000" lon="-2.604007000">
        <ele>422.90</ele>
        <time>2017-02-11T08:18:02Z</time>
      </trkpt>
      <trkpt lat="42.476605000" lon="-2.603989000">
        <ele>422.80</ele>
        <time>2017-02-11T08:18:03Z</time>
      </trkpt>
      <trkpt lat="42.476562000" lon="-2.603974000">
        <ele>422.70</ele>
        <time>2017-02-11T08:18:04Z</time>
      </trkpt>
      <trkpt lat="42.476518000" lon="-2.603959000">
        <ele>422.70</ele>
        <time>2017-02-11T08:18:05Z</time>
      </trkpt>
      <trkpt lat="42.476477000" lon="-2.603944000">
        <ele>422.70</ele>
        <time>2017-02-11T08:18:06Z</time>
      </trkpt>
      <trkpt lat="42.476439000" lon="-2.603928000">
        <ele>422.70</ele>
        <time>2017-02-11T08:18:07Z</time>
      </trkpt>
      <trkpt lat="42.476397000" lon="-2.603915000">
        <ele>422.70</ele>
        <time>2017-02-11T08:18:08Z</time>
      </trkpt>
      <trkpt lat="42.476354000" lon="-2.603898000">
        <ele>422.60</ele>
        <time>2017-02-11T08:18:09Z</time>
      </trkpt>
      <trkpt lat="42.476310000" lon="-2.603886000">
        <ele>422.60</ele>
        <time>2017-02-11T08:18:10Z</time>
      </trkpt>
      <trkpt lat="42.476268000" lon="-2.603870000">
        <ele>422.60</ele>
        <time>2017-02-11T08:18:11Z</time>
      </trkpt>
      <trkpt lat="42.476226000" lon="-2.603852000">
        <ele>422.60</ele>
        <time>2017-02-11T08:18:12Z</time>
      </trkpt>
      <trkpt lat="42.476178000" lon="-2.603837000">
        <ele>422.40</ele>
        <time>2017-02-11T08:18:13Z</time>
      </trkpt>
      <trkpt lat="42.476134000" lon="-2.603823000">
        <ele>422.30</ele>
        <time>2017-02-11T08:18:14Z</time>
      </trkpt>
      <trkpt lat="42.476089000" lon="-2.603814000">
        <ele>422.20</ele>
        <time>2017-02-11T08:18:15Z</time>
      </trkpt>
      <trkpt lat="42.476043000" lon="-2.603808000">
        <ele>422.10</ele>
        <time>2017-02-11T08:18:16Z</time>
      </trkpt>
      <trkpt lat="42.475997000" lon="-2.603805000">
        <ele>422.00</ele>
        <time>2017-02-11T08:18:17Z</time>
      </trkpt>
      <trkpt lat="42.475950000" lon="-2.603802000">
        <ele>422.00</ele>
        <time>2017-02-11T08:18:18Z</time>
      </trkpt>
      <trkpt lat="42.475902000" lon="-2.603797000">
        <ele>422.10</ele>
        <time>2017-02-11T08:18:19Z</time>
      </trkpt>
      <trkpt lat="42.475855000" lon="-2.603791000">
        <ele>422.20</ele>
        <time>2017-02-11T08:18:20Z</time>
      </trkpt>
      <trkpt lat="42.475808000" lon="-2.603785000">
        <ele>422.30</ele>
        <time>2017-02-11T08:18:21Z</time>
      </trkpt>
      <trkpt lat="42.475763000" lon="-2.603786000">
        <ele>422.40</ele>
        <time>2017-02-11T08:18:22Z</time>
      </trkpt>
      <trkpt lat="42.475715000" lon="-2.603787000">
        <ele>422.20</ele>
        <time>2017-02-11T08:18:23Z</time>
      </trkpt>
      <trkpt lat="42.475669000" lon="-2.603785000">
        <ele>422.10</ele>
        <time>2017-02-11T08:18:24Z</time>
      </trkpt>
      <trkpt lat="42.475623000" lon="-2.603785000">
        <ele>422.00</ele>
        <time>2017-02-11T08:18:25Z</time>
      </trkpt>
      <trkpt lat="42.475576000" lon="-2.603783000">
        <ele>422.00</ele>
        <time>2017-02-11T08:18:26Z</time>
      </trkpt>
      <trkpt lat="42.475532000" lon="-2.603784000">
        <ele>421.90</ele>
        <time>2017-02-11T08:18:27Z</time>
      </trkpt>
      <trkpt lat="42.475489000" lon="-2.603783000">
        <ele>421.80</ele>
        <time>2017-02-11T08:18:28Z</time>
      </trkpt>
      <trkpt lat="42.475449000" lon="-2.603783000">
        <ele>421.80</ele>
        <time>2017-02-11T08:18:29Z</time>
      </trkpt>
      <trkpt lat="42.475409000" lon="-2.603786000">
        <ele>421.80</ele>
        <time>2017-02-11T08:18:30Z</time>
      </trkpt>
      <trkpt lat="42.475368000" lon="-2.603786000">
        <ele>422.40</ele>
        <time>2017-02-11T08:18:31Z</time>
      </trkpt>
      <trkpt lat="42.475327000" lon="-2.603788000">
        <ele>422.80</ele>
        <time>2017-02-11T08:18:32Z</time>
      </trkpt>
      <trkpt lat="42.475285000" lon="-2.603781000">
        <ele>423.10</ele>
        <time>2017-02-11T08:18:33Z</time>
      </trkpt>
      <trkpt lat="42.475245000" lon="-2.603761000">
        <ele>423.40</ele>
        <time>2017-02-11T08:18:34Z</time>
      </trkpt>
      <trkpt lat="42.475205000" lon="-2.603740000">
        <ele>423.20</ele>
        <time>2017-02-11T08:18:35Z</time>
      </trkpt>
      <trkpt lat="42.475167000" lon="-2.603704000">
        <ele>423.10</ele>
        <time>2017-02-11T08:18:36Z</time>
      </trkpt>
      <trkpt lat="42.475136000" lon="-2.603662000">
        <ele>422.90</ele>
        <time>2017-02-11T08:18:37Z</time>
      </trkpt>
      <trkpt lat="42.475113000" lon="-2.603613000">
        <ele>422.70</ele>
        <time>2017-02-11T08:18:38Z</time>
      </trkpt>
      <trkpt lat="42.475101000" lon="-2.603557000">
        <ele>422.10</ele>
        <time>2017-02-11T08:18:39Z</time>
      </trkpt>
      <trkpt lat="42.475093000" lon="-2.603488000">
        <ele>421.60</ele>
        <time>2017-02-11T08:18:40Z</time>
      </trkpt>
      <trkpt lat="42.475092000" lon="-2.603410000">
        <ele>420.80</ele>
        <time>2017-02-11T08:18:41Z</time>
      </trkpt>
      <trkpt lat="42.475108000" lon="-2.603231000">
        <ele>419.80</ele>
        <time>2017-02-11T08:18:43Z</time>
      </trkpt>
      <trkpt lat="42.475121000" lon="-2.603138000">
        <ele>419.50</ele>
        <time>2017-02-11T08:18:44Z</time>
      </trkpt>
      <trkpt lat="42.475124000" lon="-2.603057000">
        <ele>419.00</ele>
        <time>2017-02-11T08:18:45Z</time>
      </trkpt>
      <trkpt lat="42.475110000" lon="-2.602985000">
        <ele>418.60</ele>
        <time>2017-02-11T08:18:46Z</time>
      </trkpt>
      <trkpt lat="42.475083000" lon="-2.602917000">
        <ele>417.90</ele>
        <time>2017-02-11T08:18:47Z</time>
      </trkpt>
      <trkpt lat="42.475044000" lon="-2.602862000">
        <ele>417.30</ele>
        <time>2017-02-11T08:18:48Z</time>
      </trkpt>
      <trkpt lat="42.474997000" lon="-2.602822000">
        <ele>416.90</ele>
        <time>2017-02-11T08:18:49Z</time>
      </trkpt>
      <trkpt lat="42.474943000" lon="-2.602791000">
        <ele>416.60</ele>
        <time>2017-02-11T08:18:50Z</time>
      </trkpt>
      <trkpt lat="42.474883000" lon="-2.602762000">
        <ele>416.60</ele>
        <time>2017-02-11T08:18:51Z</time>
      </trkpt>
      <trkpt lat="42.474828000" lon="-2.602742000">
        <ele>416.60</ele>
        <time>2017-02-11T08:18:52Z</time>
      </trkpt>
      <trkpt lat="42.474770000" lon="-2.602722000">
        <ele>416.90</ele>
        <time>2017-02-11T08:18:53Z</time>
      </trkpt>
      <trkpt lat="42.474712000" lon="-2.602709000">
        <ele>417.10</ele>
        <time>2017-02-11T08:18:54Z</time>
      </trkpt>
      <trkpt lat="42.474655000" lon="-2.602696000">
        <ele>416.90</ele>
        <time>2017-02-11T08:18:55Z</time>
      </trkpt>
      <trkpt lat="42.474599000" lon="-2.602686000">
        <ele>416.80</ele>
        <time>2017-02-11T08:18:56Z</time>
      </trkpt>
      <trkpt lat="42.474542000" lon="-2.602678000">
        <ele>416.60</ele>
        <time>2017-02-11T08:18:57Z</time>
      </trkpt>
      <trkpt lat="42.474486000" lon="-2.602668000">
        <ele>416.50</ele>
        <time>2017-02-11T08:18:58Z</time>
      </trkpt>
      <trkpt lat="42.474427000" lon="-2.602661000">
        <ele>416.30</ele>
        <time>2017-02-11T08:18:59Z</time>
      </trkpt>
      <trkpt lat="42.474367000" lon="-2.602650000">
        <ele>416.20</ele>
        <time>2017-02-11T08:19:00Z</time>
      </trkpt>
      <trkpt lat="42.474308000" lon="-2.602637000">
        <ele>416.00</ele>
        <time>2017-02-11T08:19:01Z</time>
      </trkpt>
      <trkpt lat="42.474251000" lon="-2.602626000">
        <ele>415.80</ele>
        <time>2017-02-11T08:19:02Z</time>
      </trkpt>
      <trkpt lat="42.474193000" lon="-2.602614000">
        <ele>415.60</ele>
        <time>2017-02-11T08:19:03Z</time>
      </trkpt>
      <trkpt lat="42.474138000" lon="-2.602606000">
        <ele>415.50</ele>
        <time>2017-02-11T08:19:04Z</time>
      </trkpt>
      <trkpt lat="42.474085000" lon="-2.602593000">
        <ele>415.50</ele>
        <time>2017-02-11T08:19:05Z</time>
      </trkpt>
      <trkpt lat="42.474034000" lon="-2.602587000">
        <ele>415.40</ele>
        <time>2017-02-11T08:19:06Z</time>
      </trkpt>
      <trkpt lat="42.473984000" lon="-2.602579000">
        <ele>415.30</ele>
        <time>2017-02-11T08:19:07Z</time>
      </trkpt>
      <trkpt lat="42.473933000" lon="-2.602566000">
        <ele>415.30</ele>
        <time>2017-02-11T08:19:08Z</time>
      </trkpt>
      <trkpt lat="42.473881000" lon="-2.602555000">
        <ele>414.90</ele>
        <time>2017-02-11T08:19:09Z</time>
      </trkpt>
      <trkpt lat="42.473829000" lon="-2.602546000">
        <ele>414.60</ele>
        <time>2017-02-11T08:19:10Z</time>
      </trkpt>
      <trkpt lat="42.473777000" lon="-2.602541000">
        <ele>414.30</ele>
        <time>2017-02-11T08:19:11Z</time>
      </trkpt>
      <trkpt lat="42.473724000" lon="-2.602535000">
        <ele>414.20</ele>
        <time>2017-02-11T08:19:12Z</time>
      </trkpt>
      <trkpt lat="42.473673000" lon="-2.602526000">
        <ele>414.00</ele>
        <time>2017-02-11T08:19:13Z</time>
      </trkpt>
      <trkpt lat="42.473619000" lon="-2.602521000">
        <ele>413.80</ele>
        <time>2017-02-11T08:19:14Z</time>
      </trkpt>
      <trkpt lat="42.473565000" lon="-2.602515000">
        <ele>413.70</ele>
        <time>2017-02-11T08:19:15Z</time>
      </trkpt>
      <trkpt lat="42.473516000" lon="-2.602505000">
        <ele>413.50</ele>
        <time>2017-02-11T08:19:16Z</time>
      </trkpt>
      <trkpt lat="42.473466000" lon="-2.602492000">
        <ele>413.40</ele>
        <time>2017-02-11T08:19:17Z</time>
      </trkpt>
      <trkpt lat="42.473418000" lon="-2.602480000">
        <ele>413.30</ele>
        <time>2017-02-11T08:19:18Z</time>
      </trkpt>
      <trkpt lat="42.473365000" lon="-2.602472000">
        <ele>413.30</ele>
        <time>2017-02-11T08:19:19Z</time>
      </trkpt>
      <trkpt lat="42.473316000" lon="-2.602463000">
        <ele>413.30</ele>
        <time>2017-02-11T08:19:20Z</time>
      </trkpt>
      <trkpt lat="42.473270000" lon="-2.602453000">
        <ele>413.10</ele>
        <time>2017-02-11T08:19:21Z</time>
      </trkpt>
      <trkpt lat="42.473226000" lon="-2.602442000">
        <ele>413.00</ele>
        <time>2017-02-11T08:19:22Z</time>
      </trkpt>
      <trkpt lat="42.473183000" lon="-2.602434000">
        <ele>412.70</ele>
        <time>2017-02-11T08:19:23Z</time>
      </trkpt>
      <trkpt lat="42.473140000" lon="-2.602425000">
        <ele>412.60</ele>
        <time>2017-02-11T08:19:24Z</time>
      </trkpt>
      <trkpt lat="42.473095000" lon="-2.602418000">
        <ele>412.40</ele>
        <time>2017-02-11T08:19:25Z</time>
      </trkpt>
      <trkpt lat="42.473049000" lon="-2.602411000">
        <ele>412.30</ele>
        <time>2017-02-11T08:19:26Z</time>
      </trkpt>
      <trkpt lat="42.473002000" lon="-2.602404000">
        <ele>412.20</ele>
        <time>2017-02-11T08:19:27Z</time>
      </trkpt>
      <trkpt lat="42.472954000" lon="-2.602400000">
        <ele>412.20</ele>
        <time>2017-02-11T08:19:28Z</time>
      </trkpt>
      <trkpt lat="42.472909000" lon="-2.602393000">
        <ele>412.20</ele>
        <time>2017-02-11T08:19:29Z</time>
      </trkpt>
      <trkpt lat="42.472866000" lon="-2.602387000">
        <ele>412.10</ele>
        <time>2017-02-11T08:19:30Z</time>
      </trkpt>
      <trkpt lat="42.472823000" lon="-2.602381000">
        <ele>412.10</ele>
        <time>2017-02-11T08:19:31Z</time>
      </trkpt>
      <trkpt lat="42.472783000" lon="-2.602376000">
        <ele>412.10</ele>
        <time>2017-02-11T08:19:32Z</time>
      </trkpt>
      <trkpt lat="42.472742000" lon="-2.602370000">
        <ele>412.00</ele>
        <time>2017-02-11T08:19:33Z</time>
      </trkpt>
      <trkpt lat="42.472698000" lon="-2.602359000">
        <ele>411.90</ele>
        <time>2017-02-11T08:19:34Z</time>
      </trkpt>
      <trkpt lat="42.472651000" lon="-2.602350000">
        <ele>411.80</ele>
        <time>2017-02-11T08:19:35Z</time>
      </trkpt>
      <trkpt lat="42.472607000" lon="-2.602343000">
        <ele>411.70</ele>
        <time>2017-02-11T08:19:36Z</time>
      </trkpt>
      <trkpt lat="42.472563000" lon="-2.602340000">
        <ele>411.60</ele>
        <time>2017-02-11T08:19:37Z</time>
      </trkpt>
      <trkpt lat="42.472518000" lon="-2.602344000">
        <ele>411.60</ele>
        <time>2017-02-11T08:19:38Z</time>
      </trkpt>
      <trkpt lat="42.472473000" lon="-2.602345000">
        <ele>411.50</ele>
        <time>2017-02-11T08:19:39Z</time>
      </trkpt>
      <trkpt lat="42.472431000" lon="-2.602346000">
        <ele>411.40</ele>
        <time>2017-02-11T08:19:40Z</time>
      </trkpt>
      <trkpt lat="42.472391000" lon="-2.602366000">
        <ele>411.30</ele>
        <time>2017-02-11T08:19:41Z</time>
      </trkpt>
      <trkpt lat="42.472353000" lon="-2.602397000">
        <ele>411.30</ele>
        <time>2017-02-11T08:19:42Z</time>
      </trkpt>
      <trkpt lat="42.472279000" lon="-2.602470000">
        <ele>411.20</ele>
        <time>2017-02-11T08:19:44Z</time>
      </trkpt>
      <trkpt lat="42.472237000" lon="-2.602507000">
        <ele>411.10</ele>
        <time>2017-02-11T08:19:45Z</time>
      </trkpt>
      <trkpt lat="42.472182000" lon="-2.602537000">
        <ele>411.00</ele>
        <time>2017-02-11T08:19:46Z</time>
      </trkpt>
      <trkpt lat="42.472118000" lon="-2.602553000">
        <ele>410.80</ele>
        <time>2017-02-11T08:19:47Z</time>
      </trkpt>
      <trkpt lat="42.472051000" lon="-2.602553000">
        <ele>410.60</ele>
        <time>2017-02-11T08:19:48Z</time>
      </trkpt>
      <trkpt lat="42.471980000" lon="-2.602545000">
        <ele>410.40</ele>
        <time>2017-02-11T08:19:49Z</time>
      </trkpt>
      <trkpt lat="42.471907000" lon="-2.602542000">
        <ele>410.30</ele>
        <time>2017-02-11T08:19:50Z</time>
      </trkpt>
      <trkpt lat="42.471834000" lon="-2.602539000">
        <ele>409.60</ele>
        <time>2017-02-11T08:19:51Z</time>
      </trkpt>
      <trkpt lat="42.471761000" lon="-2.602535000">
        <ele>409.10</ele>
        <time>2017-02-11T08:19:52Z</time>
      </trkpt>
      <trkpt lat="42.471687000" lon="-2.602533000">
        <ele>408.80</ele>
        <time>2017-02-11T08:19:53Z</time>
      </trkpt>
      <trkpt lat="42.471616000" lon="-2.602529000">
        <ele>408.50</ele>
        <time>2017-02-11T08:19:54Z</time>
      </trkpt>
      <trkpt lat="42.471546000" lon="-2.602521000">
        <ele>408.20</ele>
        <time>2017-02-11T08:19:55Z</time>
      </trkpt>
      <trkpt lat="42.471479000" lon="-2.602510000">
        <ele>407.90</ele>
        <time>2017-02-11T08:19:56Z</time>
      </trkpt>
      <trkpt lat="42.471418000" lon="-2.602492000">
        <ele>407.70</ele>
        <time>2017-02-11T08:19:57Z</time>
      </trkpt>
      <trkpt lat="42.471358000" lon="-2.602469000">
        <ele>407.60</ele>
        <time>2017-02-11T08:19:58Z</time>
      </trkpt>
      <trkpt lat="42.471302000" lon="-2.602440000">
        <ele>407.50</ele>
        <time>2017-02-11T08:19:59Z</time>
      </trkpt>
      <trkpt lat="42.471254000" lon="-2.602405000">
        <ele>407.40</ele>
        <time>2017-02-11T08:20:00Z</time>
      </trkpt>
      <trkpt lat="42.471209000" lon="-2.602364000">
        <ele>407.70</ele>
        <time>2017-02-11T08:20:01Z</time>
      </trkpt>
      <trkpt lat="42.471169000" lon="-2.602325000">
        <ele>407.90</ele>
        <time>2017-02-11T08:20:02Z</time>
      </trkpt>
      <trkpt lat="42.471133000" lon="-2.602283000">
        <ele>408.10</ele>
        <time>2017-02-11T08:20:03Z</time>
      </trkpt>
      <trkpt lat="42.471098000" lon="-2.602245000">
        <ele>408.20</ele>
        <time>2017-02-11T08:20:04Z</time>
      </trkpt>
      <trkpt lat="42.471066000" lon="-2.602209000">
        <ele>408.80</ele>
        <time>2017-02-11T08:20:05Z</time>
      </trkpt>
      <trkpt lat="42.471034000" lon="-2.602174000">
        <ele>409.20</ele>
        <time>2017-02-11T08:20:06Z</time>
      </trkpt>
      <trkpt lat="42.471001000" lon="-2.602146000">
        <ele>409.60</ele>
        <time>2017-02-11T08:20:07Z</time>
      </trkpt>
      <trkpt lat="42.470969000" lon="-2.602121000">
        <ele>409.90</ele>
        <time>2017-02-11T08:20:08Z</time>
      </trkpt>
      <trkpt lat="42.470933000" lon="-2.602102000">
        <ele>410.20</ele>
        <time>2017-02-11T08:20:09Z</time>
      </trkpt>
      <trkpt lat="42.470901000" lon="-2.602080000">
        <ele>410.30</ele>
        <time>2017-02-11T08:20:10Z</time>
      </trkpt>
      <trkpt lat="42.470869000" lon="-2.602063000">
        <ele>410.60</ele>
        <time>2017-02-11T08:20:11Z</time>
      </trkpt>
      <trkpt lat="42.470833000" lon="-2.602045000">
        <ele>410.80</ele>
        <time>2017-02-11T08:20:12Z</time>
      </trkpt>
      <trkpt lat="42.470799000" lon="-2.602035000">
        <ele>411.20</ele>
        <time>2017-02-11T08:20:13Z</time>
      </trkpt>
      <trkpt lat="42.470764000" lon="-2.602022000">
        <ele>411.50</ele>
        <time>2017-02-11T08:20:14Z</time>
      </trkpt>
      <trkpt lat="42.470728000" lon="-2.602013000">
        <ele>411.70</ele>
        <time>2017-02-11T08:20:15Z</time>
      </trkpt>
      <trkpt lat="42.470690000" lon="-2.602003000">
        <ele>411.90</ele>
        <time>2017-02-11T08:20:16Z</time>
      </trkpt>
      <trkpt lat="42.470655000" lon="-2.601996000">
        <ele>411.80</ele>
        <time>2017-02-11T08:20:17Z</time>
      </trkpt>
      <trkpt lat="42.470619000" lon="-2.601996000">
        <ele>411.80</ele>
        <time>2017-02-11T08:20:18Z</time>
      </trkpt>
      <trkpt lat="42.470582000" lon="-2.601991000">
        <ele>411.80</ele>
        <time>2017-02-11T08:20:19Z</time>
      </trkpt>
      <trkpt lat="42.470549000" lon="-2.601985000">
        <ele>411.80</ele>
        <time>2017-02-11T08:20:20Z</time>
      </trkpt>
      <trkpt lat="42.470516000" lon="-2.601981000">
        <ele>411.80</ele>
        <time>2017-02-11T08:20:21Z</time>
      </trkpt>
      <trkpt lat="42.470484000" lon="-2.601982000">
        <ele>411.80</ele>
        <time>2017-02-11T08:20:22Z</time>
      </trkpt>
      <trkpt lat="42.470454000" lon="-2.601977000">
        <ele>412.00</ele>
        <time>2017-02-11T08:20:23Z</time>
      </trkpt>
      <trkpt lat="42.470421000" lon="-2.601978000">
        <ele>412.20</ele>
        <time>2017-02-11T08:20:24Z</time>
      </trkpt>
      <trkpt lat="42.470388000" lon="-2.601977000">
        <ele>412.50</ele>
        <time>2017-02-11T08:20:25Z</time>
      </trkpt>
      <trkpt lat="42.470355000" lon="-2.601975000">
        <ele>412.80</ele>
        <time>2017-02-11T08:20:26Z</time>
      </trkpt>
      <trkpt lat="42.470321000" lon="-2.601972000">
        <ele>413.00</ele>
        <time>2017-02-11T08:20:27Z</time>
      </trkpt>
      <trkpt lat="42.470285000" lon="-2.601971000">
        <ele>413.10</ele>
        <time>2017-02-11T08:20:28Z</time>
      </trkpt>
      <trkpt lat="42.470248000" lon="-2.601968000">
        <ele>413.20</ele>
        <time>2017-02-11T08:20:29Z</time>
      </trkpt>
      <trkpt lat="42.470209000" lon="-2.601966000">
        <ele>413.30</ele>
        <time>2017-02-11T08:20:30Z</time>
      </trkpt>
      <trkpt lat="42.470171000" lon="-2.601961000">
        <ele>413.10</ele>
        <time>2017-02-11T08:20:31Z</time>
      </trkpt>
      <trkpt lat="42.470131000" lon="-2.601960000">
        <ele>413.00</ele>
        <time>2017-02-11T08:20:32Z</time>
      </trkpt>
      <trkpt lat="42.470091000" lon="-2.601957000">
        <ele>412.70</ele>
        <time>2017-02-11T08:20:33Z</time>
      </trkpt>
      <trkpt lat="42.470051000" lon="-2.601955000">
        <ele>412.50</ele>
        <time>2017-02-11T08:20:34Z</time>
      </trkpt>
      <trkpt lat="42.470010000" lon="-2.601949000">
        <ele>412.20</ele>
        <time>2017-02-11T08:20:35Z</time>
      </trkpt>
      <trkpt lat="42.469970000" lon="-2.601942000">
        <ele>412.00</ele>
        <time>2017-02-11T08:20:36Z</time>
      </trkpt>
      <trkpt lat="42.469927000" lon="-2.601935000">
        <ele>411.70</ele>
        <time>2017-02-11T08:20:37Z</time>
      </trkpt>
      <trkpt lat="42.469884000" lon="-2.601929000">
        <ele>411.50</ele>
        <time>2017-02-11T08:20:38Z</time>
      </trkpt>
      <trkpt lat="42.469841000" lon="-2.601928000">
        <ele>411.40</ele>
        <time>2017-02-11T08:20:39Z</time>
      </trkpt>
      <trkpt lat="42.469797000" lon="-2.601923000">
        <ele>411.40</ele>
        <time>2017-02-11T08:20:40Z</time>
      </trkpt>
      <trkpt lat="42.469754000" lon="-2.601918000">
        <ele>411.60</ele>
        <time>2017-02-11T08:20:41Z</time>
      </trkpt>
      <trkpt lat="42.469709000" lon="-2.601912000">
        <ele>411.70</ele>
        <time>2017-02-11T08:20:42Z</time>
      </trkpt>
      <trkpt lat="42.469663000" lon="-2.601908000">
        <ele>411.90</ele>
        <time>2017-02-11T08:20:43Z</time>
      </trkpt>
      <trkpt lat="42.469575000" lon="-2.601897000">
        <ele>412.20</ele>
        <time>2017-02-11T08:20:45Z</time>
      </trkpt>
      <trkpt lat="42.469532000" lon="-2.601891000">
        <ele>412.30</ele>
        <time>2017-02-11T08:20:46Z</time>
      </trkpt>
      <trkpt lat="42.469489000" lon="-2.601887000">
        <ele>412.10</ele>
        <time>2017-02-11T08:20:47Z</time>
      </trkpt>
      <trkpt lat="42.469445000" lon="-2.601884000">
        <ele>412.00</ele>
        <time>2017-02-11T08:20:48Z</time>
      </trkpt>
      <trkpt lat="42.469400000" lon="-2.601883000">
        <ele>411.90</ele>
        <time>2017-02-11T08:20:49Z</time>
      </trkpt>
      <trkpt lat="42.469357000" lon="-2.601876000">
        <ele>411.80</ele>
        <time>2017-02-11T08:20:50Z</time>
      </trkpt>
      <trkpt lat="42.469314000" lon="-2.601873000">
        <ele>411.90</ele>
        <time>2017-02-11T08:20:51Z</time>
      </trkpt>
      <trkpt lat="42.469273000" lon="-2.601867000">
        <ele>412.00</ele>
        <time>2017-02-11T08:20:52Z</time>
      </trkpt>
      <trkpt lat="42.469233000" lon="-2.601863000">
        <ele>412.10</ele>
        <time>2017-02-11T08:20:53Z</time>
      </trkpt>
      <trkpt lat="42.469193000" lon="-2.601859000">
        <ele>412.20</ele>
        <time>2017-02-11T08:20:54Z</time>
      </trkpt>
      <trkpt lat="42.469148000" lon="-2.601852000">
        <ele>412.30</ele>
        <time>2017-02-11T08:20:55Z</time>
      </trkpt>
      <trkpt lat="42.469103000" lon="-2.601845000">
        <ele>412.40</ele>
        <time>2017-02-11T08:20:56Z</time>
      </trkpt>
      <trkpt lat="42.469062000" lon="-2.601841000">
        <ele>412.40</ele>
        <time>2017-02-11T08:20:57Z</time>
      </trkpt>
      <trkpt lat="42.469022000" lon="-2.601836000">
        <ele>412.40</ele>
        <time>2017-02-11T08:20:58Z</time>
      </trkpt>
      <trkpt lat="42.468981000" lon="-2.601830000">
        <ele>412.30</ele>
        <time>2017-02-11T08:20:59Z</time>
      </trkpt>
      <trkpt lat="42.468941000" lon="-2.601823000">
        <ele>412.20</ele>
        <time>2017-02-11T08:21:00Z</time>
      </trkpt>
      <trkpt lat="42.468898000" lon="-2.601819000">
        <ele>412.20</ele>
        <time>2017-02-11T08:21:01Z</time>
      </trkpt>
      <trkpt lat="42.468856000" lon="-2.601811000">
        <ele>412.10</ele>
        <time>2017-02-11T08:21:02Z</time>
      </trkpt>
      <trkpt lat="42.468818000" lon="-2.601800000">
        <ele>412.00</ele>
        <time>2017-02-11T08:21:03Z</time>
      </trkpt>
      <trkpt lat="42.468777000" lon="-2.601790000">
        <ele>411.80</ele>
        <time>2017-02-11T08:21:04Z</time>
      </trkpt>
      <trkpt lat="42.468740000" lon="-2.601781000">
        <ele>411.80</ele>
        <time>2017-02-11T08:21:05Z</time>
      </trkpt>
      <trkpt lat="42.468703000" lon="-2.601773000">
        <ele>411.70</ele>
        <time>2017-02-11T08:21:06Z</time>
      </trkpt>
      <trkpt lat="42.468665000" lon="-2.601761000">
        <ele>411.60</ele>
        <time>2017-02-11T08:21:07Z</time>
      </trkpt>
      <trkpt lat="42.468626000" lon="-2.601752000">
        <ele>411.60</ele>
        <time>2017-02-11T08:21:08Z</time>
      </trkpt>
      <trkpt lat="42.468590000" lon="-2.601736000">
        <ele>411.50</ele>
        <time>2017-02-11T08:21:09Z</time>
      </trkpt>
      <trkpt lat="42.468552000" lon="-2.601724000">
        <ele>411.40</ele>
        <time>2017-02-11T08:21:10Z</time>
      </trkpt>
      <trkpt lat="42.468514000" lon="-2.601711000">
        <ele>411.40</ele>
        <time>2017-02-11T08:21:11Z</time>
      </trkpt>
      <trkpt lat="42.468476000" lon="-2.601699000">
        <ele>411.30</ele>
        <time>2017-02-11T08:21:12Z</time>
      </trkpt>
      <trkpt lat="42.468436000" lon="-2.601692000">
        <ele>411.30</ele>
        <time>2017-02-11T08:21:13Z</time>
      </trkpt>
      <trkpt lat="42.468399000" lon="-2.601677000">
        <ele>411.30</ele>
        <time>2017-02-11T08:21:14Z</time>
      </trkpt>
      <trkpt lat="42.468364000" lon="-2.601660000">
        <ele>411.40</ele>
        <time>2017-02-11T08:21:15Z</time>
      </trkpt>
      <trkpt lat="42.468327000" lon="-2.601641000">
        <ele>411.50</ele>
        <time>2017-02-11T08:21:16Z</time>
      </trkpt>
      <trkpt lat="42.468291000" lon="-2.601625000">
        <ele>411.50</ele>
        <time>2017-02-11T08:21:17Z</time>
      </trkpt>
      <trkpt lat="42.468255000" lon="-2.601609000">
        <ele>411.60</ele>
        <time>2017-02-11T08:21:18Z</time>
      </trkpt>
      <trkpt lat="42.468218000" lon="-2.601592000">
        <ele>411.60</ele>
        <time>2017-02-11T08:21:19Z</time>
      </trkpt>
      <trkpt lat="42.468186000" lon="-2.601580000">
        <ele>411.70</ele>
        <time>2017-02-11T08:21:20Z</time>
      </trkpt>
      <trkpt lat="42.468148000" lon="-2.601565000">
        <ele>411.50</ele>
        <time>2017-02-11T08:21:21Z</time>
      </trkpt>
      <trkpt lat="42.468111000" lon="-2.601552000">
        <ele>411.50</ele>
        <time>2017-02-11T08:21:22Z</time>
      </trkpt>
      <trkpt lat="42.468075000" lon="-2.601541000">
        <ele>411.60</ele>
        <time>2017-02-11T08:21:23Z</time>
      </trkpt>
      <trkpt lat="42.468039000" lon="-2.601530000">
        <ele>411.70</ele>
        <time>2017-02-11T08:21:24Z</time>
      </trkpt>
      <trkpt lat="42.468007000" lon="-2.601520000">
        <ele>411.80</ele>
        <time>2017-02-11T08:21:25Z</time>
      </trkpt>
      <trkpt lat="42.467976000" lon="-2.601506000">
        <ele>411.90</ele>
        <time>2017-02-11T08:21:26Z</time>
      </trkpt>
      <trkpt lat="42.467945000" lon="-2.601489000">
        <ele>412.10</ele>
        <time>2017-02-11T08:21:27Z</time>
      </trkpt>
      <trkpt lat="42.467908000" lon="-2.601474000">
        <ele>412.20</ele>
        <time>2017-02-11T08:21:28Z</time>
      </trkpt>
      <trkpt lat="42.467874000" lon="-2.601457000">
        <ele>412.30</ele>
        <time>2017-02-11T08:21:29Z</time>
      </trkpt>
      <trkpt lat="42.467838000" lon="-2.601447000">
        <ele>412.30</ele>
        <time>2017-02-11T08:21:30Z</time>
      </trkpt>
      <trkpt lat="42.467804000" lon="-2.601434000">
        <ele>412.30</ele>
        <time>2017-02-11T08:21:31Z</time>
      </trkpt>
      <trkpt lat="42.467769000" lon="-2.601420000">
        <ele>412.20</ele>
        <time>2017-02-11T08:21:32Z</time>
      </trkpt>
      <trkpt lat="42.467729000" lon="-2.601404000">
        <ele>412.10</ele>
        <time>2017-02-11T08:21:33Z</time>
      </trkpt>
      <trkpt lat="42.467689000" lon="-2.601392000">
        <ele>412.00</ele>
        <time>2017-02-11T08:21:34Z</time>
      </trkpt>
      <trkpt lat="42.467649000" lon="-2.601373000">
        <ele>411.90</ele>
        <time>2017-02-11T08:21:35Z</time>
      </trkpt>
      <trkpt lat="42.467609000" lon="-2.601349000">
        <ele>411.90</ele>
        <time>2017-02-11T08:21:36Z</time>
      </trkpt>
      <trkpt lat="42.467569000" lon="-2.601323000">
        <ele>411.90</ele>
        <time>2017-02-11T08:21:37Z</time>
      </trkpt>
      <trkpt lat="42.467529000" lon="-2.601300000">
        <ele>411.90</ele>
        <time>2017-02-11T08:21:38Z</time>
      </trkpt>
      <trkpt lat="42.467493000" lon="-2.601285000">
        <ele>412.10</ele>
        <time>2017-02-11T08:21:39Z</time>
      </trkpt>
      <trkpt lat="42.467463000" lon="-2.601268000">
        <ele>412.20</ele>
        <time>2017-02-11T08:21:40Z</time>
      </trkpt>
      <trkpt lat="42.467438000" lon="-2.601253000">
        <ele>412.40</ele>
        <time>2017-02-11T08:21:41Z</time>
      </trkpt>
      <trkpt lat="42.467420000" lon="-2.601231000">
        <ele>412.40</ele>
        <time>2017-02-11T08:21:42Z</time>
      </trkpt>
      <trkpt lat="42.467411000" lon="-2.601198000">
        <ele>412.30</ele>
        <time>2017-02-11T08:21:43Z</time>
      </trkpt>
      <trkpt lat="42.467410000" lon="-2.601162000">
        <ele>412.20</ele>
        <time>2017-02-11T08:21:44Z</time>
      </trkpt>
      <trkpt lat="42.467429000" lon="-2.601076000">
        <ele>412.10</ele>
        <time>2017-02-11T08:21:46Z</time>
      </trkpt>
      <trkpt lat="42.467442000" lon="-2.601030000">
        <ele>411.90</ele>
        <time>2017-02-11T08:21:47Z</time>
      </trkpt>
      <trkpt lat="42.467455000" lon="-2.600991000">
        <ele>411.80</ele>
        <time>2017-02-11T08:21:48Z</time>
      </trkpt>
      <trkpt lat="42.467465000" lon="-2.600943000">
        <ele>411.50</ele>
        <time>2017-02-11T08:21:49Z</time>
      </trkpt>
      <trkpt lat="42.467477000" lon="-2.600887000">
        <ele>411.30</ele>
        <time>2017-02-11T08:21:50Z</time>
      </trkpt>
      <trkpt lat="42.467489000" lon="-2.600822000">
        <ele>411.20</ele>
        <time>2017-02-11T08:21:51Z</time>
      </trkpt>
      <trkpt lat="42.467501000" lon="-2.600748000">
        <ele>411.10</ele>
        <time>2017-02-11T08:21:52Z</time>
      </trkpt>
      <trkpt lat="42.467515000" lon="-2.600673000">
        <ele>411.00</ele>
        <time>2017-02-11T08:21:53Z</time>
      </trkpt>
      <trkpt lat="42.467528000" lon="-2.600597000">
        <ele>410.90</ele>
        <time>2017-02-11T08:21:54Z</time>
      </trkpt>
      <trkpt lat="42.467545000" lon="-2.600524000">
        <ele>410.70</ele>
        <time>2017-02-11T08:21:55Z</time>
      </trkpt>
      <trkpt lat="42.467563000" lon="-2.600449000">
        <ele>410.60</ele>
        <time>2017-02-11T08:21:56Z</time>
      </trkpt>
      <trkpt lat="42.467582000" lon="-2.600378000">
        <ele>410.40</ele>
        <time>2017-02-11T08:21:57Z</time>
      </trkpt>
      <trkpt lat="42.467600000" lon="-2.600303000">
        <ele>410.30</ele>
        <time>2017-02-11T08:21:58Z</time>
      </trkpt>
      <trkpt lat="42.467618000" lon="-2.600228000">
        <ele>410.00</ele>
        <time>2017-02-11T08:21:59Z</time>
      </trkpt>
      <trkpt lat="42.467635000" lon="-2.600152000">
        <ele>409.90</ele>
        <time>2017-02-11T08:22:00Z</time>
      </trkpt>
      <trkpt lat="42.467658000" lon="-2.600075000">
        <ele>409.70</ele>
        <time>2017-02-11T08:22:01Z</time>
      </trkpt>
      <trkpt lat="42.467680000" lon="-2.600004000">
        <ele>409.60</ele>
        <time>2017-02-11T08:22:02Z</time>
      </trkpt>
      <trkpt lat="42.467703000" lon="-2.599932000">
        <ele>409.50</ele>
        <time>2017-02-11T08:22:03Z</time>
      </trkpt>
      <trkpt lat="42.467725000" lon="-2.599863000">
        <ele>409.40</ele>
        <time>2017-02-11T08:22:04Z</time>
      </trkpt>
      <trkpt lat="42.467746000" lon="-2.599798000">
        <ele>409.00</ele>
        <time>2017-02-11T08:22:05Z</time>
      </trkpt>
      <trkpt lat="42.467768000" lon="-2.599732000">
        <ele>408.80</ele>
        <time>2017-02-11T08:22:06Z</time>
      </trkpt>
      <trkpt lat="42.467791000" lon="-2.599669000">
        <ele>408.60</ele>
        <time>2017-02-11T08:22:07Z</time>
      </trkpt>
      <trkpt lat="42.467814000" lon="-2.599606000">
        <ele>408.40</ele>
        <time>2017-02-11T08:22:08Z</time>
      </trkpt>
      <trkpt lat="42.467838000" lon="-2.599543000">
        <ele>408.10</ele>
        <time>2017-02-11T08:22:09Z</time>
      </trkpt>
      <trkpt lat="42.467867000" lon="-2.599479000">
        <ele>407.90</ele>
        <time>2017-02-11T08:22:10Z</time>
      </trkpt>
      <trkpt lat="42.467895000" lon="-2.599415000">
        <ele>407.60</ele>
        <time>2017-02-11T08:22:11Z</time>
      </trkpt>
      <trkpt lat="42.467923000" lon="-2.599352000">
        <ele>407.40</ele>
        <time>2017-02-11T08:22:12Z</time>
      </trkpt>
      <trkpt lat="42.467953000" lon="-2.599291000">
        <ele>407.20</ele>
        <time>2017-02-11T08:22:13Z</time>
      </trkpt>
      <trkpt lat="42.467988000" lon="-2.599234000">
        <ele>407.10</ele>
        <time>2017-02-11T08:22:14Z</time>
      </trkpt>
      <trkpt lat="42.468022000" lon="-2.599178000">
        <ele>406.80</ele>
        <time>2017-02-11T08:22:15Z</time>
      </trkpt>
      <trkpt lat="42.468057000" lon="-2.599125000">
        <ele>406.60</ele>
        <time>2017-02-11T08:22:16Z</time>
      </trkpt>
      <trkpt lat="42.468090000" lon="-2.599073000">
        <ele>406.30</ele>
        <time>2017-02-11T08:22:17Z</time>
      </trkpt>
      <trkpt lat="42.468123000" lon="-2.599024000">
        <ele>406.00</ele>
        <time>2017-02-11T08:22:18Z</time>
      </trkpt>
      <trkpt lat="42.468157000" lon="-2.598972000">
        <ele>405.80</ele>
        <time>2017-02-11T08:22:19Z</time>
      </trkpt>
      <trkpt lat="42.468191000" lon="-2.598920000">
        <ele>405.60</ele>
        <time>2017-02-11T08:22:20Z</time>
      </trkpt>
      <trkpt lat="42.468226000" lon="-2.598870000">
        <ele>405.40</ele>
        <time>2017-02-11T08:22:21Z</time>
      </trkpt>
      <trkpt lat="42.468259000" lon="-2.598818000">
        <ele>405.30</ele>
        <time>2017-02-11T08:22:22Z</time>
      </trkpt>
      <trkpt lat="42.468293000" lon="-2.598764000">
        <ele>405.10</ele>
        <time>2017-02-11T08:22:23Z</time>
      </trkpt>
      <trkpt lat="42.468322000" lon="-2.598703000">
        <ele>404.90</ele>
        <time>2017-02-11T08:22:24Z</time>
      </trkpt>
      <trkpt lat="42.468350000" lon="-2.598645000">
        <ele>404.80</ele>
        <time>2017-02-11T08:22:25Z</time>
      </trkpt>
      <trkpt lat="42.468375000" lon="-2.598584000">
        <ele>404.70</ele>
        <time>2017-02-11T08:22:26Z</time>
      </trkpt>
      <trkpt lat="42.468398000" lon="-2.598522000">
        <ele>404.70</ele>
        <time>2017-02-11T08:22:27Z</time>
      </trkpt>
      <trkpt lat="42.468421000" lon="-2.598457000">
        <ele>404.60</ele>
        <time>2017-02-11T08:22:28Z</time>
      </trkpt>
      <trkpt lat="42.468442000" lon="-2.598395000">
        <ele>404.50</ele>
        <time>2017-02-11T08:22:29Z</time>
      </trkpt>
      <trkpt lat="42.468461000" lon="-2.598332000">
        <ele>404.30</ele>
        <time>2017-02-11T08:22:30Z</time>
      </trkpt>
      <trkpt lat="42.468478000" lon="-2.598271000">
        <ele>404.20</ele>
        <time>2017-02-11T08:22:31Z</time>
      </trkpt>
      <trkpt lat="42.468498000" lon="-2.598210000">
        <ele>404.20</ele>
        <time>2017-02-11T08:22:32Z</time>
      </trkpt>
      <trkpt lat="42.468518000" lon="-2.598149000">
        <ele>404.00</ele>
        <time>2017-02-11T08:22:33Z</time>
      </trkpt>
      <trkpt lat="42.468537000" lon="-2.598084000">
        <ele>404.00</ele>
        <time>2017-02-11T08:22:34Z</time>
      </trkpt>
      <trkpt lat="42.468556000" lon="-2.598024000">
        <ele>403.70</ele>
        <time>2017-02-11T08:22:35Z</time>
      </trkpt>
      <trkpt lat="42.468575000" lon="-2.597965000">
        <ele>403.50</ele>
        <time>2017-02-11T08:22:36Z</time>
      </trkpt>
      <trkpt lat="42.468593000" lon="-2.597910000">
        <ele>403.40</ele>
        <time>2017-02-11T08:22:37Z</time>
      </trkpt>
      <trkpt lat="42.468613000" lon="-2.597857000">
        <ele>403.20</ele>
        <time>2017-02-11T08:22:38Z</time>
      </trkpt>
      <trkpt lat="42.468631000" lon="-2.597798000">
        <ele>403.10</ele>
        <time>2017-02-11T08:22:39Z</time>
      </trkpt>
      <trkpt lat="42.468653000" lon="-2.597741000">
        <ele>403.00</ele>
        <time>2017-02-11T08:22:40Z</time>
      </trkpt>
      <trkpt lat="42.468675000" lon="-2.597681000">
        <ele>402.90</ele>
        <time>2017-02-11T08:22:41Z</time>
      </trkpt>
      <trkpt lat="42.468699000" lon="-2.597626000">
        <ele>402.80</ele>
        <time>2017-02-11T08:22:42Z</time>
      </trkpt>
      <trkpt lat="42.468725000" lon="-2.597571000">
        <ele>402.80</ele>
        <time>2017-02-11T08:22:43Z</time>
      </trkpt>
      <trkpt lat="42.468750000" lon="-2.597519000">
        <ele>402.80</ele>
        <time>2017-02-11T08:22:44Z</time>
      </trkpt>
      <trkpt lat="42.468778000" lon="-2.597470000">
        <ele>402.70</ele>
        <time>2017-02-11T08:22:45Z</time>
      </trkpt>
      <trkpt lat="42.468837000" lon="-2.597374000">
        <ele>402.90</ele>
        <time>2017-02-11T08:22:47Z</time>
      </trkpt>
      <trkpt lat="42.468870000" lon="-2.597328000">
        <ele>403.00</ele>
        <time>2017-02-11T08:22:48Z</time>
      </trkpt>
      <trkpt lat="42.468907000" lon="-2.597283000">
        <ele>403.10</ele>
        <time>2017-02-11T08:22:49Z</time>
      </trkpt>
      <trkpt lat="42.468944000" lon="-2.597243000">
        <ele>403.20</ele>
        <time>2017-02-11T08:22:50Z</time>
      </trkpt>
      <trkpt lat="42.468981000" lon="-2.597201000">
        <ele>403.00</ele>
        <time>2017-02-11T08:22:51Z</time>
      </trkpt>
      <trkpt lat="42.469020000" lon="-2.597160000">
        <ele>402.90</ele>
        <time>2017-02-11T08:22:52Z</time>
      </trkpt>
      <trkpt lat="42.469060000" lon="-2.597118000">
        <ele>402.60</ele>
        <time>2017-02-11T08:22:53Z</time>
      </trkpt>
      <trkpt lat="42.469100000" lon="-2.597075000">
        <ele>402.40</ele>
        <time>2017-02-11T08:22:54Z</time>
      </trkpt>
      <trkpt lat="42.469141000" lon="-2.597034000">
        <ele>402.30</ele>
        <time>2017-02-11T08:22:55Z</time>
      </trkpt>
      <trkpt lat="42.469183000" lon="-2.596998000">
        <ele>402.20</ele>
        <time>2017-02-11T08:22:56Z</time>
      </trkpt>
      <trkpt lat="42.469226000" lon="-2.596967000">
        <ele>402.10</ele>
        <time>2017-02-11T08:22:57Z</time>
      </trkpt>
      <trkpt lat="42.469268000" lon="-2.596937000">
        <ele>402.00</ele>
        <time>2017-02-11T08:22:58Z</time>
      </trkpt>
      <trkpt lat="42.469306000" lon="-2.596905000">
        <ele>401.90</ele>
        <time>2017-02-11T08:22:59Z</time>
      </trkpt>
      <trkpt lat="42.469343000" lon="-2.596876000">
        <ele>401.70</ele>
        <time>2017-02-11T08:23:00Z</time>
      </trkpt>
      <trkpt lat="42.469382000" lon="-2.596846000">
        <ele>401.80</ele>
        <time>2017-02-11T08:23:01Z</time>
      </trkpt>
      <trkpt lat="42.469419000" lon="-2.596818000">
        <ele>401.90</ele>
        <time>2017-02-11T08:23:02Z</time>
      </trkpt>
      <trkpt lat="42.469458000" lon="-2.596788000">
        <ele>402.00</ele>
        <time>2017-02-11T08:23:03Z</time>
      </trkpt>
      <trkpt lat="42.469497000" lon="-2.596756000">
        <ele>402.00</ele>
        <time>2017-02-11T08:23:04Z</time>
      </trkpt>
      <trkpt lat="42.469539000" lon="-2.596726000">
        <ele>402.00</ele>
        <time>2017-02-11T08:23:05Z</time>
      </trkpt>
      <trkpt lat="42.469581000" lon="-2.596696000">
        <ele>402.10</ele>
        <time>2017-02-11T08:23:06Z</time>
      </trkpt>
      <trkpt lat="42.469620000" lon="-2.596663000">
        <ele>401.90</ele>
        <time>2017-02-11T08:23:07Z</time>
      </trkpt>
      <trkpt lat="42.469661000" lon="-2.596635000">
        <ele>401.80</ele>
        <time>2017-02-11T08:23:08Z</time>
      </trkpt>
      <trkpt lat="42.469703000" lon="-2.596606000">
        <ele>401.70</ele>
        <time>2017-02-11T08:23:09Z</time>
      </trkpt>
      <trkpt lat="42.469745000" lon="-2.596576000">
        <ele>401.60</ele>
        <time>2017-02-11T08:23:10Z</time>
      </trkpt>
      <trkpt lat="42.469786000" lon="-2.596544000">
        <ele>401.30</ele>
        <time>2017-02-11T08:23:11Z</time>
      </trkpt>
      <trkpt lat="42.469826000" lon="-2.596515000">
        <ele>401.00</ele>
        <time>2017-02-11T08:23:12Z</time>
      </trkpt>
      <trkpt lat="42.469865000" lon="-2.596485000">
        <ele>400.90</ele>
        <time>2017-02-11T08:23:13Z</time>
      </trkpt>
      <trkpt lat="42.469905000" lon="-2.596459000">
        <ele>400.70</ele>
        <time>2017-02-11T08:23:14Z</time>
      </trkpt>
      <trkpt lat="42.469945000" lon="-2.596432000">
        <ele>400.50</ele>
        <time>2017-02-11T08:23:15Z</time>
      </trkpt>
      <trkpt lat="42.469985000" lon="-2.596404000">
        <ele>400.40</ele>
        <time>2017-02-11T08:23:16Z</time>
      </trkpt>
      <trkpt lat="42.470024000" lon="-2.596378000">
        <ele>400.20</ele>
        <time>2017-02-11T08:23:17Z</time>
      </trkpt>
      <trkpt lat="42.470059000" lon="-2.596350000">
        <ele>400.20</ele>
        <time>2017-02-11T08:23:18Z</time>
      </trkpt>
      <trkpt lat="42.470090000" lon="-2.596323000">
        <ele>400.00</ele>
        <time>2017-02-11T08:23:19Z</time>
      </trkpt>
      <trkpt lat="42.470117000" lon="-2.596300000">
        <ele>399.90</ele>
        <time>2017-02-11T08:23:20Z</time>
      </trkpt>
      <trkpt lat="42.470142000" lon="-2.596280000">
        <ele>399.80</ele>
        <time>2017-02-11T08:23:21Z</time>
      </trkpt>
      <trkpt lat="42.470168000" lon="-2.596250000">
        <ele>399.80</ele>
        <time>2017-02-11T08:23:22Z</time>
      </trkpt>
      <trkpt lat="42.470191000" lon="-2.596210000">
        <ele>399.60</ele>
        <time>2017-02-11T08:23:23Z</time>
      </trkpt>
      <trkpt lat="42.470206000" lon="-2.596163000">
        <ele>399.40</ele>
        <time>2017-02-11T08:23:24Z</time>
      </trkpt>
      <trkpt lat="42.470211000" lon="-2.596111000">
        <ele>399.20</ele>
        <time>2017-02-11T08:23:25Z</time>
      </trkpt>
      <trkpt lat="42.470213000" lon="-2.596060000">
        <ele>399.00</ele>
        <time>2017-02-11T08:23:26Z</time>
      </trkpt>
      <trkpt lat="42.470211000" lon="-2.596013000">
        <ele>398.90</ele>
        <time>2017-02-11T08:23:27Z</time>
      </trkpt>
      <trkpt lat="42.470206000" lon="-2.595968000">
        <ele>398.70</ele>
        <time>2017-02-11T08:23:28Z</time>
      </trkpt>
      <trkpt lat="42.470207000" lon="-2.595925000">
        <ele>398.60</ele>
        <time>2017-02-11T08:23:29Z</time>
      </trkpt>
      <trkpt lat="42.470207000" lon="-2.595885000">
        <ele>398.60</ele>
        <time>2017-02-11T08:23:30Z</time>
      </trkpt>
      <trkpt lat="42.470215000" lon="-2.595848000">
        <ele>398.60</ele>
        <time>2017-02-11T08:23:31Z</time>
      </trkpt>
      <trkpt lat="42.470214000" lon="-2.595806000">
        <ele>398.60</ele>
        <time>2017-02-11T08:23:32Z</time>
      </trkpt>
      <trkpt lat="42.470216000" lon="-2.595771000">
        <ele>398.60</ele>
        <time>2017-02-11T08:23:33Z</time>
      </trkpt>
      <trkpt lat="42.470220000" lon="-2.595733000">
        <ele>398.60</ele>
        <time>2017-02-11T08:23:34Z</time>
      </trkpt>
      <trkpt lat="42.470223000" lon="-2.595698000">
        <ele>398.60</ele>
        <time>2017-02-11T08:23:35Z</time>
      </trkpt>
      <trkpt lat="42.470225000" lon="-2.595664000">
        <ele>398.60</ele>
        <time>2017-02-11T08:23:36Z</time>
      </trkpt>
      <trkpt lat="42.470225000" lon="-2.595632000">
        <ele>398.70</ele>
        <time>2017-02-11T08:23:37Z</time>
      </trkpt>
      <trkpt lat="42.470226000" lon="-2.595592000">
        <ele>398.80</ele>
        <time>2017-02-11T08:23:38Z</time>
      </trkpt>
      <trkpt lat="42.470225000" lon="-2.595549000">
        <ele>398.80</ele>
        <time>2017-02-11T08:23:39Z</time>
      </trkpt>
      <trkpt lat="42.470224000" lon="-2.595504000">
        <ele>398.90</ele>
        <time>2017-02-11T08:23:40Z</time>
      </trkpt>
      <trkpt lat="42.470224000" lon="-2.595454000">
        <ele>398.90</ele>
        <time>2017-02-11T08:23:41Z</time>
      </trkpt>
      <trkpt lat="42.470221000" lon="-2.595402000">
        <ele>398.90</ele>
        <time>2017-02-11T08:23:42Z</time>
      </trkpt>
      <trkpt lat="42.470219000" lon="-2.595350000">
        <ele>399.00</ele>
        <time>2017-02-11T08:23:43Z</time>
      </trkpt>
      <trkpt lat="42.470216000" lon="-2.595299000">
        <ele>399.10</ele>
        <time>2017-02-11T08:23:44Z</time>
      </trkpt>
      <trkpt lat="42.470214000" lon="-2.595247000">
        <ele>399.10</ele>
        <time>2017-02-11T08:23:45Z</time>
      </trkpt>
      <trkpt lat="42.470214000" lon="-2.595195000">
        <ele>399.20</ele>
        <time>2017-02-11T08:23:46Z</time>
      </trkpt>
      <trkpt lat="42.470209000" lon="-2.595087000">
        <ele>399.30</ele>
        <time>2017-02-11T08:23:48Z</time>
      </trkpt>
      <trkpt lat="42.470207000" lon="-2.595036000">
        <ele>399.30</ele>
        <time>2017-02-11T08:23:49Z</time>
      </trkpt>
      <trkpt lat="42.470203000" lon="-2.594981000">
        <ele>399.40</ele>
        <time>2017-02-11T08:23:50Z</time>
      </trkpt>
      <trkpt lat="42.470202000" lon="-2.594928000">
        <ele>399.40</ele>
        <time>2017-02-11T08:23:51Z</time>
      </trkpt>
      <trkpt lat="42.470201000" lon="-2.594874000">
        <ele>399.40</ele>
        <time>2017-02-11T08:23:52Z</time>
      </trkpt>
      <trkpt lat="42.470202000" lon="-2.594825000">
        <ele>399.30</ele>
        <time>2017-02-11T08:23:53Z</time>
      </trkpt>
      <trkpt lat="42.470198000" lon="-2.594772000">
        <ele>399.20</ele>
        <time>2017-02-11T08:23:54Z</time>
      </trkpt>
      <trkpt lat="42.470197000" lon="-2.594714000">
        <ele>399.10</ele>
        <time>2017-02-11T08:23:55Z</time>
      </trkpt>
      <trkpt lat="42.470196000" lon="-2.594654000">
        <ele>399.10</ele>
        <time>2017-02-11T08:23:56Z</time>
      </trkpt>
      <trkpt lat="42.470194000" lon="-2.594596000">
        <ele>399.10</ele>
        <time>2017-02-11T08:23:57Z</time>
      </trkpt>
      <trkpt lat="42.470198000" lon="-2.594540000">
        <ele>399.10</ele>
        <time>2017-02-11T08:23:58Z</time>
      </trkpt>
      <trkpt lat="42.470197000" lon="-2.594481000">
        <ele>399.10</ele>
        <time>2017-02-11T08:23:59Z</time>
      </trkpt>
      <trkpt lat="42.470197000" lon="-2.594425000">
        <ele>399.10</ele>
        <time>2017-02-11T08:24:00Z</time>
      </trkpt>
      <trkpt lat="42.470193000" lon="-2.594367000">
        <ele>399.10</ele>
        <time>2017-02-11T08:24:01Z</time>
      </trkpt>
      <trkpt lat="42.470193000" lon="-2.594313000">
        <ele>399.10</ele>
        <time>2017-02-11T08:24:02Z</time>
      </trkpt>
      <trkpt lat="42.470195000" lon="-2.594256000">
        <ele>399.10</ele>
        <time>2017-02-11T08:24:03Z</time>
      </trkpt>
      <trkpt lat="42.470193000" lon="-2.594196000">
        <ele>399.10</ele>
        <time>2017-02-11T08:24:04Z</time>
      </trkpt>
      <trkpt lat="42.470191000" lon="-2.594137000">
        <ele>399.30</ele>
        <time>2017-02-11T08:24:05Z</time>
      </trkpt>
      <trkpt lat="42.470188000" lon="-2.594079000">
        <ele>399.40</ele>
        <time>2017-02-11T08:24:06Z</time>
      </trkpt>
      <trkpt lat="42.470186000" lon="-2.594020000">
        <ele>399.60</ele>
        <time>2017-02-11T08:24:07Z</time>
      </trkpt>
      <trkpt lat="42.470184000" lon="-2.593962000">
        <ele>399.80</ele>
        <time>2017-02-11T08:24:08Z</time>
      </trkpt>
      <trkpt lat="42.470182000" lon="-2.593902000">
        <ele>399.80</ele>
        <time>2017-02-11T08:24:09Z</time>
      </trkpt>
      <trkpt lat="42.470179000" lon="-2.593846000">
        <ele>399.80</ele>
        <time>2017-02-11T08:24:10Z</time>
      </trkpt>
      <trkpt lat="42.470177000" lon="-2.593786000">
        <ele>399.70</ele>
        <time>2017-02-11T08:24:11Z</time>
      </trkpt>
      <trkpt lat="42.470172000" lon="-2.593732000">
        <ele>399.60</ele>
        <time>2017-02-11T08:24:12Z</time>
      </trkpt>
      <trkpt lat="42.470171000" lon="-2.593676000">
        <ele>399.40</ele>
        <time>2017-02-11T08:24:13Z</time>
      </trkpt>
      <trkpt lat="42.470168000" lon="-2.593620000">
        <ele>399.30</ele>
        <time>2017-02-11T08:24:14Z</time>
      </trkpt>
      <trkpt lat="42.470163000" lon="-2.593568000">
        <ele>399.20</ele>
        <time>2017-02-11T08:24:15Z</time>
      </trkpt>
      <trkpt lat="42.470158000" lon="-2.593515000">
        <ele>399.10</ele>
        <time>2017-02-11T08:24:16Z</time>
      </trkpt>
      <trkpt lat="42.470154000" lon="-2.593467000">
        <ele>399.10</ele>
        <time>2017-02-11T08:24:17Z</time>
      </trkpt>
      <trkpt lat="42.470151000" lon="-2.593418000">
        <ele>399.10</ele>
        <time>2017-02-11T08:24:18Z</time>
      </trkpt>
      <trkpt lat="42.470147000" lon="-2.593373000">
        <ele>399.10</ele>
        <time>2017-02-11T08:24:19Z</time>
      </trkpt>
      <trkpt lat="42.470144000" lon="-2.593329000">
        <ele>399.10</ele>
        <time>2017-02-11T08:24:20Z</time>
      </trkpt>
      <trkpt lat="42.470139000" lon="-2.593286000">
        <ele>398.90</ele>
        <time>2017-02-11T08:24:21Z</time>
      </trkpt>
      <trkpt lat="42.470133000" lon="-2.593244000">
        <ele>398.80</ele>
        <time>2017-02-11T08:24:22Z</time>
      </trkpt>
      <trkpt lat="42.470129000" lon="-2.593206000">
        <ele>398.70</ele>
        <time>2017-02-11T08:24:23Z</time>
      </trkpt>
      <trkpt lat="42.470125000" lon="-2.593170000">
        <ele>398.60</ele>
        <time>2017-02-11T08:24:24Z</time>
      </trkpt>
      <trkpt lat="42.470125000" lon="-2.593134000">
        <ele>398.50</ele>
        <time>2017-02-11T08:24:25Z</time>
      </trkpt>
      <trkpt lat="42.470122000" lon="-2.593094000">
        <ele>398.50</ele>
        <time>2017-02-11T08:24:26Z</time>
      </trkpt>
      <trkpt lat="42.470116000" lon="-2.593055000">
        <ele>398.40</ele>
        <time>2017-02-11T08:24:27Z</time>
      </trkpt>
      <trkpt lat="42.470111000" lon="-2.593013000">
        <ele>398.30</ele>
        <time>2017-02-11T08:24:28Z</time>
      </trkpt>
      <trkpt lat="42.470107000" lon="-2.592973000">
        <ele>398.20</ele>
        <time>2017-02-11T08:24:29Z</time>
      </trkpt>
      <trkpt lat="42.470102000" lon="-2.592941000">
        <ele>398.20</ele>
        <time>2017-02-11T08:24:30Z</time>
      </trkpt>
      <trkpt lat="42.470100000" lon="-2.592904000">
        <ele>398.00</ele>
        <time>2017-02-11T08:24:31Z</time>
      </trkpt>
      <trkpt lat="42.470100000" lon="-2.592876000">
        <ele>397.90</ele>
        <time>2017-02-11T08:24:32Z</time>
      </trkpt>
      <trkpt lat="42.470100000" lon="-2.592846000">
        <ele>397.80</ele>
        <time>2017-02-11T08:24:33Z</time>
      </trkpt>
      <trkpt lat="42.470097000" lon="-2.592823000">
        <ele>397.70</ele>
        <time>2017-02-11T08:24:34Z</time>
      </trkpt>
      <trkpt lat="42.470094000" lon="-2.592802000">
        <ele>397.60</ele>
        <time>2017-02-11T08:24:35Z</time>
      </trkpt>
      <trkpt lat="42.470095000" lon="-2.592798000">
        <ele>397.60</ele>
        <time>2017-02-11T08:24:36Z</time>
      </trkpt>
      <trkpt lat="42.470093000" lon="-2.592788000">
        <ele>397.60</ele>
        <time>2017-02-11T08:24:37Z</time>
      </trkpt>
      <trkpt lat="42.470093000" lon="-2.592788000">
        <ele>397.50</ele>
        <time>2017-02-11T08:24:38Z</time>
      </trkpt>
      <trkpt lat="42.470095000" lon="-2.592789000">
        <ele>397.50</ele>
        <time>2017-02-11T08:24:39Z</time>
      </trkpt>
      <trkpt lat="42.470095000" lon="-2.592789000">
        <ele>397.50</ele>
        <time>2017-02-11T08:24:40Z</time>
      </trkpt>
      <trkpt lat="42.470096000" lon="-2.592791000">
        <ele>397.50</ele>
        <time>2017-02-11T08:24:41Z</time>
      </trkpt>
      <trkpt lat="42.470089000" lon="-2.592787000">
        <ele>397.50</ele>
        <time>2017-02-11T08:24:42Z</time>
      </trkpt>
      <trkpt lat="42.470084000" lon="-2.592777000">
        <ele>397.60</ele>
        <time>2017-02-11T08:24:43Z</time>
      </trkpt>
      <trkpt lat="42.470085000" lon="-2.592766000">
        <ele>397.70</ele>
        <time>2017-02-11T08:24:44Z</time>
      </trkpt>
      <trkpt lat="42.470084000" lon="-2.592761000">
        <ele>397.50</ele>
        <time>2017-02-11T08:24:45Z</time>
      </trkpt>
      <trkpt lat="42.470087000" lon="-2.592759000">
        <ele>397.30</ele>
        <time>2017-02-11T08:24:46Z</time>
      </trkpt>
      <trkpt lat="42.470087000" lon="-2.592758000">
        <ele>397.30</ele>
        <time>2017-02-11T08:24:47Z</time>
      </trkpt>
      <trkpt lat="42.470090000" lon="-2.592756000">
        <ele>397.20</ele>
        <time>2017-02-11T08:24:49Z</time>
      </trkpt>
      <trkpt lat="42.470089000" lon="-2.592757000">
        <ele>397.20</ele>
        <time>2017-02-11T08:24:50Z</time>
      </trkpt>
      <trkpt lat="42.470087000" lon="-2.592757000">
        <ele>397.20</ele>
        <time>2017-02-11T08:24:51Z</time>
      </trkpt>
      <trkpt lat="42.470087000" lon="-2.592754000">
        <ele>397.20</ele>
        <time>2017-02-11T08:24:52Z</time>
      </trkpt>
      <trkpt lat="42.470085000" lon="-2.592752000">
        <ele>397.20</ele>
        <time>2017-02-11T08:24:53Z</time>
      </trkpt>
      <trkpt lat="42.470080000" lon="-2.592751000">
        <ele>397.20</ele>
        <time>2017-02-11T08:24:54Z</time>
      </trkpt>
      <trkpt lat="42.470073000" lon="-2.592739000">
        <ele>397.40</ele>
        <time>2017-02-11T08:24:55Z</time>
      </trkpt>
      <trkpt lat="42.470070000" lon="-2.592723000">
        <ele>397.60</ele>
        <time>2017-02-11T08:24:56Z</time>
      </trkpt>
      <trkpt lat="42.470062000" lon="-2.592703000">
        <ele>397.60</ele>
        <time>2017-02-11T08:24:57Z</time>
      </trkpt>
      <trkpt lat="42.470052000" lon="-2.592689000">
        <ele>397.50</ele>
        <time>2017-02-11T08:24:58Z</time>
      </trkpt>
      <trkpt lat="42.470037000" lon="-2.592678000">
        <ele>397.50</ele>
        <time>2017-02-11T08:24:59Z</time>
      </trkpt>
      <trkpt lat="42.470027000" lon="-2.592665000">
        <ele>397.50</ele>
        <time>2017-02-11T08:25:00Z</time>
      </trkpt>
      <trkpt lat="42.470010000" lon="-2.592655000">
        <ele>397.50</ele>
        <time>2017-02-11T08:25:01Z</time>
      </trkpt>
      <trkpt lat="42.469994000" lon="-2.592637000">
        <ele>397.50</ele>
        <time>2017-02-11T08:25:02Z</time>
      </trkpt>
      <trkpt lat="42.469974000" lon="-2.592616000">
        <ele>397.50</ele>
        <time>2017-02-11T08:25:03Z</time>
      </trkpt>
      <trkpt lat="42.469954000" lon="-2.592600000">
        <ele>397.50</ele>
        <time>2017-02-11T08:25:04Z</time>
      </trkpt>
      <trkpt lat="42.469937000" lon="-2.592580000">
        <ele>397.50</ele>
        <time>2017-02-11T08:25:05Z</time>
      </trkpt>
      <trkpt lat="42.469924000" lon="-2.592563000">
        <ele>397.50</ele>
        <time>2017-02-11T08:25:06Z</time>
      </trkpt>
      <trkpt lat="42.469907000" lon="-2.592544000">
        <ele>397.50</ele>
        <time>2017-02-11T08:25:07Z</time>
      </trkpt>
      <trkpt lat="42.469890000" lon="-2.592521000">
        <ele>397.50</ele>
        <time>2017-02-11T08:25:08Z</time>
      </trkpt>
      <trkpt lat="42.469869000" lon="-2.592495000">
        <ele>397.50</ele>
        <time>2017-02-11T08:25:09Z</time>
      </trkpt>
      <trkpt lat="42.469850000" lon="-2.592467000">
        <ele>397.60</ele>
        <time>2017-02-11T08:25:10Z</time>
      </trkpt>
      <trkpt lat="42.469833000" lon="-2.592442000">
        <ele>397.80</ele>
        <time>2017-02-11T08:25:11Z</time>
      </trkpt>
      <trkpt lat="42.469817000" lon="-2.592419000">
        <ele>397.90</ele>
        <time>2017-02-11T08:25:12Z</time>
      </trkpt>
      <trkpt lat="42.469799000" lon="-2.592390000">
        <ele>398.10</ele>
        <time>2017-02-11T08:25:13Z</time>
      </trkpt>
      <trkpt lat="42.469780000" lon="-2.592360000">
        <ele>398.30</ele>
        <time>2017-02-11T08:25:14Z</time>
      </trkpt>
      <trkpt lat="42.469766000" lon="-2.592340000">
        <ele>398.50</ele>
        <time>2017-02-11T08:25:15Z</time>
      </trkpt>
      <trkpt lat="42.469748000" lon="-2.592313000">
        <ele>398.60</ele>
        <time>2017-02-11T08:25:16Z</time>
      </trkpt>
      <trkpt lat="42.469732000" lon="-2.592282000">
        <ele>398.40</ele>
        <time>2017-02-11T08:25:17Z</time>
      </trkpt>
      <trkpt lat="42.469716000" lon="-2.592255000">
        <ele>398.30</ele>
        <time>2017-02-11T08:25:18Z</time>
      </trkpt>
      <trkpt lat="42.469697000" lon="-2.592222000">
        <ele>398.30</ele>
        <time>2017-02-11T08:25:19Z</time>
      </trkpt>
      <trkpt lat="42.469682000" lon="-2.592191000">
        <ele>398.20</ele>
        <time>2017-02-11T08:25:20Z</time>
      </trkpt>
      <trkpt lat="42.469661000" lon="-2.592158000">
        <ele>398.30</ele>
        <time>2017-02-11T08:25:21Z</time>
      </trkpt>
      <trkpt lat="42.469641000" lon="-2.592124000">
        <ele>398.30</ele>
        <time>2017-02-11T08:25:22Z</time>
      </trkpt>
      <trkpt lat="42.469625000" lon="-2.592087000">
        <ele>398.40</ele>
        <time>2017-02-11T08:25:23Z</time>
      </trkpt>
      <trkpt lat="42.469603000" lon="-2.592056000">
        <ele>398.40</ele>
        <time>2017-02-11T08:25:24Z</time>
      </trkpt>
      <trkpt lat="42.469581000" lon="-2.592021000">
        <ele>398.70</ele>
        <time>2017-02-11T08:25:25Z</time>
      </trkpt>
      <trkpt lat="42.469561000" lon="-2.591988000">
        <ele>398.80</ele>
        <time>2017-02-11T08:25:26Z</time>
      </trkpt>
      <trkpt lat="42.469544000" lon="-2.591958000">
        <ele>399.00</ele>
        <time>2017-02-11T08:25:27Z</time>
      </trkpt>
      <trkpt lat="42.469528000" lon="-2.591931000">
        <ele>399.10</ele>
        <time>2017-02-11T08:25:28Z</time>
      </trkpt>
      <trkpt lat="42.469511000" lon="-2.591907000">
        <ele>399.10</ele>
        <time>2017-02-11T08:25:29Z</time>
      </trkpt>
      <trkpt lat="42.469499000" lon="-2.591890000">
        <ele>399.10</ele>
        <time>2017-02-11T08:25:30Z</time>
      </trkpt>
      <trkpt lat="42.469488000" lon="-2.591870000">
        <ele>399.10</ele>
        <time>2017-02-11T08:25:31Z</time>
      </trkpt>
      <trkpt lat="42.469478000" lon="-2.591852000">
        <ele>399.10</ele>
        <time>2017-02-11T08:25:32Z</time>
      </trkpt>
      <trkpt lat="42.469467000" lon="-2.591835000">
        <ele>399.10</ele>
        <time>2017-02-11T08:25:33Z</time>
      </trkpt>
      <trkpt lat="42.469457000" lon="-2.591819000">
        <ele>399.10</ele>
        <time>2017-02-11T08:25:34Z</time>
      </trkpt>
      <trkpt lat="42.469446000" lon="-2.591796000">
        <ele>399.20</ele>
        <time>2017-02-11T08:25:35Z</time>
      </trkpt>
      <trkpt lat="42.469433000" lon="-2.591773000">
        <ele>399.20</ele>
        <time>2017-02-11T08:25:36Z</time>
      </trkpt>
      <trkpt lat="42.469419000" lon="-2.591746000">
        <ele>399.30</ele>
        <time>2017-02-11T08:25:37Z</time>
      </trkpt>
      <trkpt lat="42.469403000" lon="-2.591724000">
        <ele>399.40</ele>
        <time>2017-02-11T08:25:38Z</time>
      </trkpt>
      <trkpt lat="42.469384000" lon="-2.591697000">
        <ele>399.50</ele>
        <time>2017-02-11T08:25:39Z</time>
      </trkpt>
      <trkpt lat="42.469366000" lon="-2.591670000">
        <ele>399.70</ele>
        <time>2017-02-11T08:25:40Z</time>
      </trkpt>
      <trkpt lat="42.469348000" lon="-2.591644000">
        <ele>399.70</ele>
        <time>2017-02-11T08:25:41Z</time>
      </trkpt>
      <trkpt lat="42.469331000" lon="-2.591617000">
        <ele>399.80</ele>
        <time>2017-02-11T08:25:42Z</time>
      </trkpt>
      <trkpt lat="42.469310000" lon="-2.591594000">
        <ele>399.60</ele>
        <time>2017-02-11T08:25:43Z</time>
      </trkpt>
      <trkpt lat="42.469292000" lon="-2.591576000">
        <ele>399.50</ele>
        <time>2017-02-11T08:25:44Z</time>
      </trkpt>
      <trkpt lat="42.469275000" lon="-2.591553000">
        <ele>399.40</ele>
        <time>2017-02-11T08:25:45Z</time>
      </trkpt>
      <trkpt lat="42.469256000" lon="-2.591530000">
        <ele>399.40</ele>
        <time>2017-02-11T08:25:46Z</time>
      </trkpt>
      <trkpt lat="42.469234000" lon="-2.591509000">
        <ele>399.50</ele>
        <time>2017-02-11T08:25:47Z</time>
      </trkpt>
      <trkpt lat="42.469211000" lon="-2.591489000">
        <ele>399.60</ele>
        <time>2017-02-11T08:25:48Z</time>
      </trkpt>
      <trkpt lat="42.469166000" lon="-2.591449000">
        <ele>399.80</ele>
        <time>2017-02-11T08:25:50Z</time>
      </trkpt>
      <trkpt lat="42.469145000" lon="-2.591426000">
        <ele>399.70</ele>
        <time>2017-02-11T08:25:51Z</time>
      </trkpt>
      <trkpt lat="42.469124000" lon="-2.591406000">
        <ele>399.60</ele>
        <time>2017-02-11T08:25:52Z</time>
      </trkpt>
      <trkpt lat="42.469101000" lon="-2.591386000">
        <ele>399.50</ele>
        <time>2017-02-11T08:25:53Z</time>
      </trkpt>
      <trkpt lat="42.469080000" lon="-2.591367000">
        <ele>399.40</ele>
        <time>2017-02-11T08:25:54Z</time>
      </trkpt>
      <trkpt lat="42.469060000" lon="-2.591346000">
        <ele>399.40</ele>
        <time>2017-02-11T08:25:55Z</time>
      </trkpt>
      <trkpt lat="42.469038000" lon="-2.591324000">
        <ele>399.30</ele>
        <time>2017-02-11T08:25:56Z</time>
      </trkpt>
      <trkpt lat="42.469018000" lon="-2.591301000">
        <ele>399.60</ele>
        <time>2017-02-11T08:25:57Z</time>
      </trkpt>
      <trkpt lat="42.468997000" lon="-2.591284000">
        <ele>399.70</ele>
        <time>2017-02-11T08:25:58Z</time>
      </trkpt>
      <trkpt lat="42.468976000" lon="-2.591262000">
        <ele>399.90</ele>
        <time>2017-02-11T08:25:59Z</time>
      </trkpt>
      <trkpt lat="42.468954000" lon="-2.591237000">
        <ele>399.90</ele>
        <time>2017-02-11T08:26:00Z</time>
      </trkpt>
      <trkpt lat="42.468931000" lon="-2.591212000">
        <ele>400.00</ele>
        <time>2017-02-11T08:26:01Z</time>
      </trkpt>
      <trkpt lat="42.468906000" lon="-2.591188000">
        <ele>400.10</ele>
        <time>2017-02-11T08:26:02Z</time>
      </trkpt>
      <trkpt lat="42.468881000" lon="-2.591167000">
        <ele>400.00</ele>
        <time>2017-02-11T08:26:03Z</time>
      </trkpt>
      <trkpt lat="42.468855000" lon="-2.591145000">
        <ele>399.90</ele>
        <time>2017-02-11T08:26:04Z</time>
      </trkpt>
      <trkpt lat="42.468829000" lon="-2.591126000">
        <ele>399.90</ele>
        <time>2017-02-11T08:26:05Z</time>
      </trkpt>
      <trkpt lat="42.468804000" lon="-2.591104000">
        <ele>399.80</ele>
        <time>2017-02-11T08:26:06Z</time>
      </trkpt>
      <trkpt lat="42.468776000" lon="-2.591085000">
        <ele>399.90</ele>
        <time>2017-02-11T08:26:07Z</time>
      </trkpt>
      <trkpt lat="42.468750000" lon="-2.591064000">
        <ele>400.00</ele>
        <time>2017-02-11T08:26:08Z</time>
      </trkpt>
      <trkpt lat="42.468722000" lon="-2.591039000">
        <ele>400.10</ele>
        <time>2017-02-11T08:26:09Z</time>
      </trkpt>
      <trkpt lat="42.468694000" lon="-2.591018000">
        <ele>400.20</ele>
        <time>2017-02-11T08:26:10Z</time>
      </trkpt>
      <trkpt lat="42.468666000" lon="-2.590990000">
        <ele>400.20</ele>
        <time>2017-02-11T08:26:11Z</time>
      </trkpt>
      <trkpt lat="42.468638000" lon="-2.590966000">
        <ele>400.20</ele>
        <time>2017-02-11T08:26:12Z</time>
      </trkpt>
      <trkpt lat="42.468610000" lon="-2.590946000">
        <ele>400.30</ele>
        <time>2017-02-11T08:26:13Z</time>
      </trkpt>
      <trkpt lat="42.468584000" lon="-2.590923000">
        <ele>400.30</ele>
        <time>2017-02-11T08:26:14Z</time>
      </trkpt>
      <trkpt lat="42.468555000" lon="-2.590898000">
        <ele>400.40</ele>
        <time>2017-02-11T08:26:15Z</time>
      </trkpt>
      <trkpt lat="42.468526000" lon="-2.590874000">
        <ele>400.40</ele>
        <time>2017-02-11T08:26:16Z</time>
      </trkpt>
      <trkpt lat="42.468498000" lon="-2.590849000">
        <ele>400.50</ele>
        <time>2017-02-11T08:26:17Z</time>
      </trkpt>
      <trkpt lat="42.468473000" lon="-2.590826000">
        <ele>400.60</ele>
        <time>2017-02-11T08:26:18Z</time>
      </trkpt>
      <trkpt lat="42.468445000" lon="-2.590799000">
        <ele>400.60</ele>
        <time>2017-02-11T08:26:19Z</time>
      </trkpt>
      <trkpt lat="42.468419000" lon="-2.590774000">
        <ele>400.60</ele>
        <time>2017-02-11T08:26:20Z</time>
      </trkpt>
      <trkpt lat="42.468394000" lon="-2.590745000">
        <ele>400.70</ele>
        <time>2017-02-11T08:26:21Z</time>
      </trkpt>
      <trkpt lat="42.468368000" lon="-2.590713000">
        <ele>400.70</ele>
        <time>2017-02-11T08:26:22Z</time>
      </trkpt>
      <trkpt lat="42.468345000" lon="-2.590679000">
        <ele>401.00</ele>
        <time>2017-02-11T08:26:23Z</time>
      </trkpt>
      <trkpt lat="42.468324000" lon="-2.590641000">
        <ele>401.20</ele>
        <time>2017-02-11T08:26:24Z</time>
      </trkpt>
      <trkpt lat="42.468302000" lon="-2.590603000">
        <ele>401.10</ele>
        <time>2017-02-11T08:26:25Z</time>
      </trkpt>
      <trkpt lat="42.468283000" lon="-2.590565000">
        <ele>401.00</ele>
        <time>2017-02-11T08:26:26Z</time>
      </trkpt>
      <trkpt lat="42.468265000" lon="-2.590531000">
        <ele>400.90</ele>
        <time>2017-02-11T08:26:27Z</time>
      </trkpt>
      <trkpt lat="42.468251000" lon="-2.590498000">
        <ele>400.90</ele>
        <time>2017-02-11T08:26:28Z</time>
      </trkpt>
      <trkpt lat="42.468238000" lon="-2.590461000">
        <ele>400.80</ele>
        <time>2017-02-11T08:26:29Z</time>
      </trkpt>
      <trkpt lat="42.468223000" lon="-2.590422000">
        <ele>400.70</ele>
        <time>2017-02-11T08:26:30Z</time>
      </trkpt>
      <trkpt lat="42.468213000" lon="-2.590379000">
        <ele>400.60</ele>
        <time>2017-02-11T08:26:31Z</time>
      </trkpt>
      <trkpt lat="42.468197000" lon="-2.590340000">
        <ele>400.50</ele>
        <time>2017-02-11T08:26:32Z</time>
      </trkpt>
      <trkpt lat="42.468183000" lon="-2.590302000">
        <ele>400.50</ele>
        <time>2017-02-11T08:26:33Z</time>
      </trkpt>
      <trkpt lat="42.468170000" lon="-2.590273000">
        <ele>400.50</ele>
        <time>2017-02-11T08:26:34Z</time>
      </trkpt>
      <trkpt lat="42.468161000" lon="-2.590249000">
        <ele>400.40</ele>
        <time>2017-02-11T08:26:35Z</time>
      </trkpt>
      <trkpt lat="42.468153000" lon="-2.590221000">
        <ele>400.30</ele>
        <time>2017-02-11T08:26:36Z</time>
      </trkpt>
      <trkpt lat="42.468145000" lon="-2.590200000">
        <ele>400.30</ele>
        <time>2017-02-11T08:26:37Z</time>
      </trkpt>
      <trkpt lat="42.468134000" lon="-2.590173000">
        <ele>400.40</ele>
        <time>2017-02-11T08:26:38Z</time>
      </trkpt>
      <trkpt lat="42.468121000" lon="-2.590149000">
        <ele>400.40</ele>
        <time>2017-02-11T08:26:39Z</time>
      </trkpt>
      <trkpt lat="42.468104000" lon="-2.590122000">
        <ele>400.40</ele>
        <time>2017-02-11T08:26:40Z</time>
      </trkpt>
      <trkpt lat="42.468089000" lon="-2.590091000">
        <ele>400.40</ele>
        <time>2017-02-11T08:26:41Z</time>
      </trkpt>
      <trkpt lat="42.468071000" lon="-2.590065000">
        <ele>400.50</ele>
        <time>2017-02-11T08:26:42Z</time>
      </trkpt>
      <trkpt lat="42.468051000" lon="-2.590035000">
        <ele>400.50</ele>
        <time>2017-02-11T08:26:43Z</time>
      </trkpt>
      <trkpt lat="42.468029000" lon="-2.590007000">
        <ele>400.50</ele>
        <time>2017-02-11T08:26:44Z</time>
      </trkpt>
      <trkpt lat="42.468005000" lon="-2.589977000">
        <ele>400.50</ele>
        <time>2017-02-11T08:26:45Z</time>
      </trkpt>
      <trkpt lat="42.467979000" lon="-2.589946000">
        <ele>400.50</ele>
        <time>2017-02-11T08:26:46Z</time>
      </trkpt>
      <trkpt lat="42.467954000" lon="-2.589912000">
        <ele>400.50</ele>
        <time>2017-02-11T08:26:47Z</time>
      </trkpt>
      <trkpt lat="42.467927000" lon="-2.589881000">
        <ele>400.60</ele>
        <time>2017-02-11T08:26:48Z</time>
      </trkpt>
      <trkpt lat="42.467905000" lon="-2.589849000">
        <ele>400.60</ele>
        <time>2017-02-11T08:26:49Z</time>
      </trkpt>
      <trkpt lat="42.467848000" lon="-2.589798000">
        <ele>400.60</ele>
        <time>2017-02-11T08:26:51Z</time>
      </trkpt>
      <trkpt lat="42.467821000" lon="-2.589772000">
        <ele>400.50</ele>
        <time>2017-02-11T08:26:52Z</time>
      </trkpt>
      <trkpt lat="42.467791000" lon="-2.589748000">
        <ele>400.40</ele>
        <time>2017-02-11T08:26:53Z</time>
      </trkpt>
      <trkpt lat="42.467760000" lon="-2.589722000">
        <ele>400.40</ele>
        <time>2017-02-11T08:26:54Z</time>
      </trkpt>
      <trkpt lat="42.467729000" lon="-2.589695000">
        <ele>400.40</ele>
        <time>2017-02-11T08:26:55Z</time>
      </trkpt>
      <trkpt lat="42.467695000" lon="-2.589668000">
        <ele>400.40</ele>
        <time>2017-02-11T08:26:56Z</time>
      </trkpt>
      <trkpt lat="42.467658000" lon="-2.589644000">
        <ele>400.40</ele>
        <time>2017-02-11T08:26:57Z</time>
      </trkpt>
      <trkpt lat="42.467623000" lon="-2.589621000">
        <ele>400.50</ele>
        <time>2017-02-11T08:26:58Z</time>
      </trkpt>
      <trkpt lat="42.467588000" lon="-2.589600000">
        <ele>400.50</ele>
        <time>2017-02-11T08:26:59Z</time>
      </trkpt>
      <trkpt lat="42.467553000" lon="-2.589573000">
        <ele>400.50</ele>
        <time>2017-02-11T08:27:00Z</time>
      </trkpt>
      <trkpt lat="42.467519000" lon="-2.589551000">
        <ele>400.80</ele>
        <time>2017-02-11T08:27:01Z</time>
      </trkpt>
      <trkpt lat="42.467485000" lon="-2.589530000">
        <ele>401.00</ele>
        <time>2017-02-11T08:27:02Z</time>
      </trkpt>
      <trkpt lat="42.467453000" lon="-2.589506000">
        <ele>401.20</ele>
        <time>2017-02-11T08:27:03Z</time>
      </trkpt>
      <trkpt lat="42.467423000" lon="-2.589483000">
        <ele>401.40</ele>
        <time>2017-02-11T08:27:04Z</time>
      </trkpt>
      <trkpt lat="42.467394000" lon="-2.589464000">
        <ele>401.50</ele>
        <time>2017-02-11T08:27:05Z</time>
      </trkpt>
      <trkpt lat="42.467366000" lon="-2.589443000">
        <ele>401.60</ele>
        <time>2017-02-11T08:27:06Z</time>
      </trkpt>
      <trkpt lat="42.467332000" lon="-2.589422000">
        <ele>401.70</ele>
        <time>2017-02-11T08:27:07Z</time>
      </trkpt>
      <trkpt lat="42.467296000" lon="-2.589401000">
        <ele>401.80</ele>
        <time>2017-02-11T08:27:08Z</time>
      </trkpt>
      <trkpt lat="42.467265000" lon="-2.589373000">
        <ele>401.70</ele>
        <time>2017-02-11T08:27:09Z</time>
      </trkpt>
      <trkpt lat="42.467236000" lon="-2.589344000">
        <ele>401.70</ele>
        <time>2017-02-11T08:27:10Z</time>
      </trkpt>
      <trkpt lat="42.467203000" lon="-2.589318000">
        <ele>401.80</ele>
        <time>2017-02-11T08:27:11Z</time>
      </trkpt>
      <trkpt lat="42.467174000" lon="-2.589290000">
        <ele>401.80</ele>
        <time>2017-02-11T08:27:12Z</time>
      </trkpt>
      <trkpt lat="42.467146000" lon="-2.589262000">
        <ele>402.00</ele>
        <time>2017-02-11T08:27:13Z</time>
      </trkpt>
      <trkpt lat="42.467117000" lon="-2.589239000">
        <ele>402.00</ele>
        <time>2017-02-11T08:27:14Z</time>
      </trkpt>
      <trkpt lat="42.467093000" lon="-2.589212000">
        <ele>402.10</ele>
        <time>2017-02-11T08:27:15Z</time>
      </trkpt>
      <trkpt lat="42.467071000" lon="-2.589186000">
        <ele>402.20</ele>
        <time>2017-02-11T08:27:16Z</time>
      </trkpt>
      <trkpt lat="42.467047000" lon="-2.589159000">
        <ele>402.10</ele>
        <time>2017-02-11T08:27:17Z</time>
      </trkpt>
      <trkpt lat="42.467024000" lon="-2.589130000">
        <ele>402.10</ele>
        <time>2017-02-11T08:27:18Z</time>
      </trkpt>
      <trkpt lat="42.467000000" lon="-2.589100000">
        <ele>402.10</ele>
        <time>2017-02-11T08:27:19Z</time>
      </trkpt>
      <trkpt lat="42.466978000" lon="-2.589073000">
        <ele>402.10</ele>
        <time>2017-02-11T08:27:20Z</time>
      </trkpt>
      <trkpt lat="42.466959000" lon="-2.589043000">
        <ele>402.10</ele>
        <time>2017-02-11T08:27:21Z</time>
      </trkpt>
      <trkpt lat="42.466937000" lon="-2.589014000">
        <ele>402.20</ele>
        <time>2017-02-11T08:27:22Z</time>
      </trkpt>
      <trkpt lat="42.466920000" lon="-2.588982000">
        <ele>402.20</ele>
        <time>2017-02-11T08:27:23Z</time>
      </trkpt>
      <trkpt lat="42.466898000" lon="-2.588954000">
        <ele>402.20</ele>
        <time>2017-02-11T08:27:24Z</time>
      </trkpt>
      <trkpt lat="42.466877000" lon="-2.588925000">
        <ele>402.30</ele>
        <time>2017-02-11T08:27:25Z</time>
      </trkpt>
      <trkpt lat="42.466853000" lon="-2.588894000">
        <ele>402.30</ele>
        <time>2017-02-11T08:27:26Z</time>
      </trkpt>
      <trkpt lat="42.466829000" lon="-2.588864000">
        <ele>402.30</ele>
        <time>2017-02-11T08:27:27Z</time>
      </trkpt>
      <trkpt lat="42.466807000" lon="-2.588836000">
        <ele>402.30</ele>
        <time>2017-02-11T08:27:28Z</time>
      </trkpt>
      <trkpt lat="42.466784000" lon="-2.588809000">
        <ele>402.30</ele>
        <time>2017-02-11T08:27:29Z</time>
      </trkpt>
      <trkpt lat="42.466761000" lon="-2.588786000">
        <ele>402.30</ele>
        <time>2017-02-11T08:27:30Z</time>
      </trkpt>
      <trkpt lat="42.466738000" lon="-2.588762000">
        <ele>402.30</ele>
        <time>2017-02-11T08:27:31Z</time>
      </trkpt>
      <trkpt lat="42.466714000" lon="-2.588737000">
        <ele>402.30</ele>
        <time>2017-02-11T08:27:32Z</time>
      </trkpt>
      <trkpt lat="42.466690000" lon="-2.588712000">
        <ele>402.30</ele>
        <time>2017-02-11T08:27:33Z</time>
      </trkpt>
      <trkpt lat="42.466671000" lon="-2.588690000">
        <ele>402.20</ele>
        <time>2017-02-11T08:27:34Z</time>
      </trkpt>
      <trkpt lat="42.466650000" lon="-2.588665000">
        <ele>402.20</ele>
        <time>2017-02-11T08:27:35Z</time>
      </trkpt>
      <trkpt lat="42.466629000" lon="-2.588642000">
        <ele>402.20</ele>
        <time>2017-02-11T08:27:36Z</time>
      </trkpt>
      <trkpt lat="42.466608000" lon="-2.588614000">
        <ele>402.30</ele>
        <time>2017-02-11T08:27:37Z</time>
      </trkpt>
      <trkpt lat="42.466585000" lon="-2.588588000">
        <ele>402.40</ele>
        <time>2017-02-11T08:27:38Z</time>
      </trkpt>
      <trkpt lat="42.466564000" lon="-2.588563000">
        <ele>402.40</ele>
        <time>2017-02-11T08:27:39Z</time>
      </trkpt>
      <trkpt lat="42.466541000" lon="-2.588535000">
        <ele>402.40</ele>
        <time>2017-02-11T08:27:40Z</time>
      </trkpt>
      <trkpt lat="42.466515000" lon="-2.588502000">
        <ele>402.50</ele>
        <time>2017-02-11T08:27:41Z</time>
      </trkpt>
      <trkpt lat="42.466485000" lon="-2.588467000">
        <ele>402.60</ele>
        <time>2017-02-11T08:27:42Z</time>
      </trkpt>
      <trkpt lat="42.466451000" lon="-2.588435000">
        <ele>402.80</ele>
        <time>2017-02-11T08:27:43Z</time>
      </trkpt>
      <trkpt lat="42.466419000" lon="-2.588402000">
        <ele>402.90</ele>
        <time>2017-02-11T08:27:44Z</time>
      </trkpt>
      <trkpt lat="42.466389000" lon="-2.588367000">
        <ele>403.00</ele>
        <time>2017-02-11T08:27:45Z</time>
      </trkpt>
      <trkpt lat="42.466360000" lon="-2.588331000">
        <ele>403.10</ele>
        <time>2017-02-11T08:27:46Z</time>
      </trkpt>
      <trkpt lat="42.466331000" lon="-2.588301000">
        <ele>403.30</ele>
        <time>2017-02-11T08:27:47Z</time>
      </trkpt>
      <trkpt lat="42.466305000" lon="-2.588272000">
        <ele>403.40</ele>
        <time>2017-02-11T08:27:48Z</time>
      </trkpt>
      <trkpt lat="42.466286000" lon="-2.588246000">
        <ele>403.40</ele>
        <time>2017-02-11T08:27:49Z</time>
      </trkpt>
      <trkpt lat="42.466272000" lon="-2.588225000">
        <ele>403.40</ele>
        <time>2017-02-11T08:27:50Z</time>
      </trkpt>
      <trkpt lat="42.466234000" lon="-2.588186000">
        <ele>403.40</ele>
        <time>2017-02-11T08:27:52Z</time>
      </trkpt>
      <trkpt lat="42.466204000" lon="-2.588183000">
        <ele>403.40</ele>
        <time>2017-02-11T08:27:53Z</time>
      </trkpt>
      <trkpt lat="42.466169000" lon="-2.588192000">
        <ele>403.40</ele>
        <time>2017-02-11T08:27:54Z</time>
      </trkpt>
      <trkpt lat="42.466135000" lon="-2.588208000">
        <ele>403.40</ele>
        <time>2017-02-11T08:27:55Z</time>
      </trkpt>
      <trkpt lat="42.466100000" lon="-2.588224000">
        <ele>403.50</ele>
        <time>2017-02-11T08:27:56Z</time>
      </trkpt>
      <trkpt lat="42.466062000" lon="-2.588246000">
        <ele>403.50</ele>
        <time>2017-02-11T08:27:57Z</time>
      </trkpt>
      <trkpt lat="42.466025000" lon="-2.588264000">
        <ele>403.50</ele>
        <time>2017-02-11T08:27:58Z</time>
      </trkpt>
      <trkpt lat="42.465987000" lon="-2.588284000">
        <ele>403.70</ele>
        <time>2017-02-11T08:27:59Z</time>
      </trkpt>
      <trkpt lat="42.465949000" lon="-2.588305000">
        <ele>403.80</ele>
        <time>2017-02-11T08:28:00Z</time>
      </trkpt>
      <trkpt lat="42.465912000" lon="-2.588325000">
        <ele>403.80</ele>
        <time>2017-02-11T08:28:01Z</time>
      </trkpt>
      <trkpt lat="42.465875000" lon="-2.588344000">
        <ele>403.80</ele>
        <time>2017-02-11T08:28:02Z</time>
      </trkpt>
      <trkpt lat="42.465838000" lon="-2.588363000">
        <ele>403.80</ele>
        <time>2017-02-11T08:28:03Z</time>
      </trkpt>
      <trkpt lat="42.465803000" lon="-2.588382000">
        <ele>403.80</ele>
        <time>2017-02-11T08:28:04Z</time>
      </trkpt>
      <trkpt lat="42.465771000" lon="-2.588400000">
        <ele>403.80</ele>
        <time>2017-02-11T08:28:05Z</time>
      </trkpt>
      <trkpt lat="42.465743000" lon="-2.588420000">
        <ele>403.90</ele>
        <time>2017-02-11T08:28:06Z</time>
      </trkpt>
      <trkpt lat="42.465712000" lon="-2.588442000">
        <ele>403.90</ele>
        <time>2017-02-11T08:28:07Z</time>
      </trkpt>
      <trkpt lat="42.465681000" lon="-2.588458000">
        <ele>404.00</ele>
        <time>2017-02-11T08:28:08Z</time>
      </trkpt>
      <trkpt lat="42.465647000" lon="-2.588469000">
        <ele>404.00</ele>
        <time>2017-02-11T08:28:09Z</time>
      </trkpt>
      <trkpt lat="42.465615000" lon="-2.588481000">
        <ele>404.00</ele>
        <time>2017-02-11T08:28:10Z</time>
      </trkpt>
      <trkpt lat="42.465587000" lon="-2.588492000">
        <ele>404.10</ele>
        <time>2017-02-11T08:28:11Z</time>
      </trkpt>
      <trkpt lat="42.465559000" lon="-2.588508000">
        <ele>404.10</ele>
        <time>2017-02-11T08:28:12Z</time>
      </trkpt>
      <trkpt lat="42.465530000" lon="-2.588523000">
        <ele>404.20</ele>
        <time>2017-02-11T08:28:13Z</time>
      </trkpt>
      <trkpt lat="42.465502000" lon="-2.588534000">
        <ele>404.20</ele>
        <time>2017-02-11T08:28:14Z</time>
      </trkpt>
      <trkpt lat="42.465472000" lon="-2.588549000">
        <ele>404.30</ele>
        <time>2017-02-11T08:28:15Z</time>
      </trkpt>
      <trkpt lat="42.465442000" lon="-2.588566000">
        <ele>404.30</ele>
        <time>2017-02-11T08:28:16Z</time>
      </trkpt>
      <trkpt lat="42.465410000" lon="-2.588586000">
        <ele>404.20</ele>
        <time>2017-02-11T08:28:17Z</time>
      </trkpt>
      <trkpt lat="42.465381000" lon="-2.588603000">
        <ele>404.20</ele>
        <time>2017-02-11T08:28:18Z</time>
      </trkpt>
      <trkpt lat="42.465352000" lon="-2.588615000">
        <ele>404.20</ele>
        <time>2017-02-11T08:28:19Z</time>
      </trkpt>
      <trkpt lat="42.465321000" lon="-2.588628000">
        <ele>404.20</ele>
        <time>2017-02-11T08:28:20Z</time>
      </trkpt>
      <trkpt lat="42.465288000" lon="-2.588637000">
        <ele>404.30</ele>
        <time>2017-02-11T08:28:21Z</time>
      </trkpt>
      <trkpt lat="42.465250000" lon="-2.588650000">
        <ele>404.40</ele>
        <time>2017-02-11T08:28:22Z</time>
      </trkpt>
      <trkpt lat="42.465214000" lon="-2.588659000">
        <ele>404.50</ele>
        <time>2017-02-11T08:28:23Z</time>
      </trkpt>
      <trkpt lat="42.465177000" lon="-2.588674000">
        <ele>404.60</ele>
        <time>2017-02-11T08:28:24Z</time>
      </trkpt>
      <trkpt lat="42.465138000" lon="-2.588688000">
        <ele>404.80</ele>
        <time>2017-02-11T08:28:25Z</time>
      </trkpt>
      <trkpt lat="42.465098000" lon="-2.588700000">
        <ele>405.00</ele>
        <time>2017-02-11T08:28:26Z</time>
      </trkpt>
      <trkpt lat="42.465062000" lon="-2.588710000">
        <ele>405.00</ele>
        <time>2017-02-11T08:28:27Z</time>
      </trkpt>
      <trkpt lat="42.465023000" lon="-2.588723000">
        <ele>404.90</ele>
        <time>2017-02-11T08:28:28Z</time>
      </trkpt>
      <trkpt lat="42.464985000" lon="-2.588732000">
        <ele>404.90</ele>
        <time>2017-02-11T08:28:29Z</time>
      </trkpt>
      <trkpt lat="42.464948000" lon="-2.588744000">
        <ele>404.90</ele>
        <time>2017-02-11T08:28:30Z</time>
      </trkpt>
      <trkpt lat="42.464911000" lon="-2.588757000">
        <ele>404.90</ele>
        <time>2017-02-11T08:28:31Z</time>
      </trkpt>
      <trkpt lat="42.464872000" lon="-2.588764000">
        <ele>404.90</ele>
        <time>2017-02-11T08:28:32Z</time>
      </trkpt>
      <trkpt lat="42.464837000" lon="-2.588769000">
        <ele>405.00</ele>
        <time>2017-02-11T08:28:33Z</time>
      </trkpt>
      <trkpt lat="42.464805000" lon="-2.588771000">
        <ele>405.00</ele>
        <time>2017-02-11T08:28:34Z</time>
      </trkpt>
      <trkpt lat="42.464767000" lon="-2.588776000">
        <ele>405.60</ele>
        <time>2017-02-11T08:28:35Z</time>
      </trkpt>
      <trkpt lat="42.464731000" lon="-2.588781000">
        <ele>406.00</ele>
        <time>2017-02-11T08:28:36Z</time>
      </trkpt>
      <trkpt lat="42.464696000" lon="-2.588791000">
        <ele>406.30</ele>
        <time>2017-02-11T08:28:37Z</time>
      </trkpt>
      <trkpt lat="42.464660000" lon="-2.588797000">
        <ele>406.50</ele>
        <time>2017-02-11T08:28:38Z</time>
      </trkpt>
      <trkpt lat="42.464627000" lon="-2.588801000">
        <ele>406.60</ele>
        <time>2017-02-11T08:28:39Z</time>
      </trkpt>
      <trkpt lat="42.464594000" lon="-2.588801000">
        <ele>406.70</ele>
        <time>2017-02-11T08:28:40Z</time>
      </trkpt>
      <trkpt lat="42.464560000" lon="-2.588807000">
        <ele>406.70</ele>
        <time>2017-02-11T08:28:41Z</time>
      </trkpt>
      <trkpt lat="42.464524000" lon="-2.588804000">
        <ele>406.80</ele>
        <time>2017-02-11T08:28:42Z</time>
      </trkpt>
      <trkpt lat="42.464488000" lon="-2.588806000">
        <ele>407.20</ele>
        <time>2017-02-11T08:28:43Z</time>
      </trkpt>
      <trkpt lat="42.464451000" lon="-2.588806000">
        <ele>407.50</ele>
        <time>2017-02-11T08:28:44Z</time>
      </trkpt>
      <trkpt lat="42.464414000" lon="-2.588806000">
        <ele>407.70</ele>
        <time>2017-02-11T08:28:45Z</time>
      </trkpt>
      <trkpt lat="42.464378000" lon="-2.588805000">
        <ele>407.90</ele>
        <time>2017-02-11T08:28:46Z</time>
      </trkpt>
      <trkpt lat="42.464341000" lon="-2.588806000">
        <ele>407.90</ele>
        <time>2017-02-11T08:28:47Z</time>
      </trkpt>
      <trkpt lat="42.464304000" lon="-2.588804000">
        <ele>407.90</ele>
        <time>2017-02-11T08:28:48Z</time>
      </trkpt>
      <trkpt lat="42.464267000" lon="-2.588800000">
        <ele>407.90</ele>
        <time>2017-02-11T08:28:49Z</time>
      </trkpt>
      <trkpt lat="42.464229000" lon="-2.588803000">
        <ele>407.90</ele>
        <time>2017-02-11T08:28:50Z</time>
      </trkpt>
      <trkpt lat="42.464191000" lon="-2.588804000">
        <ele>407.90</ele>
        <time>2017-02-11T08:28:51Z</time>
      </trkpt>
      <trkpt lat="42.464117000" lon="-2.588809000">
        <ele>407.90</ele>
        <time>2017-02-11T08:28:53Z</time>
      </trkpt>
      <trkpt lat="42.464081000" lon="-2.588812000">
        <ele>407.90</ele>
        <time>2017-02-11T08:28:54Z</time>
      </trkpt>
      <trkpt lat="42.464045000" lon="-2.588815000">
        <ele>407.90</ele>
        <time>2017-02-11T08:28:55Z</time>
      </trkpt>
      <trkpt lat="42.464009000" lon="-2.588819000">
        <ele>407.90</ele>
        <time>2017-02-11T08:28:56Z</time>
      </trkpt>
      <trkpt lat="42.463971000" lon="-2.588829000">
        <ele>408.10</ele>
        <time>2017-02-11T08:28:57Z</time>
      </trkpt>
      <trkpt lat="42.463935000" lon="-2.588834000">
        <ele>408.20</ele>
        <time>2017-02-11T08:28:58Z</time>
      </trkpt>
      <trkpt lat="42.463895000" lon="-2.588835000">
        <ele>408.40</ele>
        <time>2017-02-11T08:28:59Z</time>
      </trkpt>
      <trkpt lat="42.463858000" lon="-2.588838000">
        <ele>408.50</ele>
        <time>2017-02-11T08:29:00Z</time>
      </trkpt>
      <trkpt lat="42.463816000" lon="-2.588837000">
        <ele>408.50</ele>
        <time>2017-02-11T08:29:01Z</time>
      </trkpt>
      <trkpt lat="42.463776000" lon="-2.588836000">
        <ele>408.50</ele>
        <time>2017-02-11T08:29:02Z</time>
      </trkpt>
      <trkpt lat="42.463739000" lon="-2.588841000">
        <ele>408.60</ele>
        <time>2017-02-11T08:29:03Z</time>
      </trkpt>
      <trkpt lat="42.463704000" lon="-2.588843000">
        <ele>408.70</ele>
        <time>2017-02-11T08:29:04Z</time>
      </trkpt>
      <trkpt lat="42.463665000" lon="-2.588850000">
        <ele>408.80</ele>
        <time>2017-02-11T08:29:05Z</time>
      </trkpt>
      <trkpt lat="42.463628000" lon="-2.588857000">
        <ele>408.90</ele>
        <time>2017-02-11T08:29:06Z</time>
      </trkpt>
      <trkpt lat="42.463588000" lon="-2.588857000">
        <ele>409.00</ele>
        <time>2017-02-11T08:29:07Z</time>
      </trkpt>
      <trkpt lat="42.463551000" lon="-2.588856000">
        <ele>409.10</ele>
        <time>2017-02-11T08:29:08Z</time>
      </trkpt>
      <trkpt lat="42.463512000" lon="-2.588859000">
        <ele>409.10</ele>
        <time>2017-02-11T08:29:09Z</time>
      </trkpt>
      <trkpt lat="42.463473000" lon="-2.588856000">
        <ele>409.10</ele>
        <time>2017-02-11T08:29:10Z</time>
      </trkpt>
      <trkpt lat="42.463436000" lon="-2.588857000">
        <ele>409.10</ele>
        <time>2017-02-11T08:29:11Z</time>
      </trkpt>
      <trkpt lat="42.463399000" lon="-2.588857000">
        <ele>409.10</ele>
        <time>2017-02-11T08:29:12Z</time>
      </trkpt>
      <trkpt lat="42.463361000" lon="-2.588856000">
        <ele>409.10</ele>
        <time>2017-02-11T08:29:13Z</time>
      </trkpt>
      <trkpt lat="42.463324000" lon="-2.588856000">
        <ele>409.10</ele>
        <time>2017-02-11T08:29:14Z</time>
      </trkpt>
      <trkpt lat="42.463286000" lon="-2.588859000">
        <ele>409.40</ele>
        <time>2017-02-11T08:29:15Z</time>
      </trkpt>
      <trkpt lat="42.463249000" lon="-2.588855000">
        <ele>409.60</ele>
        <time>2017-02-11T08:29:16Z</time>
      </trkpt>
      <trkpt lat="42.463212000" lon="-2.588853000">
        <ele>409.80</ele>
        <time>2017-02-11T08:29:17Z</time>
      </trkpt>
      <trkpt lat="42.463174000" lon="-2.588853000">
        <ele>409.90</ele>
        <time>2017-02-11T08:29:18Z</time>
      </trkpt>
      <trkpt lat="42.463138000" lon="-2.588849000">
        <ele>410.10</ele>
        <time>2017-02-11T08:29:19Z</time>
      </trkpt>
      <trkpt lat="42.463100000" lon="-2.588846000">
        <ele>410.30</ele>
        <time>2017-02-11T08:29:20Z</time>
      </trkpt>
      <trkpt lat="42.463062000" lon="-2.588844000">
        <ele>410.40</ele>
        <time>2017-02-11T08:29:21Z</time>
      </trkpt>
      <trkpt lat="42.463024000" lon="-2.588845000">
        <ele>410.50</ele>
        <time>2017-02-11T08:29:22Z</time>
      </trkpt>
      <trkpt lat="42.462987000" lon="-2.588843000">
        <ele>410.60</ele>
        <time>2017-02-11T08:29:23Z</time>
      </trkpt>
      <trkpt lat="42.462948000" lon="-2.588842000">
        <ele>410.70</ele>
        <time>2017-02-11T08:29:24Z</time>
      </trkpt>
      <trkpt lat="42.462910000" lon="-2.588843000">
        <ele>410.70</ele>
        <time>2017-02-11T08:29:25Z</time>
      </trkpt>
      <trkpt lat="42.462871000" lon="-2.588844000">
        <ele>410.80</ele>
        <time>2017-02-11T08:29:26Z</time>
      </trkpt>
      <trkpt lat="42.462834000" lon="-2.588848000">
        <ele>410.80</ele>
        <time>2017-02-11T08:29:27Z</time>
      </trkpt>
      <trkpt lat="42.462799000" lon="-2.588852000">
        <ele>410.70</ele>
        <time>2017-02-11T08:29:28Z</time>
      </trkpt>
      <trkpt lat="42.462763000" lon="-2.588854000">
        <ele>410.80</ele>
        <time>2017-02-11T08:29:29Z</time>
      </trkpt>
      <trkpt lat="42.462727000" lon="-2.588856000">
        <ele>410.80</ele>
        <time>2017-02-11T08:29:30Z</time>
      </trkpt>
      <trkpt lat="42.462692000" lon="-2.588855000">
        <ele>411.00</ele>
        <time>2017-02-11T08:29:31Z</time>
      </trkpt>
      <trkpt lat="42.462656000" lon="-2.588859000">
        <ele>411.10</ele>
        <time>2017-02-11T08:29:32Z</time>
      </trkpt>
      <trkpt lat="42.462627000" lon="-2.588854000">
        <ele>411.20</ele>
        <time>2017-02-11T08:29:33Z</time>
      </trkpt>
      <trkpt lat="42.462599000" lon="-2.588844000">
        <ele>411.20</ele>
        <time>2017-02-11T08:29:34Z</time>
      </trkpt>
      <trkpt lat="42.462572000" lon="-2.588826000">
        <ele>411.40</ele>
        <time>2017-02-11T08:29:35Z</time>
      </trkpt>
      <trkpt lat="42.462543000" lon="-2.588810000">
        <ele>411.50</ele>
        <time>2017-02-11T08:29:36Z</time>
      </trkpt>
      <trkpt lat="42.462514000" lon="-2.588807000">
        <ele>411.70</ele>
        <time>2017-02-11T08:29:37Z</time>
      </trkpt>
      <trkpt lat="42.462486000" lon="-2.588797000">
        <ele>411.90</ele>
        <time>2017-02-11T08:29:38Z</time>
      </trkpt>
      <trkpt lat="42.462460000" lon="-2.588787000">
        <ele>412.10</ele>
        <time>2017-02-11T08:29:39Z</time>
      </trkpt>
      <trkpt lat="42.462429000" lon="-2.588774000">
        <ele>412.30</ele>
        <time>2017-02-11T08:29:40Z</time>
      </trkpt>
      <trkpt lat="42.462397000" lon="-2.588761000">
        <ele>412.40</ele>
        <time>2017-02-11T08:29:41Z</time>
      </trkpt>
      <trkpt lat="42.462364000" lon="-2.588748000">
        <ele>412.40</ele>
        <time>2017-02-11T08:29:42Z</time>
      </trkpt>
      <trkpt lat="42.462328000" lon="-2.588737000">
        <ele>412.40</ele>
        <time>2017-02-11T08:29:43Z</time>
      </trkpt>
      <trkpt lat="42.462293000" lon="-2.588730000">
        <ele>412.30</ele>
        <time>2017-02-11T08:29:44Z</time>
      </trkpt>
      <trkpt lat="42.462258000" lon="-2.588726000">
        <ele>412.30</ele>
        <time>2017-02-11T08:29:45Z</time>
      </trkpt>
      <trkpt lat="42.462222000" lon="-2.588720000">
        <ele>412.30</ele>
        <time>2017-02-11T08:29:46Z</time>
      </trkpt>
      <trkpt lat="42.462187000" lon="-2.588715000">
        <ele>412.20</ele>
        <time>2017-02-11T08:29:47Z</time>
      </trkpt>
      <trkpt lat="42.462156000" lon="-2.588704000">
        <ele>412.10</ele>
        <time>2017-02-11T08:29:48Z</time>
      </trkpt>
      <trkpt lat="42.462123000" lon="-2.588694000">
        <ele>412.20</ele>
        <time>2017-02-11T08:29:49Z</time>
      </trkpt>
      <trkpt lat="42.462091000" lon="-2.588690000">
        <ele>412.30</ele>
        <time>2017-02-11T08:29:50Z</time>
      </trkpt>
      <trkpt lat="42.462058000" lon="-2.588679000">
        <ele>412.20</ele>
        <time>2017-02-11T08:29:51Z</time>
      </trkpt>
      <trkpt lat="42.462027000" lon="-2.588669000">
        <ele>412.20</ele>
        <time>2017-02-11T08:29:52Z</time>
      </trkpt>
      <trkpt lat="42.461963000" lon="-2.588650000">
        <ele>412.20</ele>
        <time>2017-02-11T08:29:54Z</time>
      </trkpt>
      <trkpt lat="42.461931000" lon="-2.588642000">
        <ele>412.20</ele>
        <time>2017-02-11T08:29:55Z</time>
      </trkpt>
      <trkpt lat="42.461902000" lon="-2.588637000">
        <ele>412.20</ele>
        <time>2017-02-11T08:29:56Z</time>
      </trkpt>
      <trkpt lat="42.461872000" lon="-2.588635000">
        <ele>412.30</ele>
        <time>2017-02-11T08:29:57Z</time>
      </trkpt>
      <trkpt lat="42.461843000" lon="-2.588626000">
        <ele>412.40</ele>
        <time>2017-02-11T08:29:58Z</time>
      </trkpt>
      <trkpt lat="42.461815000" lon="-2.588618000">
        <ele>412.50</ele>
        <time>2017-02-11T08:29:59Z</time>
      </trkpt>
      <trkpt lat="42.461787000" lon="-2.588611000">
        <ele>412.60</ele>
        <time>2017-02-11T08:30:00Z</time>
      </trkpt>
      <trkpt lat="42.461760000" lon="-2.588602000">
        <ele>412.70</ele>
        <time>2017-02-11T08:30:01Z</time>
      </trkpt>
      <trkpt lat="42.461732000" lon="-2.588575000">
        <ele>412.70</ele>
        <time>2017-02-11T08:30:02Z</time>
      </trkpt>
      <trkpt lat="42.461717000" lon="-2.588553000">
        <ele>412.90</ele>
        <time>2017-02-11T08:30:03Z</time>
      </trkpt>
      <trkpt lat="42.461709000" lon="-2.588522000">
        <ele>413.00</ele>
        <time>2017-02-11T08:30:04Z</time>
      </trkpt>
      <trkpt lat="42.461701000" lon="-2.588483000">
        <ele>413.50</ele>
        <time>2017-02-11T08:30:05Z</time>
      </trkpt>
      <trkpt lat="42.461695000" lon="-2.588443000">
        <ele>413.80</ele>
        <time>2017-02-11T08:30:06Z</time>
      </trkpt>
      <trkpt lat="42.461684000" lon="-2.588408000">
        <ele>414.00</ele>
        <time>2017-02-11T08:30:07Z</time>
      </trkpt>
      <trkpt lat="42.461678000" lon="-2.588368000">
        <ele>414.20</ele>
        <time>2017-02-11T08:30:08Z</time>
      </trkpt>
      <trkpt lat="42.461671000" lon="-2.588323000">
        <ele>414.40</ele>
        <time>2017-02-11T08:30:09Z</time>
      </trkpt>
      <trkpt lat="42.461668000" lon="-2.588283000">
        <ele>414.50</ele>
        <time>2017-02-11T08:30:10Z</time>
      </trkpt>
      <trkpt lat="42.461663000" lon="-2.588245000">
        <ele>414.50</ele>
        <time>2017-02-11T08:30:11Z</time>
      </trkpt>
      <trkpt lat="42.461656000" lon="-2.588206000">
        <ele>414.50</ele>
        <time>2017-02-11T08:30:12Z</time>
      </trkpt>
      <trkpt lat="42.461651000" lon="-2.588167000">
        <ele>414.50</ele>
        <time>2017-02-11T08:30:13Z</time>
      </trkpt>
      <trkpt lat="42.461646000" lon="-2.588126000">
        <ele>414.50</ele>
        <time>2017-02-11T08:30:14Z</time>
      </trkpt>
      <trkpt lat="42.461636000" lon="-2.588089000">
        <ele>414.60</ele>
        <time>2017-02-11T08:30:15Z</time>
      </trkpt>
      <trkpt lat="42.461626000" lon="-2.588051000">
        <ele>414.60</ele>
        <time>2017-02-11T08:30:16Z</time>
      </trkpt>
      <trkpt lat="42.461618000" lon="-2.588012000">
        <ele>414.70</ele>
        <time>2017-02-11T08:30:17Z</time>
      </trkpt>
      <trkpt lat="42.461611000" lon="-2.587976000">
        <ele>414.80</ele>
        <time>2017-02-11T08:30:18Z</time>
      </trkpt>
      <trkpt lat="42.461610000" lon="-2.587939000">
        <ele>414.90</ele>
        <time>2017-02-11T08:30:19Z</time>
      </trkpt>
      <trkpt lat="42.461603000" lon="-2.587900000">
        <ele>414.90</ele>
        <time>2017-02-11T08:30:20Z</time>
      </trkpt>
      <trkpt lat="42.461592000" lon="-2.587864000">
        <ele>414.90</ele>
        <time>2017-02-11T08:30:21Z</time>
      </trkpt>
      <trkpt lat="42.461587000" lon="-2.587824000">
        <ele>415.00</ele>
        <time>2017-02-11T08:30:22Z</time>
      </trkpt>
      <trkpt lat="42.461575000" lon="-2.587786000">
        <ele>415.00</ele>
        <time>2017-02-11T08:30:23Z</time>
      </trkpt>
      <trkpt lat="42.461567000" lon="-2.587753000">
        <ele>415.00</ele>
        <time>2017-02-11T08:30:24Z</time>
      </trkpt>
      <trkpt lat="42.461557000" lon="-2.587718000">
        <ele>415.00</ele>
        <time>2017-02-11T08:30:25Z</time>
      </trkpt>
      <trkpt lat="42.461550000" lon="-2.587681000">
        <ele>415.00</ele>
        <time>2017-02-11T08:30:26Z</time>
      </trkpt>
      <trkpt lat="42.461542000" lon="-2.587645000">
        <ele>415.00</ele>
        <time>2017-02-11T08:30:27Z</time>
      </trkpt>
      <trkpt lat="42.461532000" lon="-2.587607000">
        <ele>415.00</ele>
        <time>2017-02-11T08:30:28Z</time>
      </trkpt>
      <trkpt lat="42.461523000" lon="-2.587567000">
        <ele>415.00</ele>
        <time>2017-02-11T08:30:29Z</time>
      </trkpt>
      <trkpt lat="42.461518000" lon="-2.587526000">
        <ele>415.00</ele>
        <time>2017-02-11T08:30:30Z</time>
      </trkpt>
      <trkpt lat="42.461512000" lon="-2.587490000">
        <ele>415.20</ele>
        <time>2017-02-11T08:30:31Z</time>
      </trkpt>
      <trkpt lat="42.461505000" lon="-2.587455000">
        <ele>415.30</ele>
        <time>2017-02-11T08:30:32Z</time>
      </trkpt>
      <trkpt lat="42.461497000" lon="-2.587417000">
        <ele>415.30</ele>
        <time>2017-02-11T08:30:33Z</time>
      </trkpt>
      <trkpt lat="42.461487000" lon="-2.587381000">
        <ele>415.40</ele>
        <time>2017-02-11T08:30:34Z</time>
      </trkpt>
      <trkpt lat="42.461480000" lon="-2.587339000">
        <ele>415.50</ele>
        <time>2017-02-11T08:30:35Z</time>
      </trkpt>
      <trkpt lat="42.461473000" lon="-2.587299000">
        <ele>415.60</ele>
        <time>2017-02-11T08:30:36Z</time>
      </trkpt>
      <trkpt lat="42.461469000" lon="-2.587263000">
        <ele>415.80</ele>
        <time>2017-02-11T08:30:37Z</time>
      </trkpt>
      <trkpt lat="42.461462000" lon="-2.587229000">
        <ele>416.00</ele>
        <time>2017-02-11T08:30:38Z</time>
      </trkpt>
      <trkpt lat="42.461460000" lon="-2.587195000">
        <ele>416.20</ele>
        <time>2017-02-11T08:30:39Z</time>
      </trkpt>
      <trkpt lat="42.461456000" lon="-2.587160000">
        <ele>416.40</ele>
        <time>2017-02-11T08:30:40Z</time>
      </trkpt>
      <trkpt lat="42.461452000" lon="-2.587126000">
        <ele>416.70</ele>
        <time>2017-02-11T08:30:41Z</time>
      </trkpt>
      <trkpt lat="42.461446000" lon="-2.587088000">
        <ele>416.90</ele>
        <time>2017-02-11T08:30:42Z</time>
      </trkpt>
      <trkpt lat="42.461439000" lon="-2.587051000">
        <ele>416.90</ele>
        <time>2017-02-11T08:30:43Z</time>
      </trkpt>
      <trkpt lat="42.461433000" lon="-2.587014000">
        <ele>416.90</ele>
        <time>2017-02-11T08:30:44Z</time>
      </trkpt>
      <trkpt lat="42.461426000" lon="-2.586976000">
        <ele>416.80</ele>
        <time>2017-02-11T08:30:45Z</time>
      </trkpt>
      <trkpt lat="42.461421000" lon="-2.586936000">
        <ele>416.70</ele>
        <time>2017-02-11T08:30:46Z</time>
      </trkpt>
      <trkpt lat="42.461418000" lon="-2.586898000">
        <ele>416.70</ele>
        <time>2017-02-11T08:30:47Z</time>
      </trkpt>
      <trkpt lat="42.461414000" lon="-2.586861000">
        <ele>416.70</ele>
        <time>2017-02-11T08:30:48Z</time>
      </trkpt>
      <trkpt lat="42.461411000" lon="-2.586825000">
        <ele>416.80</ele>
        <time>2017-02-11T08:30:49Z</time>
      </trkpt>
      <trkpt lat="42.461408000" lon="-2.586788000">
        <ele>416.90</ele>
        <time>2017-02-11T08:30:50Z</time>
      </trkpt>
      <trkpt lat="42.461403000" lon="-2.586751000">
        <ele>417.30</ele>
        <time>2017-02-11T08:30:51Z</time>
      </trkpt>
      <trkpt lat="42.461398000" lon="-2.586714000">
        <ele>417.50</ele>
        <time>2017-02-11T08:30:52Z</time>
      </trkpt>
      <trkpt lat="42.461392000" lon="-2.586673000">
        <ele>417.70</ele>
        <time>2017-02-11T08:30:53Z</time>
      </trkpt>
      <trkpt lat="42.461383000" lon="-2.586596000">
        <ele>418.00</ele>
        <time>2017-02-11T08:30:55Z</time>
      </trkpt>
      <trkpt lat="42.461377000" lon="-2.586560000">
        <ele>418.10</ele>
        <time>2017-02-11T08:30:56Z</time>
      </trkpt>
      <trkpt lat="42.461375000" lon="-2.586527000">
        <ele>418.10</ele>
        <time>2017-02-11T08:30:57Z</time>
      </trkpt>
      <trkpt lat="42.461373000" lon="-2.586490000">
        <ele>418.20</ele>
        <time>2017-02-11T08:30:58Z</time>
      </trkpt>
      <trkpt lat="42.461366000" lon="-2.586451000">
        <ele>418.30</ele>
        <time>2017-02-11T08:30:59Z</time>
      </trkpt>
      <trkpt lat="42.461358000" lon="-2.586416000">
        <ele>418.40</ele>
        <time>2017-02-11T08:31:00Z</time>
      </trkpt>
      <trkpt lat="42.461351000" lon="-2.586378000">
        <ele>418.50</ele>
        <time>2017-02-11T08:31:01Z</time>
      </trkpt>
      <trkpt lat="42.461346000" lon="-2.586339000">
        <ele>418.70</ele>
        <time>2017-02-11T08:31:02Z</time>
      </trkpt>
      <trkpt lat="42.461340000" lon="-2.586301000">
        <ele>418.90</ele>
        <time>2017-02-11T08:31:03Z</time>
      </trkpt>
      <trkpt lat="42.461337000" lon="-2.586260000">
        <ele>419.00</ele>
        <time>2017-02-11T08:31:04Z</time>
      </trkpt>
      <trkpt lat="42.461336000" lon="-2.586221000">
        <ele>419.20</ele>
        <time>2017-02-11T08:31:05Z</time>
      </trkpt>
      <trkpt lat="42.461333000" lon="-2.586180000">
        <ele>419.40</ele>
        <time>2017-02-11T08:31:06Z</time>
      </trkpt>
      <trkpt lat="42.461328000" lon="-2.586139000">
        <ele>419.60</ele>
        <time>2017-02-11T08:31:07Z</time>
      </trkpt>
      <trkpt lat="42.461322000" lon="-2.586101000">
        <ele>419.80</ele>
        <time>2017-02-11T08:31:08Z</time>
      </trkpt>
      <trkpt lat="42.461320000" lon="-2.586066000">
        <ele>419.90</ele>
        <time>2017-02-11T08:31:09Z</time>
      </trkpt>
      <trkpt lat="42.461314000" lon="-2.586033000">
        <ele>420.00</ele>
        <time>2017-02-11T08:31:10Z</time>
      </trkpt>
      <trkpt lat="42.461311000" lon="-2.585997000">
        <ele>420.20</ele>
        <time>2017-02-11T08:31:11Z</time>
      </trkpt>
      <trkpt lat="42.461302000" lon="-2.585959000">
        <ele>420.40</ele>
        <time>2017-02-11T08:31:12Z</time>
      </trkpt>
      <trkpt lat="42.461294000" lon="-2.585919000">
        <ele>420.60</ele>
        <time>2017-02-11T08:31:13Z</time>
      </trkpt>
      <trkpt lat="42.461288000" lon="-2.585884000">
        <ele>420.70</ele>
        <time>2017-02-11T08:31:14Z</time>
      </trkpt>
      <trkpt lat="42.461283000" lon="-2.585848000">
        <ele>421.00</ele>
        <time>2017-02-11T08:31:15Z</time>
      </trkpt>
      <trkpt lat="42.461279000" lon="-2.585809000">
        <ele>421.20</ele>
        <time>2017-02-11T08:31:16Z</time>
      </trkpt>
      <trkpt lat="42.461274000" lon="-2.585774000">
        <ele>421.50</ele>
        <time>2017-02-11T08:31:17Z</time>
      </trkpt>
      <trkpt lat="42.461268000" lon="-2.585740000">
        <ele>421.70</ele>
        <time>2017-02-11T08:31:18Z</time>
      </trkpt>
      <trkpt lat="42.461263000" lon="-2.585703000">
        <ele>421.80</ele>
        <time>2017-02-11T08:31:19Z</time>
      </trkpt>
      <trkpt lat="42.461259000" lon="-2.585664000">
        <ele>422.00</ele>
        <time>2017-02-11T08:31:20Z</time>
      </trkpt>
      <trkpt lat="42.461253000" lon="-2.585627000">
        <ele>422.20</ele>
        <time>2017-02-11T08:31:21Z</time>
      </trkpt>
      <trkpt lat="42.461247000" lon="-2.585589000">
        <ele>422.30</ele>
        <time>2017-02-11T08:31:22Z</time>
      </trkpt>
      <trkpt lat="42.461244000" lon="-2.585551000">
        <ele>422.50</ele>
        <time>2017-02-11T08:31:23Z</time>
      </trkpt>
      <trkpt lat="42.461241000" lon="-2.585512000">
        <ele>422.60</ele>
        <time>2017-02-11T08:31:24Z</time>
      </trkpt>
      <trkpt lat="42.461236000" lon="-2.585474000">
        <ele>422.80</ele>
        <time>2017-02-11T08:31:25Z</time>
      </trkpt>
      <trkpt lat="42.461232000" lon="-2.585436000">
        <ele>423.00</ele>
        <time>2017-02-11T08:31:26Z</time>
      </trkpt>
      <trkpt lat="42.461230000" lon="-2.585403000">
        <ele>423.10</ele>
        <time>2017-02-11T08:31:27Z</time>
      </trkpt>
      <trkpt lat="42.461225000" lon="-2.585365000">
        <ele>423.20</ele>
        <time>2017-02-11T08:31:28Z</time>
      </trkpt>
      <trkpt lat="42.461222000" lon="-2.585328000">
        <ele>423.30</ele>
        <time>2017-02-11T08:31:29Z</time>
      </trkpt>
      <trkpt lat="42.461221000" lon="-2.585287000">
        <ele>423.40</ele>
        <time>2017-02-11T08:31:30Z</time>
      </trkpt>
      <trkpt lat="42.461216000" lon="-2.585246000">
        <ele>423.80</ele>
        <time>2017-02-11T08:31:31Z</time>
      </trkpt>
      <trkpt lat="42.461214000" lon="-2.585207000">
        <ele>424.10</ele>
        <time>2017-02-11T08:31:32Z</time>
      </trkpt>
      <trkpt lat="42.461211000" lon="-2.585170000">
        <ele>424.40</ele>
        <time>2017-02-11T08:31:33Z</time>
      </trkpt>
      <trkpt lat="42.461211000" lon="-2.585133000">
        <ele>424.60</ele>
        <time>2017-02-11T08:31:34Z</time>
      </trkpt>
      <trkpt lat="42.461208000" lon="-2.585093000">
        <ele>424.90</ele>
        <time>2017-02-11T08:31:35Z</time>
      </trkpt>
      <trkpt lat="42.461208000" lon="-2.585057000">
        <ele>425.10</ele>
        <time>2017-02-11T08:31:36Z</time>
      </trkpt>
      <trkpt lat="42.461206000" lon="-2.585019000">
        <ele>425.20</ele>
        <time>2017-02-11T08:31:37Z</time>
      </trkpt>
      <trkpt lat="42.461207000" lon="-2.584984000">
        <ele>425.30</ele>
        <time>2017-02-11T08:31:38Z</time>
      </trkpt>
      <trkpt lat="42.461205000" lon="-2.584944000">
        <ele>425.40</ele>
        <time>2017-02-11T08:31:39Z</time>
      </trkpt>
      <trkpt lat="42.461204000" lon="-2.584905000">
        <ele>425.40</ele>
        <time>2017-02-11T08:31:40Z</time>
      </trkpt>
      <trkpt lat="42.461201000" lon="-2.584870000">
        <ele>425.60</ele>
        <time>2017-02-11T08:31:41Z</time>
      </trkpt>
      <trkpt lat="42.461197000" lon="-2.584831000">
        <ele>425.70</ele>
        <time>2017-02-11T08:31:42Z</time>
      </trkpt>
      <trkpt lat="42.461199000" lon="-2.584793000">
        <ele>425.80</ele>
        <time>2017-02-11T08:31:43Z</time>
      </trkpt>
      <trkpt lat="42.461199000" lon="-2.584757000">
        <ele>425.80</ele>
        <time>2017-02-11T08:31:44Z</time>
      </trkpt>
      <trkpt lat="42.461194000" lon="-2.584724000">
        <ele>426.10</ele>
        <time>2017-02-11T08:31:45Z</time>
      </trkpt>
      <trkpt lat="42.461193000" lon="-2.584691000">
        <ele>426.20</ele>
        <time>2017-02-11T08:31:46Z</time>
      </trkpt>
      <trkpt lat="42.461190000" lon="-2.584654000">
        <ele>426.50</ele>
        <time>2017-02-11T08:31:47Z</time>
      </trkpt>
      <trkpt lat="42.461190000" lon="-2.584616000">
        <ele>426.70</ele>
        <time>2017-02-11T08:31:48Z</time>
      </trkpt>
      <trkpt lat="42.461187000" lon="-2.584579000">
        <ele>426.90</ele>
        <time>2017-02-11T08:31:49Z</time>
      </trkpt>
      <trkpt lat="42.461187000" lon="-2.584543000">
        <ele>427.20</ele>
        <time>2017-02-11T08:31:50Z</time>
      </trkpt>
      <trkpt lat="42.461188000" lon="-2.584508000">
        <ele>427.30</ele>
        <time>2017-02-11T08:31:51Z</time>
      </trkpt>
      <trkpt lat="42.461188000" lon="-2.584475000">
        <ele>427.40</ele>
        <time>2017-02-11T08:31:52Z</time>
      </trkpt>
      <trkpt lat="42.461187000" lon="-2.584440000">
        <ele>427.80</ele>
        <time>2017-02-11T08:31:53Z</time>
      </trkpt>
      <trkpt lat="42.461183000" lon="-2.584407000">
        <ele>428.00</ele>
        <time>2017-02-11T08:31:54Z</time>
      </trkpt>
      <trkpt lat="42.461182000" lon="-2.584344000">
        <ele>428.40</ele>
        <time>2017-02-11T08:31:56Z</time>
      </trkpt>
      <trkpt lat="42.461178000" lon="-2.584309000">
        <ele>428.50</ele>
        <time>2017-02-11T08:31:57Z</time>
      </trkpt>
      <trkpt lat="42.461175000" lon="-2.584279000">
        <ele>428.60</ele>
        <time>2017-02-11T08:31:58Z</time>
      </trkpt>
      <trkpt lat="42.461174000" lon="-2.584246000">
        <ele>428.80</ele>
        <time>2017-02-11T08:31:59Z</time>
      </trkpt>
      <trkpt lat="42.461176000" lon="-2.584212000">
        <ele>428.90</ele>
        <time>2017-02-11T08:32:00Z</time>
      </trkpt>
      <trkpt lat="42.461177000" lon="-2.584179000">
        <ele>429.20</ele>
        <time>2017-02-11T08:32:01Z</time>
      </trkpt>
      <trkpt lat="42.461175000" lon="-2.584149000">
        <ele>429.40</ele>
        <time>2017-02-11T08:32:02Z</time>
      </trkpt>
      <trkpt lat="42.461176000" lon="-2.584114000">
        <ele>429.70</ele>
        <time>2017-02-11T08:32:03Z</time>
      </trkpt>
      <trkpt lat="42.461175000" lon="-2.584082000">
        <ele>429.80</ele>
        <time>2017-02-11T08:32:04Z</time>
      </trkpt>
      <trkpt lat="42.461172000" lon="-2.584046000">
        <ele>430.00</ele>
        <time>2017-02-11T08:32:05Z</time>
      </trkpt>
      <trkpt lat="42.461173000" lon="-2.584015000">
        <ele>430.10</ele>
        <time>2017-02-11T08:32:06Z</time>
      </trkpt>
      <trkpt lat="42.461174000" lon="-2.583982000">
        <ele>430.30</ele>
        <time>2017-02-11T08:32:07Z</time>
      </trkpt>
      <trkpt lat="42.461175000" lon="-2.583949000">
        <ele>430.40</ele>
        <time>2017-02-11T08:32:08Z</time>
      </trkpt>
      <trkpt lat="42.461175000" lon="-2.583921000">
        <ele>430.60</ele>
        <time>2017-02-11T08:32:09Z</time>
      </trkpt>
      <trkpt lat="42.461170000" lon="-2.583889000">
        <ele>430.80</ele>
        <time>2017-02-11T08:32:10Z</time>
      </trkpt>
      <trkpt lat="42.461172000" lon="-2.583861000">
        <ele>431.00</ele>
        <time>2017-02-11T08:32:11Z</time>
      </trkpt>
      <trkpt lat="42.461171000" lon="-2.583830000">
        <ele>431.10</ele>
        <time>2017-02-11T08:32:12Z</time>
      </trkpt>
      <trkpt lat="42.461176000" lon="-2.583803000">
        <ele>431.40</ele>
        <time>2017-02-11T08:32:13Z</time>
      </trkpt>
      <trkpt lat="42.461180000" lon="-2.583777000">
        <ele>431.60</ele>
        <time>2017-02-11T08:32:14Z</time>
      </trkpt>
      <trkpt lat="42.461185000" lon="-2.583754000">
        <ele>431.80</ele>
        <time>2017-02-11T08:32:15Z</time>
      </trkpt>
      <trkpt lat="42.461193000" lon="-2.583733000">
        <ele>431.90</ele>
        <time>2017-02-11T08:32:16Z</time>
      </trkpt>
      <trkpt lat="42.461198000" lon="-2.583712000">
        <ele>432.00</ele>
        <time>2017-02-11T08:32:17Z</time>
      </trkpt>
      <trkpt lat="42.461207000" lon="-2.583693000">
        <ele>432.10</ele>
        <time>2017-02-11T08:32:18Z</time>
      </trkpt>
      <trkpt lat="42.461218000" lon="-2.583667000">
        <ele>432.20</ele>
        <time>2017-02-11T08:32:19Z</time>
      </trkpt>
      <trkpt lat="42.461227000" lon="-2.583638000">
        <ele>432.30</ele>
        <time>2017-02-11T08:32:20Z</time>
      </trkpt>
      <trkpt lat="42.461234000" lon="-2.583615000">
        <ele>432.40</ele>
        <time>2017-02-11T08:32:21Z</time>
      </trkpt>
      <trkpt lat="42.461243000" lon="-2.583594000">
        <ele>432.50</ele>
        <time>2017-02-11T08:32:22Z</time>
      </trkpt>
      <trkpt lat="42.461253000" lon="-2.583574000">
        <ele>432.60</ele>
        <time>2017-02-11T08:32:23Z</time>
      </trkpt>
      <trkpt lat="42.461266000" lon="-2.583554000">
        <ele>432.60</ele>
        <time>2017-02-11T08:32:24Z</time>
      </trkpt>
      <trkpt lat="42.461277000" lon="-2.583535000">
        <ele>432.80</ele>
        <time>2017-02-11T08:32:25Z</time>
      </trkpt>
      <trkpt lat="42.461281000" lon="-2.583515000">
        <ele>432.90</ele>
        <time>2017-02-11T08:32:26Z</time>
      </trkpt>
      <trkpt lat="42.461283000" lon="-2.583498000">
        <ele>432.90</ele>
        <time>2017-02-11T08:32:27Z</time>
      </trkpt>
      <trkpt lat="42.461286000" lon="-2.583481000">
        <ele>433.00</ele>
        <time>2017-02-11T08:32:28Z</time>
      </trkpt>
      <trkpt lat="42.461292000" lon="-2.583463000">
        <ele>433.10</ele>
        <time>2017-02-11T08:32:29Z</time>
      </trkpt>
      <trkpt lat="42.461299000" lon="-2.583443000">
        <ele>433.20</ele>
        <time>2017-02-11T08:32:30Z</time>
      </trkpt>
      <trkpt lat="42.461302000" lon="-2.583420000">
        <ele>433.20</ele>
        <time>2017-02-11T08:32:31Z</time>
      </trkpt>
      <trkpt lat="42.461304000" lon="-2.583397000">
        <ele>433.20</ele>
        <time>2017-02-11T08:32:32Z</time>
      </trkpt>
      <trkpt lat="42.461308000" lon="-2.583372000">
        <ele>433.20</ele>
        <time>2017-02-11T08:32:33Z</time>
      </trkpt>
      <trkpt lat="42.461308000" lon="-2.583343000">
        <ele>433.30</ele>
        <time>2017-02-11T08:32:34Z</time>
      </trkpt>
      <trkpt lat="42.461312000" lon="-2.583311000">
        <ele>433.60</ele>
        <time>2017-02-11T08:32:35Z</time>
      </trkpt>
      <trkpt lat="42.461312000" lon="-2.583269000">
        <ele>433.90</ele>
        <time>2017-02-11T08:32:36Z</time>
      </trkpt>
      <trkpt lat="42.461315000" lon="-2.583220000">
        <ele>434.20</ele>
        <time>2017-02-11T08:32:37Z</time>
      </trkpt>
      <trkpt lat="42.461314000" lon="-2.583171000">
        <ele>434.40</ele>
        <time>2017-02-11T08:32:38Z</time>
      </trkpt>
      <trkpt lat="42.461310000" lon="-2.583121000">
        <ele>434.50</ele>
        <time>2017-02-11T08:32:39Z</time>
      </trkpt>
      <trkpt lat="42.461304000" lon="-2.583070000">
        <ele>434.60</ele>
        <time>2017-02-11T08:32:40Z</time>
      </trkpt>
      <trkpt lat="42.461297000" lon="-2.583022000">
        <ele>434.70</ele>
        <time>2017-02-11T08:32:41Z</time>
      </trkpt>
      <trkpt lat="42.461291000" lon="-2.582978000">
        <ele>434.80</ele>
        <time>2017-02-11T08:32:42Z</time>
      </trkpt>
      <trkpt lat="42.461285000" lon="-2.582932000">
        <ele>434.90</ele>
        <time>2017-02-11T08:32:43Z</time>
      </trkpt>
      <trkpt lat="42.461278000" lon="-2.582888000">
        <ele>435.00</ele>
        <time>2017-02-11T08:32:44Z</time>
      </trkpt>
      <trkpt lat="42.461274000" lon="-2.582841000">
        <ele>435.20</ele>
        <time>2017-02-11T08:32:45Z</time>
      </trkpt>
      <trkpt lat="42.461272000" lon="-2.582789000">
        <ele>435.40</ele>
        <time>2017-02-11T08:32:46Z</time>
      </trkpt>
      <trkpt lat="42.461272000" lon="-2.582737000">
        <ele>435.70</ele>
        <time>2017-02-11T08:32:47Z</time>
      </trkpt>
      <trkpt lat="42.461275000" lon="-2.582685000">
        <ele>435.90</ele>
        <time>2017-02-11T08:32:48Z</time>
      </trkpt>
      <trkpt lat="42.461274000" lon="-2.582632000">
        <ele>436.10</ele>
        <time>2017-02-11T08:32:49Z</time>
      </trkpt>
      <trkpt lat="42.461276000" lon="-2.582581000">
        <ele>436.30</ele>
        <time>2017-02-11T08:32:50Z</time>
      </trkpt>
      <trkpt lat="42.461280000" lon="-2.582531000">
        <ele>436.50</ele>
        <time>2017-02-11T08:32:51Z</time>
      </trkpt>
      <trkpt lat="42.461288000" lon="-2.582486000">
        <ele>436.70</ele>
        <time>2017-02-11T08:32:52Z</time>
      </trkpt>
      <trkpt lat="42.461297000" lon="-2.582448000">
        <ele>437.20</ele>
        <time>2017-02-11T08:32:53Z</time>
      </trkpt>
      <trkpt lat="42.461310000" lon="-2.582414000">
        <ele>437.50</ele>
        <time>2017-02-11T08:32:54Z</time>
      </trkpt>
      <trkpt lat="42.461321000" lon="-2.582385000">
        <ele>437.80</ele>
        <time>2017-02-11T08:32:55Z</time>
      </trkpt>
      <trkpt lat="42.461366000" lon="-2.582360000">
        <ele>438.40</ele>
        <time>2017-02-11T08:32:57Z</time>
      </trkpt>
      <trkpt lat="42.461387000" lon="-2.582342000">
        <ele>438.70</ele>
        <time>2017-02-11T08:32:58Z</time>
      </trkpt>
      <trkpt lat="42.461401000" lon="-2.582324000">
        <ele>438.90</ele>
        <time>2017-02-11T08:32:59Z</time>
      </trkpt>
      <trkpt lat="42.461413000" lon="-2.582306000">
        <ele>439.10</ele>
        <time>2017-02-11T08:33:00Z</time>
      </trkpt>
      <trkpt lat="42.461426000" lon="-2.582287000">
        <ele>439.30</ele>
        <time>2017-02-11T08:33:01Z</time>
      </trkpt>
      <trkpt lat="42.461439000" lon="-2.582269000">
        <ele>439.40</ele>
        <time>2017-02-11T08:33:02Z</time>
      </trkpt>
      <trkpt lat="42.461453000" lon="-2.582254000">
        <ele>439.50</ele>
        <time>2017-02-11T08:33:03Z</time>
      </trkpt>
      <trkpt lat="42.461472000" lon="-2.582243000">
        <ele>439.50</ele>
        <time>2017-02-11T08:33:04Z</time>
      </trkpt>
      <trkpt lat="42.461488000" lon="-2.582233000">
        <ele>439.60</ele>
        <time>2017-02-11T08:33:05Z</time>
      </trkpt>
      <trkpt lat="42.461499000" lon="-2.582219000">
        <ele>439.60</ele>
        <time>2017-02-11T08:33:06Z</time>
      </trkpt>
      <trkpt lat="42.461510000" lon="-2.582203000">
        <ele>439.80</ele>
        <time>2017-02-11T08:33:07Z</time>
      </trkpt>
      <trkpt lat="42.461521000" lon="-2.582191000">
        <ele>439.90</ele>
        <time>2017-02-11T08:33:08Z</time>
      </trkpt>
      <trkpt lat="42.461525000" lon="-2.582172000">
        <ele>440.10</ele>
        <time>2017-02-11T08:33:09Z</time>
      </trkpt>
      <trkpt lat="42.461539000" lon="-2.582162000">
        <ele>440.20</ele>
        <time>2017-02-11T08:33:10Z</time>
      </trkpt>
      <trkpt lat="42.461552000" lon="-2.582156000">
        <ele>440.30</ele>
        <time>2017-02-11T08:33:11Z</time>
      </trkpt>
      <trkpt lat="42.461559000" lon="-2.582163000">
        <ele>440.30</ele>
        <time>2017-02-11T08:33:12Z</time>
      </trkpt>
      <trkpt lat="42.461564000" lon="-2.582169000">
        <ele>440.30</ele>
        <time>2017-02-11T08:33:13Z</time>
      </trkpt>
      <trkpt lat="42.461567000" lon="-2.582178000">
        <ele>440.40</ele>
        <time>2017-02-11T08:33:14Z</time>
      </trkpt>
      <trkpt lat="42.461567000" lon="-2.582184000">
        <ele>440.30</ele>
        <time>2017-02-11T08:33:15Z</time>
      </trkpt>
      <trkpt lat="42.461571000" lon="-2.582174000">
        <ele>440.30</ele>
        <time>2017-02-11T08:33:16Z</time>
      </trkpt>
      <trkpt lat="42.461580000" lon="-2.582159000">
        <ele>440.30</ele>
        <time>2017-02-11T08:33:17Z</time>
      </trkpt>
      <trkpt lat="42.461597000" lon="-2.582147000">
        <ele>440.20</ele>
        <time>2017-02-11T08:33:18Z</time>
      </trkpt>
      <trkpt lat="42.461606000" lon="-2.582137000">
        <ele>440.30</ele>
        <time>2017-02-11T08:33:19Z</time>
      </trkpt>
      <trkpt lat="42.461610000" lon="-2.582127000">
        <ele>440.40</ele>
        <time>2017-02-11T08:33:20Z</time>
      </trkpt>
      <trkpt lat="42.461620000" lon="-2.582116000">
        <ele>440.50</ele>
        <time>2017-02-11T08:33:21Z</time>
      </trkpt>
      <trkpt lat="42.461632000" lon="-2.582102000">
        <ele>440.60</ele>
        <time>2017-02-11T08:33:22Z</time>
      </trkpt>
      <trkpt lat="42.461643000" lon="-2.582085000">
        <ele>440.80</ele>
        <time>2017-02-11T08:33:23Z</time>
      </trkpt>
      <trkpt lat="42.461657000" lon="-2.582076000">
        <ele>440.90</ele>
        <time>2017-02-11T08:33:24Z</time>
      </trkpt>
      <trkpt lat="42.461672000" lon="-2.582072000">
        <ele>441.00</ele>
        <time>2017-02-11T08:33:25Z</time>
      </trkpt>
      <trkpt lat="42.461686000" lon="-2.582066000">
        <ele>441.10</ele>
        <time>2017-02-11T08:33:26Z</time>
      </trkpt>
      <trkpt lat="42.461697000" lon="-2.582050000">
        <ele>441.10</ele>
        <time>2017-02-11T08:33:27Z</time>
      </trkpt>
      <trkpt lat="42.461710000" lon="-2.582039000">
        <ele>441.10</ele>
        <time>2017-02-11T08:33:28Z</time>
      </trkpt>
      <trkpt lat="42.461727000" lon="-2.582031000">
        <ele>441.10</ele>
        <time>2017-02-11T08:33:29Z</time>
      </trkpt>
      <trkpt lat="42.461741000" lon="-2.582022000">
        <ele>441.10</ele>
        <time>2017-02-11T08:33:30Z</time>
      </trkpt>
      <trkpt lat="42.461758000" lon="-2.582004000">
        <ele>441.00</ele>
        <time>2017-02-11T08:33:31Z</time>
      </trkpt>
      <trkpt lat="42.461776000" lon="-2.581994000">
        <ele>441.00</ele>
        <time>2017-02-11T08:33:32Z</time>
      </trkpt>
      <trkpt lat="42.461787000" lon="-2.581978000">
        <ele>441.20</ele>
        <time>2017-02-11T08:33:33Z</time>
      </trkpt>
      <trkpt lat="42.461801000" lon="-2.581969000">
        <ele>441.40</ele>
        <time>2017-02-11T08:33:34Z</time>
      </trkpt>
      <trkpt lat="42.461817000" lon="-2.581943000">
        <ele>441.60</ele>
        <time>2017-02-11T08:33:35Z</time>
      </trkpt>
      <trkpt lat="42.461837000" lon="-2.581926000">
        <ele>441.80</ele>
        <time>2017-02-11T08:33:36Z</time>
      </trkpt>
      <trkpt lat="42.461853000" lon="-2.581918000">
        <ele>442.00</ele>
        <time>2017-02-11T08:33:37Z</time>
      </trkpt>
      <trkpt lat="42.461868000" lon="-2.581906000">
        <ele>442.20</ele>
        <time>2017-02-11T08:33:38Z</time>
      </trkpt>
      <trkpt lat="42.461882000" lon="-2.581894000">
        <ele>442.60</ele>
        <time>2017-02-11T08:33:39Z</time>
      </trkpt>
      <trkpt lat="42.461893000" lon="-2.581877000">
        <ele>442.90</ele>
        <time>2017-02-11T08:33:40Z</time>
      </trkpt>
      <trkpt lat="42.461908000" lon="-2.581870000">
        <ele>443.10</ele>
        <time>2017-02-11T08:33:41Z</time>
      </trkpt>
      <trkpt lat="42.461927000" lon="-2.581864000">
        <ele>443.30</ele>
        <time>2017-02-11T08:33:42Z</time>
      </trkpt>
      <trkpt lat="42.461948000" lon="-2.581862000">
        <ele>443.40</ele>
        <time>2017-02-11T08:33:43Z</time>
      </trkpt>
      <trkpt lat="42.461964000" lon="-2.581862000">
        <ele>443.50</ele>
        <time>2017-02-11T08:33:44Z</time>
      </trkpt>
      <trkpt lat="42.461982000" lon="-2.581867000">
        <ele>443.60</ele>
        <time>2017-02-11T08:33:45Z</time>
      </trkpt>
      <trkpt lat="42.462002000" lon="-2.581870000">
        <ele>443.70</ele>
        <time>2017-02-11T08:33:46Z</time>
      </trkpt>
      <trkpt lat="42.462022000" lon="-2.581881000">
        <ele>443.80</ele>
        <time>2017-02-11T08:33:47Z</time>
      </trkpt>
      <trkpt lat="42.462038000" lon="-2.581890000">
        <ele>443.90</ele>
        <time>2017-02-11T08:33:48Z</time>
      </trkpt>
      <trkpt lat="42.462052000" lon="-2.581900000">
        <ele>444.00</ele>
        <time>2017-02-11T08:33:49Z</time>
      </trkpt>
      <trkpt lat="42.462068000" lon="-2.581906000">
        <ele>444.10</ele>
        <time>2017-02-11T08:33:50Z</time>
      </trkpt>
      <trkpt lat="42.462087000" lon="-2.581911000">
        <ele>444.20</ele>
        <time>2017-02-11T08:33:51Z</time>
      </trkpt>
      <trkpt lat="42.462107000" lon="-2.581922000">
        <ele>444.20</ele>
        <time>2017-02-11T08:33:52Z</time>
      </trkpt>
      <trkpt lat="42.462125000" lon="-2.581932000">
        <ele>444.30</ele>
        <time>2017-02-11T08:33:53Z</time>
      </trkpt>
      <trkpt lat="42.462145000" lon="-2.581939000">
        <ele>444.30</ele>
        <time>2017-02-11T08:33:54Z</time>
      </trkpt>
      <trkpt lat="42.462163000" lon="-2.581951000">
        <ele>444.50</ele>
        <time>2017-02-11T08:33:55Z</time>
      </trkpt>
      <trkpt lat="42.462182000" lon="-2.581954000">
        <ele>444.60</ele>
        <time>2017-02-11T08:33:56Z</time>
      </trkpt>
      <trkpt lat="42.462219000" lon="-2.581966000">
        <ele>444.60</ele>
        <time>2017-02-11T08:33:58Z</time>
      </trkpt>
      <trkpt lat="42.462235000" lon="-2.581971000">
        <ele>444.60</ele>
        <time>2017-02-11T08:33:59Z</time>
      </trkpt>
      <trkpt lat="42.462254000" lon="-2.581979000">
        <ele>444.70</ele>
        <time>2017-02-11T08:34:00Z</time>
      </trkpt>
      <trkpt lat="42.462264000" lon="-2.581985000">
        <ele>444.70</ele>
        <time>2017-02-11T08:34:01Z</time>
      </trkpt>
      <trkpt lat="42.462285000" lon="-2.581997000">
        <ele>444.70</ele>
        <time>2017-02-11T08:34:02Z</time>
      </trkpt>
      <trkpt lat="42.462306000" lon="-2.582012000">
        <ele>444.60</ele>
        <time>2017-02-11T08:34:03Z</time>
      </trkpt>
      <trkpt lat="42.462326000" lon="-2.582025000">
        <ele>444.60</ele>
        <time>2017-02-11T08:34:04Z</time>
      </trkpt>
      <trkpt lat="42.462344000" lon="-2.582035000">
        <ele>444.40</ele>
        <time>2017-02-11T08:34:05Z</time>
      </trkpt>
      <trkpt lat="42.462366000" lon="-2.582042000">
        <ele>444.20</ele>
        <time>2017-02-11T08:34:06Z</time>
      </trkpt>
      <trkpt lat="42.462389000" lon="-2.582052000">
        <ele>444.10</ele>
        <time>2017-02-11T08:34:07Z</time>
      </trkpt>
      <trkpt lat="42.462416000" lon="-2.582057000">
        <ele>444.00</ele>
        <time>2017-02-11T08:34:08Z</time>
      </trkpt>
      <trkpt lat="42.462442000" lon="-2.582063000">
        <ele>444.10</ele>
        <time>2017-02-11T08:34:09Z</time>
      </trkpt>
      <trkpt lat="42.462471000" lon="-2.582069000">
        <ele>444.20</ele>
        <time>2017-02-11T08:34:10Z</time>
      </trkpt>
      <trkpt lat="42.462502000" lon="-2.582076000">
        <ele>444.20</ele>
        <time>2017-02-11T08:34:11Z</time>
      </trkpt>
      <trkpt lat="42.462534000" lon="-2.582082000">
        <ele>444.30</ele>
        <time>2017-02-11T08:34:12Z</time>
      </trkpt>
      <trkpt lat="42.462568000" lon="-2.582091000">
        <ele>444.00</ele>
        <time>2017-02-11T08:34:13Z</time>
      </trkpt>
      <trkpt lat="42.462608000" lon="-2.582100000">
        <ele>443.80</ele>
        <time>2017-02-11T08:34:14Z</time>
      </trkpt>
      <trkpt lat="42.462647000" lon="-2.582115000">
        <ele>443.60</ele>
        <time>2017-02-11T08:34:15Z</time>
      </trkpt>
      <trkpt lat="42.462680000" lon="-2.582123000">
        <ele>443.50</ele>
        <time>2017-02-11T08:34:16Z</time>
      </trkpt>
      <trkpt lat="42.462716000" lon="-2.582136000">
        <ele>443.40</ele>
        <time>2017-02-11T08:34:17Z</time>
      </trkpt>
      <trkpt lat="42.462750000" lon="-2.582143000">
        <ele>443.30</ele>
        <time>2017-02-11T08:34:18Z</time>
      </trkpt>
      <trkpt lat="42.462781000" lon="-2.582144000">
        <ele>443.30</ele>
        <time>2017-02-11T08:34:19Z</time>
      </trkpt>
      <trkpt lat="42.462812000" lon="-2.582143000">
        <ele>443.20</ele>
        <time>2017-02-11T08:34:20Z</time>
      </trkpt>
      <trkpt lat="42.462840000" lon="-2.582142000">
        <ele>443.10</ele>
        <time>2017-02-11T08:34:21Z</time>
      </trkpt>
      <trkpt lat="42.462869000" lon="-2.582138000">
        <ele>443.10</ele>
        <time>2017-02-11T08:34:22Z</time>
      </trkpt>
      <trkpt lat="42.462900000" lon="-2.582136000">
        <ele>442.90</ele>
        <time>2017-02-11T08:34:23Z</time>
      </trkpt>
      <trkpt lat="42.462930000" lon="-2.582134000">
        <ele>442.80</ele>
        <time>2017-02-11T08:34:24Z</time>
      </trkpt>
      <trkpt lat="42.462960000" lon="-2.582132000">
        <ele>442.70</ele>
        <time>2017-02-11T08:34:25Z</time>
      </trkpt>
      <trkpt lat="42.462989000" lon="-2.582129000">
        <ele>442.60</ele>
        <time>2017-02-11T08:34:26Z</time>
      </trkpt>
      <trkpt lat="42.463018000" lon="-2.582123000">
        <ele>442.50</ele>
        <time>2017-02-11T08:34:27Z</time>
      </trkpt>
      <trkpt lat="42.463048000" lon="-2.582112000">
        <ele>442.40</ele>
        <time>2017-02-11T08:34:28Z</time>
      </trkpt>
      <trkpt lat="42.463077000" lon="-2.582098000">
        <ele>442.50</ele>
        <time>2017-02-11T08:34:29Z</time>
      </trkpt>
      <trkpt lat="42.463108000" lon="-2.582083000">
        <ele>442.50</ele>
        <time>2017-02-11T08:34:30Z</time>
      </trkpt>
      <trkpt lat="42.463140000" lon="-2.582067000">
        <ele>442.70</ele>
        <time>2017-02-11T08:34:31Z</time>
      </trkpt>
      <trkpt lat="42.463169000" lon="-2.582052000">
        <ele>442.80</ele>
        <time>2017-02-11T08:34:32Z</time>
      </trkpt>
      <trkpt lat="42.463195000" lon="-2.582041000">
        <ele>442.90</ele>
        <time>2017-02-11T08:34:33Z</time>
      </trkpt>
      <trkpt lat="42.463221000" lon="-2.582030000">
        <ele>443.00</ele>
        <time>2017-02-11T08:34:34Z</time>
      </trkpt>
      <trkpt lat="42.463246000" lon="-2.582015000">
        <ele>443.00</ele>
        <time>2017-02-11T08:34:35Z</time>
      </trkpt>
      <trkpt lat="42.463268000" lon="-2.582003000">
        <ele>443.00</ele>
        <time>2017-02-11T08:34:36Z</time>
      </trkpt>
      <trkpt lat="42.463295000" lon="-2.581991000">
        <ele>442.90</ele>
        <time>2017-02-11T08:34:37Z</time>
      </trkpt>
      <trkpt lat="42.463323000" lon="-2.581974000">
        <ele>442.90</ele>
        <time>2017-02-11T08:34:38Z</time>
      </trkpt>
      <trkpt lat="42.463357000" lon="-2.581957000">
        <ele>442.70</ele>
        <time>2017-02-11T08:34:39Z</time>
      </trkpt>
      <trkpt lat="42.463390000" lon="-2.581932000">
        <ele>442.70</ele>
        <time>2017-02-11T08:34:40Z</time>
      </trkpt>
      <trkpt lat="42.463412000" lon="-2.581907000">
        <ele>442.70</ele>
        <time>2017-02-11T08:34:41Z</time>
      </trkpt>
      <trkpt lat="42.463437000" lon="-2.581880000">
        <ele>442.70</ele>
        <time>2017-02-11T08:34:42Z</time>
      </trkpt>
      <trkpt lat="42.463457000" lon="-2.581847000">
        <ele>442.70</ele>
        <time>2017-02-11T08:34:43Z</time>
      </trkpt>
      <trkpt lat="42.463471000" lon="-2.581808000">
        <ele>442.70</ele>
        <time>2017-02-11T08:34:44Z</time>
      </trkpt>
      <trkpt lat="42.463482000" lon="-2.581771000">
        <ele>442.70</ele>
        <time>2017-02-11T08:34:45Z</time>
      </trkpt>
      <trkpt lat="42.463492000" lon="-2.581736000">
        <ele>442.70</ele>
        <time>2017-02-11T08:34:46Z</time>
      </trkpt>
      <trkpt lat="42.463499000" lon="-2.581704000">
        <ele>442.70</ele>
        <time>2017-02-11T08:34:47Z</time>
      </trkpt>
      <trkpt lat="42.463504000" lon="-2.581668000">
        <ele>442.70</ele>
        <time>2017-02-11T08:34:48Z</time>
      </trkpt>
      <trkpt lat="42.463507000" lon="-2.581634000">
        <ele>442.70</ele>
        <time>2017-02-11T08:34:49Z</time>
      </trkpt>
      <trkpt lat="42.463507000" lon="-2.581599000">
        <ele>442.70</ele>
        <time>2017-02-11T08:34:50Z</time>
      </trkpt>
      <trkpt lat="42.463508000" lon="-2.581563000">
        <ele>442.70</ele>
        <time>2017-02-11T08:34:51Z</time>
      </trkpt>
      <trkpt lat="42.463511000" lon="-2.581528000">
        <ele>442.70</ele>
        <time>2017-02-11T08:34:52Z</time>
      </trkpt>
      <trkpt lat="42.463513000" lon="-2.581492000">
        <ele>442.90</ele>
        <time>2017-02-11T08:34:53Z</time>
      </trkpt>
      <trkpt lat="42.463516000" lon="-2.581457000">
        <ele>443.00</ele>
        <time>2017-02-11T08:34:54Z</time>
      </trkpt>
      <trkpt lat="42.463521000" lon="-2.581421000">
        <ele>443.20</ele>
        <time>2017-02-11T08:34:55Z</time>
      </trkpt>
      <trkpt lat="42.463530000" lon="-2.581390000">
        <ele>443.30</ele>
        <time>2017-02-11T08:34:56Z</time>
      </trkpt>
      <trkpt lat="42.463535000" lon="-2.581357000">
        <ele>443.40</ele>
        <time>2017-02-11T08:34:57Z</time>
      </trkpt>
      <trkpt lat="42.463567000" lon="-2.581302000">
        <ele>443.60</ele>
        <time>2017-02-11T08:34:59Z</time>
      </trkpt>
      <trkpt lat="42.463586000" lon="-2.581271000">
        <ele>443.70</ele>
        <time>2017-02-11T08:35:00Z</time>
      </trkpt>
      <trkpt lat="42.463607000" lon="-2.581237000">
        <ele>443.90</ele>
        <time>2017-02-11T08:35:01Z</time>
      </trkpt>
      <trkpt lat="42.463624000" lon="-2.581213000">
        <ele>444.10</ele>
        <time>2017-02-11T08:35:02Z</time>
      </trkpt>
      <trkpt lat="42.463642000" lon="-2.581186000">
        <ele>444.40</ele>
        <time>2017-02-11T08:35:03Z</time>
      </trkpt>
      <trkpt lat="42.463662000" lon="-2.581162000">
        <ele>444.60</ele>
        <time>2017-02-11T08:35:04Z</time>
      </trkpt>
      <trkpt lat="42.463683000" lon="-2.581142000">
        <ele>444.80</ele>
        <time>2017-02-11T08:35:05Z</time>
      </trkpt>
      <trkpt lat="42.463703000" lon="-2.581120000">
        <ele>444.90</ele>
        <time>2017-02-11T08:35:06Z</time>
      </trkpt>
      <trkpt lat="42.463724000" lon="-2.581105000">
        <ele>445.10</ele>
        <time>2017-02-11T08:35:07Z</time>
      </trkpt>
      <trkpt lat="42.463746000" lon="-2.581084000">
        <ele>445.30</ele>
        <time>2017-02-11T08:35:08Z</time>
      </trkpt>
      <trkpt lat="42.463767000" lon="-2.581061000">
        <ele>445.50</ele>
        <time>2017-02-11T08:35:09Z</time>
      </trkpt>
      <trkpt lat="42.463787000" lon="-2.581041000">
        <ele>445.60</ele>
        <time>2017-02-11T08:35:10Z</time>
      </trkpt>
      <trkpt lat="42.463808000" lon="-2.581017000">
        <ele>445.70</ele>
        <time>2017-02-11T08:35:11Z</time>
      </trkpt>
      <trkpt lat="42.463828000" lon="-2.580998000">
        <ele>445.80</ele>
        <time>2017-02-11T08:35:12Z</time>
      </trkpt>
      <trkpt lat="42.463849000" lon="-2.580973000">
        <ele>445.90</ele>
        <time>2017-02-11T08:35:13Z</time>
      </trkpt>
      <trkpt lat="42.463871000" lon="-2.580947000">
        <ele>445.90</ele>
        <time>2017-02-11T08:35:14Z</time>
      </trkpt>
      <trkpt lat="42.463890000" lon="-2.580919000">
        <ele>446.00</ele>
        <time>2017-02-11T08:35:15Z</time>
      </trkpt>
      <trkpt lat="42.463911000" lon="-2.580896000">
        <ele>446.10</ele>
        <time>2017-02-11T08:35:16Z</time>
      </trkpt>
      <trkpt lat="42.463931000" lon="-2.580873000">
        <ele>446.10</ele>
        <time>2017-02-11T08:35:17Z</time>
      </trkpt>
      <trkpt lat="42.463951000" lon="-2.580850000">
        <ele>446.10</ele>
        <time>2017-02-11T08:35:18Z</time>
      </trkpt>
      <trkpt lat="42.463971000" lon="-2.580824000">
        <ele>446.20</ele>
        <time>2017-02-11T08:35:19Z</time>
      </trkpt>
      <trkpt lat="42.463993000" lon="-2.580800000">
        <ele>446.20</ele>
        <time>2017-02-11T08:35:20Z</time>
      </trkpt>
      <trkpt lat="42.464017000" lon="-2.580771000">
        <ele>446.40</ele>
        <time>2017-02-11T08:35:21Z</time>
      </trkpt>
      <trkpt lat="42.464042000" lon="-2.580745000">
        <ele>446.60</ele>
        <time>2017-02-11T08:35:22Z</time>
      </trkpt>
      <trkpt lat="42.464064000" lon="-2.580724000">
        <ele>446.70</ele>
        <time>2017-02-11T08:35:23Z</time>
      </trkpt>
      <trkpt lat="42.464087000" lon="-2.580691000">
        <ele>446.80</ele>
        <time>2017-02-11T08:35:24Z</time>
      </trkpt>
      <trkpt lat="42.464112000" lon="-2.580671000">
        <ele>446.90</ele>
        <time>2017-02-11T08:35:25Z</time>
      </trkpt>
      <trkpt lat="42.464132000" lon="-2.580651000">
        <ele>447.00</ele>
        <time>2017-02-11T08:35:26Z</time>
      </trkpt>
      <trkpt lat="42.464150000" lon="-2.580627000">
        <ele>446.90</ele>
        <time>2017-02-11T08:35:27Z</time>
      </trkpt>
      <trkpt lat="42.464176000" lon="-2.580603000">
        <ele>446.90</ele>
        <time>2017-02-11T08:35:28Z</time>
      </trkpt>
      <trkpt lat="42.464204000" lon="-2.580581000">
        <ele>446.90</ele>
        <time>2017-02-11T08:35:29Z</time>
      </trkpt>
      <trkpt lat="42.464231000" lon="-2.580556000">
        <ele>446.80</ele>
        <time>2017-02-11T08:35:30Z</time>
      </trkpt>
      <trkpt lat="42.464256000" lon="-2.580534000">
        <ele>446.80</ele>
        <time>2017-02-11T08:35:31Z</time>
      </trkpt>
      <trkpt lat="42.464281000" lon="-2.580509000">
        <ele>446.80</ele>
        <time>2017-02-11T08:35:32Z</time>
      </trkpt>
      <trkpt lat="42.464303000" lon="-2.580482000">
        <ele>446.80</ele>
        <time>2017-02-11T08:35:33Z</time>
      </trkpt>
      <trkpt lat="42.464331000" lon="-2.580462000">
        <ele>446.80</ele>
        <time>2017-02-11T08:35:34Z</time>
      </trkpt>
      <trkpt lat="42.464359000" lon="-2.580439000">
        <ele>446.80</ele>
        <time>2017-02-11T08:35:35Z</time>
      </trkpt>
      <trkpt lat="42.464386000" lon="-2.580417000">
        <ele>446.80</ele>
        <time>2017-02-11T08:35:36Z</time>
      </trkpt>
      <trkpt lat="42.464414000" lon="-2.580393000">
        <ele>446.50</ele>
        <time>2017-02-11T08:35:37Z</time>
      </trkpt>
      <trkpt lat="42.464442000" lon="-2.580368000">
        <ele>446.20</ele>
        <time>2017-02-11T08:35:38Z</time>
      </trkpt>
      <trkpt lat="42.464469000" lon="-2.580349000">
        <ele>446.10</ele>
        <time>2017-02-11T08:35:39Z</time>
      </trkpt>
      <trkpt lat="42.464500000" lon="-2.580323000">
        <ele>445.90</ele>
        <time>2017-02-11T08:35:40Z</time>
      </trkpt>
      <trkpt lat="42.464535000" lon="-2.580296000">
        <ele>445.80</ele>
        <time>2017-02-11T08:35:41Z</time>
      </trkpt>
      <trkpt lat="42.464566000" lon="-2.580265000">
        <ele>445.80</ele>
        <time>2017-02-11T08:35:42Z</time>
      </trkpt>
      <trkpt lat="42.464597000" lon="-2.580241000">
        <ele>445.80</ele>
        <time>2017-02-11T08:35:43Z</time>
      </trkpt>
      <trkpt lat="42.464619000" lon="-2.580207000">
        <ele>445.80</ele>
        <time>2017-02-11T08:35:44Z</time>
      </trkpt>
      <trkpt lat="42.464644000" lon="-2.580172000">
        <ele>445.80</ele>
        <time>2017-02-11T08:35:45Z</time>
      </trkpt>
      <trkpt lat="42.464672000" lon="-2.580131000">
        <ele>445.80</ele>
        <time>2017-02-11T08:35:46Z</time>
      </trkpt>
      <trkpt lat="42.464703000" lon="-2.580086000">
        <ele>445.90</ele>
        <time>2017-02-11T08:35:47Z</time>
      </trkpt>
      <trkpt lat="42.464734000" lon="-2.580052000">
        <ele>445.90</ele>
        <time>2017-02-11T08:35:48Z</time>
      </trkpt>
      <trkpt lat="42.464766000" lon="-2.580016000">
        <ele>445.90</ele>
        <time>2017-02-11T08:35:49Z</time>
      </trkpt>
      <trkpt lat="42.464797000" lon="-2.579978000">
        <ele>445.90</ele>
        <time>2017-02-11T08:35:50Z</time>
      </trkpt>
      <trkpt lat="42.464828000" lon="-2.579946000">
        <ele>445.80</ele>
        <time>2017-02-11T08:35:51Z</time>
      </trkpt>
      <trkpt lat="42.464860000" lon="-2.579916000">
        <ele>445.80</ele>
        <time>2017-02-11T08:35:52Z</time>
      </trkpt>
      <trkpt lat="42.464890000" lon="-2.579888000">
        <ele>445.80</ele>
        <time>2017-02-11T08:35:53Z</time>
      </trkpt>
      <trkpt lat="42.464919000" lon="-2.579863000">
        <ele>445.80</ele>
        <time>2017-02-11T08:35:54Z</time>
      </trkpt>
      <trkpt lat="42.464948000" lon="-2.579844000">
        <ele>445.80</ele>
        <time>2017-02-11T08:35:55Z</time>
      </trkpt>
      <trkpt lat="42.464974000" lon="-2.579824000">
        <ele>445.80</ele>
        <time>2017-02-11T08:35:56Z</time>
      </trkpt>
      <trkpt lat="42.465002000" lon="-2.579811000">
        <ele>445.80</ele>
        <time>2017-02-11T08:35:57Z</time>
      </trkpt>
      <trkpt lat="42.465033000" lon="-2.579800000">
        <ele>445.80</ele>
        <time>2017-02-11T08:35:58Z</time>
      </trkpt>
      <trkpt lat="42.465094000" lon="-2.579785000">
        <ele>445.70</ele>
        <time>2017-02-11T08:36:00Z</time>
      </trkpt>
      <trkpt lat="42.465130000" lon="-2.579774000">
        <ele>445.70</ele>
        <time>2017-02-11T08:36:01Z</time>
      </trkpt>
      <trkpt lat="42.465167000" lon="-2.579763000">
        <ele>445.60</ele>
        <time>2017-02-11T08:36:02Z</time>
      </trkpt>
      <trkpt lat="42.465208000" lon="-2.579751000">
        <ele>445.60</ele>
        <time>2017-02-11T08:36:03Z</time>
      </trkpt>
      <trkpt lat="42.465248000" lon="-2.579739000">
        <ele>445.60</ele>
        <time>2017-02-11T08:36:04Z</time>
      </trkpt>
      <trkpt lat="42.465287000" lon="-2.579724000">
        <ele>445.60</ele>
        <time>2017-02-11T08:36:05Z</time>
      </trkpt>
      <trkpt lat="42.465327000" lon="-2.579711000">
        <ele>445.70</ele>
        <time>2017-02-11T08:36:06Z</time>
      </trkpt>
      <trkpt lat="42.465363000" lon="-2.579706000">
        <ele>445.40</ele>
        <time>2017-02-11T08:36:07Z</time>
      </trkpt>
      <trkpt lat="42.465395000" lon="-2.579709000">
        <ele>445.30</ele>
        <time>2017-02-11T08:36:08Z</time>
      </trkpt>
      <trkpt lat="42.465425000" lon="-2.579712000">
        <ele>445.40</ele>
        <time>2017-02-11T08:36:09Z</time>
      </trkpt>
      <trkpt lat="42.465455000" lon="-2.579724000">
        <ele>445.50</ele>
        <time>2017-02-11T08:36:10Z</time>
      </trkpt>
      <trkpt lat="42.465485000" lon="-2.579724000">
        <ele>445.60</ele>
        <time>2017-02-11T08:36:11Z</time>
      </trkpt>
      <trkpt lat="42.465517000" lon="-2.579722000">
        <ele>445.70</ele>
        <time>2017-02-11T08:36:12Z</time>
      </trkpt>
      <trkpt lat="42.465547000" lon="-2.579728000">
        <ele>445.80</ele>
        <time>2017-02-11T08:36:13Z</time>
      </trkpt>
      <trkpt lat="42.465577000" lon="-2.579736000">
        <ele>445.80</ele>
        <time>2017-02-11T08:36:14Z</time>
      </trkpt>
      <trkpt lat="42.465609000" lon="-2.579744000">
        <ele>446.00</ele>
        <time>2017-02-11T08:36:15Z</time>
      </trkpt>
      <trkpt lat="42.465638000" lon="-2.579749000">
        <ele>446.10</ele>
        <time>2017-02-11T08:36:16Z</time>
      </trkpt>
      <trkpt lat="42.465670000" lon="-2.579751000">
        <ele>446.20</ele>
        <time>2017-02-11T08:36:17Z</time>
      </trkpt>
      <trkpt lat="42.465699000" lon="-2.579759000">
        <ele>446.30</ele>
        <time>2017-02-11T08:36:18Z</time>
      </trkpt>
      <trkpt lat="42.465728000" lon="-2.579768000">
        <ele>446.40</ele>
        <time>2017-02-11T08:36:19Z</time>
      </trkpt>
      <trkpt lat="42.465761000" lon="-2.579775000">
        <ele>446.50</ele>
        <time>2017-02-11T08:36:20Z</time>
      </trkpt>
      <trkpt lat="42.465790000" lon="-2.579783000">
        <ele>446.60</ele>
        <time>2017-02-11T08:36:21Z</time>
      </trkpt>
      <trkpt lat="42.465818000" lon="-2.579790000">
        <ele>446.60</ele>
        <time>2017-02-11T08:36:22Z</time>
      </trkpt>
      <trkpt lat="42.465845000" lon="-2.579799000">
        <ele>446.70</ele>
        <time>2017-02-11T08:36:23Z</time>
      </trkpt>
      <trkpt lat="42.465873000" lon="-2.579806000">
        <ele>446.70</ele>
        <time>2017-02-11T08:36:24Z</time>
      </trkpt>
      <trkpt lat="42.465901000" lon="-2.579813000">
        <ele>446.70</ele>
        <time>2017-02-11T08:36:25Z</time>
      </trkpt>
      <trkpt lat="42.465925000" lon="-2.579819000">
        <ele>446.70</ele>
        <time>2017-02-11T08:36:26Z</time>
      </trkpt>
      <trkpt lat="42.465945000" lon="-2.579823000">
        <ele>446.70</ele>
        <time>2017-02-11T08:36:27Z</time>
      </trkpt>
      <trkpt lat="42.465967000" lon="-2.579831000">
        <ele>446.70</ele>
        <time>2017-02-11T08:36:28Z</time>
      </trkpt>
      <trkpt lat="42.465993000" lon="-2.579840000">
        <ele>446.80</ele>
        <time>2017-02-11T08:36:29Z</time>
      </trkpt>
      <trkpt lat="42.466022000" lon="-2.579854000">
        <ele>446.80</ele>
        <time>2017-02-11T08:36:30Z</time>
      </trkpt>
      <trkpt lat="42.466050000" lon="-2.579877000">
        <ele>446.80</ele>
        <time>2017-02-11T08:36:31Z</time>
      </trkpt>
      <trkpt lat="42.466078000" lon="-2.579904000">
        <ele>446.80</ele>
        <time>2017-02-11T08:36:32Z</time>
      </trkpt>
      <trkpt lat="42.466103000" lon="-2.579930000">
        <ele>446.80</ele>
        <time>2017-02-11T08:36:33Z</time>
      </trkpt>
      <trkpt lat="42.466128000" lon="-2.579957000">
        <ele>446.80</ele>
        <time>2017-02-11T08:36:34Z</time>
      </trkpt>
      <trkpt lat="42.466154000" lon="-2.579988000">
        <ele>446.90</ele>
        <time>2017-02-11T08:36:35Z</time>
      </trkpt>
      <trkpt lat="42.466177000" lon="-2.580018000">
        <ele>447.00</ele>
        <time>2017-02-11T08:36:36Z</time>
      </trkpt>
      <trkpt lat="42.466207000" lon="-2.580047000">
        <ele>447.10</ele>
        <time>2017-02-11T08:36:37Z</time>
      </trkpt>
      <trkpt lat="42.466238000" lon="-2.580073000">
        <ele>447.10</ele>
        <time>2017-02-11T08:36:38Z</time>
      </trkpt>
      <trkpt lat="42.466271000" lon="-2.580093000">
        <ele>447.20</ele>
        <time>2017-02-11T08:36:39Z</time>
      </trkpt>
      <trkpt lat="42.466308000" lon="-2.580109000">
        <ele>447.20</ele>
        <time>2017-02-11T08:36:40Z</time>
      </trkpt>
      <trkpt lat="42.466344000" lon="-2.580118000">
        <ele>447.10</ele>
        <time>2017-02-11T08:36:41Z</time>
      </trkpt>
      <trkpt lat="42.466383000" lon="-2.580125000">
        <ele>447.00</ele>
        <time>2017-02-11T08:36:42Z</time>
      </trkpt>
      <trkpt lat="42.466429000" lon="-2.580126000">
        <ele>446.70</ele>
        <time>2017-02-11T08:36:43Z</time>
      </trkpt>
      <trkpt lat="42.466474000" lon="-2.580121000">
        <ele>446.50</ele>
        <time>2017-02-11T08:36:44Z</time>
      </trkpt>
      <trkpt lat="42.466520000" lon="-2.580107000">
        <ele>446.30</ele>
        <time>2017-02-11T08:36:45Z</time>
      </trkpt>
      <trkpt lat="42.466564000" lon="-2.580083000">
        <ele>446.10</ele>
        <time>2017-02-11T08:36:46Z</time>
      </trkpt>
      <trkpt lat="42.466607000" lon="-2.580059000">
        <ele>446.00</ele>
        <time>2017-02-11T08:36:47Z</time>
      </trkpt>
      <trkpt lat="42.466654000" lon="-2.580039000">
        <ele>446.00</ele>
        <time>2017-02-11T08:36:48Z</time>
      </trkpt>
      <trkpt lat="42.466697000" lon="-2.580029000">
        <ele>445.40</ele>
        <time>2017-02-11T08:36:49Z</time>
      </trkpt>
      <trkpt lat="42.466736000" lon="-2.580026000">
        <ele>445.10</ele>
        <time>2017-02-11T08:36:50Z</time>
      </trkpt>
      <trkpt lat="42.466771000" lon="-2.580030000">
        <ele>444.80</ele>
        <time>2017-02-11T08:36:51Z</time>
      </trkpt>
      <trkpt lat="42.466806000" lon="-2.580032000">
        <ele>444.60</ele>
        <time>2017-02-11T08:36:52Z</time>
      </trkpt>
      <trkpt lat="42.466847000" lon="-2.580039000">
        <ele>444.40</ele>
        <time>2017-02-11T08:36:53Z</time>
      </trkpt>
      <trkpt lat="42.466882000" lon="-2.580047000">
        <ele>444.30</ele>
        <time>2017-02-11T08:36:54Z</time>
      </trkpt>
      <trkpt lat="42.466916000" lon="-2.580060000">
        <ele>444.20</ele>
        <time>2017-02-11T08:36:55Z</time>
      </trkpt>
      <trkpt lat="42.466951000" lon="-2.580069000">
        <ele>444.10</ele>
        <time>2017-02-11T08:36:56Z</time>
      </trkpt>
      <trkpt lat="42.466988000" lon="-2.580077000">
        <ele>444.10</ele>
        <time>2017-02-11T08:36:57Z</time>
      </trkpt>
      <trkpt lat="42.467026000" lon="-2.580082000">
        <ele>444.00</ele>
        <time>2017-02-11T08:36:58Z</time>
      </trkpt>
      <trkpt lat="42.467065000" lon="-2.580090000">
        <ele>443.80</ele>
        <time>2017-02-11T08:36:59Z</time>
      </trkpt>
      <trkpt lat="42.467142000" lon="-2.580110000">
        <ele>443.70</ele>
        <time>2017-02-11T08:37:01Z</time>
      </trkpt>
      <trkpt lat="42.467179000" lon="-2.580120000">
        <ele>443.80</ele>
        <time>2017-02-11T08:37:02Z</time>
      </trkpt>
      <trkpt lat="42.467215000" lon="-2.580135000">
        <ele>443.90</ele>
        <time>2017-02-11T08:37:03Z</time>
      </trkpt>
      <trkpt lat="42.467248000" lon="-2.580147000">
        <ele>443.90</ele>
        <time>2017-02-11T08:37:04Z</time>
      </trkpt>
      <trkpt lat="42.467281000" lon="-2.580163000">
        <ele>444.00</ele>
        <time>2017-02-11T08:37:05Z</time>
      </trkpt>
      <trkpt lat="42.467313000" lon="-2.580176000">
        <ele>444.00</ele>
        <time>2017-02-11T08:37:06Z</time>
      </trkpt>
      <trkpt lat="42.467346000" lon="-2.580187000">
        <ele>444.10</ele>
        <time>2017-02-11T08:37:07Z</time>
      </trkpt>
      <trkpt lat="42.467380000" lon="-2.580197000">
        <ele>444.10</ele>
        <time>2017-02-11T08:37:08Z</time>
      </trkpt>
      <trkpt lat="42.467412000" lon="-2.580203000">
        <ele>444.10</ele>
        <time>2017-02-11T08:37:09Z</time>
      </trkpt>
      <trkpt lat="42.467445000" lon="-2.580217000">
        <ele>444.10</ele>
        <time>2017-02-11T08:37:10Z</time>
      </trkpt>
      <trkpt lat="42.467476000" lon="-2.580225000">
        <ele>444.40</ele>
        <time>2017-02-11T08:37:11Z</time>
      </trkpt>
      <trkpt lat="42.467502000" lon="-2.580234000">
        <ele>444.60</ele>
        <time>2017-02-11T08:37:12Z</time>
      </trkpt>
      <trkpt lat="42.467526000" lon="-2.580240000">
        <ele>444.80</ele>
        <time>2017-02-11T08:37:13Z</time>
      </trkpt>
      <trkpt lat="42.467553000" lon="-2.580248000">
        <ele>444.90</ele>
        <time>2017-02-11T08:37:14Z</time>
      </trkpt>
      <trkpt lat="42.467581000" lon="-2.580251000">
        <ele>444.80</ele>
        <time>2017-02-11T08:37:15Z</time>
      </trkpt>
      <trkpt lat="42.467610000" lon="-2.580261000">
        <ele>444.80</ele>
        <time>2017-02-11T08:37:16Z</time>
      </trkpt>
      <trkpt lat="42.467644000" lon="-2.580267000">
        <ele>444.80</ele>
        <time>2017-02-11T08:37:17Z</time>
      </trkpt>
      <trkpt lat="42.467682000" lon="-2.580272000">
        <ele>444.70</ele>
        <time>2017-02-11T08:37:18Z</time>
      </trkpt>
      <trkpt lat="42.467722000" lon="-2.580281000">
        <ele>444.70</ele>
        <time>2017-02-11T08:37:19Z</time>
      </trkpt>
      <trkpt lat="42.467762000" lon="-2.580289000">
        <ele>444.60</ele>
        <time>2017-02-11T08:37:20Z</time>
      </trkpt>
      <trkpt lat="42.467797000" lon="-2.580302000">
        <ele>444.60</ele>
        <time>2017-02-11T08:37:21Z</time>
      </trkpt>
      <trkpt lat="42.467829000" lon="-2.580311000">
        <ele>444.60</ele>
        <time>2017-02-11T08:37:22Z</time>
      </trkpt>
      <trkpt lat="42.467860000" lon="-2.580321000">
        <ele>444.70</ele>
        <time>2017-02-11T08:37:23Z</time>
      </trkpt>
      <trkpt lat="42.467892000" lon="-2.580330000">
        <ele>444.70</ele>
        <time>2017-02-11T08:37:24Z</time>
      </trkpt>
      <trkpt lat="42.467926000" lon="-2.580338000">
        <ele>444.70</ele>
        <time>2017-02-11T08:37:25Z</time>
      </trkpt>
      <trkpt lat="42.467959000" lon="-2.580345000">
        <ele>444.80</ele>
        <time>2017-02-11T08:37:26Z</time>
      </trkpt>
      <trkpt lat="42.467987000" lon="-2.580354000">
        <ele>444.90</ele>
        <time>2017-02-11T08:37:27Z</time>
      </trkpt>
      <trkpt lat="42.468022000" lon="-2.580357000">
        <ele>445.00</ele>
        <time>2017-02-11T08:37:28Z</time>
      </trkpt>
      <trkpt lat="42.468058000" lon="-2.580361000">
        <ele>445.00</ele>
        <time>2017-02-11T08:37:29Z</time>
      </trkpt>
      <trkpt lat="42.468088000" lon="-2.580362000">
        <ele>445.10</ele>
        <time>2017-02-11T08:37:30Z</time>
      </trkpt>
      <trkpt lat="42.468115000" lon="-2.580368000">
        <ele>445.00</ele>
        <time>2017-02-11T08:37:31Z</time>
      </trkpt>
      <trkpt lat="42.468144000" lon="-2.580382000">
        <ele>444.90</ele>
        <time>2017-02-11T08:37:32Z</time>
      </trkpt>
      <trkpt lat="42.468180000" lon="-2.580392000">
        <ele>444.90</ele>
        <time>2017-02-11T08:37:33Z</time>
      </trkpt>
      <trkpt lat="42.468218000" lon="-2.580400000">
        <ele>444.80</ele>
        <time>2017-02-11T08:37:34Z</time>
      </trkpt>
      <trkpt lat="42.468257000" lon="-2.580405000">
        <ele>444.70</ele>
        <time>2017-02-11T08:37:35Z</time>
      </trkpt>
      <trkpt lat="42.468295000" lon="-2.580414000">
        <ele>444.60</ele>
        <time>2017-02-11T08:37:36Z</time>
      </trkpt>
      <trkpt lat="42.468328000" lon="-2.580428000">
        <ele>444.70</ele>
        <time>2017-02-11T08:37:37Z</time>
      </trkpt>
      <trkpt lat="42.468357000" lon="-2.580440000">
        <ele>444.70</ele>
        <time>2017-02-11T08:37:38Z</time>
      </trkpt>
      <trkpt lat="42.468394000" lon="-2.580455000">
        <ele>444.60</ele>
        <time>2017-02-11T08:37:39Z</time>
      </trkpt>
      <trkpt lat="42.468423000" lon="-2.580472000">
        <ele>444.60</ele>
        <time>2017-02-11T08:37:40Z</time>
      </trkpt>
      <trkpt lat="42.468457000" lon="-2.580486000">
        <ele>444.40</ele>
        <time>2017-02-11T08:37:41Z</time>
      </trkpt>
      <trkpt lat="42.468492000" lon="-2.580497000">
        <ele>444.30</ele>
        <time>2017-02-11T08:37:42Z</time>
      </trkpt>
      <trkpt lat="42.468525000" lon="-2.580515000">
        <ele>444.10</ele>
        <time>2017-02-11T08:37:43Z</time>
      </trkpt>
      <trkpt lat="42.468562000" lon="-2.580530000">
        <ele>444.00</ele>
        <time>2017-02-11T08:37:44Z</time>
      </trkpt>
      <trkpt lat="42.468598000" lon="-2.580541000">
        <ele>443.80</ele>
        <time>2017-02-11T08:37:45Z</time>
      </trkpt>
      <trkpt lat="42.468632000" lon="-2.580552000">
        <ele>443.70</ele>
        <time>2017-02-11T08:37:46Z</time>
      </trkpt>
      <trkpt lat="42.468667000" lon="-2.580566000">
        <ele>443.50</ele>
        <time>2017-02-11T08:37:47Z</time>
      </trkpt>
      <trkpt lat="42.468704000" lon="-2.580583000">
        <ele>443.30</ele>
        <time>2017-02-11T08:37:48Z</time>
      </trkpt>
      <trkpt lat="42.468741000" lon="-2.580597000">
        <ele>443.20</ele>
        <time>2017-02-11T08:37:49Z</time>
      </trkpt>
      <trkpt lat="42.468776000" lon="-2.580615000">
        <ele>443.20</ele>
        <time>2017-02-11T08:37:50Z</time>
      </trkpt>
      <trkpt lat="42.468810000" lon="-2.580631000">
        <ele>443.10</ele>
        <time>2017-02-11T08:37:51Z</time>
      </trkpt>
      <trkpt lat="42.468847000" lon="-2.580639000">
        <ele>443.10</ele>
        <time>2017-02-11T08:37:52Z</time>
      </trkpt>
      <trkpt lat="42.468884000" lon="-2.580651000">
        <ele>443.00</ele>
        <time>2017-02-11T08:37:53Z</time>
      </trkpt>
      <trkpt lat="42.468918000" lon="-2.580664000">
        <ele>443.00</ele>
        <time>2017-02-11T08:37:54Z</time>
      </trkpt>
      <trkpt lat="42.468956000" lon="-2.580681000">
        <ele>442.90</ele>
        <time>2017-02-11T08:37:55Z</time>
      </trkpt>
      <trkpt lat="42.468985000" lon="-2.580702000">
        <ele>442.90</ele>
        <time>2017-02-11T08:37:56Z</time>
      </trkpt>
      <trkpt lat="42.469018000" lon="-2.580721000">
        <ele>442.80</ele>
        <time>2017-02-11T08:37:57Z</time>
      </trkpt>
      <trkpt lat="42.469047000" lon="-2.580735000">
        <ele>442.80</ele>
        <time>2017-02-11T08:37:58Z</time>
      </trkpt>
      <trkpt lat="42.469080000" lon="-2.580749000">
        <ele>442.80</ele>
        <time>2017-02-11T08:37:59Z</time>
      </trkpt>
      <trkpt lat="42.469113000" lon="-2.580766000">
        <ele>442.90</ele>
        <time>2017-02-11T08:38:00Z</time>
      </trkpt>
      <trkpt lat="42.469180000" lon="-2.580790000">
        <ele>443.20</ele>
        <time>2017-02-11T08:38:02Z</time>
      </trkpt>
      <trkpt lat="42.469209000" lon="-2.580799000">
        <ele>443.40</ele>
        <time>2017-02-11T08:38:03Z</time>
      </trkpt>
      <trkpt lat="42.469237000" lon="-2.580809000">
        <ele>443.50</ele>
        <time>2017-02-11T08:38:04Z</time>
      </trkpt>
      <trkpt lat="42.469267000" lon="-2.580811000">
        <ele>443.60</ele>
        <time>2017-02-11T08:38:05Z</time>
      </trkpt>
      <trkpt lat="42.469298000" lon="-2.580814000">
        <ele>443.70</ele>
        <time>2017-02-11T08:38:06Z</time>
      </trkpt>
      <trkpt lat="42.469328000" lon="-2.580812000">
        <ele>443.70</ele>
        <time>2017-02-11T08:38:07Z</time>
      </trkpt>
      <trkpt lat="42.469360000" lon="-2.580803000">
        <ele>443.70</ele>
        <time>2017-02-11T08:38:08Z</time>
      </trkpt>
      <trkpt lat="42.469392000" lon="-2.580799000">
        <ele>443.70</ele>
        <time>2017-02-11T08:38:09Z</time>
      </trkpt>
      <trkpt lat="42.469424000" lon="-2.580787000">
        <ele>443.70</ele>
        <time>2017-02-11T08:38:10Z</time>
      </trkpt>
      <trkpt lat="42.469452000" lon="-2.580779000">
        <ele>443.70</ele>
        <time>2017-02-11T08:38:11Z</time>
      </trkpt>
      <trkpt lat="42.469483000" lon="-2.580777000">
        <ele>443.60</ele>
        <time>2017-02-11T08:38:12Z</time>
      </trkpt>
      <trkpt lat="42.469514000" lon="-2.580779000">
        <ele>443.60</ele>
        <time>2017-02-11T08:38:13Z</time>
      </trkpt>
      <trkpt lat="42.469554000" lon="-2.580785000">
        <ele>443.60</ele>
        <time>2017-02-11T08:38:14Z</time>
      </trkpt>
      <trkpt lat="42.469593000" lon="-2.580798000">
        <ele>443.50</ele>
        <time>2017-02-11T08:38:15Z</time>
      </trkpt>
      <trkpt lat="42.469630000" lon="-2.580808000">
        <ele>443.50</ele>
        <time>2017-02-11T08:38:16Z</time>
      </trkpt>
      <trkpt lat="42.469665000" lon="-2.580813000">
        <ele>443.40</ele>
        <time>2017-02-11T08:38:17Z</time>
      </trkpt>
      <trkpt lat="42.469702000" lon="-2.580815000">
        <ele>443.40</ele>
        <time>2017-02-11T08:38:18Z</time>
      </trkpt>
      <trkpt lat="42.469737000" lon="-2.580813000">
        <ele>443.30</ele>
        <time>2017-02-11T08:38:19Z</time>
      </trkpt>
      <trkpt lat="42.469770000" lon="-2.580811000">
        <ele>443.30</ele>
        <time>2017-02-11T08:38:20Z</time>
      </trkpt>
      <trkpt lat="42.469802000" lon="-2.580801000">
        <ele>443.30</ele>
        <time>2017-02-11T08:38:21Z</time>
      </trkpt>
      <trkpt lat="42.469835000" lon="-2.580797000">
        <ele>443.30</ele>
        <time>2017-02-11T08:38:22Z</time>
      </trkpt>
      <trkpt lat="42.469868000" lon="-2.580798000">
        <ele>443.40</ele>
        <time>2017-02-11T08:38:23Z</time>
      </trkpt>
      <trkpt lat="42.469902000" lon="-2.580799000">
        <ele>443.50</ele>
        <time>2017-02-11T08:38:24Z</time>
      </trkpt>
      <trkpt lat="42.469935000" lon="-2.580799000">
        <ele>443.50</ele>
        <time>2017-02-11T08:38:25Z</time>
      </trkpt>
      <trkpt lat="42.469964000" lon="-2.580806000">
        <ele>443.60</ele>
        <time>2017-02-11T08:38:26Z</time>
      </trkpt>
      <trkpt lat="42.469996000" lon="-2.580819000">
        <ele>443.80</ele>
        <time>2017-02-11T08:38:27Z</time>
      </trkpt>
      <trkpt lat="42.470033000" lon="-2.580829000">
        <ele>443.90</ele>
        <time>2017-02-11T08:38:28Z</time>
      </trkpt>
      <trkpt lat="42.470070000" lon="-2.580836000">
        <ele>444.00</ele>
        <time>2017-02-11T08:38:29Z</time>
      </trkpt>
      <trkpt lat="42.470105000" lon="-2.580844000">
        <ele>444.20</ele>
        <time>2017-02-11T08:38:30Z</time>
      </trkpt>
      <trkpt lat="42.470138000" lon="-2.580853000">
        <ele>444.20</ele>
        <time>2017-02-11T08:38:31Z</time>
      </trkpt>
      <trkpt lat="42.470170000" lon="-2.580864000">
        <ele>444.30</ele>
        <time>2017-02-11T08:38:32Z</time>
      </trkpt>
      <trkpt lat="42.470199000" lon="-2.580871000">
        <ele>444.50</ele>
        <time>2017-02-11T08:38:33Z</time>
      </trkpt>
      <trkpt lat="42.470229000" lon="-2.580880000">
        <ele>444.60</ele>
        <time>2017-02-11T08:38:34Z</time>
      </trkpt>
      <trkpt lat="42.470261000" lon="-2.580888000">
        <ele>444.70</ele>
        <time>2017-02-11T08:38:35Z</time>
      </trkpt>
      <trkpt lat="42.470289000" lon="-2.580895000">
        <ele>444.70</ele>
        <time>2017-02-11T08:38:36Z</time>
      </trkpt>
      <trkpt lat="42.470323000" lon="-2.580906000">
        <ele>444.70</ele>
        <time>2017-02-11T08:38:37Z</time>
      </trkpt>
      <trkpt lat="42.470355000" lon="-2.580911000">
        <ele>444.70</ele>
        <time>2017-02-11T08:38:38Z</time>
      </trkpt>
      <trkpt lat="42.470386000" lon="-2.580925000">
        <ele>444.70</ele>
        <time>2017-02-11T08:38:39Z</time>
      </trkpt>
      <trkpt lat="42.470416000" lon="-2.580939000">
        <ele>444.70</ele>
        <time>2017-02-11T08:38:40Z</time>
      </trkpt>
      <trkpt lat="42.470442000" lon="-2.580950000">
        <ele>444.70</ele>
        <time>2017-02-11T08:38:41Z</time>
      </trkpt>
      <trkpt lat="42.470464000" lon="-2.580969000">
        <ele>444.60</ele>
        <time>2017-02-11T08:38:42Z</time>
      </trkpt>
      <trkpt lat="42.470494000" lon="-2.580984000">
        <ele>444.60</ele>
        <time>2017-02-11T08:38:43Z</time>
      </trkpt>
      <trkpt lat="42.470521000" lon="-2.580996000">
        <ele>444.60</ele>
        <time>2017-02-11T08:38:44Z</time>
      </trkpt>
      <trkpt lat="42.470549000" lon="-2.581000000">
        <ele>444.50</ele>
        <time>2017-02-11T08:38:45Z</time>
      </trkpt>
      <trkpt lat="42.470577000" lon="-2.581003000">
        <ele>444.40</ele>
        <time>2017-02-11T08:38:46Z</time>
      </trkpt>
      <trkpt lat="42.470602000" lon="-2.581006000">
        <ele>444.50</ele>
        <time>2017-02-11T08:38:47Z</time>
      </trkpt>
      <trkpt lat="42.470624000" lon="-2.581007000">
        <ele>444.50</ele>
        <time>2017-02-11T08:38:48Z</time>
      </trkpt>
      <trkpt lat="42.470651000" lon="-2.580996000">
        <ele>444.80</ele>
        <time>2017-02-11T08:38:49Z</time>
      </trkpt>
      <trkpt lat="42.470673000" lon="-2.580984000">
        <ele>445.10</ele>
        <time>2017-02-11T08:38:50Z</time>
      </trkpt>
      <trkpt lat="42.470695000" lon="-2.580974000">
        <ele>445.30</ele>
        <time>2017-02-11T08:38:51Z</time>
      </trkpt>
      <trkpt lat="42.470722000" lon="-2.580940000">
        <ele>445.40</ele>
        <time>2017-02-11T08:38:52Z</time>
      </trkpt>
      <trkpt lat="42.470744000" lon="-2.580907000">
        <ele>445.40</ele>
        <time>2017-02-11T08:38:53Z</time>
      </trkpt>
      <trkpt lat="42.470762000" lon="-2.580871000">
        <ele>445.40</ele>
        <time>2017-02-11T08:38:54Z</time>
      </trkpt>
      <trkpt lat="42.470781000" lon="-2.580833000">
        <ele>445.30</ele>
        <time>2017-02-11T08:38:55Z</time>
      </trkpt>
      <trkpt lat="42.470796000" lon="-2.580792000">
        <ele>445.20</ele>
        <time>2017-02-11T08:38:56Z</time>
      </trkpt>
      <trkpt lat="42.470800000" lon="-2.580755000">
        <ele>445.20</ele>
        <time>2017-02-11T08:38:57Z</time>
      </trkpt>
      <trkpt lat="42.470808000" lon="-2.580719000">
        <ele>445.10</ele>
        <time>2017-02-11T08:38:58Z</time>
      </trkpt>
      <trkpt lat="42.470816000" lon="-2.580683000">
        <ele>445.40</ele>
        <time>2017-02-11T08:38:59Z</time>
      </trkpt>
      <trkpt lat="42.470828000" lon="-2.580648000">
        <ele>445.50</ele>
        <time>2017-02-11T08:39:00Z</time>
      </trkpt>
      <trkpt lat="42.470842000" lon="-2.580614000">
        <ele>445.70</ele>
        <time>2017-02-11T08:39:01Z</time>
      </trkpt>
      <trkpt lat="42.470871000" lon="-2.580551000">
        <ele>446.10</ele>
        <time>2017-02-11T08:39:03Z</time>
      </trkpt>
      <trkpt lat="42.470889000" lon="-2.580531000">
        <ele>446.30</ele>
        <time>2017-02-11T08:39:04Z</time>
      </trkpt>
      <trkpt lat="42.470909000" lon="-2.580504000">
        <ele>446.50</ele>
        <time>2017-02-11T08:39:05Z</time>
      </trkpt>
      <trkpt lat="42.470932000" lon="-2.580485000">
        <ele>446.60</ele>
        <time>2017-02-11T08:39:06Z</time>
      </trkpt>
      <trkpt lat="42.470956000" lon="-2.580463000">
        <ele>446.70</ele>
        <time>2017-02-11T08:39:07Z</time>
      </trkpt>
      <trkpt lat="42.470978000" lon="-2.580437000">
        <ele>446.70</ele>
        <time>2017-02-11T08:39:08Z</time>
      </trkpt>
      <trkpt lat="42.470998000" lon="-2.580417000">
        <ele>446.70</ele>
        <time>2017-02-11T08:39:09Z</time>
      </trkpt>
      <trkpt lat="42.471016000" lon="-2.580389000">
        <ele>446.80</ele>
        <time>2017-02-11T08:39:10Z</time>
      </trkpt>
      <trkpt lat="42.471038000" lon="-2.580357000">
        <ele>446.70</ele>
        <time>2017-02-11T08:39:11Z</time>
      </trkpt>
      <trkpt lat="42.471060000" lon="-2.580318000">
        <ele>446.70</ele>
        <time>2017-02-11T08:39:12Z</time>
      </trkpt>
      <trkpt lat="42.471081000" lon="-2.580273000">
        <ele>446.50</ele>
        <time>2017-02-11T08:39:13Z</time>
      </trkpt>
      <trkpt lat="42.471099000" lon="-2.580233000">
        <ele>446.40</ele>
        <time>2017-02-11T08:39:14Z</time>
      </trkpt>
      <trkpt lat="42.471128000" lon="-2.580196000">
        <ele>446.30</ele>
        <time>2017-02-11T08:39:15Z</time>
      </trkpt>
      <trkpt lat="42.471161000" lon="-2.580165000">
        <ele>446.30</ele>
        <time>2017-02-11T08:39:16Z</time>
      </trkpt>
      <trkpt lat="42.471194000" lon="-2.580137000">
        <ele>446.20</ele>
        <time>2017-02-11T08:39:17Z</time>
      </trkpt>
      <trkpt lat="42.471224000" lon="-2.580110000">
        <ele>446.20</ele>
        <time>2017-02-11T08:39:18Z</time>
      </trkpt>
      <trkpt lat="42.471250000" lon="-2.580084000">
        <ele>446.00</ele>
        <time>2017-02-11T08:39:19Z</time>
      </trkpt>
      <trkpt lat="42.471275000" lon="-2.580061000">
        <ele>445.80</ele>
        <time>2017-02-11T08:39:20Z</time>
      </trkpt>
      <trkpt lat="42.471299000" lon="-2.580040000">
        <ele>445.60</ele>
        <time>2017-02-11T08:39:21Z</time>
      </trkpt>
      <trkpt lat="42.471326000" lon="-2.580018000">
        <ele>445.50</ele>
        <time>2017-02-11T08:39:22Z</time>
      </trkpt>
      <trkpt lat="42.471355000" lon="-2.579990000">
        <ele>445.40</ele>
        <time>2017-02-11T08:39:23Z</time>
      </trkpt>
      <trkpt lat="42.471387000" lon="-2.579959000">
        <ele>445.40</ele>
        <time>2017-02-11T08:39:24Z</time>
      </trkpt>
      <trkpt lat="42.471417000" lon="-2.579927000">
        <ele>445.30</ele>
        <time>2017-02-11T08:39:25Z</time>
      </trkpt>
      <trkpt lat="42.471448000" lon="-2.579894000">
        <ele>445.20</ele>
        <time>2017-02-11T08:39:26Z</time>
      </trkpt>
      <trkpt lat="42.471475000" lon="-2.579864000">
        <ele>445.20</ele>
        <time>2017-02-11T08:39:27Z</time>
      </trkpt>
      <trkpt lat="42.471498000" lon="-2.579839000">
        <ele>445.10</ele>
        <time>2017-02-11T08:39:28Z</time>
      </trkpt>
      <trkpt lat="42.471518000" lon="-2.579814000">
        <ele>445.10</ele>
        <time>2017-02-11T08:39:29Z</time>
      </trkpt>
      <trkpt lat="42.471536000" lon="-2.579784000">
        <ele>445.10</ele>
        <time>2017-02-11T08:39:30Z</time>
      </trkpt>
      <trkpt lat="42.471554000" lon="-2.579757000">
        <ele>445.30</ele>
        <time>2017-02-11T08:39:31Z</time>
      </trkpt>
      <trkpt lat="42.471576000" lon="-2.579731000">
        <ele>445.40</ele>
        <time>2017-02-11T08:39:32Z</time>
      </trkpt>
      <trkpt lat="42.471600000" lon="-2.579706000">
        <ele>445.50</ele>
        <time>2017-02-11T08:39:33Z</time>
      </trkpt>
      <trkpt lat="42.471624000" lon="-2.579687000">
        <ele>445.60</ele>
        <time>2017-02-11T08:39:34Z</time>
      </trkpt>
      <trkpt lat="42.471643000" lon="-2.579664000">
        <ele>445.60</ele>
        <time>2017-02-11T08:39:35Z</time>
      </trkpt>
      <trkpt lat="42.471661000" lon="-2.579644000">
        <ele>445.60</ele>
        <time>2017-02-11T08:39:36Z</time>
      </trkpt>
      <trkpt lat="42.471671000" lon="-2.579614000">
        <ele>445.60</ele>
        <time>2017-02-11T08:39:37Z</time>
      </trkpt>
      <trkpt lat="42.471684000" lon="-2.579586000">
        <ele>445.60</ele>
        <time>2017-02-11T08:39:38Z</time>
      </trkpt>
      <trkpt lat="42.471699000" lon="-2.579557000">
        <ele>445.60</ele>
        <time>2017-02-11T08:39:39Z</time>
      </trkpt>
      <trkpt lat="42.471714000" lon="-2.579524000">
        <ele>445.60</ele>
        <time>2017-02-11T08:39:40Z</time>
      </trkpt>
      <trkpt lat="42.471729000" lon="-2.579492000">
        <ele>445.50</ele>
        <time>2017-02-11T08:39:41Z</time>
      </trkpt>
      <trkpt lat="42.471746000" lon="-2.579457000">
        <ele>445.40</ele>
        <time>2017-02-11T08:39:42Z</time>
      </trkpt>
      <trkpt lat="42.471764000" lon="-2.579428000">
        <ele>445.50</ele>
        <time>2017-02-11T08:39:43Z</time>
      </trkpt>
      <trkpt lat="42.471784000" lon="-2.579395000">
        <ele>445.60</ele>
        <time>2017-02-11T08:39:44Z</time>
      </trkpt>
      <trkpt lat="42.471802000" lon="-2.579372000">
        <ele>445.70</ele>
        <time>2017-02-11T08:39:45Z</time>
      </trkpt>
      <trkpt lat="42.471804000" lon="-2.579337000">
        <ele>445.70</ele>
        <time>2017-02-11T08:39:46Z</time>
      </trkpt>
      <trkpt lat="42.471801000" lon="-2.579308000">
        <ele>445.80</ele>
        <time>2017-02-11T08:39:47Z</time>
      </trkpt>
      <trkpt lat="42.471796000" lon="-2.579278000">
        <ele>445.90</ele>
        <time>2017-02-11T08:39:48Z</time>
      </trkpt>
      <trkpt lat="42.471793000" lon="-2.579245000">
        <ele>446.20</ele>
        <time>2017-02-11T08:39:49Z</time>
      </trkpt>
      <trkpt lat="42.471794000" lon="-2.579212000">
        <ele>446.50</ele>
        <time>2017-02-11T08:39:50Z</time>
      </trkpt>
      <trkpt lat="42.471796000" lon="-2.579182000">
        <ele>447.20</ele>
        <time>2017-02-11T08:39:51Z</time>
      </trkpt>
      <trkpt lat="42.471798000" lon="-2.579150000">
        <ele>447.70</ele>
        <time>2017-02-11T08:39:52Z</time>
      </trkpt>
      <trkpt lat="42.471795000" lon="-2.579121000">
        <ele>448.10</ele>
        <time>2017-02-11T08:39:53Z</time>
      </trkpt>
      <trkpt lat="42.471793000" lon="-2.579089000">
        <ele>448.40</ele>
        <time>2017-02-11T08:39:54Z</time>
      </trkpt>
      <trkpt lat="42.471792000" lon="-2.579057000">
        <ele>448.70</ele>
        <time>2017-02-11T08:39:55Z</time>
      </trkpt>
      <trkpt lat="42.471791000" lon="-2.579026000">
        <ele>448.80</ele>
        <time>2017-02-11T08:39:56Z</time>
      </trkpt>
      <trkpt lat="42.471793000" lon="-2.578996000">
        <ele>449.00</ele>
        <time>2017-02-11T08:39:57Z</time>
      </trkpt>
      <trkpt lat="42.471795000" lon="-2.578964000">
        <ele>449.10</ele>
        <time>2017-02-11T08:39:58Z</time>
      </trkpt>
      <trkpt lat="42.471797000" lon="-2.578934000">
        <ele>449.20</ele>
        <time>2017-02-11T08:39:59Z</time>
      </trkpt>
      <trkpt lat="42.471795000" lon="-2.578907000">
        <ele>449.30</ele>
        <time>2017-02-11T08:40:00Z</time>
      </trkpt>
      <trkpt lat="42.471792000" lon="-2.578876000">
        <ele>449.90</ele>
        <time>2017-02-11T08:40:01Z</time>
      </trkpt>
      <trkpt lat="42.471789000" lon="-2.578841000">
        <ele>450.30</ele>
        <time>2017-02-11T08:40:02Z</time>
      </trkpt>
      <trkpt lat="42.471778000" lon="-2.578779000">
        <ele>450.80</ele>
        <time>2017-02-11T08:40:04Z</time>
      </trkpt>
      <trkpt lat="42.471771000" lon="-2.578751000">
        <ele>451.00</ele>
        <time>2017-02-11T08:40:05Z</time>
      </trkpt>
      <trkpt lat="42.471768000" lon="-2.578727000">
        <ele>451.20</ele>
        <time>2017-02-11T08:40:06Z</time>
      </trkpt>
      <trkpt lat="42.471764000" lon="-2.578704000">
        <ele>451.60</ele>
        <time>2017-02-11T08:40:07Z</time>
      </trkpt>
      <trkpt lat="42.471760000" lon="-2.578679000">
        <ele>451.90</ele>
        <time>2017-02-11T08:40:08Z</time>
      </trkpt>
      <trkpt lat="42.471754000" lon="-2.578656000">
        <ele>452.50</ele>
        <time>2017-02-11T08:40:09Z</time>
      </trkpt>
      <trkpt lat="42.471753000" lon="-2.578631000">
        <ele>453.00</ele>
        <time>2017-02-11T08:40:10Z</time>
      </trkpt>
      <trkpt lat="42.471749000" lon="-2.578611000">
        <ele>453.40</ele>
        <time>2017-02-11T08:40:11Z</time>
      </trkpt>
      <trkpt lat="42.471745000" lon="-2.578588000">
        <ele>453.70</ele>
        <time>2017-02-11T08:40:12Z</time>
      </trkpt>
      <trkpt lat="42.471741000" lon="-2.578573000">
        <ele>454.00</ele>
        <time>2017-02-11T08:40:13Z</time>
      </trkpt>
      <trkpt lat="42.471725000" lon="-2.578564000">
        <ele>454.20</ele>
        <time>2017-02-11T08:40:14Z</time>
      </trkpt>
      <trkpt lat="42.471718000" lon="-2.578556000">
        <ele>454.40</ele>
        <time>2017-02-11T08:40:15Z</time>
      </trkpt>
      <trkpt lat="42.471714000" lon="-2.578552000">
        <ele>454.50</ele>
        <time>2017-02-11T08:40:16Z</time>
      </trkpt>
      <trkpt lat="42.471712000" lon="-2.578547000">
        <ele>454.70</ele>
        <time>2017-02-11T08:40:17Z</time>
      </trkpt>
      <trkpt lat="42.471710000" lon="-2.578545000">
        <ele>454.90</ele>
        <time>2017-02-11T08:40:18Z</time>
      </trkpt>
      <trkpt lat="42.471709000" lon="-2.578544000">
        <ele>455.10</ele>
        <time>2017-02-11T08:40:19Z</time>
      </trkpt>
      <trkpt lat="42.471708000" lon="-2.578545000">
        <ele>455.20</ele>
        <time>2017-02-11T08:40:20Z</time>
      </trkpt>
      <trkpt lat="42.471708000" lon="-2.578547000">
        <ele>455.30</ele>
        <time>2017-02-11T08:40:21Z</time>
      </trkpt>
      <trkpt lat="42.471710000" lon="-2.578545000">
        <ele>455.40</ele>
        <time>2017-02-11T08:40:22Z</time>
      </trkpt>
      <trkpt lat="42.471709000" lon="-2.578545000">
        <ele>455.40</ele>
        <time>2017-02-11T08:40:23Z</time>
      </trkpt>
      <trkpt lat="42.471706000" lon="-2.578539000">
        <ele>455.30</ele>
        <time>2017-02-11T08:40:24Z</time>
      </trkpt>
      <trkpt lat="42.471706000" lon="-2.578540000">
        <ele>455.30</ele>
        <time>2017-02-11T08:40:25Z</time>
      </trkpt>
      <trkpt lat="42.471705000" lon="-2.578540000">
        <ele>455.30</ele>
        <time>2017-02-11T08:40:26Z</time>
      </trkpt>
      <trkpt lat="42.471702000" lon="-2.578541000">
        <ele>455.30</ele>
        <time>2017-02-11T08:40:27Z</time>
      </trkpt>
      <trkpt lat="42.471704000" lon="-2.578539000">
        <ele>455.20</ele>
        <time>2017-02-11T08:40:28Z</time>
      </trkpt>
      <trkpt lat="42.471703000" lon="-2.578540000">
        <ele>455.30</ele>
        <time>2017-02-11T08:40:29Z</time>
      </trkpt>
      <trkpt lat="42.471705000" lon="-2.578541000">
        <ele>455.30</ele>
        <time>2017-02-11T08:40:30Z</time>
      </trkpt>
      <trkpt lat="42.471707000" lon="-2.578543000">
        <ele>455.40</ele>
        <time>2017-02-11T08:40:31Z</time>
      </trkpt>
      <trkpt lat="42.471709000" lon="-2.578547000">
        <ele>455.50</ele>
        <time>2017-02-11T08:40:32Z</time>
      </trkpt>
      <trkpt lat="42.471719000" lon="-2.578553000">
        <ele>455.90</ele>
        <time>2017-02-11T08:40:33Z</time>
      </trkpt>
      <trkpt lat="42.471723000" lon="-2.578551000">
        <ele>456.10</ele>
        <time>2017-02-11T08:40:34Z</time>
      </trkpt>
      <trkpt lat="42.471725000" lon="-2.578551000">
        <ele>456.30</ele>
        <time>2017-02-11T08:40:35Z</time>
      </trkpt>
      <trkpt lat="42.471725000" lon="-2.578551000">
        <ele>456.50</ele>
        <time>2017-02-11T08:40:36Z</time>
      </trkpt>
      <trkpt lat="42.471726000" lon="-2.578549000">
        <ele>456.20</ele>
        <time>2017-02-11T08:40:37Z</time>
      </trkpt>
      <trkpt lat="42.471726000" lon="-2.578542000">
        <ele>456.00</ele>
        <time>2017-02-11T08:40:38Z</time>
      </trkpt>
      <trkpt lat="42.471724000" lon="-2.578538000">
        <ele>455.90</ele>
        <time>2017-02-11T08:40:39Z</time>
      </trkpt>
      <trkpt lat="42.471724000" lon="-2.578538000">
        <ele>455.80</ele>
        <time>2017-02-11T08:40:40Z</time>
      </trkpt>
      <trkpt lat="42.471727000" lon="-2.578538000">
        <ele>455.80</ele>
        <time>2017-02-11T08:40:41Z</time>
      </trkpt>
      <trkpt lat="42.471728000" lon="-2.578542000">
        <ele>455.80</ele>
        <time>2017-02-11T08:40:42Z</time>
      </trkpt>
      <trkpt lat="42.471732000" lon="-2.578543000">
        <ele>455.90</ele>
        <time>2017-02-11T08:40:43Z</time>
      </trkpt>
      <trkpt lat="42.471736000" lon="-2.578545000">
        <ele>455.90</ele>
        <time>2017-02-11T08:40:44Z</time>
      </trkpt>
      <trkpt lat="42.471740000" lon="-2.578547000">
        <ele>455.80</ele>
        <time>2017-02-11T08:40:45Z</time>
      </trkpt>
      <trkpt lat="42.471741000" lon="-2.578547000">
        <ele>455.80</ele>
        <time>2017-02-11T08:40:46Z</time>
      </trkpt>
      <trkpt lat="42.471742000" lon="-2.578545000">
        <ele>455.70</ele>
        <time>2017-02-11T08:40:47Z</time>
      </trkpt>
      <trkpt lat="42.471743000" lon="-2.578546000">
        <ele>455.70</ele>
        <time>2017-02-11T08:40:48Z</time>
      </trkpt>
      <trkpt lat="42.471744000" lon="-2.578548000">
        <ele>455.60</ele>
        <time>2017-02-11T08:40:49Z</time>
      </trkpt>
      <trkpt lat="42.471747000" lon="-2.578550000">
        <ele>455.60</ele>
        <time>2017-02-11T08:40:50Z</time>
      </trkpt>
      <trkpt lat="42.471746000" lon="-2.578548000">
        <ele>455.70</ele>
        <time>2017-02-11T08:40:51Z</time>
      </trkpt>
      <trkpt lat="42.471745000" lon="-2.578544000">
        <ele>455.70</ele>
        <time>2017-02-11T08:40:52Z</time>
      </trkpt>
      <trkpt lat="42.471743000" lon="-2.578544000">
        <ele>455.80</ele>
        <time>2017-02-11T08:40:53Z</time>
      </trkpt>
      <trkpt lat="42.471741000" lon="-2.578543000">
        <ele>455.80</ele>
        <time>2017-02-11T08:40:54Z</time>
      </trkpt>
      <trkpt lat="42.471741000" lon="-2.578545000">
        <ele>455.70</ele>
        <time>2017-02-11T08:40:55Z</time>
      </trkpt>
      <trkpt lat="42.471740000" lon="-2.578549000">
        <ele>455.60</ele>
        <time>2017-02-11T08:40:56Z</time>
      </trkpt>
      <trkpt lat="42.471737000" lon="-2.578551000">
        <ele>455.60</ele>
        <time>2017-02-11T08:40:57Z</time>
      </trkpt>
      <trkpt lat="42.471738000" lon="-2.578551000">
        <ele>455.50</ele>
        <time>2017-02-11T08:40:58Z</time>
      </trkpt>
      <trkpt lat="42.471739000" lon="-2.578549000">
        <ele>455.50</ele>
        <time>2017-02-11T08:40:59Z</time>
      </trkpt>
      <trkpt lat="42.471740000" lon="-2.578549000">
        <ele>455.50</ele>
        <time>2017-02-11T08:41:00Z</time>
      </trkpt>
      <trkpt lat="42.471740000" lon="-2.578547000">
        <ele>455.40</ele>
        <time>2017-02-11T08:41:01Z</time>
      </trkpt>
      <trkpt lat="42.471739000" lon="-2.578546000">
        <ele>455.40</ele>
        <time>2017-02-11T08:41:02Z</time>
      </trkpt>
      <trkpt lat="42.471738000" lon="-2.578544000">
        <ele>455.30</ele>
        <time>2017-02-11T08:41:03Z</time>
      </trkpt>
      <trkpt lat="42.471737000" lon="-2.578546000">
        <ele>455.20</ele>
        <time>2017-02-11T08:41:05Z</time>
      </trkpt>
      <trkpt lat="42.471737000" lon="-2.578551000">
        <ele>455.10</ele>
        <time>2017-02-11T08:41:06Z</time>
      </trkpt>
      <trkpt lat="42.471736000" lon="-2.578552000">
        <ele>455.00</ele>
        <time>2017-02-11T08:41:07Z</time>
      </trkpt>
      <trkpt lat="42.471737000" lon="-2.578558000">
        <ele>455.00</ele>
        <time>2017-02-11T08:41:08Z</time>
      </trkpt>
      <trkpt lat="42.471738000" lon="-2.578557000">
        <ele>455.00</ele>
        <time>2017-02-11T08:41:09Z</time>
      </trkpt>
      <trkpt lat="42.471738000" lon="-2.578558000">
        <ele>455.00</ele>
        <time>2017-02-11T08:41:10Z</time>
      </trkpt>
      <trkpt lat="42.471738000" lon="-2.578559000">
        <ele>455.10</ele>
        <time>2017-02-11T08:41:11Z</time>
      </trkpt>
      <trkpt lat="42.471740000" lon="-2.578556000">
        <ele>455.10</ele>
        <time>2017-02-11T08:41:12Z</time>
      </trkpt>
      <trkpt lat="42.471739000" lon="-2.578554000">
        <ele>455.10</ele>
        <time>2017-02-11T08:41:13Z</time>
      </trkpt>
      <trkpt lat="42.471738000" lon="-2.578557000">
        <ele>455.10</ele>
        <time>2017-02-11T08:41:14Z</time>
      </trkpt>
      <trkpt lat="42.471737000" lon="-2.578562000">
        <ele>455.00</ele>
        <time>2017-02-11T08:41:15Z</time>
      </trkpt>
      <trkpt lat="42.471736000" lon="-2.578559000">
        <ele>454.90</ele>
        <time>2017-02-11T08:41:16Z</time>
      </trkpt>
      <trkpt lat="42.471734000" lon="-2.578551000">
        <ele>454.90</ele>
        <time>2017-02-11T08:41:17Z</time>
      </trkpt>
      <trkpt lat="42.471733000" lon="-2.578544000">
        <ele>454.90</ele>
        <time>2017-02-11T08:41:18Z</time>
      </trkpt>
      <trkpt lat="42.471731000" lon="-2.578542000">
        <ele>454.90</ele>
        <time>2017-02-11T08:41:19Z</time>
      </trkpt>
      <trkpt lat="42.471730000" lon="-2.578537000">
        <ele>454.90</ele>
        <time>2017-02-11T08:41:20Z</time>
      </trkpt>
      <trkpt lat="42.471731000" lon="-2.578534000">
        <ele>454.90</ele>
        <time>2017-02-11T08:41:21Z</time>
      </trkpt>
      <trkpt lat="42.471732000" lon="-2.578534000">
        <ele>454.90</ele>
        <time>2017-02-11T08:41:22Z</time>
      </trkpt>
      <trkpt lat="42.471731000" lon="-2.578535000">
        <ele>454.80</ele>
        <time>2017-02-11T08:41:23Z</time>
      </trkpt>
      <trkpt lat="42.471732000" lon="-2.578538000">
        <ele>454.70</ele>
        <time>2017-02-11T08:41:24Z</time>
      </trkpt>
      <trkpt lat="42.471732000" lon="-2.578541000">
        <ele>454.70</ele>
        <time>2017-02-11T08:41:25Z</time>
      </trkpt>
      <trkpt lat="42.471733000" lon="-2.578541000">
        <ele>454.70</ele>
        <time>2017-02-11T08:41:26Z</time>
      </trkpt>
      <trkpt lat="42.471732000" lon="-2.578542000">
        <ele>454.70</ele>
        <time>2017-02-11T08:41:27Z</time>
      </trkpt>
      <trkpt lat="42.471733000" lon="-2.578539000">
        <ele>454.70</ele>
        <time>2017-02-11T08:41:28Z</time>
      </trkpt>
      <trkpt lat="42.471733000" lon="-2.578537000">
        <ele>454.80</ele>
        <time>2017-02-11T08:41:29Z</time>
      </trkpt>
      <trkpt lat="42.471734000" lon="-2.578538000">
        <ele>454.90</ele>
        <time>2017-02-11T08:41:30Z</time>
      </trkpt>
      <trkpt lat="42.471737000" lon="-2.578538000">
        <ele>454.90</ele>
        <time>2017-02-11T08:41:31Z</time>
      </trkpt>
      <trkpt lat="42.471739000" lon="-2.578538000">
        <ele>454.90</ele>
        <time>2017-02-11T08:41:32Z</time>
      </trkpt>
      <trkpt lat="42.471740000" lon="-2.578539000">
        <ele>454.90</ele>
        <time>2017-02-11T08:41:33Z</time>
      </trkpt>
      <trkpt lat="42.471740000" lon="-2.578540000">
        <ele>454.90</ele>
        <time>2017-02-11T08:41:34Z</time>
      </trkpt>
      <trkpt lat="42.471738000" lon="-2.578541000">
        <ele>454.60</ele>
        <time>2017-02-11T08:41:35Z</time>
      </trkpt>
      <trkpt lat="42.471734000" lon="-2.578542000">
        <ele>454.50</ele>
        <time>2017-02-11T08:41:36Z</time>
      </trkpt>
      <trkpt lat="42.471733000" lon="-2.578541000">
        <ele>454.40</ele>
        <time>2017-02-11T08:41:37Z</time>
      </trkpt>
      <trkpt lat="42.471730000" lon="-2.578541000">
        <ele>454.30</ele>
        <time>2017-02-11T08:41:38Z</time>
      </trkpt>
      <trkpt lat="42.471730000" lon="-2.578543000">
        <ele>454.20</ele>
        <time>2017-02-11T08:41:39Z</time>
      </trkpt>
      <trkpt lat="42.471729000" lon="-2.578544000">
        <ele>454.10</ele>
        <time>2017-02-11T08:41:40Z</time>
      </trkpt>
      <trkpt lat="42.471730000" lon="-2.578547000">
        <ele>454.20</ele>
        <time>2017-02-11T08:41:41Z</time>
      </trkpt>
      <trkpt lat="42.471731000" lon="-2.578544000">
        <ele>454.30</ele>
        <time>2017-02-11T08:41:42Z</time>
      </trkpt>
      <trkpt lat="42.471732000" lon="-2.578548000">
        <ele>454.40</ele>
        <time>2017-02-11T08:41:43Z</time>
      </trkpt>
      <trkpt lat="42.471732000" lon="-2.578547000">
        <ele>454.40</ele>
        <time>2017-02-11T08:41:44Z</time>
      </trkpt>
      <trkpt lat="42.471733000" lon="-2.578548000">
        <ele>454.40</ele>
        <time>2017-02-11T08:41:45Z</time>
      </trkpt>
      <trkpt lat="42.471734000" lon="-2.578550000">
        <ele>454.40</ele>
        <time>2017-02-11T08:41:46Z</time>
      </trkpt>
      <trkpt lat="42.471732000" lon="-2.578549000">
        <ele>454.40</ele>
        <time>2017-02-11T08:41:47Z</time>
      </trkpt>
      <trkpt lat="42.471731000" lon="-2.578549000">
        <ele>454.40</ele>
        <time>2017-02-11T08:41:48Z</time>
      </trkpt>
      <trkpt lat="42.471731000" lon="-2.578553000">
        <ele>454.40</ele>
        <time>2017-02-11T08:41:49Z</time>
      </trkpt>
      <trkpt lat="42.471731000" lon="-2.578555000">
        <ele>454.40</ele>
        <time>2017-02-11T08:41:50Z</time>
      </trkpt>
      <trkpt lat="42.471729000" lon="-2.578555000">
        <ele>454.40</ele>
        <time>2017-02-11T08:41:51Z</time>
      </trkpt>
      <trkpt lat="42.471725000" lon="-2.578549000">
        <ele>454.30</ele>
        <time>2017-02-11T08:41:52Z</time>
      </trkpt>
      <trkpt lat="42.471723000" lon="-2.578550000">
        <ele>454.40</ele>
        <time>2017-02-11T08:41:53Z</time>
      </trkpt>
      <trkpt lat="42.471718000" lon="-2.578543000">
        <ele>454.40</ele>
        <time>2017-02-11T08:41:54Z</time>
      </trkpt>
      <trkpt lat="42.471716000" lon="-2.578542000">
        <ele>454.40</ele>
        <time>2017-02-11T08:41:55Z</time>
      </trkpt>
      <trkpt lat="42.471715000" lon="-2.578541000">
        <ele>454.30</ele>
        <time>2017-02-11T08:41:56Z</time>
      </trkpt>
      <trkpt lat="42.471715000" lon="-2.578544000">
        <ele>454.40</ele>
        <time>2017-02-11T08:41:57Z</time>
      </trkpt>
      <trkpt lat="42.471718000" lon="-2.578546000">
        <ele>454.40</ele>
        <time>2017-02-11T08:41:58Z</time>
      </trkpt>
      <trkpt lat="42.471723000" lon="-2.578551000">
        <ele>454.40</ele>
        <time>2017-02-11T08:41:59Z</time>
      </trkpt>
      <trkpt lat="42.471726000" lon="-2.578551000">
        <ele>454.40</ele>
        <time>2017-02-11T08:42:00Z</time>
      </trkpt>
      <trkpt lat="42.471728000" lon="-2.578552000">
        <ele>454.50</ele>
        <time>2017-02-11T08:42:01Z</time>
      </trkpt>
      <trkpt lat="42.471730000" lon="-2.578553000">
        <ele>454.50</ele>
        <time>2017-02-11T08:42:02Z</time>
      </trkpt>
      <trkpt lat="42.471731000" lon="-2.578553000">
        <ele>454.60</ele>
        <time>2017-02-11T08:42:03Z</time>
      </trkpt>
      <trkpt lat="42.471732000" lon="-2.578551000">
        <ele>454.60</ele>
        <time>2017-02-11T08:42:04Z</time>
      </trkpt>
      <trkpt lat="42.471725000" lon="-2.578551000">
        <ele>454.60</ele>
        <time>2017-02-11T08:42:06Z</time>
      </trkpt>
      <trkpt lat="42.471724000" lon="-2.578548000">
        <ele>454.60</ele>
        <time>2017-02-11T08:42:07Z</time>
      </trkpt>
      <trkpt lat="42.471725000" lon="-2.578545000">
        <ele>454.70</ele>
        <time>2017-02-11T08:42:08Z</time>
      </trkpt>
      <trkpt lat="42.471727000" lon="-2.578546000">
        <ele>454.70</ele>
        <time>2017-02-11T08:42:09Z</time>
      </trkpt>
      <trkpt lat="42.471728000" lon="-2.578541000">
        <ele>454.70</ele>
        <time>2017-02-11T08:42:10Z</time>
      </trkpt>
      <trkpt lat="42.471730000" lon="-2.578541000">
        <ele>454.90</ele>
        <time>2017-02-11T08:42:11Z</time>
      </trkpt>
      <trkpt lat="42.471730000" lon="-2.578542000">
        <ele>455.00</ele>
        <time>2017-02-11T08:42:12Z</time>
      </trkpt>
      <trkpt lat="42.471730000" lon="-2.578543000">
        <ele>455.20</ele>
        <time>2017-02-11T08:42:13Z</time>
      </trkpt>
      <trkpt lat="42.471729000" lon="-2.578542000">
        <ele>455.30</ele>
        <time>2017-02-11T08:42:14Z</time>
      </trkpt>
      <trkpt lat="42.471728000" lon="-2.578543000">
        <ele>455.40</ele>
        <time>2017-02-11T08:42:15Z</time>
      </trkpt>
      <trkpt lat="42.471725000" lon="-2.578544000">
        <ele>455.50</ele>
        <time>2017-02-11T08:42:16Z</time>
      </trkpt>
      <trkpt lat="42.471722000" lon="-2.578542000">
        <ele>455.50</ele>
        <time>2017-02-11T08:42:17Z</time>
      </trkpt>
      <trkpt lat="42.471722000" lon="-2.578542000">
        <ele>455.50</ele>
        <time>2017-02-11T08:42:18Z</time>
      </trkpt>
      <trkpt lat="42.471724000" lon="-2.578545000">
        <ele>455.30</ele>
        <time>2017-02-11T08:42:19Z</time>
      </trkpt>
      <trkpt lat="42.471723000" lon="-2.578545000">
        <ele>455.10</ele>
        <time>2017-02-11T08:42:20Z</time>
      </trkpt>
      <trkpt lat="42.471726000" lon="-2.578544000">
        <ele>455.20</ele>
        <time>2017-02-11T08:42:21Z</time>
      </trkpt>
      <trkpt lat="42.471728000" lon="-2.578541000">
        <ele>455.30</ele>
        <time>2017-02-11T08:42:22Z</time>
      </trkpt>
      <trkpt lat="42.471730000" lon="-2.578542000">
        <ele>455.30</ele>
        <time>2017-02-11T08:42:23Z</time>
      </trkpt>
      <trkpt lat="42.471730000" lon="-2.578545000">
        <ele>455.20</ele>
        <time>2017-02-11T08:42:24Z</time>
      </trkpt>
      <trkpt lat="42.471731000" lon="-2.578547000">
        <ele>455.20</ele>
        <time>2017-02-11T08:42:25Z</time>
      </trkpt>
      <trkpt lat="42.471730000" lon="-2.578545000">
        <ele>455.20</ele>
        <time>2017-02-11T08:42:26Z</time>
      </trkpt>
      <trkpt lat="42.471730000" lon="-2.578544000">
        <ele>455.10</ele>
        <time>2017-02-11T08:42:27Z</time>
      </trkpt>
      <trkpt lat="42.471730000" lon="-2.578543000">
        <ele>455.00</ele>
        <time>2017-02-11T08:42:28Z</time>
      </trkpt>
      <trkpt lat="42.471731000" lon="-2.578541000">
        <ele>454.90</ele>
        <time>2017-02-11T08:42:29Z</time>
      </trkpt>
      <trkpt lat="42.471733000" lon="-2.578543000">
        <ele>454.90</ele>
        <time>2017-02-11T08:42:30Z</time>
      </trkpt>
      <trkpt lat="42.471734000" lon="-2.578545000">
        <ele>454.80</ele>
        <time>2017-02-11T08:42:31Z</time>
      </trkpt>
      <trkpt lat="42.471734000" lon="-2.578544000">
        <ele>454.80</ele>
        <time>2017-02-11T08:42:32Z</time>
      </trkpt>
      <trkpt lat="42.471735000" lon="-2.578541000">
        <ele>454.80</ele>
        <time>2017-02-11T08:42:33Z</time>
      </trkpt>
      <trkpt lat="42.471736000" lon="-2.578544000">
        <ele>454.70</ele>
        <time>2017-02-11T08:42:34Z</time>
      </trkpt>
      <trkpt lat="42.471738000" lon="-2.578545000">
        <ele>454.80</ele>
        <time>2017-02-11T08:42:35Z</time>
      </trkpt>
      <trkpt lat="42.471740000" lon="-2.578546000">
        <ele>454.90</ele>
        <time>2017-02-11T08:42:36Z</time>
      </trkpt>
      <trkpt lat="42.471742000" lon="-2.578548000">
        <ele>454.80</ele>
        <time>2017-02-11T08:42:37Z</time>
      </trkpt>
      <trkpt lat="42.471742000" lon="-2.578550000">
        <ele>454.70</ele>
        <time>2017-02-11T08:42:38Z</time>
      </trkpt>
      <trkpt lat="42.471743000" lon="-2.578550000">
        <ele>454.80</ele>
        <time>2017-02-11T08:42:39Z</time>
      </trkpt>
      <trkpt lat="42.471743000" lon="-2.578553000">
        <ele>454.90</ele>
        <time>2017-02-11T08:42:40Z</time>
      </trkpt>
      <trkpt lat="42.471743000" lon="-2.578549000">
        <ele>454.80</ele>
        <time>2017-02-11T08:42:41Z</time>
      </trkpt>
      <trkpt lat="42.471742000" lon="-2.578548000">
        <ele>454.80</ele>
        <time>2017-02-11T08:42:42Z</time>
      </trkpt>
      <trkpt lat="42.471741000" lon="-2.578548000">
        <ele>454.70</ele>
        <time>2017-02-11T08:42:43Z</time>
      </trkpt>
      <trkpt lat="42.471737000" lon="-2.578548000">
        <ele>454.70</ele>
        <time>2017-02-11T08:42:44Z</time>
      </trkpt>
      <trkpt lat="42.471733000" lon="-2.578542000">
        <ele>454.70</ele>
        <time>2017-02-11T08:42:45Z</time>
      </trkpt>
      <trkpt lat="42.471731000" lon="-2.578539000">
        <ele>454.60</ele>
        <time>2017-02-11T08:42:46Z</time>
      </trkpt>
      <trkpt lat="42.471732000" lon="-2.578537000">
        <ele>454.60</ele>
        <time>2017-02-11T08:42:47Z</time>
      </trkpt>
      <trkpt lat="42.471733000" lon="-2.578537000">
        <ele>454.50</ele>
        <time>2017-02-11T08:42:48Z</time>
      </trkpt>
      <trkpt lat="42.471738000" lon="-2.578544000">
        <ele>454.50</ele>
        <time>2017-02-11T08:42:49Z</time>
      </trkpt>
      <trkpt lat="42.471737000" lon="-2.578545000">
        <ele>454.50</ele>
        <time>2017-02-11T08:42:50Z</time>
      </trkpt>
      <trkpt lat="42.471738000" lon="-2.578547000">
        <ele>454.60</ele>
        <time>2017-02-11T08:42:51Z</time>
      </trkpt>
      <trkpt lat="42.471738000" lon="-2.578550000">
        <ele>454.60</ele>
        <time>2017-02-11T08:42:52Z</time>
      </trkpt>
      <trkpt lat="42.471737000" lon="-2.578551000">
        <ele>454.60</ele>
        <time>2017-02-11T08:42:53Z</time>
      </trkpt>
      <trkpt lat="42.471730000" lon="-2.578548000">
        <ele>454.60</ele>
        <time>2017-02-11T08:42:54Z</time>
      </trkpt>
      <trkpt lat="42.471726000" lon="-2.578545000">
        <ele>454.60</ele>
        <time>2017-02-11T08:42:55Z</time>
      </trkpt>
      <trkpt lat="42.471720000" lon="-2.578537000">
        <ele>454.60</ele>
        <time>2017-02-11T08:42:56Z</time>
      </trkpt>
      <trkpt lat="42.471722000" lon="-2.578529000">
        <ele>454.50</ele>
        <time>2017-02-11T08:42:57Z</time>
      </trkpt>
      <trkpt lat="42.471719000" lon="-2.578527000">
        <ele>454.40</ele>
        <time>2017-02-11T08:42:58Z</time>
      </trkpt>
      <trkpt lat="42.471717000" lon="-2.578528000">
        <ele>454.30</ele>
        <time>2017-02-11T08:42:59Z</time>
      </trkpt>
      <trkpt lat="42.471716000" lon="-2.578524000">
        <ele>454.20</ele>
        <time>2017-02-11T08:43:00Z</time>
      </trkpt>
      <trkpt lat="42.471717000" lon="-2.578522000">
        <ele>454.20</ele>
        <time>2017-02-11T08:43:01Z</time>
      </trkpt>
      <trkpt lat="42.471718000" lon="-2.578525000">
        <ele>454.20</ele>
        <time>2017-02-11T08:43:02Z</time>
      </trkpt>
      <trkpt lat="42.471721000" lon="-2.578524000">
        <ele>454.00</ele>
        <time>2017-02-11T08:43:03Z</time>
      </trkpt>
      <trkpt lat="42.471722000" lon="-2.578523000">
        <ele>453.90</ele>
        <time>2017-02-11T08:43:04Z</time>
      </trkpt>
      <trkpt lat="42.471722000" lon="-2.578520000">
        <ele>453.80</ele>
        <time>2017-02-11T08:43:05Z</time>
      </trkpt>
      <trkpt lat="42.471718000" lon="-2.578515000">
        <ele>453.70</ele>
        <time>2017-02-11T08:43:07Z</time>
      </trkpt>
      <trkpt lat="42.471716000" lon="-2.578513000">
        <ele>453.70</ele>
        <time>2017-02-11T08:43:08Z</time>
      </trkpt>
      <trkpt lat="42.471712000" lon="-2.578510000">
        <ele>453.60</ele>
        <time>2017-02-11T08:43:09Z</time>
      </trkpt>
      <trkpt lat="42.471709000" lon="-2.578511000">
        <ele>453.60</ele>
        <time>2017-02-11T08:43:10Z</time>
      </trkpt>
      <trkpt lat="42.471707000" lon="-2.578513000">
        <ele>453.60</ele>
        <time>2017-02-11T08:43:11Z</time>
      </trkpt>
      <trkpt lat="42.471703000" lon="-2.578512000">
        <ele>453.60</ele>
        <time>2017-02-11T08:43:12Z</time>
      </trkpt>
      <trkpt lat="42.471703000" lon="-2.578511000">
        <ele>453.60</ele>
        <time>2017-02-11T08:43:13Z</time>
      </trkpt>
      <trkpt lat="42.471704000" lon="-2.578511000">
        <ele>453.60</ele>
        <time>2017-02-11T08:43:14Z</time>
      </trkpt>
      <trkpt lat="42.471704000" lon="-2.578510000">
        <ele>453.60</ele>
        <time>2017-02-11T08:43:15Z</time>
      </trkpt>
      <trkpt lat="42.471703000" lon="-2.578511000">
        <ele>453.60</ele>
        <time>2017-02-11T08:43:16Z</time>
      </trkpt>
      <trkpt lat="42.471704000" lon="-2.578514000">
        <ele>453.60</ele>
        <time>2017-02-11T08:43:17Z</time>
      </trkpt>
      <trkpt lat="42.471701000" lon="-2.578514000">
        <ele>453.60</ele>
        <time>2017-02-11T08:43:18Z</time>
      </trkpt>
      <trkpt lat="42.471699000" lon="-2.578516000">
        <ele>453.60</ele>
        <time>2017-02-11T08:43:19Z</time>
      </trkpt>
      <trkpt lat="42.471697000" lon="-2.578520000">
        <ele>453.60</ele>
        <time>2017-02-11T08:43:20Z</time>
      </trkpt>
      <trkpt lat="42.471693000" lon="-2.578525000">
        <ele>453.60</ele>
        <time>2017-02-11T08:43:21Z</time>
      </trkpt>
      <trkpt lat="42.471690000" lon="-2.578527000">
        <ele>453.70</ele>
        <time>2017-02-11T08:43:22Z</time>
      </trkpt>
      <trkpt lat="42.471688000" lon="-2.578529000">
        <ele>453.80</ele>
        <time>2017-02-11T08:43:23Z</time>
      </trkpt>
      <trkpt lat="42.471688000" lon="-2.578529000">
        <ele>453.80</ele>
        <time>2017-02-11T08:43:24Z</time>
      </trkpt>
      <trkpt lat="42.471689000" lon="-2.578527000">
        <ele>453.80</ele>
        <time>2017-02-11T08:43:25Z</time>
      </trkpt>
      <trkpt lat="42.471691000" lon="-2.578527000">
        <ele>453.80</ele>
        <time>2017-02-11T08:43:26Z</time>
      </trkpt>
      <trkpt lat="42.471692000" lon="-2.578524000">
        <ele>453.80</ele>
        <time>2017-02-11T08:43:27Z</time>
      </trkpt>
      <trkpt lat="42.471691000" lon="-2.578522000">
        <ele>453.80</ele>
        <time>2017-02-11T08:43:28Z</time>
      </trkpt>
      <trkpt lat="42.471691000" lon="-2.578523000">
        <ele>453.80</ele>
        <time>2017-02-11T08:43:29Z</time>
      </trkpt>
      <trkpt lat="42.471692000" lon="-2.578523000">
        <ele>453.80</ele>
        <time>2017-02-11T08:43:30Z</time>
      </trkpt>
      <trkpt lat="42.471693000" lon="-2.578523000">
        <ele>453.80</ele>
        <time>2017-02-11T08:43:31Z</time>
      </trkpt>
      <trkpt lat="42.471693000" lon="-2.578527000">
        <ele>453.80</ele>
        <time>2017-02-11T08:43:32Z</time>
      </trkpt>
      <trkpt lat="42.471694000" lon="-2.578532000">
        <ele>453.90</ele>
        <time>2017-02-11T08:43:33Z</time>
      </trkpt>
      <trkpt lat="42.471693000" lon="-2.578536000">
        <ele>453.90</ele>
        <time>2017-02-11T08:43:34Z</time>
      </trkpt>
      <trkpt lat="42.471696000" lon="-2.578539000">
        <ele>454.00</ele>
        <time>2017-02-11T08:43:35Z</time>
      </trkpt>
      <trkpt lat="42.471696000" lon="-2.578541000">
        <ele>454.00</ele>
        <time>2017-02-11T08:43:36Z</time>
      </trkpt>
      <trkpt lat="42.471696000" lon="-2.578542000">
        <ele>454.10</ele>
        <time>2017-02-11T08:43:37Z</time>
      </trkpt>
      <trkpt lat="42.471694000" lon="-2.578542000">
        <ele>454.30</ele>
        <time>2017-02-11T08:43:38Z</time>
      </trkpt>
      <trkpt lat="42.471693000" lon="-2.578542000">
        <ele>454.40</ele>
        <time>2017-02-11T08:43:39Z</time>
      </trkpt>
      <trkpt lat="42.471692000" lon="-2.578542000">
        <ele>454.50</ele>
        <time>2017-02-11T08:43:40Z</time>
      </trkpt>
      <trkpt lat="42.471692000" lon="-2.578540000">
        <ele>454.60</ele>
        <time>2017-02-11T08:43:41Z</time>
      </trkpt>
      <trkpt lat="42.471691000" lon="-2.578538000">
        <ele>454.70</ele>
        <time>2017-02-11T08:43:42Z</time>
      </trkpt>
      <trkpt lat="42.471690000" lon="-2.578536000">
        <ele>454.70</ele>
        <time>2017-02-11T08:43:43Z</time>
      </trkpt>
      <trkpt lat="42.471689000" lon="-2.578534000">
        <ele>454.70</ele>
        <time>2017-02-11T08:43:44Z</time>
      </trkpt>
      <trkpt lat="42.471688000" lon="-2.578533000">
        <ele>454.60</ele>
        <time>2017-02-11T08:43:45Z</time>
      </trkpt>
      <trkpt lat="42.471687000" lon="-2.578534000">
        <ele>454.50</ele>
        <time>2017-02-11T08:43:46Z</time>
      </trkpt>
      <trkpt lat="42.471689000" lon="-2.578533000">
        <ele>454.40</ele>
        <time>2017-02-11T08:43:47Z</time>
      </trkpt>
      <trkpt lat="42.471689000" lon="-2.578533000">
        <ele>454.20</ele>
        <time>2017-02-11T08:43:48Z</time>
      </trkpt>
      <trkpt lat="42.471692000" lon="-2.578529000">
        <ele>454.10</ele>
        <time>2017-02-11T08:43:49Z</time>
      </trkpt>
      <trkpt lat="42.471692000" lon="-2.578529000">
        <ele>454.00</ele>
        <time>2017-02-11T08:43:50Z</time>
      </trkpt>
      <trkpt lat="42.471691000" lon="-2.578526000">
        <ele>454.00</ele>
        <time>2017-02-11T08:43:51Z</time>
      </trkpt>
      <trkpt lat="42.471691000" lon="-2.578522000">
        <ele>453.90</ele>
        <time>2017-02-11T08:43:52Z</time>
      </trkpt>
      <trkpt lat="42.471690000" lon="-2.578521000">
        <ele>453.80</ele>
        <time>2017-02-11T08:43:53Z</time>
      </trkpt>
      <trkpt lat="42.471692000" lon="-2.578521000">
        <ele>453.80</ele>
        <time>2017-02-11T08:43:54Z</time>
      </trkpt>
      <trkpt lat="42.471695000" lon="-2.578523000">
        <ele>453.50</ele>
        <time>2017-02-11T08:43:55Z</time>
      </trkpt>
      <trkpt lat="42.471699000" lon="-2.578519000">
        <ele>453.30</ele>
        <time>2017-02-11T08:43:56Z</time>
      </trkpt>
      <trkpt lat="42.471702000" lon="-2.578511000">
        <ele>453.20</ele>
        <time>2017-02-11T08:43:57Z</time>
      </trkpt>
      <trkpt lat="42.471699000" lon="-2.578496000">
        <ele>453.10</ele>
        <time>2017-02-11T08:43:58Z</time>
      </trkpt>
      <trkpt lat="42.471699000" lon="-2.578485000">
        <ele>453.20</ele>
        <time>2017-02-11T08:43:59Z</time>
      </trkpt>
      <trkpt lat="42.471697000" lon="-2.578471000">
        <ele>453.40</ele>
        <time>2017-02-11T08:44:00Z</time>
      </trkpt>
      <trkpt lat="42.471697000" lon="-2.578457000">
        <ele>453.80</ele>
        <time>2017-02-11T08:44:01Z</time>
      </trkpt>
      <trkpt lat="42.471697000" lon="-2.578444000">
        <ele>454.20</ele>
        <time>2017-02-11T08:44:02Z</time>
      </trkpt>
      <trkpt lat="42.471701000" lon="-2.578437000">
        <ele>454.50</ele>
        <time>2017-02-11T08:44:03Z</time>
      </trkpt>
      <trkpt lat="42.471704000" lon="-2.578438000">
        <ele>454.80</ele>
        <time>2017-02-11T08:44:04Z</time>
      </trkpt>
      <trkpt lat="42.471707000" lon="-2.578439000">
        <ele>454.90</ele>
        <time>2017-02-11T08:44:05Z</time>
      </trkpt>
      <trkpt lat="42.471707000" lon="-2.578433000">
        <ele>455.00</ele>
        <time>2017-02-11T08:44:06Z</time>
      </trkpt>
      <trkpt lat="42.471707000" lon="-2.578435000">
        <ele>454.70</ele>
        <time>2017-02-11T08:44:08Z</time>
      </trkpt>
      <trkpt lat="42.471707000" lon="-2.578435000">
        <ele>454.50</ele>
        <time>2017-02-11T08:44:09Z</time>
      </trkpt>
      <trkpt lat="42.471704000" lon="-2.578433000">
        <ele>454.40</ele>
        <time>2017-02-11T08:44:10Z</time>
      </trkpt>
      <trkpt lat="42.471704000" lon="-2.578423000">
        <ele>454.30</ele>
        <time>2017-02-11T08:44:11Z</time>
      </trkpt>
      <trkpt lat="42.471704000" lon="-2.578410000">
        <ele>454.20</ele>
        <time>2017-02-11T08:44:12Z</time>
      </trkpt>
      <trkpt lat="42.471705000" lon="-2.578398000">
        <ele>454.30</ele>
        <time>2017-02-11T08:44:13Z</time>
      </trkpt>
      <trkpt lat="42.471704000" lon="-2.578384000">
        <ele>454.40</ele>
        <time>2017-02-11T08:44:14Z</time>
      </trkpt>
      <trkpt lat="42.471704000" lon="-2.578363000">
        <ele>454.50</ele>
        <time>2017-02-11T08:44:15Z</time>
      </trkpt>
      <trkpt lat="42.471704000" lon="-2.578346000">
        <ele>454.60</ele>
        <time>2017-02-11T08:44:16Z</time>
      </trkpt>
      <trkpt lat="42.471702000" lon="-2.578329000">
        <ele>454.80</ele>
        <time>2017-02-11T08:44:17Z</time>
      </trkpt>
      <trkpt lat="42.471700000" lon="-2.578313000">
        <ele>455.00</ele>
        <time>2017-02-11T08:44:18Z</time>
      </trkpt>
      <trkpt lat="42.471700000" lon="-2.578294000">
        <ele>455.40</ele>
        <time>2017-02-11T08:44:19Z</time>
      </trkpt>
      <trkpt lat="42.471699000" lon="-2.578278000">
        <ele>455.70</ele>
        <time>2017-02-11T08:44:20Z</time>
      </trkpt>
      <trkpt lat="42.471699000" lon="-2.578260000">
        <ele>455.90</ele>
        <time>2017-02-11T08:44:21Z</time>
      </trkpt>
      <trkpt lat="42.471697000" lon="-2.578241000">
        <ele>456.10</ele>
        <time>2017-02-11T08:44:22Z</time>
      </trkpt>
      <trkpt lat="42.471694000" lon="-2.578219000">
        <ele>456.20</ele>
        <time>2017-02-11T08:44:23Z</time>
      </trkpt>
      <trkpt lat="42.471692000" lon="-2.578200000">
        <ele>456.30</ele>
        <time>2017-02-11T08:44:24Z</time>
      </trkpt>
      <trkpt lat="42.471690000" lon="-2.578179000">
        <ele>456.40</ele>
        <time>2017-02-11T08:44:25Z</time>
      </trkpt>
      <trkpt lat="42.471691000" lon="-2.578158000">
        <ele>456.40</ele>
        <time>2017-02-11T08:44:26Z</time>
      </trkpt>
      <trkpt lat="42.471696000" lon="-2.578138000">
        <ele>456.40</ele>
        <time>2017-02-11T08:44:27Z</time>
      </trkpt>
      <trkpt lat="42.471696000" lon="-2.578115000">
        <ele>456.40</ele>
        <time>2017-02-11T08:44:28Z</time>
      </trkpt>
      <trkpt lat="42.471695000" lon="-2.578095000">
        <ele>456.40</ele>
        <time>2017-02-11T08:44:29Z</time>
      </trkpt>
      <trkpt lat="42.471696000" lon="-2.578073000">
        <ele>456.50</ele>
        <time>2017-02-11T08:44:30Z</time>
      </trkpt>
      <trkpt lat="42.471695000" lon="-2.578052000">
        <ele>456.50</ele>
        <time>2017-02-11T08:44:31Z</time>
      </trkpt>
      <trkpt lat="42.471697000" lon="-2.578028000">
        <ele>456.50</ele>
        <time>2017-02-11T08:44:32Z</time>
      </trkpt>
      <trkpt lat="42.471699000" lon="-2.578005000">
        <ele>456.50</ele>
        <time>2017-02-11T08:44:33Z</time>
      </trkpt>
      <trkpt lat="42.471702000" lon="-2.577987000">
        <ele>456.60</ele>
        <time>2017-02-11T08:44:34Z</time>
      </trkpt>
      <trkpt lat="42.471701000" lon="-2.577964000">
        <ele>456.70</ele>
        <time>2017-02-11T08:44:35Z</time>
      </trkpt>
      <trkpt lat="42.471701000" lon="-2.577939000">
        <ele>456.80</ele>
        <time>2017-02-11T08:44:36Z</time>
      </trkpt>
      <trkpt lat="42.471701000" lon="-2.577912000">
        <ele>456.80</ele>
        <time>2017-02-11T08:44:37Z</time>
      </trkpt>
      <trkpt lat="42.471700000" lon="-2.577897000">
        <ele>456.90</ele>
        <time>2017-02-11T08:44:38Z</time>
      </trkpt>
      <trkpt lat="42.471702000" lon="-2.577883000">
        <ele>456.90</ele>
        <time>2017-02-11T08:44:39Z</time>
      </trkpt>
      <trkpt lat="42.471704000" lon="-2.577880000">
        <ele>456.90</ele>
        <time>2017-02-11T08:44:40Z</time>
      </trkpt>
      <trkpt lat="42.471700000" lon="-2.577872000">
        <ele>456.80</ele>
        <time>2017-02-11T08:44:41Z</time>
      </trkpt>
      <trkpt lat="42.471700000" lon="-2.577860000">
        <ele>456.60</ele>
        <time>2017-02-11T08:44:42Z</time>
      </trkpt>
      <trkpt lat="42.471704000" lon="-2.577855000">
        <ele>456.50</ele>
        <time>2017-02-11T08:44:43Z</time>
      </trkpt>
      <trkpt lat="42.471704000" lon="-2.577862000">
        <ele>456.40</ele>
        <time>2017-02-11T08:44:44Z</time>
      </trkpt>
      <trkpt lat="42.471713000" lon="-2.577870000">
        <ele>456.20</ele>
        <time>2017-02-11T08:44:45Z</time>
      </trkpt>
      <trkpt lat="42.471719000" lon="-2.577874000">
        <ele>456.10</ele>
        <time>2017-02-11T08:44:46Z</time>
      </trkpt>
      <trkpt lat="42.471723000" lon="-2.577875000">
        <ele>456.00</ele>
        <time>2017-02-11T08:44:47Z</time>
      </trkpt>
      <trkpt lat="42.471725000" lon="-2.577874000">
        <ele>455.90</ele>
        <time>2017-02-11T08:44:48Z</time>
      </trkpt>
      <trkpt lat="42.471725000" lon="-2.577874000">
        <ele>455.80</ele>
        <time>2017-02-11T08:44:49Z</time>
      </trkpt>
      <trkpt lat="42.471727000" lon="-2.577872000">
        <ele>455.70</ele>
        <time>2017-02-11T08:44:50Z</time>
      </trkpt>
      <trkpt lat="42.471727000" lon="-2.577873000">
        <ele>455.70</ele>
        <time>2017-02-11T08:44:51Z</time>
      </trkpt>
      <trkpt lat="42.471727000" lon="-2.577874000">
        <ele>455.60</ele>
        <time>2017-02-11T08:44:52Z</time>
      </trkpt>
      <trkpt lat="42.471726000" lon="-2.577871000">
        <ele>455.80</ele>
        <time>2017-02-11T08:44:53Z</time>
      </trkpt>
      <trkpt lat="42.471725000" lon="-2.577873000">
        <ele>455.80</ele>
        <time>2017-02-11T08:44:54Z</time>
      </trkpt>
      <trkpt lat="42.471717000" lon="-2.577856000">
        <ele>456.00</ele>
        <time>2017-02-11T08:44:55Z</time>
      </trkpt>
      <trkpt lat="42.471716000" lon="-2.577840000">
        <ele>456.10</ele>
        <time>2017-02-11T08:44:56Z</time>
      </trkpt>
      <trkpt lat="42.471717000" lon="-2.577813000">
        <ele>456.10</ele>
        <time>2017-02-11T08:44:57Z</time>
      </trkpt>
      <trkpt lat="42.471718000" lon="-2.577795000">
        <ele>456.20</ele>
        <time>2017-02-11T08:44:58Z</time>
      </trkpt>
      <trkpt lat="42.471717000" lon="-2.577772000">
        <ele>456.30</ele>
        <time>2017-02-11T08:44:59Z</time>
      </trkpt>
      <trkpt lat="42.471714000" lon="-2.577758000">
        <ele>456.40</ele>
        <time>2017-02-11T08:45:00Z</time>
      </trkpt>
      <trkpt lat="42.471711000" lon="-2.577740000">
        <ele>456.40</ele>
        <time>2017-02-11T08:45:01Z</time>
      </trkpt>
      <trkpt lat="42.471716000" lon="-2.577719000">
        <ele>456.50</ele>
        <time>2017-02-11T08:45:02Z</time>
      </trkpt>
      <trkpt lat="42.471718000" lon="-2.577694000">
        <ele>456.60</ele>
        <time>2017-02-11T08:45:03Z</time>
      </trkpt>
      <trkpt lat="42.471723000" lon="-2.577654000">
        <ele>456.70</ele>
        <time>2017-02-11T08:45:04Z</time>
      </trkpt>
      <trkpt lat="42.471726000" lon="-2.577624000">
        <ele>456.80</ele>
        <time>2017-02-11T08:45:05Z</time>
      </trkpt>
      <trkpt lat="42.471726000" lon="-2.577593000">
        <ele>456.90</ele>
        <time>2017-02-11T08:45:06Z</time>
      </trkpt>
      <trkpt lat="42.471725000" lon="-2.577562000">
        <ele>456.70</ele>
        <time>2017-02-11T08:45:07Z</time>
      </trkpt>
      <trkpt lat="42.471728000" lon="-2.577498000">
        <ele>456.20</ele>
        <time>2017-02-11T08:45:09Z</time>
      </trkpt>
      <trkpt lat="42.471733000" lon="-2.577469000">
        <ele>456.00</ele>
        <time>2017-02-11T08:45:10Z</time>
      </trkpt>
      <trkpt lat="42.471739000" lon="-2.577444000">
        <ele>455.80</ele>
        <time>2017-02-11T08:45:11Z</time>
      </trkpt>
      <trkpt lat="42.471742000" lon="-2.577417000">
        <ele>455.70</ele>
        <time>2017-02-11T08:45:12Z</time>
      </trkpt>
      <trkpt lat="42.471746000" lon="-2.577383000">
        <ele>455.60</ele>
        <time>2017-02-11T08:45:13Z</time>
      </trkpt>
      <trkpt lat="42.471749000" lon="-2.577351000">
        <ele>455.50</ele>
        <time>2017-02-11T08:45:14Z</time>
      </trkpt>
      <trkpt lat="42.471751000" lon="-2.577327000">
        <ele>455.50</ele>
        <time>2017-02-11T08:45:15Z</time>
      </trkpt>
      <trkpt lat="42.471751000" lon="-2.577307000">
        <ele>455.40</ele>
        <time>2017-02-11T08:45:16Z</time>
      </trkpt>
      <trkpt lat="42.471753000" lon="-2.577290000">
        <ele>455.40</ele>
        <time>2017-02-11T08:45:17Z</time>
      </trkpt>
      <trkpt lat="42.471758000" lon="-2.577266000">
        <ele>455.40</ele>
        <time>2017-02-11T08:45:18Z</time>
      </trkpt>
      <trkpt lat="42.471764000" lon="-2.577238000">
        <ele>455.30</ele>
        <time>2017-02-11T08:45:19Z</time>
      </trkpt>
      <trkpt lat="42.471773000" lon="-2.577203000">
        <ele>455.30</ele>
        <time>2017-02-11T08:45:20Z</time>
      </trkpt>
      <trkpt lat="42.471785000" lon="-2.577164000">
        <ele>455.30</ele>
        <time>2017-02-11T08:45:21Z</time>
      </trkpt>
      <trkpt lat="42.471796000" lon="-2.577115000">
        <ele>455.30</ele>
        <time>2017-02-11T08:45:22Z</time>
      </trkpt>
      <trkpt lat="42.471806000" lon="-2.577067000">
        <ele>455.30</ele>
        <time>2017-02-11T08:45:23Z</time>
      </trkpt>
      <trkpt lat="42.471819000" lon="-2.577013000">
        <ele>455.30</ele>
        <time>2017-02-11T08:45:24Z</time>
      </trkpt>
      <trkpt lat="42.471832000" lon="-2.576960000">
        <ele>455.00</ele>
        <time>2017-02-11T08:45:25Z</time>
      </trkpt>
      <trkpt lat="42.471842000" lon="-2.576903000">
        <ele>454.80</ele>
        <time>2017-02-11T08:45:26Z</time>
      </trkpt>
      <trkpt lat="42.471854000" lon="-2.576845000">
        <ele>454.50</ele>
        <time>2017-02-11T08:45:27Z</time>
      </trkpt>
      <trkpt lat="42.471867000" lon="-2.576786000">
        <ele>454.20</ele>
        <time>2017-02-11T08:45:28Z</time>
      </trkpt>
      <trkpt lat="42.471878000" lon="-2.576725000">
        <ele>454.00</ele>
        <time>2017-02-11T08:45:29Z</time>
      </trkpt>
      <trkpt lat="42.471898000" lon="-2.576667000">
        <ele>453.90</ele>
        <time>2017-02-11T08:45:30Z</time>
      </trkpt>
      <trkpt lat="42.471916000" lon="-2.576608000">
        <ele>453.70</ele>
        <time>2017-02-11T08:45:31Z</time>
      </trkpt>
      <trkpt lat="42.471932000" lon="-2.576551000">
        <ele>453.50</ele>
        <time>2017-02-11T08:45:32Z</time>
      </trkpt>
      <trkpt lat="42.471940000" lon="-2.576496000">
        <ele>453.30</ele>
        <time>2017-02-11T08:45:33Z</time>
      </trkpt>
      <trkpt lat="42.471943000" lon="-2.576444000">
        <ele>453.20</ele>
        <time>2017-02-11T08:45:34Z</time>
      </trkpt>
      <trkpt lat="42.471945000" lon="-2.576397000">
        <ele>453.00</ele>
        <time>2017-02-11T08:45:35Z</time>
      </trkpt>
      <trkpt lat="42.471948000" lon="-2.576352000">
        <ele>452.80</ele>
        <time>2017-02-11T08:45:36Z</time>
      </trkpt>
      <trkpt lat="42.471957000" lon="-2.576308000">
        <ele>452.60</ele>
        <time>2017-02-11T08:45:37Z</time>
      </trkpt>
      <trkpt lat="42.471963000" lon="-2.576261000">
        <ele>452.50</ele>
        <time>2017-02-11T08:45:38Z</time>
      </trkpt>
      <trkpt lat="42.471966000" lon="-2.576216000">
        <ele>452.40</ele>
        <time>2017-02-11T08:45:39Z</time>
      </trkpt>
      <trkpt lat="42.471971000" lon="-2.576172000">
        <ele>452.40</ele>
        <time>2017-02-11T08:45:40Z</time>
      </trkpt>
      <trkpt lat="42.471972000" lon="-2.576129000">
        <ele>452.30</ele>
        <time>2017-02-11T08:45:41Z</time>
      </trkpt>
      <trkpt lat="42.471975000" lon="-2.576083000">
        <ele>452.30</ele>
        <time>2017-02-11T08:45:42Z</time>
      </trkpt>
      <trkpt lat="42.471980000" lon="-2.576038000">
        <ele>452.20</ele>
        <time>2017-02-11T08:45:43Z</time>
      </trkpt>
      <trkpt lat="42.471985000" lon="-2.575985000">
        <ele>452.20</ele>
        <time>2017-02-11T08:45:44Z</time>
      </trkpt>
      <trkpt lat="42.471988000" lon="-2.575931000">
        <ele>452.10</ele>
        <time>2017-02-11T08:45:45Z</time>
      </trkpt>
      <trkpt lat="42.471988000" lon="-2.575879000">
        <ele>452.00</ele>
        <time>2017-02-11T08:45:46Z</time>
      </trkpt>
      <trkpt lat="42.471990000" lon="-2.575830000">
        <ele>451.90</ele>
        <time>2017-02-11T08:45:47Z</time>
      </trkpt>
      <trkpt lat="42.471995000" lon="-2.575784000">
        <ele>451.90</ele>
        <time>2017-02-11T08:45:48Z</time>
      </trkpt>
      <trkpt lat="42.471993000" lon="-2.575737000">
        <ele>451.70</ele>
        <time>2017-02-11T08:45:49Z</time>
      </trkpt>
      <trkpt lat="42.471993000" lon="-2.575689000">
        <ele>451.60</ele>
        <time>2017-02-11T08:45:50Z</time>
      </trkpt>
      <trkpt lat="42.471996000" lon="-2.575644000">
        <ele>451.50</ele>
        <time>2017-02-11T08:45:51Z</time>
      </trkpt>
      <trkpt lat="42.472000000" lon="-2.575601000">
        <ele>451.50</ele>
        <time>2017-02-11T08:45:52Z</time>
      </trkpt>
      <trkpt lat="42.472007000" lon="-2.575555000">
        <ele>451.30</ele>
        <time>2017-02-11T08:45:53Z</time>
      </trkpt>
      <trkpt lat="42.472012000" lon="-2.575509000">
        <ele>451.20</ele>
        <time>2017-02-11T08:45:54Z</time>
      </trkpt>
      <trkpt lat="42.472015000" lon="-2.575463000">
        <ele>451.10</ele>
        <time>2017-02-11T08:45:55Z</time>
      </trkpt>
      <trkpt lat="42.472020000" lon="-2.575422000">
        <ele>451.00</ele>
        <time>2017-02-11T08:45:56Z</time>
      </trkpt>
      <trkpt lat="42.472026000" lon="-2.575389000">
        <ele>450.90</ele>
        <time>2017-02-11T08:45:57Z</time>
      </trkpt>
      <trkpt lat="42.472027000" lon="-2.575352000">
        <ele>450.80</ele>
        <time>2017-02-11T08:45:58Z</time>
      </trkpt>
      <trkpt lat="42.472032000" lon="-2.575315000">
        <ele>450.60</ele>
        <time>2017-02-11T08:45:59Z</time>
      </trkpt>
      <trkpt lat="42.472034000" lon="-2.575272000">
        <ele>450.40</ele>
        <time>2017-02-11T08:46:00Z</time>
      </trkpt>
      <trkpt lat="42.472035000" lon="-2.575226000">
        <ele>450.30</ele>
        <time>2017-02-11T08:46:01Z</time>
      </trkpt>
      <trkpt lat="42.472038000" lon="-2.575178000">
        <ele>450.10</ele>
        <time>2017-02-11T08:46:02Z</time>
      </trkpt>
      <trkpt lat="42.472049000" lon="-2.575137000">
        <ele>450.00</ele>
        <time>2017-02-11T08:46:03Z</time>
      </trkpt>
      <trkpt lat="42.472059000" lon="-2.575092000">
        <ele>449.80</ele>
        <time>2017-02-11T08:46:04Z</time>
      </trkpt>
      <trkpt lat="42.472072000" lon="-2.575043000">
        <ele>449.70</ele>
        <time>2017-02-11T08:46:05Z</time>
      </trkpt>
      <trkpt lat="42.472083000" lon="-2.574993000">
        <ele>449.70</ele>
        <time>2017-02-11T08:46:06Z</time>
      </trkpt>
      <trkpt lat="42.472092000" lon="-2.574946000">
        <ele>449.60</ele>
        <time>2017-02-11T08:46:07Z</time>
      </trkpt>
      <trkpt lat="42.472106000" lon="-2.574905000">
        <ele>449.60</ele>
        <time>2017-02-11T08:46:08Z</time>
      </trkpt>
      <trkpt lat="42.472123000" lon="-2.574815000">
        <ele>449.30</ele>
        <time>2017-02-11T08:46:10Z</time>
      </trkpt>
      <trkpt lat="42.472133000" lon="-2.574770000">
        <ele>449.10</ele>
        <time>2017-02-11T08:46:11Z</time>
      </trkpt>
      <trkpt lat="42.472146000" lon="-2.574721000">
        <ele>449.00</ele>
        <time>2017-02-11T08:46:12Z</time>
      </trkpt>
      <trkpt lat="42.472161000" lon="-2.574677000">
        <ele>448.90</ele>
        <time>2017-02-11T08:46:13Z</time>
      </trkpt>
      <trkpt lat="42.472174000" lon="-2.574627000">
        <ele>448.80</ele>
        <time>2017-02-11T08:46:14Z</time>
      </trkpt>
      <trkpt lat="42.472186000" lon="-2.574573000">
        <ele>448.70</ele>
        <time>2017-02-11T08:46:15Z</time>
      </trkpt>
      <trkpt lat="42.472199000" lon="-2.574520000">
        <ele>448.70</ele>
        <time>2017-02-11T08:46:16Z</time>
      </trkpt>
      <trkpt lat="42.472209000" lon="-2.574468000">
        <ele>448.70</ele>
        <time>2017-02-11T08:46:17Z</time>
      </trkpt>
      <trkpt lat="42.472217000" lon="-2.574421000">
        <ele>448.50</ele>
        <time>2017-02-11T08:46:18Z</time>
      </trkpt>
      <trkpt lat="42.472228000" lon="-2.574371000">
        <ele>448.30</ele>
        <time>2017-02-11T08:46:19Z</time>
      </trkpt>
      <trkpt lat="42.472237000" lon="-2.574323000">
        <ele>448.20</ele>
        <time>2017-02-11T08:46:20Z</time>
      </trkpt>
      <trkpt lat="42.472241000" lon="-2.574274000">
        <ele>448.20</ele>
        <time>2017-02-11T08:46:21Z</time>
      </trkpt>
      <trkpt lat="42.472249000" lon="-2.574225000">
        <ele>448.00</ele>
        <time>2017-02-11T08:46:22Z</time>
      </trkpt>
      <trkpt lat="42.472254000" lon="-2.574175000">
        <ele>448.00</ele>
        <time>2017-02-11T08:46:23Z</time>
      </trkpt>
      <trkpt lat="42.472261000" lon="-2.574125000">
        <ele>447.90</ele>
        <time>2017-02-11T08:46:24Z</time>
      </trkpt>
      <trkpt lat="42.472271000" lon="-2.574076000">
        <ele>447.90</ele>
        <time>2017-02-11T08:46:25Z</time>
      </trkpt>
      <trkpt lat="42.472284000" lon="-2.574024000">
        <ele>447.90</ele>
        <time>2017-02-11T08:46:26Z</time>
      </trkpt>
      <trkpt lat="42.472290000" lon="-2.573970000">
        <ele>447.90</ele>
        <time>2017-02-11T08:46:27Z</time>
      </trkpt>
      <trkpt lat="42.472295000" lon="-2.573919000">
        <ele>447.90</ele>
        <time>2017-02-11T08:46:28Z</time>
      </trkpt>
      <trkpt lat="42.472302000" lon="-2.573867000">
        <ele>447.90</ele>
        <time>2017-02-11T08:46:29Z</time>
      </trkpt>
      <trkpt lat="42.472310000" lon="-2.573816000">
        <ele>447.80</ele>
        <time>2017-02-11T08:46:30Z</time>
      </trkpt>
      <trkpt lat="42.472317000" lon="-2.573766000">
        <ele>447.80</ele>
        <time>2017-02-11T08:46:31Z</time>
      </trkpt>
      <trkpt lat="42.472324000" lon="-2.573717000">
        <ele>447.40</ele>
        <time>2017-02-11T08:46:32Z</time>
      </trkpt>
      <trkpt lat="42.472331000" lon="-2.573668000">
        <ele>447.10</ele>
        <time>2017-02-11T08:46:33Z</time>
      </trkpt>
      <trkpt lat="42.472336000" lon="-2.573624000">
        <ele>446.80</ele>
        <time>2017-02-11T08:46:34Z</time>
      </trkpt>
      <trkpt lat="42.472345000" lon="-2.573581000">
        <ele>446.70</ele>
        <time>2017-02-11T08:46:35Z</time>
      </trkpt>
      <trkpt lat="42.472349000" lon="-2.573538000">
        <ele>446.60</ele>
        <time>2017-02-11T08:46:36Z</time>
      </trkpt>
      <trkpt lat="42.472352000" lon="-2.573492000">
        <ele>446.60</ele>
        <time>2017-02-11T08:46:37Z</time>
      </trkpt>
      <trkpt lat="42.472357000" lon="-2.573448000">
        <ele>446.50</ele>
        <time>2017-02-11T08:46:38Z</time>
      </trkpt>
      <trkpt lat="42.472362000" lon="-2.573405000">
        <ele>446.50</ele>
        <time>2017-02-11T08:46:39Z</time>
      </trkpt>
      <trkpt lat="42.472367000" lon="-2.573359000">
        <ele>446.70</ele>
        <time>2017-02-11T08:46:40Z</time>
      </trkpt>
      <trkpt lat="42.472373000" lon="-2.573309000">
        <ele>446.90</ele>
        <time>2017-02-11T08:46:41Z</time>
      </trkpt>
      <trkpt lat="42.472380000" lon="-2.573262000">
        <ele>447.00</ele>
        <time>2017-02-11T08:46:42Z</time>
      </trkpt>
      <trkpt lat="42.472384000" lon="-2.573214000">
        <ele>447.10</ele>
        <time>2017-02-11T08:46:43Z</time>
      </trkpt>
      <trkpt lat="42.472390000" lon="-2.573168000">
        <ele>447.00</ele>
        <time>2017-02-11T08:46:44Z</time>
      </trkpt>
      <trkpt lat="42.472393000" lon="-2.573119000">
        <ele>447.00</ele>
        <time>2017-02-11T08:46:45Z</time>
      </trkpt>
      <trkpt lat="42.472398000" lon="-2.573076000">
        <ele>447.00</ele>
        <time>2017-02-11T08:46:46Z</time>
      </trkpt>
      <trkpt lat="42.472405000" lon="-2.573036000">
        <ele>446.90</ele>
        <time>2017-02-11T08:46:47Z</time>
      </trkpt>
      <trkpt lat="42.472407000" lon="-2.573003000">
        <ele>446.70</ele>
        <time>2017-02-11T08:46:48Z</time>
      </trkpt>
      <trkpt lat="42.472409000" lon="-2.572976000">
        <ele>446.50</ele>
        <time>2017-02-11T08:46:49Z</time>
      </trkpt>
      <trkpt lat="42.472407000" lon="-2.572951000">
        <ele>446.30</ele>
        <time>2017-02-11T08:46:50Z</time>
      </trkpt>
      <trkpt lat="42.472406000" lon="-2.572923000">
        <ele>446.10</ele>
        <time>2017-02-11T08:46:51Z</time>
      </trkpt>
      <trkpt lat="42.472403000" lon="-2.572895000">
        <ele>446.00</ele>
        <time>2017-02-11T08:46:52Z</time>
      </trkpt>
      <trkpt lat="42.472408000" lon="-2.572862000">
        <ele>445.90</ele>
        <time>2017-02-11T08:46:53Z</time>
      </trkpt>
      <trkpt lat="42.472415000" lon="-2.572828000">
        <ele>445.70</ele>
        <time>2017-02-11T08:46:54Z</time>
      </trkpt>
      <trkpt lat="42.472420000" lon="-2.572788000">
        <ele>445.60</ele>
        <time>2017-02-11T08:46:55Z</time>
      </trkpt>
      <trkpt lat="42.472425000" lon="-2.572750000">
        <ele>445.40</ele>
        <time>2017-02-11T08:46:56Z</time>
      </trkpt>
      <trkpt lat="42.472429000" lon="-2.572704000">
        <ele>445.30</ele>
        <time>2017-02-11T08:46:57Z</time>
      </trkpt>
      <trkpt lat="42.472437000" lon="-2.572658000">
        <ele>445.20</ele>
        <time>2017-02-11T08:46:58Z</time>
      </trkpt>
      <trkpt lat="42.472445000" lon="-2.572611000">
        <ele>445.10</ele>
        <time>2017-02-11T08:46:59Z</time>
      </trkpt>
      <trkpt lat="42.472456000" lon="-2.572563000">
        <ele>444.90</ele>
        <time>2017-02-11T08:47:00Z</time>
      </trkpt>
      <trkpt lat="42.472470000" lon="-2.572518000">
        <ele>444.80</ele>
        <time>2017-02-11T08:47:01Z</time>
      </trkpt>
      <trkpt lat="42.472482000" lon="-2.572469000">
        <ele>444.60</ele>
        <time>2017-02-11T08:47:02Z</time>
      </trkpt>
      <trkpt lat="42.472498000" lon="-2.572420000">
        <ele>444.50</ele>
        <time>2017-02-11T08:47:03Z</time>
      </trkpt>
      <trkpt lat="42.472512000" lon="-2.572366000">
        <ele>444.30</ele>
        <time>2017-02-11T08:47:04Z</time>
      </trkpt>
      <trkpt lat="42.472524000" lon="-2.572314000">
        <ele>444.20</ele>
        <time>2017-02-11T08:47:05Z</time>
      </trkpt>
      <trkpt lat="42.472535000" lon="-2.572262000">
        <ele>444.00</ele>
        <time>2017-02-11T08:47:06Z</time>
      </trkpt>
      <trkpt lat="42.472546000" lon="-2.572212000">
        <ele>443.90</ele>
        <time>2017-02-11T08:47:07Z</time>
      </trkpt>
      <trkpt lat="42.472556000" lon="-2.572161000">
        <ele>443.60</ele>
        <time>2017-02-11T08:47:08Z</time>
      </trkpt>
      <trkpt lat="42.472565000" lon="-2.572116000">
        <ele>443.40</ele>
        <time>2017-02-11T08:47:09Z</time>
      </trkpt>
      <trkpt lat="42.472588000" lon="-2.572026000">
        <ele>443.10</ele>
        <time>2017-02-11T08:47:11Z</time>
      </trkpt>
      <trkpt lat="42.472599000" lon="-2.571982000">
        <ele>443.00</ele>
        <time>2017-02-11T08:47:12Z</time>
      </trkpt>
      <trkpt lat="42.472613000" lon="-2.571939000">
        <ele>443.00</ele>
        <time>2017-02-11T08:47:13Z</time>
      </trkpt>
      <trkpt lat="42.472626000" lon="-2.571895000">
        <ele>442.90</ele>
        <time>2017-02-11T08:47:14Z</time>
      </trkpt>
      <trkpt lat="42.472641000" lon="-2.571847000">
        <ele>442.90</ele>
        <time>2017-02-11T08:47:15Z</time>
      </trkpt>
      <trkpt lat="42.472655000" lon="-2.571796000">
        <ele>442.90</ele>
        <time>2017-02-11T08:47:16Z</time>
      </trkpt>
      <trkpt lat="42.472669000" lon="-2.571746000">
        <ele>442.80</ele>
        <time>2017-02-11T08:47:17Z</time>
      </trkpt>
      <trkpt lat="42.472683000" lon="-2.571693000">
        <ele>442.80</ele>
        <time>2017-02-11T08:47:18Z</time>
      </trkpt>
      <trkpt lat="42.472700000" lon="-2.571641000">
        <ele>442.70</ele>
        <time>2017-02-11T08:47:19Z</time>
      </trkpt>
      <trkpt lat="42.472713000" lon="-2.571588000">
        <ele>442.70</ele>
        <time>2017-02-11T08:47:20Z</time>
      </trkpt>
      <trkpt lat="42.472730000" lon="-2.571537000">
        <ele>442.60</ele>
        <time>2017-02-11T08:47:21Z</time>
      </trkpt>
      <trkpt lat="42.472744000" lon="-2.571486000">
        <ele>442.60</ele>
        <time>2017-02-11T08:47:22Z</time>
      </trkpt>
      <trkpt lat="42.472765000" lon="-2.571440000">
        <ele>442.50</ele>
        <time>2017-02-11T08:47:23Z</time>
      </trkpt>
      <trkpt lat="42.472783000" lon="-2.571392000">
        <ele>442.50</ele>
        <time>2017-02-11T08:47:24Z</time>
      </trkpt>
      <trkpt lat="42.472797000" lon="-2.571347000">
        <ele>442.50</ele>
        <time>2017-02-11T08:47:25Z</time>
      </trkpt>
      <trkpt lat="42.472811000" lon="-2.571304000">
        <ele>442.30</ele>
        <time>2017-02-11T08:47:26Z</time>
      </trkpt>
      <trkpt lat="42.472828000" lon="-2.571263000">
        <ele>442.20</ele>
        <time>2017-02-11T08:47:27Z</time>
      </trkpt>
      <trkpt lat="42.472847000" lon="-2.571228000">
        <ele>442.00</ele>
        <time>2017-02-11T08:47:28Z</time>
      </trkpt>
      <trkpt lat="42.472861000" lon="-2.571192000">
        <ele>441.90</ele>
        <time>2017-02-11T08:47:29Z</time>
      </trkpt>
      <trkpt lat="42.472876000" lon="-2.571156000">
        <ele>441.50</ele>
        <time>2017-02-11T08:47:30Z</time>
      </trkpt>
      <trkpt lat="42.472890000" lon="-2.571117000">
        <ele>441.20</ele>
        <time>2017-02-11T08:47:31Z</time>
      </trkpt>
      <trkpt lat="42.472905000" lon="-2.571083000">
        <ele>440.90</ele>
        <time>2017-02-11T08:47:32Z</time>
      </trkpt>
      <trkpt lat="42.472924000" lon="-2.571041000">
        <ele>440.70</ele>
        <time>2017-02-11T08:47:33Z</time>
      </trkpt>
      <trkpt lat="42.472941000" lon="-2.570999000">
        <ele>440.60</ele>
        <time>2017-02-11T08:47:34Z</time>
      </trkpt>
      <trkpt lat="42.472954000" lon="-2.570962000">
        <ele>440.50</ele>
        <time>2017-02-11T08:47:35Z</time>
      </trkpt>
      <trkpt lat="42.472970000" lon="-2.570922000">
        <ele>440.30</ele>
        <time>2017-02-11T08:47:36Z</time>
      </trkpt>
      <trkpt lat="42.472983000" lon="-2.570878000">
        <ele>440.20</ele>
        <time>2017-02-11T08:47:37Z</time>
      </trkpt>
      <trkpt lat="42.472992000" lon="-2.570831000">
        <ele>440.30</ele>
        <time>2017-02-11T08:47:38Z</time>
      </trkpt>
      <trkpt lat="42.473002000" lon="-2.570785000">
        <ele>440.50</ele>
        <time>2017-02-11T08:47:39Z</time>
      </trkpt>
      <trkpt lat="42.473008000" lon="-2.570743000">
        <ele>440.30</ele>
        <time>2017-02-11T08:47:40Z</time>
      </trkpt>
      <trkpt lat="42.473017000" lon="-2.570702000">
        <ele>440.20</ele>
        <time>2017-02-11T08:47:41Z</time>
      </trkpt>
      <trkpt lat="42.473023000" lon="-2.570664000">
        <ele>440.10</ele>
        <time>2017-02-11T08:47:42Z</time>
      </trkpt>
      <trkpt lat="42.473029000" lon="-2.570628000">
        <ele>440.10</ele>
        <time>2017-02-11T08:47:43Z</time>
      </trkpt>
      <trkpt lat="42.473037000" lon="-2.570593000">
        <ele>440.10</ele>
        <time>2017-02-11T08:47:44Z</time>
      </trkpt>
      <trkpt lat="42.473045000" lon="-2.570554000">
        <ele>440.10</ele>
        <time>2017-02-11T08:47:45Z</time>
      </trkpt>
      <trkpt lat="42.473052000" lon="-2.570517000">
        <ele>440.00</ele>
        <time>2017-02-11T08:47:46Z</time>
      </trkpt>
      <trkpt lat="42.473062000" lon="-2.570482000">
        <ele>440.00</ele>
        <time>2017-02-11T08:47:47Z</time>
      </trkpt>
      <trkpt lat="42.473068000" lon="-2.570447000">
        <ele>440.00</ele>
        <time>2017-02-11T08:47:48Z</time>
      </trkpt>
      <trkpt lat="42.473075000" lon="-2.570410000">
        <ele>440.00</ele>
        <time>2017-02-11T08:47:49Z</time>
      </trkpt>
      <trkpt lat="42.473082000" lon="-2.570372000">
        <ele>440.00</ele>
        <time>2017-02-11T08:47:50Z</time>
      </trkpt>
      <trkpt lat="42.473092000" lon="-2.570333000">
        <ele>440.00</ele>
        <time>2017-02-11T08:47:51Z</time>
      </trkpt>
      <trkpt lat="42.473100000" lon="-2.570297000">
        <ele>440.00</ele>
        <time>2017-02-11T08:47:52Z</time>
      </trkpt>
      <trkpt lat="42.473106000" lon="-2.570266000">
        <ele>440.00</ele>
        <time>2017-02-11T08:47:53Z</time>
      </trkpt>
      <trkpt lat="42.473107000" lon="-2.570231000">
        <ele>439.90</ele>
        <time>2017-02-11T08:47:54Z</time>
      </trkpt>
      <trkpt lat="42.473111000" lon="-2.570199000">
        <ele>439.90</ele>
        <time>2017-02-11T08:47:55Z</time>
      </trkpt>
      <trkpt lat="42.473116000" lon="-2.570166000">
        <ele>439.80</ele>
        <time>2017-02-11T08:47:56Z</time>
      </trkpt>
      <trkpt lat="42.473118000" lon="-2.570129000">
        <ele>439.80</ele>
        <time>2017-02-11T08:47:57Z</time>
      </trkpt>
      <trkpt lat="42.473124000" lon="-2.570093000">
        <ele>439.70</ele>
        <time>2017-02-11T08:47:58Z</time>
      </trkpt>
      <trkpt lat="42.473121000" lon="-2.570062000">
        <ele>439.70</ele>
        <time>2017-02-11T08:47:59Z</time>
      </trkpt>
      <trkpt lat="42.473122000" lon="-2.570025000">
        <ele>439.90</ele>
        <time>2017-02-11T08:48:00Z</time>
      </trkpt>
      <trkpt lat="42.473122000" lon="-2.569990000">
        <ele>440.00</ele>
        <time>2017-02-11T08:48:01Z</time>
      </trkpt>
      <trkpt lat="42.473120000" lon="-2.569951000">
        <ele>440.00</ele>
        <time>2017-02-11T08:48:02Z</time>
      </trkpt>
      <trkpt lat="42.473120000" lon="-2.569907000">
        <ele>440.10</ele>
        <time>2017-02-11T08:48:03Z</time>
      </trkpt>
      <trkpt lat="42.473122000" lon="-2.569870000">
        <ele>440.10</ele>
        <time>2017-02-11T08:48:04Z</time>
      </trkpt>
      <trkpt lat="42.473122000" lon="-2.569828000">
        <ele>440.20</ele>
        <time>2017-02-11T08:48:05Z</time>
      </trkpt>
      <trkpt lat="42.473123000" lon="-2.569785000">
        <ele>440.10</ele>
        <time>2017-02-11T08:48:06Z</time>
      </trkpt>
      <trkpt lat="42.473127000" lon="-2.569743000">
        <ele>440.10</ele>
        <time>2017-02-11T08:48:07Z</time>
      </trkpt>
      <trkpt lat="42.473132000" lon="-2.569703000">
        <ele>440.10</ele>
        <time>2017-02-11T08:48:08Z</time>
      </trkpt>
      <trkpt lat="42.473135000" lon="-2.569661000">
        <ele>440.10</ele>
        <time>2017-02-11T08:48:09Z</time>
      </trkpt>
      <trkpt lat="42.473136000" lon="-2.569615000">
        <ele>440.00</ele>
        <time>2017-02-11T08:48:10Z</time>
      </trkpt>
      <trkpt lat="42.473138000" lon="-2.569517000">
        <ele>439.90</ele>
        <time>2017-02-11T08:48:12Z</time>
      </trkpt>
      <trkpt lat="42.473140000" lon="-2.569467000">
        <ele>439.90</ele>
        <time>2017-02-11T08:48:13Z</time>
      </trkpt>
      <trkpt lat="42.473142000" lon="-2.569420000">
        <ele>439.60</ele>
        <time>2017-02-11T08:48:14Z</time>
      </trkpt>
      <trkpt lat="42.473143000" lon="-2.569366000">
        <ele>439.30</ele>
        <time>2017-02-11T08:48:15Z</time>
      </trkpt>
      <trkpt lat="42.473146000" lon="-2.569321000">
        <ele>439.20</ele>
        <time>2017-02-11T08:48:16Z</time>
      </trkpt>
      <trkpt lat="42.473147000" lon="-2.569275000">
        <ele>439.00</ele>
        <time>2017-02-11T08:48:17Z</time>
      </trkpt>
      <trkpt lat="42.473151000" lon="-2.569231000">
        <ele>438.90</ele>
        <time>2017-02-11T08:48:18Z</time>
      </trkpt>
      <trkpt lat="42.473153000" lon="-2.569187000">
        <ele>438.70</ele>
        <time>2017-02-11T08:48:19Z</time>
      </trkpt>
      <trkpt lat="42.473156000" lon="-2.569137000">
        <ele>438.60</ele>
        <time>2017-02-11T08:48:20Z</time>
      </trkpt>
      <trkpt lat="42.473159000" lon="-2.569085000">
        <ele>438.40</ele>
        <time>2017-02-11T08:48:21Z</time>
      </trkpt>
      <trkpt lat="42.473160000" lon="-2.569035000">
        <ele>438.40</ele>
        <time>2017-02-11T08:48:22Z</time>
      </trkpt>
      <trkpt lat="42.473158000" lon="-2.568992000">
        <ele>438.30</ele>
        <time>2017-02-11T08:48:23Z</time>
      </trkpt>
      <trkpt lat="42.473158000" lon="-2.568945000">
        <ele>438.40</ele>
        <time>2017-02-11T08:48:24Z</time>
      </trkpt>
      <trkpt lat="42.473162000" lon="-2.568898000">
        <ele>438.40</ele>
        <time>2017-02-11T08:48:25Z</time>
      </trkpt>
      <trkpt lat="42.473161000" lon="-2.568855000">
        <ele>438.50</ele>
        <time>2017-02-11T08:48:26Z</time>
      </trkpt>
      <trkpt lat="42.473161000" lon="-2.568811000">
        <ele>438.50</ele>
        <time>2017-02-11T08:48:27Z</time>
      </trkpt>
      <trkpt lat="42.473160000" lon="-2.568770000">
        <ele>438.40</ele>
        <time>2017-02-11T08:48:28Z</time>
      </trkpt>
      <trkpt lat="42.473158000" lon="-2.568726000">
        <ele>438.30</ele>
        <time>2017-02-11T08:48:29Z</time>
      </trkpt>
      <trkpt lat="42.473159000" lon="-2.568679000">
        <ele>438.20</ele>
        <time>2017-02-11T08:48:30Z</time>
      </trkpt>
      <trkpt lat="42.473158000" lon="-2.568635000">
        <ele>438.10</ele>
        <time>2017-02-11T08:48:31Z</time>
      </trkpt>
      <trkpt lat="42.473157000" lon="-2.568594000">
        <ele>438.10</ele>
        <time>2017-02-11T08:48:32Z</time>
      </trkpt>
      <trkpt lat="42.473150000" lon="-2.568551000">
        <ele>438.00</ele>
        <time>2017-02-11T08:48:33Z</time>
      </trkpt>
      <trkpt lat="42.473145000" lon="-2.568508000">
        <ele>438.10</ele>
        <time>2017-02-11T08:48:34Z</time>
      </trkpt>
      <trkpt lat="42.473143000" lon="-2.568465000">
        <ele>438.10</ele>
        <time>2017-02-11T08:48:35Z</time>
      </trkpt>
      <trkpt lat="42.473137000" lon="-2.568433000">
        <ele>438.20</ele>
        <time>2017-02-11T08:48:36Z</time>
      </trkpt>
      <trkpt lat="42.473133000" lon="-2.568398000">
        <ele>438.20</ele>
        <time>2017-02-11T08:48:37Z</time>
      </trkpt>
      <trkpt lat="42.473126000" lon="-2.568364000">
        <ele>438.20</ele>
        <time>2017-02-11T08:48:38Z</time>
      </trkpt>
      <trkpt lat="42.473121000" lon="-2.568329000">
        <ele>438.30</ele>
        <time>2017-02-11T08:48:39Z</time>
      </trkpt>
      <trkpt lat="42.473115000" lon="-2.568291000">
        <ele>438.20</ele>
        <time>2017-02-11T08:48:40Z</time>
      </trkpt>
      <trkpt lat="42.473110000" lon="-2.568253000">
        <ele>438.20</ele>
        <time>2017-02-11T08:48:41Z</time>
      </trkpt>
      <trkpt lat="42.473103000" lon="-2.568213000">
        <ele>438.20</ele>
        <time>2017-02-11T08:48:42Z</time>
      </trkpt>
      <trkpt lat="42.473099000" lon="-2.568181000">
        <ele>438.10</ele>
        <time>2017-02-11T08:48:43Z</time>
      </trkpt>
      <trkpt lat="42.473098000" lon="-2.568148000">
        <ele>438.00</ele>
        <time>2017-02-11T08:48:44Z</time>
      </trkpt>
      <trkpt lat="42.473095000" lon="-2.568120000">
        <ele>438.00</ele>
        <time>2017-02-11T08:48:45Z</time>
      </trkpt>
      <trkpt lat="42.473091000" lon="-2.568090000">
        <ele>438.00</ele>
        <time>2017-02-11T08:48:46Z</time>
      </trkpt>
      <trkpt lat="42.473087000" lon="-2.568071000">
        <ele>438.00</ele>
        <time>2017-02-11T08:48:47Z</time>
      </trkpt>
      <trkpt lat="42.473083000" lon="-2.568051000">
        <ele>438.30</ele>
        <time>2017-02-11T08:48:48Z</time>
      </trkpt>
      <trkpt lat="42.473082000" lon="-2.568027000">
        <ele>438.50</ele>
        <time>2017-02-11T08:48:49Z</time>
      </trkpt>
      <trkpt lat="42.473078000" lon="-2.568009000">
        <ele>438.60</ele>
        <time>2017-02-11T08:48:50Z</time>
      </trkpt>
      <trkpt lat="42.473070000" lon="-2.567990000">
        <ele>438.80</ele>
        <time>2017-02-11T08:48:51Z</time>
      </trkpt>
      <trkpt lat="42.473064000" lon="-2.567966000">
        <ele>438.80</ele>
        <time>2017-02-11T08:48:52Z</time>
      </trkpt>
      <trkpt lat="42.473061000" lon="-2.567944000">
        <ele>438.80</ele>
        <time>2017-02-11T08:48:53Z</time>
      </trkpt>
      <trkpt lat="42.473056000" lon="-2.567925000">
        <ele>438.80</ele>
        <time>2017-02-11T08:48:54Z</time>
      </trkpt>
      <trkpt lat="42.473053000" lon="-2.567902000">
        <ele>438.70</ele>
        <time>2017-02-11T08:48:55Z</time>
      </trkpt>
      <trkpt lat="42.473047000" lon="-2.567881000">
        <ele>438.70</ele>
        <time>2017-02-11T08:48:56Z</time>
      </trkpt>
      <trkpt lat="42.473042000" lon="-2.567862000">
        <ele>438.70</ele>
        <time>2017-02-11T08:48:57Z</time>
      </trkpt>
      <trkpt lat="42.473037000" lon="-2.567843000">
        <ele>438.70</ele>
        <time>2017-02-11T08:48:58Z</time>
      </trkpt>
      <trkpt lat="42.473036000" lon="-2.567825000">
        <ele>438.80</ele>
        <time>2017-02-11T08:48:59Z</time>
      </trkpt>
      <trkpt lat="42.473035000" lon="-2.567808000">
        <ele>438.80</ele>
        <time>2017-02-11T08:49:00Z</time>
      </trkpt>
      <trkpt lat="42.473031000" lon="-2.567789000">
        <ele>438.80</ele>
        <time>2017-02-11T08:49:01Z</time>
      </trkpt>
      <trkpt lat="42.473025000" lon="-2.567768000">
        <ele>439.10</ele>
        <time>2017-02-11T08:49:02Z</time>
      </trkpt>
      <trkpt lat="42.473020000" lon="-2.567744000">
        <ele>439.30</ele>
        <time>2017-02-11T08:49:03Z</time>
      </trkpt>
      <trkpt lat="42.473016000" lon="-2.567720000">
        <ele>439.40</ele>
        <time>2017-02-11T08:49:04Z</time>
      </trkpt>
      <trkpt lat="42.473012000" lon="-2.567697000">
        <ele>439.50</ele>
        <time>2017-02-11T08:49:05Z</time>
      </trkpt>
      <trkpt lat="42.473012000" lon="-2.567670000">
        <ele>439.70</ele>
        <time>2017-02-11T08:49:06Z</time>
      </trkpt>
      <trkpt lat="42.473010000" lon="-2.567644000">
        <ele>439.90</ele>
        <time>2017-02-11T08:49:07Z</time>
      </trkpt>
      <trkpt lat="42.473009000" lon="-2.567614000">
        <ele>440.10</ele>
        <time>2017-02-11T08:49:08Z</time>
      </trkpt>
      <trkpt lat="42.473005000" lon="-2.567582000">
        <ele>440.30</ele>
        <time>2017-02-11T08:49:09Z</time>
      </trkpt>
      <trkpt lat="42.472997000" lon="-2.567550000">
        <ele>440.40</ele>
        <time>2017-02-11T08:49:10Z</time>
      </trkpt>
      <trkpt lat="42.472994000" lon="-2.567520000">
        <ele>440.60</ele>
        <time>2017-02-11T08:49:11Z</time>
      </trkpt>
      <trkpt lat="42.472986000" lon="-2.567455000">
        <ele>440.70</ele>
        <time>2017-02-11T08:49:13Z</time>
      </trkpt>
      <trkpt lat="42.472981000" lon="-2.567422000">
        <ele>440.70</ele>
        <time>2017-02-11T08:49:14Z</time>
      </trkpt>
      <trkpt lat="42.472970000" lon="-2.567392000">
        <ele>440.80</ele>
        <time>2017-02-11T08:49:15Z</time>
      </trkpt>
      <trkpt lat="42.472967000" lon="-2.567360000">
        <ele>440.90</ele>
        <time>2017-02-11T08:49:16Z</time>
      </trkpt>
      <trkpt lat="42.472961000" lon="-2.567331000">
        <ele>441.00</ele>
        <time>2017-02-11T08:49:17Z</time>
      </trkpt>
      <trkpt lat="42.472955000" lon="-2.567302000">
        <ele>441.10</ele>
        <time>2017-02-11T08:49:18Z</time>
      </trkpt>
      <trkpt lat="42.472951000" lon="-2.567276000">
        <ele>441.20</ele>
        <time>2017-02-11T08:49:19Z</time>
      </trkpt>
      <trkpt lat="42.472944000" lon="-2.567253000">
        <ele>441.20</ele>
        <time>2017-02-11T08:49:20Z</time>
      </trkpt>
      <trkpt lat="42.472941000" lon="-2.567229000">
        <ele>441.20</ele>
        <time>2017-02-11T08:49:21Z</time>
      </trkpt>
      <trkpt lat="42.472938000" lon="-2.567203000">
        <ele>441.00</ele>
        <time>2017-02-11T08:49:22Z</time>
      </trkpt>
      <trkpt lat="42.472935000" lon="-2.567178000">
        <ele>440.90</ele>
        <time>2017-02-11T08:49:23Z</time>
      </trkpt>
      <trkpt lat="42.472933000" lon="-2.567154000">
        <ele>440.80</ele>
        <time>2017-02-11T08:49:24Z</time>
      </trkpt>
      <trkpt lat="42.472934000" lon="-2.567132000">
        <ele>440.80</ele>
        <time>2017-02-11T08:49:25Z</time>
      </trkpt>
      <trkpt lat="42.472934000" lon="-2.567112000">
        <ele>440.90</ele>
        <time>2017-02-11T08:49:26Z</time>
      </trkpt>
      <trkpt lat="42.472932000" lon="-2.567093000">
        <ele>440.90</ele>
        <time>2017-02-11T08:49:27Z</time>
      </trkpt>
      <trkpt lat="42.472932000" lon="-2.567073000">
        <ele>441.00</ele>
        <time>2017-02-11T08:49:28Z</time>
      </trkpt>
      <trkpt lat="42.472935000" lon="-2.567054000">
        <ele>441.10</ele>
        <time>2017-02-11T08:49:29Z</time>
      </trkpt>
      <trkpt lat="42.472937000" lon="-2.567030000">
        <ele>441.20</ele>
        <time>2017-02-11T08:49:30Z</time>
      </trkpt>
      <trkpt lat="42.472941000" lon="-2.567005000">
        <ele>441.20</ele>
        <time>2017-02-11T08:49:31Z</time>
      </trkpt>
      <trkpt lat="42.472951000" lon="-2.566971000">
        <ele>441.30</ele>
        <time>2017-02-11T08:49:32Z</time>
      </trkpt>
      <trkpt lat="42.472959000" lon="-2.566937000">
        <ele>441.40</ele>
        <time>2017-02-11T08:49:33Z</time>
      </trkpt>
      <trkpt lat="42.472967000" lon="-2.566898000">
        <ele>441.50</ele>
        <time>2017-02-11T08:49:34Z</time>
      </trkpt>
      <trkpt lat="42.472970000" lon="-2.566858000">
        <ele>441.50</ele>
        <time>2017-02-11T08:49:35Z</time>
      </trkpt>
      <trkpt lat="42.472975000" lon="-2.566819000">
        <ele>441.10</ele>
        <time>2017-02-11T08:49:36Z</time>
      </trkpt>
      <trkpt lat="42.472975000" lon="-2.566778000">
        <ele>440.80</ele>
        <time>2017-02-11T08:49:37Z</time>
      </trkpt>
      <trkpt lat="42.472972000" lon="-2.566735000">
        <ele>440.50</ele>
        <time>2017-02-11T08:49:38Z</time>
      </trkpt>
      <trkpt lat="42.472966000" lon="-2.566679000">
        <ele>440.30</ele>
        <time>2017-02-11T08:49:39Z</time>
      </trkpt>
      <trkpt lat="42.472955000" lon="-2.566627000">
        <ele>440.10</ele>
        <time>2017-02-11T08:49:40Z</time>
      </trkpt>
      <trkpt lat="42.472939000" lon="-2.566578000">
        <ele>440.00</ele>
        <time>2017-02-11T08:49:41Z</time>
      </trkpt>
      <trkpt lat="42.472920000" lon="-2.566544000">
        <ele>439.20</ele>
        <time>2017-02-11T08:49:42Z</time>
      </trkpt>
      <trkpt lat="42.472893000" lon="-2.566512000">
        <ele>438.70</ele>
        <time>2017-02-11T08:49:43Z</time>
      </trkpt>
      <trkpt lat="42.472867000" lon="-2.566479000">
        <ele>438.10</ele>
        <time>2017-02-11T08:49:44Z</time>
      </trkpt>
      <trkpt lat="42.472846000" lon="-2.566444000">
        <ele>437.70</ele>
        <time>2017-02-11T08:49:45Z</time>
      </trkpt>
      <trkpt lat="42.472822000" lon="-2.566420000">
        <ele>437.40</ele>
        <time>2017-02-11T08:49:46Z</time>
      </trkpt>
      <trkpt lat="42.472805000" lon="-2.566393000">
        <ele>437.10</ele>
        <time>2017-02-11T08:49:47Z</time>
      </trkpt>
      <trkpt lat="42.472793000" lon="-2.566369000">
        <ele>436.60</ele>
        <time>2017-02-11T08:49:48Z</time>
      </trkpt>
      <trkpt lat="42.472779000" lon="-2.566353000">
        <ele>436.20</ele>
        <time>2017-02-11T08:49:49Z</time>
      </trkpt>
      <trkpt lat="42.472769000" lon="-2.566333000">
        <ele>435.80</ele>
        <time>2017-02-11T08:49:50Z</time>
      </trkpt>
      <trkpt lat="42.472769000" lon="-2.566331000">
        <ele>435.40</ele>
        <time>2017-02-11T08:49:51Z</time>
      </trkpt>
      <trkpt lat="42.472770000" lon="-2.566329000">
        <ele>434.90</ele>
        <time>2017-02-11T08:49:52Z</time>
      </trkpt>
      <trkpt lat="42.472766000" lon="-2.566320000">
        <ele>434.50</ele>
        <time>2017-02-11T08:49:53Z</time>
      </trkpt>
      <trkpt lat="42.472763000" lon="-2.566318000">
        <ele>434.30</ele>
        <time>2017-02-11T08:49:54Z</time>
      </trkpt>
      <trkpt lat="42.472769000" lon="-2.566301000">
        <ele>434.00</ele>
        <time>2017-02-11T08:49:55Z</time>
      </trkpt>
      <trkpt lat="42.472769000" lon="-2.566296000">
        <ele>433.90</ele>
        <time>2017-02-11T08:49:56Z</time>
      </trkpt>
      <trkpt lat="42.472766000" lon="-2.566297000">
        <ele>433.80</ele>
        <time>2017-02-11T08:49:57Z</time>
      </trkpt>
      <trkpt lat="42.472764000" lon="-2.566299000">
        <ele>433.70</ele>
        <time>2017-02-11T08:49:58Z</time>
      </trkpt>
      <trkpt lat="42.472767000" lon="-2.566296000">
        <ele>433.60</ele>
        <time>2017-02-11T08:49:59Z</time>
      </trkpt>
      <trkpt lat="42.472768000" lon="-2.566296000">
        <ele>433.50</ele>
        <time>2017-02-11T08:50:00Z</time>
      </trkpt>
      <trkpt lat="42.472768000" lon="-2.566303000">
        <ele>433.40</ele>
        <time>2017-02-11T08:50:01Z</time>
      </trkpt>
      <trkpt lat="42.472765000" lon="-2.566303000">
        <ele>433.30</ele>
        <time>2017-02-11T08:50:02Z</time>
      </trkpt>
      <trkpt lat="42.472764000" lon="-2.566306000">
        <ele>433.20</ele>
        <time>2017-02-11T08:50:03Z</time>
      </trkpt>
      <trkpt lat="42.472762000" lon="-2.566302000">
        <ele>433.10</ele>
        <time>2017-02-11T08:50:04Z</time>
      </trkpt>
      <trkpt lat="42.472761000" lon="-2.566296000">
        <ele>433.00</ele>
        <time>2017-02-11T08:50:05Z</time>
      </trkpt>
      <trkpt lat="42.472760000" lon="-2.566298000">
        <ele>433.00</ele>
        <time>2017-02-11T08:50:06Z</time>
      </trkpt>
      <trkpt lat="42.472762000" lon="-2.566297000">
        <ele>433.00</ele>
        <time>2017-02-11T08:50:07Z</time>
      </trkpt>
      <trkpt lat="42.472761000" lon="-2.566296000">
        <ele>433.00</ele>
        <time>2017-02-11T08:50:08Z</time>
      </trkpt>
      <trkpt lat="42.472760000" lon="-2.566301000">
        <ele>432.90</ele>
        <time>2017-02-11T08:50:09Z</time>
      </trkpt>
      <trkpt lat="42.472763000" lon="-2.566302000">
        <ele>433.10</ele>
        <time>2017-02-11T08:50:10Z</time>
      </trkpt>
      <trkpt lat="42.472764000" lon="-2.566307000">
        <ele>433.10</ele>
        <time>2017-02-11T08:50:11Z</time>
      </trkpt>
      <trkpt lat="42.472764000" lon="-2.566308000">
        <ele>433.20</ele>
        <time>2017-02-11T08:50:12Z</time>
      </trkpt>
      <trkpt lat="42.472763000" lon="-2.566296000">
        <ele>433.30</ele>
        <time>2017-02-11T08:50:14Z</time>
      </trkpt>
      <trkpt lat="42.472762000" lon="-2.566301000">
        <ele>433.30</ele>
        <time>2017-02-11T08:50:15Z</time>
      </trkpt>
      <trkpt lat="42.472763000" lon="-2.566301000">
        <ele>433.30</ele>
        <time>2017-02-11T08:50:16Z</time>
      </trkpt>
      <trkpt lat="42.472763000" lon="-2.566298000">
        <ele>433.20</ele>
        <time>2017-02-11T08:50:17Z</time>
      </trkpt>
      <trkpt lat="42.472755000" lon="-2.566302000">
        <ele>433.20</ele>
        <time>2017-02-11T08:50:18Z</time>
      </trkpt>
      <trkpt lat="42.472753000" lon="-2.566302000">
        <ele>433.10</ele>
        <time>2017-02-11T08:50:19Z</time>
      </trkpt>
      <trkpt lat="42.472753000" lon="-2.566304000">
        <ele>433.00</ele>
        <time>2017-02-11T08:50:20Z</time>
      </trkpt>
      <trkpt lat="42.472748000" lon="-2.566300000">
        <ele>433.00</ele>
        <time>2017-02-11T08:50:21Z</time>
      </trkpt>
      <trkpt lat="42.472738000" lon="-2.566279000">
        <ele>433.10</ele>
        <time>2017-02-11T08:50:22Z</time>
      </trkpt>
      <trkpt lat="42.472728000" lon="-2.566254000">
        <ele>433.20</ele>
        <time>2017-02-11T08:50:23Z</time>
      </trkpt>
      <trkpt lat="42.472712000" lon="-2.566232000">
        <ele>433.30</ele>
        <time>2017-02-11T08:50:24Z</time>
      </trkpt>
      <trkpt lat="42.472692000" lon="-2.566212000">
        <ele>433.40</ele>
        <time>2017-02-11T08:50:25Z</time>
      </trkpt>
      <trkpt lat="42.472666000" lon="-2.566194000">
        <ele>433.50</ele>
        <time>2017-02-11T08:50:26Z</time>
      </trkpt>
      <trkpt lat="42.472639000" lon="-2.566170000">
        <ele>433.70</ele>
        <time>2017-02-11T08:50:27Z</time>
      </trkpt>
      <trkpt lat="42.472606000" lon="-2.566141000">
        <ele>433.80</ele>
        <time>2017-02-11T08:50:28Z</time>
      </trkpt>
      <trkpt lat="42.472570000" lon="-2.566112000">
        <ele>433.90</ele>
        <time>2017-02-11T08:50:29Z</time>
      </trkpt>
      <trkpt lat="42.472536000" lon="-2.566079000">
        <ele>433.60</ele>
        <time>2017-02-11T08:50:30Z</time>
      </trkpt>
      <trkpt lat="42.472501000" lon="-2.566051000">
        <ele>433.40</ele>
        <time>2017-02-11T08:50:31Z</time>
      </trkpt>
      <trkpt lat="42.472464000" lon="-2.566020000">
        <ele>433.30</ele>
        <time>2017-02-11T08:50:32Z</time>
      </trkpt>
      <trkpt lat="42.472427000" lon="-2.565987000">
        <ele>433.20</ele>
        <time>2017-02-11T08:50:33Z</time>
      </trkpt>
      <trkpt lat="42.472393000" lon="-2.565950000">
        <ele>432.90</ele>
        <time>2017-02-11T08:50:34Z</time>
      </trkpt>
      <trkpt lat="42.472358000" lon="-2.565908000">
        <ele>432.60</ele>
        <time>2017-02-11T08:50:35Z</time>
      </trkpt>
      <trkpt lat="42.472321000" lon="-2.565868000">
        <ele>432.20</ele>
        <time>2017-02-11T08:50:36Z</time>
      </trkpt>
      <trkpt lat="42.472282000" lon="-2.565824000">
        <ele>431.80</ele>
        <time>2017-02-11T08:50:37Z</time>
      </trkpt>
      <trkpt lat="42.472244000" lon="-2.565775000">
        <ele>431.60</ele>
        <time>2017-02-11T08:50:38Z</time>
      </trkpt>
      <trkpt lat="42.472206000" lon="-2.565721000">
        <ele>431.40</ele>
        <time>2017-02-11T08:50:39Z</time>
      </trkpt>
      <trkpt lat="42.472167000" lon="-2.565668000">
        <ele>430.90</ele>
        <time>2017-02-11T08:50:40Z</time>
      </trkpt>
      <trkpt lat="42.472131000" lon="-2.565615000">
        <ele>430.60</ele>
        <time>2017-02-11T08:50:41Z</time>
      </trkpt>
      <trkpt lat="42.472093000" lon="-2.565567000">
        <ele>430.30</ele>
        <time>2017-02-11T08:50:42Z</time>
      </trkpt>
      <trkpt lat="42.472058000" lon="-2.565520000">
        <ele>430.20</ele>
        <time>2017-02-11T08:50:43Z</time>
      </trkpt>
      <trkpt lat="42.472025000" lon="-2.565476000">
        <ele>430.00</ele>
        <time>2017-02-11T08:50:44Z</time>
      </trkpt>
      <trkpt lat="42.471993000" lon="-2.565435000">
        <ele>429.90</ele>
        <time>2017-02-11T08:50:45Z</time>
      </trkpt>
      <trkpt lat="42.471957000" lon="-2.565398000">
        <ele>429.90</ele>
        <time>2017-02-11T08:50:46Z</time>
      </trkpt>
      <trkpt lat="42.471925000" lon="-2.565361000">
        <ele>429.90</ele>
        <time>2017-02-11T08:50:47Z</time>
      </trkpt>
      <trkpt lat="42.471892000" lon="-2.565330000">
        <ele>430.10</ele>
        <time>2017-02-11T08:50:48Z</time>
      </trkpt>
      <trkpt lat="42.471865000" lon="-2.565295000">
        <ele>430.20</ele>
        <time>2017-02-11T08:50:49Z</time>
      </trkpt>
      <trkpt lat="42.471835000" lon="-2.565260000">
        <ele>430.30</ele>
        <time>2017-02-11T08:50:50Z</time>
      </trkpt>
      <trkpt lat="42.471805000" lon="-2.565225000">
        <ele>430.40</ele>
        <time>2017-02-11T08:50:51Z</time>
      </trkpt>
      <trkpt lat="42.471774000" lon="-2.565190000">
        <ele>430.50</ele>
        <time>2017-02-11T08:50:52Z</time>
      </trkpt>
      <trkpt lat="42.471747000" lon="-2.565156000">
        <ele>430.50</ele>
        <time>2017-02-11T08:50:53Z</time>
      </trkpt>
      <trkpt lat="42.471719000" lon="-2.565122000">
        <ele>430.50</ele>
        <time>2017-02-11T08:50:54Z</time>
      </trkpt>
      <trkpt lat="42.471686000" lon="-2.565086000">
        <ele>430.40</ele>
        <time>2017-02-11T08:50:55Z</time>
      </trkpt>
      <trkpt lat="42.471655000" lon="-2.565054000">
        <ele>430.60</ele>
        <time>2017-02-11T08:50:56Z</time>
      </trkpt>
      <trkpt lat="42.471623000" lon="-2.565024000">
        <ele>430.60</ele>
        <time>2017-02-11T08:50:57Z</time>
      </trkpt>
      <trkpt lat="42.471595000" lon="-2.564991000">
        <ele>430.70</ele>
        <time>2017-02-11T08:50:58Z</time>
      </trkpt>
      <trkpt lat="42.471565000" lon="-2.564959000">
        <ele>430.70</ele>
        <time>2017-02-11T08:50:59Z</time>
      </trkpt>
      <trkpt lat="42.471536000" lon="-2.564932000">
        <ele>430.80</ele>
        <time>2017-02-11T08:51:00Z</time>
      </trkpt>
      <trkpt lat="42.471506000" lon="-2.564900000">
        <ele>430.90</ele>
        <time>2017-02-11T08:51:01Z</time>
      </trkpt>
      <trkpt lat="42.471475000" lon="-2.564872000">
        <ele>430.90</ele>
        <time>2017-02-11T08:51:02Z</time>
      </trkpt>
      <trkpt lat="42.471444000" lon="-2.564844000">
        <ele>430.90</ele>
        <time>2017-02-11T08:51:03Z</time>
      </trkpt>
      <trkpt lat="42.471415000" lon="-2.564817000">
        <ele>431.00</ele>
        <time>2017-02-11T08:51:04Z</time>
      </trkpt>
      <trkpt lat="42.471387000" lon="-2.564792000">
        <ele>431.00</ele>
        <time>2017-02-11T08:51:05Z</time>
      </trkpt>
      <trkpt lat="42.471360000" lon="-2.564763000">
        <ele>431.00</ele>
        <time>2017-02-11T08:51:06Z</time>
      </trkpt>
      <trkpt lat="42.471334000" lon="-2.564734000">
        <ele>431.10</ele>
        <time>2017-02-11T08:51:07Z</time>
      </trkpt>
      <trkpt lat="42.471307000" lon="-2.564703000">
        <ele>431.10</ele>
        <time>2017-02-11T08:51:08Z</time>
      </trkpt>
      <trkpt lat="42.471281000" lon="-2.564673000">
        <ele>431.10</ele>
        <time>2017-02-11T08:51:09Z</time>
      </trkpt>
      <trkpt lat="42.471256000" lon="-2.564647000">
        <ele>430.70</ele>
        <time>2017-02-11T08:51:10Z</time>
      </trkpt>
      <trkpt lat="42.471229000" lon="-2.564617000">
        <ele>430.40</ele>
        <time>2017-02-11T08:51:11Z</time>
      </trkpt>
      <trkpt lat="42.471204000" lon="-2.564593000">
        <ele>430.20</ele>
        <time>2017-02-11T08:51:12Z</time>
      </trkpt>
      <trkpt lat="42.471180000" lon="-2.564562000">
        <ele>430.10</ele>
        <time>2017-02-11T08:51:13Z</time>
      </trkpt>
      <trkpt lat="42.471130000" lon="-2.564498000">
        <ele>429.80</ele>
        <time>2017-02-11T08:51:15Z</time>
      </trkpt>
      <trkpt lat="42.471104000" lon="-2.564466000">
        <ele>429.70</ele>
        <time>2017-02-11T08:51:16Z</time>
      </trkpt>
      <trkpt lat="42.471079000" lon="-2.564434000">
        <ele>429.60</ele>
        <time>2017-02-11T08:51:17Z</time>
      </trkpt>
      <trkpt lat="42.471054000" lon="-2.564404000">
        <ele>429.60</ele>
        <time>2017-02-11T08:51:18Z</time>
      </trkpt>
      <trkpt lat="42.471029000" lon="-2.564380000">
        <ele>429.60</ele>
        <time>2017-02-11T08:51:19Z</time>
      </trkpt>
      <trkpt lat="42.471005000" lon="-2.564352000">
        <ele>429.60</ele>
        <time>2017-02-11T08:51:20Z</time>
      </trkpt>
      <trkpt lat="42.470985000" lon="-2.564323000">
        <ele>429.60</ele>
        <time>2017-02-11T08:51:21Z</time>
      </trkpt>
      <trkpt lat="42.470963000" lon="-2.564293000">
        <ele>429.60</ele>
        <time>2017-02-11T08:51:22Z</time>
      </trkpt>
      <trkpt lat="42.470940000" lon="-2.564268000">
        <ele>429.60</ele>
        <time>2017-02-11T08:51:23Z</time>
      </trkpt>
      <trkpt lat="42.470917000" lon="-2.564239000">
        <ele>429.50</ele>
        <time>2017-02-11T08:51:24Z</time>
      </trkpt>
      <trkpt lat="42.470895000" lon="-2.564209000">
        <ele>429.50</ele>
        <time>2017-02-11T08:51:25Z</time>
      </trkpt>
      <trkpt lat="42.470871000" lon="-2.564183000">
        <ele>429.40</ele>
        <time>2017-02-11T08:51:26Z</time>
      </trkpt>
      <trkpt lat="42.470851000" lon="-2.564156000">
        <ele>429.40</ele>
        <time>2017-02-11T08:51:27Z</time>
      </trkpt>
      <trkpt lat="42.470831000" lon="-2.564128000">
        <ele>429.30</ele>
        <time>2017-02-11T08:51:28Z</time>
      </trkpt>
      <trkpt lat="42.470815000" lon="-2.564104000">
        <ele>429.30</ele>
        <time>2017-02-11T08:51:29Z</time>
      </trkpt>
      <trkpt lat="42.470795000" lon="-2.564080000">
        <ele>429.40</ele>
        <time>2017-02-11T08:51:30Z</time>
      </trkpt>
      <trkpt lat="42.470776000" lon="-2.564050000">
        <ele>429.50</ele>
        <time>2017-02-11T08:51:31Z</time>
      </trkpt>
      <trkpt lat="42.470755000" lon="-2.564022000">
        <ele>429.60</ele>
        <time>2017-02-11T08:51:32Z</time>
      </trkpt>
      <trkpt lat="42.470734000" lon="-2.563991000">
        <ele>429.70</ele>
        <time>2017-02-11T08:51:33Z</time>
      </trkpt>
      <trkpt lat="42.470712000" lon="-2.563960000">
        <ele>429.80</ele>
        <time>2017-02-11T08:51:34Z</time>
      </trkpt>
      <trkpt lat="42.470699000" lon="-2.563931000">
        <ele>429.90</ele>
        <time>2017-02-11T08:51:35Z</time>
      </trkpt>
      <trkpt lat="42.470683000" lon="-2.563901000">
        <ele>429.90</ele>
        <time>2017-02-11T08:51:36Z</time>
      </trkpt>
      <trkpt lat="42.470664000" lon="-2.563873000">
        <ele>430.00</ele>
        <time>2017-02-11T08:51:37Z</time>
      </trkpt>
      <trkpt lat="42.470647000" lon="-2.563848000">
        <ele>430.00</ele>
        <time>2017-02-11T08:51:38Z</time>
      </trkpt>
      <trkpt lat="42.470626000" lon="-2.563820000">
        <ele>430.00</ele>
        <time>2017-02-11T08:51:39Z</time>
      </trkpt>
      <trkpt lat="42.470603000" lon="-2.563789000">
        <ele>430.00</ele>
        <time>2017-02-11T08:51:40Z</time>
      </trkpt>
      <trkpt lat="42.470582000" lon="-2.563763000">
        <ele>430.00</ele>
        <time>2017-02-11T08:51:41Z</time>
      </trkpt>
      <trkpt lat="42.470562000" lon="-2.563739000">
        <ele>429.90</ele>
        <time>2017-02-11T08:51:42Z</time>
      </trkpt>
      <trkpt lat="42.470544000" lon="-2.563709000">
        <ele>429.90</ele>
        <time>2017-02-11T08:51:43Z</time>
      </trkpt>
      <trkpt lat="42.470527000" lon="-2.563684000">
        <ele>430.00</ele>
        <time>2017-02-11T08:51:44Z</time>
      </trkpt>
      <trkpt lat="42.470512000" lon="-2.563663000">
        <ele>430.00</ele>
        <time>2017-02-11T08:51:45Z</time>
      </trkpt>
      <trkpt lat="42.470497000" lon="-2.563635000">
        <ele>430.20</ele>
        <time>2017-02-11T08:51:46Z</time>
      </trkpt>
      <trkpt lat="42.470482000" lon="-2.563613000">
        <ele>430.30</ele>
        <time>2017-02-11T08:51:47Z</time>
      </trkpt>
      <trkpt lat="42.470466000" lon="-2.563586000">
        <ele>430.40</ele>
        <time>2017-02-11T08:51:48Z</time>
      </trkpt>
      <trkpt lat="42.470445000" lon="-2.563564000">
        <ele>430.40</ele>
        <time>2017-02-11T08:51:49Z</time>
      </trkpt>
      <trkpt lat="42.470420000" lon="-2.563537000">
        <ele>430.30</ele>
        <time>2017-02-11T08:51:50Z</time>
      </trkpt>
      <trkpt lat="42.470402000" lon="-2.563511000">
        <ele>430.20</ele>
        <time>2017-02-11T08:51:51Z</time>
      </trkpt>
      <trkpt lat="42.470386000" lon="-2.563491000">
        <ele>430.10</ele>
        <time>2017-02-11T08:51:52Z</time>
      </trkpt>
      <trkpt lat="42.470369000" lon="-2.563468000">
        <ele>430.00</ele>
        <time>2017-02-11T08:51:53Z</time>
      </trkpt>
      <trkpt lat="42.470353000" lon="-2.563449000">
        <ele>430.20</ele>
        <time>2017-02-11T08:51:54Z</time>
      </trkpt>
      <trkpt lat="42.470337000" lon="-2.563430000">
        <ele>430.30</ele>
        <time>2017-02-11T08:51:55Z</time>
      </trkpt>
      <trkpt lat="42.470320000" lon="-2.563408000">
        <ele>430.40</ele>
        <time>2017-02-11T08:51:56Z</time>
      </trkpt>
      <trkpt lat="42.470304000" lon="-2.563389000">
        <ele>430.40</ele>
        <time>2017-02-11T08:51:57Z</time>
      </trkpt>
      <trkpt lat="42.470287000" lon="-2.563371000">
        <ele>430.50</ele>
        <time>2017-02-11T08:51:58Z</time>
      </trkpt>
      <trkpt lat="42.470273000" lon="-2.563345000">
        <ele>430.50</ele>
        <time>2017-02-11T08:51:59Z</time>
      </trkpt>
      <trkpt lat="42.470261000" lon="-2.563325000">
        <ele>430.50</ele>
        <time>2017-02-11T08:52:00Z</time>
      </trkpt>
      <trkpt lat="42.470250000" lon="-2.563303000">
        <ele>430.50</ele>
        <time>2017-02-11T08:52:01Z</time>
      </trkpt>
      <trkpt lat="42.470239000" lon="-2.563279000">
        <ele>430.40</ele>
        <time>2017-02-11T08:52:02Z</time>
      </trkpt>
      <trkpt lat="42.470225000" lon="-2.563257000">
        <ele>430.40</ele>
        <time>2017-02-11T08:52:03Z</time>
      </trkpt>
      <trkpt lat="42.470209000" lon="-2.563238000">
        <ele>430.20</ele>
        <time>2017-02-11T08:52:04Z</time>
      </trkpt>
      <trkpt lat="42.470193000" lon="-2.563225000">
        <ele>430.10</ele>
        <time>2017-02-11T08:52:05Z</time>
      </trkpt>
      <trkpt lat="42.470180000" lon="-2.563207000">
        <ele>430.10</ele>
        <time>2017-02-11T08:52:06Z</time>
      </trkpt>
      <trkpt lat="42.470169000" lon="-2.563191000">
        <ele>430.20</ele>
        <time>2017-02-11T08:52:07Z</time>
      </trkpt>
      <trkpt lat="42.470158000" lon="-2.563179000">
        <ele>430.20</ele>
        <time>2017-02-11T08:52:08Z</time>
      </trkpt>
      <trkpt lat="42.470146000" lon="-2.563169000">
        <ele>430.30</ele>
        <time>2017-02-11T08:52:09Z</time>
      </trkpt>
      <trkpt lat="42.470134000" lon="-2.563151000">
        <ele>430.30</ele>
        <time>2017-02-11T08:52:10Z</time>
      </trkpt>
      <trkpt lat="42.470123000" lon="-2.563134000">
        <ele>430.30</ele>
        <time>2017-02-11T08:52:11Z</time>
      </trkpt>
      <trkpt lat="42.470111000" lon="-2.563113000">
        <ele>430.30</ele>
        <time>2017-02-11T08:52:12Z</time>
      </trkpt>
      <trkpt lat="42.470100000" lon="-2.563099000">
        <ele>430.20</ele>
        <time>2017-02-11T08:52:13Z</time>
      </trkpt>
      <trkpt lat="42.470092000" lon="-2.563084000">
        <ele>430.10</ele>
        <time>2017-02-11T08:52:14Z</time>
      </trkpt>
      <trkpt lat="42.470068000" lon="-2.563047000">
        <ele>430.00</ele>
        <time>2017-02-11T08:52:16Z</time>
      </trkpt>
      <trkpt lat="42.470057000" lon="-2.563024000">
        <ele>430.00</ele>
        <time>2017-02-11T08:52:17Z</time>
      </trkpt>
      <trkpt lat="42.470044000" lon="-2.562998000">
        <ele>429.90</ele>
        <time>2017-02-11T08:52:18Z</time>
      </trkpt>
      <trkpt lat="42.470030000" lon="-2.562976000">
        <ele>429.90</ele>
        <time>2017-02-11T08:52:19Z</time>
      </trkpt>
      <trkpt lat="42.470017000" lon="-2.562957000">
        <ele>430.00</ele>
        <time>2017-02-11T08:52:20Z</time>
      </trkpt>
      <trkpt lat="42.470003000" lon="-2.562930000">
        <ele>430.00</ele>
        <time>2017-02-11T08:52:21Z</time>
      </trkpt>
      <trkpt lat="42.469987000" lon="-2.562903000">
        <ele>430.10</ele>
        <time>2017-02-11T08:52:22Z</time>
      </trkpt>
      <trkpt lat="42.469970000" lon="-2.562878000">
        <ele>430.20</ele>
        <time>2017-02-11T08:52:23Z</time>
      </trkpt>
      <trkpt lat="42.469951000" lon="-2.562852000">
        <ele>430.30</ele>
        <time>2017-02-11T08:52:24Z</time>
      </trkpt>
      <trkpt lat="42.469935000" lon="-2.562826000">
        <ele>430.40</ele>
        <time>2017-02-11T08:52:25Z</time>
      </trkpt>
      <trkpt lat="42.469919000" lon="-2.562799000">
        <ele>430.40</ele>
        <time>2017-02-11T08:52:26Z</time>
      </trkpt>
      <trkpt lat="42.469901000" lon="-2.562779000">
        <ele>430.50</ele>
        <time>2017-02-11T08:52:27Z</time>
      </trkpt>
      <trkpt lat="42.469887000" lon="-2.562762000">
        <ele>430.60</ele>
        <time>2017-02-11T08:52:28Z</time>
      </trkpt>
      <trkpt lat="42.469874000" lon="-2.562745000">
        <ele>430.70</ele>
        <time>2017-02-11T08:52:29Z</time>
      </trkpt>
      <trkpt lat="42.469861000" lon="-2.562729000">
        <ele>430.70</ele>
        <time>2017-02-11T08:52:30Z</time>
      </trkpt>
      <trkpt lat="42.469843000" lon="-2.562712000">
        <ele>430.60</ele>
        <time>2017-02-11T08:52:31Z</time>
      </trkpt>
      <trkpt lat="42.469826000" lon="-2.562691000">
        <ele>430.80</ele>
        <time>2017-02-11T08:52:32Z</time>
      </trkpt>
      <trkpt lat="42.469808000" lon="-2.562664000">
        <ele>430.90</ele>
        <time>2017-02-11T08:52:33Z</time>
      </trkpt>
      <trkpt lat="42.469794000" lon="-2.562634000">
        <ele>430.90</ele>
        <time>2017-02-11T08:52:34Z</time>
      </trkpt>
      <trkpt lat="42.469778000" lon="-2.562609000">
        <ele>430.90</ele>
        <time>2017-02-11T08:52:35Z</time>
      </trkpt>
      <trkpt lat="42.469761000" lon="-2.562583000">
        <ele>430.90</ele>
        <time>2017-02-11T08:52:36Z</time>
      </trkpt>
      <trkpt lat="42.469744000" lon="-2.562558000">
        <ele>430.80</ele>
        <time>2017-02-11T08:52:37Z</time>
      </trkpt>
      <trkpt lat="42.469727000" lon="-2.562533000">
        <ele>430.80</ele>
        <time>2017-02-11T08:52:38Z</time>
      </trkpt>
      <trkpt lat="42.469709000" lon="-2.562508000">
        <ele>430.80</ele>
        <time>2017-02-11T08:52:39Z</time>
      </trkpt>
      <trkpt lat="42.469691000" lon="-2.562484000">
        <ele>430.70</ele>
        <time>2017-02-11T08:52:40Z</time>
      </trkpt>
      <trkpt lat="42.469673000" lon="-2.562458000">
        <ele>430.70</ele>
        <time>2017-02-11T08:52:41Z</time>
      </trkpt>
      <trkpt lat="42.469658000" lon="-2.562439000">
        <ele>430.60</ele>
        <time>2017-02-11T08:52:42Z</time>
      </trkpt>
      <trkpt lat="42.469647000" lon="-2.562420000">
        <ele>430.60</ele>
        <time>2017-02-11T08:52:43Z</time>
      </trkpt>
      <trkpt lat="42.469633000" lon="-2.562405000">
        <ele>430.60</ele>
        <time>2017-02-11T08:52:44Z</time>
      </trkpt>
      <trkpt lat="42.469619000" lon="-2.562391000">
        <ele>430.70</ele>
        <time>2017-02-11T08:52:45Z</time>
      </trkpt>
      <trkpt lat="42.469603000" lon="-2.562375000">
        <ele>430.60</ele>
        <time>2017-02-11T08:52:46Z</time>
      </trkpt>
      <trkpt lat="42.469584000" lon="-2.562349000">
        <ele>430.50</ele>
        <time>2017-02-11T08:52:47Z</time>
      </trkpt>
      <trkpt lat="42.469565000" lon="-2.562324000">
        <ele>430.50</ele>
        <time>2017-02-11T08:52:48Z</time>
      </trkpt>
      <trkpt lat="42.469544000" lon="-2.562299000">
        <ele>430.50</ele>
        <time>2017-02-11T08:52:49Z</time>
      </trkpt>
      <trkpt lat="42.469525000" lon="-2.562274000">
        <ele>430.40</ele>
        <time>2017-02-11T08:52:50Z</time>
      </trkpt>
      <trkpt lat="42.469504000" lon="-2.562255000">
        <ele>430.40</ele>
        <time>2017-02-11T08:52:51Z</time>
      </trkpt>
      <trkpt lat="42.469483000" lon="-2.562228000">
        <ele>430.40</ele>
        <time>2017-02-11T08:52:52Z</time>
      </trkpt>
      <trkpt lat="42.469462000" lon="-2.562203000">
        <ele>430.30</ele>
        <time>2017-02-11T08:52:53Z</time>
      </trkpt>
      <trkpt lat="42.469441000" lon="-2.562174000">
        <ele>430.30</ele>
        <time>2017-02-11T08:52:54Z</time>
      </trkpt>
      <trkpt lat="42.469425000" lon="-2.562148000">
        <ele>430.30</ele>
        <time>2017-02-11T08:52:55Z</time>
      </trkpt>
      <trkpt lat="42.469409000" lon="-2.562121000">
        <ele>430.30</ele>
        <time>2017-02-11T08:52:56Z</time>
      </trkpt>
      <trkpt lat="42.469390000" lon="-2.562093000">
        <ele>430.30</ele>
        <time>2017-02-11T08:52:57Z</time>
      </trkpt>
      <trkpt lat="42.469365000" lon="-2.562073000">
        <ele>430.40</ele>
        <time>2017-02-11T08:52:58Z</time>
      </trkpt>
      <trkpt lat="42.469342000" lon="-2.562049000">
        <ele>430.40</ele>
        <time>2017-02-11T08:52:59Z</time>
      </trkpt>
      <trkpt lat="42.469318000" lon="-2.562025000">
        <ele>430.50</ele>
        <time>2017-02-11T08:53:00Z</time>
      </trkpt>
      <trkpt lat="42.469301000" lon="-2.561995000">
        <ele>430.60</ele>
        <time>2017-02-11T08:53:01Z</time>
      </trkpt>
      <trkpt lat="42.469288000" lon="-2.561975000">
        <ele>430.60</ele>
        <time>2017-02-11T08:53:02Z</time>
      </trkpt>
      <trkpt lat="42.469272000" lon="-2.561953000">
        <ele>430.70</ele>
        <time>2017-02-11T08:53:03Z</time>
      </trkpt>
      <trkpt lat="42.469255000" lon="-2.561929000">
        <ele>430.70</ele>
        <time>2017-02-11T08:53:04Z</time>
      </trkpt>
      <trkpt lat="42.469239000" lon="-2.561905000">
        <ele>430.70</ele>
        <time>2017-02-11T08:53:05Z</time>
      </trkpt>
      <trkpt lat="42.469224000" lon="-2.561882000">
        <ele>430.70</ele>
        <time>2017-02-11T08:53:06Z</time>
      </trkpt>
      <trkpt lat="42.469203000" lon="-2.561864000">
        <ele>430.60</ele>
        <time>2017-02-11T08:53:07Z</time>
      </trkpt>
      <trkpt lat="42.469190000" lon="-2.561844000">
        <ele>430.60</ele>
        <time>2017-02-11T08:53:08Z</time>
      </trkpt>
      <trkpt lat="42.469183000" lon="-2.561824000">
        <ele>430.50</ele>
        <time>2017-02-11T08:53:09Z</time>
      </trkpt>
      <trkpt lat="42.469162000" lon="-2.561806000">
        <ele>430.50</ele>
        <time>2017-02-11T08:53:10Z</time>
      </trkpt>
      <trkpt lat="42.469139000" lon="-2.561780000">
        <ele>430.50</ele>
        <time>2017-02-11T08:53:11Z</time>
      </trkpt>
      <trkpt lat="42.469115000" lon="-2.561754000">
        <ele>430.50</ele>
        <time>2017-02-11T08:53:12Z</time>
      </trkpt>
      <trkpt lat="42.469090000" lon="-2.561722000">
        <ele>430.40</ele>
        <time>2017-02-11T08:53:13Z</time>
      </trkpt>
      <trkpt lat="42.469064000" lon="-2.561702000">
        <ele>430.40</ele>
        <time>2017-02-11T08:53:14Z</time>
      </trkpt>
      <trkpt lat="42.469037000" lon="-2.561682000">
        <ele>430.50</ele>
        <time>2017-02-11T08:53:15Z</time>
      </trkpt>
      <trkpt lat="42.468984000" lon="-2.561638000">
        <ele>430.50</ele>
        <time>2017-02-11T08:53:17Z</time>
      </trkpt>
      <trkpt lat="42.468956000" lon="-2.561618000">
        <ele>430.50</ele>
        <time>2017-02-11T08:53:18Z</time>
      </trkpt>
      <trkpt lat="42.468927000" lon="-2.561599000">
        <ele>430.50</ele>
        <time>2017-02-11T08:53:19Z</time>
      </trkpt>
      <trkpt lat="42.468902000" lon="-2.561577000">
        <ele>430.50</ele>
        <time>2017-02-11T08:53:20Z</time>
      </trkpt>
      <trkpt lat="42.468876000" lon="-2.561557000">
        <ele>430.50</ele>
        <time>2017-02-11T08:53:21Z</time>
      </trkpt>
      <trkpt lat="42.468851000" lon="-2.561540000">
        <ele>430.70</ele>
        <time>2017-02-11T08:53:22Z</time>
      </trkpt>
      <trkpt lat="42.468834000" lon="-2.561505000">
        <ele>430.80</ele>
        <time>2017-02-11T08:53:23Z</time>
      </trkpt>
      <trkpt lat="42.468827000" lon="-2.561448000">
        <ele>430.80</ele>
        <time>2017-02-11T08:53:24Z</time>
      </trkpt>
      <trkpt lat="42.468812000" lon="-2.561416000">
        <ele>430.90</ele>
        <time>2017-02-11T08:53:25Z</time>
      </trkpt>
      <trkpt lat="42.468796000" lon="-2.561383000">
        <ele>430.80</ele>
        <time>2017-02-11T08:53:26Z</time>
      </trkpt>
      <trkpt lat="42.468782000" lon="-2.561355000">
        <ele>430.70</ele>
        <time>2017-02-11T08:53:27Z</time>
      </trkpt>
      <trkpt lat="42.468761000" lon="-2.561325000">
        <ele>430.50</ele>
        <time>2017-02-11T08:53:28Z</time>
      </trkpt>
      <trkpt lat="42.468740000" lon="-2.561298000">
        <ele>430.40</ele>
        <time>2017-02-11T08:53:29Z</time>
      </trkpt>
      <trkpt lat="42.468716000" lon="-2.561273000">
        <ele>430.30</ele>
        <time>2017-02-11T08:53:30Z</time>
      </trkpt>
      <trkpt lat="42.468695000" lon="-2.561248000">
        <ele>430.20</ele>
        <time>2017-02-11T08:53:31Z</time>
      </trkpt>
      <trkpt lat="42.468668000" lon="-2.561226000">
        <ele>430.10</ele>
        <time>2017-02-11T08:53:32Z</time>
      </trkpt>
      <trkpt lat="42.468641000" lon="-2.561205000">
        <ele>430.00</ele>
        <time>2017-02-11T08:53:33Z</time>
      </trkpt>
      <trkpt lat="42.468615000" lon="-2.561185000">
        <ele>430.00</ele>
        <time>2017-02-11T08:53:34Z</time>
      </trkpt>
      <trkpt lat="42.468593000" lon="-2.561161000">
        <ele>430.00</ele>
        <time>2017-02-11T08:53:35Z</time>
      </trkpt>
      <trkpt lat="42.468574000" lon="-2.561134000">
        <ele>430.00</ele>
        <time>2017-02-11T08:53:36Z</time>
      </trkpt>
      <trkpt lat="42.468556000" lon="-2.561107000">
        <ele>430.00</ele>
        <time>2017-02-11T08:53:37Z</time>
      </trkpt>
      <trkpt lat="42.468542000" lon="-2.561082000">
        <ele>430.00</ele>
        <time>2017-02-11T08:53:38Z</time>
      </trkpt>
      <trkpt lat="42.468528000" lon="-2.561060000">
        <ele>430.00</ele>
        <time>2017-02-11T08:53:39Z</time>
      </trkpt>
      <trkpt lat="42.468514000" lon="-2.561039000">
        <ele>430.00</ele>
        <time>2017-02-11T08:53:40Z</time>
      </trkpt>
      <trkpt lat="42.468499000" lon="-2.561016000">
        <ele>430.00</ele>
        <time>2017-02-11T08:53:41Z</time>
      </trkpt>
      <trkpt lat="42.468485000" lon="-2.560998000">
        <ele>430.00</ele>
        <time>2017-02-11T08:53:42Z</time>
      </trkpt>
      <trkpt lat="42.468465000" lon="-2.560995000">
        <ele>430.00</ele>
        <time>2017-02-11T08:53:43Z</time>
      </trkpt>
      <trkpt lat="42.468444000" lon="-2.561001000">
        <ele>430.30</ele>
        <time>2017-02-11T08:53:44Z</time>
      </trkpt>
      <trkpt lat="42.468424000" lon="-2.561017000">
        <ele>430.60</ele>
        <time>2017-02-11T08:53:45Z</time>
      </trkpt>
      <trkpt lat="42.468401000" lon="-2.561035000">
        <ele>430.80</ele>
        <time>2017-02-11T08:53:46Z</time>
      </trkpt>
      <trkpt lat="42.468380000" lon="-2.561059000">
        <ele>431.00</ele>
        <time>2017-02-11T08:53:47Z</time>
      </trkpt>
      <trkpt lat="42.468360000" lon="-2.561083000">
        <ele>431.20</ele>
        <time>2017-02-11T08:53:48Z</time>
      </trkpt>
      <trkpt lat="42.468337000" lon="-2.561110000">
        <ele>431.30</ele>
        <time>2017-02-11T08:53:49Z</time>
      </trkpt>
      <trkpt lat="42.468313000" lon="-2.561137000">
        <ele>431.20</ele>
        <time>2017-02-11T08:53:50Z</time>
      </trkpt>
      <trkpt lat="42.468292000" lon="-2.561161000">
        <ele>431.10</ele>
        <time>2017-02-11T08:53:51Z</time>
      </trkpt>
      <trkpt lat="42.468271000" lon="-2.561189000">
        <ele>430.90</ele>
        <time>2017-02-11T08:53:52Z</time>
      </trkpt>
      <trkpt lat="42.468249000" lon="-2.561216000">
        <ele>430.80</ele>
        <time>2017-02-11T08:53:53Z</time>
      </trkpt>
      <trkpt lat="42.468224000" lon="-2.561241000">
        <ele>430.80</ele>
        <time>2017-02-11T08:53:54Z</time>
      </trkpt>
      <trkpt lat="42.468197000" lon="-2.561264000">
        <ele>430.70</ele>
        <time>2017-02-11T08:53:55Z</time>
      </trkpt>
      <trkpt lat="42.468172000" lon="-2.561284000">
        <ele>430.70</ele>
        <time>2017-02-11T08:53:56Z</time>
      </trkpt>
      <trkpt lat="42.468143000" lon="-2.561304000">
        <ele>430.60</ele>
        <time>2017-02-11T08:53:57Z</time>
      </trkpt>
      <trkpt lat="42.468112000" lon="-2.561310000">
        <ele>430.60</ele>
        <time>2017-02-11T08:53:58Z</time>
      </trkpt>
      <trkpt lat="42.468084000" lon="-2.561321000">
        <ele>430.60</ele>
        <time>2017-02-11T08:53:59Z</time>
      </trkpt>
      <trkpt lat="42.468054000" lon="-2.561327000">
        <ele>430.60</ele>
        <time>2017-02-11T08:54:00Z</time>
      </trkpt>
      <trkpt lat="42.468025000" lon="-2.561334000">
        <ele>430.60</ele>
        <time>2017-02-11T08:54:01Z</time>
      </trkpt>
      <trkpt lat="42.467994000" lon="-2.561341000">
        <ele>430.60</ele>
        <time>2017-02-11T08:54:02Z</time>
      </trkpt>
      <trkpt lat="42.467963000" lon="-2.561343000">
        <ele>430.70</ele>
        <time>2017-02-11T08:54:03Z</time>
      </trkpt>
      <trkpt lat="42.467936000" lon="-2.561348000">
        <ele>430.80</ele>
        <time>2017-02-11T08:54:04Z</time>
      </trkpt>
      <trkpt lat="42.467906000" lon="-2.561348000">
        <ele>431.00</ele>
        <time>2017-02-11T08:54:05Z</time>
      </trkpt>
      <trkpt lat="42.467875000" lon="-2.561349000">
        <ele>431.00</ele>
        <time>2017-02-11T08:54:06Z</time>
      </trkpt>
      <trkpt lat="42.467844000" lon="-2.561347000">
        <ele>431.00</ele>
        <time>2017-02-11T08:54:07Z</time>
      </trkpt>
      <trkpt lat="42.467813000" lon="-2.561347000">
        <ele>431.00</ele>
        <time>2017-02-11T08:54:08Z</time>
      </trkpt>
      <trkpt lat="42.467782000" lon="-2.561347000">
        <ele>431.00</ele>
        <time>2017-02-11T08:54:09Z</time>
      </trkpt>
      <trkpt lat="42.467751000" lon="-2.561347000">
        <ele>431.00</ele>
        <time>2017-02-11T08:54:10Z</time>
      </trkpt>
      <trkpt lat="42.467719000" lon="-2.561349000">
        <ele>430.90</ele>
        <time>2017-02-11T08:54:11Z</time>
      </trkpt>
      <trkpt lat="42.467690000" lon="-2.561353000">
        <ele>430.90</ele>
        <time>2017-02-11T08:54:12Z</time>
      </trkpt>
      <trkpt lat="42.467660000" lon="-2.561353000">
        <ele>430.90</ele>
        <time>2017-02-11T08:54:13Z</time>
      </trkpt>
      <trkpt lat="42.467622000" lon="-2.561353000">
        <ele>430.90</ele>
        <time>2017-02-11T08:54:14Z</time>
      </trkpt>
      <trkpt lat="42.467582000" lon="-2.561343000">
        <ele>431.00</ele>
        <time>2017-02-11T08:54:15Z</time>
      </trkpt>
      <trkpt lat="42.467549000" lon="-2.561342000">
        <ele>431.00</ele>
        <time>2017-02-11T08:54:16Z</time>
      </trkpt>
      <trkpt lat="42.467483000" lon="-2.561363000">
        <ele>431.20</ele>
        <time>2017-02-11T08:54:18Z</time>
      </trkpt>
      <trkpt lat="42.467451000" lon="-2.561370000">
        <ele>431.30</ele>
        <time>2017-02-11T08:54:19Z</time>
      </trkpt>
      <trkpt lat="42.467418000" lon="-2.561375000">
        <ele>431.50</ele>
        <time>2017-02-11T08:54:20Z</time>
      </trkpt>
      <trkpt lat="42.467385000" lon="-2.561376000">
        <ele>431.60</ele>
        <time>2017-02-11T08:54:21Z</time>
      </trkpt>
      <trkpt lat="42.467355000" lon="-2.561378000">
        <ele>431.80</ele>
        <time>2017-02-11T08:54:22Z</time>
      </trkpt>
      <trkpt lat="42.467325000" lon="-2.561376000">
        <ele>431.90</ele>
        <time>2017-02-11T08:54:23Z</time>
      </trkpt>
      <trkpt lat="42.467296000" lon="-2.561380000">
        <ele>432.00</ele>
        <time>2017-02-11T08:54:24Z</time>
      </trkpt>
      <trkpt lat="42.467269000" lon="-2.561381000">
        <ele>432.10</ele>
        <time>2017-02-11T08:54:25Z</time>
      </trkpt>
      <trkpt lat="42.467246000" lon="-2.561386000">
        <ele>432.10</ele>
        <time>2017-02-11T08:54:26Z</time>
      </trkpt>
      <trkpt lat="42.467230000" lon="-2.561390000">
        <ele>432.20</ele>
        <time>2017-02-11T08:54:27Z</time>
      </trkpt>
      <trkpt lat="42.467212000" lon="-2.561396000">
        <ele>432.10</ele>
        <time>2017-02-11T08:54:28Z</time>
      </trkpt>
      <trkpt lat="42.467196000" lon="-2.561399000">
        <ele>432.10</ele>
        <time>2017-02-11T08:54:29Z</time>
      </trkpt>
      <trkpt lat="42.467182000" lon="-2.561401000">
        <ele>432.10</ele>
        <time>2017-02-11T08:54:30Z</time>
      </trkpt>
      <trkpt lat="42.467166000" lon="-2.561402000">
        <ele>432.10</ele>
        <time>2017-02-11T08:54:31Z</time>
      </trkpt>
      <trkpt lat="42.467150000" lon="-2.561404000">
        <ele>432.10</ele>
        <time>2017-02-11T08:54:32Z</time>
      </trkpt>
      <trkpt lat="42.467137000" lon="-2.561407000">
        <ele>432.00</ele>
        <time>2017-02-11T08:54:33Z</time>
      </trkpt>
      <trkpt lat="42.467121000" lon="-2.561410000">
        <ele>432.10</ele>
        <time>2017-02-11T08:54:34Z</time>
      </trkpt>
      <trkpt lat="42.467104000" lon="-2.561413000">
        <ele>432.10</ele>
        <time>2017-02-11T08:54:35Z</time>
      </trkpt>
      <trkpt lat="42.467078000" lon="-2.561399000">
        <ele>432.30</ele>
        <time>2017-02-11T08:54:36Z</time>
      </trkpt>
      <trkpt lat="42.467060000" lon="-2.561373000">
        <ele>432.50</ele>
        <time>2017-02-11T08:54:37Z</time>
      </trkpt>
      <trkpt lat="42.467047000" lon="-2.561334000">
        <ele>432.50</ele>
        <time>2017-02-11T08:54:38Z</time>
      </trkpt>
      <trkpt lat="42.467013000" lon="-2.561281000">
        <ele>432.40</ele>
        <time>2017-02-11T08:54:39Z</time>
      </trkpt>
      <trkpt lat="42.466985000" lon="-2.561269000">
        <ele>432.40</ele>
        <time>2017-02-11T08:54:40Z</time>
      </trkpt>
      <trkpt lat="42.466968000" lon="-2.561252000">
        <ele>432.40</ele>
        <time>2017-02-11T08:54:41Z</time>
      </trkpt>
      <trkpt lat="42.466945000" lon="-2.561243000">
        <ele>432.40</ele>
        <time>2017-02-11T08:54:42Z</time>
      </trkpt>
      <trkpt lat="42.466929000" lon="-2.561229000">
        <ele>432.40</ele>
        <time>2017-02-11T08:54:43Z</time>
      </trkpt>
      <trkpt lat="42.466916000" lon="-2.561211000">
        <ele>432.70</ele>
        <time>2017-02-11T08:54:44Z</time>
      </trkpt>
      <trkpt lat="42.466902000" lon="-2.561212000">
        <ele>432.90</ele>
        <time>2017-02-11T08:54:45Z</time>
      </trkpt>
      <trkpt lat="42.466902000" lon="-2.561213000">
        <ele>433.10</ele>
        <time>2017-02-11T08:54:46Z</time>
      </trkpt>
      <trkpt lat="42.466900000" lon="-2.561215000">
        <ele>433.30</ele>
        <time>2017-02-11T08:54:47Z</time>
      </trkpt>
      <trkpt lat="42.466897000" lon="-2.561214000">
        <ele>433.40</ele>
        <time>2017-02-11T08:54:48Z</time>
      </trkpt>
      <trkpt lat="42.466895000" lon="-2.561214000">
        <ele>433.50</ele>
        <time>2017-02-11T08:54:49Z</time>
      </trkpt>
      <trkpt lat="42.466892000" lon="-2.561211000">
        <ele>433.40</ele>
        <time>2017-02-11T08:54:50Z</time>
      </trkpt>
      <trkpt lat="42.466888000" lon="-2.561208000">
        <ele>433.40</ele>
        <time>2017-02-11T08:54:51Z</time>
      </trkpt>
      <trkpt lat="42.466883000" lon="-2.561209000">
        <ele>433.30</ele>
        <time>2017-02-11T08:54:52Z</time>
      </trkpt>
      <trkpt lat="42.466881000" lon="-2.561210000">
        <ele>433.30</ele>
        <time>2017-02-11T08:54:53Z</time>
      </trkpt>
      <trkpt lat="42.466880000" lon="-2.561210000">
        <ele>433.20</ele>
        <time>2017-02-11T08:54:54Z</time>
      </trkpt>
      <trkpt lat="42.466876000" lon="-2.561209000">
        <ele>433.10</ele>
        <time>2017-02-11T08:54:55Z</time>
      </trkpt>
      <trkpt lat="42.466873000" lon="-2.561208000">
        <ele>433.00</ele>
        <time>2017-02-11T08:54:56Z</time>
      </trkpt>
      <trkpt lat="42.466866000" lon="-2.561211000">
        <ele>433.00</ele>
        <time>2017-02-11T08:54:57Z</time>
      </trkpt>
      <trkpt lat="42.466863000" lon="-2.561218000">
        <ele>433.00</ele>
        <time>2017-02-11T08:54:58Z</time>
      </trkpt>
      <trkpt lat="42.466861000" lon="-2.561221000">
        <ele>433.00</ele>
        <time>2017-02-11T08:54:59Z</time>
      </trkpt>
      <trkpt lat="42.466860000" lon="-2.561221000">
        <ele>432.80</ele>
        <time>2017-02-11T08:55:00Z</time>
      </trkpt>
      <trkpt lat="42.466859000" lon="-2.561220000">
        <ele>432.70</ele>
        <time>2017-02-11T08:55:01Z</time>
      </trkpt>
      <trkpt lat="42.466857000" lon="-2.561216000">
        <ele>432.90</ele>
        <time>2017-02-11T08:55:02Z</time>
      </trkpt>
      <trkpt lat="42.466855000" lon="-2.561209000">
        <ele>433.00</ele>
        <time>2017-02-11T08:55:03Z</time>
      </trkpt>
      <trkpt lat="42.466853000" lon="-2.561202000">
        <ele>433.10</ele>
        <time>2017-02-11T08:55:04Z</time>
      </trkpt>
      <trkpt lat="42.466851000" lon="-2.561194000">
        <ele>433.20</ele>
        <time>2017-02-11T08:55:05Z</time>
      </trkpt>
      <trkpt lat="42.466850000" lon="-2.561189000">
        <ele>433.20</ele>
        <time>2017-02-11T08:55:06Z</time>
      </trkpt>
      <trkpt lat="42.466851000" lon="-2.561189000">
        <ele>433.40</ele>
        <time>2017-02-11T08:55:07Z</time>
      </trkpt>
      <trkpt lat="42.466852000" lon="-2.561188000">
        <ele>433.50</ele>
        <time>2017-02-11T08:55:08Z</time>
      </trkpt>
      <trkpt lat="42.466851000" lon="-2.561187000">
        <ele>433.20</ele>
        <time>2017-02-11T08:55:09Z</time>
      </trkpt>
      <trkpt lat="42.466848000" lon="-2.561183000">
        <ele>433.00</ele>
        <time>2017-02-11T08:55:10Z</time>
      </trkpt>
      <trkpt lat="42.466846000" lon="-2.561177000">
        <ele>433.00</ele>
        <time>2017-02-11T08:55:11Z</time>
      </trkpt>
      <trkpt lat="42.466845000" lon="-2.561170000">
        <ele>433.00</ele>
        <time>2017-02-11T08:55:12Z</time>
      </trkpt>
      <trkpt lat="42.466846000" lon="-2.561163000">
        <ele>432.90</ele>
        <time>2017-02-11T08:55:13Z</time>
      </trkpt>
      <trkpt lat="42.466845000" lon="-2.561158000">
        <ele>432.90</ele>
        <time>2017-02-11T08:55:14Z</time>
      </trkpt>
      <trkpt lat="42.466843000" lon="-2.561152000">
        <ele>432.90</ele>
        <time>2017-02-11T08:55:15Z</time>
      </trkpt>
      <trkpt lat="42.466840000" lon="-2.561149000">
        <ele>432.90</ele>
        <time>2017-02-11T08:55:16Z</time>
      </trkpt>
      <trkpt lat="42.466838000" lon="-2.561146000">
        <ele>433.20</ele>
        <time>2017-02-11T08:55:17Z</time>
      </trkpt>
      <trkpt lat="42.466834000" lon="-2.561141000">
        <ele>433.50</ele>
        <time>2017-02-11T08:55:19Z</time>
      </trkpt>
      <trkpt lat="42.466834000" lon="-2.561143000">
        <ele>433.60</ele>
        <time>2017-02-11T08:55:20Z</time>
      </trkpt>
      <trkpt lat="42.466832000" lon="-2.561147000">
        <ele>433.60</ele>
        <time>2017-02-11T08:55:21Z</time>
      </trkpt>
      <trkpt lat="42.466830000" lon="-2.561148000">
        <ele>433.50</ele>
        <time>2017-02-11T08:55:22Z</time>
      </trkpt>
      <trkpt lat="42.466828000" lon="-2.561148000">
        <ele>433.50</ele>
        <time>2017-02-11T08:55:23Z</time>
      </trkpt>
      <trkpt lat="42.466826000" lon="-2.561146000">
        <ele>433.50</ele>
        <time>2017-02-11T08:55:24Z</time>
      </trkpt>
      <trkpt lat="42.466825000" lon="-2.561147000">
        <ele>433.40</ele>
        <time>2017-02-11T08:55:25Z</time>
      </trkpt>
      <trkpt lat="42.466823000" lon="-2.561149000">
        <ele>433.40</ele>
        <time>2017-02-11T08:55:26Z</time>
      </trkpt>
      <trkpt lat="42.466821000" lon="-2.561154000">
        <ele>433.30</ele>
        <time>2017-02-11T08:55:27Z</time>
      </trkpt>
      <trkpt lat="42.466819000" lon="-2.561158000">
        <ele>433.30</ele>
        <time>2017-02-11T08:55:28Z</time>
      </trkpt>
      <trkpt lat="42.466818000" lon="-2.561160000">
        <ele>433.30</ele>
        <time>2017-02-11T08:55:29Z</time>
      </trkpt>
      <trkpt lat="42.466816000" lon="-2.561161000">
        <ele>433.30</ele>
        <time>2017-02-11T08:55:30Z</time>
      </trkpt>
      <trkpt lat="42.466815000" lon="-2.561160000">
        <ele>433.40</ele>
        <time>2017-02-11T08:55:31Z</time>
      </trkpt>
      <trkpt lat="42.466812000" lon="-2.561161000">
        <ele>433.50</ele>
        <time>2017-02-11T08:55:32Z</time>
      </trkpt>
      <trkpt lat="42.466810000" lon="-2.561164000">
        <ele>433.60</ele>
        <time>2017-02-11T08:55:33Z</time>
      </trkpt>
      <trkpt lat="42.466807000" lon="-2.561164000">
        <ele>433.60</ele>
        <time>2017-02-11T08:55:34Z</time>
      </trkpt>
      <trkpt lat="42.466803000" lon="-2.561163000">
        <ele>433.60</ele>
        <time>2017-02-11T08:55:35Z</time>
      </trkpt>
      <trkpt lat="42.466800000" lon="-2.561160000">
        <ele>433.70</ele>
        <time>2017-02-11T08:55:36Z</time>
      </trkpt>
      <trkpt lat="42.466795000" lon="-2.561159000">
        <ele>433.60</ele>
        <time>2017-02-11T08:55:37Z</time>
      </trkpt>
      <trkpt lat="42.466790000" lon="-2.561159000">
        <ele>433.60</ele>
        <time>2017-02-11T08:55:38Z</time>
      </trkpt>
      <trkpt lat="42.466786000" lon="-2.561158000">
        <ele>433.60</ele>
        <time>2017-02-11T08:55:39Z</time>
      </trkpt>
      <trkpt lat="42.466783000" lon="-2.561156000">
        <ele>433.50</ele>
        <time>2017-02-11T08:55:40Z</time>
      </trkpt>
      <trkpt lat="42.466780000" lon="-2.561154000">
        <ele>433.60</ele>
        <time>2017-02-11T08:55:41Z</time>
      </trkpt>
      <trkpt lat="42.466776000" lon="-2.561152000">
        <ele>433.60</ele>
        <time>2017-02-11T08:55:42Z</time>
      </trkpt>
      <trkpt lat="42.466773000" lon="-2.561150000">
        <ele>433.70</ele>
        <time>2017-02-11T08:55:43Z</time>
      </trkpt>
      <trkpt lat="42.466770000" lon="-2.561150000">
        <ele>433.70</ele>
        <time>2017-02-11T08:55:44Z</time>
      </trkpt>
      <trkpt lat="42.466766000" lon="-2.561150000">
        <ele>433.60</ele>
        <time>2017-02-11T08:55:45Z</time>
      </trkpt>
      <trkpt lat="42.466762000" lon="-2.561150000">
        <ele>433.50</ele>
        <time>2017-02-11T08:55:46Z</time>
      </trkpt>
      <trkpt lat="42.466763000" lon="-2.561145000">
        <ele>433.40</ele>
        <time>2017-02-11T08:55:47Z</time>
      </trkpt>
      <trkpt lat="42.466761000" lon="-2.561138000">
        <ele>433.40</ele>
        <time>2017-02-11T08:55:48Z</time>
      </trkpt>
      <trkpt lat="42.466760000" lon="-2.561130000">
        <ele>433.30</ele>
        <time>2017-02-11T08:55:49Z</time>
      </trkpt>
      <trkpt lat="42.466758000" lon="-2.561124000">
        <ele>433.20</ele>
        <time>2017-02-11T08:55:50Z</time>
      </trkpt>
      <trkpt lat="42.466755000" lon="-2.561118000">
        <ele>433.30</ele>
        <time>2017-02-11T08:55:51Z</time>
      </trkpt>
      <trkpt lat="42.466752000" lon="-2.561113000">
        <ele>433.30</ele>
        <time>2017-02-11T08:55:52Z</time>
      </trkpt>
      <trkpt lat="42.466750000" lon="-2.561108000">
        <ele>433.30</ele>
        <time>2017-02-11T08:55:53Z</time>
      </trkpt>
      <trkpt lat="42.466749000" lon="-2.561103000">
        <ele>433.30</ele>
        <time>2017-02-11T08:55:54Z</time>
      </trkpt>
      <trkpt lat="42.466748000" lon="-2.561098000">
        <ele>433.30</ele>
        <time>2017-02-11T08:55:55Z</time>
      </trkpt>
      <trkpt lat="42.466747000" lon="-2.561096000">
        <ele>433.30</ele>
        <time>2017-02-11T08:55:56Z</time>
      </trkpt>
      <trkpt lat="42.466747000" lon="-2.561095000">
        <ele>433.30</ele>
        <time>2017-02-11T08:55:57Z</time>
      </trkpt>
      <trkpt lat="42.466748000" lon="-2.561093000">
        <ele>433.20</ele>
        <time>2017-02-11T08:55:58Z</time>
      </trkpt>
      <trkpt lat="42.466748000" lon="-2.561090000">
        <ele>433.40</ele>
        <time>2017-02-11T08:55:59Z</time>
      </trkpt>
      <trkpt lat="42.466749000" lon="-2.561090000">
        <ele>433.50</ele>
        <time>2017-02-11T08:56:00Z</time>
      </trkpt>
      <trkpt lat="42.466749000" lon="-2.561087000">
        <ele>433.50</ele>
        <time>2017-02-11T08:56:01Z</time>
      </trkpt>
      <trkpt lat="42.466748000" lon="-2.561084000">
        <ele>433.60</ele>
        <time>2017-02-11T08:56:02Z</time>
      </trkpt>
      <trkpt lat="42.466747000" lon="-2.561080000">
        <ele>433.60</ele>
        <time>2017-02-11T08:56:03Z</time>
      </trkpt>
      <trkpt lat="42.466748000" lon="-2.561077000">
        <ele>433.50</ele>
        <time>2017-02-11T08:56:04Z</time>
      </trkpt>
      <trkpt lat="42.466749000" lon="-2.561075000">
        <ele>433.50</ele>
        <time>2017-02-11T08:56:05Z</time>
      </trkpt>
      <trkpt lat="42.466750000" lon="-2.561073000">
        <ele>433.50</ele>
        <time>2017-02-11T08:56:06Z</time>
      </trkpt>
      <trkpt lat="42.466752000" lon="-2.561073000">
        <ele>433.50</ele>
        <time>2017-02-11T08:56:07Z</time>
      </trkpt>
      <trkpt lat="42.466752000" lon="-2.561074000">
        <ele>433.40</ele>
        <time>2017-02-11T08:56:08Z</time>
      </trkpt>
      <trkpt lat="42.466755000" lon="-2.561076000">
        <ele>433.40</ele>
        <time>2017-02-11T08:56:09Z</time>
      </trkpt>
      <trkpt lat="42.466757000" lon="-2.561078000">
        <ele>433.30</ele>
        <time>2017-02-11T08:56:10Z</time>
      </trkpt>
      <trkpt lat="42.466759000" lon="-2.561073000">
        <ele>433.20</ele>
        <time>2017-02-11T08:56:11Z</time>
      </trkpt>
      <trkpt lat="42.466761000" lon="-2.561071000">
        <ele>433.10</ele>
        <time>2017-02-11T08:56:12Z</time>
      </trkpt>
      <trkpt lat="42.466764000" lon="-2.561069000">
        <ele>433.00</ele>
        <time>2017-02-11T08:56:13Z</time>
      </trkpt>
      <trkpt lat="42.466769000" lon="-2.561067000">
        <ele>432.90</ele>
        <time>2017-02-11T08:56:14Z</time>
      </trkpt>
      <trkpt lat="42.466772000" lon="-2.561068000">
        <ele>432.90</ele>
        <time>2017-02-11T08:56:15Z</time>
      </trkpt>
      <trkpt lat="42.466775000" lon="-2.561070000">
        <ele>432.80</ele>
        <time>2017-02-11T08:56:16Z</time>
      </trkpt>
      <trkpt lat="42.466779000" lon="-2.561072000">
        <ele>432.90</ele>
        <time>2017-02-11T08:56:17Z</time>
      </trkpt>
      <trkpt lat="42.466786000" lon="-2.561072000">
        <ele>433.00</ele>
        <time>2017-02-11T08:56:18Z</time>
      </trkpt>
      <trkpt lat="42.466801000" lon="-2.561074000">
        <ele>433.10</ele>
        <time>2017-02-11T08:56:20Z</time>
      </trkpt>
      <trkpt lat="42.466809000" lon="-2.561075000">
        <ele>433.10</ele>
        <time>2017-02-11T08:56:21Z</time>
      </trkpt>
      <trkpt lat="42.466817000" lon="-2.561075000">
        <ele>433.20</ele>
        <time>2017-02-11T08:56:22Z</time>
      </trkpt>
      <trkpt lat="42.466825000" lon="-2.561075000">
        <ele>433.00</ele>
        <time>2017-02-11T08:56:23Z</time>
      </trkpt>
      <trkpt lat="42.466832000" lon="-2.561077000">
        <ele>433.00</ele>
        <time>2017-02-11T08:56:24Z</time>
      </trkpt>
      <trkpt lat="42.466837000" lon="-2.561079000">
        <ele>432.80</ele>
        <time>2017-02-11T08:56:25Z</time>
      </trkpt>
      <trkpt lat="42.466842000" lon="-2.561081000">
        <ele>432.70</ele>
        <time>2017-02-11T08:56:26Z</time>
      </trkpt>
      <trkpt lat="42.466850000" lon="-2.561077000">
        <ele>432.70</ele>
        <time>2017-02-11T08:56:27Z</time>
      </trkpt>
      <trkpt lat="42.466854000" lon="-2.561080000">
        <ele>432.60</ele>
        <time>2017-02-11T08:56:28Z</time>
      </trkpt>
      <trkpt lat="42.466858000" lon="-2.561082000">
        <ele>432.50</ele>
        <time>2017-02-11T08:56:29Z</time>
      </trkpt>
      <trkpt lat="42.466865000" lon="-2.561079000">
        <ele>432.40</ele>
        <time>2017-02-11T08:56:30Z</time>
      </trkpt>
      <trkpt lat="42.466868000" lon="-2.561080000">
        <ele>432.30</ele>
        <time>2017-02-11T08:56:31Z</time>
      </trkpt>
      <trkpt lat="42.466872000" lon="-2.561083000">
        <ele>432.20</ele>
        <time>2017-02-11T08:56:32Z</time>
      </trkpt>
      <trkpt lat="42.466874000" lon="-2.561086000">
        <ele>432.30</ele>
        <time>2017-02-11T08:56:33Z</time>
      </trkpt>
      <trkpt lat="42.466878000" lon="-2.561087000">
        <ele>432.40</ele>
        <time>2017-02-11T08:56:34Z</time>
      </trkpt>
      <trkpt lat="42.466880000" lon="-2.561088000">
        <ele>432.50</ele>
        <time>2017-02-11T08:56:35Z</time>
      </trkpt>
      <trkpt lat="42.466884000" lon="-2.561089000">
        <ele>432.60</ele>
        <time>2017-02-11T08:56:36Z</time>
      </trkpt>
      <trkpt lat="42.466887000" lon="-2.561089000">
        <ele>432.70</ele>
        <time>2017-02-11T08:56:37Z</time>
      </trkpt>
      <trkpt lat="42.466892000" lon="-2.561090000">
        <ele>432.70</ele>
        <time>2017-02-11T08:56:38Z</time>
      </trkpt>
      <trkpt lat="42.466897000" lon="-2.561090000">
        <ele>432.90</ele>
        <time>2017-02-11T08:56:39Z</time>
      </trkpt>
      <trkpt lat="42.466901000" lon="-2.561091000">
        <ele>433.10</ele>
        <time>2017-02-11T08:56:40Z</time>
      </trkpt>
      <trkpt lat="42.466903000" lon="-2.561090000">
        <ele>433.20</ele>
        <time>2017-02-11T08:56:41Z</time>
      </trkpt>
      <trkpt lat="42.466905000" lon="-2.561089000">
        <ele>433.30</ele>
        <time>2017-02-11T08:56:42Z</time>
      </trkpt>
      <trkpt lat="42.466909000" lon="-2.561088000">
        <ele>433.20</ele>
        <time>2017-02-11T08:56:43Z</time>
      </trkpt>
      <trkpt lat="42.466911000" lon="-2.561086000">
        <ele>433.20</ele>
        <time>2017-02-11T08:56:44Z</time>
      </trkpt>
      <trkpt lat="42.466915000" lon="-2.561084000">
        <ele>433.20</ele>
        <time>2017-02-11T08:56:45Z</time>
      </trkpt>
      <trkpt lat="42.466917000" lon="-2.561084000">
        <ele>433.20</ele>
        <time>2017-02-11T08:56:46Z</time>
      </trkpt>
      <trkpt lat="42.466919000" lon="-2.561084000">
        <ele>433.20</ele>
        <time>2017-02-11T08:56:47Z</time>
      </trkpt>
      <trkpt lat="42.466920000" lon="-2.561084000">
        <ele>433.20</ele>
        <time>2017-02-11T08:56:48Z</time>
      </trkpt>
      <trkpt lat="42.466921000" lon="-2.561085000">
        <ele>433.20</ele>
        <time>2017-02-11T08:56:49Z</time>
      </trkpt>
      <trkpt lat="42.466922000" lon="-2.561087000">
        <ele>433.20</ele>
        <time>2017-02-11T08:56:50Z</time>
      </trkpt>
      <trkpt lat="42.466921000" lon="-2.561090000">
        <ele>433.20</ele>
        <time>2017-02-11T08:56:51Z</time>
      </trkpt>
      <trkpt lat="42.466920000" lon="-2.561092000">
        <ele>433.20</ele>
        <time>2017-02-11T08:56:52Z</time>
      </trkpt>
      <trkpt lat="42.466919000" lon="-2.561094000">
        <ele>433.20</ele>
        <time>2017-02-11T08:56:53Z</time>
      </trkpt>
      <trkpt lat="42.466918000" lon="-2.561096000">
        <ele>433.10</ele>
        <time>2017-02-11T08:56:54Z</time>
      </trkpt>
      <trkpt lat="42.466916000" lon="-2.561100000">
        <ele>433.10</ele>
        <time>2017-02-11T08:56:55Z</time>
      </trkpt>
      <trkpt lat="42.466914000" lon="-2.561105000">
        <ele>433.10</ele>
        <time>2017-02-11T08:56:56Z</time>
      </trkpt>
      <trkpt lat="42.466912000" lon="-2.561109000">
        <ele>433.00</ele>
        <time>2017-02-11T08:56:57Z</time>
      </trkpt>
      <trkpt lat="42.466908000" lon="-2.561110000">
        <ele>433.00</ele>
        <time>2017-02-11T08:56:58Z</time>
      </trkpt>
      <trkpt lat="42.466905000" lon="-2.561113000">
        <ele>433.10</ele>
        <time>2017-02-11T08:56:59Z</time>
      </trkpt>
      <trkpt lat="42.466904000" lon="-2.561116000">
        <ele>433.10</ele>
        <time>2017-02-11T08:57:00Z</time>
      </trkpt>
      <trkpt lat="42.466902000" lon="-2.561118000">
        <ele>433.10</ele>
        <time>2017-02-11T08:57:01Z</time>
      </trkpt>
      <trkpt lat="42.466899000" lon="-2.561122000">
        <ele>433.20</ele>
        <time>2017-02-11T08:57:02Z</time>
      </trkpt>
      <trkpt lat="42.466896000" lon="-2.561126000">
        <ele>433.30</ele>
        <time>2017-02-11T08:57:03Z</time>
      </trkpt>
      <trkpt lat="42.466894000" lon="-2.561127000">
        <ele>433.40</ele>
        <time>2017-02-11T08:57:04Z</time>
      </trkpt>
      <trkpt lat="42.466892000" lon="-2.561129000">
        <ele>433.40</ele>
        <time>2017-02-11T08:57:05Z</time>
      </trkpt>
      <trkpt lat="42.466892000" lon="-2.561131000">
        <ele>433.30</ele>
        <time>2017-02-11T08:57:06Z</time>
      </trkpt>
      <trkpt lat="42.466892000" lon="-2.561134000">
        <ele>433.30</ele>
        <time>2017-02-11T08:57:07Z</time>
      </trkpt>
      <trkpt lat="42.466894000" lon="-2.561135000">
        <ele>433.30</ele>
        <time>2017-02-11T08:57:08Z</time>
      </trkpt>
      <trkpt lat="42.466894000" lon="-2.561139000">
        <ele>433.30</ele>
        <time>2017-02-11T08:57:09Z</time>
      </trkpt>
      <trkpt lat="42.466894000" lon="-2.561143000">
        <ele>433.30</ele>
        <time>2017-02-11T08:57:10Z</time>
      </trkpt>
      <trkpt lat="42.466895000" lon="-2.561145000">
        <ele>433.30</ele>
        <time>2017-02-11T08:57:11Z</time>
      </trkpt>
      <trkpt lat="42.466896000" lon="-2.561146000">
        <ele>433.30</ele>
        <time>2017-02-11T08:57:12Z</time>
      </trkpt>
      <trkpt lat="42.466899000" lon="-2.561147000">
        <ele>433.20</ele>
        <time>2017-02-11T08:57:13Z</time>
      </trkpt>
      <trkpt lat="42.466901000" lon="-2.561152000">
        <ele>433.20</ele>
        <time>2017-02-11T08:57:14Z</time>
      </trkpt>
      <trkpt lat="42.466903000" lon="-2.561157000">
        <ele>433.00</ele>
        <time>2017-02-11T08:57:15Z</time>
      </trkpt>
      <trkpt lat="42.466903000" lon="-2.561159000">
        <ele>432.90</ele>
        <time>2017-02-11T08:57:16Z</time>
      </trkpt>
      <trkpt lat="42.466902000" lon="-2.561162000">
        <ele>432.80</ele>
        <time>2017-02-11T08:57:17Z</time>
      </trkpt>
      <trkpt lat="42.466902000" lon="-2.561165000">
        <ele>432.70</ele>
        <time>2017-02-11T08:57:18Z</time>
      </trkpt>
      <trkpt lat="42.466902000" lon="-2.561166000">
        <ele>432.70</ele>
        <time>2017-02-11T08:57:19Z</time>
      </trkpt>
      <trkpt lat="42.466904000" lon="-2.561166000">
        <ele>432.80</ele>
        <time>2017-02-11T08:57:21Z</time>
      </trkpt>
      <trkpt lat="42.466904000" lon="-2.561166000">
        <ele>432.80</ele>
        <time>2017-02-11T08:57:22Z</time>
      </trkpt>
      <trkpt lat="42.466904000" lon="-2.561168000">
        <ele>432.90</ele>
        <time>2017-02-11T08:57:23Z</time>
      </trkpt>
      <trkpt lat="42.466905000" lon="-2.561169000">
        <ele>432.90</ele>
        <time>2017-02-11T08:57:24Z</time>
      </trkpt>
      <trkpt lat="42.466906000" lon="-2.561171000">
        <ele>432.90</ele>
        <time>2017-02-11T08:57:25Z</time>
      </trkpt>
      <trkpt lat="42.466906000" lon="-2.561174000">
        <ele>432.90</ele>
        <time>2017-02-11T08:57:26Z</time>
      </trkpt>
      <trkpt lat="42.466907000" lon="-2.561176000">
        <ele>432.90</ele>
        <time>2017-02-11T08:57:27Z</time>
      </trkpt>
      <trkpt lat="42.466908000" lon="-2.561181000">
        <ele>432.90</ele>
        <time>2017-02-11T08:57:28Z</time>
      </trkpt>
      <trkpt lat="42.466909000" lon="-2.561184000">
        <ele>433.00</ele>
        <time>2017-02-11T08:57:29Z</time>
      </trkpt>
      <trkpt lat="42.466910000" lon="-2.561185000">
        <ele>433.00</ele>
        <time>2017-02-11T08:57:30Z</time>
      </trkpt>
      <trkpt lat="42.466910000" lon="-2.561187000">
        <ele>433.00</ele>
        <time>2017-02-11T08:57:31Z</time>
      </trkpt>
      <trkpt lat="42.466910000" lon="-2.561188000">
        <ele>433.00</ele>
        <time>2017-02-11T08:57:32Z</time>
      </trkpt>
      <trkpt lat="42.466910000" lon="-2.561190000">
        <ele>433.00</ele>
        <time>2017-02-11T08:57:33Z</time>
      </trkpt>
      <trkpt lat="42.466911000" lon="-2.561191000">
        <ele>433.10</ele>
        <time>2017-02-11T08:57:34Z</time>
      </trkpt>
      <trkpt lat="42.466910000" lon="-2.561193000">
        <ele>433.20</ele>
        <time>2017-02-11T08:57:35Z</time>
      </trkpt>
      <trkpt lat="42.466908000" lon="-2.561196000">
        <ele>433.30</ele>
        <time>2017-02-11T08:57:36Z</time>
      </trkpt>
      <trkpt lat="42.466907000" lon="-2.561201000">
        <ele>433.30</ele>
        <time>2017-02-11T08:57:37Z</time>
      </trkpt>
      <trkpt lat="42.466904000" lon="-2.561206000">
        <ele>433.40</ele>
        <time>2017-02-11T08:57:38Z</time>
      </trkpt>
      <trkpt lat="42.466901000" lon="-2.561211000">
        <ele>433.40</ele>
        <time>2017-02-11T08:57:39Z</time>
      </trkpt>
      <trkpt lat="42.466897000" lon="-2.561217000">
        <ele>433.40</ele>
        <time>2017-02-11T08:57:40Z</time>
      </trkpt>
      <trkpt lat="42.466894000" lon="-2.561218000">
        <ele>433.40</ele>
        <time>2017-02-11T08:57:41Z</time>
      </trkpt>
      <trkpt lat="42.466891000" lon="-2.561221000">
        <ele>433.50</ele>
        <time>2017-02-11T08:57:42Z</time>
      </trkpt>
      <trkpt lat="42.466889000" lon="-2.561226000">
        <ele>433.50</ele>
        <time>2017-02-11T08:57:43Z</time>
      </trkpt>
      <trkpt lat="42.466885000" lon="-2.561231000">
        <ele>433.50</ele>
        <time>2017-02-11T08:57:44Z</time>
      </trkpt>
      <trkpt lat="42.466883000" lon="-2.561235000">
        <ele>433.50</ele>
        <time>2017-02-11T08:57:45Z</time>
      </trkpt>
      <trkpt lat="42.466880000" lon="-2.561236000">
        <ele>433.50</ele>
        <time>2017-02-11T08:57:46Z</time>
      </trkpt>
      <trkpt lat="42.466877000" lon="-2.561237000">
        <ele>433.30</ele>
        <time>2017-02-11T08:57:47Z</time>
      </trkpt>
      <trkpt lat="42.466877000" lon="-2.561236000">
        <ele>433.10</ele>
        <time>2017-02-11T08:57:48Z</time>
      </trkpt>
      <trkpt lat="42.466876000" lon="-2.561233000">
        <ele>433.00</ele>
        <time>2017-02-11T08:57:49Z</time>
      </trkpt>
      <trkpt lat="42.466875000" lon="-2.561231000">
        <ele>432.80</ele>
        <time>2017-02-11T08:57:50Z</time>
      </trkpt>
      <trkpt lat="42.466871000" lon="-2.561229000">
        <ele>432.70</ele>
        <time>2017-02-11T08:57:51Z</time>
      </trkpt>
      <trkpt lat="42.466867000" lon="-2.561227000">
        <ele>432.70</ele>
        <time>2017-02-11T08:57:52Z</time>
      </trkpt>
      <trkpt lat="42.466863000" lon="-2.561225000">
        <ele>432.70</ele>
        <time>2017-02-11T08:57:53Z</time>
      </trkpt>
      <trkpt lat="42.466858000" lon="-2.561224000">
        <ele>432.80</ele>
        <time>2017-02-11T08:57:54Z</time>
      </trkpt>
      <trkpt lat="42.466855000" lon="-2.561224000">
        <ele>432.80</ele>
        <time>2017-02-11T08:57:55Z</time>
      </trkpt>
      <trkpt lat="42.466853000" lon="-2.561224000">
        <ele>432.90</ele>
        <time>2017-02-11T08:57:56Z</time>
      </trkpt>
      <trkpt lat="42.466850000" lon="-2.561225000">
        <ele>432.90</ele>
        <time>2017-02-11T08:57:57Z</time>
      </trkpt>
      <trkpt lat="42.466849000" lon="-2.561228000">
        <ele>432.90</ele>
        <time>2017-02-11T08:57:58Z</time>
      </trkpt>
      <trkpt lat="42.466848000" lon="-2.561229000">
        <ele>432.90</ele>
        <time>2017-02-11T08:57:59Z</time>
      </trkpt>
      <trkpt lat="42.466849000" lon="-2.561229000">
        <ele>432.90</ele>
        <time>2017-02-11T08:58:00Z</time>
      </trkpt>
      <trkpt lat="42.466850000" lon="-2.561227000">
        <ele>433.10</ele>
        <time>2017-02-11T08:58:01Z</time>
      </trkpt>
      <trkpt lat="42.466852000" lon="-2.561227000">
        <ele>433.20</ele>
        <time>2017-02-11T08:58:02Z</time>
      </trkpt>
      <trkpt lat="42.466855000" lon="-2.561229000">
        <ele>433.30</ele>
        <time>2017-02-11T08:58:03Z</time>
      </trkpt>
      <trkpt lat="42.466858000" lon="-2.561228000">
        <ele>433.30</ele>
        <time>2017-02-11T08:58:04Z</time>
      </trkpt>
      <trkpt lat="42.466861000" lon="-2.561227000">
        <ele>433.40</ele>
        <time>2017-02-11T08:58:05Z</time>
      </trkpt>
      <trkpt lat="42.466864000" lon="-2.561227000">
        <ele>433.40</ele>
        <time>2017-02-11T08:58:06Z</time>
      </trkpt>
      <trkpt lat="42.466868000" lon="-2.561227000">
        <ele>433.50</ele>
        <time>2017-02-11T08:58:07Z</time>
      </trkpt>
      <trkpt lat="42.466873000" lon="-2.561225000">
        <ele>433.60</ele>
        <time>2017-02-11T08:58:08Z</time>
      </trkpt>
      <trkpt lat="42.466878000" lon="-2.561224000">
        <ele>433.50</ele>
        <time>2017-02-11T08:58:09Z</time>
      </trkpt>
      <trkpt lat="42.466882000" lon="-2.561226000">
        <ele>433.50</ele>
        <time>2017-02-11T08:58:10Z</time>
      </trkpt>
      <trkpt lat="42.466885000" lon="-2.561225000">
        <ele>433.50</ele>
        <time>2017-02-11T08:58:11Z</time>
      </trkpt>
      <trkpt lat="42.466887000" lon="-2.561227000">
        <ele>433.50</ele>
        <time>2017-02-11T08:58:12Z</time>
      </trkpt>
      <trkpt lat="42.466888000" lon="-2.561229000">
        <ele>433.40</ele>
        <time>2017-02-11T08:58:13Z</time>
      </trkpt>
      <trkpt lat="42.466887000" lon="-2.561232000">
        <ele>433.40</ele>
        <time>2017-02-11T08:58:14Z</time>
      </trkpt>
      <trkpt lat="42.466886000" lon="-2.561238000">
        <ele>433.30</ele>
        <time>2017-02-11T08:58:15Z</time>
      </trkpt>
      <trkpt lat="42.466888000" lon="-2.561240000">
        <ele>433.20</ele>
        <time>2017-02-11T08:58:16Z</time>
      </trkpt>
      <trkpt lat="42.466889000" lon="-2.561244000">
        <ele>433.10</ele>
        <time>2017-02-11T08:58:17Z</time>
      </trkpt>
      <trkpt lat="42.466887000" lon="-2.561249000">
        <ele>433.10</ele>
        <time>2017-02-11T08:58:18Z</time>
      </trkpt>
      <trkpt lat="42.466887000" lon="-2.561252000">
        <ele>433.30</ele>
        <time>2017-02-11T08:58:19Z</time>
      </trkpt>
      <trkpt lat="42.466888000" lon="-2.561255000">
        <ele>433.40</ele>
        <time>2017-02-11T08:58:20Z</time>
      </trkpt>
      <trkpt lat="42.466884000" lon="-2.561267000">
        <ele>433.50</ele>
        <time>2017-02-11T08:58:22Z</time>
      </trkpt>
      <trkpt lat="42.466880000" lon="-2.561277000">
        <ele>433.50</ele>
        <time>2017-02-11T08:58:23Z</time>
      </trkpt>
      <trkpt lat="42.466877000" lon="-2.561286000">
        <ele>433.40</ele>
        <time>2017-02-11T08:58:24Z</time>
      </trkpt>
      <trkpt lat="42.466875000" lon="-2.561293000">
        <ele>433.40</ele>
        <time>2017-02-11T08:58:25Z</time>
      </trkpt>
      <trkpt lat="42.466873000" lon="-2.561301000">
        <ele>433.30</ele>
        <time>2017-02-11T08:58:26Z</time>
      </trkpt>
      <trkpt lat="42.466873000" lon="-2.561307000">
        <ele>433.30</ele>
        <time>2017-02-11T08:58:27Z</time>
      </trkpt>
      <trkpt lat="42.466871000" lon="-2.561310000">
        <ele>433.30</ele>
        <time>2017-02-11T08:58:28Z</time>
      </trkpt>
      <trkpt lat="42.466871000" lon="-2.561312000">
        <ele>433.20</ele>
        <time>2017-02-11T08:58:29Z</time>
      </trkpt>
      <trkpt lat="42.466869000" lon="-2.561313000">
        <ele>433.10</ele>
        <time>2017-02-11T08:58:30Z</time>
      </trkpt>
      <trkpt lat="42.466868000" lon="-2.561314000">
        <ele>433.10</ele>
        <time>2017-02-11T08:58:31Z</time>
      </trkpt>
      <trkpt lat="42.466868000" lon="-2.561313000">
        <ele>433.10</ele>
        <time>2017-02-11T08:58:32Z</time>
      </trkpt>
      <trkpt lat="42.466869000" lon="-2.561312000">
        <ele>433.10</ele>
        <time>2017-02-11T08:58:33Z</time>
      </trkpt>
      <trkpt lat="42.466869000" lon="-2.561311000">
        <ele>433.10</ele>
        <time>2017-02-11T08:58:34Z</time>
      </trkpt>
      <trkpt lat="42.466870000" lon="-2.561310000">
        <ele>433.20</ele>
        <time>2017-02-11T08:58:35Z</time>
      </trkpt>
      <trkpt lat="42.466868000" lon="-2.561310000">
        <ele>433.20</ele>
        <time>2017-02-11T08:58:36Z</time>
      </trkpt>
      <trkpt lat="42.466867000" lon="-2.561310000">
        <ele>433.10</ele>
        <time>2017-02-11T08:58:37Z</time>
      </trkpt>
      <trkpt lat="42.466867000" lon="-2.561310000">
        <ele>433.10</ele>
        <time>2017-02-11T08:58:38Z</time>
      </trkpt>
      <trkpt lat="42.466869000" lon="-2.561310000">
        <ele>433.00</ele>
        <time>2017-02-11T08:58:39Z</time>
      </trkpt>
      <trkpt lat="42.466871000" lon="-2.561305000">
        <ele>432.90</ele>
        <time>2017-02-11T08:58:40Z</time>
      </trkpt>
      <trkpt lat="42.466874000" lon="-2.561301000">
        <ele>432.90</ele>
        <time>2017-02-11T08:58:41Z</time>
      </trkpt>
      <trkpt lat="42.466877000" lon="-2.561298000">
        <ele>432.80</ele>
        <time>2017-02-11T08:58:42Z</time>
      </trkpt>
      <trkpt lat="42.466880000" lon="-2.561296000">
        <ele>432.90</ele>
        <time>2017-02-11T08:58:43Z</time>
      </trkpt>
      <trkpt lat="42.466883000" lon="-2.561293000">
        <ele>433.00</ele>
        <time>2017-02-11T08:58:44Z</time>
      </trkpt>
      <trkpt lat="42.466886000" lon="-2.561289000">
        <ele>433.10</ele>
        <time>2017-02-11T08:58:45Z</time>
      </trkpt>
      <trkpt lat="42.466889000" lon="-2.561287000">
        <ele>433.10</ele>
        <time>2017-02-11T08:58:46Z</time>
      </trkpt>
      <trkpt lat="42.466891000" lon="-2.561287000">
        <ele>433.10</ele>
        <time>2017-02-11T08:58:47Z</time>
      </trkpt>
      <trkpt lat="42.466893000" lon="-2.561286000">
        <ele>433.20</ele>
        <time>2017-02-11T08:58:48Z</time>
      </trkpt>
      <trkpt lat="42.466897000" lon="-2.561282000">
        <ele>433.20</ele>
        <time>2017-02-11T08:58:49Z</time>
      </trkpt>
      <trkpt lat="42.466900000" lon="-2.561280000">
        <ele>433.20</ele>
        <time>2017-02-11T08:58:50Z</time>
      </trkpt>
      <trkpt lat="42.466904000" lon="-2.561277000">
        <ele>433.20</ele>
        <time>2017-02-11T08:58:51Z</time>
      </trkpt>
      <trkpt lat="42.466907000" lon="-2.561277000">
        <ele>433.20</ele>
        <time>2017-02-11T08:58:52Z</time>
      </trkpt>
      <trkpt lat="42.466908000" lon="-2.561278000">
        <ele>433.10</ele>
        <time>2017-02-11T08:58:53Z</time>
      </trkpt>
      <trkpt lat="42.466907000" lon="-2.561280000">
        <ele>433.00</ele>
        <time>2017-02-11T08:58:54Z</time>
      </trkpt>
      <trkpt lat="42.466909000" lon="-2.561279000">
        <ele>432.90</ele>
        <time>2017-02-11T08:58:55Z</time>
      </trkpt>
      <trkpt lat="42.466911000" lon="-2.561278000">
        <ele>432.90</ele>
        <time>2017-02-11T08:58:56Z</time>
      </trkpt>
      <trkpt lat="42.466913000" lon="-2.561278000">
        <ele>432.80</ele>
        <time>2017-02-11T08:58:57Z</time>
      </trkpt>
      <trkpt lat="42.466914000" lon="-2.561277000">
        <ele>432.80</ele>
        <time>2017-02-11T08:58:58Z</time>
      </trkpt>
      <trkpt lat="42.466915000" lon="-2.561273000">
        <ele>432.80</ele>
        <time>2017-02-11T08:58:59Z</time>
      </trkpt>
      <trkpt lat="42.466920000" lon="-2.561271000">
        <ele>432.90</ele>
        <time>2017-02-11T08:59:00Z</time>
      </trkpt>
      <trkpt lat="42.466921000" lon="-2.561268000">
        <ele>432.80</ele>
        <time>2017-02-11T08:59:01Z</time>
      </trkpt>
      <trkpt lat="42.466920000" lon="-2.561265000">
        <ele>432.80</ele>
        <time>2017-02-11T08:59:02Z</time>
      </trkpt>
      <trkpt lat="42.466918000" lon="-2.561266000">
        <ele>432.80</ele>
        <time>2017-02-11T08:59:03Z</time>
      </trkpt>
      <trkpt lat="42.466914000" lon="-2.561266000">
        <ele>432.90</ele>
        <time>2017-02-11T08:59:04Z</time>
      </trkpt>
      <trkpt lat="42.466909000" lon="-2.561267000">
        <ele>432.80</ele>
        <time>2017-02-11T08:59:05Z</time>
      </trkpt>
      <trkpt lat="42.466904000" lon="-2.561269000">
        <ele>432.70</ele>
        <time>2017-02-11T08:59:06Z</time>
      </trkpt>
      <trkpt lat="42.466899000" lon="-2.561270000">
        <ele>432.70</ele>
        <time>2017-02-11T08:59:07Z</time>
      </trkpt>
      <trkpt lat="42.466893000" lon="-2.561272000">
        <ele>432.70</ele>
        <time>2017-02-11T08:59:08Z</time>
      </trkpt>
      <trkpt lat="42.466890000" lon="-2.561275000">
        <ele>432.60</ele>
        <time>2017-02-11T08:59:09Z</time>
      </trkpt>
      <trkpt lat="42.466887000" lon="-2.561276000">
        <ele>432.60</ele>
        <time>2017-02-11T08:59:10Z</time>
      </trkpt>
      <trkpt lat="42.466887000" lon="-2.561275000">
        <ele>432.60</ele>
        <time>2017-02-11T08:59:11Z</time>
      </trkpt>
      <trkpt lat="42.466887000" lon="-2.561274000">
        <ele>432.50</ele>
        <time>2017-02-11T08:59:12Z</time>
      </trkpt>
      <trkpt lat="42.466887000" lon="-2.561273000">
        <ele>432.50</ele>
        <time>2017-02-11T08:59:13Z</time>
      </trkpt>
      <trkpt lat="42.466887000" lon="-2.561269000">
        <ele>432.50</ele>
        <time>2017-02-11T08:59:14Z</time>
      </trkpt>
      <trkpt lat="42.466887000" lon="-2.561267000">
        <ele>432.50</ele>
        <time>2017-02-11T08:59:15Z</time>
      </trkpt>
      <trkpt lat="42.466889000" lon="-2.561263000">
        <ele>432.60</ele>
        <time>2017-02-11T08:59:16Z</time>
      </trkpt>
      <trkpt lat="42.466890000" lon="-2.561260000">
        <ele>432.60</ele>
        <time>2017-02-11T08:59:17Z</time>
      </trkpt>
      <trkpt lat="42.466891000" lon="-2.561258000">
        <ele>432.60</ele>
        <time>2017-02-11T08:59:18Z</time>
      </trkpt>
      <trkpt lat="42.466891000" lon="-2.561256000">
        <ele>432.70</ele>
        <time>2017-02-11T08:59:19Z</time>
      </trkpt>
      <trkpt lat="42.466889000" lon="-2.561254000">
        <ele>432.80</ele>
        <time>2017-02-11T08:59:20Z</time>
      </trkpt>
      <trkpt lat="42.466887000" lon="-2.561252000">
        <ele>432.80</ele>
        <time>2017-02-11T08:59:21Z</time>
      </trkpt>
      <trkpt lat="42.466883000" lon="-2.561248000">
        <ele>432.80</ele>
        <time>2017-02-11T08:59:23Z</time>
      </trkpt>
      <trkpt lat="42.466880000" lon="-2.561246000">
        <ele>432.90</ele>
        <time>2017-02-11T08:59:24Z</time>
      </trkpt>
      <trkpt lat="42.466876000" lon="-2.561245000">
        <ele>432.90</ele>
        <time>2017-02-11T08:59:25Z</time>
      </trkpt>
      <trkpt lat="42.466874000" lon="-2.561247000">
        <ele>432.80</ele>
        <time>2017-02-11T08:59:26Z</time>
      </trkpt>
      <trkpt lat="42.466871000" lon="-2.561246000">
        <ele>432.90</ele>
        <time>2017-02-11T08:59:27Z</time>
      </trkpt>
      <trkpt lat="42.466867000" lon="-2.561244000">
        <ele>432.90</ele>
        <time>2017-02-11T08:59:28Z</time>
      </trkpt>
      <trkpt lat="42.466865000" lon="-2.561243000">
        <ele>432.90</ele>
        <time>2017-02-11T08:59:29Z</time>
      </trkpt>
      <trkpt lat="42.466862000" lon="-2.561243000">
        <ele>432.90</ele>
        <time>2017-02-11T08:59:30Z</time>
      </trkpt>
      <trkpt lat="42.466861000" lon="-2.561244000">
        <ele>432.90</ele>
        <time>2017-02-11T08:59:31Z</time>
      </trkpt>
      <trkpt lat="42.466860000" lon="-2.561248000">
        <ele>432.90</ele>
        <time>2017-02-11T08:59:32Z</time>
      </trkpt>
      <trkpt lat="42.466858000" lon="-2.561252000">
        <ele>432.90</ele>
        <time>2017-02-11T08:59:33Z</time>
      </trkpt>
      <trkpt lat="42.466856000" lon="-2.561257000">
        <ele>432.90</ele>
        <time>2017-02-11T08:59:34Z</time>
      </trkpt>
      <trkpt lat="42.466853000" lon="-2.561261000">
        <ele>432.80</ele>
        <time>2017-02-11T08:59:35Z</time>
      </trkpt>
      <trkpt lat="42.466850000" lon="-2.561265000">
        <ele>432.70</ele>
        <time>2017-02-11T08:59:36Z</time>
      </trkpt>
      <trkpt lat="42.466847000" lon="-2.561269000">
        <ele>432.70</ele>
        <time>2017-02-11T08:59:37Z</time>
      </trkpt>
      <trkpt lat="42.466844000" lon="-2.561275000">
        <ele>432.60</ele>
        <time>2017-02-11T08:59:38Z</time>
      </trkpt>
      <trkpt lat="42.466842000" lon="-2.561279000">
        <ele>432.60</ele>
        <time>2017-02-11T08:59:39Z</time>
      </trkpt>
      <trkpt lat="42.466839000" lon="-2.561285000">
        <ele>432.60</ele>
        <time>2017-02-11T08:59:40Z</time>
      </trkpt>
      <trkpt lat="42.466835000" lon="-2.561289000">
        <ele>432.50</ele>
        <time>2017-02-11T08:59:41Z</time>
      </trkpt>
      <trkpt lat="42.466832000" lon="-2.561292000">
        <ele>432.50</ele>
        <time>2017-02-11T08:59:42Z</time>
      </trkpt>
      <trkpt lat="42.466830000" lon="-2.561293000">
        <ele>432.40</ele>
        <time>2017-02-11T08:59:43Z</time>
      </trkpt>
      <trkpt lat="42.466827000" lon="-2.561296000">
        <ele>432.40</ele>
        <time>2017-02-11T08:59:44Z</time>
      </trkpt>
      <trkpt lat="42.466824000" lon="-2.561295000">
        <ele>432.40</ele>
        <time>2017-02-11T08:59:45Z</time>
      </trkpt>
      <trkpt lat="42.466821000" lon="-2.561295000">
        <ele>432.40</ele>
        <time>2017-02-11T08:59:46Z</time>
      </trkpt>
      <trkpt lat="42.466819000" lon="-2.561293000">
        <ele>432.50</ele>
        <time>2017-02-11T08:59:47Z</time>
      </trkpt>
      <trkpt lat="42.466817000" lon="-2.561293000">
        <ele>432.60</ele>
        <time>2017-02-11T08:59:48Z</time>
      </trkpt>
      <trkpt lat="42.466815000" lon="-2.561291000">
        <ele>432.70</ele>
        <time>2017-02-11T08:59:49Z</time>
      </trkpt>
      <trkpt lat="42.466813000" lon="-2.561289000">
        <ele>432.90</ele>
        <time>2017-02-11T08:59:50Z</time>
      </trkpt>
      <trkpt lat="42.466812000" lon="-2.561289000">
        <ele>432.80</ele>
        <time>2017-02-11T08:59:51Z</time>
      </trkpt>
      <trkpt lat="42.466811000" lon="-2.561289000">
        <ele>432.80</ele>
        <time>2017-02-11T08:59:52Z</time>
      </trkpt>
      <trkpt lat="42.466810000" lon="-2.561289000">
        <ele>432.70</ele>
        <time>2017-02-11T08:59:53Z</time>
      </trkpt>
      <trkpt lat="42.466810000" lon="-2.561289000">
        <ele>432.60</ele>
        <time>2017-02-11T08:59:54Z</time>
      </trkpt>
      <trkpt lat="42.466809000" lon="-2.561289000">
        <ele>432.50</ele>
        <time>2017-02-11T08:59:55Z</time>
      </trkpt>
      <trkpt lat="42.466807000" lon="-2.561289000">
        <ele>432.40</ele>
        <time>2017-02-11T08:59:56Z</time>
      </trkpt>
      <trkpt lat="42.466806000" lon="-2.561288000">
        <ele>432.40</ele>
        <time>2017-02-11T08:59:57Z</time>
      </trkpt>
      <trkpt lat="42.466806000" lon="-2.561289000">
        <ele>432.30</ele>
        <time>2017-02-11T08:59:58Z</time>
      </trkpt>
      <trkpt lat="42.466805000" lon="-2.561288000">
        <ele>432.30</ele>
        <time>2017-02-11T08:59:59Z</time>
      </trkpt>
      <trkpt lat="42.466804000" lon="-2.561287000">
        <ele>432.30</ele>
        <time>2017-02-11T09:00:00Z</time>
      </trkpt>
      <trkpt lat="42.466802000" lon="-2.561284000">
        <ele>432.30</ele>
        <time>2017-02-11T09:00:01Z</time>
      </trkpt>
      <trkpt lat="42.466800000" lon="-2.561281000">
        <ele>432.20</ele>
        <time>2017-02-11T09:00:02Z</time>
      </trkpt>
      <trkpt lat="42.466798000" lon="-2.561278000">
        <ele>432.40</ele>
        <time>2017-02-11T09:00:03Z</time>
      </trkpt>
      <trkpt lat="42.466797000" lon="-2.561275000">
        <ele>432.40</ele>
        <time>2017-02-11T09:00:04Z</time>
      </trkpt>
      <trkpt lat="42.466796000" lon="-2.561274000">
        <ele>432.50</ele>
        <time>2017-02-11T09:00:05Z</time>
      </trkpt>
      <trkpt lat="42.466795000" lon="-2.561272000">
        <ele>432.60</ele>
        <time>2017-02-11T09:00:06Z</time>
      </trkpt>
      <trkpt lat="42.466794000" lon="-2.561269000">
        <ele>432.60</ele>
        <time>2017-02-11T09:00:07Z</time>
      </trkpt>
      <trkpt lat="42.466793000" lon="-2.561267000">
        <ele>432.60</ele>
        <time>2017-02-11T09:00:08Z</time>
      </trkpt>
      <trkpt lat="42.466794000" lon="-2.561265000">
        <ele>432.70</ele>
        <time>2017-02-11T09:00:09Z</time>
      </trkpt>
      <trkpt lat="42.466793000" lon="-2.561262000">
        <ele>432.80</ele>
        <time>2017-02-11T09:00:10Z</time>
      </trkpt>
      <trkpt lat="42.466796000" lon="-2.561257000">
        <ele>432.80</ele>
        <time>2017-02-11T09:00:11Z</time>
      </trkpt>
      <trkpt lat="42.466798000" lon="-2.561254000">
        <ele>432.70</ele>
        <time>2017-02-11T09:00:12Z</time>
      </trkpt>
      <trkpt lat="42.466800000" lon="-2.561253000">
        <ele>432.70</ele>
        <time>2017-02-11T09:00:13Z</time>
      </trkpt>
      <trkpt lat="42.466806000" lon="-2.561252000">
        <ele>432.70</ele>
        <time>2017-02-11T09:00:14Z</time>
      </trkpt>
      <trkpt lat="42.466812000" lon="-2.561253000">
        <ele>432.60</ele>
        <time>2017-02-11T09:00:15Z</time>
      </trkpt>
      <trkpt lat="42.466817000" lon="-2.561254000">
        <ele>432.50</ele>
        <time>2017-02-11T09:00:16Z</time>
      </trkpt>
      <trkpt lat="42.466821000" lon="-2.561253000">
        <ele>432.40</ele>
        <time>2017-02-11T09:00:17Z</time>
      </trkpt>
      <trkpt lat="42.466825000" lon="-2.561252000">
        <ele>432.40</ele>
        <time>2017-02-11T09:00:18Z</time>
      </trkpt>
      <trkpt lat="42.466829000" lon="-2.561254000">
        <ele>432.40</ele>
        <time>2017-02-11T09:00:19Z</time>
      </trkpt>
      <trkpt lat="42.466832000" lon="-2.561255000">
        <ele>432.50</ele>
        <time>2017-02-11T09:00:20Z</time>
      </trkpt>
      <trkpt lat="42.466835000" lon="-2.561257000">
        <ele>432.60</ele>
        <time>2017-02-11T09:00:21Z</time>
      </trkpt>
      <trkpt lat="42.466838000" lon="-2.561260000">
        <ele>432.60</ele>
        <time>2017-02-11T09:00:22Z</time>
      </trkpt>
      <trkpt lat="42.466843000" lon="-2.561264000">
        <ele>432.60</ele>
        <time>2017-02-11T09:00:24Z</time>
      </trkpt>
      <trkpt lat="42.466845000" lon="-2.561265000">
        <ele>432.70</ele>
        <time>2017-02-11T09:00:25Z</time>
      </trkpt>
      <trkpt lat="42.466848000" lon="-2.561263000">
        <ele>432.70</ele>
        <time>2017-02-11T09:00:26Z</time>
      </trkpt>
      <trkpt lat="42.466851000" lon="-2.561260000">
        <ele>432.70</ele>
        <time>2017-02-11T09:00:27Z</time>
      </trkpt>
      <trkpt lat="42.466852000" lon="-2.561256000">
        <ele>432.60</ele>
        <time>2017-02-11T09:00:28Z</time>
      </trkpt>
      <trkpt lat="42.466853000" lon="-2.561253000">
        <ele>432.60</ele>
        <time>2017-02-11T09:00:29Z</time>
      </trkpt>
      <trkpt lat="42.466853000" lon="-2.561251000">
        <ele>432.60</ele>
        <time>2017-02-11T09:00:30Z</time>
      </trkpt>
      <trkpt lat="42.466855000" lon="-2.561251000">
        <ele>432.60</ele>
        <time>2017-02-11T09:00:31Z</time>
      </trkpt>
      <trkpt lat="42.466856000" lon="-2.561250000">
        <ele>432.60</ele>
        <time>2017-02-11T09:00:32Z</time>
      </trkpt>
      <trkpt lat="42.466859000" lon="-2.561250000">
        <ele>432.50</ele>
        <time>2017-02-11T09:00:33Z</time>
      </trkpt>
      <trkpt lat="42.466863000" lon="-2.561252000">
        <ele>432.40</ele>
        <time>2017-02-11T09:00:34Z</time>
      </trkpt>
      <trkpt lat="42.466866000" lon="-2.561253000">
        <ele>432.40</ele>
        <time>2017-02-11T09:00:35Z</time>
      </trkpt>
      <trkpt lat="42.466867000" lon="-2.561255000">
        <ele>432.40</ele>
        <time>2017-02-11T09:00:36Z</time>
      </trkpt>
      <trkpt lat="42.466868000" lon="-2.561255000">
        <ele>432.30</ele>
        <time>2017-02-11T09:00:37Z</time>
      </trkpt>
      <trkpt lat="42.466870000" lon="-2.561256000">
        <ele>432.30</ele>
        <time>2017-02-11T09:00:38Z</time>
      </trkpt>
      <trkpt lat="42.466873000" lon="-2.561257000">
        <ele>432.30</ele>
        <time>2017-02-11T09:00:39Z</time>
      </trkpt>
      <trkpt lat="42.466876000" lon="-2.561258000">
        <ele>432.30</ele>
        <time>2017-02-11T09:00:40Z</time>
      </trkpt>
      <trkpt lat="42.466880000" lon="-2.561259000">
        <ele>432.40</ele>
        <time>2017-02-11T09:00:41Z</time>
      </trkpt>
      <trkpt lat="42.466883000" lon="-2.561259000">
        <ele>432.40</ele>
        <time>2017-02-11T09:00:42Z</time>
      </trkpt>
      <trkpt lat="42.466886000" lon="-2.561260000">
        <ele>432.40</ele>
        <time>2017-02-11T09:00:43Z</time>
      </trkpt>
      <trkpt lat="42.466888000" lon="-2.561260000">
        <ele>432.50</ele>
        <time>2017-02-11T09:00:44Z</time>
      </trkpt>
      <trkpt lat="42.466889000" lon="-2.561263000">
        <ele>432.50</ele>
        <time>2017-02-11T09:00:45Z</time>
      </trkpt>
      <trkpt lat="42.466890000" lon="-2.561265000">
        <ele>432.50</ele>
        <time>2017-02-11T09:00:46Z</time>
      </trkpt>
      <trkpt lat="42.466890000" lon="-2.561268000">
        <ele>432.40</ele>
        <time>2017-02-11T09:00:47Z</time>
      </trkpt>
      <trkpt lat="42.466891000" lon="-2.561270000">
        <ele>432.30</ele>
        <time>2017-02-11T09:00:48Z</time>
      </trkpt>
      <trkpt lat="42.466893000" lon="-2.561270000">
        <ele>432.20</ele>
        <time>2017-02-11T09:00:49Z</time>
      </trkpt>
      <trkpt lat="42.466895000" lon="-2.561271000">
        <ele>432.20</ele>
        <time>2017-02-11T09:00:50Z</time>
      </trkpt>
      <trkpt lat="42.466895000" lon="-2.561272000">
        <ele>432.30</ele>
        <time>2017-02-11T09:00:51Z</time>
      </trkpt>
      <trkpt lat="42.466896000" lon="-2.561272000">
        <ele>432.30</ele>
        <time>2017-02-11T09:00:52Z</time>
      </trkpt>
      <trkpt lat="42.466900000" lon="-2.561272000">
        <ele>432.40</ele>
        <time>2017-02-11T09:00:53Z</time>
      </trkpt>
      <trkpt lat="42.466905000" lon="-2.561273000">
        <ele>432.40</ele>
        <time>2017-02-11T09:00:54Z</time>
      </trkpt>
      <trkpt lat="42.466909000" lon="-2.561274000">
        <ele>432.50</ele>
        <time>2017-02-11T09:00:55Z</time>
      </trkpt>
      <trkpt lat="42.466912000" lon="-2.561274000">
        <ele>432.50</ele>
        <time>2017-02-11T09:00:56Z</time>
      </trkpt>
      <trkpt lat="42.466915000" lon="-2.561274000">
        <ele>432.50</ele>
        <time>2017-02-11T09:00:57Z</time>
      </trkpt>
      <trkpt lat="42.466919000" lon="-2.561276000">
        <ele>432.50</ele>
        <time>2017-02-11T09:00:58Z</time>
      </trkpt>
      <trkpt lat="42.466922000" lon="-2.561277000">
        <ele>432.50</ele>
        <time>2017-02-11T09:00:59Z</time>
      </trkpt>
      <trkpt lat="42.466924000" lon="-2.561279000">
        <ele>432.50</ele>
        <time>2017-02-11T09:01:00Z</time>
      </trkpt>
      <trkpt lat="42.466925000" lon="-2.561280000">
        <ele>432.60</ele>
        <time>2017-02-11T09:01:01Z</time>
      </trkpt>
      <trkpt lat="42.466926000" lon="-2.561281000">
        <ele>432.60</ele>
        <time>2017-02-11T09:01:02Z</time>
      </trkpt>
      <trkpt lat="42.466927000" lon="-2.561281000">
        <ele>432.70</ele>
        <time>2017-02-11T09:01:03Z</time>
      </trkpt>
      <trkpt lat="42.466929000" lon="-2.561281000">
        <ele>432.80</ele>
        <time>2017-02-11T09:01:04Z</time>
      </trkpt>
      <trkpt lat="42.466928000" lon="-2.561280000">
        <ele>432.80</ele>
        <time>2017-02-11T09:01:05Z</time>
      </trkpt>
      <trkpt lat="42.466926000" lon="-2.561278000">
        <ele>432.80</ele>
        <time>2017-02-11T09:01:06Z</time>
      </trkpt>
      <trkpt lat="42.466925000" lon="-2.561279000">
        <ele>432.80</ele>
        <time>2017-02-11T09:01:07Z</time>
      </trkpt>
      <trkpt lat="42.466927000" lon="-2.561279000">
        <ele>432.80</ele>
        <time>2017-02-11T09:01:08Z</time>
      </trkpt>
      <trkpt lat="42.466927000" lon="-2.561281000">
        <ele>432.80</ele>
        <time>2017-02-11T09:01:09Z</time>
      </trkpt>
      <trkpt lat="42.466928000" lon="-2.561281000">
        <ele>432.80</ele>
        <time>2017-02-11T09:01:10Z</time>
      </trkpt>
      <trkpt lat="42.466929000" lon="-2.561279000">
        <ele>432.80</ele>
        <time>2017-02-11T09:01:11Z</time>
      </trkpt>
      <trkpt lat="42.466929000" lon="-2.561278000">
        <ele>432.90</ele>
        <time>2017-02-11T09:01:12Z</time>
      </trkpt>
      <trkpt lat="42.466927000" lon="-2.561277000">
        <ele>432.90</ele>
        <time>2017-02-11T09:01:13Z</time>
      </trkpt>
      <trkpt lat="42.466927000" lon="-2.561276000">
        <ele>432.90</ele>
        <time>2017-02-11T09:01:14Z</time>
      </trkpt>
      <trkpt lat="42.466925000" lon="-2.561275000">
        <ele>433.00</ele>
        <time>2017-02-11T09:01:15Z</time>
      </trkpt>
      <trkpt lat="42.466925000" lon="-2.561277000">
        <ele>433.10</ele>
        <time>2017-02-11T09:01:16Z</time>
      </trkpt>
      <trkpt lat="42.466921000" lon="-2.561275000">
        <ele>433.00</ele>
        <time>2017-02-11T09:01:17Z</time>
      </trkpt>
      <trkpt lat="42.466915000" lon="-2.561275000">
        <ele>433.00</ele>
        <time>2017-02-11T09:01:18Z</time>
      </trkpt>
      <trkpt lat="42.466909000" lon="-2.561274000">
        <ele>433.00</ele>
        <time>2017-02-11T09:01:19Z</time>
      </trkpt>
      <trkpt lat="42.466904000" lon="-2.561274000">
        <ele>433.00</ele>
        <time>2017-02-11T09:01:20Z</time>
      </trkpt>
      <trkpt lat="42.466898000" lon="-2.561275000">
        <ele>433.00</ele>
        <time>2017-02-11T09:01:21Z</time>
      </trkpt>
      <trkpt lat="42.466892000" lon="-2.561274000">
        <ele>433.00</ele>
        <time>2017-02-11T09:01:22Z</time>
      </trkpt>
      <trkpt lat="42.466886000" lon="-2.561271000">
        <ele>433.00</ele>
        <time>2017-02-11T09:01:23Z</time>
      </trkpt>
      <trkpt lat="42.466877000" lon="-2.561266000">
        <ele>432.90</ele>
        <time>2017-02-11T09:01:25Z</time>
      </trkpt>
      <trkpt lat="42.466875000" lon="-2.561265000">
        <ele>432.90</ele>
        <time>2017-02-11T09:01:26Z</time>
      </trkpt>
      <trkpt lat="42.466874000" lon="-2.561265000">
        <ele>432.90</ele>
        <time>2017-02-11T09:01:27Z</time>
      </trkpt>
      <trkpt lat="42.466873000" lon="-2.561265000">
        <ele>432.90</ele>
        <time>2017-02-11T09:01:28Z</time>
      </trkpt>
      <trkpt lat="42.466873000" lon="-2.561266000">
        <ele>432.80</ele>
        <time>2017-02-11T09:01:29Z</time>
      </trkpt>
      <trkpt lat="42.466875000" lon="-2.561265000">
        <ele>432.70</ele>
        <time>2017-02-11T09:01:30Z</time>
      </trkpt>
      <trkpt lat="42.466876000" lon="-2.561265000">
        <ele>432.70</ele>
        <time>2017-02-11T09:01:31Z</time>
      </trkpt>
      <trkpt lat="42.466876000" lon="-2.561266000">
        <ele>432.60</ele>
        <time>2017-02-11T09:01:32Z</time>
      </trkpt>
      <trkpt lat="42.466877000" lon="-2.561266000">
        <ele>432.60</ele>
        <time>2017-02-11T09:01:33Z</time>
      </trkpt>
      <trkpt lat="42.466876000" lon="-2.561265000">
        <ele>432.60</ele>
        <time>2017-02-11T09:01:34Z</time>
      </trkpt>
      <trkpt lat="42.466875000" lon="-2.561264000">
        <ele>432.50</ele>
        <time>2017-02-11T09:01:35Z</time>
      </trkpt>
      <trkpt lat="42.466875000" lon="-2.561264000">
        <ele>432.50</ele>
        <time>2017-02-11T09:01:36Z</time>
      </trkpt>
      <trkpt lat="42.466874000" lon="-2.561264000">
        <ele>432.60</ele>
        <time>2017-02-11T09:01:37Z</time>
      </trkpt>
      <trkpt lat="42.466874000" lon="-2.561264000">
        <ele>432.70</ele>
        <time>2017-02-11T09:01:38Z</time>
      </trkpt>
      <trkpt lat="42.466873000" lon="-2.561264000">
        <ele>432.80</ele>
        <time>2017-02-11T09:01:39Z</time>
      </trkpt>
      <trkpt lat="42.466873000" lon="-2.561265000">
        <ele>432.90</ele>
        <time>2017-02-11T09:01:40Z</time>
      </trkpt>
      <trkpt lat="42.466873000" lon="-2.561265000">
        <ele>433.00</ele>
        <time>2017-02-11T09:01:41Z</time>
      </trkpt>
      <trkpt lat="42.466873000" lon="-2.561266000">
        <ele>433.10</ele>
        <time>2017-02-11T09:01:42Z</time>
      </trkpt>
      <trkpt lat="42.466874000" lon="-2.561268000">
        <ele>433.10</ele>
        <time>2017-02-11T09:01:43Z</time>
      </trkpt>
      <trkpt lat="42.466873000" lon="-2.561269000">
        <ele>433.20</ele>
        <time>2017-02-11T09:01:44Z</time>
      </trkpt>
      <trkpt lat="42.466871000" lon="-2.561269000">
        <ele>433.20</ele>
        <time>2017-02-11T09:01:45Z</time>
      </trkpt>
      <trkpt lat="42.466871000" lon="-2.561268000">
        <ele>433.20</ele>
        <time>2017-02-11T09:01:46Z</time>
      </trkpt>
      <trkpt lat="42.466870000" lon="-2.561268000">
        <ele>433.30</ele>
        <time>2017-02-11T09:01:47Z</time>
      </trkpt>
      <trkpt lat="42.466868000" lon="-2.561267000">
        <ele>433.40</ele>
        <time>2017-02-11T09:01:48Z</time>
      </trkpt>
      <trkpt lat="42.466867000" lon="-2.561267000">
        <ele>433.60</ele>
        <time>2017-02-11T09:01:49Z</time>
      </trkpt>
      <trkpt lat="42.466867000" lon="-2.561264000">
        <ele>433.50</ele>
        <time>2017-02-11T09:01:50Z</time>
      </trkpt>
      <trkpt lat="42.466866000" lon="-2.561264000">
        <ele>433.50</ele>
        <time>2017-02-11T09:01:51Z</time>
      </trkpt>
      <trkpt lat="42.466865000" lon="-2.561264000">
        <ele>433.40</ele>
        <time>2017-02-11T09:01:52Z</time>
      </trkpt>
      <trkpt lat="42.466863000" lon="-2.561263000">
        <ele>433.40</ele>
        <time>2017-02-11T09:01:53Z</time>
      </trkpt>
      <trkpt lat="42.466863000" lon="-2.561264000">
        <ele>433.30</ele>
        <time>2017-02-11T09:01:54Z</time>
      </trkpt>
      <trkpt lat="42.466864000" lon="-2.561263000">
        <ele>433.30</ele>
        <time>2017-02-11T09:01:55Z</time>
      </trkpt>
      <trkpt lat="42.466866000" lon="-2.561264000">
        <ele>433.20</ele>
        <time>2017-02-11T09:01:56Z</time>
      </trkpt>
      <trkpt lat="42.466867000" lon="-2.561266000">
        <ele>433.20</ele>
        <time>2017-02-11T09:01:57Z</time>
      </trkpt>
      <trkpt lat="42.466868000" lon="-2.561266000">
        <ele>433.00</ele>
        <time>2017-02-11T09:01:58Z</time>
      </trkpt>
      <trkpt lat="42.466870000" lon="-2.561267000">
        <ele>432.90</ele>
        <time>2017-02-11T09:01:59Z</time>
      </trkpt>
      <trkpt lat="42.466872000" lon="-2.561268000">
        <ele>432.80</ele>
        <time>2017-02-11T09:02:00Z</time>
      </trkpt>
      <trkpt lat="42.466874000" lon="-2.561268000">
        <ele>432.70</ele>
        <time>2017-02-11T09:02:01Z</time>
      </trkpt>
      <trkpt lat="42.466877000" lon="-2.561269000">
        <ele>432.70</ele>
        <time>2017-02-11T09:02:02Z</time>
      </trkpt>
      <trkpt lat="42.466881000" lon="-2.561274000">
        <ele>432.60</ele>
        <time>2017-02-11T09:02:03Z</time>
      </trkpt>
      <trkpt lat="42.466883000" lon="-2.561276000">
        <ele>432.60</ele>
        <time>2017-02-11T09:02:04Z</time>
      </trkpt>
      <trkpt lat="42.466886000" lon="-2.561278000">
        <ele>432.60</ele>
        <time>2017-02-11T09:02:05Z</time>
      </trkpt>
      <trkpt lat="42.466887000" lon="-2.561281000">
        <ele>432.70</ele>
        <time>2017-02-11T09:02:06Z</time>
      </trkpt>
      <trkpt lat="42.466886000" lon="-2.561283000">
        <ele>432.80</ele>
        <time>2017-02-11T09:02:07Z</time>
      </trkpt>
      <trkpt lat="42.466887000" lon="-2.561286000">
        <ele>432.90</ele>
        <time>2017-02-11T09:02:08Z</time>
      </trkpt>
      <trkpt lat="42.466887000" lon="-2.561288000">
        <ele>432.90</ele>
        <time>2017-02-11T09:02:09Z</time>
      </trkpt>
      <trkpt lat="42.466886000" lon="-2.561291000">
        <ele>432.90</ele>
        <time>2017-02-11T09:02:10Z</time>
      </trkpt>
      <trkpt lat="42.466885000" lon="-2.561292000">
        <ele>432.90</ele>
        <time>2017-02-11T09:02:11Z</time>
      </trkpt>
      <trkpt lat="42.466886000" lon="-2.561294000">
        <ele>432.80</ele>
        <time>2017-02-11T09:02:12Z</time>
      </trkpt>
      <trkpt lat="42.466886000" lon="-2.561296000">
        <ele>432.80</ele>
        <time>2017-02-11T09:02:13Z</time>
      </trkpt>
      <trkpt lat="42.466886000" lon="-2.561295000">
        <ele>432.80</ele>
        <time>2017-02-11T09:02:14Z</time>
      </trkpt>
      <trkpt lat="42.466888000" lon="-2.561296000">
        <ele>432.70</ele>
        <time>2017-02-11T09:02:15Z</time>
      </trkpt>
      <trkpt lat="42.466888000" lon="-2.561296000">
        <ele>432.80</ele>
        <time>2017-02-11T09:02:16Z</time>
      </trkpt>
      <trkpt lat="42.466890000" lon="-2.561295000">
        <ele>432.90</ele>
        <time>2017-02-11T09:02:17Z</time>
      </trkpt>
      <trkpt lat="42.466891000" lon="-2.561294000">
        <ele>432.80</ele>
        <time>2017-02-11T09:02:18Z</time>
      </trkpt>
      <trkpt lat="42.466891000" lon="-2.561294000">
        <ele>432.70</ele>
        <time>2017-02-11T09:02:19Z</time>
      </trkpt>
      <trkpt lat="42.466892000" lon="-2.561293000">
        <ele>432.70</ele>
        <time>2017-02-11T09:02:20Z</time>
      </trkpt>
      <trkpt lat="42.466894000" lon="-2.561293000">
        <ele>432.60</ele>
        <time>2017-02-11T09:02:21Z</time>
      </trkpt>
      <trkpt lat="42.466895000" lon="-2.561294000">
        <ele>432.50</ele>
        <time>2017-02-11T09:02:22Z</time>
      </trkpt>
      <trkpt lat="42.466895000" lon="-2.561295000">
        <ele>432.50</ele>
        <time>2017-02-11T09:02:23Z</time>
      </trkpt>
      <trkpt lat="42.466894000" lon="-2.561297000">
        <ele>432.40</ele>
        <time>2017-02-11T09:02:24Z</time>
      </trkpt>
      <trkpt lat="42.466890000" lon="-2.561306000">
        <ele>432.60</ele>
        <time>2017-02-11T09:02:26Z</time>
      </trkpt>
      <trkpt lat="42.466886000" lon="-2.561310000">
        <ele>432.60</ele>
        <time>2017-02-11T09:02:27Z</time>
      </trkpt>
      <trkpt lat="42.466884000" lon="-2.561314000">
        <ele>432.70</ele>
        <time>2017-02-11T09:02:28Z</time>
      </trkpt>
      <trkpt lat="42.466880000" lon="-2.561320000">
        <ele>432.60</ele>
        <time>2017-02-11T09:02:29Z</time>
      </trkpt>
      <trkpt lat="42.466877000" lon="-2.561323000">
        <ele>432.50</ele>
        <time>2017-02-11T09:02:30Z</time>
      </trkpt>
      <trkpt lat="42.466874000" lon="-2.561325000">
        <ele>432.40</ele>
        <time>2017-02-11T09:02:31Z</time>
      </trkpt>
      <trkpt lat="42.466874000" lon="-2.561326000">
        <ele>432.40</ele>
        <time>2017-02-11T09:02:32Z</time>
      </trkpt>
      <trkpt lat="42.466874000" lon="-2.561327000">
        <ele>432.40</ele>
        <time>2017-02-11T09:02:33Z</time>
      </trkpt>
      <trkpt lat="42.466874000" lon="-2.561329000">
        <ele>432.30</ele>
        <time>2017-02-11T09:02:34Z</time>
      </trkpt>
      <trkpt lat="42.466874000" lon="-2.561330000">
        <ele>432.30</ele>
        <time>2017-02-11T09:02:35Z</time>
      </trkpt>
      <trkpt lat="42.466873000" lon="-2.561331000">
        <ele>432.30</ele>
        <time>2017-02-11T09:02:36Z</time>
      </trkpt>
      <trkpt lat="42.466871000" lon="-2.561332000">
        <ele>432.20</ele>
        <time>2017-02-11T09:02:37Z</time>
      </trkpt>
      <trkpt lat="42.466869000" lon="-2.561332000">
        <ele>432.20</ele>
        <time>2017-02-11T09:02:38Z</time>
      </trkpt>
      <trkpt lat="42.466868000" lon="-2.561333000">
        <ele>432.10</ele>
        <time>2017-02-11T09:02:39Z</time>
      </trkpt>
      <trkpt lat="42.466867000" lon="-2.561334000">
        <ele>432.10</ele>
        <time>2017-02-11T09:02:40Z</time>
      </trkpt>
      <trkpt lat="42.466866000" lon="-2.561335000">
        <ele>432.30</ele>
        <time>2017-02-11T09:02:41Z</time>
      </trkpt>
      <trkpt lat="42.466866000" lon="-2.561334000">
        <ele>432.50</ele>
        <time>2017-02-11T09:02:42Z</time>
      </trkpt>
      <trkpt lat="42.466866000" lon="-2.561331000">
        <ele>432.70</ele>
        <time>2017-02-11T09:02:43Z</time>
      </trkpt>
      <trkpt lat="42.466869000" lon="-2.561330000">
        <ele>432.80</ele>
        <time>2017-02-11T09:02:44Z</time>
      </trkpt>
      <trkpt lat="42.466869000" lon="-2.561330000">
        <ele>432.70</ele>
        <time>2017-02-11T09:02:45Z</time>
      </trkpt>
      <trkpt lat="42.466871000" lon="-2.561329000">
        <ele>432.70</ele>
        <time>2017-02-11T09:02:46Z</time>
      </trkpt>
      <trkpt lat="42.466872000" lon="-2.561330000">
        <ele>432.60</ele>
        <time>2017-02-11T09:02:47Z</time>
      </trkpt>
      <trkpt lat="42.466874000" lon="-2.561331000">
        <ele>432.60</ele>
        <time>2017-02-11T09:02:48Z</time>
      </trkpt>
      <trkpt lat="42.466877000" lon="-2.561333000">
        <ele>432.50</ele>
        <time>2017-02-11T09:02:49Z</time>
      </trkpt>
      <trkpt lat="42.466879000" lon="-2.561333000">
        <ele>432.50</ele>
        <time>2017-02-11T09:02:50Z</time>
      </trkpt>
      <trkpt lat="42.466879000" lon="-2.561334000">
        <ele>432.50</ele>
        <time>2017-02-11T09:02:51Z</time>
      </trkpt>
      <trkpt lat="42.466877000" lon="-2.561336000">
        <ele>432.50</ele>
        <time>2017-02-11T09:02:52Z</time>
      </trkpt>
      <trkpt lat="42.466876000" lon="-2.561339000">
        <ele>432.70</ele>
        <time>2017-02-11T09:02:53Z</time>
      </trkpt>
      <trkpt lat="42.466874000" lon="-2.561341000">
        <ele>432.90</ele>
        <time>2017-02-11T09:02:54Z</time>
      </trkpt>
      <trkpt lat="42.466875000" lon="-2.561345000">
        <ele>433.00</ele>
        <time>2017-02-11T09:02:55Z</time>
      </trkpt>
      <trkpt lat="42.466872000" lon="-2.561346000">
        <ele>433.10</ele>
        <time>2017-02-11T09:02:56Z</time>
      </trkpt>
      <trkpt lat="42.466870000" lon="-2.561346000">
        <ele>433.10</ele>
        <time>2017-02-11T09:02:57Z</time>
      </trkpt>
      <trkpt lat="42.466867000" lon="-2.561345000">
        <ele>433.20</ele>
        <time>2017-02-11T09:02:58Z</time>
      </trkpt>
      <trkpt lat="42.466863000" lon="-2.561344000">
        <ele>432.90</ele>
        <time>2017-02-11T09:02:59Z</time>
      </trkpt>
      <trkpt lat="42.466859000" lon="-2.561342000">
        <ele>432.80</ele>
        <time>2017-02-11T09:03:00Z</time>
      </trkpt>
      <trkpt lat="42.466856000" lon="-2.561338000">
        <ele>432.70</ele>
        <time>2017-02-11T09:03:01Z</time>
      </trkpt>
      <trkpt lat="42.466855000" lon="-2.561338000">
        <ele>432.60</ele>
        <time>2017-02-11T09:03:02Z</time>
      </trkpt>
      <trkpt lat="42.466853000" lon="-2.561337000">
        <ele>432.50</ele>
        <time>2017-02-11T09:03:03Z</time>
      </trkpt>
      <trkpt lat="42.466853000" lon="-2.561337000">
        <ele>432.40</ele>
        <time>2017-02-11T09:03:04Z</time>
      </trkpt>
      <trkpt lat="42.466853000" lon="-2.561338000">
        <ele>432.50</ele>
        <time>2017-02-11T09:03:05Z</time>
      </trkpt>
      <trkpt lat="42.466855000" lon="-2.561334000">
        <ele>432.60</ele>
        <time>2017-02-11T09:03:06Z</time>
      </trkpt>
      <trkpt lat="42.466856000" lon="-2.561330000">
        <ele>432.80</ele>
        <time>2017-02-11T09:03:07Z</time>
      </trkpt>
      <trkpt lat="42.466857000" lon="-2.561330000">
        <ele>432.90</ele>
        <time>2017-02-11T09:03:08Z</time>
      </trkpt>
      <trkpt lat="42.466857000" lon="-2.561331000">
        <ele>433.00</ele>
        <time>2017-02-11T09:03:09Z</time>
      </trkpt>
      <trkpt lat="42.466854000" lon="-2.561331000">
        <ele>433.10</ele>
        <time>2017-02-11T09:03:10Z</time>
      </trkpt>
      <trkpt lat="42.466853000" lon="-2.561331000">
        <ele>433.10</ele>
        <time>2017-02-11T09:03:11Z</time>
      </trkpt>
      <trkpt lat="42.466852000" lon="-2.561333000">
        <ele>433.20</ele>
        <time>2017-02-11T09:03:12Z</time>
      </trkpt>
      <trkpt lat="42.466851000" lon="-2.561333000">
        <ele>433.10</ele>
        <time>2017-02-11T09:03:13Z</time>
      </trkpt>
      <trkpt lat="42.466851000" lon="-2.561329000">
        <ele>433.00</ele>
        <time>2017-02-11T09:03:14Z</time>
      </trkpt>
      <trkpt lat="42.466847000" lon="-2.561328000">
        <ele>433.20</ele>
        <time>2017-02-11T09:03:15Z</time>
      </trkpt>
      <trkpt lat="42.466843000" lon="-2.561327000">
        <ele>433.30</ele>
        <time>2017-02-11T09:03:16Z</time>
      </trkpt>
      <trkpt lat="42.466840000" lon="-2.561325000">
        <ele>433.10</ele>
        <time>2017-02-11T09:03:17Z</time>
      </trkpt>
      <trkpt lat="42.466836000" lon="-2.561327000">
        <ele>433.10</ele>
        <time>2017-02-11T09:03:18Z</time>
      </trkpt>
      <trkpt lat="42.466832000" lon="-2.561327000">
        <ele>432.90</ele>
        <time>2017-02-11T09:03:19Z</time>
      </trkpt>
      <trkpt lat="42.466827000" lon="-2.561328000">
        <ele>432.80</ele>
        <time>2017-02-11T09:03:20Z</time>
      </trkpt>
      <trkpt lat="42.466822000" lon="-2.561327000">
        <ele>432.70</ele>
        <time>2017-02-11T09:03:21Z</time>
      </trkpt>
      <trkpt lat="42.466817000" lon="-2.561325000">
        <ele>432.60</ele>
        <time>2017-02-11T09:03:22Z</time>
      </trkpt>
      <trkpt lat="42.466815000" lon="-2.561324000">
        <ele>432.50</ele>
        <time>2017-02-11T09:03:23Z</time>
      </trkpt>
      <trkpt lat="42.466812000" lon="-2.561320000">
        <ele>432.50</ele>
        <time>2017-02-11T09:03:24Z</time>
      </trkpt>
      <trkpt lat="42.466808000" lon="-2.561318000">
        <ele>432.40</ele>
        <time>2017-02-11T09:03:25Z</time>
      </trkpt>
      <trkpt lat="42.466807000" lon="-2.561315000">
        <ele>432.40</ele>
        <time>2017-02-11T09:03:27Z</time>
      </trkpt>
      <trkpt lat="42.466807000" lon="-2.561314000">
        <ele>432.30</ele>
        <time>2017-02-11T09:03:28Z</time>
      </trkpt>
      <trkpt lat="42.466806000" lon="-2.561312000">
        <ele>432.40</ele>
        <time>2017-02-11T09:03:29Z</time>
      </trkpt>
      <trkpt lat="42.466805000" lon="-2.561312000">
        <ele>432.50</ele>
        <time>2017-02-11T09:03:30Z</time>
      </trkpt>
      <trkpt lat="42.466804000" lon="-2.561307000">
        <ele>432.70</ele>
        <time>2017-02-11T09:03:31Z</time>
      </trkpt>
      <trkpt lat="42.466804000" lon="-2.561304000">
        <ele>432.80</ele>
        <time>2017-02-11T09:03:32Z</time>
      </trkpt>
      <trkpt lat="42.466805000" lon="-2.561303000">
        <ele>432.80</ele>
        <time>2017-02-11T09:03:33Z</time>
      </trkpt>
      <trkpt lat="42.466804000" lon="-2.561303000">
        <ele>432.90</ele>
        <time>2017-02-11T09:03:34Z</time>
      </trkpt>
      <trkpt lat="42.466804000" lon="-2.561304000">
        <ele>432.90</ele>
        <time>2017-02-11T09:03:35Z</time>
      </trkpt>
      <trkpt lat="42.466804000" lon="-2.561305000">
        <ele>433.00</ele>
        <time>2017-02-11T09:03:36Z</time>
      </trkpt>
      <trkpt lat="42.466806000" lon="-2.561308000">
        <ele>432.80</ele>
        <time>2017-02-11T09:03:37Z</time>
      </trkpt>
      <trkpt lat="42.466807000" lon="-2.561310000">
        <ele>432.70</ele>
        <time>2017-02-11T09:03:38Z</time>
      </trkpt>
      <trkpt lat="42.466809000" lon="-2.561312000">
        <ele>432.60</ele>
        <time>2017-02-11T09:03:39Z</time>
      </trkpt>
      <trkpt lat="42.466809000" lon="-2.561316000">
        <ele>432.50</ele>
        <time>2017-02-11T09:03:40Z</time>
      </trkpt>
      <trkpt lat="42.466811000" lon="-2.561318000">
        <ele>432.60</ele>
        <time>2017-02-11T09:03:41Z</time>
      </trkpt>
      <trkpt lat="42.466814000" lon="-2.561318000">
        <ele>432.60</ele>
        <time>2017-02-11T09:03:42Z</time>
      </trkpt>
      <trkpt lat="42.466815000" lon="-2.561320000">
        <ele>432.70</ele>
        <time>2017-02-11T09:03:43Z</time>
      </trkpt>
      <trkpt lat="42.466815000" lon="-2.561322000">
        <ele>432.80</ele>
        <time>2017-02-11T09:03:44Z</time>
      </trkpt>
      <trkpt lat="42.466816000" lon="-2.561322000">
        <ele>432.90</ele>
        <time>2017-02-11T09:03:45Z</time>
      </trkpt>
      <trkpt lat="42.466818000" lon="-2.561323000">
        <ele>433.00</ele>
        <time>2017-02-11T09:03:46Z</time>
      </trkpt>
      <trkpt lat="42.466820000" lon="-2.561324000">
        <ele>433.20</ele>
        <time>2017-02-11T09:03:47Z</time>
      </trkpt>
      <trkpt lat="42.466820000" lon="-2.561324000">
        <ele>433.30</ele>
        <time>2017-02-11T09:03:48Z</time>
      </trkpt>
      <trkpt lat="42.466818000" lon="-2.561321000">
        <ele>433.40</ele>
        <time>2017-02-11T09:03:49Z</time>
      </trkpt>
      <trkpt lat="42.466816000" lon="-2.561317000">
        <ele>433.50</ele>
        <time>2017-02-11T09:03:50Z</time>
      </trkpt>
      <trkpt lat="42.466816000" lon="-2.561316000">
        <ele>433.50</ele>
        <time>2017-02-11T09:03:51Z</time>
      </trkpt>
      <trkpt lat="42.466815000" lon="-2.561313000">
        <ele>433.50</ele>
        <time>2017-02-11T09:03:52Z</time>
      </trkpt>
      <trkpt lat="42.466814000" lon="-2.561308000">
        <ele>433.40</ele>
        <time>2017-02-11T09:03:53Z</time>
      </trkpt>
      <trkpt lat="42.466813000" lon="-2.561303000">
        <ele>433.30</ele>
        <time>2017-02-11T09:03:54Z</time>
      </trkpt>
      <trkpt lat="42.466812000" lon="-2.561299000">
        <ele>433.30</ele>
        <time>2017-02-11T09:03:55Z</time>
      </trkpt>
      <trkpt lat="42.466812000" lon="-2.561296000">
        <ele>433.20</ele>
        <time>2017-02-11T09:03:56Z</time>
      </trkpt>
      <trkpt lat="42.466811000" lon="-2.561294000">
        <ele>433.20</ele>
        <time>2017-02-11T09:03:57Z</time>
      </trkpt>
      <trkpt lat="42.466810000" lon="-2.561291000">
        <ele>433.10</ele>
        <time>2017-02-11T09:03:58Z</time>
      </trkpt>
      <trkpt lat="42.466812000" lon="-2.561286000">
        <ele>433.10</ele>
        <time>2017-02-11T09:03:59Z</time>
      </trkpt>
      <trkpt lat="42.466813000" lon="-2.561284000">
        <ele>433.10</ele>
        <time>2017-02-11T09:04:00Z</time>
      </trkpt>
      <trkpt lat="42.466815000" lon="-2.561280000">
        <ele>433.20</ele>
        <time>2017-02-11T09:04:01Z</time>
      </trkpt>
      <trkpt lat="42.466817000" lon="-2.561274000">
        <ele>433.20</ele>
        <time>2017-02-11T09:04:02Z</time>
      </trkpt>
      <trkpt lat="42.466817000" lon="-2.561270000">
        <ele>433.40</ele>
        <time>2017-02-11T09:04:03Z</time>
      </trkpt>
      <trkpt lat="42.466817000" lon="-2.561265000">
        <ele>433.50</ele>
        <time>2017-02-11T09:04:04Z</time>
      </trkpt>
      <trkpt lat="42.466819000" lon="-2.561260000">
        <ele>433.40</ele>
        <time>2017-02-11T09:04:05Z</time>
      </trkpt>
      <trkpt lat="42.466820000" lon="-2.561255000">
        <ele>433.40</ele>
        <time>2017-02-11T09:04:06Z</time>
      </trkpt>
      <trkpt lat="42.466820000" lon="-2.561250000">
        <ele>433.20</ele>
        <time>2017-02-11T09:04:07Z</time>
      </trkpt>
      <trkpt lat="42.466820000" lon="-2.561248000">
        <ele>433.00</ele>
        <time>2017-02-11T09:04:08Z</time>
      </trkpt>
      <trkpt lat="42.466821000" lon="-2.561243000">
        <ele>432.80</ele>
        <time>2017-02-11T09:04:09Z</time>
      </trkpt>
      <trkpt lat="42.466823000" lon="-2.561238000">
        <ele>432.70</ele>
        <time>2017-02-11T09:04:10Z</time>
      </trkpt>
      <trkpt lat="42.466824000" lon="-2.561235000">
        <ele>432.60</ele>
        <time>2017-02-11T09:04:11Z</time>
      </trkpt>
      <trkpt lat="42.466825000" lon="-2.561231000">
        <ele>432.50</ele>
        <time>2017-02-11T09:04:12Z</time>
      </trkpt>
      <trkpt lat="42.466826000" lon="-2.561230000">
        <ele>432.50</ele>
        <time>2017-02-11T09:04:13Z</time>
      </trkpt>
      <trkpt lat="42.466828000" lon="-2.561227000">
        <ele>432.50</ele>
        <time>2017-02-11T09:04:14Z</time>
      </trkpt>
      <trkpt lat="42.466831000" lon="-2.561224000">
        <ele>432.70</ele>
        <time>2017-02-11T09:04:15Z</time>
      </trkpt>
      <trkpt lat="42.466834000" lon="-2.561222000">
        <ele>432.80</ele>
        <time>2017-02-11T09:04:16Z</time>
      </trkpt>
      <trkpt lat="42.466837000" lon="-2.561220000">
        <ele>432.80</ele>
        <time>2017-02-11T09:04:17Z</time>
      </trkpt>
      <trkpt lat="42.466841000" lon="-2.561220000">
        <ele>432.90</ele>
        <time>2017-02-11T09:04:18Z</time>
      </trkpt>
      <trkpt lat="42.466844000" lon="-2.561222000">
        <ele>432.90</ele>
        <time>2017-02-11T09:04:19Z</time>
      </trkpt>
      <trkpt lat="42.466848000" lon="-2.561221000">
        <ele>433.00</ele>
        <time>2017-02-11T09:04:20Z</time>
      </trkpt>
      <trkpt lat="42.466852000" lon="-2.561220000">
        <ele>433.00</ele>
        <time>2017-02-11T09:04:21Z</time>
      </trkpt>
      <trkpt lat="42.466855000" lon="-2.561218000">
        <ele>433.00</ele>
        <time>2017-02-11T09:04:22Z</time>
      </trkpt>
      <trkpt lat="42.466858000" lon="-2.561216000">
        <ele>433.00</ele>
        <time>2017-02-11T09:04:23Z</time>
      </trkpt>
      <trkpt lat="42.466860000" lon="-2.561214000">
        <ele>433.00</ele>
        <time>2017-02-11T09:04:24Z</time>
      </trkpt>
      <trkpt lat="42.466862000" lon="-2.561214000">
        <ele>433.10</ele>
        <time>2017-02-11T09:04:25Z</time>
      </trkpt>
      <trkpt lat="42.466865000" lon="-2.561210000">
        <ele>433.20</ele>
        <time>2017-02-11T09:04:26Z</time>
      </trkpt>
      <trkpt lat="42.466870000" lon="-2.561206000">
        <ele>433.20</ele>
        <time>2017-02-11T09:04:28Z</time>
      </trkpt>
      <trkpt lat="42.466870000" lon="-2.561204000">
        <ele>433.20</ele>
        <time>2017-02-11T09:04:29Z</time>
      </trkpt>
      <trkpt lat="42.466869000" lon="-2.561202000">
        <ele>433.30</ele>
        <time>2017-02-11T09:04:30Z</time>
      </trkpt>
      <trkpt lat="42.466869000" lon="-2.561198000">
        <ele>433.20</ele>
        <time>2017-02-11T09:04:31Z</time>
      </trkpt>
      <trkpt lat="42.466869000" lon="-2.561197000">
        <ele>433.20</ele>
        <time>2017-02-11T09:04:32Z</time>
      </trkpt>
      <trkpt lat="42.466869000" lon="-2.561196000">
        <ele>433.20</ele>
        <time>2017-02-11T09:04:33Z</time>
      </trkpt>
      <trkpt lat="42.466871000" lon="-2.561195000">
        <ele>433.20</ele>
        <time>2017-02-11T09:04:34Z</time>
      </trkpt>
      <trkpt lat="42.466874000" lon="-2.561195000">
        <ele>433.00</ele>
        <time>2017-02-11T09:04:35Z</time>
      </trkpt>
      <trkpt lat="42.466874000" lon="-2.561195000">
        <ele>432.80</ele>
        <time>2017-02-11T09:04:36Z</time>
      </trkpt>
      <trkpt lat="42.466876000" lon="-2.561195000">
        <ele>432.70</ele>
        <time>2017-02-11T09:04:37Z</time>
      </trkpt>
      <trkpt lat="42.466878000" lon="-2.561193000">
        <ele>432.70</ele>
        <time>2017-02-11T09:04:38Z</time>
      </trkpt>
      <trkpt lat="42.466880000" lon="-2.561192000">
        <ele>432.60</ele>
        <time>2017-02-11T09:04:39Z</time>
      </trkpt>
      <trkpt lat="42.466881000" lon="-2.561191000">
        <ele>432.50</ele>
        <time>2017-02-11T09:04:40Z</time>
      </trkpt>
      <trkpt lat="42.466882000" lon="-2.561192000">
        <ele>432.50</ele>
        <time>2017-02-11T09:04:41Z</time>
      </trkpt>
      <trkpt lat="42.466882000" lon="-2.561192000">
        <ele>432.40</ele>
        <time>2017-02-11T09:04:42Z</time>
      </trkpt>
      <trkpt lat="42.466882000" lon="-2.561192000">
        <ele>432.40</ele>
        <time>2017-02-11T09:04:43Z</time>
      </trkpt>
      <trkpt lat="42.466883000" lon="-2.561190000">
        <ele>432.40</ele>
        <time>2017-02-11T09:04:44Z</time>
      </trkpt>
      <trkpt lat="42.466883000" lon="-2.561189000">
        <ele>432.40</ele>
        <time>2017-02-11T09:04:45Z</time>
      </trkpt>
      <trkpt lat="42.466884000" lon="-2.561187000">
        <ele>432.40</ele>
        <time>2017-02-11T09:04:46Z</time>
      </trkpt>
      <trkpt lat="42.466884000" lon="-2.561186000">
        <ele>432.50</ele>
        <time>2017-02-11T09:04:47Z</time>
      </trkpt>
      <trkpt lat="42.466885000" lon="-2.561186000">
        <ele>432.60</ele>
        <time>2017-02-11T09:04:48Z</time>
      </trkpt>
      <trkpt lat="42.466887000" lon="-2.561186000">
        <ele>432.60</ele>
        <time>2017-02-11T09:04:49Z</time>
      </trkpt>
      <trkpt lat="42.466889000" lon="-2.561184000">
        <ele>432.60</ele>
        <time>2017-02-11T09:04:50Z</time>
      </trkpt>
      <trkpt lat="42.466893000" lon="-2.561182000">
        <ele>432.60</ele>
        <time>2017-02-11T09:04:51Z</time>
      </trkpt>
      <trkpt lat="42.466895000" lon="-2.561180000">
        <ele>432.70</ele>
        <time>2017-02-11T09:04:52Z</time>
      </trkpt>
      <trkpt lat="42.466896000" lon="-2.561181000">
        <ele>432.60</ele>
        <time>2017-02-11T09:04:53Z</time>
      </trkpt>
      <trkpt lat="42.466896000" lon="-2.561181000">
        <ele>432.60</ele>
        <time>2017-02-11T09:04:54Z</time>
      </trkpt>
      <trkpt lat="42.466896000" lon="-2.561184000">
        <ele>432.70</ele>
        <time>2017-02-11T09:04:55Z</time>
      </trkpt>
      <trkpt lat="42.466894000" lon="-2.561185000">
        <ele>432.70</ele>
        <time>2017-02-11T09:04:56Z</time>
      </trkpt>
      <trkpt lat="42.466894000" lon="-2.561183000">
        <ele>432.70</ele>
        <time>2017-02-11T09:04:57Z</time>
      </trkpt>
      <trkpt lat="42.466893000" lon="-2.561182000">
        <ele>432.70</ele>
        <time>2017-02-11T09:04:58Z</time>
      </trkpt>
      <trkpt lat="42.466889000" lon="-2.561184000">
        <ele>432.80</ele>
        <time>2017-02-11T09:04:59Z</time>
      </trkpt>
      <trkpt lat="42.466886000" lon="-2.561184000">
        <ele>432.80</ele>
        <time>2017-02-11T09:05:00Z</time>
      </trkpt>
      <trkpt lat="42.466882000" lon="-2.561183000">
        <ele>432.80</ele>
        <time>2017-02-11T09:05:01Z</time>
      </trkpt>
      <trkpt lat="42.466879000" lon="-2.561183000">
        <ele>432.90</ele>
        <time>2017-02-11T09:05:02Z</time>
      </trkpt>
      <trkpt lat="42.466876000" lon="-2.561183000">
        <ele>432.90</ele>
        <time>2017-02-11T09:05:03Z</time>
      </trkpt>
      <trkpt lat="42.466872000" lon="-2.561184000">
        <ele>432.90</ele>
        <time>2017-02-11T09:05:04Z</time>
      </trkpt>
      <trkpt lat="42.466869000" lon="-2.561185000">
        <ele>432.80</ele>
        <time>2017-02-11T09:05:05Z</time>
      </trkpt>
      <trkpt lat="42.466865000" lon="-2.561188000">
        <ele>432.80</ele>
        <time>2017-02-11T09:05:06Z</time>
      </trkpt>
      <trkpt lat="42.466862000" lon="-2.561192000">
        <ele>432.80</ele>
        <time>2017-02-11T09:05:07Z</time>
      </trkpt>
      <trkpt lat="42.466860000" lon="-2.561196000">
        <ele>432.70</ele>
        <time>2017-02-11T09:05:08Z</time>
      </trkpt>
      <trkpt lat="42.466858000" lon="-2.561200000">
        <ele>432.70</ele>
        <time>2017-02-11T09:05:09Z</time>
      </trkpt>
      <trkpt lat="42.466856000" lon="-2.561205000">
        <ele>432.60</ele>
        <time>2017-02-11T09:05:10Z</time>
      </trkpt>
      <trkpt lat="42.466855000" lon="-2.561212000">
        <ele>432.80</ele>
        <time>2017-02-11T09:05:11Z</time>
      </trkpt>
      <trkpt lat="42.466852000" lon="-2.561219000">
        <ele>432.90</ele>
        <time>2017-02-11T09:05:12Z</time>
      </trkpt>
      <trkpt lat="42.466852000" lon="-2.561227000">
        <ele>433.00</ele>
        <time>2017-02-11T09:05:13Z</time>
      </trkpt>
      <trkpt lat="42.466849000" lon="-2.561236000">
        <ele>433.10</ele>
        <time>2017-02-11T09:05:14Z</time>
      </trkpt>
      <trkpt lat="42.466848000" lon="-2.561242000">
        <ele>433.10</ele>
        <time>2017-02-11T09:05:15Z</time>
      </trkpt>
      <trkpt lat="42.466847000" lon="-2.561247000">
        <ele>433.10</ele>
        <time>2017-02-11T09:05:16Z</time>
      </trkpt>
      <trkpt lat="42.466846000" lon="-2.561252000">
        <ele>432.90</ele>
        <time>2017-02-11T09:05:17Z</time>
      </trkpt>
      <trkpt lat="42.466845000" lon="-2.561256000">
        <ele>432.70</ele>
        <time>2017-02-11T09:05:18Z</time>
      </trkpt>
      <trkpt lat="42.466844000" lon="-2.561262000">
        <ele>432.80</ele>
        <time>2017-02-11T09:05:19Z</time>
      </trkpt>
      <trkpt lat="42.466844000" lon="-2.561267000">
        <ele>432.90</ele>
        <time>2017-02-11T09:05:20Z</time>
      </trkpt>
      <trkpt lat="42.466846000" lon="-2.561272000">
        <ele>433.00</ele>
        <time>2017-02-11T09:05:21Z</time>
      </trkpt>
      <trkpt lat="42.466846000" lon="-2.561277000">
        <ele>433.10</ele>
        <time>2017-02-11T09:05:22Z</time>
      </trkpt>
      <trkpt lat="42.466845000" lon="-2.561281000">
        <ele>433.20</ele>
        <time>2017-02-11T09:05:23Z</time>
      </trkpt>
      <trkpt lat="42.466845000" lon="-2.561284000">
        <ele>433.30</ele>
        <time>2017-02-11T09:05:24Z</time>
      </trkpt>
      <trkpt lat="42.466844000" lon="-2.561289000">
        <ele>433.60</ele>
        <time>2017-02-11T09:05:25Z</time>
      </trkpt>
      <trkpt lat="42.466843000" lon="-2.561295000">
        <ele>433.80</ele>
        <time>2017-02-11T09:05:26Z</time>
      </trkpt>
      <trkpt lat="42.466841000" lon="-2.561300000">
        <ele>433.90</ele>
        <time>2017-02-11T09:05:27Z</time>
      </trkpt>
      <trkpt lat="42.466839000" lon="-2.561308000">
        <ele>433.80</ele>
        <time>2017-02-11T09:05:29Z</time>
      </trkpt>
      <trkpt lat="42.466837000" lon="-2.561314000">
        <ele>433.70</ele>
        <time>2017-02-11T09:05:30Z</time>
      </trkpt>
      <trkpt lat="42.466834000" lon="-2.561317000">
        <ele>433.60</ele>
        <time>2017-02-11T09:05:31Z</time>
      </trkpt>
      <trkpt lat="42.466833000" lon="-2.561319000">
        <ele>433.50</ele>
        <time>2017-02-11T09:05:32Z</time>
      </trkpt>
      <trkpt lat="42.466830000" lon="-2.561320000">
        <ele>433.50</ele>
        <time>2017-02-11T09:05:33Z</time>
      </trkpt>
      <trkpt lat="42.466829000" lon="-2.561320000">
        <ele>433.40</ele>
        <time>2017-02-11T09:05:34Z</time>
      </trkpt>
      <trkpt lat="42.466828000" lon="-2.561320000">
        <ele>433.40</ele>
        <time>2017-02-11T09:05:35Z</time>
      </trkpt>
      <trkpt lat="42.466827000" lon="-2.561320000">
        <ele>433.40</ele>
        <time>2017-02-11T09:05:36Z</time>
      </trkpt>
      <trkpt lat="42.466826000" lon="-2.561321000">
        <ele>433.20</ele>
        <time>2017-02-11T09:05:37Z</time>
      </trkpt>
      <trkpt lat="42.466826000" lon="-2.561321000">
        <ele>433.10</ele>
        <time>2017-02-11T09:05:38Z</time>
      </trkpt>
      <trkpt lat="42.466828000" lon="-2.561321000">
        <ele>433.00</ele>
        <time>2017-02-11T09:05:39Z</time>
      </trkpt>
      <trkpt lat="42.466830000" lon="-2.561320000">
        <ele>433.00</ele>
        <time>2017-02-11T09:05:40Z</time>
      </trkpt>
      <trkpt lat="42.466830000" lon="-2.561318000">
        <ele>433.00</ele>
        <time>2017-02-11T09:05:41Z</time>
      </trkpt>
      <trkpt lat="42.466832000" lon="-2.561317000">
        <ele>433.00</ele>
        <time>2017-02-11T09:05:42Z</time>
      </trkpt>
      <trkpt lat="42.466832000" lon="-2.561314000">
        <ele>433.00</ele>
        <time>2017-02-11T09:05:43Z</time>
      </trkpt>
      <trkpt lat="42.466833000" lon="-2.561313000">
        <ele>433.00</ele>
        <time>2017-02-11T09:05:44Z</time>
      </trkpt>
      <trkpt lat="42.466833000" lon="-2.561312000">
        <ele>433.00</ele>
        <time>2017-02-11T09:05:45Z</time>
      </trkpt>
      <trkpt lat="42.466834000" lon="-2.561310000">
        <ele>433.00</ele>
        <time>2017-02-11T09:05:46Z</time>
      </trkpt>
      <trkpt lat="42.466836000" lon="-2.561307000">
        <ele>433.00</ele>
        <time>2017-02-11T09:05:47Z</time>
      </trkpt>
      <trkpt lat="42.466839000" lon="-2.561302000">
        <ele>433.10</ele>
        <time>2017-02-11T09:05:48Z</time>
      </trkpt>
      <trkpt lat="42.466842000" lon="-2.561295000">
        <ele>433.10</ele>
        <time>2017-02-11T09:05:49Z</time>
      </trkpt>
      <trkpt lat="42.466846000" lon="-2.561288000">
        <ele>433.20</ele>
        <time>2017-02-11T09:05:50Z</time>
      </trkpt>
      <trkpt lat="42.466850000" lon="-2.561282000">
        <ele>433.10</ele>
        <time>2017-02-11T09:05:51Z</time>
      </trkpt>
      <trkpt lat="42.466855000" lon="-2.561275000">
        <ele>433.10</ele>
        <time>2017-02-11T09:05:52Z</time>
      </trkpt>
      <trkpt lat="42.466860000" lon="-2.561270000">
        <ele>433.20</ele>
        <time>2017-02-11T09:05:53Z</time>
      </trkpt>
      <trkpt lat="42.466864000" lon="-2.561264000">
        <ele>433.30</ele>
        <time>2017-02-11T09:05:54Z</time>
      </trkpt>
      <trkpt lat="42.466867000" lon="-2.561258000">
        <ele>433.40</ele>
        <time>2017-02-11T09:05:55Z</time>
      </trkpt>
      <trkpt lat="42.466870000" lon="-2.561252000">
        <ele>433.40</ele>
        <time>2017-02-11T09:05:56Z</time>
      </trkpt>
      <trkpt lat="42.466872000" lon="-2.561247000">
        <ele>433.50</ele>
        <time>2017-02-11T09:05:57Z</time>
      </trkpt>
      <trkpt lat="42.466875000" lon="-2.561240000">
        <ele>433.50</ele>
        <time>2017-02-11T09:05:58Z</time>
      </trkpt>
      <trkpt lat="42.466878000" lon="-2.561234000">
        <ele>433.40</ele>
        <time>2017-02-11T09:05:59Z</time>
      </trkpt>
      <trkpt lat="42.466879000" lon="-2.561228000">
        <ele>433.30</ele>
        <time>2017-02-11T09:06:00Z</time>
      </trkpt>
      <trkpt lat="42.466881000" lon="-2.561226000">
        <ele>433.20</ele>
        <time>2017-02-11T09:06:01Z</time>
      </trkpt>
      <trkpt lat="42.466883000" lon="-2.561221000">
        <ele>433.10</ele>
        <time>2017-02-11T09:06:02Z</time>
      </trkpt>
      <trkpt lat="42.466885000" lon="-2.561218000">
        <ele>433.10</ele>
        <time>2017-02-11T09:06:03Z</time>
      </trkpt>
      <trkpt lat="42.466889000" lon="-2.561216000">
        <ele>433.10</ele>
        <time>2017-02-11T09:06:04Z</time>
      </trkpt>
      <trkpt lat="42.466891000" lon="-2.561215000">
        <ele>433.20</ele>
        <time>2017-02-11T09:06:05Z</time>
      </trkpt>
      <trkpt lat="42.466892000" lon="-2.561213000">
        <ele>433.30</ele>
        <time>2017-02-11T09:06:06Z</time>
      </trkpt>
      <trkpt lat="42.466893000" lon="-2.561212000">
        <ele>433.40</ele>
        <time>2017-02-11T09:06:07Z</time>
      </trkpt>
      <trkpt lat="42.466894000" lon="-2.561210000">
        <ele>433.50</ele>
        <time>2017-02-11T09:06:08Z</time>
      </trkpt>
      <trkpt lat="42.466894000" lon="-2.561210000">
        <ele>433.50</ele>
        <time>2017-02-11T09:06:09Z</time>
      </trkpt>
      <trkpt lat="42.466895000" lon="-2.561212000">
        <ele>433.60</ele>
        <time>2017-02-11T09:06:10Z</time>
      </trkpt>
      <trkpt lat="42.466895000" lon="-2.561215000">
        <ele>433.40</ele>
        <time>2017-02-11T09:06:11Z</time>
      </trkpt>
      <trkpt lat="42.466895000" lon="-2.561218000">
        <ele>433.30</ele>
        <time>2017-02-11T09:06:12Z</time>
      </trkpt>
      <trkpt lat="42.466894000" lon="-2.561219000">
        <ele>433.30</ele>
        <time>2017-02-11T09:06:13Z</time>
      </trkpt>
      <trkpt lat="42.466892000" lon="-2.561221000">
        <ele>433.20</ele>
        <time>2017-02-11T09:06:14Z</time>
      </trkpt>
      <trkpt lat="42.466892000" lon="-2.561222000">
        <ele>433.20</ele>
        <time>2017-02-11T09:06:15Z</time>
      </trkpt>
      <trkpt lat="42.466893000" lon="-2.561220000">
        <ele>433.10</ele>
        <time>2017-02-11T09:06:16Z</time>
      </trkpt>
      <trkpt lat="42.466894000" lon="-2.561217000">
        <ele>433.10</ele>
        <time>2017-02-11T09:06:17Z</time>
      </trkpt>
      <trkpt lat="42.466895000" lon="-2.561216000">
        <ele>433.10</ele>
        <time>2017-02-11T09:06:18Z</time>
      </trkpt>
      <trkpt lat="42.466898000" lon="-2.561213000">
        <ele>433.20</ele>
        <time>2017-02-11T09:06:19Z</time>
      </trkpt>
      <trkpt lat="42.466900000" lon="-2.561211000">
        <ele>433.30</ele>
        <time>2017-02-11T09:06:20Z</time>
      </trkpt>
      <trkpt lat="42.466902000" lon="-2.561209000">
        <ele>433.30</ele>
        <time>2017-02-11T09:06:21Z</time>
      </trkpt>
      <trkpt lat="42.466903000" lon="-2.561207000">
        <ele>433.30</ele>
        <time>2017-02-11T09:06:22Z</time>
      </trkpt>
      <trkpt lat="42.466904000" lon="-2.561206000">
        <ele>433.30</ele>
        <time>2017-02-11T09:06:23Z</time>
      </trkpt>
      <trkpt lat="42.466902000" lon="-2.561205000">
        <ele>433.30</ele>
        <time>2017-02-11T09:06:24Z</time>
      </trkpt>
      <trkpt lat="42.466901000" lon="-2.561206000">
        <ele>433.20</ele>
        <time>2017-02-11T09:06:25Z</time>
      </trkpt>
      <trkpt lat="42.466902000" lon="-2.561204000">
        <ele>433.10</ele>
        <time>2017-02-11T09:06:26Z</time>
      </trkpt>
      <trkpt lat="42.466900000" lon="-2.561207000">
        <ele>433.00</ele>
        <time>2017-02-11T09:06:27Z</time>
      </trkpt>
      <trkpt lat="42.466900000" lon="-2.561208000">
        <ele>433.00</ele>
        <time>2017-02-11T09:06:28Z</time>
      </trkpt>
      <trkpt lat="42.466899000" lon="-2.561212000">
        <ele>432.90</ele>
        <time>2017-02-11T09:06:30Z</time>
      </trkpt>
      <trkpt lat="42.466899000" lon="-2.561214000">
        <ele>432.90</ele>
        <time>2017-02-11T09:06:31Z</time>
      </trkpt>
      <trkpt lat="42.466898000" lon="-2.561217000">
        <ele>433.00</ele>
        <time>2017-02-11T09:06:32Z</time>
      </trkpt>
      <trkpt lat="42.466897000" lon="-2.561221000">
        <ele>433.00</ele>
        <time>2017-02-11T09:06:33Z</time>
      </trkpt>
      <trkpt lat="42.466897000" lon="-2.561225000">
        <ele>433.00</ele>
        <time>2017-02-11T09:06:34Z</time>
      </trkpt>
      <trkpt lat="42.466898000" lon="-2.561227000">
        <ele>433.00</ele>
        <time>2017-02-11T09:06:35Z</time>
      </trkpt>
      <trkpt lat="42.466898000" lon="-2.561230000">
        <ele>433.00</ele>
        <time>2017-02-11T09:06:36Z</time>
      </trkpt>
      <trkpt lat="42.466897000" lon="-2.561230000">
        <ele>433.00</ele>
        <time>2017-02-11T09:06:37Z</time>
      </trkpt>
      <trkpt lat="42.466898000" lon="-2.561230000">
        <ele>433.00</ele>
        <time>2017-02-11T09:06:38Z</time>
      </trkpt>
      <trkpt lat="42.466897000" lon="-2.561231000">
        <ele>433.10</ele>
        <time>2017-02-11T09:06:39Z</time>
      </trkpt>
      <trkpt lat="42.466894000" lon="-2.561231000">
        <ele>433.20</ele>
        <time>2017-02-11T09:06:40Z</time>
      </trkpt>
      <trkpt lat="42.466890000" lon="-2.561229000">
        <ele>433.20</ele>
        <time>2017-02-11T09:06:41Z</time>
      </trkpt>
      <trkpt lat="42.466886000" lon="-2.561230000">
        <ele>433.20</ele>
        <time>2017-02-11T09:06:42Z</time>
      </trkpt>
      <trkpt lat="42.466882000" lon="-2.561231000">
        <ele>433.30</ele>
        <time>2017-02-11T09:06:43Z</time>
      </trkpt>
      <trkpt lat="42.466875000" lon="-2.561228000">
        <ele>433.30</ele>
        <time>2017-02-11T09:06:44Z</time>
      </trkpt>
      <trkpt lat="42.466872000" lon="-2.561226000">
        <ele>433.30</ele>
        <time>2017-02-11T09:06:45Z</time>
      </trkpt>
      <trkpt lat="42.466868000" lon="-2.561225000">
        <ele>433.30</ele>
        <time>2017-02-11T09:06:46Z</time>
      </trkpt>
      <trkpt lat="42.466863000" lon="-2.561221000">
        <ele>433.30</ele>
        <time>2017-02-11T09:06:47Z</time>
      </trkpt>
      <trkpt lat="42.466859000" lon="-2.561217000">
        <ele>433.30</ele>
        <time>2017-02-11T09:06:48Z</time>
      </trkpt>
      <trkpt lat="42.466856000" lon="-2.561212000">
        <ele>433.20</ele>
        <time>2017-02-11T09:06:49Z</time>
      </trkpt>
      <trkpt lat="42.466853000" lon="-2.561209000">
        <ele>433.20</ele>
        <time>2017-02-11T09:06:50Z</time>
      </trkpt>
      <trkpt lat="42.466852000" lon="-2.561206000">
        <ele>433.20</ele>
        <time>2017-02-11T09:06:51Z</time>
      </trkpt>
      <trkpt lat="42.466851000" lon="-2.561203000">
        <ele>433.10</ele>
        <time>2017-02-11T09:06:52Z</time>
      </trkpt>
      <trkpt lat="42.466851000" lon="-2.561200000">
        <ele>433.10</ele>
        <time>2017-02-11T09:06:53Z</time>
      </trkpt>
      <trkpt lat="42.466851000" lon="-2.561198000">
        <ele>433.10</ele>
        <time>2017-02-11T09:06:54Z</time>
      </trkpt>
      <trkpt lat="42.466851000" lon="-2.561195000">
        <ele>433.00</ele>
        <time>2017-02-11T09:06:55Z</time>
      </trkpt>
      <trkpt lat="42.466852000" lon="-2.561191000">
        <ele>433.00</ele>
        <time>2017-02-11T09:06:56Z</time>
      </trkpt>
      <trkpt lat="42.466854000" lon="-2.561187000">
        <ele>432.80</ele>
        <time>2017-02-11T09:06:57Z</time>
      </trkpt>
      <trkpt lat="42.466855000" lon="-2.561183000">
        <ele>432.70</ele>
        <time>2017-02-11T09:06:58Z</time>
      </trkpt>
      <trkpt lat="42.466856000" lon="-2.561180000">
        <ele>432.60</ele>
        <time>2017-02-11T09:06:59Z</time>
      </trkpt>
      <trkpt lat="42.466856000" lon="-2.561177000">
        <ele>432.50</ele>
        <time>2017-02-11T09:07:00Z</time>
      </trkpt>
      <trkpt lat="42.466858000" lon="-2.561175000">
        <ele>432.60</ele>
        <time>2017-02-11T09:07:01Z</time>
      </trkpt>
      <trkpt lat="42.466859000" lon="-2.561175000">
        <ele>432.60</ele>
        <time>2017-02-11T09:07:02Z</time>
      </trkpt>
      <trkpt lat="42.466861000" lon="-2.561174000">
        <ele>432.80</ele>
        <time>2017-02-11T09:07:03Z</time>
      </trkpt>
      <trkpt lat="42.466863000" lon="-2.561174000">
        <ele>432.90</ele>
        <time>2017-02-11T09:07:04Z</time>
      </trkpt>
      <trkpt lat="42.466867000" lon="-2.561175000">
        <ele>433.00</ele>
        <time>2017-02-11T09:07:05Z</time>
      </trkpt>
      <trkpt lat="42.466869000" lon="-2.561175000">
        <ele>433.10</ele>
        <time>2017-02-11T09:07:06Z</time>
      </trkpt>
      <trkpt lat="42.466869000" lon="-2.561176000">
        <ele>433.20</ele>
        <time>2017-02-11T09:07:07Z</time>
      </trkpt>
      <trkpt lat="42.466872000" lon="-2.561173000">
        <ele>433.20</ele>
        <time>2017-02-11T09:07:08Z</time>
      </trkpt>
      <trkpt lat="42.466875000" lon="-2.561177000">
        <ele>433.20</ele>
        <time>2017-02-11T09:07:09Z</time>
      </trkpt>
      <trkpt lat="42.466877000" lon="-2.561183000">
        <ele>433.20</ele>
        <time>2017-02-11T09:07:10Z</time>
      </trkpt>
      <trkpt lat="42.466879000" lon="-2.561188000">
        <ele>433.10</ele>
        <time>2017-02-11T09:07:11Z</time>
      </trkpt>
      <trkpt lat="42.466880000" lon="-2.561192000">
        <ele>433.10</ele>
        <time>2017-02-11T09:07:12Z</time>
      </trkpt>
      <trkpt lat="42.466882000" lon="-2.561195000">
        <ele>433.00</ele>
        <time>2017-02-11T09:07:13Z</time>
      </trkpt>
      <trkpt lat="42.466883000" lon="-2.561197000">
        <ele>432.90</ele>
        <time>2017-02-11T09:07:14Z</time>
      </trkpt>
      <trkpt lat="42.466883000" lon="-2.561199000">
        <ele>432.90</ele>
        <time>2017-02-11T09:07:15Z</time>
      </trkpt>
      <trkpt lat="42.466884000" lon="-2.561199000">
        <ele>432.90</ele>
        <time>2017-02-11T09:07:16Z</time>
      </trkpt>
      <trkpt lat="42.466883000" lon="-2.561199000">
        <ele>432.90</ele>
        <time>2017-02-11T09:07:17Z</time>
      </trkpt>
      <trkpt lat="42.466882000" lon="-2.561201000">
        <ele>433.00</ele>
        <time>2017-02-11T09:07:18Z</time>
      </trkpt>
      <trkpt lat="42.466881000" lon="-2.561204000">
        <ele>433.00</ele>
        <time>2017-02-11T09:07:19Z</time>
      </trkpt>
      <trkpt lat="42.466881000" lon="-2.561208000">
        <ele>433.00</ele>
        <time>2017-02-11T09:07:20Z</time>
      </trkpt>
      <trkpt lat="42.466879000" lon="-2.561212000">
        <ele>433.00</ele>
        <time>2017-02-11T09:07:21Z</time>
      </trkpt>
      <trkpt lat="42.466880000" lon="-2.561217000">
        <ele>433.00</ele>
        <time>2017-02-11T09:07:22Z</time>
      </trkpt>
      <trkpt lat="42.466880000" lon="-2.561219000">
        <ele>433.00</ele>
        <time>2017-02-11T09:07:23Z</time>
      </trkpt>
      <trkpt lat="42.466881000" lon="-2.561222000">
        <ele>433.00</ele>
        <time>2017-02-11T09:07:24Z</time>
      </trkpt>
      <trkpt lat="42.466882000" lon="-2.561225000">
        <ele>433.00</ele>
        <time>2017-02-11T09:07:25Z</time>
      </trkpt>
      <trkpt lat="42.466883000" lon="-2.561228000">
        <ele>433.00</ele>
        <time>2017-02-11T09:07:26Z</time>
      </trkpt>
      <trkpt lat="42.466883000" lon="-2.561230000">
        <ele>433.10</ele>
        <time>2017-02-11T09:07:27Z</time>
      </trkpt>
      <trkpt lat="42.466885000" lon="-2.561232000">
        <ele>433.10</ele>
        <time>2017-02-11T09:07:28Z</time>
      </trkpt>
      <trkpt lat="42.466887000" lon="-2.561235000">
        <ele>433.10</ele>
        <time>2017-02-11T09:07:29Z</time>
      </trkpt>
      <trkpt lat="42.466886000" lon="-2.561242000">
        <ele>433.30</ele>
        <time>2017-02-11T09:07:31Z</time>
      </trkpt>
      <trkpt lat="42.466889000" lon="-2.561246000">
        <ele>433.40</ele>
        <time>2017-02-11T09:07:32Z</time>
      </trkpt>
      <trkpt lat="42.466890000" lon="-2.561248000">
        <ele>433.50</ele>
        <time>2017-02-11T09:07:33Z</time>
      </trkpt>
      <trkpt lat="42.466892000" lon="-2.561253000">
        <ele>433.60</ele>
        <time>2017-02-11T09:07:34Z</time>
      </trkpt>
      <trkpt lat="42.466890000" lon="-2.561259000">
        <ele>433.50</ele>
        <time>2017-02-11T09:07:35Z</time>
      </trkpt>
      <trkpt lat="42.466889000" lon="-2.561264000">
        <ele>433.50</ele>
        <time>2017-02-11T09:07:36Z</time>
      </trkpt>
      <trkpt lat="42.466888000" lon="-2.561266000">
        <ele>433.40</ele>
        <time>2017-02-11T09:07:37Z</time>
      </trkpt>
      <trkpt lat="42.466887000" lon="-2.561270000">
        <ele>433.40</ele>
        <time>2017-02-11T09:07:38Z</time>
      </trkpt>
      <trkpt lat="42.466887000" lon="-2.561272000">
        <ele>433.40</ele>
        <time>2017-02-11T09:07:39Z</time>
      </trkpt>
      <trkpt lat="42.466886000" lon="-2.561273000">
        <ele>433.40</ele>
        <time>2017-02-11T09:07:40Z</time>
      </trkpt>
      <trkpt lat="42.466885000" lon="-2.561271000">
        <ele>433.40</ele>
        <time>2017-02-11T09:07:41Z</time>
      </trkpt>
      <trkpt lat="42.466884000" lon="-2.561267000">
        <ele>433.30</ele>
        <time>2017-02-11T09:07:42Z</time>
      </trkpt>
      <trkpt lat="42.466883000" lon="-2.561264000">
        <ele>433.30</ele>
        <time>2017-02-11T09:07:43Z</time>
      </trkpt>
      <trkpt lat="42.466881000" lon="-2.561260000">
        <ele>433.30</ele>
        <time>2017-02-11T09:07:44Z</time>
      </trkpt>
      <trkpt lat="42.466880000" lon="-2.561256000">
        <ele>433.30</ele>
        <time>2017-02-11T09:07:45Z</time>
      </trkpt>
      <trkpt lat="42.466881000" lon="-2.561253000">
        <ele>433.30</ele>
        <time>2017-02-11T09:07:46Z</time>
      </trkpt>
      <trkpt lat="42.466882000" lon="-2.561249000">
        <ele>433.40</ele>
        <time>2017-02-11T09:07:47Z</time>
      </trkpt>
      <trkpt lat="42.466882000" lon="-2.561250000">
        <ele>433.40</ele>
        <time>2017-02-11T09:07:48Z</time>
      </trkpt>
      <trkpt lat="42.466881000" lon="-2.561250000">
        <ele>433.40</ele>
        <time>2017-02-11T09:07:49Z</time>
      </trkpt>
      <trkpt lat="42.466878000" lon="-2.561253000">
        <ele>433.40</ele>
        <time>2017-02-11T09:07:50Z</time>
      </trkpt>
      <trkpt lat="42.466877000" lon="-2.561256000">
        <ele>433.40</ele>
        <time>2017-02-11T09:07:51Z</time>
      </trkpt>
      <trkpt lat="42.466875000" lon="-2.561260000">
        <ele>433.40</ele>
        <time>2017-02-11T09:07:52Z</time>
      </trkpt>
      <trkpt lat="42.466873000" lon="-2.561263000">
        <ele>433.30</ele>
        <time>2017-02-11T09:07:53Z</time>
      </trkpt>
      <trkpt lat="42.466872000" lon="-2.561264000">
        <ele>433.30</ele>
        <time>2017-02-11T09:07:54Z</time>
      </trkpt>
      <trkpt lat="42.466872000" lon="-2.561268000">
        <ele>433.30</ele>
        <time>2017-02-11T09:07:55Z</time>
      </trkpt>
      <trkpt lat="42.466871000" lon="-2.561270000">
        <ele>433.30</ele>
        <time>2017-02-11T09:07:56Z</time>
      </trkpt>
      <trkpt lat="42.466870000" lon="-2.561271000">
        <ele>433.20</ele>
        <time>2017-02-11T09:07:57Z</time>
      </trkpt>
      <trkpt lat="42.466868000" lon="-2.561269000">
        <ele>433.10</ele>
        <time>2017-02-11T09:07:58Z</time>
      </trkpt>
      <trkpt lat="42.466867000" lon="-2.561269000">
        <ele>433.00</ele>
        <time>2017-02-11T09:07:59Z</time>
      </trkpt>
      <trkpt lat="42.466866000" lon="-2.561266000">
        <ele>433.00</ele>
        <time>2017-02-11T09:08:00Z</time>
      </trkpt>
      <trkpt lat="42.466867000" lon="-2.561264000">
        <ele>432.90</ele>
        <time>2017-02-11T09:08:01Z</time>
      </trkpt>
      <trkpt lat="42.466867000" lon="-2.561263000">
        <ele>432.90</ele>
        <time>2017-02-11T09:08:02Z</time>
      </trkpt>
      <trkpt lat="42.466867000" lon="-2.561264000">
        <ele>432.90</ele>
        <time>2017-02-11T09:08:03Z</time>
      </trkpt>
      <trkpt lat="42.466866000" lon="-2.561265000">
        <ele>432.90</ele>
        <time>2017-02-11T09:08:04Z</time>
      </trkpt>
      <trkpt lat="42.466864000" lon="-2.561266000">
        <ele>432.80</ele>
        <time>2017-02-11T09:08:05Z</time>
      </trkpt>
      <trkpt lat="42.466864000" lon="-2.561267000">
        <ele>432.80</ele>
        <time>2017-02-11T09:08:06Z</time>
      </trkpt>
      <trkpt lat="42.466864000" lon="-2.561267000">
        <ele>432.80</ele>
        <time>2017-02-11T09:08:07Z</time>
      </trkpt>
      <trkpt lat="42.466865000" lon="-2.561268000">
        <ele>432.80</ele>
        <time>2017-02-11T09:08:08Z</time>
      </trkpt>
      <trkpt lat="42.466864000" lon="-2.561269000">
        <ele>432.80</ele>
        <time>2017-02-11T09:08:09Z</time>
      </trkpt>
      <trkpt lat="42.466863000" lon="-2.561270000">
        <ele>432.80</ele>
        <time>2017-02-11T09:08:10Z</time>
      </trkpt>
      <trkpt lat="42.466863000" lon="-2.561270000">
        <ele>432.80</ele>
        <time>2017-02-11T09:08:11Z</time>
      </trkpt>
      <trkpt lat="42.466865000" lon="-2.561272000">
        <ele>432.80</ele>
        <time>2017-02-11T09:08:12Z</time>
      </trkpt>
      <trkpt lat="42.466866000" lon="-2.561274000">
        <ele>432.80</ele>
        <time>2017-02-11T09:08:13Z</time>
      </trkpt>
      <trkpt lat="42.466867000" lon="-2.561276000">
        <ele>432.80</ele>
        <time>2017-02-11T09:08:14Z</time>
      </trkpt>
      <trkpt lat="42.466869000" lon="-2.561277000">
        <ele>432.90</ele>
        <time>2017-02-11T09:08:15Z</time>
      </trkpt>
      <trkpt lat="42.466871000" lon="-2.561280000">
        <ele>432.90</ele>
        <time>2017-02-11T09:08:16Z</time>
      </trkpt>
      <trkpt lat="42.466872000" lon="-2.561282000">
        <ele>432.90</ele>
        <time>2017-02-11T09:08:17Z</time>
      </trkpt>
      <trkpt lat="42.466874000" lon="-2.561283000">
        <ele>433.00</ele>
        <time>2017-02-11T09:08:18Z</time>
      </trkpt>
      <trkpt lat="42.466874000" lon="-2.561287000">
        <ele>433.00</ele>
        <time>2017-02-11T09:08:19Z</time>
      </trkpt>
      <trkpt lat="42.466875000" lon="-2.561292000">
        <ele>433.00</ele>
        <time>2017-02-11T09:08:20Z</time>
      </trkpt>
      <trkpt lat="42.466875000" lon="-2.561294000">
        <ele>433.10</ele>
        <time>2017-02-11T09:08:21Z</time>
      </trkpt>
      <trkpt lat="42.466876000" lon="-2.561294000">
        <ele>433.10</ele>
        <time>2017-02-11T09:08:22Z</time>
      </trkpt>
      <trkpt lat="42.466876000" lon="-2.561293000">
        <ele>433.10</ele>
        <time>2017-02-11T09:08:23Z</time>
      </trkpt>
      <trkpt lat="42.466876000" lon="-2.561293000">
        <ele>433.10</ele>
        <time>2017-02-11T09:08:24Z</time>
      </trkpt>
      <trkpt lat="42.466874000" lon="-2.561292000">
        <ele>433.10</ele>
        <time>2017-02-11T09:08:25Z</time>
      </trkpt>
      <trkpt lat="42.466873000" lon="-2.561290000">
        <ele>433.10</ele>
        <time>2017-02-11T09:08:26Z</time>
      </trkpt>
      <trkpt lat="42.466872000" lon="-2.561289000">
        <ele>433.10</ele>
        <time>2017-02-11T09:08:27Z</time>
      </trkpt>
      <trkpt lat="42.466871000" lon="-2.561288000">
        <ele>433.10</ele>
        <time>2017-02-11T09:08:28Z</time>
      </trkpt>
      <trkpt lat="42.466872000" lon="-2.561287000">
        <ele>433.30</ele>
        <time>2017-02-11T09:08:29Z</time>
      </trkpt>
      <trkpt lat="42.466874000" lon="-2.561286000">
        <ele>433.40</ele>
        <time>2017-02-11T09:08:30Z</time>
      </trkpt>
      <trkpt lat="42.466873000" lon="-2.561283000">
        <ele>433.60</ele>
        <time>2017-02-11T09:08:32Z</time>
      </trkpt>
      <trkpt lat="42.466873000" lon="-2.561282000">
        <ele>433.50</ele>
        <time>2017-02-11T09:08:33Z</time>
      </trkpt>
      <trkpt lat="42.466874000" lon="-2.561279000">
        <ele>433.50</ele>
        <time>2017-02-11T09:08:34Z</time>
      </trkpt>
      <trkpt lat="42.466874000" lon="-2.561276000">
        <ele>433.40</ele>
        <time>2017-02-11T09:08:35Z</time>
      </trkpt>
      <trkpt lat="42.466876000" lon="-2.561273000">
        <ele>433.40</ele>
        <time>2017-02-11T09:08:36Z</time>
      </trkpt>
      <trkpt lat="42.466877000" lon="-2.561272000">
        <ele>433.40</ele>
        <time>2017-02-11T09:08:37Z</time>
      </trkpt>
      <trkpt lat="42.466879000" lon="-2.561272000">
        <ele>433.40</ele>
        <time>2017-02-11T09:08:38Z</time>
      </trkpt>
      <trkpt lat="42.466881000" lon="-2.561271000">
        <ele>433.40</ele>
        <time>2017-02-11T09:08:39Z</time>
      </trkpt>
      <trkpt lat="42.466881000" lon="-2.561271000">
        <ele>433.30</ele>
        <time>2017-02-11T09:08:40Z</time>
      </trkpt>
      <trkpt lat="42.466881000" lon="-2.561271000">
        <ele>433.20</ele>
        <time>2017-02-11T09:08:41Z</time>
      </trkpt>
      <trkpt lat="42.466881000" lon="-2.561270000">
        <ele>433.10</ele>
        <time>2017-02-11T09:08:42Z</time>
      </trkpt>
      <trkpt lat="42.466880000" lon="-2.561269000">
        <ele>433.00</ele>
        <time>2017-02-11T09:08:43Z</time>
      </trkpt>
      <trkpt lat="42.466880000" lon="-2.561269000">
        <ele>432.90</ele>
        <time>2017-02-11T09:08:44Z</time>
      </trkpt>
      <trkpt lat="42.466879000" lon="-2.561268000">
        <ele>432.80</ele>
        <time>2017-02-11T09:08:45Z</time>
      </trkpt>
      <trkpt lat="42.466878000" lon="-2.561268000">
        <ele>432.80</ele>
        <time>2017-02-11T09:08:46Z</time>
      </trkpt>
      <trkpt lat="42.466877000" lon="-2.561267000">
        <ele>432.90</ele>
        <time>2017-02-11T09:08:47Z</time>
      </trkpt>
      <trkpt lat="42.466877000" lon="-2.561267000">
        <ele>432.90</ele>
        <time>2017-02-11T09:08:48Z</time>
      </trkpt>
      <trkpt lat="42.466878000" lon="-2.561267000">
        <ele>433.00</ele>
        <time>2017-02-11T09:08:49Z</time>
      </trkpt>
      <trkpt lat="42.466878000" lon="-2.561266000">
        <ele>433.00</ele>
        <time>2017-02-11T09:08:50Z</time>
      </trkpt>
      <trkpt lat="42.466877000" lon="-2.561266000">
        <ele>432.90</ele>
        <time>2017-02-11T09:08:51Z</time>
      </trkpt>
      <trkpt lat="42.466877000" lon="-2.561265000">
        <ele>432.90</ele>
        <time>2017-02-11T09:08:52Z</time>
      </trkpt>
      <trkpt lat="42.466878000" lon="-2.561265000">
        <ele>432.90</ele>
        <time>2017-02-11T09:08:53Z</time>
      </trkpt>
      <trkpt lat="42.466879000" lon="-2.561267000">
        <ele>432.90</ele>
        <time>2017-02-11T09:08:54Z</time>
      </trkpt>
      <trkpt lat="42.466881000" lon="-2.561270000">
        <ele>432.90</ele>
        <time>2017-02-11T09:08:55Z</time>
      </trkpt>
      <trkpt lat="42.466882000" lon="-2.561270000">
        <ele>432.90</ele>
        <time>2017-02-11T09:08:56Z</time>
      </trkpt>
      <trkpt lat="42.466882000" lon="-2.561269000">
        <ele>433.00</ele>
        <time>2017-02-11T09:08:57Z</time>
      </trkpt>
      <trkpt lat="42.466881000" lon="-2.561269000">
        <ele>433.00</ele>
        <time>2017-02-11T09:08:58Z</time>
      </trkpt>
      <trkpt lat="42.466880000" lon="-2.561271000">
        <ele>433.10</ele>
        <time>2017-02-11T09:08:59Z</time>
      </trkpt>
      <trkpt lat="42.466878000" lon="-2.561270000">
        <ele>433.10</ele>
        <time>2017-02-11T09:09:00Z</time>
      </trkpt>
      <trkpt lat="42.466875000" lon="-2.561267000">
        <ele>433.20</ele>
        <time>2017-02-11T09:09:01Z</time>
      </trkpt>
      <trkpt lat="42.466875000" lon="-2.561268000">
        <ele>433.20</ele>
        <time>2017-02-11T09:09:02Z</time>
      </trkpt>
      <trkpt lat="42.466875000" lon="-2.561270000">
        <ele>433.30</ele>
        <time>2017-02-11T09:09:03Z</time>
      </trkpt>
      <trkpt lat="42.466874000" lon="-2.561270000">
        <ele>433.40</ele>
        <time>2017-02-11T09:09:04Z</time>
      </trkpt>
      <trkpt lat="42.466874000" lon="-2.561270000">
        <ele>433.40</ele>
        <time>2017-02-11T09:09:05Z</time>
      </trkpt>
      <trkpt lat="42.466876000" lon="-2.561271000">
        <ele>433.30</ele>
        <time>2017-02-11T09:09:06Z</time>
      </trkpt>
      <trkpt lat="42.466876000" lon="-2.561269000">
        <ele>433.10</ele>
        <time>2017-02-11T09:09:07Z</time>
      </trkpt>
      <trkpt lat="42.466875000" lon="-2.561267000">
        <ele>433.00</ele>
        <time>2017-02-11T09:09:08Z</time>
      </trkpt>
      <trkpt lat="42.466874000" lon="-2.561266000">
        <ele>432.90</ele>
        <time>2017-02-11T09:09:09Z</time>
      </trkpt>
      <trkpt lat="42.466872000" lon="-2.561265000">
        <ele>432.80</ele>
        <time>2017-02-11T09:09:10Z</time>
      </trkpt>
      <trkpt lat="42.466871000" lon="-2.561265000">
        <ele>433.10</ele>
        <time>2017-02-11T09:09:11Z</time>
      </trkpt>
      <trkpt lat="42.466870000" lon="-2.561265000">
        <ele>433.30</ele>
        <time>2017-02-11T09:09:12Z</time>
      </trkpt>
      <trkpt lat="42.466867000" lon="-2.561263000">
        <ele>433.40</ele>
        <time>2017-02-11T09:09:13Z</time>
      </trkpt>
      <trkpt lat="42.466866000" lon="-2.561264000">
        <ele>433.50</ele>
        <time>2017-02-11T09:09:14Z</time>
      </trkpt>
      <trkpt lat="42.466865000" lon="-2.561267000">
        <ele>433.50</ele>
        <time>2017-02-11T09:09:15Z</time>
      </trkpt>
      <trkpt lat="42.466866000" lon="-2.561269000">
        <ele>433.40</ele>
        <time>2017-02-11T09:09:16Z</time>
      </trkpt>
      <trkpt lat="42.466865000" lon="-2.561271000">
        <ele>433.40</ele>
        <time>2017-02-11T09:09:17Z</time>
      </trkpt>
      <trkpt lat="42.466864000" lon="-2.561271000">
        <ele>433.40</ele>
        <time>2017-02-11T09:09:18Z</time>
      </trkpt>
      <trkpt lat="42.466864000" lon="-2.561271000">
        <ele>433.50</ele>
        <time>2017-02-11T09:09:19Z</time>
      </trkpt>
      <trkpt lat="42.466864000" lon="-2.561271000">
        <ele>433.60</ele>
        <time>2017-02-11T09:09:20Z</time>
      </trkpt>
      <trkpt lat="42.466865000" lon="-2.561272000">
        <ele>433.60</ele>
        <time>2017-02-11T09:09:21Z</time>
      </trkpt>
      <trkpt lat="42.466865000" lon="-2.561275000">
        <ele>433.70</ele>
        <time>2017-02-11T09:09:22Z</time>
      </trkpt>
      <trkpt lat="42.466866000" lon="-2.561277000">
        <ele>433.60</ele>
        <time>2017-02-11T09:09:23Z</time>
      </trkpt>
      <trkpt lat="42.466868000" lon="-2.561279000">
        <ele>433.50</ele>
        <time>2017-02-11T09:09:24Z</time>
      </trkpt>
      <trkpt lat="42.466871000" lon="-2.561281000">
        <ele>433.50</ele>
        <time>2017-02-11T09:09:25Z</time>
      </trkpt>
      <trkpt lat="42.466873000" lon="-2.561282000">
        <ele>433.40</ele>
        <time>2017-02-11T09:09:26Z</time>
      </trkpt>
      <trkpt lat="42.466876000" lon="-2.561281000">
        <ele>433.30</ele>
        <time>2017-02-11T09:09:27Z</time>
      </trkpt>
      <trkpt lat="42.466879000" lon="-2.561280000">
        <ele>433.20</ele>
        <time>2017-02-11T09:09:28Z</time>
      </trkpt>
      <trkpt lat="42.466883000" lon="-2.561279000">
        <ele>433.10</ele>
        <time>2017-02-11T09:09:29Z</time>
      </trkpt>
      <trkpt lat="42.466886000" lon="-2.561278000">
        <ele>433.00</ele>
        <time>2017-02-11T09:09:30Z</time>
      </trkpt>
      <trkpt lat="42.466887000" lon="-2.561278000">
        <ele>432.90</ele>
        <time>2017-02-11T09:09:31Z</time>
      </trkpt>
      <trkpt lat="42.466888000" lon="-2.561277000">
        <ele>433.00</ele>
        <time>2017-02-11T09:09:33Z</time>
      </trkpt>
      <trkpt lat="42.466888000" lon="-2.561280000">
        <ele>433.10</ele>
        <time>2017-02-11T09:09:34Z</time>
      </trkpt>
      <trkpt lat="42.466887000" lon="-2.561283000">
        <ele>433.10</ele>
        <time>2017-02-11T09:09:35Z</time>
      </trkpt>
      <trkpt lat="42.466884000" lon="-2.561286000">
        <ele>433.20</ele>
        <time>2017-02-11T09:09:36Z</time>
      </trkpt>
      <trkpt lat="42.466885000" lon="-2.561294000">
        <ele>433.20</ele>
        <time>2017-02-11T09:09:37Z</time>
      </trkpt>
      <trkpt lat="42.466884000" lon="-2.561298000">
        <ele>433.20</ele>
        <time>2017-02-11T09:09:38Z</time>
      </trkpt>
      <trkpt lat="42.466882000" lon="-2.561305000">
        <ele>433.30</ele>
        <time>2017-02-11T09:09:39Z</time>
      </trkpt>
      <trkpt lat="42.466880000" lon="-2.561311000">
        <ele>433.30</ele>
        <time>2017-02-11T09:09:40Z</time>
      </trkpt>
      <trkpt lat="42.466877000" lon="-2.561315000">
        <ele>433.30</ele>
        <time>2017-02-11T09:09:41Z</time>
      </trkpt>
      <trkpt lat="42.466873000" lon="-2.561321000">
        <ele>433.30</ele>
        <time>2017-02-11T09:09:42Z</time>
      </trkpt>
      <trkpt lat="42.466870000" lon="-2.561328000">
        <ele>433.20</ele>
        <time>2017-02-11T09:09:43Z</time>
      </trkpt>
      <trkpt lat="42.466867000" lon="-2.561332000">
        <ele>433.20</ele>
        <time>2017-02-11T09:09:44Z</time>
      </trkpt>
      <trkpt lat="42.466863000" lon="-2.561336000">
        <ele>433.20</ele>
        <time>2017-02-11T09:09:45Z</time>
      </trkpt>
      <trkpt lat="42.466861000" lon="-2.561339000">
        <ele>433.20</ele>
        <time>2017-02-11T09:09:46Z</time>
      </trkpt>
      <trkpt lat="42.466859000" lon="-2.561342000">
        <ele>433.30</ele>
        <time>2017-02-11T09:09:47Z</time>
      </trkpt>
      <trkpt lat="42.466857000" lon="-2.561342000">
        <ele>433.40</ele>
        <time>2017-02-11T09:09:48Z</time>
      </trkpt>
      <trkpt lat="42.466854000" lon="-2.561343000">
        <ele>433.50</ele>
        <time>2017-02-11T09:09:49Z</time>
      </trkpt>
      <trkpt lat="42.466852000" lon="-2.561339000">
        <ele>433.60</ele>
        <time>2017-02-11T09:09:50Z</time>
      </trkpt>
      <trkpt lat="42.466851000" lon="-2.561334000">
        <ele>433.60</ele>
        <time>2017-02-11T09:09:51Z</time>
      </trkpt>
      <trkpt lat="42.466849000" lon="-2.561333000">
        <ele>433.70</ele>
        <time>2017-02-11T09:09:52Z</time>
      </trkpt>
      <trkpt lat="42.466846000" lon="-2.561331000">
        <ele>433.70</ele>
        <time>2017-02-11T09:09:53Z</time>
      </trkpt>
      <trkpt lat="42.466844000" lon="-2.561331000">
        <ele>433.80</ele>
        <time>2017-02-11T09:09:54Z</time>
      </trkpt>
      <trkpt lat="42.466842000" lon="-2.561330000">
        <ele>433.80</ele>
        <time>2017-02-11T09:09:55Z</time>
      </trkpt>
      <trkpt lat="42.466839000" lon="-2.561333000">
        <ele>433.80</ele>
        <time>2017-02-11T09:09:56Z</time>
      </trkpt>
      <trkpt lat="42.466836000" lon="-2.561336000">
        <ele>433.80</ele>
        <time>2017-02-11T09:09:57Z</time>
      </trkpt>
      <trkpt lat="42.466833000" lon="-2.561340000">
        <ele>433.80</ele>
        <time>2017-02-11T09:09:58Z</time>
      </trkpt>
      <trkpt lat="42.466831000" lon="-2.561340000">
        <ele>433.80</ele>
        <time>2017-02-11T09:09:59Z</time>
      </trkpt>
      <trkpt lat="42.466830000" lon="-2.561340000">
        <ele>433.80</ele>
        <time>2017-02-11T09:10:00Z</time>
      </trkpt>
      <trkpt lat="42.466830000" lon="-2.561340000">
        <ele>433.70</ele>
        <time>2017-02-11T09:10:01Z</time>
      </trkpt>
      <trkpt lat="42.466830000" lon="-2.561341000">
        <ele>433.60</ele>
        <time>2017-02-11T09:10:02Z</time>
      </trkpt>
      <trkpt lat="42.466833000" lon="-2.561341000">
        <ele>433.50</ele>
        <time>2017-02-11T09:10:03Z</time>
      </trkpt>
      <trkpt lat="42.466834000" lon="-2.561341000">
        <ele>433.50</ele>
        <time>2017-02-11T09:10:04Z</time>
      </trkpt>
      <trkpt lat="42.466837000" lon="-2.561342000">
        <ele>433.40</ele>
        <time>2017-02-11T09:10:05Z</time>
      </trkpt>
      <trkpt lat="42.466840000" lon="-2.561343000">
        <ele>433.30</ele>
        <time>2017-02-11T09:10:06Z</time>
      </trkpt>
      <trkpt lat="42.466844000" lon="-2.561342000">
        <ele>433.40</ele>
        <time>2017-02-11T09:10:07Z</time>
      </trkpt>
      <trkpt lat="42.466847000" lon="-2.561340000">
        <ele>433.50</ele>
        <time>2017-02-11T09:10:08Z</time>
      </trkpt>
      <trkpt lat="42.466848000" lon="-2.561336000">
        <ele>433.50</ele>
        <time>2017-02-11T09:10:09Z</time>
      </trkpt>
      <trkpt lat="42.466849000" lon="-2.561335000">
        <ele>433.40</ele>
        <time>2017-02-11T09:10:10Z</time>
      </trkpt>
      <trkpt lat="42.466851000" lon="-2.561333000">
        <ele>433.40</ele>
        <time>2017-02-11T09:10:11Z</time>
      </trkpt>
      <trkpt lat="42.466852000" lon="-2.561330000">
        <ele>433.40</ele>
        <time>2017-02-11T09:10:12Z</time>
      </trkpt>
      <trkpt lat="42.466854000" lon="-2.561328000">
        <ele>433.40</ele>
        <time>2017-02-11T09:10:13Z</time>
      </trkpt>
      <trkpt lat="42.466855000" lon="-2.561326000">
        <ele>433.40</ele>
        <time>2017-02-11T09:10:14Z</time>
      </trkpt>
      <trkpt lat="42.466856000" lon="-2.561323000">
        <ele>433.20</ele>
        <time>2017-02-11T09:10:15Z</time>
      </trkpt>
      <trkpt lat="42.466856000" lon="-2.561318000">
        <ele>433.10</ele>
        <time>2017-02-11T09:10:16Z</time>
      </trkpt>
      <trkpt lat="42.466858000" lon="-2.561315000">
        <ele>433.00</ele>
        <time>2017-02-11T09:10:17Z</time>
      </trkpt>
      <trkpt lat="42.466860000" lon="-2.561313000">
        <ele>433.00</ele>
        <time>2017-02-11T09:10:18Z</time>
      </trkpt>
      <trkpt lat="42.466861000" lon="-2.561314000">
        <ele>432.90</ele>
        <time>2017-02-11T09:10:19Z</time>
      </trkpt>
      <trkpt lat="42.466863000" lon="-2.561315000">
        <ele>432.90</ele>
        <time>2017-02-11T09:10:20Z</time>
      </trkpt>
      <trkpt lat="42.466863000" lon="-2.561316000">
        <ele>432.90</ele>
        <time>2017-02-11T09:10:21Z</time>
      </trkpt>
      <trkpt lat="42.466864000" lon="-2.561313000">
        <ele>433.00</ele>
        <time>2017-02-11T09:10:22Z</time>
      </trkpt>
      <trkpt lat="42.466862000" lon="-2.561311000">
        <ele>433.10</ele>
        <time>2017-02-11T09:10:23Z</time>
      </trkpt>
      <trkpt lat="42.466861000" lon="-2.561310000">
        <ele>433.20</ele>
        <time>2017-02-11T09:10:24Z</time>
      </trkpt>
      <trkpt lat="42.466858000" lon="-2.561308000">
        <ele>433.30</ele>
        <time>2017-02-11T09:10:25Z</time>
      </trkpt>
      <trkpt lat="42.466857000" lon="-2.561302000">
        <ele>433.40</ele>
        <time>2017-02-11T09:10:26Z</time>
      </trkpt>
      <trkpt lat="42.466854000" lon="-2.561300000">
        <ele>433.40</ele>
        <time>2017-02-11T09:10:27Z</time>
      </trkpt>
      <trkpt lat="42.466852000" lon="-2.561298000">
        <ele>433.50</ele>
        <time>2017-02-11T09:10:28Z</time>
      </trkpt>
      <trkpt lat="42.466850000" lon="-2.561297000">
        <ele>433.50</ele>
        <time>2017-02-11T09:10:29Z</time>
      </trkpt>
      <trkpt lat="42.466848000" lon="-2.561295000">
        <ele>433.50</ele>
        <time>2017-02-11T09:10:30Z</time>
      </trkpt>
      <trkpt lat="42.466847000" lon="-2.561291000">
        <ele>433.50</ele>
        <time>2017-02-11T09:10:31Z</time>
      </trkpt>
      <trkpt lat="42.466847000" lon="-2.561288000">
        <ele>433.50</ele>
        <time>2017-02-11T09:10:32Z</time>
      </trkpt>
      <trkpt lat="42.466846000" lon="-2.561282000">
        <ele>433.60</ele>
        <time>2017-02-11T09:10:34Z</time>
      </trkpt>
      <trkpt lat="42.466845000" lon="-2.561278000">
        <ele>433.70</ele>
        <time>2017-02-11T09:10:35Z</time>
      </trkpt>
      <trkpt lat="42.466846000" lon="-2.561278000">
        <ele>433.80</ele>
        <time>2017-02-11T09:10:36Z</time>
      </trkpt>
      <trkpt lat="42.466849000" lon="-2.561280000">
        <ele>433.80</ele>
        <time>2017-02-11T09:10:37Z</time>
      </trkpt>
      <trkpt lat="42.466849000" lon="-2.561282000">
        <ele>433.90</ele>
        <time>2017-02-11T09:10:38Z</time>
      </trkpt>
      <trkpt lat="42.466848000" lon="-2.561285000">
        <ele>433.90</ele>
        <time>2017-02-11T09:10:39Z</time>
      </trkpt>
      <trkpt lat="42.466844000" lon="-2.561289000">
        <ele>433.90</ele>
        <time>2017-02-11T09:10:40Z</time>
      </trkpt>
      <trkpt lat="42.466839000" lon="-2.561297000">
        <ele>433.80</ele>
        <time>2017-02-11T09:10:41Z</time>
      </trkpt>
      <trkpt lat="42.466835000" lon="-2.561302000">
        <ele>433.70</ele>
        <time>2017-02-11T09:10:42Z</time>
      </trkpt>
      <trkpt lat="42.466832000" lon="-2.561310000">
        <ele>433.60</ele>
        <time>2017-02-11T09:10:43Z</time>
      </trkpt>
      <trkpt lat="42.466828000" lon="-2.561318000">
        <ele>433.50</ele>
        <time>2017-02-11T09:10:44Z</time>
      </trkpt>
      <trkpt lat="42.466826000" lon="-2.561326000">
        <ele>433.40</ele>
        <time>2017-02-11T09:10:45Z</time>
      </trkpt>
      <trkpt lat="42.466824000" lon="-2.561335000">
        <ele>433.40</ele>
        <time>2017-02-11T09:10:46Z</time>
      </trkpt>
      <trkpt lat="42.466823000" lon="-2.561342000">
        <ele>433.40</ele>
        <time>2017-02-11T09:10:47Z</time>
      </trkpt>
      <trkpt lat="42.466823000" lon="-2.561346000">
        <ele>433.30</ele>
        <time>2017-02-11T09:10:48Z</time>
      </trkpt>
      <trkpt lat="42.466824000" lon="-2.561348000">
        <ele>433.30</ele>
        <time>2017-02-11T09:10:49Z</time>
      </trkpt>
      <trkpt lat="42.466825000" lon="-2.561353000">
        <ele>433.30</ele>
        <time>2017-02-11T09:10:50Z</time>
      </trkpt>
      <trkpt lat="42.466826000" lon="-2.561357000">
        <ele>433.30</ele>
        <time>2017-02-11T09:10:51Z</time>
      </trkpt>
      <trkpt lat="42.466826000" lon="-2.561358000">
        <ele>433.30</ele>
        <time>2017-02-11T09:10:52Z</time>
      </trkpt>
      <trkpt lat="42.466828000" lon="-2.561356000">
        <ele>433.30</ele>
        <time>2017-02-11T09:10:53Z</time>
      </trkpt>
      <trkpt lat="42.466831000" lon="-2.561355000">
        <ele>433.20</ele>
        <time>2017-02-11T09:10:54Z</time>
      </trkpt>
      <trkpt lat="42.466834000" lon="-2.561354000">
        <ele>433.20</ele>
        <time>2017-02-11T09:10:55Z</time>
      </trkpt>
      <trkpt lat="42.466836000" lon="-2.561353000">
        <ele>433.30</ele>
        <time>2017-02-11T09:10:56Z</time>
      </trkpt>
      <trkpt lat="42.466838000" lon="-2.561353000">
        <ele>433.30</ele>
        <time>2017-02-11T09:10:57Z</time>
      </trkpt>
      <trkpt lat="42.466839000" lon="-2.561351000">
        <ele>433.30</ele>
        <time>2017-02-11T09:10:58Z</time>
      </trkpt>
      <trkpt lat="42.466838000" lon="-2.561349000">
        <ele>433.30</ele>
        <time>2017-02-11T09:10:59Z</time>
      </trkpt>
      <trkpt lat="42.466837000" lon="-2.561344000">
        <ele>433.30</ele>
        <time>2017-02-11T09:11:00Z</time>
      </trkpt>
      <trkpt lat="42.466834000" lon="-2.561339000">
        <ele>433.40</ele>
        <time>2017-02-11T09:11:01Z</time>
      </trkpt>
      <trkpt lat="42.466831000" lon="-2.561334000">
        <ele>433.50</ele>
        <time>2017-02-11T09:11:02Z</time>
      </trkpt>
      <trkpt lat="42.466829000" lon="-2.561331000">
        <ele>433.70</ele>
        <time>2017-02-11T09:11:03Z</time>
      </trkpt>
      <trkpt lat="42.466828000" lon="-2.561330000">
        <ele>433.80</ele>
        <time>2017-02-11T09:11:04Z</time>
      </trkpt>
      <trkpt lat="42.466830000" lon="-2.561331000">
        <ele>433.80</ele>
        <time>2017-02-11T09:11:05Z</time>
      </trkpt>
      <trkpt lat="42.466831000" lon="-2.561332000">
        <ele>433.80</ele>
        <time>2017-02-11T09:11:06Z</time>
      </trkpt>
      <trkpt lat="42.466832000" lon="-2.561332000">
        <ele>433.70</ele>
        <time>2017-02-11T09:11:07Z</time>
      </trkpt>
      <trkpt lat="42.466833000" lon="-2.561335000">
        <ele>433.70</ele>
        <time>2017-02-11T09:11:08Z</time>
      </trkpt>
      <trkpt lat="42.466833000" lon="-2.561337000">
        <ele>433.70</ele>
        <time>2017-02-11T09:11:09Z</time>
      </trkpt>
      <trkpt lat="42.466833000" lon="-2.561339000">
        <ele>433.60</ele>
        <time>2017-02-11T09:11:10Z</time>
      </trkpt>
      <trkpt lat="42.466834000" lon="-2.561343000">
        <ele>433.60</ele>
        <time>2017-02-11T09:11:11Z</time>
      </trkpt>
      <trkpt lat="42.466833000" lon="-2.561344000">
        <ele>433.60</ele>
        <time>2017-02-11T09:11:12Z</time>
      </trkpt>
      <trkpt lat="42.466832000" lon="-2.561345000">
        <ele>433.50</ele>
        <time>2017-02-11T09:11:13Z</time>
      </trkpt>
      <trkpt lat="42.466829000" lon="-2.561346000">
        <ele>433.40</ele>
        <time>2017-02-11T09:11:14Z</time>
      </trkpt>
      <trkpt lat="42.466826000" lon="-2.561345000">
        <ele>433.30</ele>
        <time>2017-02-11T09:11:15Z</time>
      </trkpt>
      <trkpt lat="42.466821000" lon="-2.561344000">
        <ele>433.20</ele>
        <time>2017-02-11T09:11:16Z</time>
      </trkpt>
      <trkpt lat="42.466817000" lon="-2.561343000">
        <ele>433.20</ele>
        <time>2017-02-11T09:11:17Z</time>
      </trkpt>
      <trkpt lat="42.466814000" lon="-2.561340000">
        <ele>433.20</ele>
        <time>2017-02-11T09:11:18Z</time>
      </trkpt>
      <trkpt lat="42.466812000" lon="-2.561335000">
        <ele>433.10</ele>
        <time>2017-02-11T09:11:19Z</time>
      </trkpt>
      <trkpt lat="42.466811000" lon="-2.561332000">
        <ele>433.10</ele>
        <time>2017-02-11T09:11:20Z</time>
      </trkpt>
      <trkpt lat="42.466810000" lon="-2.561327000">
        <ele>433.20</ele>
        <time>2017-02-11T09:11:21Z</time>
      </trkpt>
      <trkpt lat="42.466810000" lon="-2.561321000">
        <ele>433.30</ele>
        <time>2017-02-11T09:11:22Z</time>
      </trkpt>
      <trkpt lat="42.466810000" lon="-2.561315000">
        <ele>433.40</ele>
        <time>2017-02-11T09:11:23Z</time>
      </trkpt>
      <trkpt lat="42.466811000" lon="-2.561311000">
        <ele>433.40</ele>
        <time>2017-02-11T09:11:24Z</time>
      </trkpt>
      <trkpt lat="42.466812000" lon="-2.561308000">
        <ele>433.50</ele>
        <time>2017-02-11T09:11:25Z</time>
      </trkpt>
      <trkpt lat="42.466814000" lon="-2.561307000">
        <ele>433.50</ele>
        <time>2017-02-11T09:11:26Z</time>
      </trkpt>
      <trkpt lat="42.466815000" lon="-2.561304000">
        <ele>433.40</ele>
        <time>2017-02-11T09:11:27Z</time>
      </trkpt>
      <trkpt lat="42.466817000" lon="-2.561302000">
        <ele>433.30</ele>
        <time>2017-02-11T09:11:28Z</time>
      </trkpt>
      <trkpt lat="42.466819000" lon="-2.561301000">
        <ele>433.20</ele>
        <time>2017-02-11T09:11:29Z</time>
      </trkpt>
      <trkpt lat="42.466820000" lon="-2.561298000">
        <ele>433.10</ele>
        <time>2017-02-11T09:11:30Z</time>
      </trkpt>
      <trkpt lat="42.466821000" lon="-2.561295000">
        <ele>433.10</ele>
        <time>2017-02-11T09:11:31Z</time>
      </trkpt>
      <trkpt lat="42.466824000" lon="-2.561294000">
        <ele>433.10</ele>
        <time>2017-02-11T09:11:32Z</time>
      </trkpt>
      <trkpt lat="42.466827000" lon="-2.561293000">
        <ele>433.00</ele>
        <time>2017-02-11T09:11:33Z</time>
      </trkpt>
      <trkpt lat="42.466833000" lon="-2.561294000">
        <ele>433.10</ele>
        <time>2017-02-11T09:11:35Z</time>
      </trkpt>
      <trkpt lat="42.466836000" lon="-2.561294000">
        <ele>433.20</ele>
        <time>2017-02-11T09:11:36Z</time>
      </trkpt>
      <trkpt lat="42.466838000" lon="-2.561293000">
        <ele>433.10</ele>
        <time>2017-02-11T09:11:37Z</time>
      </trkpt>
      <trkpt lat="42.466840000" lon="-2.561292000">
        <ele>432.90</ele>
        <time>2017-02-11T09:11:38Z</time>
      </trkpt>
      <trkpt lat="42.466841000" lon="-2.561291000">
        <ele>432.80</ele>
        <time>2017-02-11T09:11:39Z</time>
      </trkpt>
      <trkpt lat="42.466843000" lon="-2.561289000">
        <ele>432.80</ele>
        <time>2017-02-11T09:11:40Z</time>
      </trkpt>
      <trkpt lat="42.466846000" lon="-2.561287000">
        <ele>432.70</ele>
        <time>2017-02-11T09:11:41Z</time>
      </trkpt>
      <trkpt lat="42.466850000" lon="-2.561286000">
        <ele>432.70</ele>
        <time>2017-02-11T09:11:42Z</time>
      </trkpt>
      <trkpt lat="42.466855000" lon="-2.561283000">
        <ele>432.80</ele>
        <time>2017-02-11T09:11:43Z</time>
      </trkpt>
      <trkpt lat="42.466863000" lon="-2.561280000">
        <ele>432.80</ele>
        <time>2017-02-11T09:11:44Z</time>
      </trkpt>
      <trkpt lat="42.466868000" lon="-2.561277000">
        <ele>433.00</ele>
        <time>2017-02-11T09:11:45Z</time>
      </trkpt>
      <trkpt lat="42.466874000" lon="-2.561274000">
        <ele>433.20</ele>
        <time>2017-02-11T09:11:46Z</time>
      </trkpt>
      <trkpt lat="42.466880000" lon="-2.561272000">
        <ele>433.30</ele>
        <time>2017-02-11T09:11:47Z</time>
      </trkpt>
      <trkpt lat="42.466884000" lon="-2.561267000">
        <ele>433.30</ele>
        <time>2017-02-11T09:11:48Z</time>
      </trkpt>
      <trkpt lat="42.466886000" lon="-2.561262000">
        <ele>433.40</ele>
        <time>2017-02-11T09:11:49Z</time>
      </trkpt>
      <trkpt lat="42.466889000" lon="-2.561259000">
        <ele>433.40</ele>
        <time>2017-02-11T09:11:50Z</time>
      </trkpt>
      <trkpt lat="42.466891000" lon="-2.561255000">
        <ele>433.30</ele>
        <time>2017-02-11T09:11:51Z</time>
      </trkpt>
      <trkpt lat="42.466894000" lon="-2.561251000">
        <ele>433.30</ele>
        <time>2017-02-11T09:11:52Z</time>
      </trkpt>
      <trkpt lat="42.466896000" lon="-2.561246000">
        <ele>433.20</ele>
        <time>2017-02-11T09:11:53Z</time>
      </trkpt>
      <trkpt lat="42.466899000" lon="-2.561244000">
        <ele>433.20</ele>
        <time>2017-02-11T09:11:54Z</time>
      </trkpt>
      <trkpt lat="42.466902000" lon="-2.561241000">
        <ele>433.10</ele>
        <time>2017-02-11T09:11:55Z</time>
      </trkpt>
      <trkpt lat="42.466902000" lon="-2.561237000">
        <ele>433.10</ele>
        <time>2017-02-11T09:11:56Z</time>
      </trkpt>
      <trkpt lat="42.466903000" lon="-2.561233000">
        <ele>433.10</ele>
        <time>2017-02-11T09:11:57Z</time>
      </trkpt>
      <trkpt lat="42.466901000" lon="-2.561231000">
        <ele>433.10</ele>
        <time>2017-02-11T09:11:58Z</time>
      </trkpt>
      <trkpt lat="42.466901000" lon="-2.561231000">
        <ele>433.10</ele>
        <time>2017-02-11T09:11:59Z</time>
      </trkpt>
      <trkpt lat="42.466900000" lon="-2.561230000">
        <ele>433.10</ele>
        <time>2017-02-11T09:12:00Z</time>
      </trkpt>
      <trkpt lat="42.466900000" lon="-2.561230000">
        <ele>433.10</ele>
        <time>2017-02-11T09:12:01Z</time>
      </trkpt>
      <trkpt lat="42.466902000" lon="-2.561228000">
        <ele>433.20</ele>
        <time>2017-02-11T09:12:02Z</time>
      </trkpt>
      <trkpt lat="42.466905000" lon="-2.561227000">
        <ele>433.20</ele>
        <time>2017-02-11T09:12:03Z</time>
      </trkpt>
      <trkpt lat="42.466906000" lon="-2.561226000">
        <ele>433.20</ele>
        <time>2017-02-11T09:12:04Z</time>
      </trkpt>
      <trkpt lat="42.466908000" lon="-2.561226000">
        <ele>433.20</ele>
        <time>2017-02-11T09:12:05Z</time>
      </trkpt>
      <trkpt lat="42.466910000" lon="-2.561226000">
        <ele>433.20</ele>
        <time>2017-02-11T09:12:06Z</time>
      </trkpt>
      <trkpt lat="42.466911000" lon="-2.561228000">
        <ele>433.10</ele>
        <time>2017-02-11T09:12:07Z</time>
      </trkpt>
      <trkpt lat="42.466915000" lon="-2.561228000">
        <ele>433.10</ele>
        <time>2017-02-11T09:12:08Z</time>
      </trkpt>
      <trkpt lat="42.466919000" lon="-2.561232000">
        <ele>433.00</ele>
        <time>2017-02-11T09:12:09Z</time>
      </trkpt>
      <trkpt lat="42.466924000" lon="-2.561234000">
        <ele>433.00</ele>
        <time>2017-02-11T09:12:10Z</time>
      </trkpt>
      <trkpt lat="42.466929000" lon="-2.561235000">
        <ele>433.00</ele>
        <time>2017-02-11T09:12:11Z</time>
      </trkpt>
      <trkpt lat="42.466933000" lon="-2.561236000">
        <ele>433.00</ele>
        <time>2017-02-11T09:12:12Z</time>
      </trkpt>
      <trkpt lat="42.466937000" lon="-2.561236000">
        <ele>432.90</ele>
        <time>2017-02-11T09:12:13Z</time>
      </trkpt>
      <trkpt lat="42.466941000" lon="-2.561234000">
        <ele>432.90</ele>
        <time>2017-02-11T09:12:14Z</time>
      </trkpt>
      <trkpt lat="42.466942000" lon="-2.561236000">
        <ele>432.90</ele>
        <time>2017-02-11T09:12:15Z</time>
      </trkpt>
      <trkpt lat="42.466943000" lon="-2.561236000">
        <ele>432.90</ele>
        <time>2017-02-11T09:12:16Z</time>
      </trkpt>
      <trkpt lat="42.466943000" lon="-2.561238000">
        <ele>433.00</ele>
        <time>2017-02-11T09:12:17Z</time>
      </trkpt>
      <trkpt lat="42.466944000" lon="-2.561244000">
        <ele>433.10</ele>
        <time>2017-02-11T09:12:18Z</time>
      </trkpt>
      <trkpt lat="42.466944000" lon="-2.561250000">
        <ele>433.30</ele>
        <time>2017-02-11T09:12:19Z</time>
      </trkpt>
      <trkpt lat="42.466944000" lon="-2.561252000">
        <ele>433.50</ele>
        <time>2017-02-11T09:12:20Z</time>
      </trkpt>
      <trkpt lat="42.466944000" lon="-2.561256000">
        <ele>433.60</ele>
        <time>2017-02-11T09:12:21Z</time>
      </trkpt>
      <trkpt lat="42.466945000" lon="-2.561253000">
        <ele>433.70</ele>
        <time>2017-02-11T09:12:22Z</time>
      </trkpt>
      <trkpt lat="42.466944000" lon="-2.561256000">
        <ele>433.60</ele>
        <time>2017-02-11T09:12:23Z</time>
      </trkpt>
      <trkpt lat="42.466945000" lon="-2.561259000">
        <ele>433.50</ele>
        <time>2017-02-11T09:12:24Z</time>
      </trkpt>
      <trkpt lat="42.466948000" lon="-2.561257000">
        <ele>433.50</ele>
        <time>2017-02-11T09:12:25Z</time>
      </trkpt>
      <trkpt lat="42.466942000" lon="-2.561257000">
        <ele>433.40</ele>
        <time>2017-02-11T09:12:26Z</time>
      </trkpt>
      <trkpt lat="42.466931000" lon="-2.561250000">
        <ele>433.30</ele>
        <time>2017-02-11T09:12:27Z</time>
      </trkpt>
      <trkpt lat="42.466918000" lon="-2.561242000">
        <ele>433.20</ele>
        <time>2017-02-11T09:12:28Z</time>
      </trkpt>
      <trkpt lat="42.466913000" lon="-2.561249000">
        <ele>433.20</ele>
        <time>2017-02-11T09:12:29Z</time>
      </trkpt>
      <trkpt lat="42.466905000" lon="-2.561254000">
        <ele>433.10</ele>
        <time>2017-02-11T09:12:30Z</time>
      </trkpt>
      <trkpt lat="42.466895000" lon="-2.561255000">
        <ele>433.10</ele>
        <time>2017-02-11T09:12:31Z</time>
      </trkpt>
      <trkpt lat="42.466895000" lon="-2.561257000">
        <ele>433.00</ele>
        <time>2017-02-11T09:12:32Z</time>
      </trkpt>
      <trkpt lat="42.466892000" lon="-2.561259000">
        <ele>432.90</ele>
        <time>2017-02-11T09:12:33Z</time>
      </trkpt>
      <trkpt lat="42.466891000" lon="-2.561261000">
        <ele>432.80</ele>
        <time>2017-02-11T09:12:34Z</time>
      </trkpt>
      <trkpt lat="42.466891000" lon="-2.561261000">
        <ele>432.70</ele>
        <time>2017-02-11T09:12:36Z</time>
      </trkpt>
      <trkpt lat="42.466889000" lon="-2.561259000">
        <ele>432.70</ele>
        <time>2017-02-11T09:12:37Z</time>
      </trkpt>
      <trkpt lat="42.466888000" lon="-2.561255000">
        <ele>432.60</ele>
        <time>2017-02-11T09:12:38Z</time>
      </trkpt>
      <trkpt lat="42.466885000" lon="-2.561250000">
        <ele>432.70</ele>
        <time>2017-02-11T09:12:39Z</time>
      </trkpt>
      <trkpt lat="42.466888000" lon="-2.561246000">
        <ele>432.70</ele>
        <time>2017-02-11T09:12:40Z</time>
      </trkpt>
      <trkpt lat="42.466897000" lon="-2.561249000">
        <ele>432.70</ele>
        <time>2017-02-11T09:12:41Z</time>
      </trkpt>
      <trkpt lat="42.466908000" lon="-2.561258000">
        <ele>432.70</ele>
        <time>2017-02-11T09:12:42Z</time>
      </trkpt>
      <trkpt lat="42.466907000" lon="-2.561275000">
        <ele>433.00</ele>
        <time>2017-02-11T09:12:43Z</time>
      </trkpt>
      <trkpt lat="42.466904000" lon="-2.561289000">
        <ele>433.20</ele>
        <time>2017-02-11T09:12:44Z</time>
      </trkpt>
      <trkpt lat="42.466911000" lon="-2.561300000">
        <ele>433.30</ele>
        <time>2017-02-11T09:12:45Z</time>
      </trkpt>
      <trkpt lat="42.466918000" lon="-2.561316000">
        <ele>433.40</ele>
        <time>2017-02-11T09:12:46Z</time>
      </trkpt>
      <trkpt lat="42.466916000" lon="-2.561330000">
        <ele>433.50</ele>
        <time>2017-02-11T09:12:47Z</time>
      </trkpt>
      <trkpt lat="42.466914000" lon="-2.561343000">
        <ele>433.50</ele>
        <time>2017-02-11T09:12:48Z</time>
      </trkpt>
      <trkpt lat="42.466915000" lon="-2.561355000">
        <ele>433.40</ele>
        <time>2017-02-11T09:12:49Z</time>
      </trkpt>
      <trkpt lat="42.466916000" lon="-2.561362000">
        <ele>433.30</ele>
        <time>2017-02-11T09:12:50Z</time>
      </trkpt>
      <trkpt lat="42.466919000" lon="-2.561367000">
        <ele>433.20</ele>
        <time>2017-02-11T09:12:51Z</time>
      </trkpt>
      <trkpt lat="42.466921000" lon="-2.561370000">
        <ele>433.10</ele>
        <time>2017-02-11T09:12:52Z</time>
      </trkpt>
      <trkpt lat="42.466919000" lon="-2.561368000">
        <ele>433.00</ele>
        <time>2017-02-11T09:12:53Z</time>
      </trkpt>
      <trkpt lat="42.466913000" lon="-2.561370000">
        <ele>433.00</ele>
        <time>2017-02-11T09:12:54Z</time>
      </trkpt>
      <trkpt lat="42.466910000" lon="-2.561375000">
        <ele>433.20</ele>
        <time>2017-02-11T09:12:55Z</time>
      </trkpt>
      <trkpt lat="42.466910000" lon="-2.561377000">
        <ele>433.50</ele>
        <time>2017-02-11T09:12:56Z</time>
      </trkpt>
      <trkpt lat="42.466912000" lon="-2.561376000">
        <ele>433.60</ele>
        <time>2017-02-11T09:12:57Z</time>
      </trkpt>
      <trkpt lat="42.466915000" lon="-2.561385000">
        <ele>433.70</ele>
        <time>2017-02-11T09:12:58Z</time>
      </trkpt>
      <trkpt lat="42.466916000" lon="-2.561390000">
        <ele>433.80</ele>
        <time>2017-02-11T09:12:59Z</time>
      </trkpt>
      <trkpt lat="42.466918000" lon="-2.561391000">
        <ele>433.80</ele>
        <time>2017-02-11T09:13:00Z</time>
      </trkpt>
      <trkpt lat="42.466919000" lon="-2.561395000">
        <ele>433.70</ele>
        <time>2017-02-11T09:13:01Z</time>
      </trkpt>
      <trkpt lat="42.466923000" lon="-2.561396000">
        <ele>433.70</ele>
        <time>2017-02-11T09:13:02Z</time>
      </trkpt>
      <trkpt lat="42.466931000" lon="-2.561391000">
        <ele>433.40</ele>
        <time>2017-02-11T09:13:03Z</time>
      </trkpt>
      <trkpt lat="42.466944000" lon="-2.561389000">
        <ele>433.20</ele>
        <time>2017-02-11T09:13:04Z</time>
      </trkpt>
      <trkpt lat="42.466962000" lon="-2.561390000">
        <ele>433.00</ele>
        <time>2017-02-11T09:13:05Z</time>
      </trkpt>
      <trkpt lat="42.466973000" lon="-2.561392000">
        <ele>432.90</ele>
        <time>2017-02-11T09:13:06Z</time>
      </trkpt>
      <trkpt lat="42.466978000" lon="-2.561391000">
        <ele>432.70</ele>
        <time>2017-02-11T09:13:07Z</time>
      </trkpt>
      <trkpt lat="42.466981000" lon="-2.561388000">
        <ele>432.60</ele>
        <time>2017-02-11T09:13:08Z</time>
      </trkpt>
      <trkpt lat="42.466982000" lon="-2.561386000">
        <ele>432.60</ele>
        <time>2017-02-11T09:13:09Z</time>
      </trkpt>
      <trkpt lat="42.466985000" lon="-2.561386000">
        <ele>432.60</ele>
        <time>2017-02-11T09:13:10Z</time>
      </trkpt>
      <trkpt lat="42.466986000" lon="-2.561383000">
        <ele>432.60</ele>
        <time>2017-02-11T09:13:11Z</time>
      </trkpt>
      <trkpt lat="42.466986000" lon="-2.561383000">
        <ele>432.60</ele>
        <time>2017-02-11T09:13:12Z</time>
      </trkpt>
      <trkpt lat="42.466985000" lon="-2.561384000">
        <ele>432.60</ele>
        <time>2017-02-11T09:13:13Z</time>
      </trkpt>
      <trkpt lat="42.466986000" lon="-2.561386000">
        <ele>432.60</ele>
        <time>2017-02-11T09:13:14Z</time>
      </trkpt>
      <trkpt lat="42.466984000" lon="-2.561383000">
        <ele>432.50</ele>
        <time>2017-02-11T09:13:15Z</time>
      </trkpt>
      <trkpt lat="42.466985000" lon="-2.561379000">
        <ele>432.50</ele>
        <time>2017-02-11T09:13:16Z</time>
      </trkpt>
      <trkpt lat="42.466987000" lon="-2.561376000">
        <ele>432.50</ele>
        <time>2017-02-11T09:13:17Z</time>
      </trkpt>
      <trkpt lat="42.466990000" lon="-2.561375000">
        <ele>432.40</ele>
        <time>2017-02-11T09:13:18Z</time>
      </trkpt>
      <trkpt lat="42.466993000" lon="-2.561378000">
        <ele>432.40</ele>
        <time>2017-02-11T09:13:19Z</time>
      </trkpt>
      <trkpt lat="42.466993000" lon="-2.561382000">
        <ele>432.40</ele>
        <time>2017-02-11T09:13:20Z</time>
      </trkpt>
      <trkpt lat="42.466999000" lon="-2.561387000">
        <ele>432.30</ele>
        <time>2017-02-11T09:13:21Z</time>
      </trkpt>
      <trkpt lat="42.467011000" lon="-2.561395000">
        <ele>432.30</ele>
        <time>2017-02-11T09:13:22Z</time>
      </trkpt>
      <trkpt lat="42.467023000" lon="-2.561404000">
        <ele>432.30</ele>
        <time>2017-02-11T09:13:23Z</time>
      </trkpt>
      <trkpt lat="42.467042000" lon="-2.561423000">
        <ele>432.30</ele>
        <time>2017-02-11T09:13:24Z</time>
      </trkpt>
      <trkpt lat="42.467056000" lon="-2.561467000">
        <ele>432.30</ele>
        <time>2017-02-11T09:13:25Z</time>
      </trkpt>
      <trkpt lat="42.467053000" lon="-2.561519000">
        <ele>432.30</ele>
        <time>2017-02-11T09:13:26Z</time>
      </trkpt>
      <trkpt lat="42.467037000" lon="-2.561566000">
        <ele>432.30</ele>
        <time>2017-02-11T09:13:27Z</time>
      </trkpt>
      <trkpt lat="42.467020000" lon="-2.561612000">
        <ele>432.30</ele>
        <time>2017-02-11T09:13:28Z</time>
      </trkpt>
      <trkpt lat="42.466998000" lon="-2.561647000">
        <ele>432.30</ele>
        <time>2017-02-11T09:13:29Z</time>
      </trkpt>
      <trkpt lat="42.466981000" lon="-2.561682000">
        <ele>432.30</ele>
        <time>2017-02-11T09:13:30Z</time>
      </trkpt>
      <trkpt lat="42.466967000" lon="-2.561714000">
        <ele>432.30</ele>
        <time>2017-02-11T09:13:31Z</time>
      </trkpt>
      <trkpt lat="42.466957000" lon="-2.561744000">
        <ele>432.30</ele>
        <time>2017-02-11T09:13:32Z</time>
      </trkpt>
      <trkpt lat="42.466946000" lon="-2.561776000">
        <ele>432.30</ele>
        <time>2017-02-11T09:13:33Z</time>
      </trkpt>
      <trkpt lat="42.466936000" lon="-2.561806000">
        <ele>432.30</ele>
        <time>2017-02-11T09:13:34Z</time>
      </trkpt>
      <trkpt lat="42.466925000" lon="-2.561832000">
        <ele>432.30</ele>
        <time>2017-02-11T09:13:35Z</time>
      </trkpt>
      <trkpt lat="42.466912000" lon="-2.561885000">
        <ele>432.40</ele>
        <time>2017-02-11T09:13:37Z</time>
      </trkpt>
      <trkpt lat="42.466902000" lon="-2.561914000">
        <ele>432.40</ele>
        <time>2017-02-11T09:13:38Z</time>
      </trkpt>
      <trkpt lat="42.466892000" lon="-2.561947000">
        <ele>432.50</ele>
        <time>2017-02-11T09:13:39Z</time>
      </trkpt>
      <trkpt lat="42.466884000" lon="-2.561979000">
        <ele>432.50</ele>
        <time>2017-02-11T09:13:40Z</time>
      </trkpt>
      <trkpt lat="42.466871000" lon="-2.562010000">
        <ele>432.50</ele>
        <time>2017-02-11T09:13:41Z</time>
      </trkpt>
      <trkpt lat="42.466859000" lon="-2.562039000">
        <ele>432.70</ele>
        <time>2017-02-11T09:13:42Z</time>
      </trkpt>
      <trkpt lat="42.466851000" lon="-2.562069000">
        <ele>432.90</ele>
        <time>2017-02-11T09:13:43Z</time>
      </trkpt>
      <trkpt lat="42.466844000" lon="-2.562095000">
        <ele>432.90</ele>
        <time>2017-02-11T09:13:44Z</time>
      </trkpt>
      <trkpt lat="42.466838000" lon="-2.562117000">
        <ele>432.90</ele>
        <time>2017-02-11T09:13:45Z</time>
      </trkpt>
      <trkpt lat="42.466834000" lon="-2.562128000">
        <ele>433.00</ele>
        <time>2017-02-11T09:13:46Z</time>
      </trkpt>
      <trkpt lat="42.466830000" lon="-2.562142000">
        <ele>433.10</ele>
        <time>2017-02-11T09:13:47Z</time>
      </trkpt>
      <trkpt lat="42.466822000" lon="-2.562154000">
        <ele>433.10</ele>
        <time>2017-02-11T09:13:48Z</time>
      </trkpt>
      <trkpt lat="42.466814000" lon="-2.562170000">
        <ele>433.10</ele>
        <time>2017-02-11T09:13:49Z</time>
      </trkpt>
      <trkpt lat="42.466801000" lon="-2.562185000">
        <ele>433.10</ele>
        <time>2017-02-11T09:13:50Z</time>
      </trkpt>
      <trkpt lat="42.466783000" lon="-2.562186000">
        <ele>433.10</ele>
        <time>2017-02-11T09:13:51Z</time>
      </trkpt>
      <trkpt lat="42.466765000" lon="-2.562179000">
        <ele>433.00</ele>
        <time>2017-02-11T09:13:52Z</time>
      </trkpt>
      <trkpt lat="42.466747000" lon="-2.562169000">
        <ele>433.00</ele>
        <time>2017-02-11T09:13:53Z</time>
      </trkpt>
      <trkpt lat="42.466732000" lon="-2.562154000">
        <ele>432.90</ele>
        <time>2017-02-11T09:13:54Z</time>
      </trkpt>
      <trkpt lat="42.466719000" lon="-2.562140000">
        <ele>432.90</ele>
        <time>2017-02-11T09:13:55Z</time>
      </trkpt>
      <trkpt lat="42.466705000" lon="-2.562135000">
        <ele>433.00</ele>
        <time>2017-02-11T09:13:56Z</time>
      </trkpt>
      <trkpt lat="42.466691000" lon="-2.562137000">
        <ele>433.10</ele>
        <time>2017-02-11T09:13:57Z</time>
      </trkpt>
      <trkpt lat="42.466674000" lon="-2.562135000">
        <ele>433.20</ele>
        <time>2017-02-11T09:13:58Z</time>
      </trkpt>
      <trkpt lat="42.466662000" lon="-2.562130000">
        <ele>433.30</ele>
        <time>2017-02-11T09:13:59Z</time>
      </trkpt>
      <trkpt lat="42.466649000" lon="-2.562127000">
        <ele>433.40</ele>
        <time>2017-02-11T09:14:00Z</time>
      </trkpt>
      <trkpt lat="42.466630000" lon="-2.562120000">
        <ele>433.40</ele>
        <time>2017-02-11T09:14:01Z</time>
      </trkpt>
      <trkpt lat="42.466598000" lon="-2.562116000">
        <ele>433.50</ele>
        <time>2017-02-11T09:14:02Z</time>
      </trkpt>
      <trkpt lat="42.466571000" lon="-2.562115000">
        <ele>433.50</ele>
        <time>2017-02-11T09:14:03Z</time>
      </trkpt>
      <trkpt lat="42.466542000" lon="-2.562108000">
        <ele>433.40</ele>
        <time>2017-02-11T09:14:04Z</time>
      </trkpt>
      <trkpt lat="42.466514000" lon="-2.562106000">
        <ele>433.30</ele>
        <time>2017-02-11T09:14:05Z</time>
      </trkpt>
      <trkpt lat="42.466485000" lon="-2.562102000">
        <ele>433.20</ele>
        <time>2017-02-11T09:14:06Z</time>
      </trkpt>
      <trkpt lat="42.466458000" lon="-2.562098000">
        <ele>433.20</ele>
        <time>2017-02-11T09:14:07Z</time>
      </trkpt>
      <trkpt lat="42.466430000" lon="-2.562091000">
        <ele>433.20</ele>
        <time>2017-02-11T09:14:08Z</time>
      </trkpt>
      <trkpt lat="42.466402000" lon="-2.562086000">
        <ele>433.30</ele>
        <time>2017-02-11T09:14:09Z</time>
      </trkpt>
      <trkpt lat="42.466374000" lon="-2.562084000">
        <ele>433.30</ele>
        <time>2017-02-11T09:14:10Z</time>
      </trkpt>
      <trkpt lat="42.466345000" lon="-2.562077000">
        <ele>433.40</ele>
        <time>2017-02-11T09:14:11Z</time>
      </trkpt>
      <trkpt lat="42.466314000" lon="-2.562073000">
        <ele>433.40</ele>
        <time>2017-02-11T09:14:12Z</time>
      </trkpt>
      <trkpt lat="42.466285000" lon="-2.562073000">
        <ele>433.30</ele>
        <time>2017-02-11T09:14:13Z</time>
      </trkpt>
      <trkpt lat="42.466259000" lon="-2.562065000">
        <ele>433.30</ele>
        <time>2017-02-11T09:14:14Z</time>
      </trkpt>
      <trkpt lat="42.466231000" lon="-2.562058000">
        <ele>433.20</ele>
        <time>2017-02-11T09:14:15Z</time>
      </trkpt>
      <trkpt lat="42.466202000" lon="-2.562055000">
        <ele>433.20</ele>
        <time>2017-02-11T09:14:16Z</time>
      </trkpt>
      <trkpt lat="42.466177000" lon="-2.562049000">
        <ele>433.30</ele>
        <time>2017-02-11T09:14:17Z</time>
      </trkpt>
      <trkpt lat="42.466152000" lon="-2.562041000">
        <ele>433.40</ele>
        <time>2017-02-11T09:14:18Z</time>
      </trkpt>
      <trkpt lat="42.466128000" lon="-2.562033000">
        <ele>433.50</ele>
        <time>2017-02-11T09:14:19Z</time>
      </trkpt>
      <trkpt lat="42.466105000" lon="-2.562028000">
        <ele>433.60</ele>
        <time>2017-02-11T09:14:20Z</time>
      </trkpt>
      <trkpt lat="42.466083000" lon="-2.562024000">
        <ele>433.70</ele>
        <time>2017-02-11T09:14:21Z</time>
      </trkpt>
      <trkpt lat="42.466060000" lon="-2.562023000">
        <ele>433.80</ele>
        <time>2017-02-11T09:14:22Z</time>
      </trkpt>
      <trkpt lat="42.466034000" lon="-2.562021000">
        <ele>433.90</ele>
        <time>2017-02-11T09:14:23Z</time>
      </trkpt>
      <trkpt lat="42.466007000" lon="-2.562022000">
        <ele>434.00</ele>
        <time>2017-02-11T09:14:24Z</time>
      </trkpt>
      <trkpt lat="42.465980000" lon="-2.562021000">
        <ele>434.10</ele>
        <time>2017-02-11T09:14:25Z</time>
      </trkpt>
      <trkpt lat="42.465954000" lon="-2.562020000">
        <ele>434.10</ele>
        <time>2017-02-11T09:14:26Z</time>
      </trkpt>
      <trkpt lat="42.465929000" lon="-2.562018000">
        <ele>434.10</ele>
        <time>2017-02-11T09:14:27Z</time>
      </trkpt>
      <trkpt lat="42.465901000" lon="-2.562016000">
        <ele>434.10</ele>
        <time>2017-02-11T09:14:28Z</time>
      </trkpt>
      <trkpt lat="42.465874000" lon="-2.562011000">
        <ele>434.10</ele>
        <time>2017-02-11T09:14:29Z</time>
      </trkpt>
      <trkpt lat="42.465845000" lon="-2.561999000">
        <ele>434.10</ele>
        <time>2017-02-11T09:14:30Z</time>
      </trkpt>
      <trkpt lat="42.465819000" lon="-2.561988000">
        <ele>434.30</ele>
        <time>2017-02-11T09:14:31Z</time>
      </trkpt>
      <trkpt lat="42.465791000" lon="-2.561987000">
        <ele>434.40</ele>
        <time>2017-02-11T09:14:32Z</time>
      </trkpt>
      <trkpt lat="42.465762000" lon="-2.561985000">
        <ele>434.50</ele>
        <time>2017-02-11T09:14:33Z</time>
      </trkpt>
      <trkpt lat="42.465733000" lon="-2.561979000">
        <ele>434.60</ele>
        <time>2017-02-11T09:14:34Z</time>
      </trkpt>
      <trkpt lat="42.465705000" lon="-2.561976000">
        <ele>434.60</ele>
        <time>2017-02-11T09:14:35Z</time>
      </trkpt>
      <trkpt lat="42.465679000" lon="-2.561966000">
        <ele>434.50</ele>
        <time>2017-02-11T09:14:36Z</time>
      </trkpt>
      <trkpt lat="42.465658000" lon="-2.561958000">
        <ele>434.50</ele>
        <time>2017-02-11T09:14:37Z</time>
      </trkpt>
      <trkpt lat="42.465608000" lon="-2.561945000">
        <ele>434.40</ele>
        <time>2017-02-11T09:14:39Z</time>
      </trkpt>
      <trkpt lat="42.465582000" lon="-2.561943000">
        <ele>434.40</ele>
        <time>2017-02-11T09:14:40Z</time>
      </trkpt>
      <trkpt lat="42.465557000" lon="-2.561939000">
        <ele>434.50</ele>
        <time>2017-02-11T09:14:41Z</time>
      </trkpt>
      <trkpt lat="42.465535000" lon="-2.561935000">
        <ele>434.50</ele>
        <time>2017-02-11T09:14:42Z</time>
      </trkpt>
      <trkpt lat="42.465516000" lon="-2.561929000">
        <ele>434.50</ele>
        <time>2017-02-11T09:14:43Z</time>
      </trkpt>
      <trkpt lat="42.465498000" lon="-2.561920000">
        <ele>434.60</ele>
        <time>2017-02-11T09:14:44Z</time>
      </trkpt>
      <trkpt lat="42.465480000" lon="-2.561916000">
        <ele>434.60</ele>
        <time>2017-02-11T09:14:45Z</time>
      </trkpt>
      <trkpt lat="42.465464000" lon="-2.561907000">
        <ele>434.70</ele>
        <time>2017-02-11T09:14:46Z</time>
      </trkpt>
      <trkpt lat="42.465446000" lon="-2.561897000">
        <ele>435.00</ele>
        <time>2017-02-11T09:14:47Z</time>
      </trkpt>
      <trkpt lat="42.465429000" lon="-2.561882000">
        <ele>435.20</ele>
        <time>2017-02-11T09:14:48Z</time>
      </trkpt>
      <trkpt lat="42.465413000" lon="-2.561863000">
        <ele>435.50</ele>
        <time>2017-02-11T09:14:49Z</time>
      </trkpt>
      <trkpt lat="42.465398000" lon="-2.561839000">
        <ele>435.60</ele>
        <time>2017-02-11T09:14:50Z</time>
      </trkpt>
      <trkpt lat="42.465390000" lon="-2.561810000">
        <ele>435.70</ele>
        <time>2017-02-11T09:14:51Z</time>
      </trkpt>
      <trkpt lat="42.465386000" lon="-2.561785000">
        <ele>435.80</ele>
        <time>2017-02-11T09:14:52Z</time>
      </trkpt>
      <trkpt lat="42.465384000" lon="-2.561757000">
        <ele>435.80</ele>
        <time>2017-02-11T09:14:53Z</time>
      </trkpt>
      <trkpt lat="42.465383000" lon="-2.561729000">
        <ele>435.80</ele>
        <time>2017-02-11T09:14:54Z</time>
      </trkpt>
      <trkpt lat="42.465383000" lon="-2.561698000">
        <ele>435.80</ele>
        <time>2017-02-11T09:14:55Z</time>
      </trkpt>
      <trkpt lat="42.465383000" lon="-2.561666000">
        <ele>435.80</ele>
        <time>2017-02-11T09:14:56Z</time>
      </trkpt>
      <trkpt lat="42.465381000" lon="-2.561635000">
        <ele>435.70</ele>
        <time>2017-02-11T09:14:57Z</time>
      </trkpt>
      <trkpt lat="42.465379000" lon="-2.561609000">
        <ele>435.70</ele>
        <time>2017-02-11T09:14:58Z</time>
      </trkpt>
      <trkpt lat="42.465374000" lon="-2.561581000">
        <ele>435.70</ele>
        <time>2017-02-11T09:14:59Z</time>
      </trkpt>
      <trkpt lat="42.465357000" lon="-2.561564000">
        <ele>435.70</ele>
        <time>2017-02-11T09:15:00Z</time>
      </trkpt>
      <trkpt lat="42.465338000" lon="-2.561547000">
        <ele>435.70</ele>
        <time>2017-02-11T09:15:01Z</time>
      </trkpt>
      <trkpt lat="42.465307000" lon="-2.561548000">
        <ele>435.70</ele>
        <time>2017-02-11T09:15:02Z</time>
      </trkpt>
      <trkpt lat="42.465277000" lon="-2.561548000">
        <ele>435.80</ele>
        <time>2017-02-11T09:15:03Z</time>
      </trkpt>
      <trkpt lat="42.465249000" lon="-2.561543000">
        <ele>435.80</ele>
        <time>2017-02-11T09:15:04Z</time>
      </trkpt>
      <trkpt lat="42.465222000" lon="-2.561539000">
        <ele>435.80</ele>
        <time>2017-02-11T09:15:05Z</time>
      </trkpt>
      <trkpt lat="42.465194000" lon="-2.561536000">
        <ele>435.80</ele>
        <time>2017-02-11T09:15:06Z</time>
      </trkpt>
      <trkpt lat="42.465164000" lon="-2.561541000">
        <ele>435.70</ele>
        <time>2017-02-11T09:15:07Z</time>
      </trkpt>
      <trkpt lat="42.465135000" lon="-2.561544000">
        <ele>435.70</ele>
        <time>2017-02-11T09:15:08Z</time>
      </trkpt>
      <trkpt lat="42.465106000" lon="-2.561556000">
        <ele>435.60</ele>
        <time>2017-02-11T09:15:09Z</time>
      </trkpt>
      <trkpt lat="42.465078000" lon="-2.561567000">
        <ele>435.60</ele>
        <time>2017-02-11T09:15:10Z</time>
      </trkpt>
      <trkpt lat="42.465054000" lon="-2.561579000">
        <ele>435.60</ele>
        <time>2017-02-11T09:15:11Z</time>
      </trkpt>
      <trkpt lat="42.465026000" lon="-2.561589000">
        <ele>435.50</ele>
        <time>2017-02-11T09:15:12Z</time>
      </trkpt>
      <trkpt lat="42.464997000" lon="-2.561599000">
        <ele>435.50</ele>
        <time>2017-02-11T09:15:13Z</time>
      </trkpt>
      <trkpt lat="42.464966000" lon="-2.561612000">
        <ele>435.50</ele>
        <time>2017-02-11T09:15:14Z</time>
      </trkpt>
      <trkpt lat="42.464931000" lon="-2.561621000">
        <ele>435.50</ele>
        <time>2017-02-11T09:15:15Z</time>
      </trkpt>
      <trkpt lat="42.464893000" lon="-2.561631000">
        <ele>435.50</ele>
        <time>2017-02-11T09:15:16Z</time>
      </trkpt>
      <trkpt lat="42.464848000" lon="-2.561633000">
        <ele>435.50</ele>
        <time>2017-02-11T09:15:17Z</time>
      </trkpt>
      <trkpt lat="42.464802000" lon="-2.561637000">
        <ele>435.50</ele>
        <time>2017-02-11T09:15:18Z</time>
      </trkpt>
      <trkpt lat="42.464758000" lon="-2.561650000">
        <ele>435.60</ele>
        <time>2017-02-11T09:15:19Z</time>
      </trkpt>
      <trkpt lat="42.464716000" lon="-2.561666000">
        <ele>435.60</ele>
        <time>2017-02-11T09:15:20Z</time>
      </trkpt>
      <trkpt lat="42.464675000" lon="-2.561690000">
        <ele>435.60</ele>
        <time>2017-02-11T09:15:21Z</time>
      </trkpt>
      <trkpt lat="42.464635000" lon="-2.561712000">
        <ele>435.70</ele>
        <time>2017-02-11T09:15:22Z</time>
      </trkpt>
      <trkpt lat="42.464600000" lon="-2.561723000">
        <ele>435.70</ele>
        <time>2017-02-11T09:15:23Z</time>
      </trkpt>
      <trkpt lat="42.464568000" lon="-2.561732000">
        <ele>435.70</ele>
        <time>2017-02-11T09:15:24Z</time>
      </trkpt>
      <trkpt lat="42.464540000" lon="-2.561735000">
        <ele>435.70</ele>
        <time>2017-02-11T09:15:25Z</time>
      </trkpt>
      <trkpt lat="42.464508000" lon="-2.561742000">
        <ele>435.70</ele>
        <time>2017-02-11T09:15:26Z</time>
      </trkpt>
      <trkpt lat="42.464475000" lon="-2.561746000">
        <ele>435.70</ele>
        <time>2017-02-11T09:15:27Z</time>
      </trkpt>
      <trkpt lat="42.464443000" lon="-2.561754000">
        <ele>435.70</ele>
        <time>2017-02-11T09:15:28Z</time>
      </trkpt>
      <trkpt lat="42.464413000" lon="-2.561766000">
        <ele>435.70</ele>
        <time>2017-02-11T09:15:29Z</time>
      </trkpt>
      <trkpt lat="42.464381000" lon="-2.561777000">
        <ele>435.70</ele>
        <time>2017-02-11T09:15:30Z</time>
      </trkpt>
      <trkpt lat="42.464349000" lon="-2.561783000">
        <ele>435.70</ele>
        <time>2017-02-11T09:15:31Z</time>
      </trkpt>
      <trkpt lat="42.464319000" lon="-2.561789000">
        <ele>435.70</ele>
        <time>2017-02-11T09:15:32Z</time>
      </trkpt>
      <trkpt lat="42.464290000" lon="-2.561790000">
        <ele>435.90</ele>
        <time>2017-02-11T09:15:33Z</time>
      </trkpt>
      <trkpt lat="42.464261000" lon="-2.561794000">
        <ele>436.00</ele>
        <time>2017-02-11T09:15:34Z</time>
      </trkpt>
      <trkpt lat="42.464231000" lon="-2.561800000">
        <ele>436.00</ele>
        <time>2017-02-11T09:15:35Z</time>
      </trkpt>
      <trkpt lat="42.464202000" lon="-2.561807000">
        <ele>436.10</ele>
        <time>2017-02-11T09:15:36Z</time>
      </trkpt>
      <trkpt lat="42.464173000" lon="-2.561820000">
        <ele>436.10</ele>
        <time>2017-02-11T09:15:37Z</time>
      </trkpt>
      <trkpt lat="42.464146000" lon="-2.561830000">
        <ele>436.20</ele>
        <time>2017-02-11T09:15:38Z</time>
      </trkpt>
      <trkpt lat="42.464087000" lon="-2.561852000">
        <ele>436.20</ele>
        <time>2017-02-11T09:15:40Z</time>
      </trkpt>
      <trkpt lat="42.464055000" lon="-2.561860000">
        <ele>436.20</ele>
        <time>2017-02-11T09:15:41Z</time>
      </trkpt>
      <trkpt lat="42.464028000" lon="-2.561871000">
        <ele>436.20</ele>
        <time>2017-02-11T09:15:42Z</time>
      </trkpt>
      <trkpt lat="42.463997000" lon="-2.561864000">
        <ele>436.30</ele>
        <time>2017-02-11T09:15:43Z</time>
      </trkpt>
      <trkpt lat="42.463972000" lon="-2.561845000">
        <ele>436.30</ele>
        <time>2017-02-11T09:15:44Z</time>
      </trkpt>
      <trkpt lat="42.463951000" lon="-2.561821000">
        <ele>436.40</ele>
        <time>2017-02-11T09:15:45Z</time>
      </trkpt>
      <trkpt lat="42.463933000" lon="-2.561782000">
        <ele>436.40</ele>
        <time>2017-02-11T09:15:46Z</time>
      </trkpt>
      <trkpt lat="42.463922000" lon="-2.561734000">
        <ele>436.50</ele>
        <time>2017-02-11T09:15:47Z</time>
      </trkpt>
      <trkpt lat="42.463915000" lon="-2.561687000">
        <ele>436.50</ele>
        <time>2017-02-11T09:15:48Z</time>
      </trkpt>
      <trkpt lat="42.463902000" lon="-2.561652000">
        <ele>436.60</ele>
        <time>2017-02-11T09:15:49Z</time>
      </trkpt>
      <trkpt lat="42.463889000" lon="-2.561626000">
        <ele>436.70</ele>
        <time>2017-02-11T09:15:50Z</time>
      </trkpt>
      <trkpt lat="42.463883000" lon="-2.561617000">
        <ele>436.60</ele>
        <time>2017-02-11T09:15:51Z</time>
      </trkpt>
      <trkpt lat="42.463884000" lon="-2.561618000">
        <ele>436.50</ele>
        <time>2017-02-11T09:15:52Z</time>
      </trkpt>
      <trkpt lat="42.463867000" lon="-2.561631000">
        <ele>436.60</ele>
        <time>2017-02-11T09:15:53Z</time>
      </trkpt>
      <trkpt lat="42.463855000" lon="-2.561624000">
        <ele>436.70</ele>
        <time>2017-02-11T09:15:54Z</time>
      </trkpt>
      <trkpt lat="42.463839000" lon="-2.561610000">
        <ele>436.70</ele>
        <time>2017-02-11T09:15:55Z</time>
      </trkpt>
      <trkpt lat="42.463818000" lon="-2.561605000">
        <ele>436.80</ele>
        <time>2017-02-11T09:15:56Z</time>
      </trkpt>
      <trkpt lat="42.463796000" lon="-2.561608000">
        <ele>436.80</ele>
        <time>2017-02-11T09:15:57Z</time>
      </trkpt>
      <trkpt lat="42.463789000" lon="-2.561603000">
        <ele>436.80</ele>
        <time>2017-02-11T09:15:58Z</time>
      </trkpt>
      <trkpt lat="42.463779000" lon="-2.561611000">
        <ele>436.80</ele>
        <time>2017-02-11T09:15:59Z</time>
      </trkpt>
      <trkpt lat="42.463777000" lon="-2.561616000">
        <ele>436.80</ele>
        <time>2017-02-11T09:16:00Z</time>
      </trkpt>
      <trkpt lat="42.463774000" lon="-2.561622000">
        <ele>436.80</ele>
        <time>2017-02-11T09:16:01Z</time>
      </trkpt>
      <trkpt lat="42.463774000" lon="-2.561623000">
        <ele>436.70</ele>
        <time>2017-02-11T09:16:02Z</time>
      </trkpt>
      <trkpt lat="42.463769000" lon="-2.561622000">
        <ele>436.60</ele>
        <time>2017-02-11T09:16:03Z</time>
      </trkpt>
      <trkpt lat="42.463767000" lon="-2.561626000">
        <ele>436.60</ele>
        <time>2017-02-11T09:16:04Z</time>
      </trkpt>
      <trkpt lat="42.463763000" lon="-2.561634000">
        <ele>436.50</ele>
        <time>2017-02-11T09:16:05Z</time>
      </trkpt>
      <trkpt lat="42.463756000" lon="-2.561641000">
        <ele>436.50</ele>
        <time>2017-02-11T09:16:06Z</time>
      </trkpt>
      <trkpt lat="42.463753000" lon="-2.561659000">
        <ele>436.40</ele>
        <time>2017-02-11T09:16:07Z</time>
      </trkpt>
      <trkpt lat="42.463757000" lon="-2.561680000">
        <ele>436.40</ele>
        <time>2017-02-11T09:16:08Z</time>
      </trkpt>
      <trkpt lat="42.463764000" lon="-2.561704000">
        <ele>436.40</ele>
        <time>2017-02-11T09:16:09Z</time>
      </trkpt>
      <trkpt lat="42.463770000" lon="-2.561731000">
        <ele>436.40</ele>
        <time>2017-02-11T09:16:10Z</time>
      </trkpt>
      <trkpt lat="42.463777000" lon="-2.561759000">
        <ele>436.30</ele>
        <time>2017-02-11T09:16:11Z</time>
      </trkpt>
      <trkpt lat="42.463778000" lon="-2.561793000">
        <ele>436.10</ele>
        <time>2017-02-11T09:16:12Z</time>
      </trkpt>
      <trkpt lat="42.463772000" lon="-2.561829000">
        <ele>436.10</ele>
        <time>2017-02-11T09:16:13Z</time>
      </trkpt>
      <trkpt lat="42.463758000" lon="-2.561862000">
        <ele>436.00</ele>
        <time>2017-02-11T09:16:14Z</time>
      </trkpt>
      <trkpt lat="42.463732000" lon="-2.561883000">
        <ele>436.00</ele>
        <time>2017-02-11T09:16:15Z</time>
      </trkpt>
      <trkpt lat="42.463700000" lon="-2.561889000">
        <ele>436.00</ele>
        <time>2017-02-11T09:16:16Z</time>
      </trkpt>
      <trkpt lat="42.463666000" lon="-2.561887000">
        <ele>436.00</ele>
        <time>2017-02-11T09:16:17Z</time>
      </trkpt>
      <trkpt lat="42.463633000" lon="-2.561880000">
        <ele>435.90</ele>
        <time>2017-02-11T09:16:18Z</time>
      </trkpt>
      <trkpt lat="42.463597000" lon="-2.561869000">
        <ele>435.90</ele>
        <time>2017-02-11T09:16:19Z</time>
      </trkpt>
      <trkpt lat="42.463572000" lon="-2.561864000">
        <ele>435.90</ele>
        <time>2017-02-11T09:16:20Z</time>
      </trkpt>
      <trkpt lat="42.463552000" lon="-2.561851000">
        <ele>435.90</ele>
        <time>2017-02-11T09:16:21Z</time>
      </trkpt>
      <trkpt lat="42.463534000" lon="-2.561845000">
        <ele>435.80</ele>
        <time>2017-02-11T09:16:22Z</time>
      </trkpt>
      <trkpt lat="42.463517000" lon="-2.561837000">
        <ele>435.80</ele>
        <time>2017-02-11T09:16:23Z</time>
      </trkpt>
      <trkpt lat="42.463503000" lon="-2.561834000">
        <ele>435.90</ele>
        <time>2017-02-11T09:16:24Z</time>
      </trkpt>
      <trkpt lat="42.463489000" lon="-2.561830000">
        <ele>435.80</ele>
        <time>2017-02-11T09:16:25Z</time>
      </trkpt>
      <trkpt lat="42.463478000" lon="-2.561828000">
        <ele>435.80</ele>
        <time>2017-02-11T09:16:26Z</time>
      </trkpt>
      <trkpt lat="42.463466000" lon="-2.561823000">
        <ele>435.70</ele>
        <time>2017-02-11T09:16:27Z</time>
      </trkpt>
      <trkpt lat="42.463455000" lon="-2.561824000">
        <ele>435.70</ele>
        <time>2017-02-11T09:16:28Z</time>
      </trkpt>
      <trkpt lat="42.463443000" lon="-2.561822000">
        <ele>435.70</ele>
        <time>2017-02-11T09:16:29Z</time>
      </trkpt>
      <trkpt lat="42.463441000" lon="-2.561819000">
        <ele>435.70</ele>
        <time>2017-02-11T09:16:30Z</time>
      </trkpt>
      <trkpt lat="42.463440000" lon="-2.561820000">
        <ele>435.60</ele>
        <time>2017-02-11T09:16:31Z</time>
      </trkpt>
      <trkpt lat="42.463438000" lon="-2.561821000">
        <ele>435.60</ele>
        <time>2017-02-11T09:16:32Z</time>
      </trkpt>
      <trkpt lat="42.463436000" lon="-2.561821000">
        <ele>435.70</ele>
        <time>2017-02-11T09:16:33Z</time>
      </trkpt>
      <trkpt lat="42.463437000" lon="-2.561820000">
        <ele>435.70</ele>
        <time>2017-02-11T09:16:34Z</time>
      </trkpt>
      <trkpt lat="42.463434000" lon="-2.561819000">
        <ele>435.60</ele>
        <time>2017-02-11T09:16:35Z</time>
      </trkpt>
      <trkpt lat="42.463433000" lon="-2.561821000">
        <ele>435.60</ele>
        <time>2017-02-11T09:16:36Z</time>
      </trkpt>
      <trkpt lat="42.463432000" lon="-2.561819000">
        <ele>435.50</ele>
        <time>2017-02-11T09:16:37Z</time>
      </trkpt>
      <trkpt lat="42.463431000" lon="-2.561820000">
        <ele>435.50</ele>
        <time>2017-02-11T09:16:38Z</time>
      </trkpt>
      <trkpt lat="42.463419000" lon="-2.561816000">
        <ele>435.50</ele>
        <time>2017-02-11T09:16:39Z</time>
      </trkpt>
      <trkpt lat="42.463387000" lon="-2.561811000">
        <ele>435.60</ele>
        <time>2017-02-11T09:16:41Z</time>
      </trkpt>
      <trkpt lat="42.463367000" lon="-2.561815000">
        <ele>435.70</ele>
        <time>2017-02-11T09:16:42Z</time>
      </trkpt>
      <trkpt lat="42.463340000" lon="-2.561812000">
        <ele>435.90</ele>
        <time>2017-02-11T09:16:43Z</time>
      </trkpt>
      <trkpt lat="42.463310000" lon="-2.561813000">
        <ele>436.00</ele>
        <time>2017-02-11T09:16:44Z</time>
      </trkpt>
      <trkpt lat="42.463277000" lon="-2.561815000">
        <ele>436.10</ele>
        <time>2017-02-11T09:16:45Z</time>
      </trkpt>
      <trkpt lat="42.463240000" lon="-2.561819000">
        <ele>436.20</ele>
        <time>2017-02-11T09:16:46Z</time>
      </trkpt>
      <trkpt lat="42.463203000" lon="-2.561826000">
        <ele>436.30</ele>
        <time>2017-02-11T09:16:47Z</time>
      </trkpt>
      <trkpt lat="42.463164000" lon="-2.561831000">
        <ele>436.30</ele>
        <time>2017-02-11T09:16:48Z</time>
      </trkpt>
      <trkpt lat="42.463128000" lon="-2.561843000">
        <ele>436.30</ele>
        <time>2017-02-11T09:16:49Z</time>
      </trkpt>
      <trkpt lat="42.463091000" lon="-2.561854000">
        <ele>436.40</ele>
        <time>2017-02-11T09:16:50Z</time>
      </trkpt>
      <trkpt lat="42.463058000" lon="-2.561870000">
        <ele>436.40</ele>
        <time>2017-02-11T09:16:51Z</time>
      </trkpt>
      <trkpt lat="42.463027000" lon="-2.561882000">
        <ele>436.40</ele>
        <time>2017-02-11T09:16:52Z</time>
      </trkpt>
      <trkpt lat="42.462997000" lon="-2.561896000">
        <ele>436.40</ele>
        <time>2017-02-11T09:16:53Z</time>
      </trkpt>
      <trkpt lat="42.462962000" lon="-2.561912000">
        <ele>436.40</ele>
        <time>2017-02-11T09:16:54Z</time>
      </trkpt>
      <trkpt lat="42.462926000" lon="-2.561931000">
        <ele>436.50</ele>
        <time>2017-02-11T09:16:55Z</time>
      </trkpt>
      <trkpt lat="42.462890000" lon="-2.561953000">
        <ele>436.50</ele>
        <time>2017-02-11T09:16:56Z</time>
      </trkpt>
      <trkpt lat="42.462849000" lon="-2.561976000">
        <ele>436.70</ele>
        <time>2017-02-11T09:16:57Z</time>
      </trkpt>
      <trkpt lat="42.462813000" lon="-2.561994000">
        <ele>436.80</ele>
        <time>2017-02-11T09:16:58Z</time>
      </trkpt>
      <trkpt lat="42.462773000" lon="-2.562014000">
        <ele>436.90</ele>
        <time>2017-02-11T09:16:59Z</time>
      </trkpt>
      <trkpt lat="42.462734000" lon="-2.562028000">
        <ele>437.00</ele>
        <time>2017-02-11T09:17:00Z</time>
      </trkpt>
      <trkpt lat="42.462696000" lon="-2.562040000">
        <ele>436.70</ele>
        <time>2017-02-11T09:17:01Z</time>
      </trkpt>
      <trkpt lat="42.462662000" lon="-2.562051000">
        <ele>436.50</ele>
        <time>2017-02-11T09:17:02Z</time>
      </trkpt>
      <trkpt lat="42.462629000" lon="-2.562062000">
        <ele>436.40</ele>
        <time>2017-02-11T09:17:03Z</time>
      </trkpt>
      <trkpt lat="42.462593000" lon="-2.562075000">
        <ele>436.30</ele>
        <time>2017-02-11T09:17:04Z</time>
      </trkpt>
      <trkpt lat="42.462562000" lon="-2.562086000">
        <ele>436.20</ele>
        <time>2017-02-11T09:17:05Z</time>
      </trkpt>
      <trkpt lat="42.462527000" lon="-2.562098000">
        <ele>436.20</ele>
        <time>2017-02-11T09:17:06Z</time>
      </trkpt>
      <trkpt lat="42.462492000" lon="-2.562112000">
        <ele>436.20</ele>
        <time>2017-02-11T09:17:07Z</time>
      </trkpt>
      <trkpt lat="42.462456000" lon="-2.562127000">
        <ele>436.20</ele>
        <time>2017-02-11T09:17:08Z</time>
      </trkpt>
      <trkpt lat="42.462421000" lon="-2.562144000">
        <ele>436.30</ele>
        <time>2017-02-11T09:17:09Z</time>
      </trkpt>
      <trkpt lat="42.462385000" lon="-2.562159000">
        <ele>436.30</ele>
        <time>2017-02-11T09:17:10Z</time>
      </trkpt>
      <trkpt lat="42.462352000" lon="-2.562177000">
        <ele>436.40</ele>
        <time>2017-02-11T09:17:11Z</time>
      </trkpt>
      <trkpt lat="42.462316000" lon="-2.562190000">
        <ele>436.50</ele>
        <time>2017-02-11T09:17:12Z</time>
      </trkpt>
      <trkpt lat="42.462278000" lon="-2.562205000">
        <ele>436.50</ele>
        <time>2017-02-11T09:17:13Z</time>
      </trkpt>
      <trkpt lat="42.462238000" lon="-2.562218000">
        <ele>436.50</ele>
        <time>2017-02-11T09:17:14Z</time>
      </trkpt>
      <trkpt lat="42.462199000" lon="-2.562228000">
        <ele>436.40</ele>
        <time>2017-02-11T09:17:15Z</time>
      </trkpt>
      <trkpt lat="42.462161000" lon="-2.562240000">
        <ele>436.40</ele>
        <time>2017-02-11T09:17:16Z</time>
      </trkpt>
      <trkpt lat="42.462119000" lon="-2.562253000">
        <ele>436.40</ele>
        <time>2017-02-11T09:17:17Z</time>
      </trkpt>
      <trkpt lat="42.462081000" lon="-2.562263000">
        <ele>436.30</ele>
        <time>2017-02-11T09:17:18Z</time>
      </trkpt>
      <trkpt lat="42.462039000" lon="-2.562271000">
        <ele>436.40</ele>
        <time>2017-02-11T09:17:19Z</time>
      </trkpt>
      <trkpt lat="42.461996000" lon="-2.562279000">
        <ele>436.40</ele>
        <time>2017-02-11T09:17:20Z</time>
      </trkpt>
      <trkpt lat="42.461956000" lon="-2.562285000">
        <ele>436.50</ele>
        <time>2017-02-11T09:17:21Z</time>
      </trkpt>
      <trkpt lat="42.461916000" lon="-2.562288000">
        <ele>436.60</ele>
        <time>2017-02-11T09:17:22Z</time>
      </trkpt>
      <trkpt lat="42.461876000" lon="-2.562296000">
        <ele>436.60</ele>
        <time>2017-02-11T09:17:23Z</time>
      </trkpt>
      <trkpt lat="42.461838000" lon="-2.562296000">
        <ele>436.70</ele>
        <time>2017-02-11T09:17:24Z</time>
      </trkpt>
      <trkpt lat="42.461801000" lon="-2.562296000">
        <ele>436.70</ele>
        <time>2017-02-11T09:17:25Z</time>
      </trkpt>
      <trkpt lat="42.461765000" lon="-2.562298000">
        <ele>436.70</ele>
        <time>2017-02-11T09:17:26Z</time>
      </trkpt>
      <trkpt lat="42.461731000" lon="-2.562300000">
        <ele>436.70</ele>
        <time>2017-02-11T09:17:27Z</time>
      </trkpt>
      <trkpt lat="42.461700000" lon="-2.562296000">
        <ele>436.80</ele>
        <time>2017-02-11T09:17:28Z</time>
      </trkpt>
      <trkpt lat="42.461670000" lon="-2.562294000">
        <ele>436.80</ele>
        <time>2017-02-11T09:17:29Z</time>
      </trkpt>
      <trkpt lat="42.461639000" lon="-2.562293000">
        <ele>436.80</ele>
        <time>2017-02-11T09:17:30Z</time>
      </trkpt>
      <trkpt lat="42.461607000" lon="-2.562294000">
        <ele>436.90</ele>
        <time>2017-02-11T09:17:31Z</time>
      </trkpt>
      <trkpt lat="42.461576000" lon="-2.562296000">
        <ele>437.00</ele>
        <time>2017-02-11T09:17:32Z</time>
      </trkpt>
      <trkpt lat="42.461543000" lon="-2.562293000">
        <ele>437.00</ele>
        <time>2017-02-11T09:17:33Z</time>
      </trkpt>
      <trkpt lat="42.461505000" lon="-2.562295000">
        <ele>437.10</ele>
        <time>2017-02-11T09:17:34Z</time>
      </trkpt>
      <trkpt lat="42.461468000" lon="-2.562299000">
        <ele>437.10</ele>
        <time>2017-02-11T09:17:35Z</time>
      </trkpt>
      <trkpt lat="42.461434000" lon="-2.562302000">
        <ele>437.10</ele>
        <time>2017-02-11T09:17:36Z</time>
      </trkpt>
      <trkpt lat="42.461400000" lon="-2.562302000">
        <ele>437.10</ele>
        <time>2017-02-11T09:17:37Z</time>
      </trkpt>
      <trkpt lat="42.461367000" lon="-2.562305000">
        <ele>437.10</ele>
        <time>2017-02-11T09:17:38Z</time>
      </trkpt>
      <trkpt lat="42.461336000" lon="-2.562312000">
        <ele>437.10</ele>
        <time>2017-02-11T09:17:39Z</time>
      </trkpt>
      <trkpt lat="42.461306000" lon="-2.562315000">
        <ele>437.20</ele>
        <time>2017-02-11T09:17:40Z</time>
      </trkpt>
      <trkpt lat="42.461236000" lon="-2.562324000">
        <ele>437.60</ele>
        <time>2017-02-11T09:17:42Z</time>
      </trkpt>
      <trkpt lat="42.461204000" lon="-2.562328000">
        <ele>437.80</ele>
        <time>2017-02-11T09:17:43Z</time>
      </trkpt>
      <trkpt lat="42.461170000" lon="-2.562337000">
        <ele>437.90</ele>
        <time>2017-02-11T09:17:44Z</time>
      </trkpt>
      <trkpt lat="42.461139000" lon="-2.562343000">
        <ele>437.90</ele>
        <time>2017-02-11T09:17:45Z</time>
      </trkpt>
      <trkpt lat="42.461107000" lon="-2.562353000">
        <ele>438.00</ele>
        <time>2017-02-11T09:17:46Z</time>
      </trkpt>
      <trkpt lat="42.461073000" lon="-2.562360000">
        <ele>438.00</ele>
        <time>2017-02-11T09:17:47Z</time>
      </trkpt>
      <trkpt lat="42.461038000" lon="-2.562369000">
        <ele>438.10</ele>
        <time>2017-02-11T09:17:48Z</time>
      </trkpt>
      <trkpt lat="42.461007000" lon="-2.562376000">
        <ele>438.10</ele>
        <time>2017-02-11T09:17:49Z</time>
      </trkpt>
      <trkpt lat="42.460975000" lon="-2.562380000">
        <ele>438.10</ele>
        <time>2017-02-11T09:17:50Z</time>
      </trkpt>
      <trkpt lat="42.460944000" lon="-2.562386000">
        <ele>438.20</ele>
        <time>2017-02-11T09:17:51Z</time>
      </trkpt>
      <trkpt lat="42.460913000" lon="-2.562390000">
        <ele>438.30</ele>
        <time>2017-02-11T09:17:52Z</time>
      </trkpt>
      <trkpt lat="42.460881000" lon="-2.562394000">
        <ele>438.30</ele>
        <time>2017-02-11T09:17:53Z</time>
      </trkpt>
      <trkpt lat="42.460851000" lon="-2.562395000">
        <ele>438.30</ele>
        <time>2017-02-11T09:17:54Z</time>
      </trkpt>
      <trkpt lat="42.460819000" lon="-2.562392000">
        <ele>438.40</ele>
        <time>2017-02-11T09:17:55Z</time>
      </trkpt>
      <trkpt lat="42.460789000" lon="-2.562388000">
        <ele>438.50</ele>
        <time>2017-02-11T09:17:56Z</time>
      </trkpt>
      <trkpt lat="42.460762000" lon="-2.562389000">
        <ele>438.50</ele>
        <time>2017-02-11T09:17:57Z</time>
      </trkpt>
      <trkpt lat="42.460733000" lon="-2.562388000">
        <ele>438.60</ele>
        <time>2017-02-11T09:17:58Z</time>
      </trkpt>
      <trkpt lat="42.460702000" lon="-2.562397000">
        <ele>438.60</ele>
        <time>2017-02-11T09:17:59Z</time>
      </trkpt>
      <trkpt lat="42.460672000" lon="-2.562406000">
        <ele>438.60</ele>
        <time>2017-02-11T09:18:00Z</time>
      </trkpt>
      <trkpt lat="42.460643000" lon="-2.562412000">
        <ele>438.60</ele>
        <time>2017-02-11T09:18:01Z</time>
      </trkpt>
      <trkpt lat="42.460614000" lon="-2.562416000">
        <ele>438.60</ele>
        <time>2017-02-11T09:18:02Z</time>
      </trkpt>
      <trkpt lat="42.460587000" lon="-2.562427000">
        <ele>438.60</ele>
        <time>2017-02-11T09:18:03Z</time>
      </trkpt>
      <trkpt lat="42.460562000" lon="-2.562434000">
        <ele>438.60</ele>
        <time>2017-02-11T09:18:04Z</time>
      </trkpt>
      <trkpt lat="42.460543000" lon="-2.562443000">
        <ele>438.90</ele>
        <time>2017-02-11T09:18:05Z</time>
      </trkpt>
      <trkpt lat="42.460526000" lon="-2.562452000">
        <ele>439.10</ele>
        <time>2017-02-11T09:18:06Z</time>
      </trkpt>
      <trkpt lat="42.460512000" lon="-2.562462000">
        <ele>439.20</ele>
        <time>2017-02-11T09:18:07Z</time>
      </trkpt>
      <trkpt lat="42.460500000" lon="-2.562469000">
        <ele>439.40</ele>
        <time>2017-02-11T09:18:08Z</time>
      </trkpt>
      <trkpt lat="42.460483000" lon="-2.562476000">
        <ele>439.20</ele>
        <time>2017-02-11T09:18:09Z</time>
      </trkpt>
      <trkpt lat="42.460463000" lon="-2.562491000">
        <ele>439.00</ele>
        <time>2017-02-11T09:18:10Z</time>
      </trkpt>
      <trkpt lat="42.460440000" lon="-2.562504000">
        <ele>438.90</ele>
        <time>2017-02-11T09:18:11Z</time>
      </trkpt>
      <trkpt lat="42.460416000" lon="-2.562506000">
        <ele>438.80</ele>
        <time>2017-02-11T09:18:12Z</time>
      </trkpt>
      <trkpt lat="42.460383000" lon="-2.562511000">
        <ele>439.00</ele>
        <time>2017-02-11T09:18:13Z</time>
      </trkpt>
      <trkpt lat="42.460349000" lon="-2.562519000">
        <ele>439.20</ele>
        <time>2017-02-11T09:18:14Z</time>
      </trkpt>
      <trkpt lat="42.460312000" lon="-2.562523000">
        <ele>439.40</ele>
        <time>2017-02-11T09:18:15Z</time>
      </trkpt>
      <trkpt lat="42.460278000" lon="-2.562519000">
        <ele>439.50</ele>
        <time>2017-02-11T09:18:16Z</time>
      </trkpt>
      <trkpt lat="42.460245000" lon="-2.562519000">
        <ele>439.60</ele>
        <time>2017-02-11T09:18:17Z</time>
      </trkpt>
      <trkpt lat="42.460212000" lon="-2.562528000">
        <ele>439.60</ele>
        <time>2017-02-11T09:18:18Z</time>
      </trkpt>
      <trkpt lat="42.460182000" lon="-2.562545000">
        <ele>439.70</ele>
        <time>2017-02-11T09:18:19Z</time>
      </trkpt>
      <trkpt lat="42.460151000" lon="-2.562556000">
        <ele>439.70</ele>
        <time>2017-02-11T09:18:20Z</time>
      </trkpt>
      <trkpt lat="42.460125000" lon="-2.562566000">
        <ele>439.90</ele>
        <time>2017-02-11T09:18:21Z</time>
      </trkpt>
      <trkpt lat="42.460102000" lon="-2.562579000">
        <ele>440.00</ele>
        <time>2017-02-11T09:18:22Z</time>
      </trkpt>
      <trkpt lat="42.460081000" lon="-2.562593000">
        <ele>440.00</ele>
        <time>2017-02-11T09:18:23Z</time>
      </trkpt>
      <trkpt lat="42.460059000" lon="-2.562602000">
        <ele>440.10</ele>
        <time>2017-02-11T09:18:24Z</time>
      </trkpt>
      <trkpt lat="42.460038000" lon="-2.562602000">
        <ele>440.10</ele>
        <time>2017-02-11T09:18:25Z</time>
      </trkpt>
      <trkpt lat="42.460011000" lon="-2.562600000">
        <ele>440.20</ele>
        <time>2017-02-11T09:18:26Z</time>
      </trkpt>
      <trkpt lat="42.459985000" lon="-2.562610000">
        <ele>440.30</ele>
        <time>2017-02-11T09:18:27Z</time>
      </trkpt>
      <trkpt lat="42.459961000" lon="-2.562616000">
        <ele>440.30</ele>
        <time>2017-02-11T09:18:28Z</time>
      </trkpt>
      <trkpt lat="42.459941000" lon="-2.562621000">
        <ele>440.40</ele>
        <time>2017-02-11T09:18:29Z</time>
      </trkpt>
      <trkpt lat="42.459923000" lon="-2.562627000">
        <ele>440.40</ele>
        <time>2017-02-11T09:18:30Z</time>
      </trkpt>
      <trkpt lat="42.459904000" lon="-2.562631000">
        <ele>440.40</ele>
        <time>2017-02-11T09:18:31Z</time>
      </trkpt>
      <trkpt lat="42.459881000" lon="-2.562639000">
        <ele>440.30</ele>
        <time>2017-02-11T09:18:32Z</time>
      </trkpt>
      <trkpt lat="42.459855000" lon="-2.562650000">
        <ele>440.30</ele>
        <time>2017-02-11T09:18:33Z</time>
      </trkpt>
      <trkpt lat="42.459831000" lon="-2.562663000">
        <ele>440.20</ele>
        <time>2017-02-11T09:18:34Z</time>
      </trkpt>
      <trkpt lat="42.459802000" lon="-2.562676000">
        <ele>440.20</ele>
        <time>2017-02-11T09:18:35Z</time>
      </trkpt>
      <trkpt lat="42.459775000" lon="-2.562688000">
        <ele>440.20</ele>
        <time>2017-02-11T09:18:36Z</time>
      </trkpt>
      <trkpt lat="42.459748000" lon="-2.562699000">
        <ele>440.30</ele>
        <time>2017-02-11T09:18:37Z</time>
      </trkpt>
      <trkpt lat="42.459715000" lon="-2.562713000">
        <ele>440.40</ele>
        <time>2017-02-11T09:18:38Z</time>
      </trkpt>
      <trkpt lat="42.459682000" lon="-2.562722000">
        <ele>440.40</ele>
        <time>2017-02-11T09:18:39Z</time>
      </trkpt>
      <trkpt lat="42.459654000" lon="-2.562743000">
        <ele>440.40</ele>
        <time>2017-02-11T09:18:40Z</time>
      </trkpt>
      <trkpt lat="42.459622000" lon="-2.562761000">
        <ele>440.50</ele>
        <time>2017-02-11T09:18:41Z</time>
      </trkpt>
      <trkpt lat="42.459542000" lon="-2.562794000">
        <ele>440.80</ele>
        <time>2017-02-11T09:18:43Z</time>
      </trkpt>
      <trkpt lat="42.459498000" lon="-2.562809000">
        <ele>440.90</ele>
        <time>2017-02-11T09:18:44Z</time>
      </trkpt>
      <trkpt lat="42.459453000" lon="-2.562828000">
        <ele>441.10</ele>
        <time>2017-02-11T09:18:45Z</time>
      </trkpt>
      <trkpt lat="42.459415000" lon="-2.562852000">
        <ele>441.30</ele>
        <time>2017-02-11T09:18:46Z</time>
      </trkpt>
      <trkpt lat="42.459378000" lon="-2.562869000">
        <ele>441.30</ele>
        <time>2017-02-11T09:18:47Z</time>
      </trkpt>
      <trkpt lat="42.459341000" lon="-2.562885000">
        <ele>441.30</ele>
        <time>2017-02-11T09:18:48Z</time>
      </trkpt>
      <trkpt lat="42.459306000" lon="-2.562898000">
        <ele>441.20</ele>
        <time>2017-02-11T09:18:49Z</time>
      </trkpt>
      <trkpt lat="42.459275000" lon="-2.562910000">
        <ele>441.20</ele>
        <time>2017-02-11T09:18:50Z</time>
      </trkpt>
      <trkpt lat="42.459249000" lon="-2.562922000">
        <ele>441.20</ele>
        <time>2017-02-11T09:18:51Z</time>
      </trkpt>
      <trkpt lat="42.459222000" lon="-2.562935000">
        <ele>441.10</ele>
        <time>2017-02-11T09:18:52Z</time>
      </trkpt>
      <trkpt lat="42.459192000" lon="-2.562947000">
        <ele>441.10</ele>
        <time>2017-02-11T09:18:53Z</time>
      </trkpt>
      <trkpt lat="42.459163000" lon="-2.562962000">
        <ele>441.10</ele>
        <time>2017-02-11T09:18:54Z</time>
      </trkpt>
      <trkpt lat="42.459134000" lon="-2.562975000">
        <ele>441.10</ele>
        <time>2017-02-11T09:18:55Z</time>
      </trkpt>
      <trkpt lat="42.459102000" lon="-2.562987000">
        <ele>441.20</ele>
        <time>2017-02-11T09:18:56Z</time>
      </trkpt>
      <trkpt lat="42.459068000" lon="-2.562991000">
        <ele>441.20</ele>
        <time>2017-02-11T09:18:57Z</time>
      </trkpt>
      <trkpt lat="42.459035000" lon="-2.562998000">
        <ele>441.20</ele>
        <time>2017-02-11T09:18:58Z</time>
      </trkpt>
      <trkpt lat="42.459003000" lon="-2.562997000">
        <ele>441.30</ele>
        <time>2017-02-11T09:18:59Z</time>
      </trkpt>
      <trkpt lat="42.458968000" lon="-2.562993000">
        <ele>441.30</ele>
        <time>2017-02-11T09:19:00Z</time>
      </trkpt>
      <trkpt lat="42.458932000" lon="-2.562989000">
        <ele>441.20</ele>
        <time>2017-02-11T09:19:01Z</time>
      </trkpt>
      <trkpt lat="42.458898000" lon="-2.562985000">
        <ele>441.20</ele>
        <time>2017-02-11T09:19:02Z</time>
      </trkpt>
      <trkpt lat="42.458866000" lon="-2.562979000">
        <ele>441.20</ele>
        <time>2017-02-11T09:19:03Z</time>
      </trkpt>
      <trkpt lat="42.458833000" lon="-2.562968000">
        <ele>441.20</ele>
        <time>2017-02-11T09:19:04Z</time>
      </trkpt>
      <trkpt lat="42.458798000" lon="-2.562961000">
        <ele>441.20</ele>
        <time>2017-02-11T09:19:05Z</time>
      </trkpt>
      <trkpt lat="42.458764000" lon="-2.562951000">
        <ele>441.30</ele>
        <time>2017-02-11T09:19:06Z</time>
      </trkpt>
      <trkpt lat="42.458733000" lon="-2.562944000">
        <ele>441.30</ele>
        <time>2017-02-11T09:19:07Z</time>
      </trkpt>
      <trkpt lat="42.458699000" lon="-2.562936000">
        <ele>441.30</ele>
        <time>2017-02-11T09:19:08Z</time>
      </trkpt>
      <trkpt lat="42.458664000" lon="-2.562930000">
        <ele>441.30</ele>
        <time>2017-02-11T09:19:09Z</time>
      </trkpt>
      <trkpt lat="42.458629000" lon="-2.562922000">
        <ele>441.40</ele>
        <time>2017-02-11T09:19:10Z</time>
      </trkpt>
      <trkpt lat="42.458591000" lon="-2.562919000">
        <ele>441.50</ele>
        <time>2017-02-11T09:19:11Z</time>
      </trkpt>
      <trkpt lat="42.458555000" lon="-2.562915000">
        <ele>441.60</ele>
        <time>2017-02-11T09:19:12Z</time>
      </trkpt>
      <trkpt lat="42.458522000" lon="-2.562912000">
        <ele>441.70</ele>
        <time>2017-02-11T09:19:13Z</time>
      </trkpt>
      <trkpt lat="42.458487000" lon="-2.562906000">
        <ele>441.80</ele>
        <time>2017-02-11T09:19:14Z</time>
      </trkpt>
      <trkpt lat="42.458450000" lon="-2.562904000">
        <ele>441.80</ele>
        <time>2017-02-11T09:19:15Z</time>
      </trkpt>
      <trkpt lat="42.458413000" lon="-2.562899000">
        <ele>441.80</ele>
        <time>2017-02-11T09:19:16Z</time>
      </trkpt>
      <trkpt lat="42.458377000" lon="-2.562894000">
        <ele>441.90</ele>
        <time>2017-02-11T09:19:17Z</time>
      </trkpt>
      <trkpt lat="42.458343000" lon="-2.562892000">
        <ele>441.90</ele>
        <time>2017-02-11T09:19:18Z</time>
      </trkpt>
      <trkpt lat="42.458306000" lon="-2.562890000">
        <ele>442.10</ele>
        <time>2017-02-11T09:19:19Z</time>
      </trkpt>
      <trkpt lat="42.458268000" lon="-2.562888000">
        <ele>442.20</ele>
        <time>2017-02-11T09:19:20Z</time>
      </trkpt>
      <trkpt lat="42.458231000" lon="-2.562886000">
        <ele>442.30</ele>
        <time>2017-02-11T09:19:21Z</time>
      </trkpt>
      <trkpt lat="42.458194000" lon="-2.562890000">
        <ele>442.40</ele>
        <time>2017-02-11T09:19:22Z</time>
      </trkpt>
      <trkpt lat="42.458158000" lon="-2.562891000">
        <ele>442.40</ele>
        <time>2017-02-11T09:19:23Z</time>
      </trkpt>
      <trkpt lat="42.458125000" lon="-2.562893000">
        <ele>442.40</ele>
        <time>2017-02-11T09:19:24Z</time>
      </trkpt>
      <trkpt lat="42.458092000" lon="-2.562893000">
        <ele>442.40</ele>
        <time>2017-02-11T09:19:25Z</time>
      </trkpt>
      <trkpt lat="42.458059000" lon="-2.562894000">
        <ele>442.40</ele>
        <time>2017-02-11T09:19:26Z</time>
      </trkpt>
      <trkpt lat="42.458023000" lon="-2.562897000">
        <ele>442.40</ele>
        <time>2017-02-11T09:19:27Z</time>
      </trkpt>
      <trkpt lat="42.457989000" lon="-2.562902000">
        <ele>442.50</ele>
        <time>2017-02-11T09:19:28Z</time>
      </trkpt>
      <trkpt lat="42.457953000" lon="-2.562908000">
        <ele>442.50</ele>
        <time>2017-02-11T09:19:29Z</time>
      </trkpt>
      <trkpt lat="42.457919000" lon="-2.562913000">
        <ele>442.50</ele>
        <time>2017-02-11T09:19:30Z</time>
      </trkpt>
      <trkpt lat="42.457882000" lon="-2.562912000">
        <ele>442.50</ele>
        <time>2017-02-11T09:19:31Z</time>
      </trkpt>
      <trkpt lat="42.457847000" lon="-2.562911000">
        <ele>442.60</ele>
        <time>2017-02-11T09:19:32Z</time>
      </trkpt>
      <trkpt lat="42.457811000" lon="-2.562915000">
        <ele>442.60</ele>
        <time>2017-02-11T09:19:33Z</time>
      </trkpt>
      <trkpt lat="42.457776000" lon="-2.562913000">
        <ele>442.70</ele>
        <time>2017-02-11T09:19:34Z</time>
      </trkpt>
      <trkpt lat="42.457739000" lon="-2.562915000">
        <ele>442.80</ele>
        <time>2017-02-11T09:19:35Z</time>
      </trkpt>
      <trkpt lat="42.457703000" lon="-2.562919000">
        <ele>442.90</ele>
        <time>2017-02-11T09:19:36Z</time>
      </trkpt>
      <trkpt lat="42.457665000" lon="-2.562920000">
        <ele>442.90</ele>
        <time>2017-02-11T09:19:37Z</time>
      </trkpt>
      <trkpt lat="42.457633000" lon="-2.562930000">
        <ele>442.90</ele>
        <time>2017-02-11T09:19:38Z</time>
      </trkpt>
      <trkpt lat="42.457599000" lon="-2.562944000">
        <ele>442.90</ele>
        <time>2017-02-11T09:19:39Z</time>
      </trkpt>
      <trkpt lat="42.457566000" lon="-2.562952000">
        <ele>443.00</ele>
        <time>2017-02-11T09:19:40Z</time>
      </trkpt>
      <trkpt lat="42.457533000" lon="-2.562957000">
        <ele>443.10</ele>
        <time>2017-02-11T09:19:41Z</time>
      </trkpt>
      <trkpt lat="42.457499000" lon="-2.562954000">
        <ele>443.20</ele>
        <time>2017-02-11T09:19:42Z</time>
      </trkpt>
      <trkpt lat="42.457432000" lon="-2.562937000">
        <ele>443.30</ele>
        <time>2017-02-11T09:19:44Z</time>
      </trkpt>
      <trkpt lat="42.457398000" lon="-2.562923000">
        <ele>443.30</ele>
        <time>2017-02-11T09:19:45Z</time>
      </trkpt>
      <trkpt lat="42.457362000" lon="-2.562922000">
        <ele>443.30</ele>
        <time>2017-02-11T09:19:46Z</time>
      </trkpt>
      <trkpt lat="42.457325000" lon="-2.562922000">
        <ele>443.50</ele>
        <time>2017-02-11T09:19:47Z</time>
      </trkpt>
      <trkpt lat="42.457289000" lon="-2.562918000">
        <ele>443.60</ele>
        <time>2017-02-11T09:19:48Z</time>
      </trkpt>
      <trkpt lat="42.457254000" lon="-2.562916000">
        <ele>443.70</ele>
        <time>2017-02-11T09:19:49Z</time>
      </trkpt>
      <trkpt lat="42.457215000" lon="-2.562920000">
        <ele>443.70</ele>
        <time>2017-02-11T09:19:50Z</time>
      </trkpt>
      <trkpt lat="42.457176000" lon="-2.562919000">
        <ele>443.80</ele>
        <time>2017-02-11T09:19:51Z</time>
      </trkpt>
      <trkpt lat="42.457136000" lon="-2.562926000">
        <ele>443.80</ele>
        <time>2017-02-11T09:19:52Z</time>
      </trkpt>
      <trkpt lat="42.457097000" lon="-2.562934000">
        <ele>443.80</ele>
        <time>2017-02-11T09:19:53Z</time>
      </trkpt>
      <trkpt lat="42.457058000" lon="-2.562941000">
        <ele>443.80</ele>
        <time>2017-02-11T09:19:54Z</time>
      </trkpt>
      <trkpt lat="42.457019000" lon="-2.562950000">
        <ele>443.80</ele>
        <time>2017-02-11T09:19:55Z</time>
      </trkpt>
      <trkpt lat="42.456981000" lon="-2.562956000">
        <ele>443.80</ele>
        <time>2017-02-11T09:19:56Z</time>
      </trkpt>
      <trkpt lat="42.456944000" lon="-2.562963000">
        <ele>443.70</ele>
        <time>2017-02-11T09:19:57Z</time>
      </trkpt>
      <trkpt lat="42.456904000" lon="-2.562965000">
        <ele>443.70</ele>
        <time>2017-02-11T09:19:58Z</time>
      </trkpt>
      <trkpt lat="42.456864000" lon="-2.562968000">
        <ele>443.70</ele>
        <time>2017-02-11T09:19:59Z</time>
      </trkpt>
      <trkpt lat="42.456826000" lon="-2.562966000">
        <ele>443.70</ele>
        <time>2017-02-11T09:20:00Z</time>
      </trkpt>
      <trkpt lat="42.456788000" lon="-2.562968000">
        <ele>443.90</ele>
        <time>2017-02-11T09:20:01Z</time>
      </trkpt>
      <trkpt lat="42.456750000" lon="-2.562972000">
        <ele>444.00</ele>
        <time>2017-02-11T09:20:02Z</time>
      </trkpt>
      <trkpt lat="42.456712000" lon="-2.562972000">
        <ele>444.10</ele>
        <time>2017-02-11T09:20:03Z</time>
      </trkpt>
      <trkpt lat="42.456676000" lon="-2.562983000">
        <ele>444.20</ele>
        <time>2017-02-11T09:20:04Z</time>
      </trkpt>
      <trkpt lat="42.456640000" lon="-2.562989000">
        <ele>444.30</ele>
        <time>2017-02-11T09:20:05Z</time>
      </trkpt>
      <trkpt lat="42.456603000" lon="-2.562997000">
        <ele>444.30</ele>
        <time>2017-02-11T09:20:06Z</time>
      </trkpt>
      <trkpt lat="42.456568000" lon="-2.563008000">
        <ele>444.30</ele>
        <time>2017-02-11T09:20:07Z</time>
      </trkpt>
      <trkpt lat="42.456534000" lon="-2.563017000">
        <ele>444.40</ele>
        <time>2017-02-11T09:20:08Z</time>
      </trkpt>
      <trkpt lat="42.456498000" lon="-2.563022000">
        <ele>444.40</ele>
        <time>2017-02-11T09:20:09Z</time>
      </trkpt>
      <trkpt lat="42.456460000" lon="-2.563031000">
        <ele>444.40</ele>
        <time>2017-02-11T09:20:10Z</time>
      </trkpt>
      <trkpt lat="42.456424000" lon="-2.563037000">
        <ele>444.40</ele>
        <time>2017-02-11T09:20:11Z</time>
      </trkpt>
      <trkpt lat="42.456387000" lon="-2.563044000">
        <ele>444.40</ele>
        <time>2017-02-11T09:20:12Z</time>
      </trkpt>
      <trkpt lat="42.456348000" lon="-2.563051000">
        <ele>444.50</ele>
        <time>2017-02-11T09:20:13Z</time>
      </trkpt>
      <trkpt lat="42.456308000" lon="-2.563057000">
        <ele>444.50</ele>
        <time>2017-02-11T09:20:14Z</time>
      </trkpt>
      <trkpt lat="42.456270000" lon="-2.563064000">
        <ele>444.60</ele>
        <time>2017-02-11T09:20:15Z</time>
      </trkpt>
      <trkpt lat="42.456233000" lon="-2.563068000">
        <ele>444.60</ele>
        <time>2017-02-11T09:20:16Z</time>
      </trkpt>
      <trkpt lat="42.456193000" lon="-2.563069000">
        <ele>444.60</ele>
        <time>2017-02-11T09:20:17Z</time>
      </trkpt>
      <trkpt lat="42.456157000" lon="-2.563066000">
        <ele>444.60</ele>
        <time>2017-02-11T09:20:18Z</time>
      </trkpt>
      <trkpt lat="42.456120000" lon="-2.563073000">
        <ele>444.70</ele>
        <time>2017-02-11T09:20:19Z</time>
      </trkpt>
      <trkpt lat="42.456081000" lon="-2.563077000">
        <ele>444.80</ele>
        <time>2017-02-11T09:20:20Z</time>
      </trkpt>
      <trkpt lat="42.456045000" lon="-2.563077000">
        <ele>444.80</ele>
        <time>2017-02-11T09:20:21Z</time>
      </trkpt>
      <trkpt lat="42.456007000" lon="-2.563084000">
        <ele>445.00</ele>
        <time>2017-02-11T09:20:22Z</time>
      </trkpt>
      <trkpt lat="42.455974000" lon="-2.563083000">
        <ele>445.20</ele>
        <time>2017-02-11T09:20:23Z</time>
      </trkpt>
      <trkpt lat="42.455937000" lon="-2.563081000">
        <ele>445.30</ele>
        <time>2017-02-11T09:20:24Z</time>
      </trkpt>
      <trkpt lat="42.455898000" lon="-2.563080000">
        <ele>445.40</ele>
        <time>2017-02-11T09:20:25Z</time>
      </trkpt>
      <trkpt lat="42.455862000" lon="-2.563085000">
        <ele>445.40</ele>
        <time>2017-02-11T09:20:26Z</time>
      </trkpt>
      <trkpt lat="42.455822000" lon="-2.563082000">
        <ele>445.40</ele>
        <time>2017-02-11T09:20:27Z</time>
      </trkpt>
      <trkpt lat="42.455785000" lon="-2.563083000">
        <ele>445.40</ele>
        <time>2017-02-11T09:20:28Z</time>
      </trkpt>
      <trkpt lat="42.455750000" lon="-2.563083000">
        <ele>445.40</ele>
        <time>2017-02-11T09:20:29Z</time>
      </trkpt>
      <trkpt lat="42.455715000" lon="-2.563080000">
        <ele>445.40</ele>
        <time>2017-02-11T09:20:30Z</time>
      </trkpt>
      <trkpt lat="42.455677000" lon="-2.563083000">
        <ele>445.50</ele>
        <time>2017-02-11T09:20:31Z</time>
      </trkpt>
      <trkpt lat="42.455637000" lon="-2.563089000">
        <ele>445.60</ele>
        <time>2017-02-11T09:20:32Z</time>
      </trkpt>
      <trkpt lat="42.455601000" lon="-2.563096000">
        <ele>445.80</ele>
        <time>2017-02-11T09:20:33Z</time>
      </trkpt>
      <trkpt lat="42.455565000" lon="-2.563102000">
        <ele>445.90</ele>
        <time>2017-02-11T09:20:34Z</time>
      </trkpt>
      <trkpt lat="42.455531000" lon="-2.563111000">
        <ele>445.90</ele>
        <time>2017-02-11T09:20:35Z</time>
      </trkpt>
      <trkpt lat="42.455493000" lon="-2.563121000">
        <ele>446.00</ele>
        <time>2017-02-11T09:20:36Z</time>
      </trkpt>
      <trkpt lat="42.455456000" lon="-2.563131000">
        <ele>446.00</ele>
        <time>2017-02-11T09:20:37Z</time>
      </trkpt>
      <trkpt lat="42.455418000" lon="-2.563139000">
        <ele>446.10</ele>
        <time>2017-02-11T09:20:38Z</time>
      </trkpt>
      <trkpt lat="42.455384000" lon="-2.563147000">
        <ele>446.10</ele>
        <time>2017-02-11T09:20:39Z</time>
      </trkpt>
      <trkpt lat="42.455350000" lon="-2.563154000">
        <ele>446.10</ele>
        <time>2017-02-11T09:20:40Z</time>
      </trkpt>
      <trkpt lat="42.455314000" lon="-2.563166000">
        <ele>446.10</ele>
        <time>2017-02-11T09:20:41Z</time>
      </trkpt>
      <trkpt lat="42.455275000" lon="-2.563175000">
        <ele>446.10</ele>
        <time>2017-02-11T09:20:42Z</time>
      </trkpt>
      <trkpt lat="42.455238000" lon="-2.563181000">
        <ele>446.10</ele>
        <time>2017-02-11T09:20:43Z</time>
      </trkpt>
      <trkpt lat="42.455167000" lon="-2.563199000">
        <ele>446.30</ele>
        <time>2017-02-11T09:20:45Z</time>
      </trkpt>
      <trkpt lat="42.455132000" lon="-2.563213000">
        <ele>446.20</ele>
        <time>2017-02-11T09:20:46Z</time>
      </trkpt>
      <trkpt lat="42.455099000" lon="-2.563231000">
        <ele>446.10</ele>
        <time>2017-02-11T09:20:47Z</time>
      </trkpt>
      <trkpt lat="42.455065000" lon="-2.563253000">
        <ele>446.20</ele>
        <time>2017-02-11T09:20:48Z</time>
      </trkpt>
      <trkpt lat="42.455036000" lon="-2.563278000">
        <ele>446.30</ele>
        <time>2017-02-11T09:20:49Z</time>
      </trkpt>
      <trkpt lat="42.455010000" lon="-2.563307000">
        <ele>446.40</ele>
        <time>2017-02-11T09:20:50Z</time>
      </trkpt>
      <trkpt lat="42.454983000" lon="-2.563333000">
        <ele>446.60</ele>
        <time>2017-02-11T09:20:51Z</time>
      </trkpt>
      <trkpt lat="42.454958000" lon="-2.563361000">
        <ele>446.70</ele>
        <time>2017-02-11T09:20:52Z</time>
      </trkpt>
      <trkpt lat="42.454931000" lon="-2.563386000">
        <ele>446.70</ele>
        <time>2017-02-11T09:20:53Z</time>
      </trkpt>
      <trkpt lat="42.454902000" lon="-2.563412000">
        <ele>446.80</ele>
        <time>2017-02-11T09:20:54Z</time>
      </trkpt>
      <trkpt lat="42.454871000" lon="-2.563438000">
        <ele>446.80</ele>
        <time>2017-02-11T09:20:55Z</time>
      </trkpt>
      <trkpt lat="42.454838000" lon="-2.563460000">
        <ele>446.80</ele>
        <time>2017-02-11T09:20:56Z</time>
      </trkpt>
      <trkpt lat="42.454804000" lon="-2.563479000">
        <ele>446.80</ele>
        <time>2017-02-11T09:20:57Z</time>
      </trkpt>
      <trkpt lat="42.454770000" lon="-2.563492000">
        <ele>446.80</ele>
        <time>2017-02-11T09:20:58Z</time>
      </trkpt>
      <trkpt lat="42.454735000" lon="-2.563505000">
        <ele>446.80</ele>
        <time>2017-02-11T09:20:59Z</time>
      </trkpt>
      <trkpt lat="42.454700000" lon="-2.563520000">
        <ele>446.90</ele>
        <time>2017-02-11T09:21:00Z</time>
      </trkpt>
      <trkpt lat="42.454669000" lon="-2.563533000">
        <ele>446.90</ele>
        <time>2017-02-11T09:21:01Z</time>
      </trkpt>
      <trkpt lat="42.454639000" lon="-2.563543000">
        <ele>447.00</ele>
        <time>2017-02-11T09:21:02Z</time>
      </trkpt>
      <trkpt lat="42.454611000" lon="-2.563557000">
        <ele>447.10</ele>
        <time>2017-02-11T09:21:03Z</time>
      </trkpt>
      <trkpt lat="42.454583000" lon="-2.563568000">
        <ele>447.20</ele>
        <time>2017-02-11T09:21:04Z</time>
      </trkpt>
      <trkpt lat="42.454555000" lon="-2.563584000">
        <ele>447.30</ele>
        <time>2017-02-11T09:21:05Z</time>
      </trkpt>
      <trkpt lat="42.454526000" lon="-2.563595000">
        <ele>447.50</ele>
        <time>2017-02-11T09:21:06Z</time>
      </trkpt>
      <trkpt lat="42.454495000" lon="-2.563603000">
        <ele>447.70</ele>
        <time>2017-02-11T09:21:07Z</time>
      </trkpt>
      <trkpt lat="42.454464000" lon="-2.563614000">
        <ele>447.90</ele>
        <time>2017-02-11T09:21:08Z</time>
      </trkpt>
      <trkpt lat="42.454434000" lon="-2.563617000">
        <ele>448.10</ele>
        <time>2017-02-11T09:21:09Z</time>
      </trkpt>
      <trkpt lat="42.454414000" lon="-2.563615000">
        <ele>448.20</ele>
        <time>2017-02-11T09:21:10Z</time>
      </trkpt>
      <trkpt lat="42.454390000" lon="-2.563614000">
        <ele>448.40</ele>
        <time>2017-02-11T09:21:11Z</time>
      </trkpt>
      <trkpt lat="42.454365000" lon="-2.563617000">
        <ele>448.50</ele>
        <time>2017-02-11T09:21:12Z</time>
      </trkpt>
      <trkpt lat="42.454334000" lon="-2.563623000">
        <ele>448.50</ele>
        <time>2017-02-11T09:21:13Z</time>
      </trkpt>
      <trkpt lat="42.454304000" lon="-2.563630000">
        <ele>448.50</ele>
        <time>2017-02-11T09:21:14Z</time>
      </trkpt>
      <trkpt lat="42.454270000" lon="-2.563638000">
        <ele>448.40</ele>
        <time>2017-02-11T09:21:15Z</time>
      </trkpt>
      <trkpt lat="42.454236000" lon="-2.563642000">
        <ele>448.20</ele>
        <time>2017-02-11T09:21:16Z</time>
      </trkpt>
      <trkpt lat="42.454201000" lon="-2.563645000">
        <ele>448.10</ele>
        <time>2017-02-11T09:21:17Z</time>
      </trkpt>
      <trkpt lat="42.454167000" lon="-2.563650000">
        <ele>448.10</ele>
        <time>2017-02-11T09:21:18Z</time>
      </trkpt>
      <trkpt lat="42.454131000" lon="-2.563654000">
        <ele>448.10</ele>
        <time>2017-02-11T09:21:19Z</time>
      </trkpt>
      <trkpt lat="42.454097000" lon="-2.563661000">
        <ele>448.00</ele>
        <time>2017-02-11T09:21:20Z</time>
      </trkpt>
      <trkpt lat="42.454063000" lon="-2.563667000">
        <ele>448.00</ele>
        <time>2017-02-11T09:21:21Z</time>
      </trkpt>
      <trkpt lat="42.454030000" lon="-2.563675000">
        <ele>448.30</ele>
        <time>2017-02-11T09:21:22Z</time>
      </trkpt>
      <trkpt lat="42.453995000" lon="-2.563682000">
        <ele>448.50</ele>
        <time>2017-02-11T09:21:23Z</time>
      </trkpt>
      <trkpt lat="42.453960000" lon="-2.563693000">
        <ele>448.60</ele>
        <time>2017-02-11T09:21:24Z</time>
      </trkpt>
      <trkpt lat="42.453924000" lon="-2.563705000">
        <ele>448.70</ele>
        <time>2017-02-11T09:21:25Z</time>
      </trkpt>
      <trkpt lat="42.453891000" lon="-2.563716000">
        <ele>448.90</ele>
        <time>2017-02-11T09:21:26Z</time>
      </trkpt>
      <trkpt lat="42.453854000" lon="-2.563726000">
        <ele>449.00</ele>
        <time>2017-02-11T09:21:27Z</time>
      </trkpt>
      <trkpt lat="42.453814000" lon="-2.563733000">
        <ele>449.00</ele>
        <time>2017-02-11T09:21:28Z</time>
      </trkpt>
      <trkpt lat="42.453772000" lon="-2.563741000">
        <ele>449.10</ele>
        <time>2017-02-11T09:21:29Z</time>
      </trkpt>
      <trkpt lat="42.453734000" lon="-2.563748000">
        <ele>449.20</ele>
        <time>2017-02-11T09:21:30Z</time>
      </trkpt>
      <trkpt lat="42.453693000" lon="-2.563741000">
        <ele>449.20</ele>
        <time>2017-02-11T09:21:31Z</time>
      </trkpt>
      <trkpt lat="42.453657000" lon="-2.563736000">
        <ele>449.20</ele>
        <time>2017-02-11T09:21:32Z</time>
      </trkpt>
      <trkpt lat="42.453619000" lon="-2.563734000">
        <ele>449.30</ele>
        <time>2017-02-11T09:21:33Z</time>
      </trkpt>
      <trkpt lat="42.453582000" lon="-2.563734000">
        <ele>449.40</ele>
        <time>2017-02-11T09:21:34Z</time>
      </trkpt>
      <trkpt lat="42.453547000" lon="-2.563737000">
        <ele>449.10</ele>
        <time>2017-02-11T09:21:35Z</time>
      </trkpt>
      <trkpt lat="42.453510000" lon="-2.563735000">
        <ele>449.00</ele>
        <time>2017-02-11T09:21:36Z</time>
      </trkpt>
      <trkpt lat="42.453472000" lon="-2.563729000">
        <ele>449.10</ele>
        <time>2017-02-11T09:21:37Z</time>
      </trkpt>
      <trkpt lat="42.453434000" lon="-2.563718000">
        <ele>449.10</ele>
        <time>2017-02-11T09:21:38Z</time>
      </trkpt>
      <trkpt lat="42.453400000" lon="-2.563709000">
        <ele>449.20</ele>
        <time>2017-02-11T09:21:39Z</time>
      </trkpt>
      <trkpt lat="42.453363000" lon="-2.563699000">
        <ele>449.20</ele>
        <time>2017-02-11T09:21:40Z</time>
      </trkpt>
      <trkpt lat="42.453324000" lon="-2.563690000">
        <ele>449.40</ele>
        <time>2017-02-11T09:21:41Z</time>
      </trkpt>
      <trkpt lat="42.453289000" lon="-2.563680000">
        <ele>449.50</ele>
        <time>2017-02-11T09:21:42Z</time>
      </trkpt>
      <trkpt lat="42.453251000" lon="-2.563672000">
        <ele>449.60</ele>
        <time>2017-02-11T09:21:43Z</time>
      </trkpt>
      <trkpt lat="42.453211000" lon="-2.563665000">
        <ele>449.60</ele>
        <time>2017-02-11T09:21:44Z</time>
      </trkpt>
      <trkpt lat="42.453135000" lon="-2.563661000">
        <ele>449.60</ele>
        <time>2017-02-11T09:21:46Z</time>
      </trkpt>
      <trkpt lat="42.453099000" lon="-2.563663000">
        <ele>449.60</ele>
        <time>2017-02-11T09:21:47Z</time>
      </trkpt>
      <trkpt lat="42.453061000" lon="-2.563671000">
        <ele>449.60</ele>
        <time>2017-02-11T09:21:48Z</time>
      </trkpt>
      <trkpt lat="42.453025000" lon="-2.563683000">
        <ele>449.60</ele>
        <time>2017-02-11T09:21:49Z</time>
      </trkpt>
      <trkpt lat="42.452989000" lon="-2.563693000">
        <ele>449.70</ele>
        <time>2017-02-11T09:21:50Z</time>
      </trkpt>
      <trkpt lat="42.452951000" lon="-2.563704000">
        <ele>449.70</ele>
        <time>2017-02-11T09:21:51Z</time>
      </trkpt>
      <trkpt lat="42.452914000" lon="-2.563713000">
        <ele>449.70</ele>
        <time>2017-02-11T09:21:52Z</time>
      </trkpt>
      <trkpt lat="42.452877000" lon="-2.563725000">
        <ele>449.80</ele>
        <time>2017-02-11T09:21:53Z</time>
      </trkpt>
      <trkpt lat="42.452842000" lon="-2.563737000">
        <ele>449.90</ele>
        <time>2017-02-11T09:21:54Z</time>
      </trkpt>
      <trkpt lat="42.452803000" lon="-2.563749000">
        <ele>449.80</ele>
        <time>2017-02-11T09:21:55Z</time>
      </trkpt>
      <trkpt lat="42.452764000" lon="-2.563758000">
        <ele>449.70</ele>
        <time>2017-02-11T09:21:56Z</time>
      </trkpt>
      <trkpt lat="42.452728000" lon="-2.563765000">
        <ele>449.90</ele>
        <time>2017-02-11T09:21:57Z</time>
      </trkpt>
      <trkpt lat="42.452690000" lon="-2.563771000">
        <ele>450.00</ele>
        <time>2017-02-11T09:21:58Z</time>
      </trkpt>
      <trkpt lat="42.452651000" lon="-2.563776000">
        <ele>450.00</ele>
        <time>2017-02-11T09:21:59Z</time>
      </trkpt>
      <trkpt lat="42.452612000" lon="-2.563784000">
        <ele>450.00</ele>
        <time>2017-02-11T09:22:00Z</time>
      </trkpt>
      <trkpt lat="42.452570000" lon="-2.563789000">
        <ele>450.00</ele>
        <time>2017-02-11T09:22:01Z</time>
      </trkpt>
      <trkpt lat="42.452535000" lon="-2.563795000">
        <ele>450.10</ele>
        <time>2017-02-11T09:22:02Z</time>
      </trkpt>
      <trkpt lat="42.452497000" lon="-2.563800000">
        <ele>450.10</ele>
        <time>2017-02-11T09:22:03Z</time>
      </trkpt>
      <trkpt lat="42.452458000" lon="-2.563805000">
        <ele>450.10</ele>
        <time>2017-02-11T09:22:04Z</time>
      </trkpt>
      <trkpt lat="42.452424000" lon="-2.563811000">
        <ele>450.10</ele>
        <time>2017-02-11T09:22:05Z</time>
      </trkpt>
      <trkpt lat="42.452387000" lon="-2.563818000">
        <ele>450.20</ele>
        <time>2017-02-11T09:22:06Z</time>
      </trkpt>
      <trkpt lat="42.452349000" lon="-2.563826000">
        <ele>450.30</ele>
        <time>2017-02-11T09:22:07Z</time>
      </trkpt>
      <trkpt lat="42.452310000" lon="-2.563837000">
        <ele>450.40</ele>
        <time>2017-02-11T09:22:08Z</time>
      </trkpt>
      <trkpt lat="42.452268000" lon="-2.563844000">
        <ele>450.40</ele>
        <time>2017-02-11T09:22:09Z</time>
      </trkpt>
      <trkpt lat="42.452230000" lon="-2.563845000">
        <ele>450.50</ele>
        <time>2017-02-11T09:22:10Z</time>
      </trkpt>
      <trkpt lat="42.452192000" lon="-2.563854000">
        <ele>450.70</ele>
        <time>2017-02-11T09:22:11Z</time>
      </trkpt>
      <trkpt lat="42.452156000" lon="-2.563870000">
        <ele>450.80</ele>
        <time>2017-02-11T09:22:12Z</time>
      </trkpt>
      <trkpt lat="42.452118000" lon="-2.563888000">
        <ele>450.90</ele>
        <time>2017-02-11T09:22:13Z</time>
      </trkpt>
      <trkpt lat="42.452077000" lon="-2.563904000">
        <ele>450.90</ele>
        <time>2017-02-11T09:22:14Z</time>
      </trkpt>
      <trkpt lat="42.452037000" lon="-2.563920000">
        <ele>450.90</ele>
        <time>2017-02-11T09:22:15Z</time>
      </trkpt>
      <trkpt lat="42.452001000" lon="-2.563937000">
        <ele>451.00</ele>
        <time>2017-02-11T09:22:16Z</time>
      </trkpt>
      <trkpt lat="42.451962000" lon="-2.563954000">
        <ele>451.00</ele>
        <time>2017-02-11T09:22:17Z</time>
      </trkpt>
      <trkpt lat="42.451927000" lon="-2.563963000">
        <ele>451.00</ele>
        <time>2017-02-11T09:22:18Z</time>
      </trkpt>
      <trkpt lat="42.451893000" lon="-2.563976000">
        <ele>451.00</ele>
        <time>2017-02-11T09:22:19Z</time>
      </trkpt>
      <trkpt lat="42.451856000" lon="-2.563989000">
        <ele>451.00</ele>
        <time>2017-02-11T09:22:20Z</time>
      </trkpt>
      <trkpt lat="42.451820000" lon="-2.564001000">
        <ele>451.10</ele>
        <time>2017-02-11T09:22:21Z</time>
      </trkpt>
      <trkpt lat="42.451783000" lon="-2.564012000">
        <ele>451.20</ele>
        <time>2017-02-11T09:22:22Z</time>
      </trkpt>
      <trkpt lat="42.451747000" lon="-2.564024000">
        <ele>451.20</ele>
        <time>2017-02-11T09:22:23Z</time>
      </trkpt>
      <trkpt lat="42.451713000" lon="-2.564037000">
        <ele>451.20</ele>
        <time>2017-02-11T09:22:24Z</time>
      </trkpt>
      <trkpt lat="42.451678000" lon="-2.564046000">
        <ele>451.30</ele>
        <time>2017-02-11T09:22:25Z</time>
      </trkpt>
      <trkpt lat="42.451643000" lon="-2.564056000">
        <ele>451.40</ele>
        <time>2017-02-11T09:22:26Z</time>
      </trkpt>
      <trkpt lat="42.451609000" lon="-2.564070000">
        <ele>451.30</ele>
        <time>2017-02-11T09:22:27Z</time>
      </trkpt>
      <trkpt lat="42.451572000" lon="-2.564081000">
        <ele>451.30</ele>
        <time>2017-02-11T09:22:28Z</time>
      </trkpt>
      <trkpt lat="42.451538000" lon="-2.564093000">
        <ele>451.30</ele>
        <time>2017-02-11T09:22:29Z</time>
      </trkpt>
      <trkpt lat="42.451503000" lon="-2.564106000">
        <ele>451.30</ele>
        <time>2017-02-11T09:22:30Z</time>
      </trkpt>
      <trkpt lat="42.451468000" lon="-2.564119000">
        <ele>451.30</ele>
        <time>2017-02-11T09:22:31Z</time>
      </trkpt>
      <trkpt lat="42.451434000" lon="-2.564137000">
        <ele>451.30</ele>
        <time>2017-02-11T09:22:32Z</time>
      </trkpt>
      <trkpt lat="42.451403000" lon="-2.564150000">
        <ele>451.50</ele>
        <time>2017-02-11T09:22:33Z</time>
      </trkpt>
      <trkpt lat="42.451371000" lon="-2.564161000">
        <ele>451.60</ele>
        <time>2017-02-11T09:22:34Z</time>
      </trkpt>
      <trkpt lat="42.451336000" lon="-2.564175000">
        <ele>451.80</ele>
        <time>2017-02-11T09:22:35Z</time>
      </trkpt>
      <trkpt lat="42.451305000" lon="-2.564185000">
        <ele>452.00</ele>
        <time>2017-02-11T09:22:36Z</time>
      </trkpt>
      <trkpt lat="42.451270000" lon="-2.564196000">
        <ele>452.00</ele>
        <time>2017-02-11T09:22:37Z</time>
      </trkpt>
      <trkpt lat="42.451235000" lon="-2.564206000">
        <ele>452.00</ele>
        <time>2017-02-11T09:22:38Z</time>
      </trkpt>
      <trkpt lat="42.451201000" lon="-2.564213000">
        <ele>452.00</ele>
        <time>2017-02-11T09:22:39Z</time>
      </trkpt>
      <trkpt lat="42.451167000" lon="-2.564224000">
        <ele>452.10</ele>
        <time>2017-02-11T09:22:40Z</time>
      </trkpt>
      <trkpt lat="42.451133000" lon="-2.564237000">
        <ele>452.10</ele>
        <time>2017-02-11T09:22:41Z</time>
      </trkpt>
      <trkpt lat="42.451097000" lon="-2.564247000">
        <ele>452.10</ele>
        <time>2017-02-11T09:22:42Z</time>
      </trkpt>
      <trkpt lat="42.451060000" lon="-2.564258000">
        <ele>452.10</ele>
        <time>2017-02-11T09:22:43Z</time>
      </trkpt>
      <trkpt lat="42.451028000" lon="-2.564269000">
        <ele>452.10</ele>
        <time>2017-02-11T09:22:44Z</time>
      </trkpt>
      <trkpt lat="42.450996000" lon="-2.564280000">
        <ele>452.10</ele>
        <time>2017-02-11T09:22:45Z</time>
      </trkpt>
      <trkpt lat="42.450931000" lon="-2.564299000">
        <ele>452.10</ele>
        <time>2017-02-11T09:22:47Z</time>
      </trkpt>
      <trkpt lat="42.450900000" lon="-2.564308000">
        <ele>452.10</ele>
        <time>2017-02-11T09:22:48Z</time>
      </trkpt>
      <trkpt lat="42.450873000" lon="-2.564318000">
        <ele>452.10</ele>
        <time>2017-02-11T09:22:49Z</time>
      </trkpt>
      <trkpt lat="42.450844000" lon="-2.564331000">
        <ele>452.00</ele>
        <time>2017-02-11T09:22:50Z</time>
      </trkpt>
      <trkpt lat="42.450819000" lon="-2.564348000">
        <ele>452.00</ele>
        <time>2017-02-11T09:22:51Z</time>
      </trkpt>
      <trkpt lat="42.450797000" lon="-2.564362000">
        <ele>452.00</ele>
        <time>2017-02-11T09:22:52Z</time>
      </trkpt>
      <trkpt lat="42.450773000" lon="-2.564379000">
        <ele>452.00</ele>
        <time>2017-02-11T09:22:53Z</time>
      </trkpt>
      <trkpt lat="42.450742000" lon="-2.564391000">
        <ele>452.00</ele>
        <time>2017-02-11T09:22:54Z</time>
      </trkpt>
      <trkpt lat="42.450710000" lon="-2.564402000">
        <ele>452.20</ele>
        <time>2017-02-11T09:22:55Z</time>
      </trkpt>
      <trkpt lat="42.450676000" lon="-2.564419000">
        <ele>452.20</ele>
        <time>2017-02-11T09:22:56Z</time>
      </trkpt>
      <trkpt lat="42.450639000" lon="-2.564433000">
        <ele>452.30</ele>
        <time>2017-02-11T09:22:57Z</time>
      </trkpt>
      <trkpt lat="42.450603000" lon="-2.564445000">
        <ele>452.40</ele>
        <time>2017-02-11T09:22:58Z</time>
      </trkpt>
      <trkpt lat="42.450569000" lon="-2.564458000">
        <ele>452.40</ele>
        <time>2017-02-11T09:22:59Z</time>
      </trkpt>
      <trkpt lat="42.450533000" lon="-2.564468000">
        <ele>452.40</ele>
        <time>2017-02-11T09:23:00Z</time>
      </trkpt>
      <trkpt lat="42.450502000" lon="-2.564474000">
        <ele>452.30</ele>
        <time>2017-02-11T09:23:01Z</time>
      </trkpt>
      <trkpt lat="42.450472000" lon="-2.564479000">
        <ele>452.30</ele>
        <time>2017-02-11T09:23:02Z</time>
      </trkpt>
      <trkpt lat="42.450440000" lon="-2.564490000">
        <ele>452.30</ele>
        <time>2017-02-11T09:23:03Z</time>
      </trkpt>
      <trkpt lat="42.450409000" lon="-2.564494000">
        <ele>452.40</ele>
        <time>2017-02-11T09:23:04Z</time>
      </trkpt>
      <trkpt lat="42.450378000" lon="-2.564495000">
        <ele>452.40</ele>
        <time>2017-02-11T09:23:05Z</time>
      </trkpt>
      <trkpt lat="42.450345000" lon="-2.564490000">
        <ele>452.40</ele>
        <time>2017-02-11T09:23:06Z</time>
      </trkpt>
      <trkpt lat="42.450312000" lon="-2.564486000">
        <ele>452.70</ele>
        <time>2017-02-11T09:23:07Z</time>
      </trkpt>
      <trkpt lat="42.450280000" lon="-2.564482000">
        <ele>452.90</ele>
        <time>2017-02-11T09:23:08Z</time>
      </trkpt>
      <trkpt lat="42.450248000" lon="-2.564479000">
        <ele>452.90</ele>
        <time>2017-02-11T09:23:09Z</time>
      </trkpt>
      <trkpt lat="42.450215000" lon="-2.564479000">
        <ele>452.80</ele>
        <time>2017-02-11T09:23:10Z</time>
      </trkpt>
      <trkpt lat="42.450178000" lon="-2.564483000">
        <ele>452.80</ele>
        <time>2017-02-11T09:23:11Z</time>
      </trkpt>
      <trkpt lat="42.450145000" lon="-2.564487000">
        <ele>452.80</ele>
        <time>2017-02-11T09:23:12Z</time>
      </trkpt>
      <trkpt lat="42.450116000" lon="-2.564493000">
        <ele>452.80</ele>
        <time>2017-02-11T09:23:13Z</time>
      </trkpt>
      <trkpt lat="42.450084000" lon="-2.564500000">
        <ele>452.80</ele>
        <time>2017-02-11T09:23:14Z</time>
      </trkpt>
      <trkpt lat="42.450052000" lon="-2.564505000">
        <ele>452.70</ele>
        <time>2017-02-11T09:23:15Z</time>
      </trkpt>
      <trkpt lat="42.450022000" lon="-2.564510000">
        <ele>452.70</ele>
        <time>2017-02-11T09:23:16Z</time>
      </trkpt>
      <trkpt lat="42.449992000" lon="-2.564515000">
        <ele>452.70</ele>
        <time>2017-02-11T09:23:17Z</time>
      </trkpt>
      <trkpt lat="42.449959000" lon="-2.564515000">
        <ele>452.70</ele>
        <time>2017-02-11T09:23:18Z</time>
      </trkpt>
      <trkpt lat="42.449927000" lon="-2.564520000">
        <ele>452.70</ele>
        <time>2017-02-11T09:23:19Z</time>
      </trkpt>
      <trkpt lat="42.449895000" lon="-2.564523000">
        <ele>452.70</ele>
        <time>2017-02-11T09:23:20Z</time>
      </trkpt>
      <trkpt lat="42.449861000" lon="-2.564525000">
        <ele>452.70</ele>
        <time>2017-02-11T09:23:21Z</time>
      </trkpt>
      <trkpt lat="42.449826000" lon="-2.564530000">
        <ele>452.70</ele>
        <time>2017-02-11T09:23:22Z</time>
      </trkpt>
      <trkpt lat="42.449791000" lon="-2.564534000">
        <ele>452.90</ele>
        <time>2017-02-11T09:23:23Z</time>
      </trkpt>
      <trkpt lat="42.449757000" lon="-2.564540000">
        <ele>453.00</ele>
        <time>2017-02-11T09:23:24Z</time>
      </trkpt>
      <trkpt lat="42.449719000" lon="-2.564543000">
        <ele>453.20</ele>
        <time>2017-02-11T09:23:25Z</time>
      </trkpt>
      <trkpt lat="42.449682000" lon="-2.564549000">
        <ele>453.30</ele>
        <time>2017-02-11T09:23:26Z</time>
      </trkpt>
      <trkpt lat="42.449645000" lon="-2.564554000">
        <ele>453.50</ele>
        <time>2017-02-11T09:23:27Z</time>
      </trkpt>
      <trkpt lat="42.449606000" lon="-2.564559000">
        <ele>453.60</ele>
        <time>2017-02-11T09:23:28Z</time>
      </trkpt>
      <trkpt lat="42.449569000" lon="-2.564564000">
        <ele>453.70</ele>
        <time>2017-02-11T09:23:29Z</time>
      </trkpt>
      <trkpt lat="42.449533000" lon="-2.564571000">
        <ele>453.80</ele>
        <time>2017-02-11T09:23:30Z</time>
      </trkpt>
      <trkpt lat="42.449499000" lon="-2.564574000">
        <ele>453.80</ele>
        <time>2017-02-11T09:23:31Z</time>
      </trkpt>
      <trkpt lat="42.449468000" lon="-2.564578000">
        <ele>453.90</ele>
        <time>2017-02-11T09:23:32Z</time>
      </trkpt>
      <trkpt lat="42.449432000" lon="-2.564585000">
        <ele>453.90</ele>
        <time>2017-02-11T09:23:33Z</time>
      </trkpt>
      <trkpt lat="42.449396000" lon="-2.564592000">
        <ele>453.90</ele>
        <time>2017-02-11T09:23:34Z</time>
      </trkpt>
      <trkpt lat="42.449363000" lon="-2.564595000">
        <ele>454.00</ele>
        <time>2017-02-11T09:23:35Z</time>
      </trkpt>
      <trkpt lat="42.449326000" lon="-2.564596000">
        <ele>454.10</ele>
        <time>2017-02-11T09:23:36Z</time>
      </trkpt>
      <trkpt lat="42.449290000" lon="-2.564602000">
        <ele>454.10</ele>
        <time>2017-02-11T09:23:37Z</time>
      </trkpt>
      <trkpt lat="42.449255000" lon="-2.564611000">
        <ele>454.10</ele>
        <time>2017-02-11T09:23:38Z</time>
      </trkpt>
      <trkpt lat="42.449219000" lon="-2.564619000">
        <ele>454.20</ele>
        <time>2017-02-11T09:23:39Z</time>
      </trkpt>
      <trkpt lat="42.449185000" lon="-2.564629000">
        <ele>454.30</ele>
        <time>2017-02-11T09:23:40Z</time>
      </trkpt>
      <trkpt lat="42.449152000" lon="-2.564631000">
        <ele>454.40</ele>
        <time>2017-02-11T09:23:41Z</time>
      </trkpt>
      <trkpt lat="42.449121000" lon="-2.564637000">
        <ele>454.40</ele>
        <time>2017-02-11T09:23:42Z</time>
      </trkpt>
      <trkpt lat="42.449086000" lon="-2.564641000">
        <ele>454.50</ele>
        <time>2017-02-11T09:23:43Z</time>
      </trkpt>
      <trkpt lat="42.449055000" lon="-2.564642000">
        <ele>454.50</ele>
        <time>2017-02-11T09:23:44Z</time>
      </trkpt>
      <trkpt lat="42.449023000" lon="-2.564643000">
        <ele>454.60</ele>
        <time>2017-02-11T09:23:45Z</time>
      </trkpt>
      <trkpt lat="42.448992000" lon="-2.564642000">
        <ele>454.70</ele>
        <time>2017-02-11T09:23:46Z</time>
      </trkpt>
      <trkpt lat="42.448933000" lon="-2.564628000">
        <ele>455.00</ele>
        <time>2017-02-11T09:23:48Z</time>
      </trkpt>
      <trkpt lat="42.448904000" lon="-2.564623000">
        <ele>455.10</ele>
        <time>2017-02-11T09:23:49Z</time>
      </trkpt>
      <trkpt lat="42.448874000" lon="-2.564616000">
        <ele>455.20</ele>
        <time>2017-02-11T09:23:50Z</time>
      </trkpt>
      <trkpt lat="42.448844000" lon="-2.564611000">
        <ele>455.30</ele>
        <time>2017-02-11T09:23:51Z</time>
      </trkpt>
      <trkpt lat="42.448812000" lon="-2.564608000">
        <ele>455.30</ele>
        <time>2017-02-11T09:23:52Z</time>
      </trkpt>
      <trkpt lat="42.448782000" lon="-2.564605000">
        <ele>455.30</ele>
        <time>2017-02-11T09:23:53Z</time>
      </trkpt>
      <trkpt lat="42.448750000" lon="-2.564603000">
        <ele>455.40</ele>
        <time>2017-02-11T09:23:54Z</time>
      </trkpt>
      <trkpt lat="42.448719000" lon="-2.564601000">
        <ele>455.40</ele>
        <time>2017-02-11T09:23:55Z</time>
      </trkpt>
      <trkpt lat="42.448689000" lon="-2.564598000">
        <ele>455.50</ele>
        <time>2017-02-11T09:23:56Z</time>
      </trkpt>
      <trkpt lat="42.448658000" lon="-2.564595000">
        <ele>455.50</ele>
        <time>2017-02-11T09:23:57Z</time>
      </trkpt>
      <trkpt lat="42.448628000" lon="-2.564592000">
        <ele>455.50</ele>
        <time>2017-02-11T09:23:58Z</time>
      </trkpt>
      <trkpt lat="42.448600000" lon="-2.564595000">
        <ele>455.40</ele>
        <time>2017-02-11T09:23:59Z</time>
      </trkpt>
      <trkpt lat="42.448572000" lon="-2.564592000">
        <ele>455.50</ele>
        <time>2017-02-11T09:24:00Z</time>
      </trkpt>
      <trkpt lat="42.448545000" lon="-2.564588000">
        <ele>455.50</ele>
        <time>2017-02-11T09:24:01Z</time>
      </trkpt>
      <trkpt lat="42.448520000" lon="-2.564583000">
        <ele>455.50</ele>
        <time>2017-02-11T09:24:02Z</time>
      </trkpt>
      <trkpt lat="42.448495000" lon="-2.564577000">
        <ele>455.50</ele>
        <time>2017-02-11T09:24:03Z</time>
      </trkpt>
      <trkpt lat="42.448470000" lon="-2.564575000">
        <ele>455.50</ele>
        <time>2017-02-11T09:24:04Z</time>
      </trkpt>
      <trkpt lat="42.448450000" lon="-2.564572000">
        <ele>455.50</ele>
        <time>2017-02-11T09:24:05Z</time>
      </trkpt>
      <trkpt lat="42.448432000" lon="-2.564570000">
        <ele>455.50</ele>
        <time>2017-02-11T09:24:06Z</time>
      </trkpt>
      <trkpt lat="42.448411000" lon="-2.564568000">
        <ele>455.50</ele>
        <time>2017-02-11T09:24:07Z</time>
      </trkpt>
      <trkpt lat="42.448385000" lon="-2.564562000">
        <ele>455.70</ele>
        <time>2017-02-11T09:24:08Z</time>
      </trkpt>
      <trkpt lat="42.448357000" lon="-2.564560000">
        <ele>455.80</ele>
        <time>2017-02-11T09:24:09Z</time>
      </trkpt>
      <trkpt lat="42.448331000" lon="-2.564559000">
        <ele>455.90</ele>
        <time>2017-02-11T09:24:10Z</time>
      </trkpt>
      <trkpt lat="42.448306000" lon="-2.564559000">
        <ele>456.00</ele>
        <time>2017-02-11T09:24:11Z</time>
      </trkpt>
      <trkpt lat="42.448280000" lon="-2.564559000">
        <ele>456.10</ele>
        <time>2017-02-11T09:24:12Z</time>
      </trkpt>
      <trkpt lat="42.448250000" lon="-2.564553000">
        <ele>456.10</ele>
        <time>2017-02-11T09:24:13Z</time>
      </trkpt>
      <trkpt lat="42.448221000" lon="-2.564549000">
        <ele>456.30</ele>
        <time>2017-02-11T09:24:14Z</time>
      </trkpt>
      <trkpt lat="42.448189000" lon="-2.564551000">
        <ele>456.50</ele>
        <time>2017-02-11T09:24:15Z</time>
      </trkpt>
      <trkpt lat="42.448160000" lon="-2.564550000">
        <ele>456.60</ele>
        <time>2017-02-11T09:24:16Z</time>
      </trkpt>
      <trkpt lat="42.448130000" lon="-2.564550000">
        <ele>456.70</ele>
        <time>2017-02-11T09:24:17Z</time>
      </trkpt>
      <trkpt lat="42.448103000" lon="-2.564547000">
        <ele>456.70</ele>
        <time>2017-02-11T09:24:18Z</time>
      </trkpt>
      <trkpt lat="42.448076000" lon="-2.564544000">
        <ele>456.60</ele>
        <time>2017-02-11T09:24:19Z</time>
      </trkpt>
      <trkpt lat="42.448049000" lon="-2.564538000">
        <ele>456.60</ele>
        <time>2017-02-11T09:24:20Z</time>
      </trkpt>
      <trkpt lat="42.448022000" lon="-2.564532000">
        <ele>456.60</ele>
        <time>2017-02-11T09:24:21Z</time>
      </trkpt>
      <trkpt lat="42.447999000" lon="-2.564521000">
        <ele>456.60</ele>
        <time>2017-02-11T09:24:22Z</time>
      </trkpt>
      <trkpt lat="42.447974000" lon="-2.564509000">
        <ele>456.70</ele>
        <time>2017-02-11T09:24:23Z</time>
      </trkpt>
      <trkpt lat="42.447950000" lon="-2.564501000">
        <ele>456.70</ele>
        <time>2017-02-11T09:24:24Z</time>
      </trkpt>
      <trkpt lat="42.447929000" lon="-2.564493000">
        <ele>456.70</ele>
        <time>2017-02-11T09:24:25Z</time>
      </trkpt>
      <trkpt lat="42.447906000" lon="-2.564486000">
        <ele>456.70</ele>
        <time>2017-02-11T09:24:26Z</time>
      </trkpt>
      <trkpt lat="42.447885000" lon="-2.564481000">
        <ele>456.70</ele>
        <time>2017-02-11T09:24:27Z</time>
      </trkpt>
      <trkpt lat="42.447862000" lon="-2.564480000">
        <ele>456.80</ele>
        <time>2017-02-11T09:24:28Z</time>
      </trkpt>
      <trkpt lat="42.447840000" lon="-2.564475000">
        <ele>456.90</ele>
        <time>2017-02-11T09:24:29Z</time>
      </trkpt>
      <trkpt lat="42.447816000" lon="-2.564472000">
        <ele>457.00</ele>
        <time>2017-02-11T09:24:30Z</time>
      </trkpt>
      <trkpt lat="42.447793000" lon="-2.564472000">
        <ele>457.20</ele>
        <time>2017-02-11T09:24:31Z</time>
      </trkpt>
      <trkpt lat="42.447771000" lon="-2.564471000">
        <ele>457.30</ele>
        <time>2017-02-11T09:24:32Z</time>
      </trkpt>
      <trkpt lat="42.447749000" lon="-2.564471000">
        <ele>457.30</ele>
        <time>2017-02-11T09:24:33Z</time>
      </trkpt>
      <trkpt lat="42.447730000" lon="-2.564476000">
        <ele>457.40</ele>
        <time>2017-02-11T09:24:34Z</time>
      </trkpt>
      <trkpt lat="42.447713000" lon="-2.564481000">
        <ele>457.40</ele>
        <time>2017-02-11T09:24:35Z</time>
      </trkpt>
      <trkpt lat="42.447701000" lon="-2.564487000">
        <ele>457.70</ele>
        <time>2017-02-11T09:24:36Z</time>
      </trkpt>
      <trkpt lat="42.447687000" lon="-2.564489000">
        <ele>457.90</ele>
        <time>2017-02-11T09:24:37Z</time>
      </trkpt>
      <trkpt lat="42.447673000" lon="-2.564495000">
        <ele>458.10</ele>
        <time>2017-02-11T09:24:38Z</time>
      </trkpt>
      <trkpt lat="42.447665000" lon="-2.564509000">
        <ele>458.20</ele>
        <time>2017-02-11T09:24:39Z</time>
      </trkpt>
      <trkpt lat="42.447658000" lon="-2.564524000">
        <ele>458.20</ele>
        <time>2017-02-11T09:24:40Z</time>
      </trkpt>
      <trkpt lat="42.447649000" lon="-2.564537000">
        <ele>458.30</ele>
        <time>2017-02-11T09:24:41Z</time>
      </trkpt>
      <trkpt lat="42.447646000" lon="-2.564557000">
        <ele>458.40</ele>
        <time>2017-02-11T09:24:42Z</time>
      </trkpt>
      <trkpt lat="42.447646000" lon="-2.564576000">
        <ele>458.40</ele>
        <time>2017-02-11T09:24:43Z</time>
      </trkpt>
      <trkpt lat="42.447647000" lon="-2.564594000">
        <ele>458.40</ele>
        <time>2017-02-11T09:24:44Z</time>
      </trkpt>
      <trkpt lat="42.447644000" lon="-2.564611000">
        <ele>458.40</ele>
        <time>2017-02-11T09:24:45Z</time>
      </trkpt>
      <trkpt lat="42.447644000" lon="-2.564631000">
        <ele>458.50</ele>
        <time>2017-02-11T09:24:46Z</time>
      </trkpt>
      <trkpt lat="42.447649000" lon="-2.564652000">
        <ele>458.60</ele>
        <time>2017-02-11T09:24:47Z</time>
      </trkpt>
      <trkpt lat="42.447664000" lon="-2.564700000">
        <ele>458.70</ele>
        <time>2017-02-11T09:24:49Z</time>
      </trkpt>
      <trkpt lat="42.447671000" lon="-2.564723000">
        <ele>458.70</ele>
        <time>2017-02-11T09:24:50Z</time>
      </trkpt>
      <trkpt lat="42.447679000" lon="-2.564746000">
        <ele>458.70</ele>
        <time>2017-02-11T09:24:51Z</time>
      </trkpt>
      <trkpt lat="42.447689000" lon="-2.564769000">
        <ele>458.70</ele>
        <time>2017-02-11T09:24:52Z</time>
      </trkpt>
      <trkpt lat="42.447698000" lon="-2.564792000">
        <ele>458.80</ele>
        <time>2017-02-11T09:24:53Z</time>
      </trkpt>
      <trkpt lat="42.447709000" lon="-2.564819000">
        <ele>458.80</ele>
        <time>2017-02-11T09:24:54Z</time>
      </trkpt>
      <trkpt lat="42.447722000" lon="-2.564840000">
        <ele>458.80</ele>
        <time>2017-02-11T09:24:55Z</time>
      </trkpt>
      <trkpt lat="42.447726000" lon="-2.564867000">
        <ele>458.90</ele>
        <time>2017-02-11T09:24:56Z</time>
      </trkpt>
      <trkpt lat="42.447734000" lon="-2.564895000">
        <ele>458.90</ele>
        <time>2017-02-11T09:24:57Z</time>
      </trkpt>
      <trkpt lat="42.447743000" lon="-2.564925000">
        <ele>458.90</ele>
        <time>2017-02-11T09:24:58Z</time>
      </trkpt>
      <trkpt lat="42.447752000" lon="-2.564953000">
        <ele>458.90</ele>
        <time>2017-02-11T09:24:59Z</time>
      </trkpt>
      <trkpt lat="42.447761000" lon="-2.564985000">
        <ele>458.80</ele>
        <time>2017-02-11T09:25:00Z</time>
      </trkpt>
      <trkpt lat="42.447770000" lon="-2.565015000">
        <ele>458.80</ele>
        <time>2017-02-11T09:25:01Z</time>
      </trkpt>
      <trkpt lat="42.447781000" lon="-2.565049000">
        <ele>458.70</ele>
        <time>2017-02-11T09:25:02Z</time>
      </trkpt>
      <trkpt lat="42.447792000" lon="-2.565079000">
        <ele>458.70</ele>
        <time>2017-02-11T09:25:03Z</time>
      </trkpt>
      <trkpt lat="42.447804000" lon="-2.565107000">
        <ele>458.70</ele>
        <time>2017-02-11T09:25:04Z</time>
      </trkpt>
      <trkpt lat="42.447816000" lon="-2.565130000">
        <ele>458.60</ele>
        <time>2017-02-11T09:25:05Z</time>
      </trkpt>
      <trkpt lat="42.447823000" lon="-2.565151000">
        <ele>458.60</ele>
        <time>2017-02-11T09:25:06Z</time>
      </trkpt>
      <trkpt lat="42.447831000" lon="-2.565177000">
        <ele>458.60</ele>
        <time>2017-02-11T09:25:07Z</time>
      </trkpt>
      <trkpt lat="42.447838000" lon="-2.565202000">
        <ele>458.70</ele>
        <time>2017-02-11T09:25:08Z</time>
      </trkpt>
      <trkpt lat="42.447846000" lon="-2.565231000">
        <ele>458.70</ele>
        <time>2017-02-11T09:25:09Z</time>
      </trkpt>
      <trkpt lat="42.447858000" lon="-2.565262000">
        <ele>458.80</ele>
        <time>2017-02-11T09:25:10Z</time>
      </trkpt>
      <trkpt lat="42.447869000" lon="-2.565288000">
        <ele>458.90</ele>
        <time>2017-02-11T09:25:11Z</time>
      </trkpt>
      <trkpt lat="42.447879000" lon="-2.565316000">
        <ele>458.90</ele>
        <time>2017-02-11T09:25:12Z</time>
      </trkpt>
      <trkpt lat="42.447892000" lon="-2.565343000">
        <ele>459.00</ele>
        <time>2017-02-11T09:25:13Z</time>
      </trkpt>
      <trkpt lat="42.447903000" lon="-2.565366000">
        <ele>459.00</ele>
        <time>2017-02-11T09:25:14Z</time>
      </trkpt>
      <trkpt lat="42.447913000" lon="-2.565388000">
        <ele>459.00</ele>
        <time>2017-02-11T09:25:15Z</time>
      </trkpt>
      <trkpt lat="42.447918000" lon="-2.565413000">
        <ele>459.10</ele>
        <time>2017-02-11T09:25:16Z</time>
      </trkpt>
      <trkpt lat="42.447926000" lon="-2.565435000">
        <ele>459.10</ele>
        <time>2017-02-11T09:25:17Z</time>
      </trkpt>
      <trkpt lat="42.447925000" lon="-2.565462000">
        <ele>459.20</ele>
        <time>2017-02-11T09:25:18Z</time>
      </trkpt>
      <trkpt lat="42.447924000" lon="-2.565485000">
        <ele>459.20</ele>
        <time>2017-02-11T09:25:19Z</time>
      </trkpt>
      <trkpt lat="42.447925000" lon="-2.565513000">
        <ele>459.20</ele>
        <time>2017-02-11T09:25:20Z</time>
      </trkpt>
      <trkpt lat="42.447929000" lon="-2.565540000">
        <ele>459.30</ele>
        <time>2017-02-11T09:25:21Z</time>
      </trkpt>
      <trkpt lat="42.447931000" lon="-2.565567000">
        <ele>459.30</ele>
        <time>2017-02-11T09:25:22Z</time>
      </trkpt>
      <trkpt lat="42.447937000" lon="-2.565595000">
        <ele>459.30</ele>
        <time>2017-02-11T09:25:23Z</time>
      </trkpt>
      <trkpt lat="42.447951000" lon="-2.565616000">
        <ele>459.30</ele>
        <time>2017-02-11T09:25:24Z</time>
      </trkpt>
      <trkpt lat="42.447961000" lon="-2.565637000">
        <ele>459.20</ele>
        <time>2017-02-11T09:25:25Z</time>
      </trkpt>
      <trkpt lat="42.447973000" lon="-2.565653000">
        <ele>459.30</ele>
        <time>2017-02-11T09:25:26Z</time>
      </trkpt>
      <trkpt lat="42.447984000" lon="-2.565665000">
        <ele>459.40</ele>
        <time>2017-02-11T09:25:27Z</time>
      </trkpt>
      <trkpt lat="42.447994000" lon="-2.565679000">
        <ele>459.50</ele>
        <time>2017-02-11T09:25:28Z</time>
      </trkpt>
      <trkpt lat="42.447998000" lon="-2.565700000">
        <ele>459.50</ele>
        <time>2017-02-11T09:25:29Z</time>
      </trkpt>
      <trkpt lat="42.448000000" lon="-2.565707000">
        <ele>459.50</ele>
        <time>2017-02-11T09:25:30Z</time>
      </trkpt>
      <trkpt lat="42.448003000" lon="-2.565708000">
        <ele>459.60</ele>
        <time>2017-02-11T09:25:31Z</time>
      </trkpt>
      <trkpt lat="42.448002000" lon="-2.565709000">
        <ele>459.70</ele>
        <time>2017-02-11T09:25:32Z</time>
      </trkpt>
      <trkpt lat="42.448005000" lon="-2.565717000">
        <ele>459.80</ele>
        <time>2017-02-11T09:25:33Z</time>
      </trkpt>
      <trkpt lat="42.448009000" lon="-2.565725000">
        <ele>460.00</ele>
        <time>2017-02-11T09:25:34Z</time>
      </trkpt>
      <trkpt lat="42.448011000" lon="-2.565736000">
        <ele>460.00</ele>
        <time>2017-02-11T09:25:35Z</time>
      </trkpt>
      <trkpt lat="42.448011000" lon="-2.565750000">
        <ele>460.10</ele>
        <time>2017-02-11T09:25:36Z</time>
      </trkpt>
      <trkpt lat="42.448014000" lon="-2.565773000">
        <ele>460.20</ele>
        <time>2017-02-11T09:25:37Z</time>
      </trkpt>
      <trkpt lat="42.448013000" lon="-2.565800000">
        <ele>460.30</ele>
        <time>2017-02-11T09:25:38Z</time>
      </trkpt>
      <trkpt lat="42.448005000" lon="-2.565823000">
        <ele>460.30</ele>
        <time>2017-02-11T09:25:39Z</time>
      </trkpt>
      <trkpt lat="42.447993000" lon="-2.565842000">
        <ele>460.30</ele>
        <time>2017-02-11T09:25:40Z</time>
      </trkpt>
      <trkpt lat="42.447978000" lon="-2.565859000">
        <ele>460.20</ele>
        <time>2017-02-11T09:25:41Z</time>
      </trkpt>
      <trkpt lat="42.447962000" lon="-2.565878000">
        <ele>460.20</ele>
        <time>2017-02-11T09:25:42Z</time>
      </trkpt>
      <trkpt lat="42.447941000" lon="-2.565894000">
        <ele>460.20</ele>
        <time>2017-02-11T09:25:43Z</time>
      </trkpt>
      <trkpt lat="42.447921000" lon="-2.565913000">
        <ele>460.30</ele>
        <time>2017-02-11T09:25:44Z</time>
      </trkpt>
      <trkpt lat="42.447899000" lon="-2.565933000">
        <ele>460.30</ele>
        <time>2017-02-11T09:25:45Z</time>
      </trkpt>
      <trkpt lat="42.447871000" lon="-2.565950000">
        <ele>460.30</ele>
        <time>2017-02-11T09:25:46Z</time>
      </trkpt>
      <trkpt lat="42.447847000" lon="-2.565971000">
        <ele>460.40</ele>
        <time>2017-02-11T09:25:47Z</time>
      </trkpt>
      <trkpt lat="42.447822000" lon="-2.565993000">
        <ele>460.40</ele>
        <time>2017-02-11T09:25:48Z</time>
      </trkpt>
      <trkpt lat="42.447774000" lon="-2.566040000">
        <ele>460.40</ele>
        <time>2017-02-11T09:25:50Z</time>
      </trkpt>
      <trkpt lat="42.447754000" lon="-2.566059000">
        <ele>460.40</ele>
        <time>2017-02-11T09:25:51Z</time>
      </trkpt>
      <trkpt lat="42.447734000" lon="-2.566075000">
        <ele>460.50</ele>
        <time>2017-02-11T09:25:52Z</time>
      </trkpt>
      <trkpt lat="42.447717000" lon="-2.566095000">
        <ele>460.60</ele>
        <time>2017-02-11T09:25:53Z</time>
      </trkpt>
      <trkpt lat="42.447703000" lon="-2.566119000">
        <ele>460.80</ele>
        <time>2017-02-11T09:25:54Z</time>
      </trkpt>
      <trkpt lat="42.447679000" lon="-2.566149000">
        <ele>460.90</ele>
        <time>2017-02-11T09:25:55Z</time>
      </trkpt>
      <trkpt lat="42.447639000" lon="-2.566177000">
        <ele>461.00</ele>
        <time>2017-02-11T09:25:56Z</time>
      </trkpt>
      <trkpt lat="42.447605000" lon="-2.566212000">
        <ele>461.10</ele>
        <time>2017-02-11T09:25:57Z</time>
      </trkpt>
      <trkpt lat="42.447573000" lon="-2.566244000">
        <ele>461.20</ele>
        <time>2017-02-11T09:25:58Z</time>
      </trkpt>
      <trkpt lat="42.447542000" lon="-2.566273000">
        <ele>461.30</ele>
        <time>2017-02-11T09:25:59Z</time>
      </trkpt>
      <trkpt lat="42.447515000" lon="-2.566300000">
        <ele>461.30</ele>
        <time>2017-02-11T09:26:00Z</time>
      </trkpt>
      <trkpt lat="42.447487000" lon="-2.566328000">
        <ele>461.40</ele>
        <time>2017-02-11T09:26:01Z</time>
      </trkpt>
      <trkpt lat="42.447457000" lon="-2.566359000">
        <ele>461.40</ele>
        <time>2017-02-11T09:26:02Z</time>
      </trkpt>
      <trkpt lat="42.447428000" lon="-2.566387000">
        <ele>461.40</ele>
        <time>2017-02-11T09:26:03Z</time>
      </trkpt>
      <trkpt lat="42.447400000" lon="-2.566415000">
        <ele>461.40</ele>
        <time>2017-02-11T09:26:04Z</time>
      </trkpt>
      <trkpt lat="42.447373000" lon="-2.566443000">
        <ele>461.40</ele>
        <time>2017-02-11T09:26:05Z</time>
      </trkpt>
      <trkpt lat="42.447345000" lon="-2.566470000">
        <ele>461.50</ele>
        <time>2017-02-11T09:26:06Z</time>
      </trkpt>
      <trkpt lat="42.447319000" lon="-2.566500000">
        <ele>461.60</ele>
        <time>2017-02-11T09:26:07Z</time>
      </trkpt>
      <trkpt lat="42.447291000" lon="-2.566532000">
        <ele>461.70</ele>
        <time>2017-02-11T09:26:08Z</time>
      </trkpt>
      <trkpt lat="42.447264000" lon="-2.566565000">
        <ele>461.70</ele>
        <time>2017-02-11T09:26:09Z</time>
      </trkpt>
      <trkpt lat="42.447238000" lon="-2.566599000">
        <ele>461.80</ele>
        <time>2017-02-11T09:26:10Z</time>
      </trkpt>
      <trkpt lat="42.447211000" lon="-2.566634000">
        <ele>461.80</ele>
        <time>2017-02-11T09:26:11Z</time>
      </trkpt>
      <trkpt lat="42.447183000" lon="-2.566671000">
        <ele>461.80</ele>
        <time>2017-02-11T09:26:12Z</time>
      </trkpt>
      <trkpt lat="42.447154000" lon="-2.566709000">
        <ele>461.90</ele>
        <time>2017-02-11T09:26:13Z</time>
      </trkpt>
      <trkpt lat="42.447125000" lon="-2.566747000">
        <ele>462.00</ele>
        <time>2017-02-11T09:26:14Z</time>
      </trkpt>
      <trkpt lat="42.447096000" lon="-2.566787000">
        <ele>462.20</ele>
        <time>2017-02-11T09:26:15Z</time>
      </trkpt>
      <trkpt lat="42.447066000" lon="-2.566827000">
        <ele>462.30</ele>
        <time>2017-02-11T09:26:16Z</time>
      </trkpt>
      <trkpt lat="42.447038000" lon="-2.566866000">
        <ele>462.50</ele>
        <time>2017-02-11T09:26:17Z</time>
      </trkpt>
      <trkpt lat="42.447008000" lon="-2.566905000">
        <ele>462.70</ele>
        <time>2017-02-11T09:26:18Z</time>
      </trkpt>
      <trkpt lat="42.446979000" lon="-2.566942000">
        <ele>462.90</ele>
        <time>2017-02-11T09:26:19Z</time>
      </trkpt>
      <trkpt lat="42.446950000" lon="-2.566976000">
        <ele>463.00</ele>
        <time>2017-02-11T09:26:20Z</time>
      </trkpt>
      <trkpt lat="42.446925000" lon="-2.567012000">
        <ele>463.10</ele>
        <time>2017-02-11T09:26:21Z</time>
      </trkpt>
      <trkpt lat="42.446894000" lon="-2.567041000">
        <ele>463.20</ele>
        <time>2017-02-11T09:26:22Z</time>
      </trkpt>
      <trkpt lat="42.446871000" lon="-2.567078000">
        <ele>463.20</ele>
        <time>2017-02-11T09:26:23Z</time>
      </trkpt>
      <trkpt lat="42.446849000" lon="-2.567118000">
        <ele>463.30</ele>
        <time>2017-02-11T09:26:24Z</time>
      </trkpt>
      <trkpt lat="42.446822000" lon="-2.567150000">
        <ele>463.30</ele>
        <time>2017-02-11T09:26:25Z</time>
      </trkpt>
      <trkpt lat="42.446792000" lon="-2.567185000">
        <ele>463.50</ele>
        <time>2017-02-11T09:26:26Z</time>
      </trkpt>
      <trkpt lat="42.446760000" lon="-2.567224000">
        <ele>463.70</ele>
        <time>2017-02-11T09:26:27Z</time>
      </trkpt>
      <trkpt lat="42.446730000" lon="-2.567263000">
        <ele>463.80</ele>
        <time>2017-02-11T09:26:28Z</time>
      </trkpt>
      <trkpt lat="42.446704000" lon="-2.567305000">
        <ele>463.90</ele>
        <time>2017-02-11T09:26:29Z</time>
      </trkpt>
      <trkpt lat="42.446679000" lon="-2.567343000">
        <ele>464.00</ele>
        <time>2017-02-11T09:26:30Z</time>
      </trkpt>
      <trkpt lat="42.446651000" lon="-2.567381000">
        <ele>464.00</ele>
        <time>2017-02-11T09:26:31Z</time>
      </trkpt>
      <trkpt lat="42.446625000" lon="-2.567415000">
        <ele>464.00</ele>
        <time>2017-02-11T09:26:32Z</time>
      </trkpt>
      <trkpt lat="42.446599000" lon="-2.567452000">
        <ele>464.10</ele>
        <time>2017-02-11T09:26:33Z</time>
      </trkpt>
      <trkpt lat="42.446577000" lon="-2.567489000">
        <ele>464.10</ele>
        <time>2017-02-11T09:26:34Z</time>
      </trkpt>
      <trkpt lat="42.446558000" lon="-2.567530000">
        <ele>464.10</ele>
        <time>2017-02-11T09:26:35Z</time>
      </trkpt>
      <trkpt lat="42.446539000" lon="-2.567565000">
        <ele>464.10</ele>
        <time>2017-02-11T09:26:36Z</time>
      </trkpt>
      <trkpt lat="42.446520000" lon="-2.567596000">
        <ele>464.00</ele>
        <time>2017-02-11T09:26:37Z</time>
      </trkpt>
      <trkpt lat="42.446503000" lon="-2.567628000">
        <ele>464.00</ele>
        <time>2017-02-11T09:26:38Z</time>
      </trkpt>
      <trkpt lat="42.446485000" lon="-2.567660000">
        <ele>464.00</ele>
        <time>2017-02-11T09:26:39Z</time>
      </trkpt>
      <trkpt lat="42.446469000" lon="-2.567695000">
        <ele>464.10</ele>
        <time>2017-02-11T09:26:40Z</time>
      </trkpt>
      <trkpt lat="42.446454000" lon="-2.567725000">
        <ele>464.20</ele>
        <time>2017-02-11T09:26:41Z</time>
      </trkpt>
      <trkpt lat="42.446437000" lon="-2.567758000">
        <ele>464.30</ele>
        <time>2017-02-11T09:26:42Z</time>
      </trkpt>
      <trkpt lat="42.446421000" lon="-2.567788000">
        <ele>464.40</ele>
        <time>2017-02-11T09:26:43Z</time>
      </trkpt>
      <trkpt lat="42.446400000" lon="-2.567821000">
        <ele>464.40</ele>
        <time>2017-02-11T09:26:44Z</time>
      </trkpt>
      <trkpt lat="42.446375000" lon="-2.567854000">
        <ele>464.40</ele>
        <time>2017-02-11T09:26:45Z</time>
      </trkpt>
      <trkpt lat="42.446343000" lon="-2.567866000">
        <ele>464.40</ele>
        <time>2017-02-11T09:26:46Z</time>
      </trkpt>
      <trkpt lat="42.446316000" lon="-2.567854000">
        <ele>464.40</ele>
        <time>2017-02-11T09:26:47Z</time>
      </trkpt>
      <trkpt lat="42.446291000" lon="-2.567835000">
        <ele>464.70</ele>
        <time>2017-02-11T09:26:48Z</time>
      </trkpt>
      <trkpt lat="42.446274000" lon="-2.567797000">
        <ele>464.90</ele>
        <time>2017-02-11T09:26:49Z</time>
      </trkpt>
      <trkpt lat="42.446281000" lon="-2.567693000">
        <ele>465.30</ele>
        <time>2017-02-11T09:26:51Z</time>
      </trkpt>
      <trkpt lat="42.446292000" lon="-2.567637000">
        <ele>465.00</ele>
        <time>2017-02-11T09:26:52Z</time>
      </trkpt>
      <trkpt lat="42.446306000" lon="-2.567581000">
        <ele>464.90</ele>
        <time>2017-02-11T09:26:53Z</time>
      </trkpt>
      <trkpt lat="42.446322000" lon="-2.567521000">
        <ele>464.70</ele>
        <time>2017-02-11T09:26:54Z</time>
      </trkpt>
      <trkpt lat="42.446332000" lon="-2.567456000">
        <ele>464.60</ele>
        <time>2017-02-11T09:26:55Z</time>
      </trkpt>
      <trkpt lat="42.446336000" lon="-2.567391000">
        <ele>464.50</ele>
        <time>2017-02-11T09:26:56Z</time>
      </trkpt>
      <trkpt lat="42.446332000" lon="-2.567323000">
        <ele>464.50</ele>
        <time>2017-02-11T09:26:57Z</time>
      </trkpt>
      <trkpt lat="42.446321000" lon="-2.567255000">
        <ele>464.30</ele>
        <time>2017-02-11T09:26:58Z</time>
      </trkpt>
      <trkpt lat="42.446308000" lon="-2.567193000">
        <ele>464.10</ele>
        <time>2017-02-11T09:26:59Z</time>
      </trkpt>
      <trkpt lat="42.446287000" lon="-2.567134000">
        <ele>464.10</ele>
        <time>2017-02-11T09:27:00Z</time>
      </trkpt>
      <trkpt lat="42.446265000" lon="-2.567078000">
        <ele>464.10</ele>
        <time>2017-02-11T09:27:01Z</time>
      </trkpt>
      <trkpt lat="42.446240000" lon="-2.567027000">
        <ele>464.10</ele>
        <time>2017-02-11T09:27:02Z</time>
      </trkpt>
      <trkpt lat="42.446216000" lon="-2.566978000">
        <ele>464.00</ele>
        <time>2017-02-11T09:27:03Z</time>
      </trkpt>
      <trkpt lat="42.446193000" lon="-2.566932000">
        <ele>464.10</ele>
        <time>2017-02-11T09:27:04Z</time>
      </trkpt>
      <trkpt lat="42.446165000" lon="-2.566888000">
        <ele>464.10</ele>
        <time>2017-02-11T09:27:05Z</time>
      </trkpt>
      <trkpt lat="42.446133000" lon="-2.566842000">
        <ele>464.00</ele>
        <time>2017-02-11T09:27:06Z</time>
      </trkpt>
      <trkpt lat="42.446096000" lon="-2.566795000">
        <ele>464.00</ele>
        <time>2017-02-11T09:27:07Z</time>
      </trkpt>
      <trkpt lat="42.446057000" lon="-2.566747000">
        <ele>464.00</ele>
        <time>2017-02-11T09:27:08Z</time>
      </trkpt>
      <trkpt lat="42.446020000" lon="-2.566701000">
        <ele>464.00</ele>
        <time>2017-02-11T09:27:09Z</time>
      </trkpt>
      <trkpt lat="42.445986000" lon="-2.566655000">
        <ele>463.90</ele>
        <time>2017-02-11T09:27:10Z</time>
      </trkpt>
      <trkpt lat="42.445953000" lon="-2.566609000">
        <ele>463.70</ele>
        <time>2017-02-11T09:27:11Z</time>
      </trkpt>
      <trkpt lat="42.445923000" lon="-2.566563000">
        <ele>463.70</ele>
        <time>2017-02-11T09:27:12Z</time>
      </trkpt>
      <trkpt lat="42.445893000" lon="-2.566513000">
        <ele>463.60</ele>
        <time>2017-02-11T09:27:13Z</time>
      </trkpt>
      <trkpt lat="42.445861000" lon="-2.566466000">
        <ele>463.50</ele>
        <time>2017-02-11T09:27:14Z</time>
      </trkpt>
      <trkpt lat="42.445828000" lon="-2.566423000">
        <ele>463.40</ele>
        <time>2017-02-11T09:27:15Z</time>
      </trkpt>
      <trkpt lat="42.445794000" lon="-2.566378000">
        <ele>463.10</ele>
        <time>2017-02-11T09:27:16Z</time>
      </trkpt>
      <trkpt lat="42.445759000" lon="-2.566341000">
        <ele>462.90</ele>
        <time>2017-02-11T09:27:17Z</time>
      </trkpt>
      <trkpt lat="42.445723000" lon="-2.566307000">
        <ele>462.80</ele>
        <time>2017-02-11T09:27:18Z</time>
      </trkpt>
      <trkpt lat="42.445684000" lon="-2.566277000">
        <ele>462.70</ele>
        <time>2017-02-11T09:27:19Z</time>
      </trkpt>
      <trkpt lat="42.445649000" lon="-2.566245000">
        <ele>462.60</ele>
        <time>2017-02-11T09:27:20Z</time>
      </trkpt>
      <trkpt lat="42.445611000" lon="-2.566209000">
        <ele>462.50</ele>
        <time>2017-02-11T09:27:21Z</time>
      </trkpt>
      <trkpt lat="42.445575000" lon="-2.566168000">
        <ele>462.50</ele>
        <time>2017-02-11T09:27:22Z</time>
      </trkpt>
      <trkpt lat="42.445539000" lon="-2.566127000">
        <ele>462.40</ele>
        <time>2017-02-11T09:27:23Z</time>
      </trkpt>
      <trkpt lat="42.445506000" lon="-2.566082000">
        <ele>462.40</ele>
        <time>2017-02-11T09:27:24Z</time>
      </trkpt>
      <trkpt lat="42.445474000" lon="-2.566035000">
        <ele>462.40</ele>
        <time>2017-02-11T09:27:25Z</time>
      </trkpt>
      <trkpt lat="42.445446000" lon="-2.565987000">
        <ele>462.50</ele>
        <time>2017-02-11T09:27:26Z</time>
      </trkpt>
      <trkpt lat="42.445419000" lon="-2.565941000">
        <ele>462.60</ele>
        <time>2017-02-11T09:27:27Z</time>
      </trkpt>
      <trkpt lat="42.445396000" lon="-2.565892000">
        <ele>462.90</ele>
        <time>2017-02-11T09:27:28Z</time>
      </trkpt>
      <trkpt lat="42.445372000" lon="-2.565843000">
        <ele>463.10</ele>
        <time>2017-02-11T09:27:29Z</time>
      </trkpt>
      <trkpt lat="42.445349000" lon="-2.565792000">
        <ele>463.30</ele>
        <time>2017-02-11T09:27:30Z</time>
      </trkpt>
      <trkpt lat="42.445325000" lon="-2.565743000">
        <ele>463.40</ele>
        <time>2017-02-11T09:27:31Z</time>
      </trkpt>
      <trkpt lat="42.445304000" lon="-2.565692000">
        <ele>463.40</ele>
        <time>2017-02-11T09:27:32Z</time>
      </trkpt>
      <trkpt lat="42.445280000" lon="-2.565643000">
        <ele>463.40</ele>
        <time>2017-02-11T09:27:33Z</time>
      </trkpt>
      <trkpt lat="42.445262000" lon="-2.565592000">
        <ele>463.20</ele>
        <time>2017-02-11T09:27:34Z</time>
      </trkpt>
      <trkpt lat="42.445241000" lon="-2.565542000">
        <ele>463.10</ele>
        <time>2017-02-11T09:27:35Z</time>
      </trkpt>
      <trkpt lat="42.445219000" lon="-2.565491000">
        <ele>463.00</ele>
        <time>2017-02-11T09:27:36Z</time>
      </trkpt>
      <trkpt lat="42.445199000" lon="-2.565440000">
        <ele>463.00</ele>
        <time>2017-02-11T09:27:37Z</time>
      </trkpt>
      <trkpt lat="42.445176000" lon="-2.565388000">
        <ele>462.90</ele>
        <time>2017-02-11T09:27:38Z</time>
      </trkpt>
      <trkpt lat="42.445152000" lon="-2.565336000">
        <ele>462.90</ele>
        <time>2017-02-11T09:27:39Z</time>
      </trkpt>
      <trkpt lat="42.445128000" lon="-2.565281000">
        <ele>462.70</ele>
        <time>2017-02-11T09:27:40Z</time>
      </trkpt>
      <trkpt lat="42.445102000" lon="-2.565223000">
        <ele>462.60</ele>
        <time>2017-02-11T09:27:41Z</time>
      </trkpt>
      <trkpt lat="42.445075000" lon="-2.565166000">
        <ele>462.80</ele>
        <time>2017-02-11T09:27:42Z</time>
      </trkpt>
      <trkpt lat="42.445053000" lon="-2.565109000">
        <ele>462.90</ele>
        <time>2017-02-11T09:27:43Z</time>
      </trkpt>
      <trkpt lat="42.445031000" lon="-2.565053000">
        <ele>462.70</ele>
        <time>2017-02-11T09:27:44Z</time>
      </trkpt>
      <trkpt lat="42.445010000" lon="-2.565000000">
        <ele>462.60</ele>
        <time>2017-02-11T09:27:45Z</time>
      </trkpt>
      <trkpt lat="42.444991000" lon="-2.564948000">
        <ele>462.60</ele>
        <time>2017-02-11T09:27:46Z</time>
      </trkpt>
      <trkpt lat="42.444971000" lon="-2.564897000">
        <ele>462.60</ele>
        <time>2017-02-11T09:27:47Z</time>
      </trkpt>
      <trkpt lat="42.444954000" lon="-2.564845000">
        <ele>462.50</ele>
        <time>2017-02-11T09:27:48Z</time>
      </trkpt>
      <trkpt lat="42.444937000" lon="-2.564791000">
        <ele>462.40</ele>
        <time>2017-02-11T09:27:49Z</time>
      </trkpt>
      <trkpt lat="42.444922000" lon="-2.564738000">
        <ele>462.40</ele>
        <time>2017-02-11T09:27:50Z</time>
      </trkpt>
      <trkpt lat="42.444895000" lon="-2.564629000">
        <ele>462.30</ele>
        <time>2017-02-11T09:27:52Z</time>
      </trkpt>
      <trkpt lat="42.444883000" lon="-2.564572000">
        <ele>462.30</ele>
        <time>2017-02-11T09:27:53Z</time>
      </trkpt>
      <trkpt lat="42.444871000" lon="-2.564514000">
        <ele>462.30</ele>
        <time>2017-02-11T09:27:54Z</time>
      </trkpt>
      <trkpt lat="42.444857000" lon="-2.564457000">
        <ele>462.30</ele>
        <time>2017-02-11T09:27:55Z</time>
      </trkpt>
      <trkpt lat="42.444848000" lon="-2.564398000">
        <ele>462.30</ele>
        <time>2017-02-11T09:27:56Z</time>
      </trkpt>
      <trkpt lat="42.444839000" lon="-2.564341000">
        <ele>462.30</ele>
        <time>2017-02-11T09:27:57Z</time>
      </trkpt>
      <trkpt lat="42.444832000" lon="-2.564282000">
        <ele>462.40</ele>
        <time>2017-02-11T09:27:58Z</time>
      </trkpt>
      <trkpt lat="42.444825000" lon="-2.564222000">
        <ele>462.40</ele>
        <time>2017-02-11T09:27:59Z</time>
      </trkpt>
      <trkpt lat="42.444819000" lon="-2.564164000">
        <ele>462.60</ele>
        <time>2017-02-11T09:28:00Z</time>
      </trkpt>
      <trkpt lat="42.444814000" lon="-2.564111000">
        <ele>462.80</ele>
        <time>2017-02-11T09:28:01Z</time>
      </trkpt>
      <trkpt lat="42.444810000" lon="-2.564058000">
        <ele>463.00</ele>
        <time>2017-02-11T09:28:02Z</time>
      </trkpt>
      <trkpt lat="42.444805000" lon="-2.564004000">
        <ele>463.20</ele>
        <time>2017-02-11T09:28:03Z</time>
      </trkpt>
      <trkpt lat="42.444798000" lon="-2.563954000">
        <ele>463.30</ele>
        <time>2017-02-11T09:28:04Z</time>
      </trkpt>
      <trkpt lat="42.444797000" lon="-2.563902000">
        <ele>463.40</ele>
        <time>2017-02-11T09:28:05Z</time>
      </trkpt>
      <trkpt lat="42.444794000" lon="-2.563848000">
        <ele>463.50</ele>
        <time>2017-02-11T09:28:06Z</time>
      </trkpt>
      <trkpt lat="42.444794000" lon="-2.563796000">
        <ele>463.60</ele>
        <time>2017-02-11T09:28:07Z</time>
      </trkpt>
      <trkpt lat="42.444794000" lon="-2.563741000">
        <ele>463.60</ele>
        <time>2017-02-11T09:28:08Z</time>
      </trkpt>
      <trkpt lat="42.444796000" lon="-2.563686000">
        <ele>463.60</ele>
        <time>2017-02-11T09:28:09Z</time>
      </trkpt>
      <trkpt lat="42.444797000" lon="-2.563632000">
        <ele>463.60</ele>
        <time>2017-02-11T09:28:10Z</time>
      </trkpt>
      <trkpt lat="42.444798000" lon="-2.563574000">
        <ele>463.60</ele>
        <time>2017-02-11T09:28:11Z</time>
      </trkpt>
      <trkpt lat="42.444799000" lon="-2.563518000">
        <ele>463.50</ele>
        <time>2017-02-11T09:28:12Z</time>
      </trkpt>
      <trkpt lat="42.444805000" lon="-2.563462000">
        <ele>463.50</ele>
        <time>2017-02-11T09:28:13Z</time>
      </trkpt>
      <trkpt lat="42.444811000" lon="-2.563408000">
        <ele>463.60</ele>
        <time>2017-02-11T09:28:14Z</time>
      </trkpt>
      <trkpt lat="42.444814000" lon="-2.563353000">
        <ele>463.60</ele>
        <time>2017-02-11T09:28:15Z</time>
      </trkpt>
      <trkpt lat="42.444818000" lon="-2.563299000">
        <ele>463.60</ele>
        <time>2017-02-11T09:28:16Z</time>
      </trkpt>
      <trkpt lat="42.444824000" lon="-2.563247000">
        <ele>463.70</ele>
        <time>2017-02-11T09:28:17Z</time>
      </trkpt>
      <trkpt lat="42.444831000" lon="-2.563193000">
        <ele>463.60</ele>
        <time>2017-02-11T09:28:18Z</time>
      </trkpt>
      <trkpt lat="42.444836000" lon="-2.563140000">
        <ele>463.50</ele>
        <time>2017-02-11T09:28:19Z</time>
      </trkpt>
      <trkpt lat="42.444843000" lon="-2.563087000">
        <ele>463.50</ele>
        <time>2017-02-11T09:28:20Z</time>
      </trkpt>
      <trkpt lat="42.444852000" lon="-2.563033000">
        <ele>463.50</ele>
        <time>2017-02-11T09:28:21Z</time>
      </trkpt>
      <trkpt lat="42.444861000" lon="-2.562977000">
        <ele>463.40</ele>
        <time>2017-02-11T09:28:22Z</time>
      </trkpt>
      <trkpt lat="42.444873000" lon="-2.562925000">
        <ele>463.40</ele>
        <time>2017-02-11T09:28:23Z</time>
      </trkpt>
      <trkpt lat="42.444883000" lon="-2.562873000">
        <ele>463.40</ele>
        <time>2017-02-11T09:28:24Z</time>
      </trkpt>
      <trkpt lat="42.444894000" lon="-2.562820000">
        <ele>463.40</ele>
        <time>2017-02-11T09:28:25Z</time>
      </trkpt>
      <trkpt lat="42.444905000" lon="-2.562772000">
        <ele>463.40</ele>
        <time>2017-02-11T09:28:26Z</time>
      </trkpt>
      <trkpt lat="42.444918000" lon="-2.562721000">
        <ele>463.40</ele>
        <time>2017-02-11T09:28:27Z</time>
      </trkpt>
      <trkpt lat="42.444933000" lon="-2.562672000">
        <ele>463.40</ele>
        <time>2017-02-11T09:28:28Z</time>
      </trkpt>
      <trkpt lat="42.444948000" lon="-2.562623000">
        <ele>463.40</ele>
        <time>2017-02-11T09:28:29Z</time>
      </trkpt>
      <trkpt lat="42.444962000" lon="-2.562571000">
        <ele>463.30</ele>
        <time>2017-02-11T09:28:30Z</time>
      </trkpt>
      <trkpt lat="42.444974000" lon="-2.562521000">
        <ele>463.30</ele>
        <time>2017-02-11T09:28:31Z</time>
      </trkpt>
      <trkpt lat="42.444987000" lon="-2.562467000">
        <ele>463.30</ele>
        <time>2017-02-11T09:28:32Z</time>
      </trkpt>
      <trkpt lat="42.445001000" lon="-2.562408000">
        <ele>463.30</ele>
        <time>2017-02-11T09:28:33Z</time>
      </trkpt>
      <trkpt lat="42.445014000" lon="-2.562345000">
        <ele>463.30</ele>
        <time>2017-02-11T09:28:34Z</time>
      </trkpt>
      <trkpt lat="42.445024000" lon="-2.562284000">
        <ele>463.30</ele>
        <time>2017-02-11T09:28:35Z</time>
      </trkpt>
      <trkpt lat="42.445040000" lon="-2.562223000">
        <ele>463.40</ele>
        <time>2017-02-11T09:28:36Z</time>
      </trkpt>
      <trkpt lat="42.445054000" lon="-2.562156000">
        <ele>463.40</ele>
        <time>2017-02-11T09:28:37Z</time>
      </trkpt>
      <trkpt lat="42.445069000" lon="-2.562092000">
        <ele>463.00</ele>
        <time>2017-02-11T09:28:38Z</time>
      </trkpt>
      <trkpt lat="42.445083000" lon="-2.562031000">
        <ele>462.80</ele>
        <time>2017-02-11T09:28:39Z</time>
      </trkpt>
      <trkpt lat="42.445097000" lon="-2.561970000">
        <ele>462.60</ele>
        <time>2017-02-11T09:28:40Z</time>
      </trkpt>
      <trkpt lat="42.445110000" lon="-2.561909000">
        <ele>462.50</ele>
        <time>2017-02-11T09:28:41Z</time>
      </trkpt>
      <trkpt lat="42.445121000" lon="-2.561853000">
        <ele>462.40</ele>
        <time>2017-02-11T09:28:42Z</time>
      </trkpt>
      <trkpt lat="42.445131000" lon="-2.561797000">
        <ele>462.40</ele>
        <time>2017-02-11T09:28:43Z</time>
      </trkpt>
      <trkpt lat="42.445140000" lon="-2.561740000">
        <ele>462.30</ele>
        <time>2017-02-11T09:28:44Z</time>
      </trkpt>
      <trkpt lat="42.445146000" lon="-2.561686000">
        <ele>462.30</ele>
        <time>2017-02-11T09:28:45Z</time>
      </trkpt>
      <trkpt lat="42.445151000" lon="-2.561625000">
        <ele>462.20</ele>
        <time>2017-02-11T09:28:46Z</time>
      </trkpt>
      <trkpt lat="42.445154000" lon="-2.561568000">
        <ele>462.20</ele>
        <time>2017-02-11T09:28:47Z</time>
      </trkpt>
      <trkpt lat="42.445158000" lon="-2.561513000">
        <ele>462.10</ele>
        <time>2017-02-11T09:28:48Z</time>
      </trkpt>
      <trkpt lat="42.445154000" lon="-2.561461000">
        <ele>462.10</ele>
        <time>2017-02-11T09:28:49Z</time>
      </trkpt>
      <trkpt lat="42.445151000" lon="-2.561406000">
        <ele>462.40</ele>
        <time>2017-02-11T09:28:50Z</time>
      </trkpt>
      <trkpt lat="42.445143000" lon="-2.561354000">
        <ele>462.60</ele>
        <time>2017-02-11T09:28:51Z</time>
      </trkpt>
      <trkpt lat="42.445131000" lon="-2.561238000">
        <ele>462.90</ele>
        <time>2017-02-11T09:28:53Z</time>
      </trkpt>
      <trkpt lat="42.445121000" lon="-2.561177000">
        <ele>463.00</ele>
        <time>2017-02-11T09:28:54Z</time>
      </trkpt>
      <trkpt lat="42.445107000" lon="-2.561115000">
        <ele>463.10</ele>
        <time>2017-02-11T09:28:55Z</time>
      </trkpt>
      <trkpt lat="42.445092000" lon="-2.561058000">
        <ele>463.20</ele>
        <time>2017-02-11T09:28:56Z</time>
      </trkpt>
      <trkpt lat="42.445070000" lon="-2.561003000">
        <ele>463.30</ele>
        <time>2017-02-11T09:28:57Z</time>
      </trkpt>
      <trkpt lat="42.445048000" lon="-2.560954000">
        <ele>463.40</ele>
        <time>2017-02-11T09:28:58Z</time>
      </trkpt>
      <trkpt lat="42.445024000" lon="-2.560910000">
        <ele>463.40</ele>
        <time>2017-02-11T09:28:59Z</time>
      </trkpt>
      <trkpt lat="42.444998000" lon="-2.560871000">
        <ele>463.50</ele>
        <time>2017-02-11T09:29:00Z</time>
      </trkpt>
      <trkpt lat="42.444975000" lon="-2.560834000">
        <ele>463.50</ele>
        <time>2017-02-11T09:29:01Z</time>
      </trkpt>
      <trkpt lat="42.444953000" lon="-2.560803000">
        <ele>463.30</ele>
        <time>2017-02-11T09:29:02Z</time>
      </trkpt>
      <trkpt lat="42.444933000" lon="-2.560772000">
        <ele>463.20</ele>
        <time>2017-02-11T09:29:03Z</time>
      </trkpt>
      <trkpt lat="42.444910000" lon="-2.560736000">
        <ele>463.30</ele>
        <time>2017-02-11T09:29:04Z</time>
      </trkpt>
      <trkpt lat="42.444892000" lon="-2.560700000">
        <ele>463.40</ele>
        <time>2017-02-11T09:29:05Z</time>
      </trkpt>
      <trkpt lat="42.444873000" lon="-2.560670000">
        <ele>463.40</ele>
        <time>2017-02-11T09:29:06Z</time>
      </trkpt>
      <trkpt lat="42.444856000" lon="-2.560640000">
        <ele>463.30</ele>
        <time>2017-02-11T09:29:07Z</time>
      </trkpt>
      <trkpt lat="42.444842000" lon="-2.560611000">
        <ele>463.30</ele>
        <time>2017-02-11T09:29:08Z</time>
      </trkpt>
      <trkpt lat="42.444820000" lon="-2.560582000">
        <ele>463.30</ele>
        <time>2017-02-11T09:29:09Z</time>
      </trkpt>
      <trkpt lat="42.444800000" lon="-2.560547000">
        <ele>463.30</ele>
        <time>2017-02-11T09:29:10Z</time>
      </trkpt>
      <trkpt lat="42.444778000" lon="-2.560511000">
        <ele>463.20</ele>
        <time>2017-02-11T09:29:11Z</time>
      </trkpt>
      <trkpt lat="42.444756000" lon="-2.560475000">
        <ele>463.20</ele>
        <time>2017-02-11T09:29:12Z</time>
      </trkpt>
      <trkpt lat="42.444733000" lon="-2.560440000">
        <ele>463.20</ele>
        <time>2017-02-11T09:29:13Z</time>
      </trkpt>
      <trkpt lat="42.444709000" lon="-2.560403000">
        <ele>463.40</ele>
        <time>2017-02-11T09:29:14Z</time>
      </trkpt>
      <trkpt lat="42.444682000" lon="-2.560366000">
        <ele>463.40</ele>
        <time>2017-02-11T09:29:15Z</time>
      </trkpt>
      <trkpt lat="42.444659000" lon="-2.560329000">
        <ele>463.50</ele>
        <time>2017-02-11T09:29:16Z</time>
      </trkpt>
      <trkpt lat="42.444639000" lon="-2.560290000">
        <ele>463.60</ele>
        <time>2017-02-11T09:29:17Z</time>
      </trkpt>
      <trkpt lat="42.444620000" lon="-2.560251000">
        <ele>463.70</ele>
        <time>2017-02-11T09:29:18Z</time>
      </trkpt>
      <trkpt lat="42.444598000" lon="-2.560209000">
        <ele>463.70</ele>
        <time>2017-02-11T09:29:19Z</time>
      </trkpt>
      <trkpt lat="42.444577000" lon="-2.560170000">
        <ele>463.70</ele>
        <time>2017-02-11T09:29:20Z</time>
      </trkpt>
      <trkpt lat="42.444554000" lon="-2.560131000">
        <ele>463.70</ele>
        <time>2017-02-11T09:29:21Z</time>
      </trkpt>
      <trkpt lat="42.444532000" lon="-2.560093000">
        <ele>463.70</ele>
        <time>2017-02-11T09:29:22Z</time>
      </trkpt>
      <trkpt lat="42.444511000" lon="-2.560058000">
        <ele>463.60</ele>
        <time>2017-02-11T09:29:23Z</time>
      </trkpt>
      <trkpt lat="42.444487000" lon="-2.560026000">
        <ele>463.60</ele>
        <time>2017-02-11T09:29:24Z</time>
      </trkpt>
      <trkpt lat="42.444469000" lon="-2.559992000">
        <ele>463.60</ele>
        <time>2017-02-11T09:29:25Z</time>
      </trkpt>
      <trkpt lat="42.444451000" lon="-2.559962000">
        <ele>463.50</ele>
        <time>2017-02-11T09:29:26Z</time>
      </trkpt>
      <trkpt lat="42.444433000" lon="-2.559931000">
        <ele>463.50</ele>
        <time>2017-02-11T09:29:27Z</time>
      </trkpt>
      <trkpt lat="42.444414000" lon="-2.559904000">
        <ele>463.50</ele>
        <time>2017-02-11T09:29:28Z</time>
      </trkpt>
      <trkpt lat="42.444393000" lon="-2.559874000">
        <ele>463.50</ele>
        <time>2017-02-11T09:29:29Z</time>
      </trkpt>
      <trkpt lat="42.444376000" lon="-2.559842000">
        <ele>463.50</ele>
        <time>2017-02-11T09:29:30Z</time>
      </trkpt>
      <trkpt lat="42.444358000" lon="-2.559811000">
        <ele>463.40</ele>
        <time>2017-02-11T09:29:31Z</time>
      </trkpt>
      <trkpt lat="42.444340000" lon="-2.559782000">
        <ele>463.60</ele>
        <time>2017-02-11T09:29:32Z</time>
      </trkpt>
      <trkpt lat="42.444319000" lon="-2.559754000">
        <ele>463.60</ele>
        <time>2017-02-11T09:29:33Z</time>
      </trkpt>
      <trkpt lat="42.444301000" lon="-2.559722000">
        <ele>463.80</ele>
        <time>2017-02-11T09:29:34Z</time>
      </trkpt>
      <trkpt lat="42.444284000" lon="-2.559692000">
        <ele>463.90</ele>
        <time>2017-02-11T09:29:35Z</time>
      </trkpt>
      <trkpt lat="42.444263000" lon="-2.559662000">
        <ele>463.90</ele>
        <time>2017-02-11T09:29:36Z</time>
      </trkpt>
      <trkpt lat="42.444241000" lon="-2.559631000">
        <ele>464.00</ele>
        <time>2017-02-11T09:29:37Z</time>
      </trkpt>
      <trkpt lat="42.444221000" lon="-2.559601000">
        <ele>464.00</ele>
        <time>2017-02-11T09:29:38Z</time>
      </trkpt>
      <trkpt lat="42.444197000" lon="-2.559567000">
        <ele>464.10</ele>
        <time>2017-02-11T09:29:39Z</time>
      </trkpt>
      <trkpt lat="42.444172000" lon="-2.559536000">
        <ele>464.20</ele>
        <time>2017-02-11T09:29:40Z</time>
      </trkpt>
      <trkpt lat="42.444151000" lon="-2.559505000">
        <ele>464.30</ele>
        <time>2017-02-11T09:29:41Z</time>
      </trkpt>
      <trkpt lat="42.444129000" lon="-2.559477000">
        <ele>464.40</ele>
        <time>2017-02-11T09:29:42Z</time>
      </trkpt>
      <trkpt lat="42.444104000" lon="-2.559448000">
        <ele>464.50</ele>
        <time>2017-02-11T09:29:43Z</time>
      </trkpt>
      <trkpt lat="42.444078000" lon="-2.559416000">
        <ele>464.50</ele>
        <time>2017-02-11T09:29:44Z</time>
      </trkpt>
      <trkpt lat="42.444053000" lon="-2.559386000">
        <ele>464.60</ele>
        <time>2017-02-11T09:29:45Z</time>
      </trkpt>
      <trkpt lat="42.444027000" lon="-2.559355000">
        <ele>464.50</ele>
        <time>2017-02-11T09:29:46Z</time>
      </trkpt>
      <trkpt lat="42.444000000" lon="-2.559325000">
        <ele>464.40</ele>
        <time>2017-02-11T09:29:47Z</time>
      </trkpt>
      <trkpt lat="42.443972000" lon="-2.559293000">
        <ele>464.30</ele>
        <time>2017-02-11T09:29:48Z</time>
      </trkpt>
      <trkpt lat="42.443945000" lon="-2.559258000">
        <ele>464.30</ele>
        <time>2017-02-11T09:29:49Z</time>
      </trkpt>
      <trkpt lat="42.443919000" lon="-2.559229000">
        <ele>464.40</ele>
        <time>2017-02-11T09:29:50Z</time>
      </trkpt>
      <trkpt lat="42.443893000" lon="-2.559200000">
        <ele>464.40</ele>
        <time>2017-02-11T09:29:51Z</time>
      </trkpt>
      <trkpt lat="42.443866000" lon="-2.559168000">
        <ele>464.70</ele>
        <time>2017-02-11T09:29:52Z</time>
      </trkpt>
      <trkpt lat="42.443809000" lon="-2.559104000">
        <ele>465.00</ele>
        <time>2017-02-11T09:29:54Z</time>
      </trkpt>
      <trkpt lat="42.443779000" lon="-2.559074000">
        <ele>465.10</ele>
        <time>2017-02-11T09:29:55Z</time>
      </trkpt>
      <trkpt lat="42.443751000" lon="-2.559041000">
        <ele>465.20</ele>
        <time>2017-02-11T09:29:56Z</time>
      </trkpt>
      <trkpt lat="42.443720000" lon="-2.559014000">
        <ele>465.30</ele>
        <time>2017-02-11T09:29:57Z</time>
      </trkpt>
      <trkpt lat="42.443689000" lon="-2.558983000">
        <ele>465.30</ele>
        <time>2017-02-11T09:29:58Z</time>
      </trkpt>
      <trkpt lat="42.443660000" lon="-2.558952000">
        <ele>465.20</ele>
        <time>2017-02-11T09:29:59Z</time>
      </trkpt>
      <trkpt lat="42.443632000" lon="-2.558923000">
        <ele>465.20</ele>
        <time>2017-02-11T09:30:00Z</time>
      </trkpt>
      <trkpt lat="42.443602000" lon="-2.558891000">
        <ele>465.20</ele>
        <time>2017-02-11T09:30:01Z</time>
      </trkpt>
      <trkpt lat="42.443573000" lon="-2.558862000">
        <ele>465.10</ele>
        <time>2017-02-11T09:30:02Z</time>
      </trkpt>
      <trkpt lat="42.443548000" lon="-2.558827000">
        <ele>465.00</ele>
        <time>2017-02-11T09:30:03Z</time>
      </trkpt>
      <trkpt lat="42.443523000" lon="-2.558794000">
        <ele>465.00</ele>
        <time>2017-02-11T09:30:04Z</time>
      </trkpt>
      <trkpt lat="42.443499000" lon="-2.558757000">
        <ele>465.00</ele>
        <time>2017-02-11T09:30:05Z</time>
      </trkpt>
      <trkpt lat="42.443475000" lon="-2.558722000">
        <ele>464.90</ele>
        <time>2017-02-11T09:30:06Z</time>
      </trkpt>
      <trkpt lat="42.443454000" lon="-2.558685000">
        <ele>464.80</ele>
        <time>2017-02-11T09:30:07Z</time>
      </trkpt>
      <trkpt lat="42.443432000" lon="-2.558646000">
        <ele>465.10</ele>
        <time>2017-02-11T09:30:08Z</time>
      </trkpt>
      <trkpt lat="42.443409000" lon="-2.558606000">
        <ele>465.30</ele>
        <time>2017-02-11T09:30:09Z</time>
      </trkpt>
      <trkpt lat="42.443385000" lon="-2.558566000">
        <ele>465.30</ele>
        <time>2017-02-11T09:30:10Z</time>
      </trkpt>
      <trkpt lat="42.443362000" lon="-2.558525000">
        <ele>465.30</ele>
        <time>2017-02-11T09:30:11Z</time>
      </trkpt>
      <trkpt lat="42.443337000" lon="-2.558484000">
        <ele>465.30</ele>
        <time>2017-02-11T09:30:12Z</time>
      </trkpt>
      <trkpt lat="42.443310000" lon="-2.558447000">
        <ele>465.30</ele>
        <time>2017-02-11T09:30:13Z</time>
      </trkpt>
      <trkpt lat="42.443284000" lon="-2.558404000">
        <ele>465.40</ele>
        <time>2017-02-11T09:30:14Z</time>
      </trkpt>
      <trkpt lat="42.443257000" lon="-2.558361000">
        <ele>465.40</ele>
        <time>2017-02-11T09:30:15Z</time>
      </trkpt>
      <trkpt lat="42.443229000" lon="-2.558323000">
        <ele>465.50</ele>
        <time>2017-02-11T09:30:16Z</time>
      </trkpt>
      <trkpt lat="42.443197000" lon="-2.558286000">
        <ele>465.60</ele>
        <time>2017-02-11T09:30:17Z</time>
      </trkpt>
      <trkpt lat="42.443165000" lon="-2.558250000">
        <ele>465.60</ele>
        <time>2017-02-11T09:30:18Z</time>
      </trkpt>
      <trkpt lat="42.443135000" lon="-2.558211000">
        <ele>465.70</ele>
        <time>2017-02-11T09:30:19Z</time>
      </trkpt>
      <trkpt lat="42.443107000" lon="-2.558175000">
        <ele>465.50</ele>
        <time>2017-02-11T09:30:20Z</time>
      </trkpt>
      <trkpt lat="42.443079000" lon="-2.558141000">
        <ele>465.40</ele>
        <time>2017-02-11T09:30:21Z</time>
      </trkpt>
      <trkpt lat="42.443051000" lon="-2.558112000">
        <ele>465.30</ele>
        <time>2017-02-11T09:30:22Z</time>
      </trkpt>
      <trkpt lat="42.443025000" lon="-2.558081000">
        <ele>465.30</ele>
        <time>2017-02-11T09:30:23Z</time>
      </trkpt>
      <trkpt lat="42.443000000" lon="-2.558049000">
        <ele>465.20</ele>
        <time>2017-02-11T09:30:24Z</time>
      </trkpt>
      <trkpt lat="42.442974000" lon="-2.558015000">
        <ele>465.10</ele>
        <time>2017-02-11T09:30:25Z</time>
      </trkpt>
      <trkpt lat="42.442947000" lon="-2.557982000">
        <ele>465.10</ele>
        <time>2017-02-11T09:30:26Z</time>
      </trkpt>
      <trkpt lat="42.442920000" lon="-2.557949000">
        <ele>465.10</ele>
        <time>2017-02-11T09:30:27Z</time>
      </trkpt>
      <trkpt lat="42.442890000" lon="-2.557914000">
        <ele>465.00</ele>
        <time>2017-02-11T09:30:28Z</time>
      </trkpt>
      <trkpt lat="42.442860000" lon="-2.557880000">
        <ele>465.00</ele>
        <time>2017-02-11T09:30:29Z</time>
      </trkpt>
      <trkpt lat="42.442830000" lon="-2.557847000">
        <ele>464.90</ele>
        <time>2017-02-11T09:30:30Z</time>
      </trkpt>
      <trkpt lat="42.442799000" lon="-2.557816000">
        <ele>464.80</ele>
        <time>2017-02-11T09:30:31Z</time>
      </trkpt>
      <trkpt lat="42.442770000" lon="-2.557779000">
        <ele>464.70</ele>
        <time>2017-02-11T09:30:32Z</time>
      </trkpt>
      <trkpt lat="42.442743000" lon="-2.557748000">
        <ele>464.70</ele>
        <time>2017-02-11T09:30:33Z</time>
      </trkpt>
      <trkpt lat="42.442712000" lon="-2.557717000">
        <ele>464.70</ele>
        <time>2017-02-11T09:30:34Z</time>
      </trkpt>
      <trkpt lat="42.442686000" lon="-2.557690000">
        <ele>464.70</ele>
        <time>2017-02-11T09:30:35Z</time>
      </trkpt>
      <trkpt lat="42.442665000" lon="-2.557661000">
        <ele>464.70</ele>
        <time>2017-02-11T09:30:36Z</time>
      </trkpt>
      <trkpt lat="42.442641000" lon="-2.557632000">
        <ele>464.70</ele>
        <time>2017-02-11T09:30:37Z</time>
      </trkpt>
      <trkpt lat="42.442616000" lon="-2.557606000">
        <ele>464.70</ele>
        <time>2017-02-11T09:30:38Z</time>
      </trkpt>
      <trkpt lat="42.442592000" lon="-2.557575000">
        <ele>464.70</ele>
        <time>2017-02-11T09:30:39Z</time>
      </trkpt>
      <trkpt lat="42.442562000" lon="-2.557544000">
        <ele>465.10</ele>
        <time>2017-02-11T09:30:40Z</time>
      </trkpt>
      <trkpt lat="42.442535000" lon="-2.557516000">
        <ele>465.40</ele>
        <time>2017-02-11T09:30:41Z</time>
      </trkpt>
      <trkpt lat="42.442506000" lon="-2.557483000">
        <ele>465.60</ele>
        <time>2017-02-11T09:30:42Z</time>
      </trkpt>
      <trkpt lat="42.442474000" lon="-2.557451000">
        <ele>465.80</ele>
        <time>2017-02-11T09:30:43Z</time>
      </trkpt>
      <trkpt lat="42.442444000" lon="-2.557421000">
        <ele>465.70</ele>
        <time>2017-02-11T09:30:44Z</time>
      </trkpt>
      <trkpt lat="42.442410000" lon="-2.557387000">
        <ele>465.60</ele>
        <time>2017-02-11T09:30:45Z</time>
      </trkpt>
      <trkpt lat="42.442378000" lon="-2.557352000">
        <ele>465.50</ele>
        <time>2017-02-11T09:30:46Z</time>
      </trkpt>
      <trkpt lat="42.442344000" lon="-2.557319000">
        <ele>465.40</ele>
        <time>2017-02-11T09:30:47Z</time>
      </trkpt>
      <trkpt lat="42.442313000" lon="-2.557287000">
        <ele>465.50</ele>
        <time>2017-02-11T09:30:48Z</time>
      </trkpt>
      <trkpt lat="42.442280000" lon="-2.557253000">
        <ele>465.60</ele>
        <time>2017-02-11T09:30:49Z</time>
      </trkpt>
      <trkpt lat="42.442249000" lon="-2.557224000">
        <ele>465.70</ele>
        <time>2017-02-11T09:30:50Z</time>
      </trkpt>
      <trkpt lat="42.442217000" lon="-2.557196000">
        <ele>465.80</ele>
        <time>2017-02-11T09:30:51Z</time>
      </trkpt>
      <trkpt lat="42.442185000" lon="-2.557166000">
        <ele>465.90</ele>
        <time>2017-02-11T09:30:52Z</time>
      </trkpt>
      <trkpt lat="42.442158000" lon="-2.557141000">
        <ele>465.90</ele>
        <time>2017-02-11T09:30:53Z</time>
      </trkpt>
      <trkpt lat="42.442108000" lon="-2.557087000">
        <ele>466.00</ele>
        <time>2017-02-11T09:30:55Z</time>
      </trkpt>
      <trkpt lat="42.442081000" lon="-2.557055000">
        <ele>465.90</ele>
        <time>2017-02-11T09:30:56Z</time>
      </trkpt>
      <trkpt lat="42.442051000" lon="-2.557023000">
        <ele>465.80</ele>
        <time>2017-02-11T09:30:57Z</time>
      </trkpt>
      <trkpt lat="42.442023000" lon="-2.556989000">
        <ele>465.70</ele>
        <time>2017-02-11T09:30:58Z</time>
      </trkpt>
      <trkpt lat="42.441993000" lon="-2.556959000">
        <ele>465.70</ele>
        <time>2017-02-11T09:30:59Z</time>
      </trkpt>
      <trkpt lat="42.441962000" lon="-2.556932000">
        <ele>465.70</ele>
        <time>2017-02-11T09:31:00Z</time>
      </trkpt>
      <trkpt lat="42.441931000" lon="-2.556908000">
        <ele>465.60</ele>
        <time>2017-02-11T09:31:01Z</time>
      </trkpt>
      <trkpt lat="42.441902000" lon="-2.556880000">
        <ele>465.70</ele>
        <time>2017-02-11T09:31:02Z</time>
      </trkpt>
      <trkpt lat="42.441871000" lon="-2.556849000">
        <ele>465.70</ele>
        <time>2017-02-11T09:31:03Z</time>
      </trkpt>
      <trkpt lat="42.441842000" lon="-2.556817000">
        <ele>465.70</ele>
        <time>2017-02-11T09:31:04Z</time>
      </trkpt>
      <trkpt lat="42.441810000" lon="-2.556785000">
        <ele>465.70</ele>
        <time>2017-02-11T09:31:05Z</time>
      </trkpt>
      <trkpt lat="42.441777000" lon="-2.556755000">
        <ele>465.90</ele>
        <time>2017-02-11T09:31:06Z</time>
      </trkpt>
      <trkpt lat="42.441747000" lon="-2.556728000">
        <ele>466.10</ele>
        <time>2017-02-11T09:31:07Z</time>
      </trkpt>
      <trkpt lat="42.441715000" lon="-2.556699000">
        <ele>466.30</ele>
        <time>2017-02-11T09:31:08Z</time>
      </trkpt>
      <trkpt lat="42.441684000" lon="-2.556670000">
        <ele>466.40</ele>
        <time>2017-02-11T09:31:09Z</time>
      </trkpt>
      <trkpt lat="42.441651000" lon="-2.556641000">
        <ele>466.20</ele>
        <time>2017-02-11T09:31:10Z</time>
      </trkpt>
      <trkpt lat="42.441619000" lon="-2.556611000">
        <ele>466.10</ele>
        <time>2017-02-11T09:31:11Z</time>
      </trkpt>
      <trkpt lat="42.441587000" lon="-2.556584000">
        <ele>466.00</ele>
        <time>2017-02-11T09:31:12Z</time>
      </trkpt>
      <trkpt lat="42.441554000" lon="-2.556559000">
        <ele>465.90</ele>
        <time>2017-02-11T09:31:13Z</time>
      </trkpt>
      <trkpt lat="42.441523000" lon="-2.556532000">
        <ele>466.40</ele>
        <time>2017-02-11T09:31:14Z</time>
      </trkpt>
      <trkpt lat="42.441493000" lon="-2.556505000">
        <ele>466.70</ele>
        <time>2017-02-11T09:31:15Z</time>
      </trkpt>
      <trkpt lat="42.441463000" lon="-2.556473000">
        <ele>466.90</ele>
        <time>2017-02-11T09:31:16Z</time>
      </trkpt>
      <trkpt lat="42.441432000" lon="-2.556443000">
        <ele>467.10</ele>
        <time>2017-02-11T09:31:17Z</time>
      </trkpt>
      <trkpt lat="42.441397000" lon="-2.556414000">
        <ele>467.10</ele>
        <time>2017-02-11T09:31:18Z</time>
      </trkpt>
      <trkpt lat="42.441365000" lon="-2.556382000">
        <ele>467.10</ele>
        <time>2017-02-11T09:31:19Z</time>
      </trkpt>
      <trkpt lat="42.441336000" lon="-2.556354000">
        <ele>467.00</ele>
        <time>2017-02-11T09:31:20Z</time>
      </trkpt>
      <trkpt lat="42.441304000" lon="-2.556330000">
        <ele>466.90</ele>
        <time>2017-02-11T09:31:21Z</time>
      </trkpt>
      <trkpt lat="42.441272000" lon="-2.556302000">
        <ele>467.00</ele>
        <time>2017-02-11T09:31:22Z</time>
      </trkpt>
      <trkpt lat="42.441243000" lon="-2.556273000">
        <ele>467.10</ele>
        <time>2017-02-11T09:31:23Z</time>
      </trkpt>
      <trkpt lat="42.441214000" lon="-2.556244000">
        <ele>467.20</ele>
        <time>2017-02-11T09:31:24Z</time>
      </trkpt>
      <trkpt lat="42.441184000" lon="-2.556218000">
        <ele>467.30</ele>
        <time>2017-02-11T09:31:25Z</time>
      </trkpt>
      <trkpt lat="42.441156000" lon="-2.556189000">
        <ele>467.50</ele>
        <time>2017-02-11T09:31:26Z</time>
      </trkpt>
      <trkpt lat="42.441125000" lon="-2.556161000">
        <ele>467.60</ele>
        <time>2017-02-11T09:31:27Z</time>
      </trkpt>
      <trkpt lat="42.441094000" lon="-2.556133000">
        <ele>467.60</ele>
        <time>2017-02-11T09:31:28Z</time>
      </trkpt>
      <trkpt lat="42.441064000" lon="-2.556103000">
        <ele>467.60</ele>
        <time>2017-02-11T09:31:29Z</time>
      </trkpt>
      <trkpt lat="42.441032000" lon="-2.556072000">
        <ele>467.40</ele>
        <time>2017-02-11T09:31:30Z</time>
      </trkpt>
      <trkpt lat="42.441000000" lon="-2.556040000">
        <ele>467.30</ele>
        <time>2017-02-11T09:31:31Z</time>
      </trkpt>
      <trkpt lat="42.440968000" lon="-2.556007000">
        <ele>467.10</ele>
        <time>2017-02-11T09:31:32Z</time>
      </trkpt>
      <trkpt lat="42.440936000" lon="-2.555975000">
        <ele>467.00</ele>
        <time>2017-02-11T09:31:33Z</time>
      </trkpt>
      <trkpt lat="42.440904000" lon="-2.555944000">
        <ele>466.90</ele>
        <time>2017-02-11T09:31:34Z</time>
      </trkpt>
      <trkpt lat="42.440870000" lon="-2.555911000">
        <ele>466.80</ele>
        <time>2017-02-11T09:31:35Z</time>
      </trkpt>
      <trkpt lat="42.440839000" lon="-2.555878000">
        <ele>466.60</ele>
        <time>2017-02-11T09:31:36Z</time>
      </trkpt>
      <trkpt lat="42.440803000" lon="-2.555852000">
        <ele>466.40</ele>
        <time>2017-02-11T09:31:37Z</time>
      </trkpt>
      <trkpt lat="42.440768000" lon="-2.555827000">
        <ele>466.50</ele>
        <time>2017-02-11T09:31:38Z</time>
      </trkpt>
      <trkpt lat="42.440732000" lon="-2.555813000">
        <ele>466.50</ele>
        <time>2017-02-11T09:31:39Z</time>
      </trkpt>
      <trkpt lat="42.440693000" lon="-2.555806000">
        <ele>466.60</ele>
        <time>2017-02-11T09:31:40Z</time>
      </trkpt>
      <trkpt lat="42.440652000" lon="-2.555806000">
        <ele>466.70</ele>
        <time>2017-02-11T09:31:41Z</time>
      </trkpt>
      <trkpt lat="42.440613000" lon="-2.555809000">
        <ele>466.80</ele>
        <time>2017-02-11T09:31:42Z</time>
      </trkpt>
      <trkpt lat="42.440573000" lon="-2.555806000">
        <ele>466.90</ele>
        <time>2017-02-11T09:31:43Z</time>
      </trkpt>
      <trkpt lat="42.440533000" lon="-2.555795000">
        <ele>466.90</ele>
        <time>2017-02-11T09:31:44Z</time>
      </trkpt>
      <trkpt lat="42.440495000" lon="-2.555788000">
        <ele>467.00</ele>
        <time>2017-02-11T09:31:45Z</time>
      </trkpt>
      <trkpt lat="42.440459000" lon="-2.555789000">
        <ele>467.00</ele>
        <time>2017-02-11T09:31:46Z</time>
      </trkpt>
      <trkpt lat="42.440428000" lon="-2.555792000">
        <ele>467.00</ele>
        <time>2017-02-11T09:31:47Z</time>
      </trkpt>
      <trkpt lat="42.440398000" lon="-2.555804000">
        <ele>467.00</ele>
        <time>2017-02-11T09:31:48Z</time>
      </trkpt>
      <trkpt lat="42.440367000" lon="-2.555816000">
        <ele>467.00</ele>
        <time>2017-02-11T09:31:49Z</time>
      </trkpt>
      <trkpt lat="42.440334000" lon="-2.555823000">
        <ele>467.10</ele>
        <time>2017-02-11T09:31:50Z</time>
      </trkpt>
      <trkpt lat="42.440297000" lon="-2.555831000">
        <ele>467.10</ele>
        <time>2017-02-11T09:31:51Z</time>
      </trkpt>
      <trkpt lat="42.440260000" lon="-2.555842000">
        <ele>467.10</ele>
        <time>2017-02-11T09:31:52Z</time>
      </trkpt>
      <trkpt lat="42.440220000" lon="-2.555847000">
        <ele>467.00</ele>
        <time>2017-02-11T09:31:53Z</time>
      </trkpt>
      <trkpt lat="42.440180000" lon="-2.555856000">
        <ele>467.10</ele>
        <time>2017-02-11T09:31:54Z</time>
      </trkpt>
      <trkpt lat="42.440102000" lon="-2.555880000">
        <ele>467.00</ele>
        <time>2017-02-11T09:31:56Z</time>
      </trkpt>
      <trkpt lat="42.440066000" lon="-2.555893000">
        <ele>466.90</ele>
        <time>2017-02-11T09:31:57Z</time>
      </trkpt>
      <trkpt lat="42.440031000" lon="-2.555902000">
        <ele>467.00</ele>
        <time>2017-02-11T09:31:58Z</time>
      </trkpt>
      <trkpt lat="42.439996000" lon="-2.555908000">
        <ele>467.10</ele>
        <time>2017-02-11T09:31:59Z</time>
      </trkpt>
      <trkpt lat="42.439969000" lon="-2.555919000">
        <ele>467.20</ele>
        <time>2017-02-11T09:32:00Z</time>
      </trkpt>
      <trkpt lat="42.439942000" lon="-2.555922000">
        <ele>467.30</ele>
        <time>2017-02-11T09:32:01Z</time>
      </trkpt>
      <trkpt lat="42.439919000" lon="-2.555915000">
        <ele>467.40</ele>
        <time>2017-02-11T09:32:02Z</time>
      </trkpt>
      <trkpt lat="42.439896000" lon="-2.555896000">
        <ele>467.50</ele>
        <time>2017-02-11T09:32:03Z</time>
      </trkpt>
      <trkpt lat="42.439875000" lon="-2.555872000">
        <ele>467.60</ele>
        <time>2017-02-11T09:32:04Z</time>
      </trkpt>
      <trkpt lat="42.439862000" lon="-2.555839000">
        <ele>467.70</ele>
        <time>2017-02-11T09:32:05Z</time>
      </trkpt>
      <trkpt lat="42.439859000" lon="-2.555800000">
        <ele>468.00</ele>
        <time>2017-02-11T09:32:06Z</time>
      </trkpt>
      <trkpt lat="42.439867000" lon="-2.555758000">
        <ele>468.20</ele>
        <time>2017-02-11T09:32:07Z</time>
      </trkpt>
      <trkpt lat="42.439880000" lon="-2.555717000">
        <ele>468.40</ele>
        <time>2017-02-11T09:32:08Z</time>
      </trkpt>
      <trkpt lat="42.439898000" lon="-2.555686000">
        <ele>468.50</ele>
        <time>2017-02-11T09:32:09Z</time>
      </trkpt>
      <trkpt lat="42.439915000" lon="-2.555659000">
        <ele>468.80</ele>
        <time>2017-02-11T09:32:10Z</time>
      </trkpt>
      <trkpt lat="42.439930000" lon="-2.555634000">
        <ele>469.10</ele>
        <time>2017-02-11T09:32:11Z</time>
      </trkpt>
      <trkpt lat="42.439945000" lon="-2.555608000">
        <ele>469.60</ele>
        <time>2017-02-11T09:32:12Z</time>
      </trkpt>
      <trkpt lat="42.439955000" lon="-2.555580000">
        <ele>470.10</ele>
        <time>2017-02-11T09:32:13Z</time>
      </trkpt>
      <trkpt lat="42.439960000" lon="-2.555551000">
        <ele>470.40</ele>
        <time>2017-02-11T09:32:14Z</time>
      </trkpt>
      <trkpt lat="42.439966000" lon="-2.555520000">
        <ele>470.60</ele>
        <time>2017-02-11T09:32:15Z</time>
      </trkpt>
      <trkpt lat="42.439975000" lon="-2.555489000">
        <ele>470.80</ele>
        <time>2017-02-11T09:32:16Z</time>
      </trkpt>
      <trkpt lat="42.439987000" lon="-2.555461000">
        <ele>471.00</ele>
        <time>2017-02-11T09:32:17Z</time>
      </trkpt>
      <trkpt lat="42.439995000" lon="-2.555435000">
        <ele>471.20</ele>
        <time>2017-02-11T09:32:18Z</time>
      </trkpt>
      <trkpt lat="42.440008000" lon="-2.555409000">
        <ele>471.40</ele>
        <time>2017-02-11T09:32:19Z</time>
      </trkpt>
      <trkpt lat="42.440019000" lon="-2.555380000">
        <ele>471.60</ele>
        <time>2017-02-11T09:32:20Z</time>
      </trkpt>
      <trkpt lat="42.440028000" lon="-2.555350000">
        <ele>471.80</ele>
        <time>2017-02-11T09:32:21Z</time>
      </trkpt>
      <trkpt lat="42.440039000" lon="-2.555324000">
        <ele>472.00</ele>
        <time>2017-02-11T09:32:22Z</time>
      </trkpt>
      <trkpt lat="42.440048000" lon="-2.555300000">
        <ele>472.20</ele>
        <time>2017-02-11T09:32:23Z</time>
      </trkpt>
      <trkpt lat="42.440059000" lon="-2.555274000">
        <ele>472.50</ele>
        <time>2017-02-11T09:32:24Z</time>
      </trkpt>
      <trkpt lat="42.440070000" lon="-2.555245000">
        <ele>472.80</ele>
        <time>2017-02-11T09:32:25Z</time>
      </trkpt>
      <trkpt lat="42.440083000" lon="-2.555220000">
        <ele>473.20</ele>
        <time>2017-02-11T09:32:26Z</time>
      </trkpt>
      <trkpt lat="42.440097000" lon="-2.555194000">
        <ele>473.40</ele>
        <time>2017-02-11T09:32:27Z</time>
      </trkpt>
      <trkpt lat="42.440109000" lon="-2.555169000">
        <ele>473.80</ele>
        <time>2017-02-11T09:32:28Z</time>
      </trkpt>
      <trkpt lat="42.440122000" lon="-2.555144000">
        <ele>474.10</ele>
        <time>2017-02-11T09:32:29Z</time>
      </trkpt>
      <trkpt lat="42.440134000" lon="-2.555118000">
        <ele>474.30</ele>
        <time>2017-02-11T09:32:30Z</time>
      </trkpt>
      <trkpt lat="42.440147000" lon="-2.555098000">
        <ele>474.50</ele>
        <time>2017-02-11T09:32:31Z</time>
      </trkpt>
      <trkpt lat="42.440159000" lon="-2.555072000">
        <ele>474.50</ele>
        <time>2017-02-11T09:32:32Z</time>
      </trkpt>
      <trkpt lat="42.440171000" lon="-2.555046000">
        <ele>474.60</ele>
        <time>2017-02-11T09:32:33Z</time>
      </trkpt>
      <trkpt lat="42.440187000" lon="-2.555020000">
        <ele>474.60</ele>
        <time>2017-02-11T09:32:34Z</time>
      </trkpt>
      <trkpt lat="42.440201000" lon="-2.554995000">
        <ele>474.60</ele>
        <time>2017-02-11T09:32:35Z</time>
      </trkpt>
      <trkpt lat="42.440214000" lon="-2.554971000">
        <ele>474.60</ele>
        <time>2017-02-11T09:32:36Z</time>
      </trkpt>
      <trkpt lat="42.440229000" lon="-2.554944000">
        <ele>474.70</ele>
        <time>2017-02-11T09:32:37Z</time>
      </trkpt>
      <trkpt lat="42.440241000" lon="-2.554916000">
        <ele>474.50</ele>
        <time>2017-02-11T09:32:38Z</time>
      </trkpt>
      <trkpt lat="42.440253000" lon="-2.554890000">
        <ele>474.40</ele>
        <time>2017-02-11T09:32:39Z</time>
      </trkpt>
      <trkpt lat="42.440267000" lon="-2.554864000">
        <ele>474.40</ele>
        <time>2017-02-11T09:32:40Z</time>
      </trkpt>
      <trkpt lat="42.440278000" lon="-2.554836000">
        <ele>474.30</ele>
        <time>2017-02-11T09:32:41Z</time>
      </trkpt>
      <trkpt lat="42.440289000" lon="-2.554810000">
        <ele>474.30</ele>
        <time>2017-02-11T09:32:42Z</time>
      </trkpt>
      <trkpt lat="42.440300000" lon="-2.554784000">
        <ele>474.30</ele>
        <time>2017-02-11T09:32:43Z</time>
      </trkpt>
      <trkpt lat="42.440314000" lon="-2.554757000">
        <ele>474.30</ele>
        <time>2017-02-11T09:32:44Z</time>
      </trkpt>
      <trkpt lat="42.440328000" lon="-2.554726000">
        <ele>474.30</ele>
        <time>2017-02-11T09:32:45Z</time>
      </trkpt>
      <trkpt lat="42.440345000" lon="-2.554696000">
        <ele>474.10</ele>
        <time>2017-02-11T09:32:46Z</time>
      </trkpt>
      <trkpt lat="42.440357000" lon="-2.554661000">
        <ele>473.90</ele>
        <time>2017-02-11T09:32:47Z</time>
      </trkpt>
      <trkpt lat="42.440374000" lon="-2.554626000">
        <ele>473.90</ele>
        <time>2017-02-11T09:32:48Z</time>
      </trkpt>
      <trkpt lat="42.440391000" lon="-2.554589000">
        <ele>474.00</ele>
        <time>2017-02-11T09:32:49Z</time>
      </trkpt>
      <trkpt lat="42.440409000" lon="-2.554552000">
        <ele>474.00</ele>
        <time>2017-02-11T09:32:50Z</time>
      </trkpt>
      <trkpt lat="42.440428000" lon="-2.554517000">
        <ele>473.90</ele>
        <time>2017-02-11T09:32:51Z</time>
      </trkpt>
      <trkpt lat="42.440447000" lon="-2.554480000">
        <ele>473.90</ele>
        <time>2017-02-11T09:32:52Z</time>
      </trkpt>
      <trkpt lat="42.440466000" lon="-2.554433000">
        <ele>473.90</ele>
        <time>2017-02-11T09:32:53Z</time>
      </trkpt>
      <trkpt lat="42.440486000" lon="-2.554382000">
        <ele>473.70</ele>
        <time>2017-02-11T09:32:54Z</time>
      </trkpt>
      <trkpt lat="42.440505000" lon="-2.554326000">
        <ele>473.50</ele>
        <time>2017-02-11T09:32:55Z</time>
      </trkpt>
      <trkpt lat="42.440539000" lon="-2.554210000">
        <ele>473.00</ele>
        <time>2017-02-11T09:32:57Z</time>
      </trkpt>
      <trkpt lat="42.440554000" lon="-2.554163000">
        <ele>472.60</ele>
        <time>2017-02-11T09:32:58Z</time>
      </trkpt>
      <trkpt lat="42.440564000" lon="-2.554120000">
        <ele>472.40</ele>
        <time>2017-02-11T09:32:59Z</time>
      </trkpt>
      <trkpt lat="42.440570000" lon="-2.554081000">
        <ele>471.90</ele>
        <time>2017-02-11T09:33:00Z</time>
      </trkpt>
      <trkpt lat="42.440568000" lon="-2.554048000">
        <ele>471.50</ele>
        <time>2017-02-11T09:33:01Z</time>
      </trkpt>
      <trkpt lat="42.440557000" lon="-2.554019000">
        <ele>471.10</ele>
        <time>2017-02-11T09:33:02Z</time>
      </trkpt>
      <trkpt lat="42.440532000" lon="-2.554000000">
        <ele>470.80</ele>
        <time>2017-02-11T09:33:03Z</time>
      </trkpt>
      <trkpt lat="42.440498000" lon="-2.553989000">
        <ele>470.50</ele>
        <time>2017-02-11T09:33:04Z</time>
      </trkpt>
      <trkpt lat="42.440458000" lon="-2.553991000">
        <ele>470.30</ele>
        <time>2017-02-11T09:33:05Z</time>
      </trkpt>
      <trkpt lat="42.440416000" lon="-2.554009000">
        <ele>470.00</ele>
        <time>2017-02-11T09:33:06Z</time>
      </trkpt>
      <trkpt lat="42.440365000" lon="-2.554037000">
        <ele>469.80</ele>
        <time>2017-02-11T09:33:07Z</time>
      </trkpt>
      <trkpt lat="42.440315000" lon="-2.554072000">
        <ele>469.30</ele>
        <time>2017-02-11T09:33:08Z</time>
      </trkpt>
      <trkpt lat="42.440266000" lon="-2.554108000">
        <ele>468.90</ele>
        <time>2017-02-11T09:33:09Z</time>
      </trkpt>
      <trkpt lat="42.440219000" lon="-2.554149000">
        <ele>468.40</ele>
        <time>2017-02-11T09:33:10Z</time>
      </trkpt>
      <trkpt lat="42.440168000" lon="-2.554188000">
        <ele>467.90</ele>
        <time>2017-02-11T09:33:11Z</time>
      </trkpt>
      <trkpt lat="42.440110000" lon="-2.554213000">
        <ele>467.60</ele>
        <time>2017-02-11T09:33:12Z</time>
      </trkpt>
      <trkpt lat="42.440049000" lon="-2.554217000">
        <ele>467.40</ele>
        <time>2017-02-11T09:33:13Z</time>
      </trkpt>
      <trkpt lat="42.439989000" lon="-2.554204000">
        <ele>467.10</ele>
        <time>2017-02-11T09:33:14Z</time>
      </trkpt>
      <trkpt lat="42.439934000" lon="-2.554180000">
        <ele>467.00</ele>
        <time>2017-02-11T09:33:15Z</time>
      </trkpt>
      <trkpt lat="42.439882000" lon="-2.554152000">
        <ele>466.80</ele>
        <time>2017-02-11T09:33:16Z</time>
      </trkpt>
      <trkpt lat="42.439834000" lon="-2.554125000">
        <ele>466.70</ele>
        <time>2017-02-11T09:33:17Z</time>
      </trkpt>
      <trkpt lat="42.439793000" lon="-2.554096000">
        <ele>466.60</ele>
        <time>2017-02-11T09:33:18Z</time>
      </trkpt>
      <trkpt lat="42.439753000" lon="-2.554063000">
        <ele>466.50</ele>
        <time>2017-02-11T09:33:19Z</time>
      </trkpt>
      <trkpt lat="42.439715000" lon="-2.554032000">
        <ele>466.40</ele>
        <time>2017-02-11T09:33:20Z</time>
      </trkpt>
      <trkpt lat="42.439682000" lon="-2.553999000">
        <ele>466.30</ele>
        <time>2017-02-11T09:33:21Z</time>
      </trkpt>
      <trkpt lat="42.439646000" lon="-2.553970000">
        <ele>466.30</ele>
        <time>2017-02-11T09:33:22Z</time>
      </trkpt>
      <trkpt lat="42.439609000" lon="-2.553938000">
        <ele>466.30</ele>
        <time>2017-02-11T09:33:23Z</time>
      </trkpt>
      <trkpt lat="42.439574000" lon="-2.553903000">
        <ele>466.20</ele>
        <time>2017-02-11T09:33:24Z</time>
      </trkpt>
      <trkpt lat="42.439535000" lon="-2.553871000">
        <ele>466.20</ele>
        <time>2017-02-11T09:33:25Z</time>
      </trkpt>
      <trkpt lat="42.439496000" lon="-2.553835000">
        <ele>466.30</ele>
        <time>2017-02-11T09:33:26Z</time>
      </trkpt>
      <trkpt lat="42.439459000" lon="-2.553801000">
        <ele>466.30</ele>
        <time>2017-02-11T09:33:27Z</time>
      </trkpt>
      <trkpt lat="42.439423000" lon="-2.553767000">
        <ele>466.30</ele>
        <time>2017-02-11T09:33:28Z</time>
      </trkpt>
      <trkpt lat="42.439387000" lon="-2.553733000">
        <ele>466.40</ele>
        <time>2017-02-11T09:33:29Z</time>
      </trkpt>
      <trkpt lat="42.439350000" lon="-2.553699000">
        <ele>466.40</ele>
        <time>2017-02-11T09:33:30Z</time>
      </trkpt>
      <trkpt lat="42.439313000" lon="-2.553665000">
        <ele>466.40</ele>
        <time>2017-02-11T09:33:31Z</time>
      </trkpt>
      <trkpt lat="42.439276000" lon="-2.553633000">
        <ele>466.40</ele>
        <time>2017-02-11T09:33:32Z</time>
      </trkpt>
      <trkpt lat="42.439240000" lon="-2.553600000">
        <ele>466.40</ele>
        <time>2017-02-11T09:33:33Z</time>
      </trkpt>
      <trkpt lat="42.439205000" lon="-2.553566000">
        <ele>466.30</ele>
        <time>2017-02-11T09:33:34Z</time>
      </trkpt>
      <trkpt lat="42.439173000" lon="-2.553532000">
        <ele>466.30</ele>
        <time>2017-02-11T09:33:35Z</time>
      </trkpt>
      <trkpt lat="42.439139000" lon="-2.553500000">
        <ele>466.20</ele>
        <time>2017-02-11T09:33:36Z</time>
      </trkpt>
      <trkpt lat="42.439104000" lon="-2.553470000">
        <ele>466.20</ele>
        <time>2017-02-11T09:33:37Z</time>
      </trkpt>
      <trkpt lat="42.439068000" lon="-2.553441000">
        <ele>466.10</ele>
        <time>2017-02-11T09:33:38Z</time>
      </trkpt>
      <trkpt lat="42.439035000" lon="-2.553412000">
        <ele>466.10</ele>
        <time>2017-02-11T09:33:39Z</time>
      </trkpt>
      <trkpt lat="42.438999000" lon="-2.553383000">
        <ele>466.10</ele>
        <time>2017-02-11T09:33:40Z</time>
      </trkpt>
      <trkpt lat="42.438961000" lon="-2.553351000">
        <ele>466.00</ele>
        <time>2017-02-11T09:33:41Z</time>
      </trkpt>
      <trkpt lat="42.438922000" lon="-2.553318000">
        <ele>466.10</ele>
        <time>2017-02-11T09:33:42Z</time>
      </trkpt>
      <trkpt lat="42.438886000" lon="-2.553286000">
        <ele>466.20</ele>
        <time>2017-02-11T09:33:43Z</time>
      </trkpt>
      <trkpt lat="42.438849000" lon="-2.553253000">
        <ele>466.30</ele>
        <time>2017-02-11T09:33:44Z</time>
      </trkpt>
      <trkpt lat="42.438811000" lon="-2.553218000">
        <ele>466.50</ele>
        <time>2017-02-11T09:33:45Z</time>
      </trkpt>
      <trkpt lat="42.438775000" lon="-2.553188000">
        <ele>466.50</ele>
        <time>2017-02-11T09:33:46Z</time>
      </trkpt>
      <trkpt lat="42.438739000" lon="-2.553161000">
        <ele>466.50</ele>
        <time>2017-02-11T09:33:47Z</time>
      </trkpt>
      <trkpt lat="42.438703000" lon="-2.553134000">
        <ele>466.50</ele>
        <time>2017-02-11T09:33:48Z</time>
      </trkpt>
      <trkpt lat="42.438669000" lon="-2.553105000">
        <ele>466.60</ele>
        <time>2017-02-11T09:33:49Z</time>
      </trkpt>
      <trkpt lat="42.438639000" lon="-2.553076000">
        <ele>466.60</ele>
        <time>2017-02-11T09:33:50Z</time>
      </trkpt>
      <trkpt lat="42.438605000" lon="-2.553055000">
        <ele>466.60</ele>
        <time>2017-02-11T09:33:51Z</time>
      </trkpt>
      <trkpt lat="42.438572000" lon="-2.553031000">
        <ele>466.60</ele>
        <time>2017-02-11T09:33:52Z</time>
      </trkpt>
      <trkpt lat="42.438539000" lon="-2.552994000">
        <ele>466.70</ele>
        <time>2017-02-11T09:33:53Z</time>
      </trkpt>
      <trkpt lat="42.438506000" lon="-2.552951000">
        <ele>466.70</ele>
        <time>2017-02-11T09:33:54Z</time>
      </trkpt>
      <trkpt lat="42.438471000" lon="-2.552907000">
        <ele>466.80</ele>
        <time>2017-02-11T09:33:55Z</time>
      </trkpt>
      <trkpt lat="42.438435000" lon="-2.552870000">
        <ele>466.80</ele>
        <time>2017-02-11T09:33:56Z</time>
      </trkpt>
      <trkpt lat="42.438369000" lon="-2.552794000">
        <ele>466.70</ele>
        <time>2017-02-11T09:33:58Z</time>
      </trkpt>
      <trkpt lat="42.438337000" lon="-2.552757000">
        <ele>466.60</ele>
        <time>2017-02-11T09:33:59Z</time>
      </trkpt>
      <trkpt lat="42.438306000" lon="-2.552721000">
        <ele>466.50</ele>
        <time>2017-02-11T09:34:00Z</time>
      </trkpt>
      <trkpt lat="42.438275000" lon="-2.552685000">
        <ele>466.50</ele>
        <time>2017-02-11T09:34:01Z</time>
      </trkpt>
      <trkpt lat="42.438244000" lon="-2.552650000">
        <ele>466.30</ele>
        <time>2017-02-11T09:34:02Z</time>
      </trkpt>
      <trkpt lat="42.438212000" lon="-2.552614000">
        <ele>466.10</ele>
        <time>2017-02-11T09:34:03Z</time>
      </trkpt>
      <trkpt lat="42.438178000" lon="-2.552581000">
        <ele>466.20</ele>
        <time>2017-02-11T09:34:04Z</time>
      </trkpt>
      <trkpt lat="42.438147000" lon="-2.552546000">
        <ele>466.30</ele>
        <time>2017-02-11T09:34:05Z</time>
      </trkpt>
      <trkpt lat="42.438114000" lon="-2.552511000">
        <ele>466.20</ele>
        <time>2017-02-11T09:34:06Z</time>
      </trkpt>
      <trkpt lat="42.438079000" lon="-2.552477000">
        <ele>466.10</ele>
        <time>2017-02-11T09:34:07Z</time>
      </trkpt>
      <trkpt lat="42.438046000" lon="-2.552439000">
        <ele>466.30</ele>
        <time>2017-02-11T09:34:08Z</time>
      </trkpt>
      <trkpt lat="42.438013000" lon="-2.552404000">
        <ele>466.30</ele>
        <time>2017-02-11T09:34:09Z</time>
      </trkpt>
      <trkpt lat="42.437981000" lon="-2.552371000">
        <ele>466.40</ele>
        <time>2017-02-11T09:34:10Z</time>
      </trkpt>
      <trkpt lat="42.437949000" lon="-2.552336000">
        <ele>466.50</ele>
        <time>2017-02-11T09:34:11Z</time>
      </trkpt>
      <trkpt lat="42.437917000" lon="-2.552304000">
        <ele>466.50</ele>
        <time>2017-02-11T09:34:12Z</time>
      </trkpt>
      <trkpt lat="42.437885000" lon="-2.552273000">
        <ele>466.50</ele>
        <time>2017-02-11T09:34:13Z</time>
      </trkpt>
      <trkpt lat="42.437854000" lon="-2.552240000">
        <ele>466.50</ele>
        <time>2017-02-11T09:34:14Z</time>
      </trkpt>
      <trkpt lat="42.437825000" lon="-2.552208000">
        <ele>466.60</ele>
        <time>2017-02-11T09:34:15Z</time>
      </trkpt>
      <trkpt lat="42.437792000" lon="-2.552183000">
        <ele>466.60</ele>
        <time>2017-02-11T09:34:16Z</time>
      </trkpt>
      <trkpt lat="42.437766000" lon="-2.552153000">
        <ele>466.60</ele>
        <time>2017-02-11T09:34:17Z</time>
      </trkpt>
      <trkpt lat="42.437739000" lon="-2.552118000">
        <ele>466.70</ele>
        <time>2017-02-11T09:34:18Z</time>
      </trkpt>
      <trkpt lat="42.437709000" lon="-2.552085000">
        <ele>466.80</ele>
        <time>2017-02-11T09:34:19Z</time>
      </trkpt>
      <trkpt lat="42.437681000" lon="-2.552053000">
        <ele>466.90</ele>
        <time>2017-02-11T09:34:20Z</time>
      </trkpt>
      <trkpt lat="42.437651000" lon="-2.552020000">
        <ele>466.90</ele>
        <time>2017-02-11T09:34:21Z</time>
      </trkpt>
      <trkpt lat="42.437622000" lon="-2.551983000">
        <ele>466.90</ele>
        <time>2017-02-11T09:34:22Z</time>
      </trkpt>
      <trkpt lat="42.437590000" lon="-2.551951000">
        <ele>467.00</ele>
        <time>2017-02-11T09:34:23Z</time>
      </trkpt>
      <trkpt lat="42.437561000" lon="-2.551918000">
        <ele>467.00</ele>
        <time>2017-02-11T09:34:24Z</time>
      </trkpt>
      <trkpt lat="42.437527000" lon="-2.551885000">
        <ele>467.00</ele>
        <time>2017-02-11T09:34:25Z</time>
      </trkpt>
      <trkpt lat="42.437497000" lon="-2.551852000">
        <ele>466.90</ele>
        <time>2017-02-11T09:34:26Z</time>
      </trkpt>
      <trkpt lat="42.437465000" lon="-2.551817000">
        <ele>466.90</ele>
        <time>2017-02-11T09:34:27Z</time>
      </trkpt>
      <trkpt lat="42.437436000" lon="-2.551783000">
        <ele>466.90</ele>
        <time>2017-02-11T09:34:28Z</time>
      </trkpt>
      <trkpt lat="42.437404000" lon="-2.551751000">
        <ele>467.00</ele>
        <time>2017-02-11T09:34:29Z</time>
      </trkpt>
      <trkpt lat="42.437370000" lon="-2.551718000">
        <ele>467.00</ele>
        <time>2017-02-11T09:34:30Z</time>
      </trkpt>
      <trkpt lat="42.437339000" lon="-2.551689000">
        <ele>467.00</ele>
        <time>2017-02-11T09:34:31Z</time>
      </trkpt>
      <trkpt lat="42.437307000" lon="-2.551659000">
        <ele>467.00</ele>
        <time>2017-02-11T09:34:32Z</time>
      </trkpt>
      <trkpt lat="42.437275000" lon="-2.551621000">
        <ele>467.00</ele>
        <time>2017-02-11T09:34:33Z</time>
      </trkpt>
      <trkpt lat="42.437243000" lon="-2.551585000">
        <ele>466.90</ele>
        <time>2017-02-11T09:34:34Z</time>
      </trkpt>
      <trkpt lat="42.437213000" lon="-2.551550000">
        <ele>466.90</ele>
        <time>2017-02-11T09:34:35Z</time>
      </trkpt>
      <trkpt lat="42.437181000" lon="-2.551518000">
        <ele>466.90</ele>
        <time>2017-02-11T09:34:36Z</time>
      </trkpt>
      <trkpt lat="42.437148000" lon="-2.551484000">
        <ele>466.80</ele>
        <time>2017-02-11T09:34:37Z</time>
      </trkpt>
      <trkpt lat="42.437116000" lon="-2.551454000">
        <ele>466.80</ele>
        <time>2017-02-11T09:34:38Z</time>
      </trkpt>
      <trkpt lat="42.437083000" lon="-2.551417000">
        <ele>466.70</ele>
        <time>2017-02-11T09:34:39Z</time>
      </trkpt>
      <trkpt lat="42.437051000" lon="-2.551381000">
        <ele>466.70</ele>
        <time>2017-02-11T09:34:40Z</time>
      </trkpt>
      <trkpt lat="42.437021000" lon="-2.551346000">
        <ele>466.60</ele>
        <time>2017-02-11T09:34:41Z</time>
      </trkpt>
      <trkpt lat="42.436992000" lon="-2.551310000">
        <ele>466.80</ele>
        <time>2017-02-11T09:34:42Z</time>
      </trkpt>
      <trkpt lat="42.436960000" lon="-2.551274000">
        <ele>467.00</ele>
        <time>2017-02-11T09:34:43Z</time>
      </trkpt>
      <trkpt lat="42.436931000" lon="-2.551244000">
        <ele>467.20</ele>
        <time>2017-02-11T09:34:44Z</time>
      </trkpt>
      <trkpt lat="42.436902000" lon="-2.551209000">
        <ele>467.30</ele>
        <time>2017-02-11T09:34:45Z</time>
      </trkpt>
      <trkpt lat="42.436874000" lon="-2.551178000">
        <ele>467.30</ele>
        <time>2017-02-11T09:34:46Z</time>
      </trkpt>
      <trkpt lat="42.436844000" lon="-2.551146000">
        <ele>467.40</ele>
        <time>2017-02-11T09:34:47Z</time>
      </trkpt>
      <trkpt lat="42.436814000" lon="-2.551115000">
        <ele>467.50</ele>
        <time>2017-02-11T09:34:48Z</time>
      </trkpt>
      <trkpt lat="42.436782000" lon="-2.551087000">
        <ele>467.60</ele>
        <time>2017-02-11T09:34:49Z</time>
      </trkpt>
      <trkpt lat="42.436751000" lon="-2.551056000">
        <ele>467.70</ele>
        <time>2017-02-11T09:34:50Z</time>
      </trkpt>
      <trkpt lat="42.436720000" lon="-2.551023000">
        <ele>467.80</ele>
        <time>2017-02-11T09:34:51Z</time>
      </trkpt>
      <trkpt lat="42.436688000" lon="-2.550991000">
        <ele>467.80</ele>
        <time>2017-02-11T09:34:52Z</time>
      </trkpt>
      <trkpt lat="42.436659000" lon="-2.550956000">
        <ele>467.90</ele>
        <time>2017-02-11T09:34:53Z</time>
      </trkpt>
      <trkpt lat="42.436629000" lon="-2.550927000">
        <ele>467.90</ele>
        <time>2017-02-11T09:34:54Z</time>
      </trkpt>
      <trkpt lat="42.436602000" lon="-2.550899000">
        <ele>467.90</ele>
        <time>2017-02-11T09:34:55Z</time>
      </trkpt>
      <trkpt lat="42.436574000" lon="-2.550870000">
        <ele>467.90</ele>
        <time>2017-02-11T09:34:56Z</time>
      </trkpt>
      <trkpt lat="42.436545000" lon="-2.550843000">
        <ele>467.80</ele>
        <time>2017-02-11T09:34:57Z</time>
      </trkpt>
      <trkpt lat="42.436491000" lon="-2.550791000">
        <ele>467.90</ele>
        <time>2017-02-11T09:34:59Z</time>
      </trkpt>
      <trkpt lat="42.436463000" lon="-2.550764000">
        <ele>467.90</ele>
        <time>2017-02-11T09:35:00Z</time>
      </trkpt>
      <trkpt lat="42.436434000" lon="-2.550737000">
        <ele>467.80</ele>
        <time>2017-02-11T09:35:01Z</time>
      </trkpt>
      <trkpt lat="42.436408000" lon="-2.550712000">
        <ele>467.80</ele>
        <time>2017-02-11T09:35:02Z</time>
      </trkpt>
      <trkpt lat="42.436379000" lon="-2.550687000">
        <ele>467.80</ele>
        <time>2017-02-11T09:35:03Z</time>
      </trkpt>
      <trkpt lat="42.436351000" lon="-2.550656000">
        <ele>467.80</ele>
        <time>2017-02-11T09:35:04Z</time>
      </trkpt>
      <trkpt lat="42.436324000" lon="-2.550622000">
        <ele>467.80</ele>
        <time>2017-02-11T09:35:05Z</time>
      </trkpt>
      <trkpt lat="42.436293000" lon="-2.550592000">
        <ele>467.90</ele>
        <time>2017-02-11T09:35:06Z</time>
      </trkpt>
      <trkpt lat="42.436269000" lon="-2.550555000">
        <ele>468.10</ele>
        <time>2017-02-11T09:35:07Z</time>
      </trkpt>
      <trkpt lat="42.436242000" lon="-2.550521000">
        <ele>468.20</ele>
        <time>2017-02-11T09:35:08Z</time>
      </trkpt>
      <trkpt lat="42.436215000" lon="-2.550488000">
        <ele>468.30</ele>
        <time>2017-02-11T09:35:09Z</time>
      </trkpt>
      <trkpt lat="42.436192000" lon="-2.550450000">
        <ele>468.30</ele>
        <time>2017-02-11T09:35:10Z</time>
      </trkpt>
      <trkpt lat="42.436164000" lon="-2.550417000">
        <ele>468.40</ele>
        <time>2017-02-11T09:35:11Z</time>
      </trkpt>
      <trkpt lat="42.436138000" lon="-2.550385000">
        <ele>468.40</ele>
        <time>2017-02-11T09:35:12Z</time>
      </trkpt>
      <trkpt lat="42.436115000" lon="-2.550350000">
        <ele>468.40</ele>
        <time>2017-02-11T09:35:13Z</time>
      </trkpt>
      <trkpt lat="42.436089000" lon="-2.550318000">
        <ele>468.50</ele>
        <time>2017-02-11T09:35:14Z</time>
      </trkpt>
      <trkpt lat="42.436067000" lon="-2.550283000">
        <ele>468.50</ele>
        <time>2017-02-11T09:35:15Z</time>
      </trkpt>
      <trkpt lat="42.436046000" lon="-2.550252000">
        <ele>468.50</ele>
        <time>2017-02-11T09:35:16Z</time>
      </trkpt>
      <trkpt lat="42.436028000" lon="-2.550215000">
        <ele>468.50</ele>
        <time>2017-02-11T09:35:17Z</time>
      </trkpt>
      <trkpt lat="42.436011000" lon="-2.550177000">
        <ele>468.50</ele>
        <time>2017-02-11T09:35:18Z</time>
      </trkpt>
      <trkpt lat="42.436000000" lon="-2.550138000">
        <ele>468.50</ele>
        <time>2017-02-11T09:35:19Z</time>
      </trkpt>
      <trkpt lat="42.436000000" lon="-2.550097000">
        <ele>468.60</ele>
        <time>2017-02-11T09:35:20Z</time>
      </trkpt>
      <trkpt lat="42.436006000" lon="-2.550056000">
        <ele>468.70</ele>
        <time>2017-02-11T09:35:21Z</time>
      </trkpt>
      <trkpt lat="42.436016000" lon="-2.550011000">
        <ele>468.80</ele>
        <time>2017-02-11T09:35:22Z</time>
      </trkpt>
      <trkpt lat="42.436028000" lon="-2.549968000">
        <ele>468.80</ele>
        <time>2017-02-11T09:35:23Z</time>
      </trkpt>
      <trkpt lat="42.436040000" lon="-2.549920000">
        <ele>468.80</ele>
        <time>2017-02-11T09:35:24Z</time>
      </trkpt>
      <trkpt lat="42.436051000" lon="-2.549871000">
        <ele>468.90</ele>
        <time>2017-02-11T09:35:25Z</time>
      </trkpt>
      <trkpt lat="42.436060000" lon="-2.549821000">
        <ele>468.90</ele>
        <time>2017-02-11T09:35:26Z</time>
      </trkpt>
      <trkpt lat="42.436067000" lon="-2.549773000">
        <ele>468.90</ele>
        <time>2017-02-11T09:35:27Z</time>
      </trkpt>
      <trkpt lat="42.436077000" lon="-2.549729000">
        <ele>468.90</ele>
        <time>2017-02-11T09:35:28Z</time>
      </trkpt>
      <trkpt lat="42.436084000" lon="-2.549684000">
        <ele>468.90</ele>
        <time>2017-02-11T09:35:29Z</time>
      </trkpt>
      <trkpt lat="42.436093000" lon="-2.549638000">
        <ele>469.10</ele>
        <time>2017-02-11T09:35:30Z</time>
      </trkpt>
      <trkpt lat="42.436096000" lon="-2.549589000">
        <ele>469.30</ele>
        <time>2017-02-11T09:35:31Z</time>
      </trkpt>
      <trkpt lat="42.436100000" lon="-2.549542000">
        <ele>469.40</ele>
        <time>2017-02-11T09:35:32Z</time>
      </trkpt>
      <trkpt lat="42.436103000" lon="-2.549495000">
        <ele>469.50</ele>
        <time>2017-02-11T09:35:33Z</time>
      </trkpt>
      <trkpt lat="42.436094000" lon="-2.549452000">
        <ele>469.30</ele>
        <time>2017-02-11T09:35:34Z</time>
      </trkpt>
      <trkpt lat="42.436078000" lon="-2.549405000">
        <ele>469.20</ele>
        <time>2017-02-11T09:35:35Z</time>
      </trkpt>
      <trkpt lat="42.436062000" lon="-2.549359000">
        <ele>469.20</ele>
        <time>2017-02-11T09:35:36Z</time>
      </trkpt>
      <trkpt lat="42.436043000" lon="-2.549317000">
        <ele>469.10</ele>
        <time>2017-02-11T09:35:37Z</time>
      </trkpt>
      <trkpt lat="42.436018000" lon="-2.549274000">
        <ele>469.10</ele>
        <time>2017-02-11T09:35:38Z</time>
      </trkpt>
      <trkpt lat="42.435997000" lon="-2.549234000">
        <ele>469.00</ele>
        <time>2017-02-11T09:35:39Z</time>
      </trkpt>
      <trkpt lat="42.435972000" lon="-2.549195000">
        <ele>469.10</ele>
        <time>2017-02-11T09:35:40Z</time>
      </trkpt>
      <trkpt lat="42.435943000" lon="-2.549160000">
        <ele>469.10</ele>
        <time>2017-02-11T09:35:41Z</time>
      </trkpt>
      <trkpt lat="42.435914000" lon="-2.549125000">
        <ele>469.10</ele>
        <time>2017-02-11T09:35:42Z</time>
      </trkpt>
      <trkpt lat="42.435885000" lon="-2.549092000">
        <ele>469.20</ele>
        <time>2017-02-11T09:35:43Z</time>
      </trkpt>
      <trkpt lat="42.435857000" lon="-2.549058000">
        <ele>469.20</ele>
        <time>2017-02-11T09:35:44Z</time>
      </trkpt>
      <trkpt lat="42.435832000" lon="-2.549023000">
        <ele>469.20</ele>
        <time>2017-02-11T09:35:45Z</time>
      </trkpt>
      <trkpt lat="42.435807000" lon="-2.548986000">
        <ele>469.20</ele>
        <time>2017-02-11T09:35:46Z</time>
      </trkpt>
      <trkpt lat="42.435786000" lon="-2.548946000">
        <ele>469.20</ele>
        <time>2017-02-11T09:35:47Z</time>
      </trkpt>
      <trkpt lat="42.435766000" lon="-2.548909000">
        <ele>469.20</ele>
        <time>2017-02-11T09:35:48Z</time>
      </trkpt>
      <trkpt lat="42.435747000" lon="-2.548873000">
        <ele>469.20</ele>
        <time>2017-02-11T09:35:49Z</time>
      </trkpt>
      <trkpt lat="42.435732000" lon="-2.548833000">
        <ele>469.20</ele>
        <time>2017-02-11T09:35:50Z</time>
      </trkpt>
      <trkpt lat="42.435718000" lon="-2.548792000">
        <ele>469.20</ele>
        <time>2017-02-11T09:35:51Z</time>
      </trkpt>
      <trkpt lat="42.435700000" lon="-2.548755000">
        <ele>469.50</ele>
        <time>2017-02-11T09:35:52Z</time>
      </trkpt>
      <trkpt lat="42.435682000" lon="-2.548719000">
        <ele>469.70</ele>
        <time>2017-02-11T09:35:53Z</time>
      </trkpt>
      <trkpt lat="42.435665000" lon="-2.548683000">
        <ele>469.80</ele>
        <time>2017-02-11T09:35:54Z</time>
      </trkpt>
      <trkpt lat="42.435645000" lon="-2.548645000">
        <ele>469.90</ele>
        <time>2017-02-11T09:35:55Z</time>
      </trkpt>
      <trkpt lat="42.435630000" lon="-2.548610000">
        <ele>470.10</ele>
        <time>2017-02-11T09:35:56Z</time>
      </trkpt>
      <trkpt lat="42.435619000" lon="-2.548575000">
        <ele>470.30</ele>
        <time>2017-02-11T09:35:57Z</time>
      </trkpt>
      <trkpt lat="42.435602000" lon="-2.548545000">
        <ele>470.30</ele>
        <time>2017-02-11T09:35:58Z</time>
      </trkpt>
      <trkpt lat="42.435577000" lon="-2.548480000">
        <ele>470.40</ele>
        <time>2017-02-11T09:36:00Z</time>
      </trkpt>
      <trkpt lat="42.435562000" lon="-2.548443000">
        <ele>470.40</ele>
        <time>2017-02-11T09:36:01Z</time>
      </trkpt>
      <trkpt lat="42.435550000" lon="-2.548403000">
        <ele>470.40</ele>
        <time>2017-02-11T09:36:02Z</time>
      </trkpt>
      <trkpt lat="42.435545000" lon="-2.548361000">
        <ele>470.40</ele>
        <time>2017-02-11T09:36:03Z</time>
      </trkpt>
      <trkpt lat="42.435541000" lon="-2.548317000">
        <ele>470.20</ele>
        <time>2017-02-11T09:36:04Z</time>
      </trkpt>
      <trkpt lat="42.435543000" lon="-2.548271000">
        <ele>470.00</ele>
        <time>2017-02-11T09:36:05Z</time>
      </trkpt>
      <trkpt lat="42.435543000" lon="-2.548224000">
        <ele>470.10</ele>
        <time>2017-02-11T09:36:06Z</time>
      </trkpt>
      <trkpt lat="42.435538000" lon="-2.548181000">
        <ele>470.10</ele>
        <time>2017-02-11T09:36:07Z</time>
      </trkpt>
      <trkpt lat="42.435523000" lon="-2.548139000">
        <ele>470.10</ele>
        <time>2017-02-11T09:36:08Z</time>
      </trkpt>
      <trkpt lat="42.435506000" lon="-2.548101000">
        <ele>470.10</ele>
        <time>2017-02-11T09:36:09Z</time>
      </trkpt>
      <trkpt lat="42.435483000" lon="-2.548065000">
        <ele>470.10</ele>
        <time>2017-02-11T09:36:10Z</time>
      </trkpt>
      <trkpt lat="42.435454000" lon="-2.548034000">
        <ele>470.10</ele>
        <time>2017-02-11T09:36:11Z</time>
      </trkpt>
      <trkpt lat="42.435426000" lon="-2.548006000">
        <ele>470.10</ele>
        <time>2017-02-11T09:36:12Z</time>
      </trkpt>
      <trkpt lat="42.435391000" lon="-2.547979000">
        <ele>470.10</ele>
        <time>2017-02-11T09:36:13Z</time>
      </trkpt>
      <trkpt lat="42.435359000" lon="-2.547953000">
        <ele>470.30</ele>
        <time>2017-02-11T09:36:14Z</time>
      </trkpt>
      <trkpt lat="42.435327000" lon="-2.547929000">
        <ele>470.40</ele>
        <time>2017-02-11T09:36:15Z</time>
      </trkpt>
      <trkpt lat="42.435298000" lon="-2.547903000">
        <ele>470.50</ele>
        <time>2017-02-11T09:36:16Z</time>
      </trkpt>
      <trkpt lat="42.435271000" lon="-2.547880000">
        <ele>470.60</ele>
        <time>2017-02-11T09:36:17Z</time>
      </trkpt>
      <trkpt lat="42.435240000" lon="-2.547854000">
        <ele>470.90</ele>
        <time>2017-02-11T09:36:18Z</time>
      </trkpt>
      <trkpt lat="42.435212000" lon="-2.547831000">
        <ele>471.10</ele>
        <time>2017-02-11T09:36:19Z</time>
      </trkpt>
      <trkpt lat="42.435184000" lon="-2.547809000">
        <ele>471.30</ele>
        <time>2017-02-11T09:36:20Z</time>
      </trkpt>
      <trkpt lat="42.435155000" lon="-2.547783000">
        <ele>471.50</ele>
        <time>2017-02-11T09:36:21Z</time>
      </trkpt>
      <trkpt lat="42.435128000" lon="-2.547761000">
        <ele>471.60</ele>
        <time>2017-02-11T09:36:22Z</time>
      </trkpt>
      <trkpt lat="42.435098000" lon="-2.547734000">
        <ele>471.60</ele>
        <time>2017-02-11T09:36:23Z</time>
      </trkpt>
      <trkpt lat="42.435068000" lon="-2.547710000">
        <ele>471.70</ele>
        <time>2017-02-11T09:36:24Z</time>
      </trkpt>
      <trkpt lat="42.435041000" lon="-2.547684000">
        <ele>471.80</ele>
        <time>2017-02-11T09:36:25Z</time>
      </trkpt>
      <trkpt lat="42.435013000" lon="-2.547657000">
        <ele>471.90</ele>
        <time>2017-02-11T09:36:26Z</time>
      </trkpt>
      <trkpt lat="42.434986000" lon="-2.547627000">
        <ele>471.90</ele>
        <time>2017-02-11T09:36:27Z</time>
      </trkpt>
      <trkpt lat="42.434957000" lon="-2.547596000">
        <ele>472.10</ele>
        <time>2017-02-11T09:36:28Z</time>
      </trkpt>
      <trkpt lat="42.434927000" lon="-2.547569000">
        <ele>472.30</ele>
        <time>2017-02-11T09:36:29Z</time>
      </trkpt>
      <trkpt lat="42.434898000" lon="-2.547544000">
        <ele>472.60</ele>
        <time>2017-02-11T09:36:30Z</time>
      </trkpt>
      <trkpt lat="42.434866000" lon="-2.547518000">
        <ele>472.90</ele>
        <time>2017-02-11T09:36:31Z</time>
      </trkpt>
      <trkpt lat="42.434836000" lon="-2.547490000">
        <ele>473.00</ele>
        <time>2017-02-11T09:36:32Z</time>
      </trkpt>
      <trkpt lat="42.434805000" lon="-2.547463000">
        <ele>473.00</ele>
        <time>2017-02-11T09:36:33Z</time>
      </trkpt>
      <trkpt lat="42.434774000" lon="-2.547433000">
        <ele>473.10</ele>
        <time>2017-02-11T09:36:34Z</time>
      </trkpt>
      <trkpt lat="42.434746000" lon="-2.547406000">
        <ele>473.10</ele>
        <time>2017-02-11T09:36:35Z</time>
      </trkpt>
      <trkpt lat="42.434717000" lon="-2.547377000">
        <ele>473.10</ele>
        <time>2017-02-11T09:36:36Z</time>
      </trkpt>
      <trkpt lat="42.434687000" lon="-2.547347000">
        <ele>473.00</ele>
        <time>2017-02-11T09:36:37Z</time>
      </trkpt>
      <trkpt lat="42.434657000" lon="-2.547320000">
        <ele>473.00</ele>
        <time>2017-02-11T09:36:38Z</time>
      </trkpt>
      <trkpt lat="42.434629000" lon="-2.547296000">
        <ele>473.00</ele>
        <time>2017-02-11T09:36:39Z</time>
      </trkpt>
      <trkpt lat="42.434601000" lon="-2.547272000">
        <ele>473.00</ele>
        <time>2017-02-11T09:36:40Z</time>
      </trkpt>
      <trkpt lat="42.434570000" lon="-2.547250000">
        <ele>473.00</ele>
        <time>2017-02-11T09:36:41Z</time>
      </trkpt>
      <trkpt lat="42.434541000" lon="-2.547225000">
        <ele>473.00</ele>
        <time>2017-02-11T09:36:42Z</time>
      </trkpt>
      <trkpt lat="42.434512000" lon="-2.547196000">
        <ele>473.10</ele>
        <time>2017-02-11T09:36:43Z</time>
      </trkpt>
      <trkpt lat="42.434480000" lon="-2.547169000">
        <ele>473.20</ele>
        <time>2017-02-11T09:36:44Z</time>
      </trkpt>
      <trkpt lat="42.434446000" lon="-2.547144000">
        <ele>473.30</ele>
        <time>2017-02-11T09:36:45Z</time>
      </trkpt>
      <trkpt lat="42.434415000" lon="-2.547120000">
        <ele>473.40</ele>
        <time>2017-02-11T09:36:46Z</time>
      </trkpt>
      <trkpt lat="42.434383000" lon="-2.547095000">
        <ele>473.50</ele>
        <time>2017-02-11T09:36:47Z</time>
      </trkpt>
      <trkpt lat="42.434351000" lon="-2.547071000">
        <ele>473.50</ele>
        <time>2017-02-11T09:36:48Z</time>
      </trkpt>
      <trkpt lat="42.434320000" lon="-2.547052000">
        <ele>473.60</ele>
        <time>2017-02-11T09:36:49Z</time>
      </trkpt>
      <trkpt lat="42.434291000" lon="-2.547029000">
        <ele>473.60</ele>
        <time>2017-02-11T09:36:50Z</time>
      </trkpt>
      <trkpt lat="42.434258000" lon="-2.547009000">
        <ele>473.60</ele>
        <time>2017-02-11T09:36:51Z</time>
      </trkpt>
      <trkpt lat="42.434226000" lon="-2.546988000">
        <ele>473.50</ele>
        <time>2017-02-11T09:36:52Z</time>
      </trkpt>
      <trkpt lat="42.434193000" lon="-2.546966000">
        <ele>473.50</ele>
        <time>2017-02-11T09:36:53Z</time>
      </trkpt>
      <trkpt lat="42.434161000" lon="-2.546942000">
        <ele>473.30</ele>
        <time>2017-02-11T09:36:54Z</time>
      </trkpt>
      <trkpt lat="42.434130000" lon="-2.546918000">
        <ele>473.20</ele>
        <time>2017-02-11T09:36:55Z</time>
      </trkpt>
      <trkpt lat="42.434102000" lon="-2.546891000">
        <ele>473.20</ele>
        <time>2017-02-11T09:36:56Z</time>
      </trkpt>
      <trkpt lat="42.434075000" lon="-2.546863000">
        <ele>473.10</ele>
        <time>2017-02-11T09:36:57Z</time>
      </trkpt>
      <trkpt lat="42.434051000" lon="-2.546830000">
        <ele>473.10</ele>
        <time>2017-02-11T09:36:58Z</time>
      </trkpt>
      <trkpt lat="42.434024000" lon="-2.546796000">
        <ele>473.00</ele>
        <time>2017-02-11T09:36:59Z</time>
      </trkpt>
      <trkpt lat="42.433976000" lon="-2.546722000">
        <ele>473.40</ele>
        <time>2017-02-11T09:37:01Z</time>
      </trkpt>
      <trkpt lat="42.433952000" lon="-2.546688000">
        <ele>473.30</ele>
        <time>2017-02-11T09:37:02Z</time>
      </trkpt>
      <trkpt lat="42.433932000" lon="-2.546649000">
        <ele>473.20</ele>
        <time>2017-02-11T09:37:03Z</time>
      </trkpt>
      <trkpt lat="42.433914000" lon="-2.546612000">
        <ele>473.10</ele>
        <time>2017-02-11T09:37:04Z</time>
      </trkpt>
      <trkpt lat="42.433897000" lon="-2.546576000">
        <ele>473.10</ele>
        <time>2017-02-11T09:37:05Z</time>
      </trkpt>
      <trkpt lat="42.433880000" lon="-2.546541000">
        <ele>473.10</ele>
        <time>2017-02-11T09:37:06Z</time>
      </trkpt>
      <trkpt lat="42.433864000" lon="-2.546503000">
        <ele>473.00</ele>
        <time>2017-02-11T09:37:07Z</time>
      </trkpt>
      <trkpt lat="42.433850000" lon="-2.546463000">
        <ele>473.30</ele>
        <time>2017-02-11T09:37:08Z</time>
      </trkpt>
      <trkpt lat="42.433834000" lon="-2.546423000">
        <ele>473.40</ele>
        <time>2017-02-11T09:37:09Z</time>
      </trkpt>
      <trkpt lat="42.433818000" lon="-2.546383000">
        <ele>473.60</ele>
        <time>2017-02-11T09:37:10Z</time>
      </trkpt>
      <trkpt lat="42.433803000" lon="-2.546342000">
        <ele>473.70</ele>
        <time>2017-02-11T09:37:11Z</time>
      </trkpt>
      <trkpt lat="42.433789000" lon="-2.546301000">
        <ele>473.90</ele>
        <time>2017-02-11T09:37:12Z</time>
      </trkpt>
      <trkpt lat="42.433779000" lon="-2.546262000">
        <ele>474.00</ele>
        <time>2017-02-11T09:37:13Z</time>
      </trkpt>
      <trkpt lat="42.433767000" lon="-2.546226000">
        <ele>474.30</ele>
        <time>2017-02-11T09:37:14Z</time>
      </trkpt>
      <trkpt lat="42.433756000" lon="-2.546191000">
        <ele>474.40</ele>
        <time>2017-02-11T09:37:15Z</time>
      </trkpt>
      <trkpt lat="42.433744000" lon="-2.546159000">
        <ele>475.00</ele>
        <time>2017-02-11T09:37:16Z</time>
      </trkpt>
      <trkpt lat="42.433731000" lon="-2.546124000">
        <ele>475.40</ele>
        <time>2017-02-11T09:37:17Z</time>
      </trkpt>
      <trkpt lat="42.433721000" lon="-2.546090000">
        <ele>475.70</ele>
        <time>2017-02-11T09:37:18Z</time>
      </trkpt>
      <trkpt lat="42.433708000" lon="-2.546061000">
        <ele>476.00</ele>
        <time>2017-02-11T09:37:19Z</time>
      </trkpt>
      <trkpt lat="42.433699000" lon="-2.546027000">
        <ele>476.20</ele>
        <time>2017-02-11T09:37:20Z</time>
      </trkpt>
      <trkpt lat="42.433690000" lon="-2.545993000">
        <ele>476.40</ele>
        <time>2017-02-11T09:37:21Z</time>
      </trkpt>
      <trkpt lat="42.433683000" lon="-2.545959000">
        <ele>476.70</ele>
        <time>2017-02-11T09:37:22Z</time>
      </trkpt>
      <trkpt lat="42.433674000" lon="-2.545927000">
        <ele>476.90</ele>
        <time>2017-02-11T09:37:23Z</time>
      </trkpt>
      <trkpt lat="42.433667000" lon="-2.545895000">
        <ele>477.20</ele>
        <time>2017-02-11T09:37:24Z</time>
      </trkpt>
      <trkpt lat="42.433659000" lon="-2.545860000">
        <ele>477.40</ele>
        <time>2017-02-11T09:37:25Z</time>
      </trkpt>
      <trkpt lat="42.433649000" lon="-2.545827000">
        <ele>477.70</ele>
        <time>2017-02-11T09:37:26Z</time>
      </trkpt>
      <trkpt lat="42.433639000" lon="-2.545796000">
        <ele>478.00</ele>
        <time>2017-02-11T09:37:27Z</time>
      </trkpt>
      <trkpt lat="42.433633000" lon="-2.545767000">
        <ele>478.10</ele>
        <time>2017-02-11T09:37:28Z</time>
      </trkpt>
      <trkpt lat="42.433628000" lon="-2.545738000">
        <ele>478.30</ele>
        <time>2017-02-11T09:37:29Z</time>
      </trkpt>
      <trkpt lat="42.433622000" lon="-2.545709000">
        <ele>478.60</ele>
        <time>2017-02-11T09:37:30Z</time>
      </trkpt>
      <trkpt lat="42.433617000" lon="-2.545678000">
        <ele>478.90</ele>
        <time>2017-02-11T09:37:31Z</time>
      </trkpt>
      <trkpt lat="42.433611000" lon="-2.545641000">
        <ele>479.20</ele>
        <time>2017-02-11T09:37:32Z</time>
      </trkpt>
      <trkpt lat="42.433603000" lon="-2.545607000">
        <ele>479.50</ele>
        <time>2017-02-11T09:37:33Z</time>
      </trkpt>
      <trkpt lat="42.433594000" lon="-2.545575000">
        <ele>479.70</ele>
        <time>2017-02-11T09:37:34Z</time>
      </trkpt>
      <trkpt lat="42.433586000" lon="-2.545546000">
        <ele>479.90</ele>
        <time>2017-02-11T09:37:35Z</time>
      </trkpt>
      <trkpt lat="42.433578000" lon="-2.545516000">
        <ele>480.30</ele>
        <time>2017-02-11T09:37:36Z</time>
      </trkpt>
      <trkpt lat="42.433571000" lon="-2.545490000">
        <ele>480.70</ele>
        <time>2017-02-11T09:37:37Z</time>
      </trkpt>
      <trkpt lat="42.433564000" lon="-2.545460000">
        <ele>480.90</ele>
        <time>2017-02-11T09:37:38Z</time>
      </trkpt>
      <trkpt lat="42.433557000" lon="-2.545437000">
        <ele>481.10</ele>
        <time>2017-02-11T09:37:39Z</time>
      </trkpt>
      <trkpt lat="42.433552000" lon="-2.545414000">
        <ele>481.40</ele>
        <time>2017-02-11T09:37:40Z</time>
      </trkpt>
      <trkpt lat="42.433550000" lon="-2.545386000">
        <ele>481.70</ele>
        <time>2017-02-11T09:37:41Z</time>
      </trkpt>
      <trkpt lat="42.433544000" lon="-2.545362000">
        <ele>482.00</ele>
        <time>2017-02-11T09:37:42Z</time>
      </trkpt>
      <trkpt lat="42.433539000" lon="-2.545339000">
        <ele>482.30</ele>
        <time>2017-02-11T09:37:43Z</time>
      </trkpt>
      <trkpt lat="42.433537000" lon="-2.545318000">
        <ele>482.40</ele>
        <time>2017-02-11T09:37:44Z</time>
      </trkpt>
      <trkpt lat="42.433534000" lon="-2.545295000">
        <ele>482.60</ele>
        <time>2017-02-11T09:37:45Z</time>
      </trkpt>
      <trkpt lat="42.433527000" lon="-2.545275000">
        <ele>482.70</ele>
        <time>2017-02-11T09:37:46Z</time>
      </trkpt>
      <trkpt lat="42.433523000" lon="-2.545252000">
        <ele>482.90</ele>
        <time>2017-02-11T09:37:47Z</time>
      </trkpt>
      <trkpt lat="42.433517000" lon="-2.545230000">
        <ele>483.00</ele>
        <time>2017-02-11T09:37:48Z</time>
      </trkpt>
      <trkpt lat="42.433514000" lon="-2.545209000">
        <ele>483.00</ele>
        <time>2017-02-11T09:37:49Z</time>
      </trkpt>
      <trkpt lat="42.433510000" lon="-2.545193000">
        <ele>483.10</ele>
        <time>2017-02-11T09:37:50Z</time>
      </trkpt>
      <trkpt lat="42.433503000" lon="-2.545176000">
        <ele>483.20</ele>
        <time>2017-02-11T09:37:51Z</time>
      </trkpt>
      <trkpt lat="42.433498000" lon="-2.545164000">
        <ele>483.20</ele>
        <time>2017-02-11T09:37:52Z</time>
      </trkpt>
      <trkpt lat="42.433494000" lon="-2.545147000">
        <ele>483.20</ele>
        <time>2017-02-11T09:37:53Z</time>
      </trkpt>
      <trkpt lat="42.433487000" lon="-2.545134000">
        <ele>483.20</ele>
        <time>2017-02-11T09:37:54Z</time>
      </trkpt>
      <trkpt lat="42.433483000" lon="-2.545121000">
        <ele>483.20</ele>
        <time>2017-02-11T09:37:55Z</time>
      </trkpt>
      <trkpt lat="42.433478000" lon="-2.545108000">
        <ele>483.20</ele>
        <time>2017-02-11T09:37:56Z</time>
      </trkpt>
      <trkpt lat="42.433470000" lon="-2.545100000">
        <ele>483.20</ele>
        <time>2017-02-11T09:37:57Z</time>
      </trkpt>
      <trkpt lat="42.433456000" lon="-2.545093000">
        <ele>483.40</ele>
        <time>2017-02-11T09:37:58Z</time>
      </trkpt>
      <trkpt lat="42.433444000" lon="-2.545088000">
        <ele>483.60</ele>
        <time>2017-02-11T09:37:59Z</time>
      </trkpt>
      <trkpt lat="42.433429000" lon="-2.545085000">
        <ele>483.80</ele>
        <time>2017-02-11T09:38:00Z</time>
      </trkpt>
      <trkpt lat="42.433398000" lon="-2.545084000">
        <ele>484.00</ele>
        <time>2017-02-11T09:38:02Z</time>
      </trkpt>
      <trkpt lat="42.433384000" lon="-2.545083000">
        <ele>484.00</ele>
        <time>2017-02-11T09:38:03Z</time>
      </trkpt>
      <trkpt lat="42.433368000" lon="-2.545087000">
        <ele>484.10</ele>
        <time>2017-02-11T09:38:04Z</time>
      </trkpt>
      <trkpt lat="42.433351000" lon="-2.545094000">
        <ele>484.20</ele>
        <time>2017-02-11T09:38:05Z</time>
      </trkpt>
      <trkpt lat="42.433332000" lon="-2.545108000">
        <ele>484.20</ele>
        <time>2017-02-11T09:38:06Z</time>
      </trkpt>
      <trkpt lat="42.433319000" lon="-2.545126000">
        <ele>484.30</ele>
        <time>2017-02-11T09:38:07Z</time>
      </trkpt>
      <trkpt lat="42.433304000" lon="-2.545137000">
        <ele>484.50</ele>
        <time>2017-02-11T09:38:08Z</time>
      </trkpt>
      <trkpt lat="42.433285000" lon="-2.545141000">
        <ele>484.60</ele>
        <time>2017-02-11T09:38:09Z</time>
      </trkpt>
      <trkpt lat="42.433265000" lon="-2.545151000">
        <ele>484.80</ele>
        <time>2017-02-11T09:38:10Z</time>
      </trkpt>
      <trkpt lat="42.433244000" lon="-2.545168000">
        <ele>484.90</ele>
        <time>2017-02-11T09:38:11Z</time>
      </trkpt>
      <trkpt lat="42.433223000" lon="-2.545182000">
        <ele>484.90</ele>
        <time>2017-02-11T09:38:12Z</time>
      </trkpt>
      <trkpt lat="42.433203000" lon="-2.545201000">
        <ele>485.00</ele>
        <time>2017-02-11T09:38:13Z</time>
      </trkpt>
      <trkpt lat="42.433180000" lon="-2.545213000">
        <ele>485.10</ele>
        <time>2017-02-11T09:38:14Z</time>
      </trkpt>
      <trkpt lat="42.433160000" lon="-2.545226000">
        <ele>485.20</ele>
        <time>2017-02-11T09:38:15Z</time>
      </trkpt>
      <trkpt lat="42.433139000" lon="-2.545242000">
        <ele>485.20</ele>
        <time>2017-02-11T09:38:16Z</time>
      </trkpt>
      <trkpt lat="42.433115000" lon="-2.545261000">
        <ele>485.30</ele>
        <time>2017-02-11T09:38:17Z</time>
      </trkpt>
      <trkpt lat="42.433097000" lon="-2.545277000">
        <ele>485.40</ele>
        <time>2017-02-11T09:38:18Z</time>
      </trkpt>
      <trkpt lat="42.433075000" lon="-2.545291000">
        <ele>485.50</ele>
        <time>2017-02-11T09:38:19Z</time>
      </trkpt>
      <trkpt lat="42.433053000" lon="-2.545304000">
        <ele>485.50</ele>
        <time>2017-02-11T09:38:20Z</time>
      </trkpt>
      <trkpt lat="42.433030000" lon="-2.545322000">
        <ele>485.50</ele>
        <time>2017-02-11T09:38:21Z</time>
      </trkpt>
      <trkpt lat="42.433007000" lon="-2.545341000">
        <ele>485.60</ele>
        <time>2017-02-11T09:38:22Z</time>
      </trkpt>
      <trkpt lat="42.432982000" lon="-2.545361000">
        <ele>485.60</ele>
        <time>2017-02-11T09:38:23Z</time>
      </trkpt>
      <trkpt lat="42.432957000" lon="-2.545383000">
        <ele>485.60</ele>
        <time>2017-02-11T09:38:24Z</time>
      </trkpt>
      <trkpt lat="42.432929000" lon="-2.545401000">
        <ele>485.60</ele>
        <time>2017-02-11T09:38:25Z</time>
      </trkpt>
      <trkpt lat="42.432899000" lon="-2.545419000">
        <ele>485.60</ele>
        <time>2017-02-11T09:38:26Z</time>
      </trkpt>
      <trkpt lat="42.432869000" lon="-2.545439000">
        <ele>485.70</ele>
        <time>2017-02-11T09:38:27Z</time>
      </trkpt>
      <trkpt lat="42.432836000" lon="-2.545464000">
        <ele>485.70</ele>
        <time>2017-02-11T09:38:28Z</time>
      </trkpt>
      <trkpt lat="42.432800000" lon="-2.545487000">
        <ele>485.70</ele>
        <time>2017-02-11T09:38:29Z</time>
      </trkpt>
      <trkpt lat="42.432764000" lon="-2.545515000">
        <ele>485.60</ele>
        <time>2017-02-11T09:38:30Z</time>
      </trkpt>
      <trkpt lat="42.432731000" lon="-2.545540000">
        <ele>485.60</ele>
        <time>2017-02-11T09:38:31Z</time>
      </trkpt>
      <trkpt lat="42.432692000" lon="-2.545565000">
        <ele>485.20</ele>
        <time>2017-02-11T09:38:32Z</time>
      </trkpt>
      <trkpt lat="42.432655000" lon="-2.545591000">
        <ele>484.90</ele>
        <time>2017-02-11T09:38:33Z</time>
      </trkpt>
      <trkpt lat="42.432613000" lon="-2.545614000">
        <ele>484.70</ele>
        <time>2017-02-11T09:38:34Z</time>
      </trkpt>
      <trkpt lat="42.432571000" lon="-2.545643000">
        <ele>484.60</ele>
        <time>2017-02-11T09:38:35Z</time>
      </trkpt>
      <trkpt lat="42.432526000" lon="-2.545674000">
        <ele>484.10</ele>
        <time>2017-02-11T09:38:36Z</time>
      </trkpt>
      <trkpt lat="42.432481000" lon="-2.545705000">
        <ele>483.70</ele>
        <time>2017-02-11T09:38:37Z</time>
      </trkpt>
      <trkpt lat="42.432435000" lon="-2.545740000">
        <ele>483.30</ele>
        <time>2017-02-11T09:38:38Z</time>
      </trkpt>
      <trkpt lat="42.432390000" lon="-2.545775000">
        <ele>483.00</ele>
        <time>2017-02-11T09:38:39Z</time>
      </trkpt>
      <trkpt lat="42.432339000" lon="-2.545816000">
        <ele>482.30</ele>
        <time>2017-02-11T09:38:40Z</time>
      </trkpt>
      <trkpt lat="42.432290000" lon="-2.545851000">
        <ele>481.80</ele>
        <time>2017-02-11T09:38:41Z</time>
      </trkpt>
      <trkpt lat="42.432248000" lon="-2.545882000">
        <ele>481.30</ele>
        <time>2017-02-11T09:38:42Z</time>
      </trkpt>
      <trkpt lat="42.432206000" lon="-2.545906000">
        <ele>480.90</ele>
        <time>2017-02-11T09:38:43Z</time>
      </trkpt>
      <trkpt lat="42.432164000" lon="-2.545910000">
        <ele>480.40</ele>
        <time>2017-02-11T09:38:44Z</time>
      </trkpt>
      <trkpt lat="42.432121000" lon="-2.545882000">
        <ele>480.10</ele>
        <time>2017-02-11T09:38:45Z</time>
      </trkpt>
      <trkpt lat="42.432084000" lon="-2.545835000">
        <ele>479.80</ele>
        <time>2017-02-11T09:38:46Z</time>
      </trkpt>
      <trkpt lat="42.432047000" lon="-2.545785000">
        <ele>479.60</ele>
        <time>2017-02-11T09:38:47Z</time>
      </trkpt>
      <trkpt lat="42.432008000" lon="-2.545739000">
        <ele>479.30</ele>
        <time>2017-02-11T09:38:48Z</time>
      </trkpt>
      <trkpt lat="42.431964000" lon="-2.545702000">
        <ele>479.10</ele>
        <time>2017-02-11T09:38:49Z</time>
      </trkpt>
      <trkpt lat="42.431915000" lon="-2.545679000">
        <ele>479.00</ele>
        <time>2017-02-11T09:38:50Z</time>
      </trkpt>
      <trkpt lat="42.431861000" lon="-2.545671000">
        <ele>478.90</ele>
        <time>2017-02-11T09:38:51Z</time>
      </trkpt>
      <trkpt lat="42.431806000" lon="-2.545674000">
        <ele>478.80</ele>
        <time>2017-02-11T09:38:52Z</time>
      </trkpt>
      <trkpt lat="42.431748000" lon="-2.545681000">
        <ele>478.70</ele>
        <time>2017-02-11T09:38:53Z</time>
      </trkpt>
      <trkpt lat="42.431691000" lon="-2.545684000">
        <ele>478.40</ele>
        <time>2017-02-11T09:38:54Z</time>
      </trkpt>
      <trkpt lat="42.431635000" lon="-2.545693000">
        <ele>478.10</ele>
        <time>2017-02-11T09:38:55Z</time>
      </trkpt>
      <trkpt lat="42.431582000" lon="-2.545703000">
        <ele>477.90</ele>
        <time>2017-02-11T09:38:56Z</time>
      </trkpt>
      <trkpt lat="42.431532000" lon="-2.545716000">
        <ele>477.70</ele>
        <time>2017-02-11T09:38:57Z</time>
      </trkpt>
      <trkpt lat="42.431481000" lon="-2.545728000">
        <ele>477.60</ele>
        <time>2017-02-11T09:38:58Z</time>
      </trkpt>
      <trkpt lat="42.431429000" lon="-2.545741000">
        <ele>477.50</ele>
        <time>2017-02-11T09:38:59Z</time>
      </trkpt>
      <trkpt lat="42.431376000" lon="-2.545754000">
        <ele>477.60</ele>
        <time>2017-02-11T09:39:00Z</time>
      </trkpt>
      <trkpt lat="42.431324000" lon="-2.545767000">
        <ele>477.70</ele>
        <time>2017-02-11T09:39:01Z</time>
      </trkpt>
      <trkpt lat="42.431218000" lon="-2.545793000">
        <ele>477.80</ele>
        <time>2017-02-11T09:39:03Z</time>
      </trkpt>
      <trkpt lat="42.431163000" lon="-2.545804000">
        <ele>477.80</ele>
        <time>2017-02-11T09:39:04Z</time>
      </trkpt>
      <trkpt lat="42.431107000" lon="-2.545813000">
        <ele>477.80</ele>
        <time>2017-02-11T09:39:05Z</time>
      </trkpt>
      <trkpt lat="42.431052000" lon="-2.545815000">
        <ele>477.90</ele>
        <time>2017-02-11T09:39:06Z</time>
      </trkpt>
      <trkpt lat="42.430996000" lon="-2.545814000">
        <ele>477.90</ele>
        <time>2017-02-11T09:39:07Z</time>
      </trkpt>
      <trkpt lat="42.430943000" lon="-2.545814000">
        <ele>478.00</ele>
        <time>2017-02-11T09:39:08Z</time>
      </trkpt>
      <trkpt lat="42.430890000" lon="-2.545813000">
        <ele>478.00</ele>
        <time>2017-02-11T09:39:09Z</time>
      </trkpt>
      <trkpt lat="42.430836000" lon="-2.545817000">
        <ele>478.00</ele>
        <time>2017-02-11T09:39:10Z</time>
      </trkpt>
      <trkpt lat="42.430784000" lon="-2.545818000">
        <ele>478.00</ele>
        <time>2017-02-11T09:39:11Z</time>
      </trkpt>
      <trkpt lat="42.430734000" lon="-2.545818000">
        <ele>477.90</ele>
        <time>2017-02-11T09:39:12Z</time>
      </trkpt>
      <trkpt lat="42.430684000" lon="-2.545820000">
        <ele>477.80</ele>
        <time>2017-02-11T09:39:13Z</time>
      </trkpt>
      <trkpt lat="42.430636000" lon="-2.545821000">
        <ele>477.60</ele>
        <time>2017-02-11T09:39:14Z</time>
      </trkpt>
      <trkpt lat="42.430590000" lon="-2.545823000">
        <ele>477.50</ele>
        <time>2017-02-11T09:39:15Z</time>
      </trkpt>
      <trkpt lat="42.430544000" lon="-2.545825000">
        <ele>477.40</ele>
        <time>2017-02-11T09:39:16Z</time>
      </trkpt>
      <trkpt lat="42.430502000" lon="-2.545829000">
        <ele>477.30</ele>
        <time>2017-02-11T09:39:17Z</time>
      </trkpt>
      <trkpt lat="42.430460000" lon="-2.545829000">
        <ele>477.30</ele>
        <time>2017-02-11T09:39:18Z</time>
      </trkpt>
      <trkpt lat="42.430418000" lon="-2.545828000">
        <ele>477.20</ele>
        <time>2017-02-11T09:39:19Z</time>
      </trkpt>
      <trkpt lat="42.430374000" lon="-2.545830000">
        <ele>477.30</ele>
        <time>2017-02-11T09:39:20Z</time>
      </trkpt>
      <trkpt lat="42.430331000" lon="-2.545832000">
        <ele>477.30</ele>
        <time>2017-02-11T09:39:21Z</time>
      </trkpt>
      <trkpt lat="42.430287000" lon="-2.545833000">
        <ele>477.30</ele>
        <time>2017-02-11T09:39:22Z</time>
      </trkpt>
      <trkpt lat="42.430243000" lon="-2.545836000">
        <ele>477.30</ele>
        <time>2017-02-11T09:39:23Z</time>
      </trkpt>
      <trkpt lat="42.430197000" lon="-2.545839000">
        <ele>477.20</ele>
        <time>2017-02-11T09:39:24Z</time>
      </trkpt>
      <trkpt lat="42.430153000" lon="-2.545840000">
        <ele>477.10</ele>
        <time>2017-02-11T09:39:25Z</time>
      </trkpt>
      <trkpt lat="42.430110000" lon="-2.545840000">
        <ele>477.00</ele>
        <time>2017-02-11T09:39:26Z</time>
      </trkpt>
      <trkpt lat="42.430067000" lon="-2.545840000">
        <ele>477.00</ele>
        <time>2017-02-11T09:39:27Z</time>
      </trkpt>
      <trkpt lat="42.430024000" lon="-2.545839000">
        <ele>477.30</ele>
        <time>2017-02-11T09:39:28Z</time>
      </trkpt>
      <trkpt lat="42.429982000" lon="-2.545838000">
        <ele>477.50</ele>
        <time>2017-02-11T09:39:29Z</time>
      </trkpt>
      <trkpt lat="42.429941000" lon="-2.545839000">
        <ele>477.60</ele>
        <time>2017-02-11T09:39:30Z</time>
      </trkpt>
      <trkpt lat="42.429898000" lon="-2.545839000">
        <ele>477.70</ele>
        <time>2017-02-11T09:39:31Z</time>
      </trkpt>
      <trkpt lat="42.429854000" lon="-2.545838000">
        <ele>477.80</ele>
        <time>2017-02-11T09:39:32Z</time>
      </trkpt>
      <trkpt lat="42.429808000" lon="-2.545841000">
        <ele>477.90</ele>
        <time>2017-02-11T09:39:33Z</time>
      </trkpt>
      <trkpt lat="42.429763000" lon="-2.545847000">
        <ele>477.90</ele>
        <time>2017-02-11T09:39:34Z</time>
      </trkpt>
      <trkpt lat="42.429719000" lon="-2.545848000">
        <ele>477.90</ele>
        <time>2017-02-11T09:39:35Z</time>
      </trkpt>
      <trkpt lat="42.429673000" lon="-2.545850000">
        <ele>477.60</ele>
        <time>2017-02-11T09:39:36Z</time>
      </trkpt>
      <trkpt lat="42.429628000" lon="-2.545856000">
        <ele>477.40</ele>
        <time>2017-02-11T09:39:37Z</time>
      </trkpt>
      <trkpt lat="42.429582000" lon="-2.545865000">
        <ele>477.20</ele>
        <time>2017-02-11T09:39:38Z</time>
      </trkpt>
      <trkpt lat="42.429538000" lon="-2.545882000">
        <ele>477.10</ele>
        <time>2017-02-11T09:39:39Z</time>
      </trkpt>
      <trkpt lat="42.429495000" lon="-2.545896000">
        <ele>476.90</ele>
        <time>2017-02-11T09:39:40Z</time>
      </trkpt>
      <trkpt lat="42.429452000" lon="-2.545911000">
        <ele>476.70</ele>
        <time>2017-02-11T09:39:41Z</time>
      </trkpt>
      <trkpt lat="42.429410000" lon="-2.545920000">
        <ele>476.60</ele>
        <time>2017-02-11T09:39:42Z</time>
      </trkpt>
      <trkpt lat="42.429368000" lon="-2.545930000">
        <ele>476.60</ele>
        <time>2017-02-11T09:39:43Z</time>
      </trkpt>
      <trkpt lat="42.429326000" lon="-2.545944000">
        <ele>476.60</ele>
        <time>2017-02-11T09:39:44Z</time>
      </trkpt>
      <trkpt lat="42.429282000" lon="-2.545956000">
        <ele>476.50</ele>
        <time>2017-02-11T09:39:45Z</time>
      </trkpt>
      <trkpt lat="42.429238000" lon="-2.545969000">
        <ele>476.60</ele>
        <time>2017-02-11T09:39:46Z</time>
      </trkpt>
      <trkpt lat="42.429193000" lon="-2.545972000">
        <ele>476.70</ele>
        <time>2017-02-11T09:39:47Z</time>
      </trkpt>
      <trkpt lat="42.429147000" lon="-2.545976000">
        <ele>476.60</ele>
        <time>2017-02-11T09:39:48Z</time>
      </trkpt>
      <trkpt lat="42.429104000" lon="-2.545976000">
        <ele>476.60</ele>
        <time>2017-02-11T09:39:49Z</time>
      </trkpt>
      <trkpt lat="42.429060000" lon="-2.545971000">
        <ele>476.70</ele>
        <time>2017-02-11T09:39:50Z</time>
      </trkpt>
      <trkpt lat="42.429015000" lon="-2.545964000">
        <ele>476.80</ele>
        <time>2017-02-11T09:39:51Z</time>
      </trkpt>
      <trkpt lat="42.428971000" lon="-2.545958000">
        <ele>476.90</ele>
        <time>2017-02-11T09:39:52Z</time>
      </trkpt>
      <trkpt lat="42.428926000" lon="-2.545947000">
        <ele>477.00</ele>
        <time>2017-02-11T09:39:53Z</time>
      </trkpt>
      <trkpt lat="42.428881000" lon="-2.545937000">
        <ele>477.20</ele>
        <time>2017-02-11T09:39:54Z</time>
      </trkpt>
      <trkpt lat="42.428837000" lon="-2.545927000">
        <ele>477.30</ele>
        <time>2017-02-11T09:39:55Z</time>
      </trkpt>
      <trkpt lat="42.428795000" lon="-2.545911000">
        <ele>477.50</ele>
        <time>2017-02-11T09:39:56Z</time>
      </trkpt>
      <trkpt lat="42.428753000" lon="-2.545893000">
        <ele>477.60</ele>
        <time>2017-02-11T09:39:57Z</time>
      </trkpt>
      <trkpt lat="42.428708000" lon="-2.545881000">
        <ele>477.80</ele>
        <time>2017-02-11T09:39:58Z</time>
      </trkpt>
      <trkpt lat="42.428665000" lon="-2.545869000">
        <ele>477.90</ele>
        <time>2017-02-11T09:39:59Z</time>
      </trkpt>
      <trkpt lat="42.428622000" lon="-2.545858000">
        <ele>478.00</ele>
        <time>2017-02-11T09:40:00Z</time>
      </trkpt>
      <trkpt lat="42.428579000" lon="-2.545845000">
        <ele>478.10</ele>
        <time>2017-02-11T09:40:01Z</time>
      </trkpt>
      <trkpt lat="42.428536000" lon="-2.545832000">
        <ele>478.20</ele>
        <time>2017-02-11T09:40:02Z</time>
      </trkpt>
      <trkpt lat="42.428446000" lon="-2.545814000">
        <ele>478.30</ele>
        <time>2017-02-11T09:40:04Z</time>
      </trkpt>
      <trkpt lat="42.428401000" lon="-2.545802000">
        <ele>478.40</ele>
        <time>2017-02-11T09:40:05Z</time>
      </trkpt>
      <trkpt lat="42.428356000" lon="-2.545790000">
        <ele>478.40</ele>
        <time>2017-02-11T09:40:06Z</time>
      </trkpt>
      <trkpt lat="42.428310000" lon="-2.545779000">
        <ele>478.40</ele>
        <time>2017-02-11T09:40:07Z</time>
      </trkpt>
      <trkpt lat="42.428265000" lon="-2.545768000">
        <ele>478.40</ele>
        <time>2017-02-11T09:40:08Z</time>
      </trkpt>
      <trkpt lat="42.428218000" lon="-2.545757000">
        <ele>478.40</ele>
        <time>2017-02-11T09:40:09Z</time>
      </trkpt>
      <trkpt lat="42.428170000" lon="-2.545747000">
        <ele>478.40</ele>
        <time>2017-02-11T09:40:10Z</time>
      </trkpt>
      <trkpt lat="42.428122000" lon="-2.545739000">
        <ele>478.40</ele>
        <time>2017-02-11T09:40:11Z</time>
      </trkpt>
      <trkpt lat="42.428075000" lon="-2.545731000">
        <ele>478.60</ele>
        <time>2017-02-11T09:40:12Z</time>
      </trkpt>
      <trkpt lat="42.428030000" lon="-2.545722000">
        <ele>478.70</ele>
        <time>2017-02-11T09:40:13Z</time>
      </trkpt>
      <trkpt lat="42.427984000" lon="-2.545713000">
        <ele>478.90</ele>
        <time>2017-02-11T09:40:14Z</time>
      </trkpt>
      <trkpt lat="42.427940000" lon="-2.545703000">
        <ele>479.00</ele>
        <time>2017-02-11T09:40:15Z</time>
      </trkpt>
      <trkpt lat="42.427895000" lon="-2.545693000">
        <ele>478.80</ele>
        <time>2017-02-11T09:40:16Z</time>
      </trkpt>
      <trkpt lat="42.427847000" lon="-2.545686000">
        <ele>478.70</ele>
        <time>2017-02-11T09:40:17Z</time>
      </trkpt>
      <trkpt lat="42.427801000" lon="-2.545684000">
        <ele>478.60</ele>
        <time>2017-02-11T09:40:18Z</time>
      </trkpt>
      <trkpt lat="42.427756000" lon="-2.545678000">
        <ele>478.50</ele>
        <time>2017-02-11T09:40:19Z</time>
      </trkpt>
      <trkpt lat="42.427712000" lon="-2.545673000">
        <ele>478.30</ele>
        <time>2017-02-11T09:40:20Z</time>
      </trkpt>
      <trkpt lat="42.427672000" lon="-2.545670000">
        <ele>478.20</ele>
        <time>2017-02-11T09:40:21Z</time>
      </trkpt>
      <trkpt lat="42.427630000" lon="-2.545670000">
        <ele>478.10</ele>
        <time>2017-02-11T09:40:22Z</time>
      </trkpt>
      <trkpt lat="42.427590000" lon="-2.545671000">
        <ele>478.00</ele>
        <time>2017-02-11T09:40:23Z</time>
      </trkpt>
      <trkpt lat="42.427548000" lon="-2.545672000">
        <ele>478.10</ele>
        <time>2017-02-11T09:40:24Z</time>
      </trkpt>
      <trkpt lat="42.427508000" lon="-2.545677000">
        <ele>478.20</ele>
        <time>2017-02-11T09:40:25Z</time>
      </trkpt>
      <trkpt lat="42.427467000" lon="-2.545677000">
        <ele>478.30</ele>
        <time>2017-02-11T09:40:26Z</time>
      </trkpt>
      <trkpt lat="42.427425000" lon="-2.545679000">
        <ele>478.40</ele>
        <time>2017-02-11T09:40:27Z</time>
      </trkpt>
      <trkpt lat="42.427387000" lon="-2.545683000">
        <ele>478.50</ele>
        <time>2017-02-11T09:40:28Z</time>
      </trkpt>
      <trkpt lat="42.427349000" lon="-2.545688000">
        <ele>478.50</ele>
        <time>2017-02-11T09:40:29Z</time>
      </trkpt>
      <trkpt lat="42.427312000" lon="-2.545693000">
        <ele>478.60</ele>
        <time>2017-02-11T09:40:30Z</time>
      </trkpt>
      <trkpt lat="42.427276000" lon="-2.545698000">
        <ele>478.60</ele>
        <time>2017-02-11T09:40:31Z</time>
      </trkpt>
      <trkpt lat="42.427240000" lon="-2.545704000">
        <ele>478.70</ele>
        <time>2017-02-11T09:40:32Z</time>
      </trkpt>
      <trkpt lat="42.427208000" lon="-2.545711000">
        <ele>478.80</ele>
        <time>2017-02-11T09:40:33Z</time>
      </trkpt>
      <trkpt lat="42.427177000" lon="-2.545724000">
        <ele>478.80</ele>
        <time>2017-02-11T09:40:34Z</time>
      </trkpt>
      <trkpt lat="42.427146000" lon="-2.545744000">
        <ele>478.90</ele>
        <time>2017-02-11T09:40:35Z</time>
      </trkpt>
      <trkpt lat="42.427115000" lon="-2.545767000">
        <ele>478.90</ele>
        <time>2017-02-11T09:40:36Z</time>
      </trkpt>
      <trkpt lat="42.427080000" lon="-2.545786000">
        <ele>478.90</ele>
        <time>2017-02-11T09:40:37Z</time>
      </trkpt>
      <trkpt lat="42.427045000" lon="-2.545805000">
        <ele>478.80</ele>
        <time>2017-02-11T09:40:38Z</time>
      </trkpt>
      <trkpt lat="42.427004000" lon="-2.545810000">
        <ele>478.80</ele>
        <time>2017-02-11T09:40:39Z</time>
      </trkpt>
      <trkpt lat="42.426962000" lon="-2.545806000">
        <ele>478.90</ele>
        <time>2017-02-11T09:40:40Z</time>
      </trkpt>
      <trkpt lat="42.426921000" lon="-2.545795000">
        <ele>479.00</ele>
        <time>2017-02-11T09:40:41Z</time>
      </trkpt>
      <trkpt lat="42.426883000" lon="-2.545774000">
        <ele>479.10</ele>
        <time>2017-02-11T09:40:42Z</time>
      </trkpt>
      <trkpt lat="42.426843000" lon="-2.545750000">
        <ele>479.20</ele>
        <time>2017-02-11T09:40:43Z</time>
      </trkpt>
      <trkpt lat="42.426804000" lon="-2.545731000">
        <ele>479.30</ele>
        <time>2017-02-11T09:40:44Z</time>
      </trkpt>
      <trkpt lat="42.426765000" lon="-2.545713000">
        <ele>479.30</ele>
        <time>2017-02-11T09:40:45Z</time>
      </trkpt>
      <trkpt lat="42.426724000" lon="-2.545696000">
        <ele>479.40</ele>
        <time>2017-02-11T09:40:46Z</time>
      </trkpt>
      <trkpt lat="42.426683000" lon="-2.545683000">
        <ele>479.40</ele>
        <time>2017-02-11T09:40:47Z</time>
      </trkpt>
      <trkpt lat="42.426642000" lon="-2.545666000">
        <ele>479.40</ele>
        <time>2017-02-11T09:40:48Z</time>
      </trkpt>
      <trkpt lat="42.426602000" lon="-2.545650000">
        <ele>479.40</ele>
        <time>2017-02-11T09:40:49Z</time>
      </trkpt>
      <trkpt lat="42.426563000" lon="-2.545634000">
        <ele>479.40</ele>
        <time>2017-02-11T09:40:50Z</time>
      </trkpt>
      <trkpt lat="42.426524000" lon="-2.545623000">
        <ele>479.50</ele>
        <time>2017-02-11T09:40:51Z</time>
      </trkpt>
      <trkpt lat="42.426484000" lon="-2.545610000">
        <ele>479.60</ele>
        <time>2017-02-11T09:40:52Z</time>
      </trkpt>
      <trkpt lat="42.426448000" lon="-2.545596000">
        <ele>479.80</ele>
        <time>2017-02-11T09:40:53Z</time>
      </trkpt>
      <trkpt lat="42.426411000" lon="-2.545585000">
        <ele>479.90</ele>
        <time>2017-02-11T09:40:54Z</time>
      </trkpt>
      <trkpt lat="42.426377000" lon="-2.545574000">
        <ele>480.10</ele>
        <time>2017-02-11T09:40:55Z</time>
      </trkpt>
      <trkpt lat="42.426342000" lon="-2.545566000">
        <ele>480.20</ele>
        <time>2017-02-11T09:40:56Z</time>
      </trkpt>
      <trkpt lat="42.426308000" lon="-2.545556000">
        <ele>480.20</ele>
        <time>2017-02-11T09:40:57Z</time>
      </trkpt>
      <trkpt lat="42.426276000" lon="-2.545544000">
        <ele>480.20</ele>
        <time>2017-02-11T09:40:58Z</time>
      </trkpt>
      <trkpt lat="42.426240000" lon="-2.545530000">
        <ele>480.10</ele>
        <time>2017-02-11T09:40:59Z</time>
      </trkpt>
      <trkpt lat="42.426204000" lon="-2.545514000">
        <ele>480.10</ele>
        <time>2017-02-11T09:41:00Z</time>
      </trkpt>
      <trkpt lat="42.426168000" lon="-2.545500000">
        <ele>480.00</ele>
        <time>2017-02-11T09:41:01Z</time>
      </trkpt>
      <trkpt lat="42.426130000" lon="-2.545486000">
        <ele>480.00</ele>
        <time>2017-02-11T09:41:02Z</time>
      </trkpt>
      <trkpt lat="42.426094000" lon="-2.545471000">
        <ele>480.00</ele>
        <time>2017-02-11T09:41:03Z</time>
      </trkpt>
      <trkpt lat="42.426016000" lon="-2.545440000">
        <ele>480.30</ele>
        <time>2017-02-11T09:41:05Z</time>
      </trkpt>
      <trkpt lat="42.425978000" lon="-2.545424000">
        <ele>480.50</ele>
        <time>2017-02-11T09:41:06Z</time>
      </trkpt>
      <trkpt lat="42.425942000" lon="-2.545410000">
        <ele>480.70</ele>
        <time>2017-02-11T09:41:07Z</time>
      </trkpt>
      <trkpt lat="42.425902000" lon="-2.545395000">
        <ele>480.80</ele>
        <time>2017-02-11T09:41:08Z</time>
      </trkpt>
      <trkpt lat="42.425863000" lon="-2.545385000">
        <ele>480.90</ele>
        <time>2017-02-11T09:41:09Z</time>
      </trkpt>
      <trkpt lat="42.425824000" lon="-2.545376000">
        <ele>481.00</ele>
        <time>2017-02-11T09:41:10Z</time>
      </trkpt>
      <trkpt lat="42.425785000" lon="-2.545365000">
        <ele>481.00</ele>
        <time>2017-02-11T09:41:11Z</time>
      </trkpt>
      <trkpt lat="42.425745000" lon="-2.545352000">
        <ele>480.90</ele>
        <time>2017-02-11T09:41:12Z</time>
      </trkpt>
      <trkpt lat="42.425707000" lon="-2.545342000">
        <ele>480.80</ele>
        <time>2017-02-11T09:41:13Z</time>
      </trkpt>
      <trkpt lat="42.425668000" lon="-2.545327000">
        <ele>480.70</ele>
        <time>2017-02-11T09:41:14Z</time>
      </trkpt>
      <trkpt lat="42.425627000" lon="-2.545312000">
        <ele>480.60</ele>
        <time>2017-02-11T09:41:15Z</time>
      </trkpt>
      <trkpt lat="42.425590000" lon="-2.545293000">
        <ele>480.70</ele>
        <time>2017-02-11T09:41:16Z</time>
      </trkpt>
      <trkpt lat="42.425552000" lon="-2.545271000">
        <ele>480.80</ele>
        <time>2017-02-11T09:41:17Z</time>
      </trkpt>
      <trkpt lat="42.425514000" lon="-2.545249000">
        <ele>481.00</ele>
        <time>2017-02-11T09:41:18Z</time>
      </trkpt>
      <trkpt lat="42.425475000" lon="-2.545225000">
        <ele>481.10</ele>
        <time>2017-02-11T09:41:19Z</time>
      </trkpt>
      <trkpt lat="42.425437000" lon="-2.545202000">
        <ele>481.30</ele>
        <time>2017-02-11T09:41:20Z</time>
      </trkpt>
      <trkpt lat="42.425398000" lon="-2.545180000">
        <ele>481.50</ele>
        <time>2017-02-11T09:41:21Z</time>
      </trkpt>
      <trkpt lat="42.425359000" lon="-2.545158000">
        <ele>481.60</ele>
        <time>2017-02-11T09:41:22Z</time>
      </trkpt>
      <trkpt lat="42.425318000" lon="-2.545139000">
        <ele>481.70</ele>
        <time>2017-02-11T09:41:23Z</time>
      </trkpt>
      <trkpt lat="42.425278000" lon="-2.545126000">
        <ele>481.60</ele>
        <time>2017-02-11T09:41:24Z</time>
      </trkpt>
      <trkpt lat="42.425240000" lon="-2.545112000">
        <ele>481.50</ele>
        <time>2017-02-11T09:41:25Z</time>
      </trkpt>
      <trkpt lat="42.425201000" lon="-2.545094000">
        <ele>481.40</ele>
        <time>2017-02-11T09:41:26Z</time>
      </trkpt>
      <trkpt lat="42.425162000" lon="-2.545079000">
        <ele>481.40</ele>
        <time>2017-02-11T09:41:27Z</time>
      </trkpt>
      <trkpt lat="42.425121000" lon="-2.545064000">
        <ele>481.30</ele>
        <time>2017-02-11T09:41:28Z</time>
      </trkpt>
      <trkpt lat="42.425081000" lon="-2.545050000">
        <ele>481.30</ele>
        <time>2017-02-11T09:41:29Z</time>
      </trkpt>
      <trkpt lat="42.425040000" lon="-2.545036000">
        <ele>481.20</ele>
        <time>2017-02-11T09:41:30Z</time>
      </trkpt>
      <trkpt lat="42.424998000" lon="-2.545023000">
        <ele>481.20</ele>
        <time>2017-02-11T09:41:31Z</time>
      </trkpt>
      <trkpt lat="42.424958000" lon="-2.545012000">
        <ele>481.30</ele>
        <time>2017-02-11T09:41:32Z</time>
      </trkpt>
      <trkpt lat="42.424917000" lon="-2.544998000">
        <ele>481.30</ele>
        <time>2017-02-11T09:41:33Z</time>
      </trkpt>
      <trkpt lat="42.424875000" lon="-2.544989000">
        <ele>481.30</ele>
        <time>2017-02-11T09:41:34Z</time>
      </trkpt>
      <trkpt lat="42.424835000" lon="-2.544977000">
        <ele>481.30</ele>
        <time>2017-02-11T09:41:35Z</time>
      </trkpt>
      <trkpt lat="42.424794000" lon="-2.544966000">
        <ele>481.50</ele>
        <time>2017-02-11T09:41:36Z</time>
      </trkpt>
      <trkpt lat="42.424753000" lon="-2.544956000">
        <ele>481.60</ele>
        <time>2017-02-11T09:41:37Z</time>
      </trkpt>
      <trkpt lat="42.424711000" lon="-2.544945000">
        <ele>481.70</ele>
        <time>2017-02-11T09:41:38Z</time>
      </trkpt>
      <trkpt lat="42.424669000" lon="-2.544938000">
        <ele>481.70</ele>
        <time>2017-02-11T09:41:39Z</time>
      </trkpt>
      <trkpt lat="42.424628000" lon="-2.544927000">
        <ele>481.80</ele>
        <time>2017-02-11T09:41:40Z</time>
      </trkpt>
      <trkpt lat="42.424584000" lon="-2.544915000">
        <ele>481.80</ele>
        <time>2017-02-11T09:41:41Z</time>
      </trkpt>
      <trkpt lat="42.424542000" lon="-2.544901000">
        <ele>481.80</ele>
        <time>2017-02-11T09:41:42Z</time>
      </trkpt>
      <trkpt lat="42.424498000" lon="-2.544890000">
        <ele>481.90</ele>
        <time>2017-02-11T09:41:43Z</time>
      </trkpt>
      <trkpt lat="42.424456000" lon="-2.544879000">
        <ele>481.80</ele>
        <time>2017-02-11T09:41:44Z</time>
      </trkpt>
      <trkpt lat="42.424416000" lon="-2.544864000">
        <ele>481.80</ele>
        <time>2017-02-11T09:41:45Z</time>
      </trkpt>
      <trkpt lat="42.424377000" lon="-2.544847000">
        <ele>481.80</ele>
        <time>2017-02-11T09:41:46Z</time>
      </trkpt>
      <trkpt lat="42.424336000" lon="-2.544830000">
        <ele>481.80</ele>
        <time>2017-02-11T09:41:47Z</time>
      </trkpt>
      <trkpt lat="42.424297000" lon="-2.544815000">
        <ele>481.90</ele>
        <time>2017-02-11T09:41:48Z</time>
      </trkpt>
      <trkpt lat="42.424261000" lon="-2.544796000">
        <ele>481.90</ele>
        <time>2017-02-11T09:41:49Z</time>
      </trkpt>
      <trkpt lat="42.424223000" lon="-2.544778000">
        <ele>481.90</ele>
        <time>2017-02-11T09:41:50Z</time>
      </trkpt>
      <trkpt lat="42.424186000" lon="-2.544759000">
        <ele>481.90</ele>
        <time>2017-02-11T09:41:51Z</time>
      </trkpt>
      <trkpt lat="42.424149000" lon="-2.544737000">
        <ele>482.20</ele>
        <time>2017-02-11T09:41:52Z</time>
      </trkpt>
      <trkpt lat="42.424112000" lon="-2.544720000">
        <ele>482.40</ele>
        <time>2017-02-11T09:41:53Z</time>
      </trkpt>
      <trkpt lat="42.424077000" lon="-2.544704000">
        <ele>482.60</ele>
        <time>2017-02-11T09:41:54Z</time>
      </trkpt>
      <trkpt lat="42.424040000" lon="-2.544692000">
        <ele>482.70</ele>
        <time>2017-02-11T09:41:55Z</time>
      </trkpt>
      <trkpt lat="42.424004000" lon="-2.544683000">
        <ele>482.80</ele>
        <time>2017-02-11T09:41:56Z</time>
      </trkpt>
      <trkpt lat="42.423967000" lon="-2.544678000">
        <ele>482.90</ele>
        <time>2017-02-11T09:41:57Z</time>
      </trkpt>
      <trkpt lat="42.423929000" lon="-2.544675000">
        <ele>482.80</ele>
        <time>2017-02-11T09:41:58Z</time>
      </trkpt>
      <trkpt lat="42.423890000" lon="-2.544673000">
        <ele>482.80</ele>
        <time>2017-02-11T09:41:59Z</time>
      </trkpt>
      <trkpt lat="42.423848000" lon="-2.544674000">
        <ele>482.70</ele>
        <time>2017-02-11T09:42:00Z</time>
      </trkpt>
      <trkpt lat="42.423807000" lon="-2.544675000">
        <ele>482.70</ele>
        <time>2017-02-11T09:42:01Z</time>
      </trkpt>
      <trkpt lat="42.423764000" lon="-2.544679000">
        <ele>482.70</ele>
        <time>2017-02-11T09:42:02Z</time>
      </trkpt>
      <trkpt lat="42.423723000" lon="-2.544683000">
        <ele>482.70</ele>
        <time>2017-02-11T09:42:03Z</time>
      </trkpt>
      <trkpt lat="42.423680000" lon="-2.544691000">
        <ele>482.70</ele>
        <time>2017-02-11T09:42:04Z</time>
      </trkpt>
      <trkpt lat="42.423599000" lon="-2.544700000">
        <ele>482.60</ele>
        <time>2017-02-11T09:42:06Z</time>
      </trkpt>
      <trkpt lat="42.423558000" lon="-2.544705000">
        <ele>482.60</ele>
        <time>2017-02-11T09:42:07Z</time>
      </trkpt>
      <trkpt lat="42.423518000" lon="-2.544713000">
        <ele>482.80</ele>
        <time>2017-02-11T09:42:08Z</time>
      </trkpt>
      <trkpt lat="42.423477000" lon="-2.544718000">
        <ele>482.90</ele>
        <time>2017-02-11T09:42:09Z</time>
      </trkpt>
      <trkpt lat="42.423438000" lon="-2.544721000">
        <ele>482.80</ele>
        <time>2017-02-11T09:42:10Z</time>
      </trkpt>
      <trkpt lat="42.423399000" lon="-2.544721000">
        <ele>482.80</ele>
        <time>2017-02-11T09:42:11Z</time>
      </trkpt>
      <trkpt lat="42.423360000" lon="-2.544719000">
        <ele>482.70</ele>
        <time>2017-02-11T09:42:12Z</time>
      </trkpt>
      <trkpt lat="42.423319000" lon="-2.544723000">
        <ele>482.70</ele>
        <time>2017-02-11T09:42:13Z</time>
      </trkpt>
      <trkpt lat="42.423276000" lon="-2.544723000">
        <ele>482.70</ele>
        <time>2017-02-11T09:42:14Z</time>
      </trkpt>
      <trkpt lat="42.423234000" lon="-2.544722000">
        <ele>482.70</ele>
        <time>2017-02-11T09:42:15Z</time>
      </trkpt>
      <trkpt lat="42.423192000" lon="-2.544720000">
        <ele>482.80</ele>
        <time>2017-02-11T09:42:16Z</time>
      </trkpt>
      <trkpt lat="42.423150000" lon="-2.544718000">
        <ele>483.00</ele>
        <time>2017-02-11T09:42:17Z</time>
      </trkpt>
      <trkpt lat="42.423108000" lon="-2.544715000">
        <ele>483.10</ele>
        <time>2017-02-11T09:42:18Z</time>
      </trkpt>
      <trkpt lat="42.423069000" lon="-2.544711000">
        <ele>483.20</ele>
        <time>2017-02-11T09:42:19Z</time>
      </trkpt>
      <trkpt lat="42.423031000" lon="-2.544708000">
        <ele>483.10</ele>
        <time>2017-02-11T09:42:20Z</time>
      </trkpt>
      <trkpt lat="42.422992000" lon="-2.544701000">
        <ele>483.00</ele>
        <time>2017-02-11T09:42:21Z</time>
      </trkpt>
      <trkpt lat="42.422952000" lon="-2.544698000">
        <ele>483.00</ele>
        <time>2017-02-11T09:42:22Z</time>
      </trkpt>
      <trkpt lat="42.422913000" lon="-2.544692000">
        <ele>483.00</ele>
        <time>2017-02-11T09:42:23Z</time>
      </trkpt>
      <trkpt lat="42.422874000" lon="-2.544684000">
        <ele>483.10</ele>
        <time>2017-02-11T09:42:24Z</time>
      </trkpt>
      <trkpt lat="42.422834000" lon="-2.544670000">
        <ele>483.20</ele>
        <time>2017-02-11T09:42:25Z</time>
      </trkpt>
      <trkpt lat="42.422794000" lon="-2.544660000">
        <ele>483.20</ele>
        <time>2017-02-11T09:42:26Z</time>
      </trkpt>
      <trkpt lat="42.422753000" lon="-2.544656000">
        <ele>483.30</ele>
        <time>2017-02-11T09:42:27Z</time>
      </trkpt>
      <trkpt lat="42.422711000" lon="-2.544652000">
        <ele>483.60</ele>
        <time>2017-02-11T09:42:28Z</time>
      </trkpt>
      <trkpt lat="42.422671000" lon="-2.544658000">
        <ele>483.80</ele>
        <time>2017-02-11T09:42:29Z</time>
      </trkpt>
      <trkpt lat="42.422633000" lon="-2.544666000">
        <ele>484.00</ele>
        <time>2017-02-11T09:42:30Z</time>
      </trkpt>
      <trkpt lat="42.422596000" lon="-2.544675000">
        <ele>484.10</ele>
        <time>2017-02-11T09:42:31Z</time>
      </trkpt>
      <trkpt lat="42.422559000" lon="-2.544684000">
        <ele>484.10</ele>
        <time>2017-02-11T09:42:32Z</time>
      </trkpt>
      <trkpt lat="42.422522000" lon="-2.544698000">
        <ele>484.10</ele>
        <time>2017-02-11T09:42:33Z</time>
      </trkpt>
      <trkpt lat="42.422487000" lon="-2.544709000">
        <ele>484.10</ele>
        <time>2017-02-11T09:42:34Z</time>
      </trkpt>
      <trkpt lat="42.422448000" lon="-2.544718000">
        <ele>484.10</ele>
        <time>2017-02-11T09:42:35Z</time>
      </trkpt>
      <trkpt lat="42.422409000" lon="-2.544730000">
        <ele>484.10</ele>
        <time>2017-02-11T09:42:36Z</time>
      </trkpt>
      <trkpt lat="42.422371000" lon="-2.544742000">
        <ele>484.10</ele>
        <time>2017-02-11T09:42:37Z</time>
      </trkpt>
      <trkpt lat="42.422333000" lon="-2.544752000">
        <ele>484.10</ele>
        <time>2017-02-11T09:42:38Z</time>
      </trkpt>
      <trkpt lat="42.422292000" lon="-2.544765000">
        <ele>484.10</ele>
        <time>2017-02-11T09:42:39Z</time>
      </trkpt>
      <trkpt lat="42.422254000" lon="-2.544780000">
        <ele>484.10</ele>
        <time>2017-02-11T09:42:40Z</time>
      </trkpt>
      <trkpt lat="42.422216000" lon="-2.544793000">
        <ele>484.00</ele>
        <time>2017-02-11T09:42:41Z</time>
      </trkpt>
      <trkpt lat="42.422178000" lon="-2.544808000">
        <ele>484.00</ele>
        <time>2017-02-11T09:42:42Z</time>
      </trkpt>
      <trkpt lat="42.422139000" lon="-2.544825000">
        <ele>483.90</ele>
        <time>2017-02-11T09:42:43Z</time>
      </trkpt>
      <trkpt lat="42.422100000" lon="-2.544833000">
        <ele>484.00</ele>
        <time>2017-02-11T09:42:44Z</time>
      </trkpt>
      <trkpt lat="42.422059000" lon="-2.544830000">
        <ele>484.10</ele>
        <time>2017-02-11T09:42:45Z</time>
      </trkpt>
      <trkpt lat="42.422021000" lon="-2.544815000">
        <ele>484.10</ele>
        <time>2017-02-11T09:42:46Z</time>
      </trkpt>
      <trkpt lat="42.421990000" lon="-2.544792000">
        <ele>484.20</ele>
        <time>2017-02-11T09:42:47Z</time>
      </trkpt>
      <trkpt lat="42.421957000" lon="-2.544761000">
        <ele>484.20</ele>
        <time>2017-02-11T09:42:48Z</time>
      </trkpt>
      <trkpt lat="42.421930000" lon="-2.544729000">
        <ele>484.20</ele>
        <time>2017-02-11T09:42:49Z</time>
      </trkpt>
      <trkpt lat="42.421908000" lon="-2.544691000">
        <ele>484.20</ele>
        <time>2017-02-11T09:42:50Z</time>
      </trkpt>
      <trkpt lat="42.421889000" lon="-2.544650000">
        <ele>484.20</ele>
        <time>2017-02-11T09:42:51Z</time>
      </trkpt>
      <trkpt lat="42.421870000" lon="-2.544609000">
        <ele>484.40</ele>
        <time>2017-02-11T09:42:52Z</time>
      </trkpt>
      <trkpt lat="42.421850000" lon="-2.544566000">
        <ele>484.50</ele>
        <time>2017-02-11T09:42:53Z</time>
      </trkpt>
      <trkpt lat="42.421833000" lon="-2.544524000">
        <ele>484.40</ele>
        <time>2017-02-11T09:42:54Z</time>
      </trkpt>
      <trkpt lat="42.421817000" lon="-2.544480000">
        <ele>484.30</ele>
        <time>2017-02-11T09:42:55Z</time>
      </trkpt>
      <trkpt lat="42.421801000" lon="-2.544436000">
        <ele>484.30</ele>
        <time>2017-02-11T09:42:56Z</time>
      </trkpt>
      <trkpt lat="42.421786000" lon="-2.544393000">
        <ele>484.40</ele>
        <time>2017-02-11T09:42:57Z</time>
      </trkpt>
      <trkpt lat="42.421769000" lon="-2.544349000">
        <ele>484.40</ele>
        <time>2017-02-11T09:42:58Z</time>
      </trkpt>
      <trkpt lat="42.421754000" lon="-2.544307000">
        <ele>484.50</ele>
        <time>2017-02-11T09:42:59Z</time>
      </trkpt>
      <trkpt lat="42.421738000" lon="-2.544267000">
        <ele>484.60</ele>
        <time>2017-02-11T09:43:00Z</time>
      </trkpt>
      <trkpt lat="42.421722000" lon="-2.544226000">
        <ele>484.70</ele>
        <time>2017-02-11T09:43:01Z</time>
      </trkpt>
      <trkpt lat="42.421707000" lon="-2.544182000">
        <ele>484.80</ele>
        <time>2017-02-11T09:43:02Z</time>
      </trkpt>
      <trkpt lat="42.421690000" lon="-2.544137000">
        <ele>484.90</ele>
        <time>2017-02-11T09:43:03Z</time>
      </trkpt>
      <trkpt lat="42.421678000" lon="-2.544092000">
        <ele>485.00</ele>
        <time>2017-02-11T09:43:04Z</time>
      </trkpt>
      <trkpt lat="42.421664000" lon="-2.544045000">
        <ele>485.20</ele>
        <time>2017-02-11T09:43:05Z</time>
      </trkpt>
      <trkpt lat="42.421639000" lon="-2.543953000">
        <ele>485.20</ele>
        <time>2017-02-11T09:43:07Z</time>
      </trkpt>
      <trkpt lat="42.421624000" lon="-2.543907000">
        <ele>485.30</ele>
        <time>2017-02-11T09:43:08Z</time>
      </trkpt>
      <trkpt lat="42.421609000" lon="-2.543864000">
        <ele>485.30</ele>
        <time>2017-02-11T09:43:09Z</time>
      </trkpt>
      <trkpt lat="42.421595000" lon="-2.543820000">
        <ele>485.30</ele>
        <time>2017-02-11T09:43:10Z</time>
      </trkpt>
      <trkpt lat="42.421581000" lon="-2.543777000">
        <ele>485.30</ele>
        <time>2017-02-11T09:43:11Z</time>
      </trkpt>
      <trkpt lat="42.421566000" lon="-2.543732000">
        <ele>485.40</ele>
        <time>2017-02-11T09:43:12Z</time>
      </trkpt>
      <trkpt lat="42.421553000" lon="-2.543683000">
        <ele>485.40</ele>
        <time>2017-02-11T09:43:13Z</time>
      </trkpt>
      <trkpt lat="42.421539000" lon="-2.543636000">
        <ele>485.50</ele>
        <time>2017-02-11T09:43:14Z</time>
      </trkpt>
      <trkpt lat="42.421526000" lon="-2.543589000">
        <ele>485.50</ele>
        <time>2017-02-11T09:43:15Z</time>
      </trkpt>
      <trkpt lat="42.421511000" lon="-2.543542000">
        <ele>485.40</ele>
        <time>2017-02-11T09:43:16Z</time>
      </trkpt>
      <trkpt lat="42.421497000" lon="-2.543495000">
        <ele>485.30</ele>
        <time>2017-02-11T09:43:17Z</time>
      </trkpt>
      <trkpt lat="42.421485000" lon="-2.543448000">
        <ele>485.10</ele>
        <time>2017-02-11T09:43:18Z</time>
      </trkpt>
      <trkpt lat="42.421471000" lon="-2.543400000">
        <ele>485.00</ele>
        <time>2017-02-11T09:43:19Z</time>
      </trkpt>
      <trkpt lat="42.421459000" lon="-2.543354000">
        <ele>485.00</ele>
        <time>2017-02-11T09:43:20Z</time>
      </trkpt>
      <trkpt lat="42.421447000" lon="-2.543308000">
        <ele>485.00</ele>
        <time>2017-02-11T09:43:21Z</time>
      </trkpt>
      <trkpt lat="42.421433000" lon="-2.543262000">
        <ele>485.10</ele>
        <time>2017-02-11T09:43:22Z</time>
      </trkpt>
      <trkpt lat="42.421420000" lon="-2.543214000">
        <ele>485.10</ele>
        <time>2017-02-11T09:43:23Z</time>
      </trkpt>
      <trkpt lat="42.421409000" lon="-2.543166000">
        <ele>485.40</ele>
        <time>2017-02-11T09:43:24Z</time>
      </trkpt>
      <trkpt lat="42.421400000" lon="-2.543120000">
        <ele>485.50</ele>
        <time>2017-02-11T09:43:25Z</time>
      </trkpt>
      <trkpt lat="42.421392000" lon="-2.543073000">
        <ele>485.70</ele>
        <time>2017-02-11T09:43:26Z</time>
      </trkpt>
      <trkpt lat="42.421382000" lon="-2.543026000">
        <ele>485.70</ele>
        <time>2017-02-11T09:43:27Z</time>
      </trkpt>
      <trkpt lat="42.421371000" lon="-2.542979000">
        <ele>485.70</ele>
        <time>2017-02-11T09:43:28Z</time>
      </trkpt>
      <trkpt lat="42.421358000" lon="-2.542932000">
        <ele>485.80</ele>
        <time>2017-02-11T09:43:29Z</time>
      </trkpt>
      <trkpt lat="42.421344000" lon="-2.542884000">
        <ele>485.60</ele>
        <time>2017-02-11T09:43:30Z</time>
      </trkpt>
      <trkpt lat="42.421330000" lon="-2.542835000">
        <ele>485.60</ele>
        <time>2017-02-11T09:43:31Z</time>
      </trkpt>
      <trkpt lat="42.421314000" lon="-2.542788000">
        <ele>485.60</ele>
        <time>2017-02-11T09:43:32Z</time>
      </trkpt>
      <trkpt lat="42.421296000" lon="-2.542743000">
        <ele>485.70</ele>
        <time>2017-02-11T09:43:33Z</time>
      </trkpt>
      <trkpt lat="42.421281000" lon="-2.542695000">
        <ele>485.70</ele>
        <time>2017-02-11T09:43:34Z</time>
      </trkpt>
      <trkpt lat="42.421266000" lon="-2.542649000">
        <ele>485.70</ele>
        <time>2017-02-11T09:43:35Z</time>
      </trkpt>
      <trkpt lat="42.421248000" lon="-2.542601000">
        <ele>485.80</ele>
        <time>2017-02-11T09:43:36Z</time>
      </trkpt>
      <trkpt lat="42.421229000" lon="-2.542556000">
        <ele>486.00</ele>
        <time>2017-02-11T09:43:37Z</time>
      </trkpt>
      <trkpt lat="42.421213000" lon="-2.542513000">
        <ele>486.00</ele>
        <time>2017-02-11T09:43:38Z</time>
      </trkpt>
      <trkpt lat="42.421198000" lon="-2.542467000">
        <ele>486.10</ele>
        <time>2017-02-11T09:43:39Z</time>
      </trkpt>
      <trkpt lat="42.421185000" lon="-2.542424000">
        <ele>486.10</ele>
        <time>2017-02-11T09:43:40Z</time>
      </trkpt>
      <trkpt lat="42.421171000" lon="-2.542376000">
        <ele>486.20</ele>
        <time>2017-02-11T09:43:41Z</time>
      </trkpt>
      <trkpt lat="42.421157000" lon="-2.542331000">
        <ele>486.30</ele>
        <time>2017-02-11T09:43:42Z</time>
      </trkpt>
      <trkpt lat="42.421143000" lon="-2.542283000">
        <ele>486.50</ele>
        <time>2017-02-11T09:43:43Z</time>
      </trkpt>
      <trkpt lat="42.421128000" lon="-2.542235000">
        <ele>486.50</ele>
        <time>2017-02-11T09:43:44Z</time>
      </trkpt>
      <trkpt lat="42.421115000" lon="-2.542190000">
        <ele>486.60</ele>
        <time>2017-02-11T09:43:45Z</time>
      </trkpt>
      <trkpt lat="42.421099000" lon="-2.542145000">
        <ele>486.70</ele>
        <time>2017-02-11T09:43:46Z</time>
      </trkpt>
      <trkpt lat="42.421084000" lon="-2.542097000">
        <ele>486.80</ele>
        <time>2017-02-11T09:43:47Z</time>
      </trkpt>
      <trkpt lat="42.421071000" lon="-2.542052000">
        <ele>487.00</ele>
        <time>2017-02-11T09:43:48Z</time>
      </trkpt>
      <trkpt lat="42.421055000" lon="-2.542006000">
        <ele>487.20</ele>
        <time>2017-02-11T09:43:49Z</time>
      </trkpt>
      <trkpt lat="42.421038000" lon="-2.541965000">
        <ele>487.20</ele>
        <time>2017-02-11T09:43:50Z</time>
      </trkpt>
      <trkpt lat="42.421022000" lon="-2.541920000">
        <ele>487.20</ele>
        <time>2017-02-11T09:43:51Z</time>
      </trkpt>
      <trkpt lat="42.421003000" lon="-2.541877000">
        <ele>487.30</ele>
        <time>2017-02-11T09:43:52Z</time>
      </trkpt>
      <trkpt lat="42.420987000" lon="-2.541832000">
        <ele>487.40</ele>
        <time>2017-02-11T09:43:53Z</time>
      </trkpt>
      <trkpt lat="42.420967000" lon="-2.541786000">
        <ele>487.40</ele>
        <time>2017-02-11T09:43:54Z</time>
      </trkpt>
      <trkpt lat="42.420948000" lon="-2.541740000">
        <ele>487.40</ele>
        <time>2017-02-11T09:43:55Z</time>
      </trkpt>
      <trkpt lat="42.420929000" lon="-2.541694000">
        <ele>487.40</ele>
        <time>2017-02-11T09:43:56Z</time>
      </trkpt>
      <trkpt lat="42.420908000" lon="-2.541648000">
        <ele>487.30</ele>
        <time>2017-02-11T09:43:57Z</time>
      </trkpt>
      <trkpt lat="42.420888000" lon="-2.541604000">
        <ele>487.30</ele>
        <time>2017-02-11T09:43:58Z</time>
      </trkpt>
      <trkpt lat="42.420869000" lon="-2.541562000">
        <ele>487.30</ele>
        <time>2017-02-11T09:43:59Z</time>
      </trkpt>
      <trkpt lat="42.420850000" lon="-2.541518000">
        <ele>487.50</ele>
        <time>2017-02-11T09:44:00Z</time>
      </trkpt>
      <trkpt lat="42.420829000" lon="-2.541479000">
        <ele>487.60</ele>
        <time>2017-02-11T09:44:01Z</time>
      </trkpt>
      <trkpt lat="42.420808000" lon="-2.541437000">
        <ele>487.70</ele>
        <time>2017-02-11T09:44:02Z</time>
      </trkpt>
      <trkpt lat="42.420791000" lon="-2.541391000">
        <ele>487.80</ele>
        <time>2017-02-11T09:44:03Z</time>
      </trkpt>
      <trkpt lat="42.420772000" lon="-2.541348000">
        <ele>487.80</ele>
        <time>2017-02-11T09:44:04Z</time>
      </trkpt>
      <trkpt lat="42.420751000" lon="-2.541304000">
        <ele>487.80</ele>
        <time>2017-02-11T09:44:05Z</time>
      </trkpt>
      <trkpt lat="42.420731000" lon="-2.541257000">
        <ele>487.70</ele>
        <time>2017-02-11T09:44:06Z</time>
      </trkpt>
      <trkpt lat="42.420690000" lon="-2.541167000">
        <ele>487.50</ele>
        <time>2017-02-11T09:44:08Z</time>
      </trkpt>
      <trkpt lat="42.420670000" lon="-2.541127000">
        <ele>487.50</ele>
        <time>2017-02-11T09:44:09Z</time>
      </trkpt>
      <trkpt lat="42.420649000" lon="-2.541086000">
        <ele>487.40</ele>
        <time>2017-02-11T09:44:10Z</time>
      </trkpt>
      <trkpt lat="42.420628000" lon="-2.541045000">
        <ele>487.30</ele>
        <time>2017-02-11T09:44:11Z</time>
      </trkpt>
      <trkpt lat="42.420606000" lon="-2.541003000">
        <ele>487.40</ele>
        <time>2017-02-11T09:44:12Z</time>
      </trkpt>
      <trkpt lat="42.420587000" lon="-2.540961000">
        <ele>487.50</ele>
        <time>2017-02-11T09:44:13Z</time>
      </trkpt>
      <trkpt lat="42.420565000" lon="-2.540919000">
        <ele>487.60</ele>
        <time>2017-02-11T09:44:14Z</time>
      </trkpt>
      <trkpt lat="42.420542000" lon="-2.540877000">
        <ele>487.70</ele>
        <time>2017-02-11T09:44:15Z</time>
      </trkpt>
      <trkpt lat="42.420521000" lon="-2.540837000">
        <ele>488.00</ele>
        <time>2017-02-11T09:44:16Z</time>
      </trkpt>
      <trkpt lat="42.420500000" lon="-2.540795000">
        <ele>488.30</ele>
        <time>2017-02-11T09:44:17Z</time>
      </trkpt>
      <trkpt lat="42.420479000" lon="-2.540751000">
        <ele>488.50</ele>
        <time>2017-02-11T09:44:18Z</time>
      </trkpt>
      <trkpt lat="42.420458000" lon="-2.540708000">
        <ele>488.60</ele>
        <time>2017-02-11T09:44:19Z</time>
      </trkpt>
      <trkpt lat="42.420437000" lon="-2.540668000">
        <ele>488.70</ele>
        <time>2017-02-11T09:44:20Z</time>
      </trkpt>
      <trkpt lat="42.420417000" lon="-2.540630000">
        <ele>488.70</ele>
        <time>2017-02-11T09:44:21Z</time>
      </trkpt>
      <trkpt lat="42.420398000" lon="-2.540591000">
        <ele>488.70</ele>
        <time>2017-02-11T09:44:22Z</time>
      </trkpt>
      <trkpt lat="42.420378000" lon="-2.540556000">
        <ele>488.80</ele>
        <time>2017-02-11T09:44:23Z</time>
      </trkpt>
      <trkpt lat="42.420357000" lon="-2.540518000">
        <ele>488.90</ele>
        <time>2017-02-11T09:44:24Z</time>
      </trkpt>
      <trkpt lat="42.420335000" lon="-2.540478000">
        <ele>489.00</ele>
        <time>2017-02-11T09:44:25Z</time>
      </trkpt>
      <trkpt lat="42.420313000" lon="-2.540442000">
        <ele>489.10</ele>
        <time>2017-02-11T09:44:26Z</time>
      </trkpt>
      <trkpt lat="42.420293000" lon="-2.540404000">
        <ele>489.20</ele>
        <time>2017-02-11T09:44:27Z</time>
      </trkpt>
      <trkpt lat="42.420274000" lon="-2.540365000">
        <ele>489.10</ele>
        <time>2017-02-11T09:44:28Z</time>
      </trkpt>
      <trkpt lat="42.420255000" lon="-2.540327000">
        <ele>489.10</ele>
        <time>2017-02-11T09:44:29Z</time>
      </trkpt>
      <trkpt lat="42.420237000" lon="-2.540287000">
        <ele>489.00</ele>
        <time>2017-02-11T09:44:30Z</time>
      </trkpt>
      <trkpt lat="42.420215000" lon="-2.540245000">
        <ele>489.00</ele>
        <time>2017-02-11T09:44:31Z</time>
      </trkpt>
      <trkpt lat="42.420196000" lon="-2.540203000">
        <ele>488.90</ele>
        <time>2017-02-11T09:44:32Z</time>
      </trkpt>
      <trkpt lat="42.420176000" lon="-2.540161000">
        <ele>488.90</ele>
        <time>2017-02-11T09:44:33Z</time>
      </trkpt>
      <trkpt lat="42.420158000" lon="-2.540119000">
        <ele>489.00</ele>
        <time>2017-02-11T09:44:34Z</time>
      </trkpt>
      <trkpt lat="42.420141000" lon="-2.540076000">
        <ele>489.00</ele>
        <time>2017-02-11T09:44:35Z</time>
      </trkpt>
      <trkpt lat="42.420123000" lon="-2.540033000">
        <ele>489.00</ele>
        <time>2017-02-11T09:44:36Z</time>
      </trkpt>
      <trkpt lat="42.420107000" lon="-2.539991000">
        <ele>489.00</ele>
        <time>2017-02-11T09:44:37Z</time>
      </trkpt>
      <trkpt lat="42.420090000" lon="-2.539947000">
        <ele>489.00</ele>
        <time>2017-02-11T09:44:38Z</time>
      </trkpt>
      <trkpt lat="42.420074000" lon="-2.539903000">
        <ele>488.90</ele>
        <time>2017-02-11T09:44:39Z</time>
      </trkpt>
      <trkpt lat="42.420057000" lon="-2.539858000">
        <ele>488.90</ele>
        <time>2017-02-11T09:44:40Z</time>
      </trkpt>
      <trkpt lat="42.420039000" lon="-2.539815000">
        <ele>488.90</ele>
        <time>2017-02-11T09:44:41Z</time>
      </trkpt>
      <trkpt lat="42.420020000" lon="-2.539772000">
        <ele>489.00</ele>
        <time>2017-02-11T09:44:42Z</time>
      </trkpt>
      <trkpt lat="42.420001000" lon="-2.539730000">
        <ele>489.10</ele>
        <time>2017-02-11T09:44:43Z</time>
      </trkpt>
      <trkpt lat="42.419986000" lon="-2.539689000">
        <ele>489.20</ele>
        <time>2017-02-11T09:44:44Z</time>
      </trkpt>
      <trkpt lat="42.419968000" lon="-2.539647000">
        <ele>489.30</ele>
        <time>2017-02-11T09:44:45Z</time>
      </trkpt>
      <trkpt lat="42.419949000" lon="-2.539600000">
        <ele>489.30</ele>
        <time>2017-02-11T09:44:46Z</time>
      </trkpt>
      <trkpt lat="42.419929000" lon="-2.539552000">
        <ele>489.40</ele>
        <time>2017-02-11T09:44:47Z</time>
      </trkpt>
      <trkpt lat="42.419909000" lon="-2.539507000">
        <ele>489.30</ele>
        <time>2017-02-11T09:44:48Z</time>
      </trkpt>
      <trkpt lat="42.419892000" lon="-2.539461000">
        <ele>489.20</ele>
        <time>2017-02-11T09:44:49Z</time>
      </trkpt>
      <trkpt lat="42.419873000" lon="-2.539414000">
        <ele>489.10</ele>
        <time>2017-02-11T09:44:50Z</time>
      </trkpt>
      <trkpt lat="42.419855000" lon="-2.539371000">
        <ele>488.90</ele>
        <time>2017-02-11T09:44:51Z</time>
      </trkpt>
      <trkpt lat="42.419839000" lon="-2.539321000">
        <ele>489.00</ele>
        <time>2017-02-11T09:44:52Z</time>
      </trkpt>
      <trkpt lat="42.419821000" lon="-2.539274000">
        <ele>489.00</ele>
        <time>2017-02-11T09:44:53Z</time>
      </trkpt>
      <trkpt lat="42.419806000" lon="-2.539227000">
        <ele>489.00</ele>
        <time>2017-02-11T09:44:54Z</time>
      </trkpt>
      <trkpt lat="42.419791000" lon="-2.539178000">
        <ele>489.00</ele>
        <time>2017-02-11T09:44:55Z</time>
      </trkpt>
      <trkpt lat="42.419780000" lon="-2.539130000">
        <ele>489.20</ele>
        <time>2017-02-11T09:44:56Z</time>
      </trkpt>
      <trkpt lat="42.419766000" lon="-2.539086000">
        <ele>489.30</ele>
        <time>2017-02-11T09:44:57Z</time>
      </trkpt>
      <trkpt lat="42.419753000" lon="-2.539043000">
        <ele>489.40</ele>
        <time>2017-02-11T09:44:58Z</time>
      </trkpt>
      <trkpt lat="42.419740000" lon="-2.539001000">
        <ele>489.40</ele>
        <time>2017-02-11T09:44:59Z</time>
      </trkpt>
      <trkpt lat="42.419729000" lon="-2.538958000">
        <ele>489.50</ele>
        <time>2017-02-11T09:45:00Z</time>
      </trkpt>
      <trkpt lat="42.419719000" lon="-2.538913000">
        <ele>489.60</ele>
        <time>2017-02-11T09:45:01Z</time>
      </trkpt>
      <trkpt lat="42.419707000" lon="-2.538866000">
        <ele>489.60</ele>
        <time>2017-02-11T09:45:02Z</time>
      </trkpt>
      <trkpt lat="42.419693000" lon="-2.538820000">
        <ele>489.70</ele>
        <time>2017-02-11T09:45:03Z</time>
      </trkpt>
      <trkpt lat="42.419682000" lon="-2.538773000">
        <ele>489.70</ele>
        <time>2017-02-11T09:45:04Z</time>
      </trkpt>
      <trkpt lat="42.419672000" lon="-2.538725000">
        <ele>489.80</ele>
        <time>2017-02-11T09:45:05Z</time>
      </trkpt>
      <trkpt lat="42.419659000" lon="-2.538679000">
        <ele>489.80</ele>
        <time>2017-02-11T09:45:06Z</time>
      </trkpt>
      <trkpt lat="42.419647000" lon="-2.538633000">
        <ele>489.80</ele>
        <time>2017-02-11T09:45:07Z</time>
      </trkpt>
      <trkpt lat="42.419626000" lon="-2.538540000">
        <ele>489.80</ele>
        <time>2017-02-11T09:45:09Z</time>
      </trkpt>
      <trkpt lat="42.419614000" lon="-2.538497000">
        <ele>490.00</ele>
        <time>2017-02-11T09:45:10Z</time>
      </trkpt>
      <trkpt lat="42.419601000" lon="-2.538454000">
        <ele>490.10</ele>
        <time>2017-02-11T09:45:11Z</time>
      </trkpt>
      <trkpt lat="42.419592000" lon="-2.538411000">
        <ele>490.20</ele>
        <time>2017-02-11T09:45:12Z</time>
      </trkpt>
      <trkpt lat="42.419583000" lon="-2.538370000">
        <ele>490.30</ele>
        <time>2017-02-11T09:45:13Z</time>
      </trkpt>
      <trkpt lat="42.419573000" lon="-2.538331000">
        <ele>490.40</ele>
        <time>2017-02-11T09:45:14Z</time>
      </trkpt>
      <trkpt lat="42.419564000" lon="-2.538295000">
        <ele>490.40</ele>
        <time>2017-02-11T09:45:15Z</time>
      </trkpt>
      <trkpt lat="42.419556000" lon="-2.538259000">
        <ele>490.30</ele>
        <time>2017-02-11T09:45:16Z</time>
      </trkpt>
      <trkpt lat="42.419548000" lon="-2.538225000">
        <ele>490.30</ele>
        <time>2017-02-11T09:45:17Z</time>
      </trkpt>
      <trkpt lat="42.419540000" lon="-2.538191000">
        <ele>490.10</ele>
        <time>2017-02-11T09:45:18Z</time>
      </trkpt>
      <trkpt lat="42.419530000" lon="-2.538158000">
        <ele>489.90</ele>
        <time>2017-02-11T09:45:19Z</time>
      </trkpt>
      <trkpt lat="42.419520000" lon="-2.538125000">
        <ele>489.80</ele>
        <time>2017-02-11T09:45:20Z</time>
      </trkpt>
      <trkpt lat="42.419510000" lon="-2.538088000">
        <ele>489.70</ele>
        <time>2017-02-11T09:45:21Z</time>
      </trkpt>
      <trkpt lat="42.419501000" lon="-2.538049000">
        <ele>489.70</ele>
        <time>2017-02-11T09:45:22Z</time>
      </trkpt>
      <trkpt lat="42.419495000" lon="-2.538008000">
        <ele>489.60</ele>
        <time>2017-02-11T09:45:23Z</time>
      </trkpt>
      <trkpt lat="42.419489000" lon="-2.537966000">
        <ele>489.70</ele>
        <time>2017-02-11T09:45:24Z</time>
      </trkpt>
      <trkpt lat="42.419482000" lon="-2.537921000">
        <ele>489.80</ele>
        <time>2017-02-11T09:45:25Z</time>
      </trkpt>
      <trkpt lat="42.419476000" lon="-2.537875000">
        <ele>489.90</ele>
        <time>2017-02-11T09:45:26Z</time>
      </trkpt>
      <trkpt lat="42.419468000" lon="-2.537828000">
        <ele>489.90</ele>
        <time>2017-02-11T09:45:27Z</time>
      </trkpt>
      <trkpt lat="42.419461000" lon="-2.537784000">
        <ele>489.80</ele>
        <time>2017-02-11T09:45:28Z</time>
      </trkpt>
      <trkpt lat="42.419455000" lon="-2.537740000">
        <ele>489.70</ele>
        <time>2017-02-11T09:45:29Z</time>
      </trkpt>
      <trkpt lat="42.419450000" lon="-2.537695000">
        <ele>489.70</ele>
        <time>2017-02-11T09:45:30Z</time>
      </trkpt>
      <trkpt lat="42.419445000" lon="-2.537651000">
        <ele>489.60</ele>
        <time>2017-02-11T09:45:31Z</time>
      </trkpt>
      <trkpt lat="42.419438000" lon="-2.537606000">
        <ele>489.80</ele>
        <time>2017-02-11T09:45:32Z</time>
      </trkpt>
      <trkpt lat="42.419430000" lon="-2.537562000">
        <ele>489.90</ele>
        <time>2017-02-11T09:45:33Z</time>
      </trkpt>
      <trkpt lat="42.419421000" lon="-2.537518000">
        <ele>490.10</ele>
        <time>2017-02-11T09:45:34Z</time>
      </trkpt>
      <trkpt lat="42.419413000" lon="-2.537474000">
        <ele>490.30</ele>
        <time>2017-02-11T09:45:35Z</time>
      </trkpt>
      <trkpt lat="42.419407000" lon="-2.537423000">
        <ele>490.60</ele>
        <time>2017-02-11T09:45:36Z</time>
      </trkpt>
      <trkpt lat="42.419396000" lon="-2.537366000">
        <ele>490.80</ele>
        <time>2017-02-11T09:45:37Z</time>
      </trkpt>
      <trkpt lat="42.419385000" lon="-2.537310000">
        <ele>490.90</ele>
        <time>2017-02-11T09:45:38Z</time>
      </trkpt>
      <trkpt lat="42.419373000" lon="-2.537258000">
        <ele>491.00</ele>
        <time>2017-02-11T09:45:39Z</time>
      </trkpt>
      <trkpt lat="42.419360000" lon="-2.537207000">
        <ele>491.10</ele>
        <time>2017-02-11T09:45:40Z</time>
      </trkpt>
      <trkpt lat="42.419347000" lon="-2.537157000">
        <ele>491.20</ele>
        <time>2017-02-11T09:45:41Z</time>
      </trkpt>
      <trkpt lat="42.419338000" lon="-2.537105000">
        <ele>491.20</ele>
        <time>2017-02-11T09:45:42Z</time>
      </trkpt>
      <trkpt lat="42.419328000" lon="-2.537055000">
        <ele>491.20</ele>
        <time>2017-02-11T09:45:43Z</time>
      </trkpt>
      <trkpt lat="42.419316000" lon="-2.537007000">
        <ele>491.20</ele>
        <time>2017-02-11T09:45:44Z</time>
      </trkpt>
      <trkpt lat="42.419307000" lon="-2.536958000">
        <ele>491.20</ele>
        <time>2017-02-11T09:45:45Z</time>
      </trkpt>
      <trkpt lat="42.419297000" lon="-2.536910000">
        <ele>491.10</ele>
        <time>2017-02-11T09:45:46Z</time>
      </trkpt>
      <trkpt lat="42.419290000" lon="-2.536864000">
        <ele>491.10</ele>
        <time>2017-02-11T09:45:47Z</time>
      </trkpt>
      <trkpt lat="42.419280000" lon="-2.536817000">
        <ele>491.20</ele>
        <time>2017-02-11T09:45:48Z</time>
      </trkpt>
      <trkpt lat="42.419269000" lon="-2.536771000">
        <ele>491.20</ele>
        <time>2017-02-11T09:45:49Z</time>
      </trkpt>
      <trkpt lat="42.419258000" lon="-2.536724000">
        <ele>491.40</ele>
        <time>2017-02-11T09:45:50Z</time>
      </trkpt>
      <trkpt lat="42.419249000" lon="-2.536678000">
        <ele>491.60</ele>
        <time>2017-02-11T09:45:51Z</time>
      </trkpt>
      <trkpt lat="42.419240000" lon="-2.536631000">
        <ele>491.50</ele>
        <time>2017-02-11T09:45:52Z</time>
      </trkpt>
      <trkpt lat="42.419228000" lon="-2.536586000">
        <ele>491.50</ele>
        <time>2017-02-11T09:45:53Z</time>
      </trkpt>
      <trkpt lat="42.419217000" lon="-2.536542000">
        <ele>491.50</ele>
        <time>2017-02-11T09:45:54Z</time>
      </trkpt>
      <trkpt lat="42.419205000" lon="-2.536497000">
        <ele>491.40</ele>
        <time>2017-02-11T09:45:55Z</time>
      </trkpt>
      <trkpt lat="42.419194000" lon="-2.536453000">
        <ele>491.30</ele>
        <time>2017-02-11T09:45:56Z</time>
      </trkpt>
      <trkpt lat="42.419180000" lon="-2.536409000">
        <ele>491.30</ele>
        <time>2017-02-11T09:45:57Z</time>
      </trkpt>
      <trkpt lat="42.419167000" lon="-2.536364000">
        <ele>491.20</ele>
        <time>2017-02-11T09:45:58Z</time>
      </trkpt>
      <trkpt lat="42.419156000" lon="-2.536316000">
        <ele>491.20</ele>
        <time>2017-02-11T09:45:59Z</time>
      </trkpt>
      <trkpt lat="42.419144000" lon="-2.536267000">
        <ele>491.20</ele>
        <time>2017-02-11T09:46:00Z</time>
      </trkpt>
      <trkpt lat="42.419130000" lon="-2.536218000">
        <ele>491.10</ele>
        <time>2017-02-11T09:46:01Z</time>
      </trkpt>
      <trkpt lat="42.419117000" lon="-2.536169000">
        <ele>491.20</ele>
        <time>2017-02-11T09:46:02Z</time>
      </trkpt>
      <trkpt lat="42.419104000" lon="-2.536120000">
        <ele>491.20</ele>
        <time>2017-02-11T09:46:03Z</time>
      </trkpt>
      <trkpt lat="42.419090000" lon="-2.536069000">
        <ele>491.50</ele>
        <time>2017-02-11T09:46:04Z</time>
      </trkpt>
      <trkpt lat="42.419077000" lon="-2.536022000">
        <ele>491.60</ele>
        <time>2017-02-11T09:46:05Z</time>
      </trkpt>
      <trkpt lat="42.419063000" lon="-2.535977000">
        <ele>491.80</ele>
        <time>2017-02-11T09:46:06Z</time>
      </trkpt>
      <trkpt lat="42.419048000" lon="-2.535933000">
        <ele>491.90</ele>
        <time>2017-02-11T09:46:07Z</time>
      </trkpt>
      <trkpt lat="42.419033000" lon="-2.535892000">
        <ele>492.10</ele>
        <time>2017-02-11T09:46:08Z</time>
      </trkpt>
      <trkpt lat="42.418998000" lon="-2.535806000">
        <ele>492.30</ele>
        <time>2017-02-11T09:46:10Z</time>
      </trkpt>
      <trkpt lat="42.418980000" lon="-2.535764000">
        <ele>492.40</ele>
        <time>2017-02-11T09:46:11Z</time>
      </trkpt>
      <trkpt lat="42.418965000" lon="-2.535721000">
        <ele>492.40</ele>
        <time>2017-02-11T09:46:12Z</time>
      </trkpt>
      <trkpt lat="42.418946000" lon="-2.535679000">
        <ele>492.40</ele>
        <time>2017-02-11T09:46:13Z</time>
      </trkpt>
      <trkpt lat="42.418926000" lon="-2.535637000">
        <ele>492.50</ele>
        <time>2017-02-11T09:46:14Z</time>
      </trkpt>
      <trkpt lat="42.418907000" lon="-2.535592000">
        <ele>492.50</ele>
        <time>2017-02-11T09:46:15Z</time>
      </trkpt>
      <trkpt lat="42.418888000" lon="-2.535547000">
        <ele>492.50</ele>
        <time>2017-02-11T09:46:16Z</time>
      </trkpt>
      <trkpt lat="42.418866000" lon="-2.535503000">
        <ele>492.50</ele>
        <time>2017-02-11T09:46:17Z</time>
      </trkpt>
      <trkpt lat="42.418846000" lon="-2.535457000">
        <ele>492.40</ele>
        <time>2017-02-11T09:46:18Z</time>
      </trkpt>
      <trkpt lat="42.418827000" lon="-2.535415000">
        <ele>492.40</ele>
        <time>2017-02-11T09:46:19Z</time>
      </trkpt>
      <trkpt lat="42.418807000" lon="-2.535374000">
        <ele>492.40</ele>
        <time>2017-02-11T09:46:20Z</time>
      </trkpt>
      <trkpt lat="42.418782000" lon="-2.535332000">
        <ele>492.40</ele>
        <time>2017-02-11T09:46:21Z</time>
      </trkpt>
      <trkpt lat="42.418759000" lon="-2.535290000">
        <ele>492.40</ele>
        <time>2017-02-11T09:46:22Z</time>
      </trkpt>
      <trkpt lat="42.418738000" lon="-2.535246000">
        <ele>492.40</ele>
        <time>2017-02-11T09:46:23Z</time>
      </trkpt>
      <trkpt lat="42.418718000" lon="-2.535204000">
        <ele>492.60</ele>
        <time>2017-02-11T09:46:24Z</time>
      </trkpt>
      <trkpt lat="42.418700000" lon="-2.535161000">
        <ele>492.70</ele>
        <time>2017-02-11T09:46:25Z</time>
      </trkpt>
      <trkpt lat="42.418684000" lon="-2.535118000">
        <ele>492.80</ele>
        <time>2017-02-11T09:46:26Z</time>
      </trkpt>
      <trkpt lat="42.418666000" lon="-2.535074000">
        <ele>492.90</ele>
        <time>2017-02-11T09:46:27Z</time>
      </trkpt>
      <trkpt lat="42.418644000" lon="-2.535030000">
        <ele>493.00</ele>
        <time>2017-02-11T09:46:28Z</time>
      </trkpt>
      <trkpt lat="42.418624000" lon="-2.534985000">
        <ele>493.10</ele>
        <time>2017-02-11T09:46:29Z</time>
      </trkpt>
      <trkpt lat="42.418605000" lon="-2.534942000">
        <ele>493.10</ele>
        <time>2017-02-11T09:46:30Z</time>
      </trkpt>
      <trkpt lat="42.418586000" lon="-2.534898000">
        <ele>493.10</ele>
        <time>2017-02-11T09:46:31Z</time>
      </trkpt>
      <trkpt lat="42.418568000" lon="-2.534855000">
        <ele>493.10</ele>
        <time>2017-02-11T09:46:32Z</time>
      </trkpt>
      <trkpt lat="42.418553000" lon="-2.534812000">
        <ele>493.10</ele>
        <time>2017-02-11T09:46:33Z</time>
      </trkpt>
      <trkpt lat="42.418538000" lon="-2.534767000">
        <ele>492.90</ele>
        <time>2017-02-11T09:46:34Z</time>
      </trkpt>
      <trkpt lat="42.418521000" lon="-2.534720000">
        <ele>492.80</ele>
        <time>2017-02-11T09:46:35Z</time>
      </trkpt>
      <trkpt lat="42.418507000" lon="-2.534674000">
        <ele>492.90</ele>
        <time>2017-02-11T09:46:36Z</time>
      </trkpt>
      <trkpt lat="42.418491000" lon="-2.534628000">
        <ele>492.90</ele>
        <time>2017-02-11T09:46:37Z</time>
      </trkpt>
      <trkpt lat="42.418474000" lon="-2.534582000">
        <ele>493.00</ele>
        <time>2017-02-11T09:46:38Z</time>
      </trkpt>
      <trkpt lat="42.418459000" lon="-2.534538000">
        <ele>493.00</ele>
        <time>2017-02-11T09:46:39Z</time>
      </trkpt>
      <trkpt lat="42.418442000" lon="-2.534491000">
        <ele>493.10</ele>
        <time>2017-02-11T09:46:40Z</time>
      </trkpt>
      <trkpt lat="42.418425000" lon="-2.534446000">
        <ele>493.20</ele>
        <time>2017-02-11T09:46:41Z</time>
      </trkpt>
      <trkpt lat="42.418408000" lon="-2.534401000">
        <ele>493.40</ele>
        <time>2017-02-11T09:46:42Z</time>
      </trkpt>
      <trkpt lat="42.418391000" lon="-2.534358000">
        <ele>493.60</ele>
        <time>2017-02-11T09:46:43Z</time>
      </trkpt>
      <trkpt lat="42.418373000" lon="-2.534316000">
        <ele>493.60</ele>
        <time>2017-02-11T09:46:44Z</time>
      </trkpt>
      <trkpt lat="42.418357000" lon="-2.534274000">
        <ele>493.60</ele>
        <time>2017-02-11T09:46:45Z</time>
      </trkpt>
      <trkpt lat="42.418342000" lon="-2.534231000">
        <ele>493.60</ele>
        <time>2017-02-11T09:46:46Z</time>
      </trkpt>
      <trkpt lat="42.418324000" lon="-2.534191000">
        <ele>493.70</ele>
        <time>2017-02-11T09:46:47Z</time>
      </trkpt>
      <trkpt lat="42.418307000" lon="-2.534152000">
        <ele>493.70</ele>
        <time>2017-02-11T09:46:48Z</time>
      </trkpt>
      <trkpt lat="42.418293000" lon="-2.534115000">
        <ele>493.70</ele>
        <time>2017-02-11T09:46:49Z</time>
      </trkpt>
      <trkpt lat="42.418278000" lon="-2.534074000">
        <ele>493.90</ele>
        <time>2017-02-11T09:46:50Z</time>
      </trkpt>
      <trkpt lat="42.418261000" lon="-2.534029000">
        <ele>494.00</ele>
        <time>2017-02-11T09:46:51Z</time>
      </trkpt>
      <trkpt lat="42.418245000" lon="-2.533986000">
        <ele>494.10</ele>
        <time>2017-02-11T09:46:52Z</time>
      </trkpt>
      <trkpt lat="42.418227000" lon="-2.533944000">
        <ele>494.10</ele>
        <time>2017-02-11T09:46:53Z</time>
      </trkpt>
      <trkpt lat="42.418211000" lon="-2.533900000">
        <ele>494.20</ele>
        <time>2017-02-11T09:46:54Z</time>
      </trkpt>
      <trkpt lat="42.418193000" lon="-2.533857000">
        <ele>494.20</ele>
        <time>2017-02-11T09:46:55Z</time>
      </trkpt>
      <trkpt lat="42.418178000" lon="-2.533815000">
        <ele>494.20</ele>
        <time>2017-02-11T09:46:56Z</time>
      </trkpt>
      <trkpt lat="42.418163000" lon="-2.533775000">
        <ele>494.20</ele>
        <time>2017-02-11T09:46:57Z</time>
      </trkpt>
      <trkpt lat="42.418150000" lon="-2.533733000">
        <ele>494.30</ele>
        <time>2017-02-11T09:46:58Z</time>
      </trkpt>
      <trkpt lat="42.418137000" lon="-2.533690000">
        <ele>494.40</ele>
        <time>2017-02-11T09:46:59Z</time>
      </trkpt>
      <trkpt lat="42.418122000" lon="-2.533648000">
        <ele>494.40</ele>
        <time>2017-02-11T09:47:00Z</time>
      </trkpt>
      <trkpt lat="42.418111000" lon="-2.533605000">
        <ele>494.50</ele>
        <time>2017-02-11T09:47:01Z</time>
      </trkpt>
      <trkpt lat="42.418099000" lon="-2.533561000">
        <ele>494.50</ele>
        <time>2017-02-11T09:47:02Z</time>
      </trkpt>
      <trkpt lat="42.418088000" lon="-2.533517000">
        <ele>494.50</ele>
        <time>2017-02-11T09:47:03Z</time>
      </trkpt>
      <trkpt lat="42.418076000" lon="-2.533476000">
        <ele>494.50</ele>
        <time>2017-02-11T09:47:04Z</time>
      </trkpt>
      <trkpt lat="42.418062000" lon="-2.533434000">
        <ele>494.50</ele>
        <time>2017-02-11T09:47:05Z</time>
      </trkpt>
      <trkpt lat="42.418049000" lon="-2.533392000">
        <ele>494.70</ele>
        <time>2017-02-11T09:47:06Z</time>
      </trkpt>
      <trkpt lat="42.418036000" lon="-2.533350000">
        <ele>494.90</ele>
        <time>2017-02-11T09:47:07Z</time>
      </trkpt>
      <trkpt lat="42.418024000" lon="-2.533307000">
        <ele>495.00</ele>
        <time>2017-02-11T09:47:08Z</time>
      </trkpt>
      <trkpt lat="42.418010000" lon="-2.533266000">
        <ele>495.10</ele>
        <time>2017-02-11T09:47:09Z</time>
      </trkpt>
      <trkpt lat="42.417980000" lon="-2.533187000">
        <ele>495.20</ele>
        <time>2017-02-11T09:47:11Z</time>
      </trkpt>
      <trkpt lat="42.417963000" lon="-2.533147000">
        <ele>495.20</ele>
        <time>2017-02-11T09:47:12Z</time>
      </trkpt>
      <trkpt lat="42.417948000" lon="-2.533108000">
        <ele>495.30</ele>
        <time>2017-02-11T09:47:13Z</time>
      </trkpt>
      <trkpt lat="42.417930000" lon="-2.533066000">
        <ele>495.30</ele>
        <time>2017-02-11T09:47:14Z</time>
      </trkpt>
      <trkpt lat="42.417912000" lon="-2.533020000">
        <ele>495.40</ele>
        <time>2017-02-11T09:47:15Z</time>
      </trkpt>
      <trkpt lat="42.417895000" lon="-2.532974000">
        <ele>495.50</ele>
        <time>2017-02-11T09:47:16Z</time>
      </trkpt>
      <trkpt lat="42.417880000" lon="-2.532932000">
        <ele>495.60</ele>
        <time>2017-02-11T09:47:17Z</time>
      </trkpt>
      <trkpt lat="42.417861000" lon="-2.532892000">
        <ele>495.60</ele>
        <time>2017-02-11T09:47:18Z</time>
      </trkpt>
      <trkpt lat="42.417844000" lon="-2.532851000">
        <ele>495.50</ele>
        <time>2017-02-11T09:47:19Z</time>
      </trkpt>
      <trkpt lat="42.417825000" lon="-2.532811000">
        <ele>495.60</ele>
        <time>2017-02-11T09:47:20Z</time>
      </trkpt>
      <trkpt lat="42.417806000" lon="-2.532769000">
        <ele>495.70</ele>
        <time>2017-02-11T09:47:21Z</time>
      </trkpt>
      <trkpt lat="42.417789000" lon="-2.532730000">
        <ele>495.60</ele>
        <time>2017-02-11T09:47:22Z</time>
      </trkpt>
      <trkpt lat="42.417770000" lon="-2.532685000">
        <ele>495.60</ele>
        <time>2017-02-11T09:47:23Z</time>
      </trkpt>
      <trkpt lat="42.417751000" lon="-2.532644000">
        <ele>495.70</ele>
        <time>2017-02-11T09:47:24Z</time>
      </trkpt>
      <trkpt lat="42.417733000" lon="-2.532601000">
        <ele>495.80</ele>
        <time>2017-02-11T09:47:25Z</time>
      </trkpt>
      <trkpt lat="42.417714000" lon="-2.532560000">
        <ele>495.80</ele>
        <time>2017-02-11T09:47:26Z</time>
      </trkpt>
      <trkpt lat="42.417694000" lon="-2.532519000">
        <ele>495.80</ele>
        <time>2017-02-11T09:47:27Z</time>
      </trkpt>
      <trkpt lat="42.417675000" lon="-2.532479000">
        <ele>495.90</ele>
        <time>2017-02-11T09:47:28Z</time>
      </trkpt>
      <trkpt lat="42.417658000" lon="-2.532437000">
        <ele>495.90</ele>
        <time>2017-02-11T09:47:29Z</time>
      </trkpt>
      <trkpt lat="42.417640000" lon="-2.532397000">
        <ele>495.90</ele>
        <time>2017-02-11T09:47:30Z</time>
      </trkpt>
      <trkpt lat="42.417621000" lon="-2.532355000">
        <ele>496.00</ele>
        <time>2017-02-11T09:47:31Z</time>
      </trkpt>
      <trkpt lat="42.417600000" lon="-2.532314000">
        <ele>496.10</ele>
        <time>2017-02-11T09:47:32Z</time>
      </trkpt>
      <trkpt lat="42.417581000" lon="-2.532273000">
        <ele>496.10</ele>
        <time>2017-02-11T09:47:33Z</time>
      </trkpt>
      <trkpt lat="42.417560000" lon="-2.532235000">
        <ele>496.20</ele>
        <time>2017-02-11T09:47:34Z</time>
      </trkpt>
      <trkpt lat="42.417540000" lon="-2.532196000">
        <ele>496.20</ele>
        <time>2017-02-11T09:47:35Z</time>
      </trkpt>
      <trkpt lat="42.417519000" lon="-2.532160000">
        <ele>496.20</ele>
        <time>2017-02-11T09:47:36Z</time>
      </trkpt>
      <trkpt lat="42.417503000" lon="-2.532121000">
        <ele>496.30</ele>
        <time>2017-02-11T09:47:37Z</time>
      </trkpt>
      <trkpt lat="42.417486000" lon="-2.532081000">
        <ele>496.50</ele>
        <time>2017-02-11T09:47:38Z</time>
      </trkpt>
      <trkpt lat="42.417468000" lon="-2.532044000">
        <ele>496.70</ele>
        <time>2017-02-11T09:47:39Z</time>
      </trkpt>
      <trkpt lat="42.417451000" lon="-2.532007000">
        <ele>497.00</ele>
        <time>2017-02-11T09:47:40Z</time>
      </trkpt>
      <trkpt lat="42.417434000" lon="-2.531967000">
        <ele>497.10</ele>
        <time>2017-02-11T09:47:41Z</time>
      </trkpt>
      <trkpt lat="42.417415000" lon="-2.531928000">
        <ele>497.20</ele>
        <time>2017-02-11T09:47:42Z</time>
      </trkpt>
      <trkpt lat="42.417398000" lon="-2.531886000">
        <ele>497.20</ele>
        <time>2017-02-11T09:47:43Z</time>
      </trkpt>
      <trkpt lat="42.417380000" lon="-2.531845000">
        <ele>497.30</ele>
        <time>2017-02-11T09:47:44Z</time>
      </trkpt>
      <trkpt lat="42.417365000" lon="-2.531804000">
        <ele>497.30</ele>
        <time>2017-02-11T09:47:45Z</time>
      </trkpt>
      <trkpt lat="42.417348000" lon="-2.531760000">
        <ele>497.30</ele>
        <time>2017-02-11T09:47:46Z</time>
      </trkpt>
      <trkpt lat="42.417331000" lon="-2.531718000">
        <ele>497.30</ele>
        <time>2017-02-11T09:47:47Z</time>
      </trkpt>
      <trkpt lat="42.417314000" lon="-2.531676000">
        <ele>497.40</ele>
        <time>2017-02-11T09:47:48Z</time>
      </trkpt>
      <trkpt lat="42.417298000" lon="-2.531636000">
        <ele>497.50</ele>
        <time>2017-02-11T09:47:49Z</time>
      </trkpt>
      <trkpt lat="42.417281000" lon="-2.531593000">
        <ele>497.50</ele>
        <time>2017-02-11T09:47:50Z</time>
      </trkpt>
      <trkpt lat="42.417263000" lon="-2.531552000">
        <ele>497.50</ele>
        <time>2017-02-11T09:47:51Z</time>
      </trkpt>
      <trkpt lat="42.417244000" lon="-2.531509000">
        <ele>497.60</ele>
        <time>2017-02-11T09:47:52Z</time>
      </trkpt>
      <trkpt lat="42.417226000" lon="-2.531462000">
        <ele>497.60</ele>
        <time>2017-02-11T09:47:53Z</time>
      </trkpt>
      <trkpt lat="42.417206000" lon="-2.531417000">
        <ele>497.40</ele>
        <time>2017-02-11T09:47:54Z</time>
      </trkpt>
      <trkpt lat="42.417189000" lon="-2.531375000">
        <ele>497.30</ele>
        <time>2017-02-11T09:47:55Z</time>
      </trkpt>
      <trkpt lat="42.417169000" lon="-2.531329000">
        <ele>497.10</ele>
        <time>2017-02-11T09:47:56Z</time>
      </trkpt>
      <trkpt lat="42.417148000" lon="-2.531286000">
        <ele>497.10</ele>
        <time>2017-02-11T09:47:57Z</time>
      </trkpt>
      <trkpt lat="42.417131000" lon="-2.531243000">
        <ele>497.10</ele>
        <time>2017-02-11T09:47:58Z</time>
      </trkpt>
      <trkpt lat="42.417111000" lon="-2.531198000">
        <ele>497.20</ele>
        <time>2017-02-11T09:47:59Z</time>
      </trkpt>
      <trkpt lat="42.417093000" lon="-2.531152000">
        <ele>497.30</ele>
        <time>2017-02-11T09:48:00Z</time>
      </trkpt>
      <trkpt lat="42.417079000" lon="-2.531107000">
        <ele>497.40</ele>
        <time>2017-02-11T09:48:01Z</time>
      </trkpt>
      <trkpt lat="42.417064000" lon="-2.531062000">
        <ele>497.40</ele>
        <time>2017-02-11T09:48:02Z</time>
      </trkpt>
      <trkpt lat="42.417046000" lon="-2.531016000">
        <ele>497.50</ele>
        <time>2017-02-11T09:48:03Z</time>
      </trkpt>
      <trkpt lat="42.417030000" lon="-2.530972000">
        <ele>497.60</ele>
        <time>2017-02-11T09:48:04Z</time>
      </trkpt>
      <trkpt lat="42.417013000" lon="-2.530926000">
        <ele>497.70</ele>
        <time>2017-02-11T09:48:05Z</time>
      </trkpt>
      <trkpt lat="42.416997000" lon="-2.530878000">
        <ele>498.00</ele>
        <time>2017-02-11T09:48:06Z</time>
      </trkpt>
      <trkpt lat="42.416980000" lon="-2.530833000">
        <ele>498.20</ele>
        <time>2017-02-11T09:48:07Z</time>
      </trkpt>
      <trkpt lat="42.416964000" lon="-2.530787000">
        <ele>498.30</ele>
        <time>2017-02-11T09:48:08Z</time>
      </trkpt>
      <trkpt lat="42.416945000" lon="-2.530743000">
        <ele>498.50</ele>
        <time>2017-02-11T09:48:09Z</time>
      </trkpt>
      <trkpt lat="42.416930000" lon="-2.530698000">
        <ele>498.60</ele>
        <time>2017-02-11T09:48:10Z</time>
      </trkpt>
      <trkpt lat="42.416904000" lon="-2.530606000">
        <ele>498.80</ele>
        <time>2017-02-11T09:48:12Z</time>
      </trkpt>
      <trkpt lat="42.416888000" lon="-2.530561000">
        <ele>498.80</ele>
        <time>2017-02-11T09:48:13Z</time>
      </trkpt>
      <trkpt lat="42.416872000" lon="-2.530515000">
        <ele>498.90</ele>
        <time>2017-02-11T09:48:14Z</time>
      </trkpt>
      <trkpt lat="42.416858000" lon="-2.530469000">
        <ele>499.00</ele>
        <time>2017-02-11T09:48:15Z</time>
      </trkpt>
      <trkpt lat="42.416842000" lon="-2.530423000">
        <ele>499.00</ele>
        <time>2017-02-11T09:48:16Z</time>
      </trkpt>
      <trkpt lat="42.416825000" lon="-2.530374000">
        <ele>499.00</ele>
        <time>2017-02-11T09:48:17Z</time>
      </trkpt>
      <trkpt lat="42.416810000" lon="-2.530327000">
        <ele>499.10</ele>
        <time>2017-02-11T09:48:18Z</time>
      </trkpt>
      <trkpt lat="42.416793000" lon="-2.530281000">
        <ele>499.20</ele>
        <time>2017-02-11T09:48:19Z</time>
      </trkpt>
      <trkpt lat="42.416782000" lon="-2.530232000">
        <ele>499.20</ele>
        <time>2017-02-11T09:48:20Z</time>
      </trkpt>
      <trkpt lat="42.416770000" lon="-2.530184000">
        <ele>499.10</ele>
        <time>2017-02-11T09:48:21Z</time>
      </trkpt>
      <trkpt lat="42.416753000" lon="-2.530136000">
        <ele>499.20</ele>
        <time>2017-02-11T09:48:22Z</time>
      </trkpt>
      <trkpt lat="42.416737000" lon="-2.530092000">
        <ele>499.20</ele>
        <time>2017-02-11T09:48:23Z</time>
      </trkpt>
      <trkpt lat="42.416721000" lon="-2.530047000">
        <ele>499.20</ele>
        <time>2017-02-11T09:48:24Z</time>
      </trkpt>
      <trkpt lat="42.416704000" lon="-2.529999000">
        <ele>499.20</ele>
        <time>2017-02-11T09:48:25Z</time>
      </trkpt>
      <trkpt lat="42.416692000" lon="-2.529953000">
        <ele>499.20</ele>
        <time>2017-02-11T09:48:26Z</time>
      </trkpt>
      <trkpt lat="42.416681000" lon="-2.529907000">
        <ele>499.30</ele>
        <time>2017-02-11T09:48:27Z</time>
      </trkpt>
      <trkpt lat="42.416671000" lon="-2.529861000">
        <ele>499.30</ele>
        <time>2017-02-11T09:48:28Z</time>
      </trkpt>
      <trkpt lat="42.416656000" lon="-2.529813000">
        <ele>499.30</ele>
        <time>2017-02-11T09:48:29Z</time>
      </trkpt>
      <trkpt lat="42.416645000" lon="-2.529766000">
        <ele>499.40</ele>
        <time>2017-02-11T09:48:30Z</time>
      </trkpt>
      <trkpt lat="42.416633000" lon="-2.529717000">
        <ele>499.50</ele>
        <time>2017-02-11T09:48:31Z</time>
      </trkpt>
      <trkpt lat="42.416619000" lon="-2.529673000">
        <ele>499.50</ele>
        <time>2017-02-11T09:48:32Z</time>
      </trkpt>
      <trkpt lat="42.416604000" lon="-2.529631000">
        <ele>499.50</ele>
        <time>2017-02-11T09:48:33Z</time>
      </trkpt>
      <trkpt lat="42.416586000" lon="-2.529589000">
        <ele>499.60</ele>
        <time>2017-02-11T09:48:34Z</time>
      </trkpt>
      <trkpt lat="42.416570000" lon="-2.529547000">
        <ele>499.60</ele>
        <time>2017-02-11T09:48:35Z</time>
      </trkpt>
      <trkpt lat="42.416553000" lon="-2.529502000">
        <ele>499.80</ele>
        <time>2017-02-11T09:48:36Z</time>
      </trkpt>
      <trkpt lat="42.416535000" lon="-2.529453000">
        <ele>499.90</ele>
        <time>2017-02-11T09:48:37Z</time>
      </trkpt>
      <trkpt lat="42.416518000" lon="-2.529404000">
        <ele>500.10</ele>
        <time>2017-02-11T09:48:38Z</time>
      </trkpt>
      <trkpt lat="42.416502000" lon="-2.529353000">
        <ele>500.20</ele>
        <time>2017-02-11T09:48:39Z</time>
      </trkpt>
      <trkpt lat="42.416486000" lon="-2.529303000">
        <ele>500.20</ele>
        <time>2017-02-11T09:48:40Z</time>
      </trkpt>
      <trkpt lat="42.416474000" lon="-2.529253000">
        <ele>500.30</ele>
        <time>2017-02-11T09:48:41Z</time>
      </trkpt>
      <trkpt lat="42.416460000" lon="-2.529204000">
        <ele>500.20</ele>
        <time>2017-02-11T09:48:42Z</time>
      </trkpt>
      <trkpt lat="42.416444000" lon="-2.529155000">
        <ele>500.20</ele>
        <time>2017-02-11T09:48:43Z</time>
      </trkpt>
      <trkpt lat="42.416429000" lon="-2.529106000">
        <ele>500.20</ele>
        <time>2017-02-11T09:48:44Z</time>
      </trkpt>
      <trkpt lat="42.416415000" lon="-2.529055000">
        <ele>500.20</ele>
        <time>2017-02-11T09:48:45Z</time>
      </trkpt>
      <trkpt lat="42.416400000" lon="-2.529006000">
        <ele>500.20</ele>
        <time>2017-02-11T09:48:46Z</time>
      </trkpt>
      <trkpt lat="42.416383000" lon="-2.528954000">
        <ele>500.20</ele>
        <time>2017-02-11T09:48:47Z</time>
      </trkpt>
      <trkpt lat="42.416366000" lon="-2.528904000">
        <ele>500.20</ele>
        <time>2017-02-11T09:48:48Z</time>
      </trkpt>
      <trkpt lat="42.416349000" lon="-2.528854000">
        <ele>500.20</ele>
        <time>2017-02-11T09:48:49Z</time>
      </trkpt>
      <trkpt lat="42.416334000" lon="-2.528800000">
        <ele>500.30</ele>
        <time>2017-02-11T09:48:50Z</time>
      </trkpt>
      <trkpt lat="42.416317000" lon="-2.528749000">
        <ele>500.40</ele>
        <time>2017-02-11T09:48:51Z</time>
      </trkpt>
      <trkpt lat="42.416299000" lon="-2.528701000">
        <ele>500.50</ele>
        <time>2017-02-11T09:48:52Z</time>
      </trkpt>
      <trkpt lat="42.416281000" lon="-2.528654000">
        <ele>500.50</ele>
        <time>2017-02-11T09:48:53Z</time>
      </trkpt>
      <trkpt lat="42.416261000" lon="-2.528609000">
        <ele>500.50</ele>
        <time>2017-02-11T09:48:54Z</time>
      </trkpt>
      <trkpt lat="42.416241000" lon="-2.528564000">
        <ele>500.50</ele>
        <time>2017-02-11T09:48:55Z</time>
      </trkpt>
      <trkpt lat="42.416217000" lon="-2.528519000">
        <ele>500.50</ele>
        <time>2017-02-11T09:48:56Z</time>
      </trkpt>
      <trkpt lat="42.416194000" lon="-2.528475000">
        <ele>500.50</ele>
        <time>2017-02-11T09:48:57Z</time>
      </trkpt>
      <trkpt lat="42.416171000" lon="-2.528430000">
        <ele>500.40</ele>
        <time>2017-02-11T09:48:58Z</time>
      </trkpt>
      <trkpt lat="42.416151000" lon="-2.528382000">
        <ele>500.40</ele>
        <time>2017-02-11T09:48:59Z</time>
      </trkpt>
      <trkpt lat="42.416129000" lon="-2.528334000">
        <ele>500.40</ele>
        <time>2017-02-11T09:49:00Z</time>
      </trkpt>
      <trkpt lat="42.416107000" lon="-2.528289000">
        <ele>500.40</ele>
        <time>2017-02-11T09:49:01Z</time>
      </trkpt>
      <trkpt lat="42.416084000" lon="-2.528244000">
        <ele>500.40</ele>
        <time>2017-02-11T09:49:02Z</time>
      </trkpt>
      <trkpt lat="42.416062000" lon="-2.528197000">
        <ele>500.30</ele>
        <time>2017-02-11T09:49:03Z</time>
      </trkpt>
      <trkpt lat="42.416040000" lon="-2.528151000">
        <ele>500.30</ele>
        <time>2017-02-11T09:49:04Z</time>
      </trkpt>
      <trkpt lat="42.416017000" lon="-2.528104000">
        <ele>500.20</ele>
        <time>2017-02-11T09:49:05Z</time>
      </trkpt>
      <trkpt lat="42.415995000" lon="-2.528060000">
        <ele>500.20</ele>
        <time>2017-02-11T09:49:06Z</time>
      </trkpt>
      <trkpt lat="42.415979000" lon="-2.528013000">
        <ele>500.20</ele>
        <time>2017-02-11T09:49:07Z</time>
      </trkpt>
      <trkpt lat="42.415961000" lon="-2.527974000">
        <ele>500.20</ele>
        <time>2017-02-11T09:49:08Z</time>
      </trkpt>
      <trkpt lat="42.415943000" lon="-2.527934000">
        <ele>500.20</ele>
        <time>2017-02-11T09:49:09Z</time>
      </trkpt>
      <trkpt lat="42.415927000" lon="-2.527891000">
        <ele>500.40</ele>
        <time>2017-02-11T09:49:10Z</time>
      </trkpt>
      <trkpt lat="42.415911000" lon="-2.527849000">
        <ele>500.50</ele>
        <time>2017-02-11T09:49:11Z</time>
      </trkpt>
      <trkpt lat="42.415876000" lon="-2.527759000">
        <ele>500.70</ele>
        <time>2017-02-11T09:49:13Z</time>
      </trkpt>
      <trkpt lat="42.415859000" lon="-2.527713000">
        <ele>500.80</ele>
        <time>2017-02-11T09:49:14Z</time>
      </trkpt>
      <trkpt lat="42.415841000" lon="-2.527671000">
        <ele>500.90</ele>
        <time>2017-02-11T09:49:15Z</time>
      </trkpt>
      <trkpt lat="42.415825000" lon="-2.527629000">
        <ele>501.10</ele>
        <time>2017-02-11T09:49:16Z</time>
      </trkpt>
      <trkpt lat="42.415806000" lon="-2.527588000">
        <ele>501.20</ele>
        <time>2017-02-11T09:49:17Z</time>
      </trkpt>
      <trkpt lat="42.415790000" lon="-2.527548000">
        <ele>501.30</ele>
        <time>2017-02-11T09:49:18Z</time>
      </trkpt>
      <trkpt lat="42.415773000" lon="-2.527507000">
        <ele>501.40</ele>
        <time>2017-02-11T09:49:19Z</time>
      </trkpt>
      <trkpt lat="42.415753000" lon="-2.527465000">
        <ele>501.50</ele>
        <time>2017-02-11T09:49:20Z</time>
      </trkpt>
      <trkpt lat="42.415735000" lon="-2.527423000">
        <ele>501.50</ele>
        <time>2017-02-11T09:49:21Z</time>
      </trkpt>
      <trkpt lat="42.415716000" lon="-2.527385000">
        <ele>501.50</ele>
        <time>2017-02-11T09:49:22Z</time>
      </trkpt>
      <trkpt lat="42.415697000" lon="-2.527345000">
        <ele>501.60</ele>
        <time>2017-02-11T09:49:23Z</time>
      </trkpt>
      <trkpt lat="42.415679000" lon="-2.527307000">
        <ele>501.70</ele>
        <time>2017-02-11T09:49:24Z</time>
      </trkpt>
      <trkpt lat="42.415660000" lon="-2.527268000">
        <ele>501.80</ele>
        <time>2017-02-11T09:49:25Z</time>
      </trkpt>
      <trkpt lat="42.415642000" lon="-2.527226000">
        <ele>501.90</ele>
        <time>2017-02-11T09:49:26Z</time>
      </trkpt>
      <trkpt lat="42.415622000" lon="-2.527185000">
        <ele>502.00</ele>
        <time>2017-02-11T09:49:27Z</time>
      </trkpt>
      <trkpt lat="42.415601000" lon="-2.527140000">
        <ele>502.00</ele>
        <time>2017-02-11T09:49:28Z</time>
      </trkpt>
      <trkpt lat="42.415582000" lon="-2.527096000">
        <ele>502.10</ele>
        <time>2017-02-11T09:49:29Z</time>
      </trkpt>
      <trkpt lat="42.415563000" lon="-2.527052000">
        <ele>502.20</ele>
        <time>2017-02-11T09:49:30Z</time>
      </trkpt>
      <trkpt lat="42.415540000" lon="-2.527011000">
        <ele>502.30</ele>
        <time>2017-02-11T09:49:31Z</time>
      </trkpt>
      <trkpt lat="42.415522000" lon="-2.526966000">
        <ele>502.40</ele>
        <time>2017-02-11T09:49:32Z</time>
      </trkpt>
      <trkpt lat="42.415505000" lon="-2.526922000">
        <ele>502.50</ele>
        <time>2017-02-11T09:49:33Z</time>
      </trkpt>
      <trkpt lat="42.415489000" lon="-2.526878000">
        <ele>502.40</ele>
        <time>2017-02-11T09:49:34Z</time>
      </trkpt>
      <trkpt lat="42.415470000" lon="-2.526833000">
        <ele>502.30</ele>
        <time>2017-02-11T09:49:35Z</time>
      </trkpt>
      <trkpt lat="42.415455000" lon="-2.526788000">
        <ele>502.20</ele>
        <time>2017-02-11T09:49:36Z</time>
      </trkpt>
      <trkpt lat="42.415437000" lon="-2.526742000">
        <ele>502.00</ele>
        <time>2017-02-11T09:49:37Z</time>
      </trkpt>
      <trkpt lat="42.415422000" lon="-2.526696000">
        <ele>501.90</ele>
        <time>2017-02-11T09:49:38Z</time>
      </trkpt>
      <trkpt lat="42.415407000" lon="-2.526650000">
        <ele>501.90</ele>
        <time>2017-02-11T09:49:39Z</time>
      </trkpt>
      <trkpt lat="42.415386000" lon="-2.526607000">
        <ele>501.80</ele>
        <time>2017-02-11T09:49:40Z</time>
      </trkpt>
      <trkpt lat="42.415366000" lon="-2.526560000">
        <ele>501.80</ele>
        <time>2017-02-11T09:49:41Z</time>
      </trkpt>
      <trkpt lat="42.415346000" lon="-2.526511000">
        <ele>501.60</ele>
        <time>2017-02-11T09:49:42Z</time>
      </trkpt>
      <trkpt lat="42.415329000" lon="-2.526465000">
        <ele>501.50</ele>
        <time>2017-02-11T09:49:43Z</time>
      </trkpt>
      <trkpt lat="42.415312000" lon="-2.526417000">
        <ele>501.40</ele>
        <time>2017-02-11T09:49:44Z</time>
      </trkpt>
      <trkpt lat="42.415292000" lon="-2.526377000">
        <ele>501.30</ele>
        <time>2017-02-11T09:49:45Z</time>
      </trkpt>
      <trkpt lat="42.415274000" lon="-2.526336000">
        <ele>501.30</ele>
        <time>2017-02-11T09:49:46Z</time>
      </trkpt>
      <trkpt lat="42.415256000" lon="-2.526294000">
        <ele>501.20</ele>
        <time>2017-02-11T09:49:47Z</time>
      </trkpt>
      <trkpt lat="42.415240000" lon="-2.526252000">
        <ele>501.60</ele>
        <time>2017-02-11T09:49:48Z</time>
      </trkpt>
      <trkpt lat="42.415223000" lon="-2.526212000">
        <ele>501.90</ele>
        <time>2017-02-11T09:49:49Z</time>
      </trkpt>
      <trkpt lat="42.415208000" lon="-2.526170000">
        <ele>502.10</ele>
        <time>2017-02-11T09:49:50Z</time>
      </trkpt>
      <trkpt lat="42.415191000" lon="-2.526131000">
        <ele>502.20</ele>
        <time>2017-02-11T09:49:51Z</time>
      </trkpt>
      <trkpt lat="42.415172000" lon="-2.526096000">
        <ele>502.30</ele>
        <time>2017-02-11T09:49:52Z</time>
      </trkpt>
      <trkpt lat="42.415157000" lon="-2.526063000">
        <ele>502.40</ele>
        <time>2017-02-11T09:49:53Z</time>
      </trkpt>
      <trkpt lat="42.415141000" lon="-2.526031000">
        <ele>502.40</ele>
        <time>2017-02-11T09:49:54Z</time>
      </trkpt>
      <trkpt lat="42.415126000" lon="-2.525999000">
        <ele>502.40</ele>
        <time>2017-02-11T09:49:55Z</time>
      </trkpt>
      <trkpt lat="42.415109000" lon="-2.525960000">
        <ele>502.50</ele>
        <time>2017-02-11T09:49:56Z</time>
      </trkpt>
      <trkpt lat="42.415092000" lon="-2.525923000">
        <ele>502.50</ele>
        <time>2017-02-11T09:49:57Z</time>
      </trkpt>
      <trkpt lat="42.415078000" lon="-2.525881000">
        <ele>502.70</ele>
        <time>2017-02-11T09:49:58Z</time>
      </trkpt>
      <trkpt lat="42.415064000" lon="-2.525839000">
        <ele>502.80</ele>
        <time>2017-02-11T09:49:59Z</time>
      </trkpt>
      <trkpt lat="42.415047000" lon="-2.525795000">
        <ele>502.90</ele>
        <time>2017-02-11T09:50:00Z</time>
      </trkpt>
      <trkpt lat="42.415028000" lon="-2.525752000">
        <ele>503.00</ele>
        <time>2017-02-11T09:50:01Z</time>
      </trkpt>
      <trkpt lat="42.415011000" lon="-2.525710000">
        <ele>503.10</ele>
        <time>2017-02-11T09:50:02Z</time>
      </trkpt>
      <trkpt lat="42.414994000" lon="-2.525666000">
        <ele>503.10</ele>
        <time>2017-02-11T09:50:03Z</time>
      </trkpt>
      <trkpt lat="42.414979000" lon="-2.525623000">
        <ele>503.10</ele>
        <time>2017-02-11T09:50:04Z</time>
      </trkpt>
      <trkpt lat="42.414962000" lon="-2.525580000">
        <ele>503.10</ele>
        <time>2017-02-11T09:50:05Z</time>
      </trkpt>
      <trkpt lat="42.414947000" lon="-2.525536000">
        <ele>503.20</ele>
        <time>2017-02-11T09:50:06Z</time>
      </trkpt>
      <trkpt lat="42.414934000" lon="-2.525491000">
        <ele>503.20</ele>
        <time>2017-02-11T09:50:07Z</time>
      </trkpt>
      <trkpt lat="42.414919000" lon="-2.525444000">
        <ele>503.20</ele>
        <time>2017-02-11T09:50:08Z</time>
      </trkpt>
      <trkpt lat="42.414902000" lon="-2.525400000">
        <ele>503.20</ele>
        <time>2017-02-11T09:50:09Z</time>
      </trkpt>
      <trkpt lat="42.414884000" lon="-2.525355000">
        <ele>503.50</ele>
        <time>2017-02-11T09:50:10Z</time>
      </trkpt>
      <trkpt lat="42.414867000" lon="-2.525309000">
        <ele>503.70</ele>
        <time>2017-02-11T09:50:11Z</time>
      </trkpt>
      <trkpt lat="42.414850000" lon="-2.525266000">
        <ele>503.70</ele>
        <time>2017-02-11T09:50:12Z</time>
      </trkpt>
      <trkpt lat="42.414820000" lon="-2.525175000">
        <ele>503.70</ele>
        <time>2017-02-11T09:50:14Z</time>
      </trkpt>
      <trkpt lat="42.414804000" lon="-2.525128000">
        <ele>503.70</ele>
        <time>2017-02-11T09:50:15Z</time>
      </trkpt>
      <trkpt lat="42.414788000" lon="-2.525080000">
        <ele>503.70</ele>
        <time>2017-02-11T09:50:16Z</time>
      </trkpt>
      <trkpt lat="42.414772000" lon="-2.525032000">
        <ele>503.70</ele>
        <time>2017-02-11T09:50:17Z</time>
      </trkpt>
      <trkpt lat="42.414759000" lon="-2.524984000">
        <ele>503.70</ele>
        <time>2017-02-11T09:50:18Z</time>
      </trkpt>
      <trkpt lat="42.414744000" lon="-2.524937000">
        <ele>503.70</ele>
        <time>2017-02-11T09:50:19Z</time>
      </trkpt>
      <trkpt lat="42.414730000" lon="-2.524889000">
        <ele>503.90</ele>
        <time>2017-02-11T09:50:20Z</time>
      </trkpt>
      <trkpt lat="42.414717000" lon="-2.524840000">
        <ele>504.10</ele>
        <time>2017-02-11T09:50:21Z</time>
      </trkpt>
      <trkpt lat="42.414705000" lon="-2.524792000">
        <ele>504.30</ele>
        <time>2017-02-11T09:50:22Z</time>
      </trkpt>
      <trkpt lat="42.414691000" lon="-2.524743000">
        <ele>504.50</ele>
        <time>2017-02-11T09:50:23Z</time>
      </trkpt>
      <trkpt lat="42.414676000" lon="-2.524693000">
        <ele>504.60</ele>
        <time>2017-02-11T09:50:24Z</time>
      </trkpt>
      <trkpt lat="42.414658000" lon="-2.524648000">
        <ele>504.70</ele>
        <time>2017-02-11T09:50:25Z</time>
      </trkpt>
      <trkpt lat="42.414641000" lon="-2.524607000">
        <ele>504.50</ele>
        <time>2017-02-11T09:50:26Z</time>
      </trkpt>
      <trkpt lat="42.414625000" lon="-2.524566000">
        <ele>504.40</ele>
        <time>2017-02-11T09:50:27Z</time>
      </trkpt>
      <trkpt lat="42.414610000" lon="-2.524524000">
        <ele>504.30</ele>
        <time>2017-02-11T09:50:28Z</time>
      </trkpt>
      <trkpt lat="42.414598000" lon="-2.524485000">
        <ele>504.20</ele>
        <time>2017-02-11T09:50:29Z</time>
      </trkpt>
      <trkpt lat="42.414583000" lon="-2.524439000">
        <ele>504.40</ele>
        <time>2017-02-11T09:50:30Z</time>
      </trkpt>
      <trkpt lat="42.414570000" lon="-2.524396000">
        <ele>504.50</ele>
        <time>2017-02-11T09:50:31Z</time>
      </trkpt>
      <trkpt lat="42.414555000" lon="-2.524350000">
        <ele>504.60</ele>
        <time>2017-02-11T09:50:32Z</time>
      </trkpt>
      <trkpt lat="42.414543000" lon="-2.524302000">
        <ele>504.70</ele>
        <time>2017-02-11T09:50:33Z</time>
      </trkpt>
      <trkpt lat="42.414532000" lon="-2.524254000">
        <ele>504.80</ele>
        <time>2017-02-11T09:50:34Z</time>
      </trkpt>
      <trkpt lat="42.414520000" lon="-2.524203000">
        <ele>504.90</ele>
        <time>2017-02-11T09:50:35Z</time>
      </trkpt>
      <trkpt lat="42.414506000" lon="-2.524154000">
        <ele>504.90</ele>
        <time>2017-02-11T09:50:36Z</time>
      </trkpt>
      <trkpt lat="42.414494000" lon="-2.524104000">
        <ele>504.80</ele>
        <time>2017-02-11T09:50:37Z</time>
      </trkpt>
      <trkpt lat="42.414484000" lon="-2.524056000">
        <ele>504.80</ele>
        <time>2017-02-11T09:50:38Z</time>
      </trkpt>
      <trkpt lat="42.414475000" lon="-2.524010000">
        <ele>504.70</ele>
        <time>2017-02-11T09:50:39Z</time>
      </trkpt>
      <trkpt lat="42.414465000" lon="-2.523968000">
        <ele>504.70</ele>
        <time>2017-02-11T09:50:40Z</time>
      </trkpt>
      <trkpt lat="42.414451000" lon="-2.523924000">
        <ele>504.60</ele>
        <time>2017-02-11T09:50:41Z</time>
      </trkpt>
      <trkpt lat="42.414443000" lon="-2.523880000">
        <ele>504.80</ele>
        <time>2017-02-11T09:50:42Z</time>
      </trkpt>
      <trkpt lat="42.414434000" lon="-2.523837000">
        <ele>504.90</ele>
        <time>2017-02-11T09:50:43Z</time>
      </trkpt>
      <trkpt lat="42.414421000" lon="-2.523792000">
        <ele>505.00</ele>
        <time>2017-02-11T09:50:44Z</time>
      </trkpt>
      <trkpt lat="42.414411000" lon="-2.523747000">
        <ele>505.10</ele>
        <time>2017-02-11T09:50:45Z</time>
      </trkpt>
      <trkpt lat="42.414398000" lon="-2.523702000">
        <ele>505.20</ele>
        <time>2017-02-11T09:50:46Z</time>
      </trkpt>
      <trkpt lat="42.414390000" lon="-2.523655000">
        <ele>505.20</ele>
        <time>2017-02-11T09:50:47Z</time>
      </trkpt>
      <trkpt lat="42.414383000" lon="-2.523609000">
        <ele>505.30</ele>
        <time>2017-02-11T09:50:48Z</time>
      </trkpt>
      <trkpt lat="42.414372000" lon="-2.523562000">
        <ele>505.30</ele>
        <time>2017-02-11T09:50:49Z</time>
      </trkpt>
      <trkpt lat="42.414364000" lon="-2.523516000">
        <ele>505.40</ele>
        <time>2017-02-11T09:50:50Z</time>
      </trkpt>
      <trkpt lat="42.414352000" lon="-2.523473000">
        <ele>505.40</ele>
        <time>2017-02-11T09:50:51Z</time>
      </trkpt>
      <trkpt lat="42.414342000" lon="-2.523430000">
        <ele>505.50</ele>
        <time>2017-02-11T09:50:52Z</time>
      </trkpt>
      <trkpt lat="42.414335000" lon="-2.523387000">
        <ele>505.50</ele>
        <time>2017-02-11T09:50:53Z</time>
      </trkpt>
      <trkpt lat="42.414331000" lon="-2.523341000">
        <ele>505.60</ele>
        <time>2017-02-11T09:50:54Z</time>
      </trkpt>
      <trkpt lat="42.414320000" lon="-2.523295000">
        <ele>505.70</ele>
        <time>2017-02-11T09:50:55Z</time>
      </trkpt>
      <trkpt lat="42.414310000" lon="-2.523247000">
        <ele>505.90</ele>
        <time>2017-02-11T09:50:56Z</time>
      </trkpt>
      <trkpt lat="42.414296000" lon="-2.523201000">
        <ele>506.10</ele>
        <time>2017-02-11T09:50:57Z</time>
      </trkpt>
      <trkpt lat="42.414285000" lon="-2.523152000">
        <ele>506.10</ele>
        <time>2017-02-11T09:50:58Z</time>
      </trkpt>
      <trkpt lat="42.414276000" lon="-2.523104000">
        <ele>506.00</ele>
        <time>2017-02-11T09:50:59Z</time>
      </trkpt>
      <trkpt lat="42.414267000" lon="-2.523055000">
        <ele>506.30</ele>
        <time>2017-02-11T09:51:00Z</time>
      </trkpt>
      <trkpt lat="42.414256000" lon="-2.523008000">
        <ele>506.40</ele>
        <time>2017-02-11T09:51:01Z</time>
      </trkpt>
      <trkpt lat="42.414246000" lon="-2.522959000">
        <ele>506.30</ele>
        <time>2017-02-11T09:51:02Z</time>
      </trkpt>
      <trkpt lat="42.414236000" lon="-2.522911000">
        <ele>506.20</ele>
        <time>2017-02-11T09:51:03Z</time>
      </trkpt>
      <trkpt lat="42.414224000" lon="-2.522863000">
        <ele>506.10</ele>
        <time>2017-02-11T09:51:04Z</time>
      </trkpt>
      <trkpt lat="42.414212000" lon="-2.522814000">
        <ele>506.00</ele>
        <time>2017-02-11T09:51:05Z</time>
      </trkpt>
      <trkpt lat="42.414202000" lon="-2.522765000">
        <ele>505.90</ele>
        <time>2017-02-11T09:51:06Z</time>
      </trkpt>
      <trkpt lat="42.414189000" lon="-2.522715000">
        <ele>505.80</ele>
        <time>2017-02-11T09:51:07Z</time>
      </trkpt>
      <trkpt lat="42.414178000" lon="-2.522668000">
        <ele>505.70</ele>
        <time>2017-02-11T09:51:08Z</time>
      </trkpt>
      <trkpt lat="42.414168000" lon="-2.522622000">
        <ele>505.70</ele>
        <time>2017-02-11T09:51:09Z</time>
      </trkpt>
      <trkpt lat="42.414162000" lon="-2.522573000">
        <ele>505.60</ele>
        <time>2017-02-11T09:51:10Z</time>
      </trkpt>
      <trkpt lat="42.414151000" lon="-2.522525000">
        <ele>505.60</ele>
        <time>2017-02-11T09:51:11Z</time>
      </trkpt>
      <trkpt lat="42.414139000" lon="-2.522476000">
        <ele>505.60</ele>
        <time>2017-02-11T09:51:12Z</time>
      </trkpt>
      <trkpt lat="42.414130000" lon="-2.522426000">
        <ele>505.60</ele>
        <time>2017-02-11T09:51:13Z</time>
      </trkpt>
      <trkpt lat="42.414109000" lon="-2.522328000">
        <ele>506.00</ele>
        <time>2017-02-11T09:51:15Z</time>
      </trkpt>
      <trkpt lat="42.414097000" lon="-2.522283000">
        <ele>506.10</ele>
        <time>2017-02-11T09:51:16Z</time>
      </trkpt>
      <trkpt lat="42.414083000" lon="-2.522238000">
        <ele>506.20</ele>
        <time>2017-02-11T09:51:17Z</time>
      </trkpt>
      <trkpt lat="42.414075000" lon="-2.522187000">
        <ele>506.20</ele>
        <time>2017-02-11T09:51:18Z</time>
      </trkpt>
      <trkpt lat="42.414069000" lon="-2.522135000">
        <ele>506.30</ele>
        <time>2017-02-11T09:51:19Z</time>
      </trkpt>
      <trkpt lat="42.414058000" lon="-2.522088000">
        <ele>506.50</ele>
        <time>2017-02-11T09:51:20Z</time>
      </trkpt>
      <trkpt lat="42.414046000" lon="-2.522041000">
        <ele>506.60</ele>
        <time>2017-02-11T09:51:21Z</time>
      </trkpt>
      <trkpt lat="42.414036000" lon="-2.521996000">
        <ele>506.60</ele>
        <time>2017-02-11T09:51:22Z</time>
      </trkpt>
      <trkpt lat="42.414028000" lon="-2.521949000">
        <ele>506.50</ele>
        <time>2017-02-11T09:51:23Z</time>
      </trkpt>
      <trkpt lat="42.414018000" lon="-2.521901000">
        <ele>506.50</ele>
        <time>2017-02-11T09:51:24Z</time>
      </trkpt>
      <trkpt lat="42.414013000" lon="-2.521855000">
        <ele>506.50</ele>
        <time>2017-02-11T09:51:25Z</time>
      </trkpt>
      <trkpt lat="42.414004000" lon="-2.521807000">
        <ele>506.30</ele>
        <time>2017-02-11T09:51:26Z</time>
      </trkpt>
      <trkpt lat="42.413992000" lon="-2.521760000">
        <ele>506.20</ele>
        <time>2017-02-11T09:51:27Z</time>
      </trkpt>
      <trkpt lat="42.413981000" lon="-2.521711000">
        <ele>506.30</ele>
        <time>2017-02-11T09:51:28Z</time>
      </trkpt>
      <trkpt lat="42.413969000" lon="-2.521663000">
        <ele>506.30</ele>
        <time>2017-02-11T09:51:29Z</time>
      </trkpt>
      <trkpt lat="42.413958000" lon="-2.521616000">
        <ele>506.20</ele>
        <time>2017-02-11T09:51:30Z</time>
      </trkpt>
      <trkpt lat="42.413947000" lon="-2.521569000">
        <ele>506.00</ele>
        <time>2017-02-11T09:51:31Z</time>
      </trkpt>
      <trkpt lat="42.413933000" lon="-2.521525000">
        <ele>506.00</ele>
        <time>2017-02-11T09:51:32Z</time>
      </trkpt>
      <trkpt lat="42.413921000" lon="-2.521478000">
        <ele>506.00</ele>
        <time>2017-02-11T09:51:33Z</time>
      </trkpt>
      <trkpt lat="42.413915000" lon="-2.521431000">
        <ele>506.00</ele>
        <time>2017-02-11T09:51:34Z</time>
      </trkpt>
      <trkpt lat="42.413910000" lon="-2.521389000">
        <ele>506.00</ele>
        <time>2017-02-11T09:51:35Z</time>
      </trkpt>
      <trkpt lat="42.413901000" lon="-2.521348000">
        <ele>506.20</ele>
        <time>2017-02-11T09:51:36Z</time>
      </trkpt>
      <trkpt lat="42.413894000" lon="-2.521306000">
        <ele>506.40</ele>
        <time>2017-02-11T09:51:37Z</time>
      </trkpt>
      <trkpt lat="42.413886000" lon="-2.521258000">
        <ele>506.60</ele>
        <time>2017-02-11T09:51:38Z</time>
      </trkpt>
      <trkpt lat="42.413878000" lon="-2.521216000">
        <ele>506.70</ele>
        <time>2017-02-11T09:51:39Z</time>
      </trkpt>
      <trkpt lat="42.413871000" lon="-2.521170000">
        <ele>506.80</ele>
        <time>2017-02-11T09:51:40Z</time>
      </trkpt>
      <trkpt lat="42.413867000" lon="-2.521124000">
        <ele>506.90</ele>
        <time>2017-02-11T09:51:41Z</time>
      </trkpt>
      <trkpt lat="42.413861000" lon="-2.521078000">
        <ele>506.90</ele>
        <time>2017-02-11T09:51:42Z</time>
      </trkpt>
      <trkpt lat="42.413853000" lon="-2.521032000">
        <ele>506.90</ele>
        <time>2017-02-11T09:51:43Z</time>
      </trkpt>
      <trkpt lat="42.413847000" lon="-2.520988000">
        <ele>506.90</ele>
        <time>2017-02-11T09:51:44Z</time>
      </trkpt>
      <trkpt lat="42.413843000" lon="-2.520947000">
        <ele>506.90</ele>
        <time>2017-02-11T09:51:45Z</time>
      </trkpt>
      <trkpt lat="42.413841000" lon="-2.520906000">
        <ele>506.90</ele>
        <time>2017-02-11T09:51:46Z</time>
      </trkpt>
      <trkpt lat="42.413836000" lon="-2.520866000">
        <ele>506.90</ele>
        <time>2017-02-11T09:51:47Z</time>
      </trkpt>
      <trkpt lat="42.413828000" lon="-2.520833000">
        <ele>506.90</ele>
        <time>2017-02-11T09:51:48Z</time>
      </trkpt>
      <trkpt lat="42.413824000" lon="-2.520802000">
        <ele>506.90</ele>
        <time>2017-02-11T09:51:49Z</time>
      </trkpt>
      <trkpt lat="42.413822000" lon="-2.520769000">
        <ele>506.80</ele>
        <time>2017-02-11T09:51:50Z</time>
      </trkpt>
      <trkpt lat="42.413818000" lon="-2.520736000">
        <ele>506.80</ele>
        <time>2017-02-11T09:51:51Z</time>
      </trkpt>
      <trkpt lat="42.413809000" lon="-2.520701000">
        <ele>506.90</ele>
        <time>2017-02-11T09:51:52Z</time>
      </trkpt>
      <trkpt lat="42.413805000" lon="-2.520662000">
        <ele>506.90</ele>
        <time>2017-02-11T09:51:53Z</time>
      </trkpt>
      <trkpt lat="42.413798000" lon="-2.520622000">
        <ele>507.00</ele>
        <time>2017-02-11T09:51:54Z</time>
      </trkpt>
      <trkpt lat="42.413795000" lon="-2.520580000">
        <ele>507.10</ele>
        <time>2017-02-11T09:51:55Z</time>
      </trkpt>
      <trkpt lat="42.413789000" lon="-2.520537000">
        <ele>507.20</ele>
        <time>2017-02-11T09:51:56Z</time>
      </trkpt>
      <trkpt lat="42.413784000" lon="-2.520492000">
        <ele>507.30</ele>
        <time>2017-02-11T09:51:57Z</time>
      </trkpt>
      <trkpt lat="42.413780000" lon="-2.520447000">
        <ele>507.40</ele>
        <time>2017-02-11T09:51:58Z</time>
      </trkpt>
      <trkpt lat="42.413774000" lon="-2.520402000">
        <ele>507.50</ele>
        <time>2017-02-11T09:51:59Z</time>
      </trkpt>
      <trkpt lat="42.413770000" lon="-2.520357000">
        <ele>507.50</ele>
        <time>2017-02-11T09:52:00Z</time>
      </trkpt>
      <trkpt lat="42.413762000" lon="-2.520316000">
        <ele>507.60</ele>
        <time>2017-02-11T09:52:01Z</time>
      </trkpt>
      <trkpt lat="42.413760000" lon="-2.520269000">
        <ele>507.60</ele>
        <time>2017-02-11T09:52:02Z</time>
      </trkpt>
      <trkpt lat="42.413756000" lon="-2.520224000">
        <ele>507.60</ele>
        <time>2017-02-11T09:52:03Z</time>
      </trkpt>
      <trkpt lat="42.413756000" lon="-2.520181000">
        <ele>507.60</ele>
        <time>2017-02-11T09:52:04Z</time>
      </trkpt>
      <trkpt lat="42.413752000" lon="-2.520143000">
        <ele>507.50</ele>
        <time>2017-02-11T09:52:05Z</time>
      </trkpt>
      <trkpt lat="42.413746000" lon="-2.520098000">
        <ele>507.40</ele>
        <time>2017-02-11T09:52:06Z</time>
      </trkpt>
      <trkpt lat="42.413737000" lon="-2.520048000">
        <ele>507.30</ele>
        <time>2017-02-11T09:52:07Z</time>
      </trkpt>
      <trkpt lat="42.413732000" lon="-2.520002000">
        <ele>507.30</ele>
        <time>2017-02-11T09:52:08Z</time>
      </trkpt>
      <trkpt lat="42.413726000" lon="-2.519957000">
        <ele>507.30</ele>
        <time>2017-02-11T09:52:09Z</time>
      </trkpt>
      <trkpt lat="42.413720000" lon="-2.519917000">
        <ele>507.20</ele>
        <time>2017-02-11T09:52:10Z</time>
      </trkpt>
      <trkpt lat="42.413716000" lon="-2.519883000">
        <ele>507.50</ele>
        <time>2017-02-11T09:52:11Z</time>
      </trkpt>
      <trkpt lat="42.413714000" lon="-2.519848000">
        <ele>507.70</ele>
        <time>2017-02-11T09:52:12Z</time>
      </trkpt>
      <trkpt lat="42.413717000" lon="-2.519820000">
        <ele>507.80</ele>
        <time>2017-02-11T09:52:13Z</time>
      </trkpt>
      <trkpt lat="42.413723000" lon="-2.519816000">
        <ele>507.90</ele>
        <time>2017-02-11T09:52:14Z</time>
      </trkpt>
      <trkpt lat="42.413729000" lon="-2.519816000">
        <ele>508.00</ele>
        <time>2017-02-11T09:52:16Z</time>
      </trkpt>
      <trkpt lat="42.413731000" lon="-2.519819000">
        <ele>507.90</ele>
        <time>2017-02-11T09:52:17Z</time>
      </trkpt>
      <trkpt lat="42.413731000" lon="-2.519820000">
        <ele>507.80</ele>
        <time>2017-02-11T09:52:18Z</time>
      </trkpt>
      <trkpt lat="42.413728000" lon="-2.519821000">
        <ele>507.50</ele>
        <time>2017-02-11T09:52:19Z</time>
      </trkpt>
      <trkpt lat="42.413724000" lon="-2.519822000">
        <ele>507.40</ele>
        <time>2017-02-11T09:52:20Z</time>
      </trkpt>
      <trkpt lat="42.413720000" lon="-2.519827000">
        <ele>507.40</ele>
        <time>2017-02-11T09:52:21Z</time>
      </trkpt>
      <trkpt lat="42.413718000" lon="-2.519830000">
        <ele>507.40</ele>
        <time>2017-02-11T09:52:22Z</time>
      </trkpt>
      <trkpt lat="42.413718000" lon="-2.519834000">
        <ele>507.30</ele>
        <time>2017-02-11T09:52:23Z</time>
      </trkpt>
      <trkpt lat="42.413716000" lon="-2.519838000">
        <ele>507.30</ele>
        <time>2017-02-11T09:52:24Z</time>
      </trkpt>
      <trkpt lat="42.413718000" lon="-2.519838000">
        <ele>507.30</ele>
        <time>2017-02-11T09:52:25Z</time>
      </trkpt>
      <trkpt lat="42.413720000" lon="-2.519835000">
        <ele>507.30</ele>
        <time>2017-02-11T09:52:26Z</time>
      </trkpt>
      <trkpt lat="42.413719000" lon="-2.519831000">
        <ele>507.30</ele>
        <time>2017-02-11T09:52:27Z</time>
      </trkpt>
      <trkpt lat="42.413719000" lon="-2.519832000">
        <ele>507.30</ele>
        <time>2017-02-11T09:52:28Z</time>
      </trkpt>
      <trkpt lat="42.413723000" lon="-2.519834000">
        <ele>507.30</ele>
        <time>2017-02-11T09:52:29Z</time>
      </trkpt>
      <trkpt lat="42.413724000" lon="-2.519840000">
        <ele>507.30</ele>
        <time>2017-02-11T09:52:30Z</time>
      </trkpt>
      <trkpt lat="42.413724000" lon="-2.519839000">
        <ele>507.30</ele>
        <time>2017-02-11T09:52:31Z</time>
      </trkpt>
      <trkpt lat="42.413722000" lon="-2.519839000">
        <ele>507.40</ele>
        <time>2017-02-11T09:52:32Z</time>
      </trkpt>
      <trkpt lat="42.413724000" lon="-2.519837000">
        <ele>507.40</ele>
        <time>2017-02-11T09:52:33Z</time>
      </trkpt>
      <trkpt lat="42.413724000" lon="-2.519840000">
        <ele>507.50</ele>
        <time>2017-02-11T09:52:34Z</time>
      </trkpt>
      <trkpt lat="42.413724000" lon="-2.519842000">
        <ele>507.60</ele>
        <time>2017-02-11T09:52:35Z</time>
      </trkpt>
      <trkpt lat="42.413726000" lon="-2.519840000">
        <ele>507.60</ele>
        <time>2017-02-11T09:52:36Z</time>
      </trkpt>
      <trkpt lat="42.413725000" lon="-2.519839000">
        <ele>507.70</ele>
        <time>2017-02-11T09:52:37Z</time>
      </trkpt>
      <trkpt lat="42.413724000" lon="-2.519841000">
        <ele>507.70</ele>
        <time>2017-02-11T09:52:38Z</time>
      </trkpt>
      <trkpt lat="42.413725000" lon="-2.519842000">
        <ele>507.80</ele>
        <time>2017-02-11T09:52:39Z</time>
      </trkpt>
      <trkpt lat="42.413725000" lon="-2.519845000">
        <ele>507.80</ele>
        <time>2017-02-11T09:52:40Z</time>
      </trkpt>
      <trkpt lat="42.413725000" lon="-2.519845000">
        <ele>507.80</ele>
        <time>2017-02-11T09:52:41Z</time>
      </trkpt>
      <trkpt lat="42.413726000" lon="-2.519846000">
        <ele>507.80</ele>
        <time>2017-02-11T09:52:42Z</time>
      </trkpt>
      <trkpt lat="42.413729000" lon="-2.519847000">
        <ele>507.80</ele>
        <time>2017-02-11T09:52:43Z</time>
      </trkpt>
      <trkpt lat="42.413732000" lon="-2.519844000">
        <ele>507.80</ele>
        <time>2017-02-11T09:52:44Z</time>
      </trkpt>
      <trkpt lat="42.413732000" lon="-2.519840000">
        <ele>507.70</ele>
        <time>2017-02-11T09:52:45Z</time>
      </trkpt>
      <trkpt lat="42.413733000" lon="-2.519839000">
        <ele>507.60</ele>
        <time>2017-02-11T09:52:46Z</time>
      </trkpt>
      <trkpt lat="42.413734000" lon="-2.519841000">
        <ele>507.50</ele>
        <time>2017-02-11T09:52:47Z</time>
      </trkpt>
      <trkpt lat="42.413733000" lon="-2.519842000">
        <ele>507.40</ele>
        <time>2017-02-11T09:52:48Z</time>
      </trkpt>
      <trkpt lat="42.413733000" lon="-2.519844000">
        <ele>507.40</ele>
        <time>2017-02-11T09:52:49Z</time>
      </trkpt>
      <trkpt lat="42.413732000" lon="-2.519844000">
        <ele>507.30</ele>
        <time>2017-02-11T09:52:50Z</time>
      </trkpt>
      <trkpt lat="42.413731000" lon="-2.519843000">
        <ele>507.40</ele>
        <time>2017-02-11T09:52:51Z</time>
      </trkpt>
      <trkpt lat="42.413731000" lon="-2.519840000">
        <ele>507.50</ele>
        <time>2017-02-11T09:52:52Z</time>
      </trkpt>
      <trkpt lat="42.413731000" lon="-2.519837000">
        <ele>507.60</ele>
        <time>2017-02-11T09:52:53Z</time>
      </trkpt>
      <trkpt lat="42.413731000" lon="-2.519838000">
        <ele>507.70</ele>
        <time>2017-02-11T09:52:54Z</time>
      </trkpt>
      <trkpt lat="42.413731000" lon="-2.519837000">
        <ele>507.70</ele>
        <time>2017-02-11T09:52:55Z</time>
      </trkpt>
      <trkpt lat="42.413732000" lon="-2.519836000">
        <ele>507.70</ele>
        <time>2017-02-11T09:52:56Z</time>
      </trkpt>
      <trkpt lat="42.413735000" lon="-2.519834000">
        <ele>507.60</ele>
        <time>2017-02-11T09:52:57Z</time>
      </trkpt>
      <trkpt lat="42.413734000" lon="-2.519831000">
        <ele>507.60</ele>
        <time>2017-02-11T09:52:58Z</time>
      </trkpt>
      <trkpt lat="42.413734000" lon="-2.519829000">
        <ele>507.50</ele>
        <time>2017-02-11T09:52:59Z</time>
      </trkpt>
      <trkpt lat="42.413734000" lon="-2.519829000">
        <ele>507.50</ele>
        <time>2017-02-11T09:53:00Z</time>
      </trkpt>
      <trkpt lat="42.413734000" lon="-2.519826000">
        <ele>507.60</ele>
        <time>2017-02-11T09:53:01Z</time>
      </trkpt>
      <trkpt lat="42.413734000" lon="-2.519827000">
        <ele>507.60</ele>
        <time>2017-02-11T09:53:02Z</time>
      </trkpt>
      <trkpt lat="42.413733000" lon="-2.519827000">
        <ele>507.70</ele>
        <time>2017-02-11T09:53:03Z</time>
      </trkpt>
      <trkpt lat="42.413734000" lon="-2.519830000">
        <ele>507.70</ele>
        <time>2017-02-11T09:53:04Z</time>
      </trkpt>
      <trkpt lat="42.413734000" lon="-2.519833000">
        <ele>507.80</ele>
        <time>2017-02-11T09:53:05Z</time>
      </trkpt>
      <trkpt lat="42.413735000" lon="-2.519837000">
        <ele>507.80</ele>
        <time>2017-02-11T09:53:06Z</time>
      </trkpt>
      <trkpt lat="42.413735000" lon="-2.519839000">
        <ele>507.70</ele>
        <time>2017-02-11T09:53:07Z</time>
      </trkpt>
      <trkpt lat="42.413735000" lon="-2.519837000">
        <ele>507.60</ele>
        <time>2017-02-11T09:53:08Z</time>
      </trkpt>
      <trkpt lat="42.413735000" lon="-2.519835000">
        <ele>507.60</ele>
        <time>2017-02-11T09:53:09Z</time>
      </trkpt>
      <trkpt lat="42.413735000" lon="-2.519835000">
        <ele>507.70</ele>
        <time>2017-02-11T09:53:10Z</time>
      </trkpt>
      <trkpt lat="42.413735000" lon="-2.519832000">
        <ele>507.70</ele>
        <time>2017-02-11T09:53:11Z</time>
      </trkpt>
      <trkpt lat="42.413736000" lon="-2.519831000">
        <ele>507.80</ele>
        <time>2017-02-11T09:53:12Z</time>
      </trkpt>
      <trkpt lat="42.413736000" lon="-2.519826000">
        <ele>507.80</ele>
        <time>2017-02-11T09:53:13Z</time>
      </trkpt>
      <trkpt lat="42.413736000" lon="-2.519828000">
        <ele>507.80</ele>
        <time>2017-02-11T09:53:14Z</time>
      </trkpt>
      <trkpt lat="42.413733000" lon="-2.519830000">
        <ele>507.70</ele>
        <time>2017-02-11T09:53:15Z</time>
      </trkpt>
      <trkpt lat="42.413732000" lon="-2.519835000">
        <ele>507.70</ele>
        <time>2017-02-11T09:53:17Z</time>
      </trkpt>
      <trkpt lat="42.413733000" lon="-2.519837000">
        <ele>507.60</ele>
        <time>2017-02-11T09:53:18Z</time>
      </trkpt>
      <trkpt lat="42.413734000" lon="-2.519839000">
        <ele>507.60</ele>
        <time>2017-02-11T09:53:19Z</time>
      </trkpt>
      <trkpt lat="42.413733000" lon="-2.519841000">
        <ele>507.60</ele>
        <time>2017-02-11T09:53:20Z</time>
      </trkpt>
      <trkpt lat="42.413731000" lon="-2.519843000">
        <ele>507.70</ele>
        <time>2017-02-11T09:53:21Z</time>
      </trkpt>
      <trkpt lat="42.413730000" lon="-2.519842000">
        <ele>507.70</ele>
        <time>2017-02-11T09:53:22Z</time>
      </trkpt>
      <trkpt lat="42.413735000" lon="-2.519837000">
        <ele>507.60</ele>
        <time>2017-02-11T09:53:23Z</time>
      </trkpt>
      <trkpt lat="42.413738000" lon="-2.519837000">
        <ele>507.70</ele>
        <time>2017-02-11T09:53:24Z</time>
      </trkpt>
      <trkpt lat="42.413738000" lon="-2.519835000">
        <ele>507.70</ele>
        <time>2017-02-11T09:53:25Z</time>
      </trkpt>
      <trkpt lat="42.413739000" lon="-2.519832000">
        <ele>507.70</ele>
        <time>2017-02-11T09:53:26Z</time>
      </trkpt>
      <trkpt lat="42.413738000" lon="-2.519833000">
        <ele>507.70</ele>
        <time>2017-02-11T09:53:27Z</time>
      </trkpt>
      <trkpt lat="42.413741000" lon="-2.519835000">
        <ele>507.60</ele>
        <time>2017-02-11T09:53:28Z</time>
      </trkpt>
      <trkpt lat="42.413741000" lon="-2.519836000">
        <ele>507.60</ele>
        <time>2017-02-11T09:53:29Z</time>
      </trkpt>
      <trkpt lat="42.413745000" lon="-2.519835000">
        <ele>507.60</ele>
        <time>2017-02-11T09:53:30Z</time>
      </trkpt>
      <trkpt lat="42.413745000" lon="-2.519833000">
        <ele>507.60</ele>
        <time>2017-02-11T09:53:31Z</time>
      </trkpt>
      <trkpt lat="42.413744000" lon="-2.519833000">
        <ele>507.60</ele>
        <time>2017-02-11T09:53:32Z</time>
      </trkpt>
      <trkpt lat="42.413745000" lon="-2.519835000">
        <ele>507.60</ele>
        <time>2017-02-11T09:53:33Z</time>
      </trkpt>
      <trkpt lat="42.413744000" lon="-2.519836000">
        <ele>507.60</ele>
        <time>2017-02-11T09:53:34Z</time>
      </trkpt>
      <trkpt lat="42.413744000" lon="-2.519832000">
        <ele>507.70</ele>
        <time>2017-02-11T09:53:35Z</time>
      </trkpt>
      <trkpt lat="42.413743000" lon="-2.519830000">
        <ele>507.70</ele>
        <time>2017-02-11T09:53:36Z</time>
      </trkpt>
      <trkpt lat="42.413742000" lon="-2.519827000">
        <ele>507.70</ele>
        <time>2017-02-11T09:53:37Z</time>
      </trkpt>
      <trkpt lat="42.413742000" lon="-2.519826000">
        <ele>507.60</ele>
        <time>2017-02-11T09:53:38Z</time>
      </trkpt>
      <trkpt lat="42.413745000" lon="-2.519826000">
        <ele>507.60</ele>
        <time>2017-02-11T09:53:39Z</time>
      </trkpt>
      <trkpt lat="42.413749000" lon="-2.519828000">
        <ele>507.60</ele>
        <time>2017-02-11T09:53:40Z</time>
      </trkpt>
      <trkpt lat="42.413749000" lon="-2.519829000">
        <ele>507.50</ele>
        <time>2017-02-11T09:53:41Z</time>
      </trkpt>
      <trkpt lat="42.413749000" lon="-2.519827000">
        <ele>507.50</ele>
        <time>2017-02-11T09:53:42Z</time>
      </trkpt>
      <trkpt lat="42.413750000" lon="-2.519822000">
        <ele>507.40</ele>
        <time>2017-02-11T09:53:43Z</time>
      </trkpt>
      <trkpt lat="42.413748000" lon="-2.519819000">
        <ele>507.40</ele>
        <time>2017-02-11T09:53:44Z</time>
      </trkpt>
      <trkpt lat="42.413749000" lon="-2.519816000">
        <ele>507.40</ele>
        <time>2017-02-11T09:53:45Z</time>
      </trkpt>
      <trkpt lat="42.413748000" lon="-2.519815000">
        <ele>507.40</ele>
        <time>2017-02-11T09:53:46Z</time>
      </trkpt>
      <trkpt lat="42.413745000" lon="-2.519813000">
        <ele>507.50</ele>
        <time>2017-02-11T09:53:47Z</time>
      </trkpt>
      <trkpt lat="42.413742000" lon="-2.519810000">
        <ele>507.60</ele>
        <time>2017-02-11T09:53:48Z</time>
      </trkpt>
      <trkpt lat="42.413737000" lon="-2.519809000">
        <ele>507.60</ele>
        <time>2017-02-11T09:53:49Z</time>
      </trkpt>
      <trkpt lat="42.413737000" lon="-2.519802000">
        <ele>507.60</ele>
        <time>2017-02-11T09:53:50Z</time>
      </trkpt>
      <trkpt lat="42.413737000" lon="-2.519803000">
        <ele>507.60</ele>
        <time>2017-02-11T09:53:51Z</time>
      </trkpt>
      <trkpt lat="42.413731000" lon="-2.519802000">
        <ele>507.70</ele>
        <time>2017-02-11T09:53:52Z</time>
      </trkpt>
      <trkpt lat="42.413728000" lon="-2.519800000">
        <ele>507.70</ele>
        <time>2017-02-11T09:53:53Z</time>
      </trkpt>
      <trkpt lat="42.413726000" lon="-2.519796000">
        <ele>507.60</ele>
        <time>2017-02-11T09:53:54Z</time>
      </trkpt>
      <trkpt lat="42.413721000" lon="-2.519783000">
        <ele>507.80</ele>
        <time>2017-02-11T09:53:55Z</time>
      </trkpt>
      <trkpt lat="42.413719000" lon="-2.519760000">
        <ele>507.80</ele>
        <time>2017-02-11T09:53:56Z</time>
      </trkpt>
      <trkpt lat="42.413719000" lon="-2.519741000">
        <ele>507.90</ele>
        <time>2017-02-11T09:53:57Z</time>
      </trkpt>
      <trkpt lat="42.413714000" lon="-2.519717000">
        <ele>508.00</ele>
        <time>2017-02-11T09:53:58Z</time>
      </trkpt>
      <trkpt lat="42.413709000" lon="-2.519687000">
        <ele>508.20</ele>
        <time>2017-02-11T09:53:59Z</time>
      </trkpt>
      <trkpt lat="42.413707000" lon="-2.519648000">
        <ele>508.30</ele>
        <time>2017-02-11T09:54:00Z</time>
      </trkpt>
      <trkpt lat="42.413702000" lon="-2.519599000">
        <ele>508.50</ele>
        <time>2017-02-11T09:54:01Z</time>
      </trkpt>
      <trkpt lat="42.413700000" lon="-2.519544000">
        <ele>508.70</ele>
        <time>2017-02-11T09:54:02Z</time>
      </trkpt>
      <trkpt lat="42.413695000" lon="-2.519484000">
        <ele>508.80</ele>
        <time>2017-02-11T09:54:03Z</time>
      </trkpt>
      <trkpt lat="42.413682000" lon="-2.519418000">
        <ele>508.80</ele>
        <time>2017-02-11T09:54:04Z</time>
      </trkpt>
      <trkpt lat="42.413674000" lon="-2.519346000">
        <ele>508.90</ele>
        <time>2017-02-11T09:54:05Z</time>
      </trkpt>
      <trkpt lat="42.413667000" lon="-2.519271000">
        <ele>508.90</ele>
        <time>2017-02-11T09:54:06Z</time>
      </trkpt>
      <trkpt lat="42.413662000" lon="-2.519196000">
        <ele>509.30</ele>
        <time>2017-02-11T09:54:07Z</time>
      </trkpt>
      <trkpt lat="42.413658000" lon="-2.519122000">
        <ele>509.50</ele>
        <time>2017-02-11T09:54:08Z</time>
      </trkpt>
      <trkpt lat="42.413649000" lon="-2.519047000">
        <ele>509.70</ele>
        <time>2017-02-11T09:54:09Z</time>
      </trkpt>
      <trkpt lat="42.413641000" lon="-2.518972000">
        <ele>509.90</ele>
        <time>2017-02-11T09:54:10Z</time>
      </trkpt>
      <trkpt lat="42.413631000" lon="-2.518898000">
        <ele>509.60</ele>
        <time>2017-02-11T09:54:11Z</time>
      </trkpt>
      <trkpt lat="42.413624000" lon="-2.518824000">
        <ele>509.40</ele>
        <time>2017-02-11T09:54:12Z</time>
      </trkpt>
      <trkpt lat="42.413612000" lon="-2.518749000">
        <ele>509.30</ele>
        <time>2017-02-11T09:54:13Z</time>
      </trkpt>
      <trkpt lat="42.413600000" lon="-2.518675000">
        <ele>509.10</ele>
        <time>2017-02-11T09:54:14Z</time>
      </trkpt>
      <trkpt lat="42.413588000" lon="-2.518597000">
        <ele>509.10</ele>
        <time>2017-02-11T09:54:15Z</time>
      </trkpt>
      <trkpt lat="42.413576000" lon="-2.518519000">
        <ele>509.00</ele>
        <time>2017-02-11T09:54:16Z</time>
      </trkpt>
      <trkpt lat="42.413556000" lon="-2.518359000">
        <ele>508.90</ele>
        <time>2017-02-11T09:54:18Z</time>
      </trkpt>
      <trkpt lat="42.413544000" lon="-2.518278000">
        <ele>508.90</ele>
        <time>2017-02-11T09:54:19Z</time>
      </trkpt>
      <trkpt lat="42.413533000" lon="-2.518196000">
        <ele>509.00</ele>
        <time>2017-02-11T09:54:20Z</time>
      </trkpt>
      <trkpt lat="42.413521000" lon="-2.518111000">
        <ele>509.00</ele>
        <time>2017-02-11T09:54:21Z</time>
      </trkpt>
      <trkpt lat="42.413504000" lon="-2.518031000">
        <ele>509.00</ele>
        <time>2017-02-11T09:54:22Z</time>
      </trkpt>
      <trkpt lat="42.413490000" lon="-2.517954000">
        <ele>509.20</ele>
        <time>2017-02-11T09:54:23Z</time>
      </trkpt>
      <trkpt lat="42.413476000" lon="-2.517877000">
        <ele>509.30</ele>
        <time>2017-02-11T09:54:24Z</time>
      </trkpt>
      <trkpt lat="42.413462000" lon="-2.517802000">
        <ele>509.30</ele>
        <time>2017-02-11T09:54:25Z</time>
      </trkpt>
      <trkpt lat="42.413448000" lon="-2.517727000">
        <ele>509.30</ele>
        <time>2017-02-11T09:54:26Z</time>
      </trkpt>
      <trkpt lat="42.413439000" lon="-2.517649000">
        <ele>509.30</ele>
        <time>2017-02-11T09:54:27Z</time>
      </trkpt>
      <trkpt lat="42.413429000" lon="-2.517574000">
        <ele>509.30</ele>
        <time>2017-02-11T09:54:28Z</time>
      </trkpt>
      <trkpt lat="42.413411000" lon="-2.517497000">
        <ele>509.30</ele>
        <time>2017-02-11T09:54:29Z</time>
      </trkpt>
      <trkpt lat="42.413398000" lon="-2.517422000">
        <ele>509.30</ele>
        <time>2017-02-11T09:54:30Z</time>
      </trkpt>
      <trkpt lat="42.413391000" lon="-2.517347000">
        <ele>509.40</ele>
        <time>2017-02-11T09:54:31Z</time>
      </trkpt>
      <trkpt lat="42.413386000" lon="-2.517274000">
        <ele>509.40</ele>
        <time>2017-02-11T09:54:32Z</time>
      </trkpt>
      <trkpt lat="42.413387000" lon="-2.517202000">
        <ele>509.40</ele>
        <time>2017-02-11T09:54:33Z</time>
      </trkpt>
      <trkpt lat="42.413394000" lon="-2.517132000">
        <ele>509.40</ele>
        <time>2017-02-11T09:54:34Z</time>
      </trkpt>
      <trkpt lat="42.413405000" lon="-2.517062000">
        <ele>509.50</ele>
        <time>2017-02-11T09:54:35Z</time>
      </trkpt>
      <trkpt lat="42.413423000" lon="-2.516991000">
        <ele>509.50</ele>
        <time>2017-02-11T09:54:36Z</time>
      </trkpt>
      <trkpt lat="42.413441000" lon="-2.516919000">
        <ele>509.50</ele>
        <time>2017-02-11T09:54:37Z</time>
      </trkpt>
      <trkpt lat="42.413454000" lon="-2.516848000">
        <ele>509.60</ele>
        <time>2017-02-11T09:54:38Z</time>
      </trkpt>
      <trkpt lat="42.413471000" lon="-2.516776000">
        <ele>509.80</ele>
        <time>2017-02-11T09:54:39Z</time>
      </trkpt>
      <trkpt lat="42.413489000" lon="-2.516705000">
        <ele>510.00</ele>
        <time>2017-02-11T09:54:40Z</time>
      </trkpt>
      <trkpt lat="42.413510000" lon="-2.516635000">
        <ele>510.30</ele>
        <time>2017-02-11T09:54:41Z</time>
      </trkpt>
      <trkpt lat="42.413538000" lon="-2.516575000">
        <ele>510.50</ele>
        <time>2017-02-11T09:54:42Z</time>
      </trkpt>
      <trkpt lat="42.413565000" lon="-2.516517000">
        <ele>510.80</ele>
        <time>2017-02-11T09:54:43Z</time>
      </trkpt>
      <trkpt lat="42.413576000" lon="-2.516450000">
        <ele>511.10</ele>
        <time>2017-02-11T09:54:44Z</time>
      </trkpt>
      <trkpt lat="42.413569000" lon="-2.516382000">
        <ele>511.30</ele>
        <time>2017-02-11T09:54:45Z</time>
      </trkpt>
      <trkpt lat="42.413549000" lon="-2.516316000">
        <ele>511.40</ele>
        <time>2017-02-11T09:54:46Z</time>
      </trkpt>
      <trkpt lat="42.413531000" lon="-2.516247000">
        <ele>511.70</ele>
        <time>2017-02-11T09:54:47Z</time>
      </trkpt>
      <trkpt lat="42.413518000" lon="-2.516177000">
        <ele>511.90</ele>
        <time>2017-02-11T09:54:48Z</time>
      </trkpt>
      <trkpt lat="42.413501000" lon="-2.516105000">
        <ele>512.10</ele>
        <time>2017-02-11T09:54:49Z</time>
      </trkpt>
      <trkpt lat="42.413482000" lon="-2.516033000">
        <ele>512.20</ele>
        <time>2017-02-11T09:54:50Z</time>
      </trkpt>
      <trkpt lat="42.413464000" lon="-2.515961000">
        <ele>512.30</ele>
        <time>2017-02-11T09:54:51Z</time>
      </trkpt>
      <trkpt lat="42.413444000" lon="-2.515890000">
        <ele>512.40</ele>
        <time>2017-02-11T09:54:52Z</time>
      </trkpt>
      <trkpt lat="42.413425000" lon="-2.515818000">
        <ele>512.20</ele>
        <time>2017-02-11T09:54:53Z</time>
      </trkpt>
      <trkpt lat="42.413412000" lon="-2.515742000">
        <ele>512.00</ele>
        <time>2017-02-11T09:54:54Z</time>
      </trkpt>
      <trkpt lat="42.413393000" lon="-2.515668000">
        <ele>511.90</ele>
        <time>2017-02-11T09:54:55Z</time>
      </trkpt>
      <trkpt lat="42.413375000" lon="-2.515594000">
        <ele>511.70</ele>
        <time>2017-02-11T09:54:56Z</time>
      </trkpt>
      <trkpt lat="42.413357000" lon="-2.515522000">
        <ele>511.60</ele>
        <time>2017-02-11T09:54:57Z</time>
      </trkpt>
      <trkpt lat="42.413344000" lon="-2.515446000">
        <ele>511.60</ele>
        <time>2017-02-11T09:54:58Z</time>
      </trkpt>
      <trkpt lat="42.413329000" lon="-2.515370000">
        <ele>511.50</ele>
        <time>2017-02-11T09:54:59Z</time>
      </trkpt>
      <trkpt lat="42.413314000" lon="-2.515295000">
        <ele>511.50</ele>
        <time>2017-02-11T09:55:00Z</time>
      </trkpt>
      <trkpt lat="42.413300000" lon="-2.515224000">
        <ele>511.40</ele>
        <time>2017-02-11T09:55:01Z</time>
      </trkpt>
      <trkpt lat="42.413287000" lon="-2.515154000">
        <ele>511.40</ele>
        <time>2017-02-11T09:55:02Z</time>
      </trkpt>
      <trkpt lat="42.413270000" lon="-2.515080000">
        <ele>511.40</ele>
        <time>2017-02-11T09:55:03Z</time>
      </trkpt>
      <trkpt lat="42.413255000" lon="-2.515011000">
        <ele>511.40</ele>
        <time>2017-02-11T09:55:04Z</time>
      </trkpt>
      <trkpt lat="42.413232000" lon="-2.514943000">
        <ele>511.60</ele>
        <time>2017-02-11T09:55:05Z</time>
      </trkpt>
      <trkpt lat="42.413208000" lon="-2.514879000">
        <ele>511.70</ele>
        <time>2017-02-11T09:55:06Z</time>
      </trkpt>
      <trkpt lat="42.413184000" lon="-2.514811000">
        <ele>511.80</ele>
        <time>2017-02-11T09:55:07Z</time>
      </trkpt>
      <trkpt lat="42.413160000" lon="-2.514743000">
        <ele>511.80</ele>
        <time>2017-02-11T09:55:08Z</time>
      </trkpt>
      <trkpt lat="42.413136000" lon="-2.514674000">
        <ele>511.70</ele>
        <time>2017-02-11T09:55:09Z</time>
      </trkpt>
      <trkpt lat="42.413114000" lon="-2.514601000">
        <ele>511.60</ele>
        <time>2017-02-11T09:55:10Z</time>
      </trkpt>
      <trkpt lat="42.413093000" lon="-2.514533000">
        <ele>511.40</ele>
        <time>2017-02-11T09:55:11Z</time>
      </trkpt>
      <trkpt lat="42.413071000" lon="-2.514462000">
        <ele>511.50</ele>
        <time>2017-02-11T09:55:12Z</time>
      </trkpt>
      <trkpt lat="42.413049000" lon="-2.514395000">
        <ele>511.50</ele>
        <time>2017-02-11T09:55:13Z</time>
      </trkpt>
      <trkpt lat="42.413023000" lon="-2.514329000">
        <ele>511.50</ele>
        <time>2017-02-11T09:55:14Z</time>
      </trkpt>
      <trkpt lat="42.412993000" lon="-2.514267000">
        <ele>511.50</ele>
        <time>2017-02-11T09:55:15Z</time>
      </trkpt>
      <trkpt lat="42.412957000" lon="-2.514211000">
        <ele>511.60</ele>
        <time>2017-02-11T09:55:16Z</time>
      </trkpt>
      <trkpt lat="42.412916000" lon="-2.514165000">
        <ele>511.70</ele>
        <time>2017-02-11T09:55:17Z</time>
      </trkpt>
      <trkpt lat="42.412826000" lon="-2.514073000">
        <ele>511.60</ele>
        <time>2017-02-11T09:55:19Z</time>
      </trkpt>
      <trkpt lat="42.412784000" lon="-2.514025000">
        <ele>511.50</ele>
        <time>2017-02-11T09:55:20Z</time>
      </trkpt>
      <trkpt lat="42.412745000" lon="-2.513974000">
        <ele>511.40</ele>
        <time>2017-02-11T09:55:21Z</time>
      </trkpt>
      <trkpt lat="42.412710000" lon="-2.513918000">
        <ele>511.30</ele>
        <time>2017-02-11T09:55:22Z</time>
      </trkpt>
      <trkpt lat="42.412681000" lon="-2.513860000">
        <ele>511.30</ele>
        <time>2017-02-11T09:55:23Z</time>
      </trkpt>
      <trkpt lat="42.412656000" lon="-2.513793000">
        <ele>511.30</ele>
        <time>2017-02-11T09:55:24Z</time>
      </trkpt>
      <trkpt lat="42.412636000" lon="-2.513726000">
        <ele>511.40</ele>
        <time>2017-02-11T09:55:25Z</time>
      </trkpt>
      <trkpt lat="42.412619000" lon="-2.513658000">
        <ele>511.50</ele>
        <time>2017-02-11T09:55:26Z</time>
      </trkpt>
      <trkpt lat="42.412606000" lon="-2.513596000">
        <ele>511.50</ele>
        <time>2017-02-11T09:55:27Z</time>
      </trkpt>
      <trkpt lat="42.412596000" lon="-2.513534000">
        <ele>511.50</ele>
        <time>2017-02-11T09:55:28Z</time>
      </trkpt>
      <trkpt lat="42.412587000" lon="-2.513478000">
        <ele>511.70</ele>
        <time>2017-02-11T09:55:29Z</time>
      </trkpt>
      <trkpt lat="42.412577000" lon="-2.513430000">
        <ele>511.80</ele>
        <time>2017-02-11T09:55:30Z</time>
      </trkpt>
      <trkpt lat="42.412564000" lon="-2.513384000">
        <ele>511.70</ele>
        <time>2017-02-11T09:55:31Z</time>
      </trkpt>
      <trkpt lat="42.412550000" lon="-2.513346000">
        <ele>511.60</ele>
        <time>2017-02-11T09:55:32Z</time>
      </trkpt>
      <trkpt lat="42.412541000" lon="-2.513313000">
        <ele>511.50</ele>
        <time>2017-02-11T09:55:33Z</time>
      </trkpt>
      <trkpt lat="42.412531000" lon="-2.513276000">
        <ele>511.50</ele>
        <time>2017-02-11T09:55:34Z</time>
      </trkpt>
      <trkpt lat="42.412523000" lon="-2.513239000">
        <ele>511.40</ele>
        <time>2017-02-11T09:55:35Z</time>
      </trkpt>
      <trkpt lat="42.412517000" lon="-2.513196000">
        <ele>511.40</ele>
        <time>2017-02-11T09:55:36Z</time>
      </trkpt>
      <trkpt lat="42.412509000" lon="-2.513153000">
        <ele>511.40</ele>
        <time>2017-02-11T09:55:37Z</time>
      </trkpt>
      <trkpt lat="42.412502000" lon="-2.513114000">
        <ele>511.40</ele>
        <time>2017-02-11T09:55:38Z</time>
      </trkpt>
      <trkpt lat="42.412494000" lon="-2.513075000">
        <ele>511.40</ele>
        <time>2017-02-11T09:55:39Z</time>
      </trkpt>
      <trkpt lat="42.412483000" lon="-2.513035000">
        <ele>511.40</ele>
        <time>2017-02-11T09:55:40Z</time>
      </trkpt>
      <trkpt lat="42.412475000" lon="-2.512995000">
        <ele>511.40</ele>
        <time>2017-02-11T09:55:41Z</time>
      </trkpt>
      <trkpt lat="42.412469000" lon="-2.512955000">
        <ele>511.40</ele>
        <time>2017-02-11T09:55:42Z</time>
      </trkpt>
      <trkpt lat="42.412461000" lon="-2.512914000">
        <ele>511.30</ele>
        <time>2017-02-11T09:55:43Z</time>
      </trkpt>
      <trkpt lat="42.412453000" lon="-2.512874000">
        <ele>511.50</ele>
        <time>2017-02-11T09:55:44Z</time>
      </trkpt>
      <trkpt lat="42.412447000" lon="-2.512836000">
        <ele>511.50</ele>
        <time>2017-02-11T09:55:45Z</time>
      </trkpt>
      <trkpt lat="42.412439000" lon="-2.512799000">
        <ele>511.50</ele>
        <time>2017-02-11T09:55:46Z</time>
      </trkpt>
      <trkpt lat="42.412431000" lon="-2.512762000">
        <ele>511.40</ele>
        <time>2017-02-11T09:55:47Z</time>
      </trkpt>
      <trkpt lat="42.412425000" lon="-2.512723000">
        <ele>511.50</ele>
        <time>2017-02-11T09:55:48Z</time>
      </trkpt>
      <trkpt lat="42.412415000" lon="-2.512683000">
        <ele>511.50</ele>
        <time>2017-02-11T09:55:49Z</time>
      </trkpt>
      <trkpt lat="42.412409000" lon="-2.512644000">
        <ele>511.40</ele>
        <time>2017-02-11T09:55:50Z</time>
      </trkpt>
      <trkpt lat="42.412403000" lon="-2.512602000">
        <ele>511.40</ele>
        <time>2017-02-11T09:55:51Z</time>
      </trkpt>
      <trkpt lat="42.412386000" lon="-2.512565000">
        <ele>511.40</ele>
        <time>2017-02-11T09:55:52Z</time>
      </trkpt>
      <trkpt lat="42.412374000" lon="-2.512522000">
        <ele>511.40</ele>
        <time>2017-02-11T09:55:53Z</time>
      </trkpt>
      <trkpt lat="42.412367000" lon="-2.512478000">
        <ele>511.50</ele>
        <time>2017-02-11T09:55:54Z</time>
      </trkpt>
      <trkpt lat="42.412359000" lon="-2.512434000">
        <ele>511.60</ele>
        <time>2017-02-11T09:55:55Z</time>
      </trkpt>
      <trkpt lat="42.412351000" lon="-2.512389000">
        <ele>511.80</ele>
        <time>2017-02-11T09:55:56Z</time>
      </trkpt>
      <trkpt lat="42.412345000" lon="-2.512345000">
        <ele>511.90</ele>
        <time>2017-02-11T09:55:57Z</time>
      </trkpt>
      <trkpt lat="42.412336000" lon="-2.512296000">
        <ele>512.00</ele>
        <time>2017-02-11T09:55:58Z</time>
      </trkpt>
      <trkpt lat="42.412329000" lon="-2.512253000">
        <ele>512.10</ele>
        <time>2017-02-11T09:55:59Z</time>
      </trkpt>
      <trkpt lat="42.412322000" lon="-2.512210000">
        <ele>512.30</ele>
        <time>2017-02-11T09:56:00Z</time>
      </trkpt>
      <trkpt lat="42.412313000" lon="-2.512171000">
        <ele>512.40</ele>
        <time>2017-02-11T09:56:01Z</time>
      </trkpt>
      <trkpt lat="42.412307000" lon="-2.512130000">
        <ele>512.60</ele>
        <time>2017-02-11T09:56:02Z</time>
      </trkpt>
      <trkpt lat="42.412301000" lon="-2.512088000">
        <ele>512.70</ele>
        <time>2017-02-11T09:56:03Z</time>
      </trkpt>
      <trkpt lat="42.412294000" lon="-2.512046000">
        <ele>512.70</ele>
        <time>2017-02-11T09:56:04Z</time>
      </trkpt>
      <trkpt lat="42.412288000" lon="-2.512004000">
        <ele>512.80</ele>
        <time>2017-02-11T09:56:05Z</time>
      </trkpt>
      <trkpt lat="42.412281000" lon="-2.511960000">
        <ele>512.80</ele>
        <time>2017-02-11T09:56:06Z</time>
      </trkpt>
      <trkpt lat="42.412275000" lon="-2.511917000">
        <ele>512.90</ele>
        <time>2017-02-11T09:56:07Z</time>
      </trkpt>
      <trkpt lat="42.412269000" lon="-2.511872000">
        <ele>513.10</ele>
        <time>2017-02-11T09:56:08Z</time>
      </trkpt>
      <trkpt lat="42.412263000" lon="-2.511835000">
        <ele>513.20</ele>
        <time>2017-02-11T09:56:09Z</time>
      </trkpt>
      <trkpt lat="42.412256000" lon="-2.511793000">
        <ele>513.30</ele>
        <time>2017-02-11T09:56:10Z</time>
      </trkpt>
      <trkpt lat="42.412251000" lon="-2.511751000">
        <ele>513.30</ele>
        <time>2017-02-11T09:56:11Z</time>
      </trkpt>
      <trkpt lat="42.412252000" lon="-2.511708000">
        <ele>513.10</ele>
        <time>2017-02-11T09:56:12Z</time>
      </trkpt>
      <trkpt lat="42.412252000" lon="-2.511667000">
        <ele>513.00</ele>
        <time>2017-02-11T09:56:13Z</time>
      </trkpt>
      <trkpt lat="42.412253000" lon="-2.511621000">
        <ele>512.90</ele>
        <time>2017-02-11T09:56:14Z</time>
      </trkpt>
      <trkpt lat="42.412255000" lon="-2.511577000">
        <ele>512.80</ele>
        <time>2017-02-11T09:56:15Z</time>
      </trkpt>
      <trkpt lat="42.412252000" lon="-2.511533000">
        <ele>512.90</ele>
        <time>2017-02-11T09:56:16Z</time>
      </trkpt>
      <trkpt lat="42.412248000" lon="-2.511490000">
        <ele>512.90</ele>
        <time>2017-02-11T09:56:17Z</time>
      </trkpt>
      <trkpt lat="42.412245000" lon="-2.511449000">
        <ele>513.00</ele>
        <time>2017-02-11T09:56:18Z</time>
      </trkpt>
      <trkpt lat="42.412239000" lon="-2.511369000">
        <ele>513.10</ele>
        <time>2017-02-11T09:56:20Z</time>
      </trkpt>
      <trkpt lat="42.412236000" lon="-2.511327000">
        <ele>513.10</ele>
        <time>2017-02-11T09:56:21Z</time>
      </trkpt>
      <trkpt lat="42.412234000" lon="-2.511281000">
        <ele>513.20</ele>
        <time>2017-02-11T09:56:22Z</time>
      </trkpt>
      <trkpt lat="42.412230000" lon="-2.511237000">
        <ele>513.30</ele>
        <time>2017-02-11T09:56:23Z</time>
      </trkpt>
      <trkpt lat="42.412225000" lon="-2.511192000">
        <ele>513.40</ele>
        <time>2017-02-11T09:56:24Z</time>
      </trkpt>
      <trkpt lat="42.412220000" lon="-2.511145000">
        <ele>513.40</ele>
        <time>2017-02-11T09:56:25Z</time>
      </trkpt>
      <trkpt lat="42.412218000" lon="-2.511097000">
        <ele>513.30</ele>
        <time>2017-02-11T09:56:26Z</time>
      </trkpt>
      <trkpt lat="42.412215000" lon="-2.511050000">
        <ele>513.30</ele>
        <time>2017-02-11T09:56:27Z</time>
      </trkpt>
      <trkpt lat="42.412212000" lon="-2.511006000">
        <ele>513.20</ele>
        <time>2017-02-11T09:56:28Z</time>
      </trkpt>
      <trkpt lat="42.412207000" lon="-2.510960000">
        <ele>513.20</ele>
        <time>2017-02-11T09:56:29Z</time>
      </trkpt>
      <trkpt lat="42.412201000" lon="-2.510914000">
        <ele>513.30</ele>
        <time>2017-02-11T09:56:30Z</time>
      </trkpt>
      <trkpt lat="42.412196000" lon="-2.510868000">
        <ele>513.30</ele>
        <time>2017-02-11T09:56:31Z</time>
      </trkpt>
      <trkpt lat="42.412191000" lon="-2.510822000">
        <ele>513.40</ele>
        <time>2017-02-11T09:56:32Z</time>
      </trkpt>
      <trkpt lat="42.412180000" lon="-2.510778000">
        <ele>513.40</ele>
        <time>2017-02-11T09:56:33Z</time>
      </trkpt>
      <trkpt lat="42.412173000" lon="-2.510736000">
        <ele>513.40</ele>
        <time>2017-02-11T09:56:34Z</time>
      </trkpt>
      <trkpt lat="42.412169000" lon="-2.510694000">
        <ele>513.50</ele>
        <time>2017-02-11T09:56:35Z</time>
      </trkpt>
      <trkpt lat="42.412167000" lon="-2.510650000">
        <ele>513.50</ele>
        <time>2017-02-11T09:56:36Z</time>
      </trkpt>
      <trkpt lat="42.412166000" lon="-2.510606000">
        <ele>513.50</ele>
        <time>2017-02-11T09:56:37Z</time>
      </trkpt>
      <trkpt lat="42.412169000" lon="-2.510564000">
        <ele>513.60</ele>
        <time>2017-02-11T09:56:38Z</time>
      </trkpt>
      <trkpt lat="42.412174000" lon="-2.510525000">
        <ele>513.60</ele>
        <time>2017-02-11T09:56:39Z</time>
      </trkpt>
      <trkpt lat="42.412170000" lon="-2.510481000">
        <ele>513.70</ele>
        <time>2017-02-11T09:56:40Z</time>
      </trkpt>
      <trkpt lat="42.412165000" lon="-2.510436000">
        <ele>513.70</ele>
        <time>2017-02-11T09:56:41Z</time>
      </trkpt>
      <trkpt lat="42.412156000" lon="-2.510389000">
        <ele>513.80</ele>
        <time>2017-02-11T09:56:42Z</time>
      </trkpt>
      <trkpt lat="42.412146000" lon="-2.510343000">
        <ele>514.00</ele>
        <time>2017-02-11T09:56:43Z</time>
      </trkpt>
      <trkpt lat="42.412136000" lon="-2.510301000">
        <ele>514.10</ele>
        <time>2017-02-11T09:56:44Z</time>
      </trkpt>
      <trkpt lat="42.412130000" lon="-2.510255000">
        <ele>514.20</ele>
        <time>2017-02-11T09:56:45Z</time>
      </trkpt>
      <trkpt lat="42.412125000" lon="-2.510206000">
        <ele>514.30</ele>
        <time>2017-02-11T09:56:46Z</time>
      </trkpt>
      <trkpt lat="42.412120000" lon="-2.510160000">
        <ele>514.30</ele>
        <time>2017-02-11T09:56:47Z</time>
      </trkpt>
      <trkpt lat="42.412118000" lon="-2.510114000">
        <ele>514.10</ele>
        <time>2017-02-11T09:56:48Z</time>
      </trkpt>
      <trkpt lat="42.412112000" lon="-2.510070000">
        <ele>514.10</ele>
        <time>2017-02-11T09:56:49Z</time>
      </trkpt>
      <trkpt lat="42.412103000" lon="-2.510026000">
        <ele>514.00</ele>
        <time>2017-02-11T09:56:50Z</time>
      </trkpt>
      <trkpt lat="42.412095000" lon="-2.509982000">
        <ele>513.90</ele>
        <time>2017-02-11T09:56:51Z</time>
      </trkpt>
      <trkpt lat="42.412089000" lon="-2.509937000">
        <ele>513.90</ele>
        <time>2017-02-11T09:56:52Z</time>
      </trkpt>
      <trkpt lat="42.412080000" lon="-2.509892000">
        <ele>513.90</ele>
        <time>2017-02-11T09:56:53Z</time>
      </trkpt>
      <trkpt lat="42.412074000" lon="-2.509848000">
        <ele>514.00</ele>
        <time>2017-02-11T09:56:54Z</time>
      </trkpt>
      <trkpt lat="42.412068000" lon="-2.509800000">
        <ele>514.20</ele>
        <time>2017-02-11T09:56:55Z</time>
      </trkpt>
      <trkpt lat="42.412061000" lon="-2.509750000">
        <ele>514.30</ele>
        <time>2017-02-11T09:56:56Z</time>
      </trkpt>
      <trkpt lat="42.412056000" lon="-2.509701000">
        <ele>514.40</ele>
        <time>2017-02-11T09:56:57Z</time>
      </trkpt>
      <trkpt lat="42.412047000" lon="-2.509654000">
        <ele>514.40</ele>
        <time>2017-02-11T09:56:58Z</time>
      </trkpt>
      <trkpt lat="42.412037000" lon="-2.509607000">
        <ele>514.40</ele>
        <time>2017-02-11T09:56:59Z</time>
      </trkpt>
      <trkpt lat="42.412029000" lon="-2.509563000">
        <ele>514.50</ele>
        <time>2017-02-11T09:57:00Z</time>
      </trkpt>
      <trkpt lat="42.412021000" lon="-2.509518000">
        <ele>514.50</ele>
        <time>2017-02-11T09:57:01Z</time>
      </trkpt>
      <trkpt lat="42.412011000" lon="-2.509474000">
        <ele>514.60</ele>
        <time>2017-02-11T09:57:02Z</time>
      </trkpt>
      <trkpt lat="42.412001000" lon="-2.509431000">
        <ele>514.70</ele>
        <time>2017-02-11T09:57:03Z</time>
      </trkpt>
      <trkpt lat="42.411991000" lon="-2.509390000">
        <ele>514.90</ele>
        <time>2017-02-11T09:57:04Z</time>
      </trkpt>
      <trkpt lat="42.411979000" lon="-2.509349000">
        <ele>515.00</ele>
        <time>2017-02-11T09:57:05Z</time>
      </trkpt>
      <trkpt lat="42.411969000" lon="-2.509306000">
        <ele>515.00</ele>
        <time>2017-02-11T09:57:06Z</time>
      </trkpt>
      <trkpt lat="42.411959000" lon="-2.509265000">
        <ele>515.10</ele>
        <time>2017-02-11T09:57:07Z</time>
      </trkpt>
      <trkpt lat="42.411951000" lon="-2.509228000">
        <ele>515.20</ele>
        <time>2017-02-11T09:57:08Z</time>
      </trkpt>
      <trkpt lat="42.411938000" lon="-2.509186000">
        <ele>515.30</ele>
        <time>2017-02-11T09:57:09Z</time>
      </trkpt>
      <trkpt lat="42.411927000" lon="-2.509145000">
        <ele>515.20</ele>
        <time>2017-02-11T09:57:10Z</time>
      </trkpt>
      <trkpt lat="42.411916000" lon="-2.509104000">
        <ele>515.20</ele>
        <time>2017-02-11T09:57:11Z</time>
      </trkpt>
      <trkpt lat="42.411905000" lon="-2.509063000">
        <ele>515.30</ele>
        <time>2017-02-11T09:57:12Z</time>
      </trkpt>
      <trkpt lat="42.411893000" lon="-2.509020000">
        <ele>515.40</ele>
        <time>2017-02-11T09:57:13Z</time>
      </trkpt>
      <trkpt lat="42.411878000" lon="-2.508980000">
        <ele>515.50</ele>
        <time>2017-02-11T09:57:14Z</time>
      </trkpt>
      <trkpt lat="42.411862000" lon="-2.508938000">
        <ele>515.60</ele>
        <time>2017-02-11T09:57:15Z</time>
      </trkpt>
      <trkpt lat="42.411850000" lon="-2.508899000">
        <ele>515.60</ele>
        <time>2017-02-11T09:57:16Z</time>
      </trkpt>
      <trkpt lat="42.411837000" lon="-2.508858000">
        <ele>515.70</ele>
        <time>2017-02-11T09:57:17Z</time>
      </trkpt>
      <trkpt lat="42.411824000" lon="-2.508817000">
        <ele>515.80</ele>
        <time>2017-02-11T09:57:18Z</time>
      </trkpt>
      <trkpt lat="42.411810000" lon="-2.508775000">
        <ele>516.00</ele>
        <time>2017-02-11T09:57:19Z</time>
      </trkpt>
      <trkpt lat="42.411786000" lon="-2.508697000">
        <ele>516.10</ele>
        <time>2017-02-11T09:57:21Z</time>
      </trkpt>
      <trkpt lat="42.411777000" lon="-2.508656000">
        <ele>516.20</ele>
        <time>2017-02-11T09:57:22Z</time>
      </trkpt>
      <trkpt lat="42.411768000" lon="-2.508614000">
        <ele>516.20</ele>
        <time>2017-02-11T09:57:23Z</time>
      </trkpt>
      <trkpt lat="42.411756000" lon="-2.508574000">
        <ele>516.20</ele>
        <time>2017-02-11T09:57:24Z</time>
      </trkpt>
      <trkpt lat="42.411742000" lon="-2.508532000">
        <ele>516.30</ele>
        <time>2017-02-11T09:57:25Z</time>
      </trkpt>
      <trkpt lat="42.411730000" lon="-2.508491000">
        <ele>516.30</ele>
        <time>2017-02-11T09:57:26Z</time>
      </trkpt>
      <trkpt lat="42.411716000" lon="-2.508451000">
        <ele>516.30</ele>
        <time>2017-02-11T09:57:27Z</time>
      </trkpt>
      <trkpt lat="42.411705000" lon="-2.508412000">
        <ele>516.30</ele>
        <time>2017-02-11T09:57:28Z</time>
      </trkpt>
      <trkpt lat="42.411693000" lon="-2.508371000">
        <ele>516.30</ele>
        <time>2017-02-11T09:57:29Z</time>
      </trkpt>
      <trkpt lat="42.411679000" lon="-2.508331000">
        <ele>516.40</ele>
        <time>2017-02-11T09:57:30Z</time>
      </trkpt>
      <trkpt lat="42.411664000" lon="-2.508291000">
        <ele>516.40</ele>
        <time>2017-02-11T09:57:31Z</time>
      </trkpt>
      <trkpt lat="42.411653000" lon="-2.508249000">
        <ele>516.50</ele>
        <time>2017-02-11T09:57:32Z</time>
      </trkpt>
      <trkpt lat="42.411642000" lon="-2.508210000">
        <ele>516.50</ele>
        <time>2017-02-11T09:57:33Z</time>
      </trkpt>
      <trkpt lat="42.411631000" lon="-2.508167000">
        <ele>516.50</ele>
        <time>2017-02-11T09:57:34Z</time>
      </trkpt>
      <trkpt lat="42.411619000" lon="-2.508128000">
        <ele>516.50</ele>
        <time>2017-02-11T09:57:35Z</time>
      </trkpt>
      <trkpt lat="42.411608000" lon="-2.508087000">
        <ele>516.70</ele>
        <time>2017-02-11T09:57:36Z</time>
      </trkpt>
      <trkpt lat="42.411593000" lon="-2.508048000">
        <ele>516.70</ele>
        <time>2017-02-11T09:57:37Z</time>
      </trkpt>
      <trkpt lat="42.411579000" lon="-2.508007000">
        <ele>516.80</ele>
        <time>2017-02-11T09:57:38Z</time>
      </trkpt>
      <trkpt lat="42.411565000" lon="-2.507966000">
        <ele>516.90</ele>
        <time>2017-02-11T09:57:39Z</time>
      </trkpt>
      <trkpt lat="42.411552000" lon="-2.507927000">
        <ele>517.10</ele>
        <time>2017-02-11T09:57:40Z</time>
      </trkpt>
      <trkpt lat="42.411538000" lon="-2.507889000">
        <ele>517.30</ele>
        <time>2017-02-11T09:57:41Z</time>
      </trkpt>
      <trkpt lat="42.411526000" lon="-2.507853000">
        <ele>517.50</ele>
        <time>2017-02-11T09:57:42Z</time>
      </trkpt>
      <trkpt lat="42.411512000" lon="-2.507817000">
        <ele>517.60</ele>
        <time>2017-02-11T09:57:43Z</time>
      </trkpt>
      <trkpt lat="42.411497000" lon="-2.507778000">
        <ele>517.70</ele>
        <time>2017-02-11T09:57:44Z</time>
      </trkpt>
      <trkpt lat="42.411480000" lon="-2.507739000">
        <ele>517.80</ele>
        <time>2017-02-11T09:57:45Z</time>
      </trkpt>
      <trkpt lat="42.411464000" lon="-2.507699000">
        <ele>517.90</ele>
        <time>2017-02-11T09:57:46Z</time>
      </trkpt>
      <trkpt lat="42.411448000" lon="-2.507660000">
        <ele>517.90</ele>
        <time>2017-02-11T09:57:47Z</time>
      </trkpt>
      <trkpt lat="42.411432000" lon="-2.507623000">
        <ele>518.00</ele>
        <time>2017-02-11T09:57:48Z</time>
      </trkpt>
      <trkpt lat="42.411419000" lon="-2.507583000">
        <ele>518.10</ele>
        <time>2017-02-11T09:57:49Z</time>
      </trkpt>
      <trkpt lat="42.411410000" lon="-2.507550000">
        <ele>518.20</ele>
        <time>2017-02-11T09:57:50Z</time>
      </trkpt>
      <trkpt lat="42.411402000" lon="-2.507512000">
        <ele>518.20</ele>
        <time>2017-02-11T09:57:51Z</time>
      </trkpt>
      <trkpt lat="42.411388000" lon="-2.507471000">
        <ele>518.20</ele>
        <time>2017-02-11T09:57:52Z</time>
      </trkpt>
      <trkpt lat="42.411371000" lon="-2.507430000">
        <ele>518.30</ele>
        <time>2017-02-11T09:57:53Z</time>
      </trkpt>
      <trkpt lat="42.411352000" lon="-2.507387000">
        <ele>518.30</ele>
        <time>2017-02-11T09:57:54Z</time>
      </trkpt>
      <trkpt lat="42.411335000" lon="-2.507344000">
        <ele>518.30</ele>
        <time>2017-02-11T09:57:55Z</time>
      </trkpt>
      <trkpt lat="42.411319000" lon="-2.507299000">
        <ele>518.30</ele>
        <time>2017-02-11T09:57:56Z</time>
      </trkpt>
      <trkpt lat="42.411305000" lon="-2.507255000">
        <ele>518.30</ele>
        <time>2017-02-11T09:57:57Z</time>
      </trkpt>
      <trkpt lat="42.411287000" lon="-2.507212000">
        <ele>518.30</ele>
        <time>2017-02-11T09:57:58Z</time>
      </trkpt>
      <trkpt lat="42.411276000" lon="-2.507167000">
        <ele>518.30</ele>
        <time>2017-02-11T09:57:59Z</time>
      </trkpt>
      <trkpt lat="42.411264000" lon="-2.507125000">
        <ele>518.40</ele>
        <time>2017-02-11T09:58:00Z</time>
      </trkpt>
      <trkpt lat="42.411253000" lon="-2.507078000">
        <ele>518.40</ele>
        <time>2017-02-11T09:58:01Z</time>
      </trkpt>
      <trkpt lat="42.411238000" lon="-2.507034000">
        <ele>518.50</ele>
        <time>2017-02-11T09:58:02Z</time>
      </trkpt>
      <trkpt lat="42.411226000" lon="-2.506992000">
        <ele>518.60</ele>
        <time>2017-02-11T09:58:03Z</time>
      </trkpt>
      <trkpt lat="42.411209000" lon="-2.506952000">
        <ele>518.70</ele>
        <time>2017-02-11T09:58:04Z</time>
      </trkpt>
      <trkpt lat="42.411192000" lon="-2.506910000">
        <ele>518.70</ele>
        <time>2017-02-11T09:58:05Z</time>
      </trkpt>
      <trkpt lat="42.411178000" lon="-2.506865000">
        <ele>518.70</ele>
        <time>2017-02-11T09:58:06Z</time>
      </trkpt>
      <trkpt lat="42.411164000" lon="-2.506819000">
        <ele>518.70</ele>
        <time>2017-02-11T09:58:07Z</time>
      </trkpt>
      <trkpt lat="42.411146000" lon="-2.506776000">
        <ele>518.60</ele>
        <time>2017-02-11T09:58:08Z</time>
      </trkpt>
      <trkpt lat="42.411130000" lon="-2.506733000">
        <ele>518.50</ele>
        <time>2017-02-11T09:58:09Z</time>
      </trkpt>
      <trkpt lat="42.411117000" lon="-2.506691000">
        <ele>518.50</ele>
        <time>2017-02-11T09:58:10Z</time>
      </trkpt>
      <trkpt lat="42.411102000" lon="-2.506647000">
        <ele>518.60</ele>
        <time>2017-02-11T09:58:11Z</time>
      </trkpt>
      <trkpt lat="42.411089000" lon="-2.506603000">
        <ele>518.40</ele>
        <time>2017-02-11T09:58:12Z</time>
      </trkpt>
      <trkpt lat="42.411074000" lon="-2.506557000">
        <ele>518.20</ele>
        <time>2017-02-11T09:58:13Z</time>
      </trkpt>
      <trkpt lat="42.411060000" lon="-2.506515000">
        <ele>518.40</ele>
        <time>2017-02-11T09:58:14Z</time>
      </trkpt>
      <trkpt lat="42.411042000" lon="-2.506472000">
        <ele>518.50</ele>
        <time>2017-02-11T09:58:15Z</time>
      </trkpt>
      <trkpt lat="42.411024000" lon="-2.506429000">
        <ele>518.60</ele>
        <time>2017-02-11T09:58:16Z</time>
      </trkpt>
      <trkpt lat="42.411002000" lon="-2.506382000">
        <ele>518.70</ele>
        <time>2017-02-11T09:58:17Z</time>
      </trkpt>
      <trkpt lat="42.410984000" lon="-2.506335000">
        <ele>518.70</ele>
        <time>2017-02-11T09:58:18Z</time>
      </trkpt>
      <trkpt lat="42.410968000" lon="-2.506294000">
        <ele>518.70</ele>
        <time>2017-02-11T09:58:19Z</time>
      </trkpt>
      <trkpt lat="42.410953000" lon="-2.506252000">
        <ele>518.80</ele>
        <time>2017-02-11T09:58:20Z</time>
      </trkpt>
      <trkpt lat="42.410934000" lon="-2.506169000">
        <ele>518.80</ele>
        <time>2017-02-11T09:58:22Z</time>
      </trkpt>
      <trkpt lat="42.410924000" lon="-2.506131000">
        <ele>518.80</ele>
        <time>2017-02-11T09:58:23Z</time>
      </trkpt>
      <trkpt lat="42.410911000" lon="-2.506093000">
        <ele>518.90</ele>
        <time>2017-02-11T09:58:24Z</time>
      </trkpt>
      <trkpt lat="42.410900000" lon="-2.506057000">
        <ele>519.00</ele>
        <time>2017-02-11T09:58:25Z</time>
      </trkpt>
      <trkpt lat="42.410886000" lon="-2.506016000">
        <ele>519.10</ele>
        <time>2017-02-11T09:58:26Z</time>
      </trkpt>
      <trkpt lat="42.410872000" lon="-2.505976000">
        <ele>519.10</ele>
        <time>2017-02-11T09:58:27Z</time>
      </trkpt>
      <trkpt lat="42.410853000" lon="-2.505937000">
        <ele>519.20</ele>
        <time>2017-02-11T09:58:28Z</time>
      </trkpt>
      <trkpt lat="42.410833000" lon="-2.505899000">
        <ele>519.20</ele>
        <time>2017-02-11T09:58:29Z</time>
      </trkpt>
      <trkpt lat="42.410814000" lon="-2.505858000">
        <ele>519.30</ele>
        <time>2017-02-11T09:58:30Z</time>
      </trkpt>
      <trkpt lat="42.410795000" lon="-2.505820000">
        <ele>519.30</ele>
        <time>2017-02-11T09:58:31Z</time>
      </trkpt>
      <trkpt lat="42.410774000" lon="-2.505780000">
        <ele>519.30</ele>
        <time>2017-02-11T09:58:32Z</time>
      </trkpt>
      <trkpt lat="42.410756000" lon="-2.505738000">
        <ele>519.30</ele>
        <time>2017-02-11T09:58:33Z</time>
      </trkpt>
      <trkpt lat="42.410738000" lon="-2.505694000">
        <ele>519.30</ele>
        <time>2017-02-11T09:58:34Z</time>
      </trkpt>
      <trkpt lat="42.410718000" lon="-2.505655000">
        <ele>519.20</ele>
        <time>2017-02-11T09:58:35Z</time>
      </trkpt>
      <trkpt lat="42.410698000" lon="-2.505615000">
        <ele>519.20</ele>
        <time>2017-02-11T09:58:36Z</time>
      </trkpt>
      <trkpt lat="42.410681000" lon="-2.505573000">
        <ele>519.10</ele>
        <time>2017-02-11T09:58:37Z</time>
      </trkpt>
      <trkpt lat="42.410664000" lon="-2.505532000">
        <ele>519.10</ele>
        <time>2017-02-11T09:58:38Z</time>
      </trkpt>
      <trkpt lat="42.410647000" lon="-2.505490000">
        <ele>519.10</ele>
        <time>2017-02-11T09:58:39Z</time>
      </trkpt>
      <trkpt lat="42.410628000" lon="-2.505450000">
        <ele>519.10</ele>
        <time>2017-02-11T09:58:40Z</time>
      </trkpt>
      <trkpt lat="42.410610000" lon="-2.505411000">
        <ele>519.10</ele>
        <time>2017-02-11T09:58:41Z</time>
      </trkpt>
      <trkpt lat="42.410592000" lon="-2.505370000">
        <ele>519.20</ele>
        <time>2017-02-11T09:58:42Z</time>
      </trkpt>
      <trkpt lat="42.410576000" lon="-2.505329000">
        <ele>519.30</ele>
        <time>2017-02-11T09:58:43Z</time>
      </trkpt>
      <trkpt lat="42.410556000" lon="-2.505291000">
        <ele>519.40</ele>
        <time>2017-02-11T09:58:44Z</time>
      </trkpt>
      <trkpt lat="42.410538000" lon="-2.505250000">
        <ele>519.50</ele>
        <time>2017-02-11T09:58:45Z</time>
      </trkpt>
      <trkpt lat="42.410518000" lon="-2.505206000">
        <ele>519.60</ele>
        <time>2017-02-11T09:58:46Z</time>
      </trkpt>
      <trkpt lat="42.410500000" lon="-2.505163000">
        <ele>519.60</ele>
        <time>2017-02-11T09:58:47Z</time>
      </trkpt>
      <trkpt lat="42.410480000" lon="-2.505120000">
        <ele>519.60</ele>
        <time>2017-02-11T09:58:48Z</time>
      </trkpt>
      <trkpt lat="42.410458000" lon="-2.505076000">
        <ele>519.50</ele>
        <time>2017-02-11T09:58:49Z</time>
      </trkpt>
      <trkpt lat="42.410440000" lon="-2.505033000">
        <ele>519.40</ele>
        <time>2017-02-11T09:58:50Z</time>
      </trkpt>
      <trkpt lat="42.410425000" lon="-2.504991000">
        <ele>519.40</ele>
        <time>2017-02-11T09:58:51Z</time>
      </trkpt>
      <trkpt lat="42.410409000" lon="-2.504948000">
        <ele>519.40</ele>
        <time>2017-02-11T09:58:52Z</time>
      </trkpt>
      <trkpt lat="42.410390000" lon="-2.504907000">
        <ele>519.50</ele>
        <time>2017-02-11T09:58:53Z</time>
      </trkpt>
      <trkpt lat="42.410375000" lon="-2.504867000">
        <ele>519.50</ele>
        <time>2017-02-11T09:58:54Z</time>
      </trkpt>
      <trkpt lat="42.410358000" lon="-2.504829000">
        <ele>519.50</ele>
        <time>2017-02-11T09:58:55Z</time>
      </trkpt>
      <trkpt lat="42.410342000" lon="-2.504796000">
        <ele>519.40</ele>
        <time>2017-02-11T09:58:56Z</time>
      </trkpt>
      <trkpt lat="42.410327000" lon="-2.504761000">
        <ele>519.30</ele>
        <time>2017-02-11T09:58:57Z</time>
      </trkpt>
      <trkpt lat="42.410306000" lon="-2.504726000">
        <ele>519.20</ele>
        <time>2017-02-11T09:58:58Z</time>
      </trkpt>
      <trkpt lat="42.410287000" lon="-2.504691000">
        <ele>519.10</ele>
        <time>2017-02-11T09:58:59Z</time>
      </trkpt>
      <trkpt lat="42.410264000" lon="-2.504659000">
        <ele>519.10</ele>
        <time>2017-02-11T09:59:00Z</time>
      </trkpt>
      <trkpt lat="42.410238000" lon="-2.504628000">
        <ele>519.10</ele>
        <time>2017-02-11T09:59:01Z</time>
      </trkpt>
      <trkpt lat="42.410212000" lon="-2.504592000">
        <ele>519.00</ele>
        <time>2017-02-11T09:59:02Z</time>
      </trkpt>
      <trkpt lat="42.410189000" lon="-2.504549000">
        <ele>519.00</ele>
        <time>2017-02-11T09:59:03Z</time>
      </trkpt>
      <trkpt lat="42.410166000" lon="-2.504505000">
        <ele>519.10</ele>
        <time>2017-02-11T09:59:04Z</time>
      </trkpt>
      <trkpt lat="42.410147000" lon="-2.504455000">
        <ele>519.20</ele>
        <time>2017-02-11T09:59:05Z</time>
      </trkpt>
      <trkpt lat="42.410129000" lon="-2.504405000">
        <ele>519.20</ele>
        <time>2017-02-11T09:59:06Z</time>
      </trkpt>
      <trkpt lat="42.410110000" lon="-2.504358000">
        <ele>519.20</ele>
        <time>2017-02-11T09:59:07Z</time>
      </trkpt>
      <trkpt lat="42.410090000" lon="-2.504311000">
        <ele>519.00</ele>
        <time>2017-02-11T09:59:08Z</time>
      </trkpt>
      <trkpt lat="42.410069000" lon="-2.504267000">
        <ele>518.90</ele>
        <time>2017-02-11T09:59:09Z</time>
      </trkpt>
      <trkpt lat="42.410049000" lon="-2.504224000">
        <ele>518.80</ele>
        <time>2017-02-11T09:59:10Z</time>
      </trkpt>
      <trkpt lat="42.410026000" lon="-2.504185000">
        <ele>518.70</ele>
        <time>2017-02-11T09:59:11Z</time>
      </trkpt>
      <trkpt lat="42.410003000" lon="-2.504146000">
        <ele>518.90</ele>
        <time>2017-02-11T09:59:12Z</time>
      </trkpt>
      <trkpt lat="42.409979000" lon="-2.504107000">
        <ele>519.10</ele>
        <time>2017-02-11T09:59:13Z</time>
      </trkpt>
      <trkpt lat="42.409955000" lon="-2.504067000">
        <ele>519.20</ele>
        <time>2017-02-11T09:59:14Z</time>
      </trkpt>
      <trkpt lat="42.409928000" lon="-2.504024000">
        <ele>519.30</ele>
        <time>2017-02-11T09:59:15Z</time>
      </trkpt>
      <trkpt lat="42.409903000" lon="-2.503984000">
        <ele>519.30</ele>
        <time>2017-02-11T09:59:16Z</time>
      </trkpt>
      <trkpt lat="42.409880000" lon="-2.503943000">
        <ele>519.30</ele>
        <time>2017-02-11T09:59:17Z</time>
      </trkpt>
      <trkpt lat="42.409854000" lon="-2.503905000">
        <ele>519.30</ele>
        <time>2017-02-11T09:59:18Z</time>
      </trkpt>
      <trkpt lat="42.409829000" lon="-2.503868000">
        <ele>519.30</ele>
        <time>2017-02-11T09:59:19Z</time>
      </trkpt>
      <trkpt lat="42.409804000" lon="-2.503830000">
        <ele>519.20</ele>
        <time>2017-02-11T09:59:20Z</time>
      </trkpt>
      <trkpt lat="42.409777000" lon="-2.503793000">
        <ele>519.10</ele>
        <time>2017-02-11T09:59:21Z</time>
      </trkpt>
      <trkpt lat="42.409719000" lon="-2.503727000">
        <ele>518.90</ele>
        <time>2017-02-11T09:59:23Z</time>
      </trkpt>
      <trkpt lat="42.409690000" lon="-2.503689000">
        <ele>518.80</ele>
        <time>2017-02-11T09:59:24Z</time>
      </trkpt>
      <trkpt lat="42.409663000" lon="-2.503655000">
        <ele>518.60</ele>
        <time>2017-02-11T09:59:25Z</time>
      </trkpt>
      <trkpt lat="42.409634000" lon="-2.503618000">
        <ele>518.50</ele>
        <time>2017-02-11T09:59:26Z</time>
      </trkpt>
      <trkpt lat="42.409606000" lon="-2.503580000">
        <ele>518.30</ele>
        <time>2017-02-11T09:59:27Z</time>
      </trkpt>
      <trkpt lat="42.409577000" lon="-2.503543000">
        <ele>518.30</ele>
        <time>2017-02-11T09:59:28Z</time>
      </trkpt>
      <trkpt lat="42.409551000" lon="-2.503503000">
        <ele>518.20</ele>
        <time>2017-02-11T09:59:29Z</time>
      </trkpt>
      <trkpt lat="42.409529000" lon="-2.503461000">
        <ele>518.10</ele>
        <time>2017-02-11T09:59:30Z</time>
      </trkpt>
      <trkpt lat="42.409507000" lon="-2.503417000">
        <ele>518.10</ele>
        <time>2017-02-11T09:59:31Z</time>
      </trkpt>
      <trkpt lat="42.409483000" lon="-2.503374000">
        <ele>518.10</ele>
        <time>2017-02-11T09:59:32Z</time>
      </trkpt>
      <trkpt lat="42.409461000" lon="-2.503334000">
        <ele>518.00</ele>
        <time>2017-02-11T09:59:33Z</time>
      </trkpt>
      <trkpt lat="42.409442000" lon="-2.503287000">
        <ele>518.00</ele>
        <time>2017-02-11T09:59:34Z</time>
      </trkpt>
      <trkpt lat="42.409419000" lon="-2.503244000">
        <ele>518.00</ele>
        <time>2017-02-11T09:59:35Z</time>
      </trkpt>
      <trkpt lat="42.409397000" lon="-2.503201000">
        <ele>518.00</ele>
        <time>2017-02-11T09:59:36Z</time>
      </trkpt>
      <trkpt lat="42.409377000" lon="-2.503158000">
        <ele>518.00</ele>
        <time>2017-02-11T09:59:37Z</time>
      </trkpt>
      <trkpt lat="42.409354000" lon="-2.503114000">
        <ele>518.00</ele>
        <time>2017-02-11T09:59:38Z</time>
      </trkpt>
      <trkpt lat="42.409329000" lon="-2.503072000">
        <ele>518.00</ele>
        <time>2017-02-11T09:59:39Z</time>
      </trkpt>
      <trkpt lat="42.409304000" lon="-2.503030000">
        <ele>517.90</ele>
        <time>2017-02-11T09:59:40Z</time>
      </trkpt>
      <trkpt lat="42.409276000" lon="-2.502993000">
        <ele>517.80</ele>
        <time>2017-02-11T09:59:41Z</time>
      </trkpt>
      <trkpt lat="42.409246000" lon="-2.502959000">
        <ele>517.70</ele>
        <time>2017-02-11T09:59:42Z</time>
      </trkpt>
      <trkpt lat="42.409216000" lon="-2.502926000">
        <ele>517.70</ele>
        <time>2017-02-11T09:59:43Z</time>
      </trkpt>
      <trkpt lat="42.409187000" lon="-2.502889000">
        <ele>517.60</ele>
        <time>2017-02-11T09:59:44Z</time>
      </trkpt>
      <trkpt lat="42.409157000" lon="-2.502853000">
        <ele>517.50</ele>
        <time>2017-02-11T09:59:45Z</time>
      </trkpt>
      <trkpt lat="42.409126000" lon="-2.502816000">
        <ele>517.40</ele>
        <time>2017-02-11T09:59:46Z</time>
      </trkpt>
      <trkpt lat="42.409093000" lon="-2.502778000">
        <ele>517.40</ele>
        <time>2017-02-11T09:59:47Z</time>
      </trkpt>
      <trkpt lat="42.409062000" lon="-2.502739000">
        <ele>517.30</ele>
        <time>2017-02-11T09:59:48Z</time>
      </trkpt>
      <trkpt lat="42.409029000" lon="-2.502700000">
        <ele>517.20</ele>
        <time>2017-02-11T09:59:49Z</time>
      </trkpt>
      <trkpt lat="42.408996000" lon="-2.502657000">
        <ele>517.20</ele>
        <time>2017-02-11T09:59:50Z</time>
      </trkpt>
      <trkpt lat="42.408965000" lon="-2.502614000">
        <ele>517.10</ele>
        <time>2017-02-11T09:59:51Z</time>
      </trkpt>
      <trkpt lat="42.408932000" lon="-2.502568000">
        <ele>517.00</ele>
        <time>2017-02-11T09:59:52Z</time>
      </trkpt>
      <trkpt lat="42.408901000" lon="-2.502516000">
        <ele>516.90</ele>
        <time>2017-02-11T09:59:53Z</time>
      </trkpt>
      <trkpt lat="42.408871000" lon="-2.502464000">
        <ele>516.50</ele>
        <time>2017-02-11T09:59:54Z</time>
      </trkpt>
      <trkpt lat="42.408844000" lon="-2.502407000">
        <ele>516.20</ele>
        <time>2017-02-11T09:59:55Z</time>
      </trkpt>
      <trkpt lat="42.408820000" lon="-2.502349000">
        <ele>515.80</ele>
        <time>2017-02-11T09:59:56Z</time>
      </trkpt>
      <trkpt lat="42.408797000" lon="-2.502289000">
        <ele>515.50</ele>
        <time>2017-02-11T09:59:57Z</time>
      </trkpt>
      <trkpt lat="42.408777000" lon="-2.502225000">
        <ele>515.20</ele>
        <time>2017-02-11T09:59:58Z</time>
      </trkpt>
      <trkpt lat="42.408760000" lon="-2.502159000">
        <ele>515.00</ele>
        <time>2017-02-11T09:59:59Z</time>
      </trkpt>
      <trkpt lat="42.408744000" lon="-2.502093000">
        <ele>514.60</ele>
        <time>2017-02-11T10:00:00Z</time>
      </trkpt>
      <trkpt lat="42.408726000" lon="-2.502028000">
        <ele>514.20</ele>
        <time>2017-02-11T10:00:01Z</time>
      </trkpt>
      <trkpt lat="42.408714000" lon="-2.501964000">
        <ele>513.90</ele>
        <time>2017-02-11T10:00:02Z</time>
      </trkpt>
      <trkpt lat="42.408702000" lon="-2.501900000">
        <ele>513.60</ele>
        <time>2017-02-11T10:00:03Z</time>
      </trkpt>
      <trkpt lat="42.408692000" lon="-2.501836000">
        <ele>513.40</ele>
        <time>2017-02-11T10:00:04Z</time>
      </trkpt>
      <trkpt lat="42.408676000" lon="-2.501774000">
        <ele>513.20</ele>
        <time>2017-02-11T10:00:05Z</time>
      </trkpt>
      <trkpt lat="42.408661000" lon="-2.501710000">
        <ele>512.80</ele>
        <time>2017-02-11T10:00:06Z</time>
      </trkpt>
      <trkpt lat="42.408644000" lon="-2.501647000">
        <ele>512.60</ele>
        <time>2017-02-11T10:00:07Z</time>
      </trkpt>
      <trkpt lat="42.408628000" lon="-2.501586000">
        <ele>512.40</ele>
        <time>2017-02-11T10:00:08Z</time>
      </trkpt>
      <trkpt lat="42.408611000" lon="-2.501525000">
        <ele>512.30</ele>
        <time>2017-02-11T10:00:09Z</time>
      </trkpt>
      <trkpt lat="42.408596000" lon="-2.501465000">
        <ele>512.30</ele>
        <time>2017-02-11T10:00:10Z</time>
      </trkpt>
      <trkpt lat="42.408582000" lon="-2.501407000">
        <ele>512.30</ele>
        <time>2017-02-11T10:00:11Z</time>
      </trkpt>
      <trkpt lat="42.408571000" lon="-2.501350000">
        <ele>512.30</ele>
        <time>2017-02-11T10:00:12Z</time>
      </trkpt>
      <trkpt lat="42.408559000" lon="-2.501292000">
        <ele>512.40</ele>
        <time>2017-02-11T10:00:13Z</time>
      </trkpt>
      <trkpt lat="42.408547000" lon="-2.501231000">
        <ele>512.40</ele>
        <time>2017-02-11T10:00:14Z</time>
      </trkpt>
      <trkpt lat="42.408534000" lon="-2.501169000">
        <ele>512.40</ele>
        <time>2017-02-11T10:00:15Z</time>
      </trkpt>
      <trkpt lat="42.408521000" lon="-2.501110000">
        <ele>512.10</ele>
        <time>2017-02-11T10:00:16Z</time>
      </trkpt>
      <trkpt lat="42.408511000" lon="-2.501048000">
        <ele>511.90</ele>
        <time>2017-02-11T10:00:17Z</time>
      </trkpt>
      <trkpt lat="42.408503000" lon="-2.500985000">
        <ele>511.70</ele>
        <time>2017-02-11T10:00:18Z</time>
      </trkpt>
      <trkpt lat="42.408491000" lon="-2.500921000">
        <ele>511.50</ele>
        <time>2017-02-11T10:00:19Z</time>
      </trkpt>
      <trkpt lat="42.408479000" lon="-2.500861000">
        <ele>511.40</ele>
        <time>2017-02-11T10:00:20Z</time>
      </trkpt>
      <trkpt lat="42.408468000" lon="-2.500801000">
        <ele>511.30</ele>
        <time>2017-02-11T10:00:21Z</time>
      </trkpt>
      <trkpt lat="42.408457000" lon="-2.500742000">
        <ele>511.30</ele>
        <time>2017-02-11T10:00:22Z</time>
      </trkpt>
      <trkpt lat="42.408432000" lon="-2.500626000">
        <ele>511.20</ele>
        <time>2017-02-11T10:00:24Z</time>
      </trkpt>
      <trkpt lat="42.408421000" lon="-2.500570000">
        <ele>511.20</ele>
        <time>2017-02-11T10:00:25Z</time>
      </trkpt>
      <trkpt lat="42.408408000" lon="-2.500515000">
        <ele>510.90</ele>
        <time>2017-02-11T10:00:26Z</time>
      </trkpt>
      <trkpt lat="42.408394000" lon="-2.500457000">
        <ele>510.80</ele>
        <time>2017-02-11T10:00:27Z</time>
      </trkpt>
      <trkpt lat="42.408380000" lon="-2.500399000">
        <ele>510.60</ele>
        <time>2017-02-11T10:00:28Z</time>
      </trkpt>
      <trkpt lat="42.408366000" lon="-2.500340000">
        <ele>510.50</ele>
        <time>2017-02-11T10:00:29Z</time>
      </trkpt>
      <trkpt lat="42.408350000" lon="-2.500282000">
        <ele>510.30</ele>
        <time>2017-02-11T10:00:30Z</time>
      </trkpt>
      <trkpt lat="42.408330000" lon="-2.500223000">
        <ele>510.30</ele>
        <time>2017-02-11T10:00:31Z</time>
      </trkpt>
      <trkpt lat="42.408311000" lon="-2.500166000">
        <ele>510.10</ele>
        <time>2017-02-11T10:00:32Z</time>
      </trkpt>
      <trkpt lat="42.408297000" lon="-2.500105000">
        <ele>510.00</ele>
        <time>2017-02-11T10:00:33Z</time>
      </trkpt>
      <trkpt lat="42.408282000" lon="-2.500044000">
        <ele>510.00</ele>
        <time>2017-02-11T10:00:34Z</time>
      </trkpt>
      <trkpt lat="42.408263000" lon="-2.499981000">
        <ele>510.00</ele>
        <time>2017-02-11T10:00:35Z</time>
      </trkpt>
      <trkpt lat="42.408247000" lon="-2.499920000">
        <ele>510.00</ele>
        <time>2017-02-11T10:00:36Z</time>
      </trkpt>
      <trkpt lat="42.408232000" lon="-2.499862000">
        <ele>509.90</ele>
        <time>2017-02-11T10:00:37Z</time>
      </trkpt>
      <trkpt lat="42.408220000" lon="-2.499804000">
        <ele>509.90</ele>
        <time>2017-02-11T10:00:38Z</time>
      </trkpt>
      <trkpt lat="42.408204000" lon="-2.499749000">
        <ele>510.00</ele>
        <time>2017-02-11T10:00:39Z</time>
      </trkpt>
      <trkpt lat="42.408186000" lon="-2.499695000">
        <ele>509.90</ele>
        <time>2017-02-11T10:00:40Z</time>
      </trkpt>
      <trkpt lat="42.408173000" lon="-2.499637000">
        <ele>509.80</ele>
        <time>2017-02-11T10:00:41Z</time>
      </trkpt>
      <trkpt lat="42.408156000" lon="-2.499581000">
        <ele>509.80</ele>
        <time>2017-02-11T10:00:42Z</time>
      </trkpt>
      <trkpt lat="42.408142000" lon="-2.499526000">
        <ele>509.90</ele>
        <time>2017-02-11T10:00:43Z</time>
      </trkpt>
      <trkpt lat="42.408125000" lon="-2.499471000">
        <ele>509.70</ele>
        <time>2017-02-11T10:00:44Z</time>
      </trkpt>
      <trkpt lat="42.408110000" lon="-2.499419000">
        <ele>509.50</ele>
        <time>2017-02-11T10:00:45Z</time>
      </trkpt>
      <trkpt lat="42.408094000" lon="-2.499364000">
        <ele>509.60</ele>
        <time>2017-02-11T10:00:46Z</time>
      </trkpt>
      <trkpt lat="42.408079000" lon="-2.499308000">
        <ele>509.60</ele>
        <time>2017-02-11T10:00:47Z</time>
      </trkpt>
      <trkpt lat="42.408062000" lon="-2.499249000">
        <ele>509.20</ele>
        <time>2017-02-11T10:00:48Z</time>
      </trkpt>
      <trkpt lat="42.408048000" lon="-2.499187000">
        <ele>508.90</ele>
        <time>2017-02-11T10:00:49Z</time>
      </trkpt>
      <trkpt lat="42.408032000" lon="-2.499125000">
        <ele>508.70</ele>
        <time>2017-02-11T10:00:50Z</time>
      </trkpt>
      <trkpt lat="42.408018000" lon="-2.499063000">
        <ele>508.50</ele>
        <time>2017-02-11T10:00:51Z</time>
      </trkpt>
      <trkpt lat="42.408002000" lon="-2.499003000">
        <ele>508.40</ele>
        <time>2017-02-11T10:00:52Z</time>
      </trkpt>
      <trkpt lat="42.407989000" lon="-2.498942000">
        <ele>508.30</ele>
        <time>2017-02-11T10:00:53Z</time>
      </trkpt>
      <trkpt lat="42.407975000" lon="-2.498878000">
        <ele>508.30</ele>
        <time>2017-02-11T10:00:54Z</time>
      </trkpt>
      <trkpt lat="42.407961000" lon="-2.498817000">
        <ele>508.30</ele>
        <time>2017-02-11T10:00:55Z</time>
      </trkpt>
      <trkpt lat="42.407945000" lon="-2.498757000">
        <ele>508.20</ele>
        <time>2017-02-11T10:00:56Z</time>
      </trkpt>
      <trkpt lat="42.407928000" lon="-2.498694000">
        <ele>508.20</ele>
        <time>2017-02-11T10:00:57Z</time>
      </trkpt>
      <trkpt lat="42.407909000" lon="-2.498630000">
        <ele>508.00</ele>
        <time>2017-02-11T10:00:58Z</time>
      </trkpt>
      <trkpt lat="42.407890000" lon="-2.498567000">
        <ele>507.90</ele>
        <time>2017-02-11T10:00:59Z</time>
      </trkpt>
      <trkpt lat="42.407870000" lon="-2.498502000">
        <ele>507.80</ele>
        <time>2017-02-11T10:01:00Z</time>
      </trkpt>
      <trkpt lat="42.407850000" lon="-2.498435000">
        <ele>507.70</ele>
        <time>2017-02-11T10:01:01Z</time>
      </trkpt>
      <trkpt lat="42.407830000" lon="-2.498367000">
        <ele>507.30</ele>
        <time>2017-02-11T10:01:02Z</time>
      </trkpt>
      <trkpt lat="42.407809000" lon="-2.498302000">
        <ele>507.00</ele>
        <time>2017-02-11T10:01:03Z</time>
      </trkpt>
      <trkpt lat="42.407787000" lon="-2.498236000">
        <ele>506.70</ele>
        <time>2017-02-11T10:01:04Z</time>
      </trkpt>
      <trkpt lat="42.407761000" lon="-2.498173000">
        <ele>506.60</ele>
        <time>2017-02-11T10:01:05Z</time>
      </trkpt>
      <trkpt lat="42.407738000" lon="-2.498106000">
        <ele>506.40</ele>
        <time>2017-02-11T10:01:06Z</time>
      </trkpt>
      <trkpt lat="42.407715000" lon="-2.498043000">
        <ele>506.20</ele>
        <time>2017-02-11T10:01:07Z</time>
      </trkpt>
      <trkpt lat="42.407693000" lon="-2.497977000">
        <ele>506.10</ele>
        <time>2017-02-11T10:01:08Z</time>
      </trkpt>
      <trkpt lat="42.407668000" lon="-2.497913000">
        <ele>506.00</ele>
        <time>2017-02-11T10:01:09Z</time>
      </trkpt>
      <trkpt lat="42.407639000" lon="-2.497851000">
        <ele>506.00</ele>
        <time>2017-02-11T10:01:10Z</time>
      </trkpt>
      <trkpt lat="42.407615000" lon="-2.497787000">
        <ele>506.00</ele>
        <time>2017-02-11T10:01:11Z</time>
      </trkpt>
      <trkpt lat="42.407594000" lon="-2.497721000">
        <ele>506.00</ele>
        <time>2017-02-11T10:01:12Z</time>
      </trkpt>
      <trkpt lat="42.407574000" lon="-2.497653000">
        <ele>506.00</ele>
        <time>2017-02-11T10:01:13Z</time>
      </trkpt>
      <trkpt lat="42.407557000" lon="-2.497585000">
        <ele>505.90</ele>
        <time>2017-02-11T10:01:14Z</time>
      </trkpt>
      <trkpt lat="42.407538000" lon="-2.497516000">
        <ele>505.80</ele>
        <time>2017-02-11T10:01:15Z</time>
      </trkpt>
      <trkpt lat="42.407519000" lon="-2.497450000">
        <ele>505.50</ele>
        <time>2017-02-11T10:01:16Z</time>
      </trkpt>
      <trkpt lat="42.407504000" lon="-2.497384000">
        <ele>505.30</ele>
        <time>2017-02-11T10:01:17Z</time>
      </trkpt>
      <trkpt lat="42.407493000" lon="-2.497319000">
        <ele>505.30</ele>
        <time>2017-02-11T10:01:18Z</time>
      </trkpt>
      <trkpt lat="42.407487000" lon="-2.497256000">
        <ele>505.40</ele>
        <time>2017-02-11T10:01:19Z</time>
      </trkpt>
      <trkpt lat="42.407481000" lon="-2.497192000">
        <ele>505.20</ele>
        <time>2017-02-11T10:01:20Z</time>
      </trkpt>
      <trkpt lat="42.407476000" lon="-2.497129000">
        <ele>505.10</ele>
        <time>2017-02-11T10:01:21Z</time>
      </trkpt>
      <trkpt lat="42.407471000" lon="-2.497061000">
        <ele>505.00</ele>
        <time>2017-02-11T10:01:22Z</time>
      </trkpt>
      <trkpt lat="42.407466000" lon="-2.496995000">
        <ele>505.00</ele>
        <time>2017-02-11T10:01:23Z</time>
      </trkpt>
      <trkpt lat="42.407455000" lon="-2.496861000">
        <ele>504.70</ele>
        <time>2017-02-11T10:01:25Z</time>
      </trkpt>
      <trkpt lat="42.407448000" lon="-2.496793000">
        <ele>504.60</ele>
        <time>2017-02-11T10:01:26Z</time>
      </trkpt>
      <trkpt lat="42.407441000" lon="-2.496726000">
        <ele>504.50</ele>
        <time>2017-02-11T10:01:27Z</time>
      </trkpt>
      <trkpt lat="42.407432000" lon="-2.496658000">
        <ele>504.40</ele>
        <time>2017-02-11T10:01:28Z</time>
      </trkpt>
      <trkpt lat="42.407425000" lon="-2.496590000">
        <ele>504.40</ele>
        <time>2017-02-11T10:01:29Z</time>
      </trkpt>
      <trkpt lat="42.407418000" lon="-2.496520000">
        <ele>504.30</ele>
        <time>2017-02-11T10:01:30Z</time>
      </trkpt>
      <trkpt lat="42.407410000" lon="-2.496449000">
        <ele>504.20</ele>
        <time>2017-02-11T10:01:31Z</time>
      </trkpt>
      <trkpt lat="42.407398000" lon="-2.496381000">
        <ele>504.00</ele>
        <time>2017-02-11T10:01:32Z</time>
      </trkpt>
      <trkpt lat="42.407388000" lon="-2.496313000">
        <ele>503.90</ele>
        <time>2017-02-11T10:01:33Z</time>
      </trkpt>
      <trkpt lat="42.407376000" lon="-2.496246000">
        <ele>503.80</ele>
        <time>2017-02-11T10:01:34Z</time>
      </trkpt>
      <trkpt lat="42.407364000" lon="-2.496181000">
        <ele>503.70</ele>
        <time>2017-02-11T10:01:35Z</time>
      </trkpt>
      <trkpt lat="42.407352000" lon="-2.496114000">
        <ele>503.50</ele>
        <time>2017-02-11T10:01:36Z</time>
      </trkpt>
      <trkpt lat="42.407339000" lon="-2.496050000">
        <ele>503.40</ele>
        <time>2017-02-11T10:01:37Z</time>
      </trkpt>
      <trkpt lat="42.407324000" lon="-2.495984000">
        <ele>503.30</ele>
        <time>2017-02-11T10:01:38Z</time>
      </trkpt>
      <trkpt lat="42.407312000" lon="-2.495919000">
        <ele>503.20</ele>
        <time>2017-02-11T10:01:39Z</time>
      </trkpt>
      <trkpt lat="42.407304000" lon="-2.495852000">
        <ele>503.10</ele>
        <time>2017-02-11T10:01:40Z</time>
      </trkpt>
      <trkpt lat="42.407295000" lon="-2.495788000">
        <ele>503.10</ele>
        <time>2017-02-11T10:01:41Z</time>
      </trkpt>
      <trkpt lat="42.407284000" lon="-2.495725000">
        <ele>502.80</ele>
        <time>2017-02-11T10:01:42Z</time>
      </trkpt>
      <trkpt lat="42.407275000" lon="-2.495663000">
        <ele>502.60</ele>
        <time>2017-02-11T10:01:43Z</time>
      </trkpt>
      <trkpt lat="42.407269000" lon="-2.495599000">
        <ele>502.30</ele>
        <time>2017-02-11T10:01:44Z</time>
      </trkpt>
      <trkpt lat="42.407263000" lon="-2.495538000">
        <ele>502.10</ele>
        <time>2017-02-11T10:01:45Z</time>
      </trkpt>
      <trkpt lat="42.407256000" lon="-2.495476000">
        <ele>502.10</ele>
        <time>2017-02-11T10:01:46Z</time>
      </trkpt>
      <trkpt lat="42.407249000" lon="-2.495413000">
        <ele>502.10</ele>
        <time>2017-02-11T10:01:47Z</time>
      </trkpt>
      <trkpt lat="42.407241000" lon="-2.495355000">
        <ele>502.00</ele>
        <time>2017-02-11T10:01:48Z</time>
      </trkpt>
      <trkpt lat="42.407234000" lon="-2.495294000">
        <ele>501.90</ele>
        <time>2017-02-11T10:01:49Z</time>
      </trkpt>
      <trkpt lat="42.407226000" lon="-2.495236000">
        <ele>501.80</ele>
        <time>2017-02-11T10:01:50Z</time>
      </trkpt>
      <trkpt lat="42.407220000" lon="-2.495172000">
        <ele>501.80</ele>
        <time>2017-02-11T10:01:51Z</time>
      </trkpt>
      <trkpt lat="42.407213000" lon="-2.495111000">
        <ele>501.40</ele>
        <time>2017-02-11T10:01:52Z</time>
      </trkpt>
      <trkpt lat="42.407206000" lon="-2.495049000">
        <ele>501.20</ele>
        <time>2017-02-11T10:01:53Z</time>
      </trkpt>
      <trkpt lat="42.407197000" lon="-2.494989000">
        <ele>501.00</ele>
        <time>2017-02-11T10:01:54Z</time>
      </trkpt>
      <trkpt lat="42.407187000" lon="-2.494926000">
        <ele>500.80</ele>
        <time>2017-02-11T10:01:55Z</time>
      </trkpt>
      <trkpt lat="42.407175000" lon="-2.494867000">
        <ele>500.70</ele>
        <time>2017-02-11T10:01:56Z</time>
      </trkpt>
      <trkpt lat="42.407166000" lon="-2.494807000">
        <ele>500.50</ele>
        <time>2017-02-11T10:01:57Z</time>
      </trkpt>
      <trkpt lat="42.407156000" lon="-2.494747000">
        <ele>500.50</ele>
        <time>2017-02-11T10:01:58Z</time>
      </trkpt>
      <trkpt lat="42.407148000" lon="-2.494686000">
        <ele>500.50</ele>
        <time>2017-02-11T10:01:59Z</time>
      </trkpt>
      <trkpt lat="42.407133000" lon="-2.494630000">
        <ele>500.50</ele>
        <time>2017-02-11T10:02:00Z</time>
      </trkpt>
      <trkpt lat="42.407123000" lon="-2.494573000">
        <ele>500.50</ele>
        <time>2017-02-11T10:02:01Z</time>
      </trkpt>
      <trkpt lat="42.407111000" lon="-2.494516000">
        <ele>500.40</ele>
        <time>2017-02-11T10:02:02Z</time>
      </trkpt>
      <trkpt lat="42.407101000" lon="-2.494458000">
        <ele>500.40</ele>
        <time>2017-02-11T10:02:03Z</time>
      </trkpt>
      <trkpt lat="42.407087000" lon="-2.494400000">
        <ele>500.20</ele>
        <time>2017-02-11T10:02:04Z</time>
      </trkpt>
      <trkpt lat="42.407073000" lon="-2.494344000">
        <ele>500.10</ele>
        <time>2017-02-11T10:02:05Z</time>
      </trkpt>
      <trkpt lat="42.407053000" lon="-2.494292000">
        <ele>500.00</ele>
        <time>2017-02-11T10:02:06Z</time>
      </trkpt>
      <trkpt lat="42.407033000" lon="-2.494241000">
        <ele>499.90</ele>
        <time>2017-02-11T10:02:07Z</time>
      </trkpt>
      <trkpt lat="42.407011000" lon="-2.494192000">
        <ele>499.80</ele>
        <time>2017-02-11T10:02:08Z</time>
      </trkpt>
      <trkpt lat="42.406984000" lon="-2.494146000">
        <ele>499.70</ele>
        <time>2017-02-11T10:02:09Z</time>
      </trkpt>
      <trkpt lat="42.406957000" lon="-2.494098000">
        <ele>499.50</ele>
        <time>2017-02-11T10:02:10Z</time>
      </trkpt>
      <trkpt lat="42.406927000" lon="-2.494051000">
        <ele>499.40</ele>
        <time>2017-02-11T10:02:11Z</time>
      </trkpt>
      <trkpt lat="42.406896000" lon="-2.494003000">
        <ele>499.30</ele>
        <time>2017-02-11T10:02:12Z</time>
      </trkpt>
      <trkpt lat="42.406866000" lon="-2.493953000">
        <ele>499.30</ele>
        <time>2017-02-11T10:02:13Z</time>
      </trkpt>
      <trkpt lat="42.406840000" lon="-2.493903000">
        <ele>499.30</ele>
        <time>2017-02-11T10:02:14Z</time>
      </trkpt>
      <trkpt lat="42.406813000" lon="-2.493852000">
        <ele>499.30</ele>
        <time>2017-02-11T10:02:15Z</time>
      </trkpt>
      <trkpt lat="42.406785000" lon="-2.493801000">
        <ele>499.30</ele>
        <time>2017-02-11T10:02:16Z</time>
      </trkpt>
      <trkpt lat="42.406761000" lon="-2.493745000">
        <ele>499.30</ele>
        <time>2017-02-11T10:02:17Z</time>
      </trkpt>
      <trkpt lat="42.406736000" lon="-2.493693000">
        <ele>499.20</ele>
        <time>2017-02-11T10:02:18Z</time>
      </trkpt>
      <trkpt lat="42.406712000" lon="-2.493638000">
        <ele>499.00</ele>
        <time>2017-02-11T10:02:19Z</time>
      </trkpt>
      <trkpt lat="42.406690000" lon="-2.493584000">
        <ele>498.80</ele>
        <time>2017-02-11T10:02:20Z</time>
      </trkpt>
      <trkpt lat="42.406666000" lon="-2.493532000">
        <ele>498.70</ele>
        <time>2017-02-11T10:02:21Z</time>
      </trkpt>
      <trkpt lat="42.406644000" lon="-2.493483000">
        <ele>498.60</ele>
        <time>2017-02-11T10:02:22Z</time>
      </trkpt>
      <trkpt lat="42.406619000" lon="-2.493438000">
        <ele>498.50</ele>
        <time>2017-02-11T10:02:23Z</time>
      </trkpt>
      <trkpt lat="42.406592000" lon="-2.493393000">
        <ele>498.50</ele>
        <time>2017-02-11T10:02:24Z</time>
      </trkpt>
      <trkpt lat="42.406542000" lon="-2.493298000">
        <ele>498.40</ele>
        <time>2017-02-11T10:02:26Z</time>
      </trkpt>
      <trkpt lat="42.406521000" lon="-2.493248000">
        <ele>498.40</ele>
        <time>2017-02-11T10:02:27Z</time>
      </trkpt>
      <trkpt lat="42.406499000" lon="-2.493198000">
        <ele>498.30</ele>
        <time>2017-02-11T10:02:28Z</time>
      </trkpt>
      <trkpt lat="42.406474000" lon="-2.493148000">
        <ele>498.20</ele>
        <time>2017-02-11T10:02:29Z</time>
      </trkpt>
      <trkpt lat="42.406451000" lon="-2.493101000">
        <ele>498.20</ele>
        <time>2017-02-11T10:02:30Z</time>
      </trkpt>
      <trkpt lat="42.406428000" lon="-2.493056000">
        <ele>498.20</ele>
        <time>2017-02-11T10:02:31Z</time>
      </trkpt>
      <trkpt lat="42.406407000" lon="-2.493011000">
        <ele>498.10</ele>
        <time>2017-02-11T10:02:32Z</time>
      </trkpt>
      <trkpt lat="42.406384000" lon="-2.492965000">
        <ele>498.10</ele>
        <time>2017-02-11T10:02:33Z</time>
      </trkpt>
      <trkpt lat="42.406361000" lon="-2.492920000">
        <ele>498.30</ele>
        <time>2017-02-11T10:02:34Z</time>
      </trkpt>
      <trkpt lat="42.406341000" lon="-2.492871000">
        <ele>498.40</ele>
        <time>2017-02-11T10:02:35Z</time>
      </trkpt>
      <trkpt lat="42.406319000" lon="-2.492826000">
        <ele>498.50</ele>
        <time>2017-02-11T10:02:36Z</time>
      </trkpt>
      <trkpt lat="42.406293000" lon="-2.492785000">
        <ele>498.60</ele>
        <time>2017-02-11T10:02:37Z</time>
      </trkpt>
      <trkpt lat="42.406271000" lon="-2.492745000">
        <ele>498.70</ele>
        <time>2017-02-11T10:02:38Z</time>
      </trkpt>
      <trkpt lat="42.406250000" lon="-2.492710000">
        <ele>498.70</ele>
        <time>2017-02-11T10:02:39Z</time>
      </trkpt>
      <trkpt lat="42.406233000" lon="-2.492686000">
        <ele>498.60</ele>
        <time>2017-02-11T10:02:40Z</time>
      </trkpt>
      <trkpt lat="42.406219000" lon="-2.492669000">
        <ele>498.50</ele>
        <time>2017-02-11T10:02:41Z</time>
      </trkpt>
      <trkpt lat="42.406206000" lon="-2.492646000">
        <ele>498.50</ele>
        <time>2017-02-11T10:02:42Z</time>
      </trkpt>
      <trkpt lat="42.406184000" lon="-2.492631000">
        <ele>498.40</ele>
        <time>2017-02-11T10:02:43Z</time>
      </trkpt>
      <trkpt lat="42.406159000" lon="-2.492609000">
        <ele>498.40</ele>
        <time>2017-02-11T10:02:44Z</time>
      </trkpt>
      <trkpt lat="42.406133000" lon="-2.492588000">
        <ele>498.40</ele>
        <time>2017-02-11T10:02:45Z</time>
      </trkpt>
      <trkpt lat="42.406105000" lon="-2.492565000">
        <ele>498.40</ele>
        <time>2017-02-11T10:02:46Z</time>
      </trkpt>
      <trkpt lat="42.406076000" lon="-2.492535000">
        <ele>498.40</ele>
        <time>2017-02-11T10:02:47Z</time>
      </trkpt>
      <trkpt lat="42.406040000" lon="-2.492507000">
        <ele>498.30</ele>
        <time>2017-02-11T10:02:48Z</time>
      </trkpt>
      <trkpt lat="42.405999000" lon="-2.492477000">
        <ele>498.20</ele>
        <time>2017-02-11T10:02:49Z</time>
      </trkpt>
      <trkpt lat="42.405956000" lon="-2.492446000">
        <ele>497.90</ele>
        <time>2017-02-11T10:02:50Z</time>
      </trkpt>
      <trkpt lat="42.405912000" lon="-2.492409000">
        <ele>497.70</ele>
        <time>2017-02-11T10:02:51Z</time>
      </trkpt>
      <trkpt lat="42.405867000" lon="-2.492367000">
        <ele>497.50</ele>
        <time>2017-02-11T10:02:52Z</time>
      </trkpt>
      <trkpt lat="42.405826000" lon="-2.492322000">
        <ele>497.40</ele>
        <time>2017-02-11T10:02:53Z</time>
      </trkpt>
      <trkpt lat="42.405785000" lon="-2.492274000">
        <ele>497.20</ele>
        <time>2017-02-11T10:02:54Z</time>
      </trkpt>
      <trkpt lat="42.405748000" lon="-2.492228000">
        <ele>497.10</ele>
        <time>2017-02-11T10:02:55Z</time>
      </trkpt>
      <trkpt lat="42.405714000" lon="-2.492181000">
        <ele>497.10</ele>
        <time>2017-02-11T10:02:56Z</time>
      </trkpt>
      <trkpt lat="42.405677000" lon="-2.492134000">
        <ele>497.10</ele>
        <time>2017-02-11T10:02:57Z</time>
      </trkpt>
      <trkpt lat="42.405646000" lon="-2.492086000">
        <ele>496.90</ele>
        <time>2017-02-11T10:02:58Z</time>
      </trkpt>
      <trkpt lat="42.405614000" lon="-2.492038000">
        <ele>496.80</ele>
        <time>2017-02-11T10:02:59Z</time>
      </trkpt>
      <trkpt lat="42.405583000" lon="-2.491990000">
        <ele>496.70</ele>
        <time>2017-02-11T10:03:00Z</time>
      </trkpt>
      <trkpt lat="42.405550000" lon="-2.491944000">
        <ele>496.70</ele>
        <time>2017-02-11T10:03:01Z</time>
      </trkpt>
      <trkpt lat="42.405516000" lon="-2.491903000">
        <ele>496.60</ele>
        <time>2017-02-11T10:03:02Z</time>
      </trkpt>
      <trkpt lat="42.405485000" lon="-2.491858000">
        <ele>496.50</ele>
        <time>2017-02-11T10:03:03Z</time>
      </trkpt>
      <trkpt lat="42.405453000" lon="-2.491811000">
        <ele>496.30</ele>
        <time>2017-02-11T10:03:04Z</time>
      </trkpt>
      <trkpt lat="42.405420000" lon="-2.491766000">
        <ele>496.20</ele>
        <time>2017-02-11T10:03:05Z</time>
      </trkpt>
      <trkpt lat="42.405387000" lon="-2.491720000">
        <ele>495.90</ele>
        <time>2017-02-11T10:03:06Z</time>
      </trkpt>
      <trkpt lat="42.405357000" lon="-2.491679000">
        <ele>495.70</ele>
        <time>2017-02-11T10:03:07Z</time>
      </trkpt>
      <trkpt lat="42.405331000" lon="-2.491634000">
        <ele>495.50</ele>
        <time>2017-02-11T10:03:08Z</time>
      </trkpt>
      <trkpt lat="42.405305000" lon="-2.491592000">
        <ele>495.40</ele>
        <time>2017-02-11T10:03:09Z</time>
      </trkpt>
      <trkpt lat="42.405279000" lon="-2.491548000">
        <ele>495.50</ele>
        <time>2017-02-11T10:03:10Z</time>
      </trkpt>
      <trkpt lat="42.405249000" lon="-2.491505000">
        <ele>495.50</ele>
        <time>2017-02-11T10:03:11Z</time>
      </trkpt>
      <trkpt lat="42.405222000" lon="-2.491458000">
        <ele>495.60</ele>
        <time>2017-02-11T10:03:12Z</time>
      </trkpt>
      <trkpt lat="42.405193000" lon="-2.491410000">
        <ele>495.60</ele>
        <time>2017-02-11T10:03:13Z</time>
      </trkpt>
      <trkpt lat="42.405166000" lon="-2.491359000">
        <ele>495.60</ele>
        <time>2017-02-11T10:03:14Z</time>
      </trkpt>
      <trkpt lat="42.405138000" lon="-2.491309000">
        <ele>495.60</ele>
        <time>2017-02-11T10:03:15Z</time>
      </trkpt>
      <trkpt lat="42.405111000" lon="-2.491262000">
        <ele>495.60</ele>
        <time>2017-02-11T10:03:16Z</time>
      </trkpt>
      <trkpt lat="42.405089000" lon="-2.491212000">
        <ele>495.60</ele>
        <time>2017-02-11T10:03:17Z</time>
      </trkpt>
      <trkpt lat="42.405064000" lon="-2.491168000">
        <ele>495.20</ele>
        <time>2017-02-11T10:03:18Z</time>
      </trkpt>
      <trkpt lat="42.405041000" lon="-2.491125000">
        <ele>495.00</ele>
        <time>2017-02-11T10:03:19Z</time>
      </trkpt>
      <trkpt lat="42.405017000" lon="-2.491081000">
        <ele>494.80</ele>
        <time>2017-02-11T10:03:20Z</time>
      </trkpt>
      <trkpt lat="42.404995000" lon="-2.491034000">
        <ele>494.60</ele>
        <time>2017-02-11T10:03:21Z</time>
      </trkpt>
      <trkpt lat="42.404969000" lon="-2.490986000">
        <ele>494.50</ele>
        <time>2017-02-11T10:03:22Z</time>
      </trkpt>
      <trkpt lat="42.404946000" lon="-2.490938000">
        <ele>494.50</ele>
        <time>2017-02-11T10:03:23Z</time>
      </trkpt>
      <trkpt lat="42.404923000" lon="-2.490887000">
        <ele>494.40</ele>
        <time>2017-02-11T10:03:24Z</time>
      </trkpt>
      <trkpt lat="42.404902000" lon="-2.490838000">
        <ele>494.40</ele>
        <time>2017-02-11T10:03:25Z</time>
      </trkpt>
      <trkpt lat="42.404879000" lon="-2.490788000">
        <ele>494.30</ele>
        <time>2017-02-11T10:03:26Z</time>
      </trkpt>
      <trkpt lat="42.404835000" lon="-2.490689000">
        <ele>494.30</ele>
        <time>2017-02-11T10:03:28Z</time>
      </trkpt>
      <trkpt lat="42.404816000" lon="-2.490636000">
        <ele>494.30</ele>
        <time>2017-02-11T10:03:29Z</time>
      </trkpt>
      <trkpt lat="42.404794000" lon="-2.490584000">
        <ele>494.20</ele>
        <time>2017-02-11T10:03:30Z</time>
      </trkpt>
      <trkpt lat="42.404774000" lon="-2.490530000">
        <ele>494.10</ele>
        <time>2017-02-11T10:03:31Z</time>
      </trkpt>
      <trkpt lat="42.404754000" lon="-2.490479000">
        <ele>494.10</ele>
        <time>2017-02-11T10:03:32Z</time>
      </trkpt>
      <trkpt lat="42.404737000" lon="-2.490426000">
        <ele>494.10</ele>
        <time>2017-02-11T10:03:33Z</time>
      </trkpt>
      <trkpt lat="42.404719000" lon="-2.490374000">
        <ele>494.00</ele>
        <time>2017-02-11T10:03:34Z</time>
      </trkpt>
      <trkpt lat="42.404700000" lon="-2.490327000">
        <ele>494.00</ele>
        <time>2017-02-11T10:03:35Z</time>
      </trkpt>
      <trkpt lat="42.404682000" lon="-2.490274000">
        <ele>494.10</ele>
        <time>2017-02-11T10:03:36Z</time>
      </trkpt>
      <trkpt lat="42.404665000" lon="-2.490225000">
        <ele>494.10</ele>
        <time>2017-02-11T10:03:37Z</time>
      </trkpt>
      <trkpt lat="42.404647000" lon="-2.490176000">
        <ele>494.10</ele>
        <time>2017-02-11T10:03:38Z</time>
      </trkpt>
      <trkpt lat="42.404629000" lon="-2.490127000">
        <ele>494.00</ele>
        <time>2017-02-11T10:03:39Z</time>
      </trkpt>
      <trkpt lat="42.404610000" lon="-2.490073000">
        <ele>494.00</ele>
        <time>2017-02-11T10:03:40Z</time>
      </trkpt>
      <trkpt lat="42.404594000" lon="-2.490015000">
        <ele>494.00</ele>
        <time>2017-02-11T10:03:41Z</time>
      </trkpt>
      <trkpt lat="42.404577000" lon="-2.489958000">
        <ele>494.00</ele>
        <time>2017-02-11T10:03:42Z</time>
      </trkpt>
      <trkpt lat="42.404558000" lon="-2.489902000">
        <ele>494.00</ele>
        <time>2017-02-11T10:03:43Z</time>
      </trkpt>
      <trkpt lat="42.404546000" lon="-2.489846000">
        <ele>494.00</ele>
        <time>2017-02-11T10:03:44Z</time>
      </trkpt>
      <trkpt lat="42.404531000" lon="-2.489794000">
        <ele>494.10</ele>
        <time>2017-02-11T10:03:45Z</time>
      </trkpt>
      <trkpt lat="42.404512000" lon="-2.489751000">
        <ele>494.10</ele>
        <time>2017-02-11T10:03:46Z</time>
      </trkpt>
      <trkpt lat="42.404497000" lon="-2.489708000">
        <ele>494.10</ele>
        <time>2017-02-11T10:03:47Z</time>
      </trkpt>
      <trkpt lat="42.404484000" lon="-2.489667000">
        <ele>494.20</ele>
        <time>2017-02-11T10:03:48Z</time>
      </trkpt>
      <trkpt lat="42.404475000" lon="-2.489625000">
        <ele>494.20</ele>
        <time>2017-02-11T10:03:49Z</time>
      </trkpt>
      <trkpt lat="42.404462000" lon="-2.489582000">
        <ele>493.90</ele>
        <time>2017-02-11T10:03:50Z</time>
      </trkpt>
      <trkpt lat="42.404447000" lon="-2.489533000">
        <ele>493.80</ele>
        <time>2017-02-11T10:03:51Z</time>
      </trkpt>
      <trkpt lat="42.404429000" lon="-2.489481000">
        <ele>493.60</ele>
        <time>2017-02-11T10:03:52Z</time>
      </trkpt>
      <trkpt lat="42.404408000" lon="-2.489426000">
        <ele>493.60</ele>
        <time>2017-02-11T10:03:53Z</time>
      </trkpt>
      <trkpt lat="42.404386000" lon="-2.489365000">
        <ele>493.70</ele>
        <time>2017-02-11T10:03:54Z</time>
      </trkpt>
      <trkpt lat="42.404364000" lon="-2.489299000">
        <ele>493.80</ele>
        <time>2017-02-11T10:03:55Z</time>
      </trkpt>
      <trkpt lat="42.404343000" lon="-2.489227000">
        <ele>493.90</ele>
        <time>2017-02-11T10:03:56Z</time>
      </trkpt>
      <trkpt lat="42.404320000" lon="-2.489157000">
        <ele>494.00</ele>
        <time>2017-02-11T10:03:57Z</time>
      </trkpt>
      <trkpt lat="42.404296000" lon="-2.489090000">
        <ele>494.10</ele>
        <time>2017-02-11T10:03:58Z</time>
      </trkpt>
      <trkpt lat="42.404271000" lon="-2.489024000">
        <ele>494.10</ele>
        <time>2017-02-11T10:03:59Z</time>
      </trkpt>
      <trkpt lat="42.404249000" lon="-2.488956000">
        <ele>494.00</ele>
        <time>2017-02-11T10:04:00Z</time>
      </trkpt>
      <trkpt lat="42.404226000" lon="-2.488892000">
        <ele>493.90</ele>
        <time>2017-02-11T10:04:01Z</time>
      </trkpt>
      <trkpt lat="42.404206000" lon="-2.488829000">
        <ele>493.80</ele>
        <time>2017-02-11T10:04:02Z</time>
      </trkpt>
      <trkpt lat="42.404189000" lon="-2.488767000">
        <ele>493.60</ele>
        <time>2017-02-11T10:04:03Z</time>
      </trkpt>
      <trkpt lat="42.404173000" lon="-2.488707000">
        <ele>493.50</ele>
        <time>2017-02-11T10:04:04Z</time>
      </trkpt>
      <trkpt lat="42.404154000" lon="-2.488648000">
        <ele>493.50</ele>
        <time>2017-02-11T10:04:05Z</time>
      </trkpt>
      <trkpt lat="42.404139000" lon="-2.488590000">
        <ele>493.40</ele>
        <time>2017-02-11T10:04:06Z</time>
      </trkpt>
      <trkpt lat="42.404125000" lon="-2.488535000">
        <ele>493.40</ele>
        <time>2017-02-11T10:04:07Z</time>
      </trkpt>
      <trkpt lat="42.404110000" lon="-2.488480000">
        <ele>493.30</ele>
        <time>2017-02-11T10:04:08Z</time>
      </trkpt>
      <trkpt lat="42.404096000" lon="-2.488428000">
        <ele>493.20</ele>
        <time>2017-02-11T10:04:09Z</time>
      </trkpt>
      <trkpt lat="42.404079000" lon="-2.488378000">
        <ele>493.20</ele>
        <time>2017-02-11T10:04:10Z</time>
      </trkpt>
      <trkpt lat="42.404062000" lon="-2.488325000">
        <ele>493.10</ele>
        <time>2017-02-11T10:04:11Z</time>
      </trkpt>
      <trkpt lat="42.404045000" lon="-2.488270000">
        <ele>493.10</ele>
        <time>2017-02-11T10:04:12Z</time>
      </trkpt>
      <trkpt lat="42.404029000" lon="-2.488216000">
        <ele>493.10</ele>
        <time>2017-02-11T10:04:13Z</time>
      </trkpt>
      <trkpt lat="42.404013000" lon="-2.488159000">
        <ele>493.10</ele>
        <time>2017-02-11T10:04:14Z</time>
      </trkpt>
      <trkpt lat="42.403999000" lon="-2.488099000">
        <ele>493.00</ele>
        <time>2017-02-11T10:04:15Z</time>
      </trkpt>
      <trkpt lat="42.403983000" lon="-2.488038000">
        <ele>493.00</ele>
        <time>2017-02-11T10:04:16Z</time>
      </trkpt>
      <trkpt lat="42.403968000" lon="-2.487977000">
        <ele>493.00</ele>
        <time>2017-02-11T10:04:17Z</time>
      </trkpt>
      <trkpt lat="42.403952000" lon="-2.487914000">
        <ele>493.00</ele>
        <time>2017-02-11T10:04:18Z</time>
      </trkpt>
      <trkpt lat="42.403936000" lon="-2.487851000">
        <ele>492.90</ele>
        <time>2017-02-11T10:04:19Z</time>
      </trkpt>
      <trkpt lat="42.403920000" lon="-2.487791000">
        <ele>492.90</ele>
        <time>2017-02-11T10:04:20Z</time>
      </trkpt>
      <trkpt lat="42.403905000" lon="-2.487731000">
        <ele>492.80</ele>
        <time>2017-02-11T10:04:21Z</time>
      </trkpt>
      <trkpt lat="42.403895000" lon="-2.487673000">
        <ele>492.80</ele>
        <time>2017-02-11T10:04:22Z</time>
      </trkpt>
      <trkpt lat="42.403883000" lon="-2.487614000">
        <ele>492.80</ele>
        <time>2017-02-11T10:04:23Z</time>
      </trkpt>
      <trkpt lat="42.403871000" lon="-2.487558000">
        <ele>492.80</ele>
        <time>2017-02-11T10:04:24Z</time>
      </trkpt>
      <trkpt lat="42.403858000" lon="-2.487502000">
        <ele>492.90</ele>
        <time>2017-02-11T10:04:25Z</time>
      </trkpt>
      <trkpt lat="42.403843000" lon="-2.487448000">
        <ele>492.90</ele>
        <time>2017-02-11T10:04:26Z</time>
      </trkpt>
      <trkpt lat="42.403828000" lon="-2.487391000">
        <ele>492.90</ele>
        <time>2017-02-11T10:04:27Z</time>
      </trkpt>
      <trkpt lat="42.403816000" lon="-2.487331000">
        <ele>492.90</ele>
        <time>2017-02-11T10:04:28Z</time>
      </trkpt>
      <trkpt lat="42.403790000" lon="-2.487204000">
        <ele>493.00</ele>
        <time>2017-02-11T10:04:30Z</time>
      </trkpt>
      <trkpt lat="42.403775000" lon="-2.487137000">
        <ele>493.00</ele>
        <time>2017-02-11T10:04:31Z</time>
      </trkpt>
      <trkpt lat="42.403756000" lon="-2.487075000">
        <ele>492.90</ele>
        <time>2017-02-11T10:04:32Z</time>
      </trkpt>
      <trkpt lat="42.403737000" lon="-2.487017000">
        <ele>492.80</ele>
        <time>2017-02-11T10:04:33Z</time>
      </trkpt>
      <trkpt lat="42.403715000" lon="-2.486964000">
        <ele>492.30</ele>
        <time>2017-02-11T10:04:34Z</time>
      </trkpt>
      <trkpt lat="42.403690000" lon="-2.486915000">
        <ele>492.00</ele>
        <time>2017-02-11T10:04:35Z</time>
      </trkpt>
      <trkpt lat="42.403666000" lon="-2.486863000">
        <ele>491.70</ele>
        <time>2017-02-11T10:04:36Z</time>
      </trkpt>
      <trkpt lat="42.403639000" lon="-2.486817000">
        <ele>491.60</ele>
        <time>2017-02-11T10:04:37Z</time>
      </trkpt>
      <trkpt lat="42.403614000" lon="-2.486760000">
        <ele>491.70</ele>
        <time>2017-02-11T10:04:38Z</time>
      </trkpt>
      <trkpt lat="42.403593000" lon="-2.486698000">
        <ele>491.80</ele>
        <time>2017-02-11T10:04:39Z</time>
      </trkpt>
      <trkpt lat="42.403575000" lon="-2.486632000">
        <ele>491.90</ele>
        <time>2017-02-11T10:04:40Z</time>
      </trkpt>
      <trkpt lat="42.403561000" lon="-2.486565000">
        <ele>492.00</ele>
        <time>2017-02-11T10:04:41Z</time>
      </trkpt>
      <trkpt lat="42.403553000" lon="-2.486494000">
        <ele>492.10</ele>
        <time>2017-02-11T10:04:42Z</time>
      </trkpt>
      <trkpt lat="42.403548000" lon="-2.486421000">
        <ele>492.10</ele>
        <time>2017-02-11T10:04:43Z</time>
      </trkpt>
      <trkpt lat="42.403546000" lon="-2.486348000">
        <ele>491.90</ele>
        <time>2017-02-11T10:04:44Z</time>
      </trkpt>
      <trkpt lat="42.403543000" lon="-2.486278000">
        <ele>491.70</ele>
        <time>2017-02-11T10:04:45Z</time>
      </trkpt>
      <trkpt lat="42.403542000" lon="-2.486211000">
        <ele>491.60</ele>
        <time>2017-02-11T10:04:46Z</time>
      </trkpt>
      <trkpt lat="42.403544000" lon="-2.486144000">
        <ele>491.50</ele>
        <time>2017-02-11T10:04:47Z</time>
      </trkpt>
      <trkpt lat="42.403544000" lon="-2.486081000">
        <ele>491.60</ele>
        <time>2017-02-11T10:04:48Z</time>
      </trkpt>
      <trkpt lat="42.403544000" lon="-2.486020000">
        <ele>491.70</ele>
        <time>2017-02-11T10:04:49Z</time>
      </trkpt>
      <trkpt lat="42.403541000" lon="-2.485959000">
        <ele>491.80</ele>
        <time>2017-02-11T10:04:50Z</time>
      </trkpt>
      <trkpt lat="42.403533000" lon="-2.485899000">
        <ele>491.80</ele>
        <time>2017-02-11T10:04:51Z</time>
      </trkpt>
      <trkpt lat="42.403521000" lon="-2.485840000">
        <ele>491.80</ele>
        <time>2017-02-11T10:04:52Z</time>
      </trkpt>
      <trkpt lat="42.403503000" lon="-2.485781000">
        <ele>491.80</ele>
        <time>2017-02-11T10:04:53Z</time>
      </trkpt>
      <trkpt lat="42.403479000" lon="-2.485721000">
        <ele>491.60</ele>
        <time>2017-02-11T10:04:54Z</time>
      </trkpt>
      <trkpt lat="42.403457000" lon="-2.485659000">
        <ele>491.50</ele>
        <time>2017-02-11T10:04:55Z</time>
      </trkpt>
      <trkpt lat="42.403434000" lon="-2.485595000">
        <ele>491.40</ele>
        <time>2017-02-11T10:04:56Z</time>
      </trkpt>
      <trkpt lat="42.403416000" lon="-2.485531000">
        <ele>491.30</ele>
        <time>2017-02-11T10:04:57Z</time>
      </trkpt>
      <trkpt lat="42.403400000" lon="-2.485461000">
        <ele>491.10</ele>
        <time>2017-02-11T10:04:58Z</time>
      </trkpt>
      <trkpt lat="42.403388000" lon="-2.485391000">
        <ele>490.90</ele>
        <time>2017-02-11T10:04:59Z</time>
      </trkpt>
      <trkpt lat="42.403378000" lon="-2.485321000">
        <ele>490.70</ele>
        <time>2017-02-11T10:05:00Z</time>
      </trkpt>
      <trkpt lat="42.403368000" lon="-2.485255000">
        <ele>490.70</ele>
        <time>2017-02-11T10:05:01Z</time>
      </trkpt>
      <trkpt lat="42.403363000" lon="-2.485187000">
        <ele>490.70</ele>
        <time>2017-02-11T10:05:02Z</time>
      </trkpt>
      <trkpt lat="42.403356000" lon="-2.485120000">
        <ele>490.50</ele>
        <time>2017-02-11T10:05:03Z</time>
      </trkpt>
      <trkpt lat="42.403348000" lon="-2.485055000">
        <ele>490.40</ele>
        <time>2017-02-11T10:05:04Z</time>
      </trkpt>
      <trkpt lat="42.403340000" lon="-2.484991000">
        <ele>490.30</ele>
        <time>2017-02-11T10:05:05Z</time>
      </trkpt>
      <trkpt lat="42.403332000" lon="-2.484931000">
        <ele>490.20</ele>
        <time>2017-02-11T10:05:06Z</time>
      </trkpt>
      <trkpt lat="42.403324000" lon="-2.484869000">
        <ele>490.00</ele>
        <time>2017-02-11T10:05:07Z</time>
      </trkpt>
      <trkpt lat="42.403320000" lon="-2.484807000">
        <ele>489.90</ele>
        <time>2017-02-11T10:05:08Z</time>
      </trkpt>
      <trkpt lat="42.403312000" lon="-2.484742000">
        <ele>489.70</ele>
        <time>2017-02-11T10:05:09Z</time>
      </trkpt>
      <trkpt lat="42.403306000" lon="-2.484674000">
        <ele>489.60</ele>
        <time>2017-02-11T10:05:10Z</time>
      </trkpt>
      <trkpt lat="42.403298000" lon="-2.484604000">
        <ele>489.40</ele>
        <time>2017-02-11T10:05:11Z</time>
      </trkpt>
      <trkpt lat="42.403289000" lon="-2.484536000">
        <ele>489.30</ele>
        <time>2017-02-11T10:05:12Z</time>
      </trkpt>
      <trkpt lat="42.403280000" lon="-2.484467000">
        <ele>489.00</ele>
        <time>2017-02-11T10:05:13Z</time>
      </trkpt>
      <trkpt lat="42.403274000" lon="-2.484399000">
        <ele>488.90</ele>
        <time>2017-02-11T10:05:14Z</time>
      </trkpt>
      <trkpt lat="42.403270000" lon="-2.484332000">
        <ele>488.80</ele>
        <time>2017-02-11T10:05:15Z</time>
      </trkpt>
      <trkpt lat="42.403263000" lon="-2.484268000">
        <ele>488.70</ele>
        <time>2017-02-11T10:05:16Z</time>
      </trkpt>
      <trkpt lat="42.403257000" lon="-2.484205000">
        <ele>488.60</ele>
        <time>2017-02-11T10:05:17Z</time>
      </trkpt>
      <trkpt lat="42.403249000" lon="-2.484141000">
        <ele>488.60</ele>
        <time>2017-02-11T10:05:18Z</time>
      </trkpt>
      <trkpt lat="42.403241000" lon="-2.484078000">
        <ele>488.50</ele>
        <time>2017-02-11T10:05:19Z</time>
      </trkpt>
      <trkpt lat="42.403233000" lon="-2.484014000">
        <ele>488.50</ele>
        <time>2017-02-11T10:05:20Z</time>
      </trkpt>
      <trkpt lat="42.403224000" lon="-2.483948000">
        <ele>488.40</ele>
        <time>2017-02-11T10:05:21Z</time>
      </trkpt>
      <trkpt lat="42.403216000" lon="-2.483885000">
        <ele>488.30</ele>
        <time>2017-02-11T10:05:22Z</time>
      </trkpt>
      <trkpt lat="42.403207000" lon="-2.483823000">
        <ele>488.10</ele>
        <time>2017-02-11T10:05:23Z</time>
      </trkpt>
      <trkpt lat="42.403199000" lon="-2.483756000">
        <ele>487.90</ele>
        <time>2017-02-11T10:05:24Z</time>
      </trkpt>
      <trkpt lat="42.403189000" lon="-2.483695000">
        <ele>487.90</ele>
        <time>2017-02-11T10:05:25Z</time>
      </trkpt>
      <trkpt lat="42.403180000" lon="-2.483633000">
        <ele>487.90</ele>
        <time>2017-02-11T10:05:26Z</time>
      </trkpt>
      <trkpt lat="42.403172000" lon="-2.483570000">
        <ele>487.80</ele>
        <time>2017-02-11T10:05:27Z</time>
      </trkpt>
      <trkpt lat="42.403164000" lon="-2.483504000">
        <ele>487.70</ele>
        <time>2017-02-11T10:05:28Z</time>
      </trkpt>
      <trkpt lat="42.403156000" lon="-2.483438000">
        <ele>487.60</ele>
        <time>2017-02-11T10:05:29Z</time>
      </trkpt>
      <trkpt lat="42.403141000" lon="-2.483302000">
        <ele>487.40</ele>
        <time>2017-02-11T10:05:31Z</time>
      </trkpt>
      <trkpt lat="42.403134000" lon="-2.483235000">
        <ele>487.30</ele>
        <time>2017-02-11T10:05:32Z</time>
      </trkpt>
      <trkpt lat="42.403126000" lon="-2.483167000">
        <ele>487.20</ele>
        <time>2017-02-11T10:05:33Z</time>
      </trkpt>
      <trkpt lat="42.403118000" lon="-2.483099000">
        <ele>487.10</ele>
        <time>2017-02-11T10:05:34Z</time>
      </trkpt>
      <trkpt lat="42.403110000" lon="-2.483031000">
        <ele>486.80</ele>
        <time>2017-02-11T10:05:35Z</time>
      </trkpt>
      <trkpt lat="42.403103000" lon="-2.482963000">
        <ele>486.60</ele>
        <time>2017-02-11T10:05:36Z</time>
      </trkpt>
      <trkpt lat="42.403094000" lon="-2.482896000">
        <ele>486.40</ele>
        <time>2017-02-11T10:05:37Z</time>
      </trkpt>
      <trkpt lat="42.403084000" lon="-2.482828000">
        <ele>486.20</ele>
        <time>2017-02-11T10:05:38Z</time>
      </trkpt>
      <trkpt lat="42.403073000" lon="-2.482762000">
        <ele>486.40</ele>
        <time>2017-02-11T10:05:39Z</time>
      </trkpt>
      <trkpt lat="42.403064000" lon="-2.482696000">
        <ele>486.50</ele>
        <time>2017-02-11T10:05:40Z</time>
      </trkpt>
      <trkpt lat="42.403054000" lon="-2.482631000">
        <ele>486.60</ele>
        <time>2017-02-11T10:05:41Z</time>
      </trkpt>
      <trkpt lat="42.403044000" lon="-2.482568000">
        <ele>486.70</ele>
        <time>2017-02-11T10:05:42Z</time>
      </trkpt>
      <trkpt lat="42.403032000" lon="-2.482506000">
        <ele>486.50</ele>
        <time>2017-02-11T10:05:43Z</time>
      </trkpt>
      <trkpt lat="42.403020000" lon="-2.482445000">
        <ele>486.40</ele>
        <time>2017-02-11T10:05:44Z</time>
      </trkpt>
      <trkpt lat="42.403007000" lon="-2.482384000">
        <ele>486.20</ele>
        <time>2017-02-11T10:05:45Z</time>
      </trkpt>
      <trkpt lat="42.402995000" lon="-2.482323000">
        <ele>486.10</ele>
        <time>2017-02-11T10:05:46Z</time>
      </trkpt>
      <trkpt lat="42.402984000" lon="-2.482259000">
        <ele>485.90</ele>
        <time>2017-02-11T10:05:47Z</time>
      </trkpt>
      <trkpt lat="42.402973000" lon="-2.482195000">
        <ele>485.90</ele>
        <time>2017-02-11T10:05:48Z</time>
      </trkpt>
      <trkpt lat="42.402961000" lon="-2.482130000">
        <ele>485.60</ele>
        <time>2017-02-11T10:05:49Z</time>
      </trkpt>
      <trkpt lat="42.402950000" lon="-2.482065000">
        <ele>485.40</ele>
        <time>2017-02-11T10:05:50Z</time>
      </trkpt>
      <trkpt lat="42.402936000" lon="-2.482000000">
        <ele>485.30</ele>
        <time>2017-02-11T10:05:51Z</time>
      </trkpt>
      <trkpt lat="42.402924000" lon="-2.481935000">
        <ele>485.20</ele>
        <time>2017-02-11T10:05:52Z</time>
      </trkpt>
      <trkpt lat="42.402911000" lon="-2.481871000">
        <ele>485.10</ele>
        <time>2017-02-11T10:05:53Z</time>
      </trkpt>
      <trkpt lat="42.402895000" lon="-2.481809000">
        <ele>484.90</ele>
        <time>2017-02-11T10:05:54Z</time>
      </trkpt>
      <trkpt lat="42.402884000" lon="-2.481744000">
        <ele>484.70</ele>
        <time>2017-02-11T10:05:55Z</time>
      </trkpt>
      <trkpt lat="42.402871000" lon="-2.481682000">
        <ele>484.60</ele>
        <time>2017-02-11T10:05:56Z</time>
      </trkpt>
      <trkpt lat="42.402859000" lon="-2.481618000">
        <ele>484.50</ele>
        <time>2017-02-11T10:05:57Z</time>
      </trkpt>
      <trkpt lat="42.402848000" lon="-2.481552000">
        <ele>484.50</ele>
        <time>2017-02-11T10:05:58Z</time>
      </trkpt>
      <trkpt lat="42.402839000" lon="-2.481484000">
        <ele>484.50</ele>
        <time>2017-02-11T10:05:59Z</time>
      </trkpt>
      <trkpt lat="42.402829000" lon="-2.481418000">
        <ele>484.40</ele>
        <time>2017-02-11T10:06:00Z</time>
      </trkpt>
      <trkpt lat="42.402820000" lon="-2.481352000">
        <ele>484.40</ele>
        <time>2017-02-11T10:06:01Z</time>
      </trkpt>
      <trkpt lat="42.402810000" lon="-2.481285000">
        <ele>484.40</ele>
        <time>2017-02-11T10:06:02Z</time>
      </trkpt>
      <trkpt lat="42.402800000" lon="-2.481220000">
        <ele>484.30</ele>
        <time>2017-02-11T10:06:03Z</time>
      </trkpt>
      <trkpt lat="42.402789000" lon="-2.481160000">
        <ele>484.30</ele>
        <time>2017-02-11T10:06:04Z</time>
      </trkpt>
      <trkpt lat="42.402778000" lon="-2.481100000">
        <ele>484.10</ele>
        <time>2017-02-11T10:06:05Z</time>
      </trkpt>
      <trkpt lat="42.402768000" lon="-2.481038000">
        <ele>484.00</ele>
        <time>2017-02-11T10:06:06Z</time>
      </trkpt>
      <trkpt lat="42.402759000" lon="-2.480978000">
        <ele>483.90</ele>
        <time>2017-02-11T10:06:07Z</time>
      </trkpt>
      <trkpt lat="42.402749000" lon="-2.480916000">
        <ele>483.70</ele>
        <time>2017-02-11T10:06:08Z</time>
      </trkpt>
      <trkpt lat="42.402742000" lon="-2.480852000">
        <ele>483.70</ele>
        <time>2017-02-11T10:06:09Z</time>
      </trkpt>
      <trkpt lat="42.402732000" lon="-2.480788000">
        <ele>483.60</ele>
        <time>2017-02-11T10:06:10Z</time>
      </trkpt>
      <trkpt lat="42.402718000" lon="-2.480723000">
        <ele>483.50</ele>
        <time>2017-02-11T10:06:11Z</time>
      </trkpt>
      <trkpt lat="42.402705000" lon="-2.480656000">
        <ele>483.40</ele>
        <time>2017-02-11T10:06:12Z</time>
      </trkpt>
      <trkpt lat="42.402695000" lon="-2.480589000">
        <ele>483.30</ele>
        <time>2017-02-11T10:06:13Z</time>
      </trkpt>
      <trkpt lat="42.402682000" lon="-2.480520000">
        <ele>483.30</ele>
        <time>2017-02-11T10:06:14Z</time>
      </trkpt>
      <trkpt lat="42.402665000" lon="-2.480453000">
        <ele>483.30</ele>
        <time>2017-02-11T10:06:15Z</time>
      </trkpt>
      <trkpt lat="42.402647000" lon="-2.480387000">
        <ele>483.20</ele>
        <time>2017-02-11T10:06:16Z</time>
      </trkpt>
      <trkpt lat="42.402633000" lon="-2.480324000">
        <ele>483.20</ele>
        <time>2017-02-11T10:06:17Z</time>
      </trkpt>
      <trkpt lat="42.402622000" lon="-2.480263000">
        <ele>483.20</ele>
        <time>2017-02-11T10:06:18Z</time>
      </trkpt>
      <trkpt lat="42.402604000" lon="-2.480202000">
        <ele>482.70</ele>
        <time>2017-02-11T10:06:19Z</time>
      </trkpt>
      <trkpt lat="42.402588000" lon="-2.480138000">
        <ele>482.40</ele>
        <time>2017-02-11T10:06:20Z</time>
      </trkpt>
      <trkpt lat="42.402572000" lon="-2.480070000">
        <ele>482.10</ele>
        <time>2017-02-11T10:06:21Z</time>
      </trkpt>
      <trkpt lat="42.402557000" lon="-2.480004000">
        <ele>481.80</ele>
        <time>2017-02-11T10:06:22Z</time>
      </trkpt>
      <trkpt lat="42.402543000" lon="-2.479936000">
        <ele>481.70</ele>
        <time>2017-02-11T10:06:23Z</time>
      </trkpt>
      <trkpt lat="42.402528000" lon="-2.479871000">
        <ele>481.50</ele>
        <time>2017-02-11T10:06:24Z</time>
      </trkpt>
      <trkpt lat="42.402513000" lon="-2.479810000">
        <ele>481.40</ele>
        <time>2017-02-11T10:06:25Z</time>
      </trkpt>
      <trkpt lat="42.402501000" lon="-2.479747000">
        <ele>481.40</ele>
        <time>2017-02-11T10:06:26Z</time>
      </trkpt>
      <trkpt lat="42.402488000" lon="-2.479683000">
        <ele>481.40</ele>
        <time>2017-02-11T10:06:27Z</time>
      </trkpt>
      <trkpt lat="42.402478000" lon="-2.479620000">
        <ele>481.50</ele>
        <time>2017-02-11T10:06:28Z</time>
      </trkpt>
      <trkpt lat="42.402467000" lon="-2.479557000">
        <ele>481.20</ele>
        <time>2017-02-11T10:06:29Z</time>
      </trkpt>
      <trkpt lat="42.402456000" lon="-2.479493000">
        <ele>481.00</ele>
        <time>2017-02-11T10:06:30Z</time>
      </trkpt>
      <trkpt lat="42.402435000" lon="-2.479359000">
        <ele>480.80</ele>
        <time>2017-02-11T10:06:32Z</time>
      </trkpt>
      <trkpt lat="42.402426000" lon="-2.479295000">
        <ele>480.60</ele>
        <time>2017-02-11T10:06:33Z</time>
      </trkpt>
      <trkpt lat="42.402418000" lon="-2.479232000">
        <ele>480.40</ele>
        <time>2017-02-11T10:06:34Z</time>
      </trkpt>
      <trkpt lat="42.402416000" lon="-2.479171000">
        <ele>480.30</ele>
        <time>2017-02-11T10:06:35Z</time>
      </trkpt>
      <trkpt lat="42.402412000" lon="-2.479107000">
        <ele>480.10</ele>
        <time>2017-02-11T10:06:36Z</time>
      </trkpt>
      <trkpt lat="42.402406000" lon="-2.479041000">
        <ele>480.10</ele>
        <time>2017-02-11T10:06:37Z</time>
      </trkpt>
      <trkpt lat="42.402398000" lon="-2.478973000">
        <ele>480.00</ele>
        <time>2017-02-11T10:06:38Z</time>
      </trkpt>
      <trkpt lat="42.402389000" lon="-2.478903000">
        <ele>480.10</ele>
        <time>2017-02-11T10:06:39Z</time>
      </trkpt>
      <trkpt lat="42.402377000" lon="-2.478831000">
        <ele>480.20</ele>
        <time>2017-02-11T10:06:40Z</time>
      </trkpt>
      <trkpt lat="42.402365000" lon="-2.478756000">
        <ele>480.20</ele>
        <time>2017-02-11T10:06:41Z</time>
      </trkpt>
      <trkpt lat="42.402351000" lon="-2.478683000">
        <ele>480.20</ele>
        <time>2017-02-11T10:06:42Z</time>
      </trkpt>
      <trkpt lat="42.402334000" lon="-2.478612000">
        <ele>480.30</ele>
        <time>2017-02-11T10:06:43Z</time>
      </trkpt>
      <trkpt lat="42.402318000" lon="-2.478540000">
        <ele>480.30</ele>
        <time>2017-02-11T10:06:44Z</time>
      </trkpt>
      <trkpt lat="42.402299000" lon="-2.478471000">
        <ele>480.10</ele>
        <time>2017-02-11T10:06:45Z</time>
      </trkpt>
      <trkpt lat="42.402280000" lon="-2.478405000">
        <ele>480.00</ele>
        <time>2017-02-11T10:06:46Z</time>
      </trkpt>
      <trkpt lat="42.402264000" lon="-2.478336000">
        <ele>479.70</ele>
        <time>2017-02-11T10:06:47Z</time>
      </trkpt>
      <trkpt lat="42.402245000" lon="-2.478268000">
        <ele>479.50</ele>
        <time>2017-02-11T10:06:48Z</time>
      </trkpt>
      <trkpt lat="42.402229000" lon="-2.478200000">
        <ele>479.10</ele>
        <time>2017-02-11T10:06:49Z</time>
      </trkpt>
      <trkpt lat="42.402216000" lon="-2.478134000">
        <ele>478.90</ele>
        <time>2017-02-11T10:06:50Z</time>
      </trkpt>
      <trkpt lat="42.402202000" lon="-2.478069000">
        <ele>478.70</ele>
        <time>2017-02-11T10:06:51Z</time>
      </trkpt>
      <trkpt lat="42.402186000" lon="-2.478002000">
        <ele>478.50</ele>
        <time>2017-02-11T10:06:52Z</time>
      </trkpt>
      <trkpt lat="42.402173000" lon="-2.477936000">
        <ele>478.30</ele>
        <time>2017-02-11T10:06:53Z</time>
      </trkpt>
      <trkpt lat="42.402158000" lon="-2.477874000">
        <ele>478.20</ele>
        <time>2017-02-11T10:06:54Z</time>
      </trkpt>
      <trkpt lat="42.402142000" lon="-2.477810000">
        <ele>478.10</ele>
        <time>2017-02-11T10:06:55Z</time>
      </trkpt>
      <trkpt lat="42.402125000" lon="-2.477746000">
        <ele>478.10</ele>
        <time>2017-02-11T10:06:56Z</time>
      </trkpt>
      <trkpt lat="42.402107000" lon="-2.477682000">
        <ele>478.00</ele>
        <time>2017-02-11T10:06:57Z</time>
      </trkpt>
      <trkpt lat="42.402087000" lon="-2.477619000">
        <ele>478.00</ele>
        <time>2017-02-11T10:06:58Z</time>
      </trkpt>
      <trkpt lat="42.402069000" lon="-2.477556000">
        <ele>478.00</ele>
        <time>2017-02-11T10:06:59Z</time>
      </trkpt>
      <trkpt lat="42.402055000" lon="-2.477496000">
        <ele>478.00</ele>
        <time>2017-02-11T10:07:00Z</time>
      </trkpt>
      <trkpt lat="42.402041000" lon="-2.477433000">
        <ele>477.80</ele>
        <time>2017-02-11T10:07:01Z</time>
      </trkpt>
      <trkpt lat="42.402027000" lon="-2.477378000">
        <ele>477.60</ele>
        <time>2017-02-11T10:07:02Z</time>
      </trkpt>
      <trkpt lat="42.402017000" lon="-2.477332000">
        <ele>477.40</ele>
        <time>2017-02-11T10:07:03Z</time>
      </trkpt>
      <trkpt lat="42.402012000" lon="-2.477289000">
        <ele>477.30</ele>
        <time>2017-02-11T10:07:04Z</time>
      </trkpt>
      <trkpt lat="42.402017000" lon="-2.477240000">
        <ele>477.10</ele>
        <time>2017-02-11T10:07:05Z</time>
      </trkpt>
      <trkpt lat="42.402024000" lon="-2.477188000">
        <ele>477.00</ele>
        <time>2017-02-11T10:07:06Z</time>
      </trkpt>
      <trkpt lat="42.402034000" lon="-2.477132000">
        <ele>476.90</ele>
        <time>2017-02-11T10:07:07Z</time>
      </trkpt>
      <trkpt lat="42.402042000" lon="-2.477075000">
        <ele>476.80</ele>
        <time>2017-02-11T10:07:08Z</time>
      </trkpt>
      <trkpt lat="42.402053000" lon="-2.477016000">
        <ele>476.80</ele>
        <time>2017-02-11T10:07:09Z</time>
      </trkpt>
      <trkpt lat="42.402064000" lon="-2.476957000">
        <ele>476.80</ele>
        <time>2017-02-11T10:07:10Z</time>
      </trkpt>
      <trkpt lat="42.402078000" lon="-2.476900000">
        <ele>476.90</ele>
        <time>2017-02-11T10:07:11Z</time>
      </trkpt>
      <trkpt lat="42.402091000" lon="-2.476844000">
        <ele>477.00</ele>
        <time>2017-02-11T10:07:12Z</time>
      </trkpt>
      <trkpt lat="42.402106000" lon="-2.476791000">
        <ele>477.00</ele>
        <time>2017-02-11T10:07:13Z</time>
      </trkpt>
      <trkpt lat="42.402121000" lon="-2.476734000">
        <ele>477.00</ele>
        <time>2017-02-11T10:07:14Z</time>
      </trkpt>
      <trkpt lat="42.402136000" lon="-2.476679000">
        <ele>477.10</ele>
        <time>2017-02-11T10:07:15Z</time>
      </trkpt>
      <trkpt lat="42.402153000" lon="-2.476626000">
        <ele>477.10</ele>
        <time>2017-02-11T10:07:16Z</time>
      </trkpt>
      <trkpt lat="42.402172000" lon="-2.476574000">
        <ele>477.10</ele>
        <time>2017-02-11T10:07:17Z</time>
      </trkpt>
      <trkpt lat="42.402190000" lon="-2.476523000">
        <ele>477.10</ele>
        <time>2017-02-11T10:07:18Z</time>
      </trkpt>
      <trkpt lat="42.402207000" lon="-2.476471000">
        <ele>477.10</ele>
        <time>2017-02-11T10:07:19Z</time>
      </trkpt>
      <trkpt lat="42.402225000" lon="-2.476422000">
        <ele>477.10</ele>
        <time>2017-02-11T10:07:20Z</time>
      </trkpt>
      <trkpt lat="42.402244000" lon="-2.476376000">
        <ele>477.10</ele>
        <time>2017-02-11T10:07:21Z</time>
      </trkpt>
      <trkpt lat="42.402266000" lon="-2.476331000">
        <ele>477.00</ele>
        <time>2017-02-11T10:07:22Z</time>
      </trkpt>
      <trkpt lat="42.402285000" lon="-2.476284000">
        <ele>477.00</ele>
        <time>2017-02-11T10:07:23Z</time>
      </trkpt>
      <trkpt lat="42.402305000" lon="-2.476240000">
        <ele>477.10</ele>
        <time>2017-02-11T10:07:24Z</time>
      </trkpt>
      <trkpt lat="42.402324000" lon="-2.476196000">
        <ele>477.20</ele>
        <time>2017-02-11T10:07:25Z</time>
      </trkpt>
      <trkpt lat="42.402342000" lon="-2.476150000">
        <ele>477.30</ele>
        <time>2017-02-11T10:07:26Z</time>
      </trkpt>
      <trkpt lat="42.402360000" lon="-2.476105000">
        <ele>477.40</ele>
        <time>2017-02-11T10:07:27Z</time>
      </trkpt>
      <trkpt lat="42.402381000" lon="-2.476058000">
        <ele>477.50</ele>
        <time>2017-02-11T10:07:28Z</time>
      </trkpt>
      <trkpt lat="42.402403000" lon="-2.476012000">
        <ele>477.50</ele>
        <time>2017-02-11T10:07:29Z</time>
      </trkpt>
      <trkpt lat="42.402424000" lon="-2.475965000">
        <ele>477.50</ele>
        <time>2017-02-11T10:07:30Z</time>
      </trkpt>
      <trkpt lat="42.402448000" lon="-2.475917000">
        <ele>477.60</ele>
        <time>2017-02-11T10:07:31Z</time>
      </trkpt>
      <trkpt lat="42.402505000" lon="-2.475826000">
        <ele>477.50</ele>
        <time>2017-02-11T10:07:33Z</time>
      </trkpt>
      <trkpt lat="42.402538000" lon="-2.475780000">
        <ele>477.50</ele>
        <time>2017-02-11T10:07:34Z</time>
      </trkpt>
      <trkpt lat="42.402571000" lon="-2.475734000">
        <ele>477.40</ele>
        <time>2017-02-11T10:07:35Z</time>
      </trkpt>
      <trkpt lat="42.402605000" lon="-2.475686000">
        <ele>477.30</ele>
        <time>2017-02-11T10:07:36Z</time>
      </trkpt>
      <trkpt lat="42.402639000" lon="-2.475639000">
        <ele>477.30</ele>
        <time>2017-02-11T10:07:37Z</time>
      </trkpt>
      <trkpt lat="42.402672000" lon="-2.475592000">
        <ele>477.30</ele>
        <time>2017-02-11T10:07:38Z</time>
      </trkpt>
      <trkpt lat="42.402708000" lon="-2.475549000">
        <ele>477.20</ele>
        <time>2017-02-11T10:07:39Z</time>
      </trkpt>
      <trkpt lat="42.402746000" lon="-2.475504000">
        <ele>477.20</ele>
        <time>2017-02-11T10:07:40Z</time>
      </trkpt>
      <trkpt lat="42.402786000" lon="-2.475460000">
        <ele>477.10</ele>
        <time>2017-02-11T10:07:41Z</time>
      </trkpt>
      <trkpt lat="42.402827000" lon="-2.475414000">
        <ele>476.90</ele>
        <time>2017-02-11T10:07:42Z</time>
      </trkpt>
      <trkpt lat="42.402865000" lon="-2.475362000">
        <ele>476.70</ele>
        <time>2017-02-11T10:07:43Z</time>
      </trkpt>
      <trkpt lat="42.402902000" lon="-2.475309000">
        <ele>476.50</ele>
        <time>2017-02-11T10:07:44Z</time>
      </trkpt>
      <trkpt lat="42.402941000" lon="-2.475259000">
        <ele>476.20</ele>
        <time>2017-02-11T10:07:45Z</time>
      </trkpt>
      <trkpt lat="42.402976000" lon="-2.475205000">
        <ele>476.10</ele>
        <time>2017-02-11T10:07:46Z</time>
      </trkpt>
      <trkpt lat="42.403012000" lon="-2.475151000">
        <ele>475.90</ele>
        <time>2017-02-11T10:07:47Z</time>
      </trkpt>
      <trkpt lat="42.403048000" lon="-2.475100000">
        <ele>475.80</ele>
        <time>2017-02-11T10:07:48Z</time>
      </trkpt>
      <trkpt lat="42.403082000" lon="-2.475045000">
        <ele>475.80</ele>
        <time>2017-02-11T10:07:49Z</time>
      </trkpt>
      <trkpt lat="42.403121000" lon="-2.474995000">
        <ele>475.70</ele>
        <time>2017-02-11T10:07:50Z</time>
      </trkpt>
      <trkpt lat="42.403160000" lon="-2.474943000">
        <ele>475.60</ele>
        <time>2017-02-11T10:07:51Z</time>
      </trkpt>
      <trkpt lat="42.403198000" lon="-2.474890000">
        <ele>475.60</ele>
        <time>2017-02-11T10:07:52Z</time>
      </trkpt>
      <trkpt lat="42.403238000" lon="-2.474840000">
        <ele>475.30</ele>
        <time>2017-02-11T10:07:53Z</time>
      </trkpt>
      <trkpt lat="42.403276000" lon="-2.474788000">
        <ele>475.20</ele>
        <time>2017-02-11T10:07:54Z</time>
      </trkpt>
      <trkpt lat="42.403313000" lon="-2.474736000">
        <ele>475.00</ele>
        <time>2017-02-11T10:07:55Z</time>
      </trkpt>
      <trkpt lat="42.403348000" lon="-2.474682000">
        <ele>474.90</ele>
        <time>2017-02-11T10:07:56Z</time>
      </trkpt>
      <trkpt lat="42.403385000" lon="-2.474627000">
        <ele>474.60</ele>
        <time>2017-02-11T10:07:57Z</time>
      </trkpt>
      <trkpt lat="42.403422000" lon="-2.474573000">
        <ele>474.30</ele>
        <time>2017-02-11T10:07:58Z</time>
      </trkpt>
      <trkpt lat="42.403457000" lon="-2.474519000">
        <ele>474.10</ele>
        <time>2017-02-11T10:07:59Z</time>
      </trkpt>
      <trkpt lat="42.403492000" lon="-2.474465000">
        <ele>474.00</ele>
        <time>2017-02-11T10:08:00Z</time>
      </trkpt>
      <trkpt lat="42.403527000" lon="-2.474413000">
        <ele>473.90</ele>
        <time>2017-02-11T10:08:01Z</time>
      </trkpt>
      <trkpt lat="42.403561000" lon="-2.474357000">
        <ele>473.80</ele>
        <time>2017-02-11T10:08:02Z</time>
      </trkpt>
      <trkpt lat="42.403595000" lon="-2.474304000">
        <ele>473.70</ele>
        <time>2017-02-11T10:08:03Z</time>
      </trkpt>
      <trkpt lat="42.403632000" lon="-2.474253000">
        <ele>473.60</ele>
        <time>2017-02-11T10:08:04Z</time>
      </trkpt>
      <trkpt lat="42.403669000" lon="-2.474198000">
        <ele>473.40</ele>
        <time>2017-02-11T10:08:05Z</time>
      </trkpt>
      <trkpt lat="42.403705000" lon="-2.474143000">
        <ele>473.20</ele>
        <time>2017-02-11T10:08:06Z</time>
      </trkpt>
      <trkpt lat="42.403745000" lon="-2.474088000">
        <ele>473.00</ele>
        <time>2017-02-11T10:08:07Z</time>
      </trkpt>
      <trkpt lat="42.403784000" lon="-2.474032000">
        <ele>472.80</ele>
        <time>2017-02-11T10:08:08Z</time>
      </trkpt>
      <trkpt lat="42.403823000" lon="-2.473976000">
        <ele>472.70</ele>
        <time>2017-02-11T10:08:09Z</time>
      </trkpt>
      <trkpt lat="42.403858000" lon="-2.473922000">
        <ele>472.60</ele>
        <time>2017-02-11T10:08:10Z</time>
      </trkpt>
      <trkpt lat="42.403898000" lon="-2.473871000">
        <ele>472.60</ele>
        <time>2017-02-11T10:08:11Z</time>
      </trkpt>
      <trkpt lat="42.403937000" lon="-2.473821000">
        <ele>472.50</ele>
        <time>2017-02-11T10:08:12Z</time>
      </trkpt>
      <trkpt lat="42.403976000" lon="-2.473774000">
        <ele>472.60</ele>
        <time>2017-02-11T10:08:13Z</time>
      </trkpt>
      <trkpt lat="42.404012000" lon="-2.473723000">
        <ele>472.70</ele>
        <time>2017-02-11T10:08:14Z</time>
      </trkpt>
      <trkpt lat="42.404048000" lon="-2.473674000">
        <ele>472.80</ele>
        <time>2017-02-11T10:08:15Z</time>
      </trkpt>
      <trkpt lat="42.404086000" lon="-2.473626000">
        <ele>472.80</ele>
        <time>2017-02-11T10:08:16Z</time>
      </trkpt>
      <trkpt lat="42.404124000" lon="-2.473581000">
        <ele>472.90</ele>
        <time>2017-02-11T10:08:17Z</time>
      </trkpt>
      <trkpt lat="42.404157000" lon="-2.473534000">
        <ele>472.90</ele>
        <time>2017-02-11T10:08:18Z</time>
      </trkpt>
      <trkpt lat="42.404193000" lon="-2.473486000">
        <ele>472.80</ele>
        <time>2017-02-11T10:08:19Z</time>
      </trkpt>
      <trkpt lat="42.404227000" lon="-2.473441000">
        <ele>472.70</ele>
        <time>2017-02-11T10:08:20Z</time>
      </trkpt>
      <trkpt lat="42.404262000" lon="-2.473394000">
        <ele>472.60</ele>
        <time>2017-02-11T10:08:21Z</time>
      </trkpt>
      <trkpt lat="42.404296000" lon="-2.473344000">
        <ele>472.50</ele>
        <time>2017-02-11T10:08:22Z</time>
      </trkpt>
      <trkpt lat="42.404328000" lon="-2.473295000">
        <ele>472.70</ele>
        <time>2017-02-11T10:08:23Z</time>
      </trkpt>
      <trkpt lat="42.404359000" lon="-2.473248000">
        <ele>472.90</ele>
        <time>2017-02-11T10:08:24Z</time>
      </trkpt>
      <trkpt lat="42.404390000" lon="-2.473198000">
        <ele>473.00</ele>
        <time>2017-02-11T10:08:25Z</time>
      </trkpt>
      <trkpt lat="42.404419000" lon="-2.473148000">
        <ele>473.10</ele>
        <time>2017-02-11T10:08:26Z</time>
      </trkpt>
      <trkpt lat="42.404446000" lon="-2.473091000">
        <ele>472.90</ele>
        <time>2017-02-11T10:08:27Z</time>
      </trkpt>
      <trkpt lat="42.404476000" lon="-2.473037000">
        <ele>472.70</ele>
        <time>2017-02-11T10:08:28Z</time>
      </trkpt>
      <trkpt lat="42.404506000" lon="-2.472984000">
        <ele>472.60</ele>
        <time>2017-02-11T10:08:29Z</time>
      </trkpt>
      <trkpt lat="42.404539000" lon="-2.472931000">
        <ele>472.60</ele>
        <time>2017-02-11T10:08:30Z</time>
      </trkpt>
      <trkpt lat="42.404569000" lon="-2.472877000">
        <ele>472.50</ele>
        <time>2017-02-11T10:08:31Z</time>
      </trkpt>
      <trkpt lat="42.404599000" lon="-2.472827000">
        <ele>472.50</ele>
        <time>2017-02-11T10:08:32Z</time>
      </trkpt>
      <trkpt lat="42.404663000" lon="-2.472727000">
        <ele>472.30</ele>
        <time>2017-02-11T10:08:34Z</time>
      </trkpt>
      <trkpt lat="42.404696000" lon="-2.472676000">
        <ele>472.20</ele>
        <time>2017-02-11T10:08:35Z</time>
      </trkpt>
      <trkpt lat="42.404727000" lon="-2.472629000">
        <ele>472.20</ele>
        <time>2017-02-11T10:08:36Z</time>
      </trkpt>
      <trkpt lat="42.404757000" lon="-2.472580000">
        <ele>472.20</ele>
        <time>2017-02-11T10:08:37Z</time>
      </trkpt>
      <trkpt lat="42.404788000" lon="-2.472533000">
        <ele>472.10</ele>
        <time>2017-02-11T10:08:38Z</time>
      </trkpt>
      <trkpt lat="42.404819000" lon="-2.472483000">
        <ele>472.20</ele>
        <time>2017-02-11T10:08:39Z</time>
      </trkpt>
      <trkpt lat="42.404851000" lon="-2.472434000">
        <ele>472.20</ele>
        <time>2017-02-11T10:08:40Z</time>
      </trkpt>
      <trkpt lat="42.404883000" lon="-2.472386000">
        <ele>472.30</ele>
        <time>2017-02-11T10:08:41Z</time>
      </trkpt>
      <trkpt lat="42.404915000" lon="-2.472339000">
        <ele>472.30</ele>
        <time>2017-02-11T10:08:42Z</time>
      </trkpt>
      <trkpt lat="42.404950000" lon="-2.472287000">
        <ele>472.50</ele>
        <time>2017-02-11T10:08:43Z</time>
      </trkpt>
      <trkpt lat="42.404983000" lon="-2.472238000">
        <ele>472.70</ele>
        <time>2017-02-11T10:08:44Z</time>
      </trkpt>
      <trkpt lat="42.405016000" lon="-2.472186000">
        <ele>472.60</ele>
        <time>2017-02-11T10:08:45Z</time>
      </trkpt>
      <trkpt lat="42.405051000" lon="-2.472138000">
        <ele>472.50</ele>
        <time>2017-02-11T10:08:46Z</time>
      </trkpt>
      <trkpt lat="42.405083000" lon="-2.472090000">
        <ele>472.50</ele>
        <time>2017-02-11T10:08:47Z</time>
      </trkpt>
      <trkpt lat="42.405115000" lon="-2.472039000">
        <ele>472.40</ele>
        <time>2017-02-11T10:08:48Z</time>
      </trkpt>
      <trkpt lat="42.405148000" lon="-2.471991000">
        <ele>472.40</ele>
        <time>2017-02-11T10:08:49Z</time>
      </trkpt>
      <trkpt lat="42.405182000" lon="-2.471943000">
        <ele>472.40</ele>
        <time>2017-02-11T10:08:50Z</time>
      </trkpt>
      <trkpt lat="42.405215000" lon="-2.471899000">
        <ele>472.50</ele>
        <time>2017-02-11T10:08:51Z</time>
      </trkpt>
      <trkpt lat="42.405248000" lon="-2.471857000">
        <ele>472.60</ele>
        <time>2017-02-11T10:08:52Z</time>
      </trkpt>
      <trkpt lat="42.405277000" lon="-2.471812000">
        <ele>472.70</ele>
        <time>2017-02-11T10:08:53Z</time>
      </trkpt>
      <trkpt lat="42.405309000" lon="-2.471769000">
        <ele>472.80</ele>
        <time>2017-02-11T10:08:54Z</time>
      </trkpt>
      <trkpt lat="42.405340000" lon="-2.471727000">
        <ele>472.90</ele>
        <time>2017-02-11T10:08:55Z</time>
      </trkpt>
      <trkpt lat="42.405369000" lon="-2.471680000">
        <ele>473.00</ele>
        <time>2017-02-11T10:08:56Z</time>
      </trkpt>
      <trkpt lat="42.405397000" lon="-2.471631000">
        <ele>473.00</ele>
        <time>2017-02-11T10:08:57Z</time>
      </trkpt>
      <trkpt lat="42.405428000" lon="-2.471584000">
        <ele>473.00</ele>
        <time>2017-02-11T10:08:58Z</time>
      </trkpt>
      <trkpt lat="42.405456000" lon="-2.471538000">
        <ele>473.10</ele>
        <time>2017-02-11T10:08:59Z</time>
      </trkpt>
      <trkpt lat="42.405486000" lon="-2.471492000">
        <ele>473.10</ele>
        <time>2017-02-11T10:09:00Z</time>
      </trkpt>
      <trkpt lat="42.405517000" lon="-2.471446000">
        <ele>473.20</ele>
        <time>2017-02-11T10:09:01Z</time>
      </trkpt>
      <trkpt lat="42.405546000" lon="-2.471399000">
        <ele>473.30</ele>
        <time>2017-02-11T10:09:02Z</time>
      </trkpt>
      <trkpt lat="42.405576000" lon="-2.471353000">
        <ele>473.40</ele>
        <time>2017-02-11T10:09:03Z</time>
      </trkpt>
      <trkpt lat="42.405603000" lon="-2.471304000">
        <ele>473.40</ele>
        <time>2017-02-11T10:09:04Z</time>
      </trkpt>
      <trkpt lat="42.405632000" lon="-2.471258000">
        <ele>473.40</ele>
        <time>2017-02-11T10:09:05Z</time>
      </trkpt>
      <trkpt lat="42.405661000" lon="-2.471213000">
        <ele>473.50</ele>
        <time>2017-02-11T10:09:06Z</time>
      </trkpt>
      <trkpt lat="42.405692000" lon="-2.471167000">
        <ele>473.50</ele>
        <time>2017-02-11T10:09:07Z</time>
      </trkpt>
      <trkpt lat="42.405722000" lon="-2.471121000">
        <ele>473.50</ele>
        <time>2017-02-11T10:09:08Z</time>
      </trkpt>
      <trkpt lat="42.405753000" lon="-2.471078000">
        <ele>473.50</ele>
        <time>2017-02-11T10:09:09Z</time>
      </trkpt>
      <trkpt lat="42.405782000" lon="-2.471035000">
        <ele>473.50</ele>
        <time>2017-02-11T10:09:10Z</time>
      </trkpt>
      <trkpt lat="42.405812000" lon="-2.470996000">
        <ele>473.70</ele>
        <time>2017-02-11T10:09:11Z</time>
      </trkpt>
      <trkpt lat="42.405845000" lon="-2.470963000">
        <ele>473.80</ele>
        <time>2017-02-11T10:09:12Z</time>
      </trkpt>
      <trkpt lat="42.405878000" lon="-2.470927000">
        <ele>473.90</ele>
        <time>2017-02-11T10:09:13Z</time>
      </trkpt>
      <trkpt lat="42.405912000" lon="-2.470891000">
        <ele>473.90</ele>
        <time>2017-02-11T10:09:14Z</time>
      </trkpt>
      <trkpt lat="42.405943000" lon="-2.470853000">
        <ele>474.00</ele>
        <time>2017-02-11T10:09:15Z</time>
      </trkpt>
      <trkpt lat="42.405976000" lon="-2.470814000">
        <ele>474.00</ele>
        <time>2017-02-11T10:09:16Z</time>
      </trkpt>
      <trkpt lat="42.406011000" lon="-2.470775000">
        <ele>474.00</ele>
        <time>2017-02-11T10:09:17Z</time>
      </trkpt>
      <trkpt lat="42.406045000" lon="-2.470736000">
        <ele>474.00</ele>
        <time>2017-02-11T10:09:18Z</time>
      </trkpt>
      <trkpt lat="42.406081000" lon="-2.470698000">
        <ele>474.00</ele>
        <time>2017-02-11T10:09:19Z</time>
      </trkpt>
      <trkpt lat="42.406114000" lon="-2.470654000">
        <ele>474.10</ele>
        <time>2017-02-11T10:09:20Z</time>
      </trkpt>
      <trkpt lat="42.406147000" lon="-2.470606000">
        <ele>474.10</ele>
        <time>2017-02-11T10:09:21Z</time>
      </trkpt>
      <trkpt lat="42.406180000" lon="-2.470558000">
        <ele>474.20</ele>
        <time>2017-02-11T10:09:22Z</time>
      </trkpt>
      <trkpt lat="42.406210000" lon="-2.470504000">
        <ele>474.20</ele>
        <time>2017-02-11T10:09:23Z</time>
      </trkpt>
      <trkpt lat="42.406241000" lon="-2.470451000">
        <ele>474.30</ele>
        <time>2017-02-11T10:09:24Z</time>
      </trkpt>
      <trkpt lat="42.406271000" lon="-2.470398000">
        <ele>474.00</ele>
        <time>2017-02-11T10:09:25Z</time>
      </trkpt>
      <trkpt lat="42.406303000" lon="-2.470346000">
        <ele>473.90</ele>
        <time>2017-02-11T10:09:26Z</time>
      </trkpt>
      <trkpt lat="42.406335000" lon="-2.470295000">
        <ele>473.70</ele>
        <time>2017-02-11T10:09:27Z</time>
      </trkpt>
      <trkpt lat="42.406368000" lon="-2.470246000">
        <ele>473.50</ele>
        <time>2017-02-11T10:09:28Z</time>
      </trkpt>
      <trkpt lat="42.406402000" lon="-2.470195000">
        <ele>473.40</ele>
        <time>2017-02-11T10:09:29Z</time>
      </trkpt>
      <trkpt lat="42.406438000" lon="-2.470146000">
        <ele>473.40</ele>
        <time>2017-02-11T10:09:30Z</time>
      </trkpt>
      <trkpt lat="42.406476000" lon="-2.470099000">
        <ele>473.40</ele>
        <time>2017-02-11T10:09:31Z</time>
      </trkpt>
      <trkpt lat="42.406513000" lon="-2.470050000">
        <ele>473.40</ele>
        <time>2017-02-11T10:09:32Z</time>
      </trkpt>
      <trkpt lat="42.406551000" lon="-2.470004000">
        <ele>473.50</ele>
        <time>2017-02-11T10:09:33Z</time>
      </trkpt>
      <trkpt lat="42.406628000" lon="-2.469913000">
        <ele>473.50</ele>
        <time>2017-02-11T10:09:35Z</time>
      </trkpt>
      <trkpt lat="42.406665000" lon="-2.469865000">
        <ele>473.50</ele>
        <time>2017-02-11T10:09:36Z</time>
      </trkpt>
      <trkpt lat="42.406699000" lon="-2.469815000">
        <ele>473.30</ele>
        <time>2017-02-11T10:09:37Z</time>
      </trkpt>
      <trkpt lat="42.406735000" lon="-2.469766000">
        <ele>473.10</ele>
        <time>2017-02-11T10:09:38Z</time>
      </trkpt>
      <trkpt lat="42.406769000" lon="-2.469715000">
        <ele>472.90</ele>
        <time>2017-02-11T10:09:39Z</time>
      </trkpt>
      <trkpt lat="42.406807000" lon="-2.469663000">
        <ele>472.80</ele>
        <time>2017-02-11T10:09:40Z</time>
      </trkpt>
      <trkpt lat="42.406848000" lon="-2.469612000">
        <ele>472.50</ele>
        <time>2017-02-11T10:09:41Z</time>
      </trkpt>
      <trkpt lat="42.406890000" lon="-2.469562000">
        <ele>472.40</ele>
        <time>2017-02-11T10:09:42Z</time>
      </trkpt>
      <trkpt lat="42.406932000" lon="-2.469511000">
        <ele>472.00</ele>
        <time>2017-02-11T10:09:43Z</time>
      </trkpt>
      <trkpt lat="42.406972000" lon="-2.469461000">
        <ele>471.80</ele>
        <time>2017-02-11T10:09:44Z</time>
      </trkpt>
      <trkpt lat="42.407012000" lon="-2.469410000">
        <ele>471.80</ele>
        <time>2017-02-11T10:09:45Z</time>
      </trkpt>
      <trkpt lat="42.407051000" lon="-2.469366000">
        <ele>471.80</ele>
        <time>2017-02-11T10:09:46Z</time>
      </trkpt>
      <trkpt lat="42.407088000" lon="-2.469327000">
        <ele>471.60</ele>
        <time>2017-02-11T10:09:47Z</time>
      </trkpt>
      <trkpt lat="42.407123000" lon="-2.469296000">
        <ele>471.50</ele>
        <time>2017-02-11T10:09:48Z</time>
      </trkpt>
      <trkpt lat="42.407162000" lon="-2.469267000">
        <ele>471.40</ele>
        <time>2017-02-11T10:09:49Z</time>
      </trkpt>
      <trkpt lat="42.407202000" lon="-2.469234000">
        <ele>471.30</ele>
        <time>2017-02-11T10:09:50Z</time>
      </trkpt>
      <trkpt lat="42.407245000" lon="-2.469198000">
        <ele>471.20</ele>
        <time>2017-02-11T10:09:51Z</time>
      </trkpt>
      <trkpt lat="42.407285000" lon="-2.469156000">
        <ele>471.20</ele>
        <time>2017-02-11T10:09:52Z</time>
      </trkpt>
      <trkpt lat="42.407323000" lon="-2.469111000">
        <ele>471.10</ele>
        <time>2017-02-11T10:09:53Z</time>
      </trkpt>
      <trkpt lat="42.407361000" lon="-2.469064000">
        <ele>471.00</ele>
        <time>2017-02-11T10:09:54Z</time>
      </trkpt>
      <trkpt lat="42.407399000" lon="-2.469013000">
        <ele>470.90</ele>
        <time>2017-02-11T10:09:55Z</time>
      </trkpt>
      <trkpt lat="42.407434000" lon="-2.468957000">
        <ele>470.90</ele>
        <time>2017-02-11T10:09:56Z</time>
      </trkpt>
      <trkpt lat="42.407467000" lon="-2.468903000">
        <ele>470.60</ele>
        <time>2017-02-11T10:09:57Z</time>
      </trkpt>
      <trkpt lat="42.407497000" lon="-2.468851000">
        <ele>470.40</ele>
        <time>2017-02-11T10:09:58Z</time>
      </trkpt>
      <trkpt lat="42.407525000" lon="-2.468798000">
        <ele>470.20</ele>
        <time>2017-02-11T10:09:59Z</time>
      </trkpt>
      <trkpt lat="42.407556000" lon="-2.468743000">
        <ele>470.00</ele>
        <time>2017-02-11T10:10:00Z</time>
      </trkpt>
      <trkpt lat="42.407589000" lon="-2.468687000">
        <ele>469.90</ele>
        <time>2017-02-11T10:10:01Z</time>
      </trkpt>
      <trkpt lat="42.407624000" lon="-2.468632000">
        <ele>469.80</ele>
        <time>2017-02-11T10:10:02Z</time>
      </trkpt>
      <trkpt lat="42.407657000" lon="-2.468574000">
        <ele>469.80</ele>
        <time>2017-02-11T10:10:03Z</time>
      </trkpt>
      <trkpt lat="42.407689000" lon="-2.468512000">
        <ele>469.70</ele>
        <time>2017-02-11T10:10:04Z</time>
      </trkpt>
      <trkpt lat="42.407723000" lon="-2.468451000">
        <ele>469.70</ele>
        <time>2017-02-11T10:10:05Z</time>
      </trkpt>
      <trkpt lat="42.407754000" lon="-2.468387000">
        <ele>469.60</ele>
        <time>2017-02-11T10:10:06Z</time>
      </trkpt>
      <trkpt lat="42.407784000" lon="-2.468325000">
        <ele>469.60</ele>
        <time>2017-02-11T10:10:07Z</time>
      </trkpt>
      <trkpt lat="42.407812000" lon="-2.468263000">
        <ele>469.50</ele>
        <time>2017-02-11T10:10:08Z</time>
      </trkpt>
      <trkpt lat="42.407841000" lon="-2.468201000">
        <ele>469.40</ele>
        <time>2017-02-11T10:10:09Z</time>
      </trkpt>
      <trkpt lat="42.407871000" lon="-2.468139000">
        <ele>469.40</ele>
        <time>2017-02-11T10:10:10Z</time>
      </trkpt>
      <trkpt lat="42.407903000" lon="-2.468081000">
        <ele>469.30</ele>
        <time>2017-02-11T10:10:11Z</time>
      </trkpt>
      <trkpt lat="42.407931000" lon="-2.468023000">
        <ele>469.20</ele>
        <time>2017-02-11T10:10:12Z</time>
      </trkpt>
      <trkpt lat="42.407964000" lon="-2.467968000">
        <ele>469.10</ele>
        <time>2017-02-11T10:10:13Z</time>
      </trkpt>
      <trkpt lat="42.407998000" lon="-2.467912000">
        <ele>469.00</ele>
        <time>2017-02-11T10:10:14Z</time>
      </trkpt>
      <trkpt lat="42.408035000" lon="-2.467852000">
        <ele>468.80</ele>
        <time>2017-02-11T10:10:15Z</time>
      </trkpt>
      <trkpt lat="42.408074000" lon="-2.467791000">
        <ele>468.70</ele>
        <time>2017-02-11T10:10:16Z</time>
      </trkpt>
      <trkpt lat="42.408114000" lon="-2.467731000">
        <ele>468.30</ele>
        <time>2017-02-11T10:10:17Z</time>
      </trkpt>
      <trkpt lat="42.408153000" lon="-2.467668000">
        <ele>468.00</ele>
        <time>2017-02-11T10:10:18Z</time>
      </trkpt>
      <trkpt lat="42.408198000" lon="-2.467608000">
        <ele>467.70</ele>
        <time>2017-02-11T10:10:19Z</time>
      </trkpt>
      <trkpt lat="42.408242000" lon="-2.467554000">
        <ele>467.60</ele>
        <time>2017-02-11T10:10:20Z</time>
      </trkpt>
      <trkpt lat="42.408285000" lon="-2.467501000">
        <ele>467.50</ele>
        <time>2017-02-11T10:10:21Z</time>
      </trkpt>
      <trkpt lat="42.408329000" lon="-2.467446000">
        <ele>467.40</ele>
        <time>2017-02-11T10:10:22Z</time>
      </trkpt>
      <trkpt lat="42.408370000" lon="-2.467395000">
        <ele>467.40</ele>
        <time>2017-02-11T10:10:23Z</time>
      </trkpt>
      <trkpt lat="42.408408000" lon="-2.467342000">
        <ele>467.40</ele>
        <time>2017-02-11T10:10:24Z</time>
      </trkpt>
      <trkpt lat="42.408443000" lon="-2.467290000">
        <ele>467.40</ele>
        <time>2017-02-11T10:10:25Z</time>
      </trkpt>
      <trkpt lat="42.408475000" lon="-2.467238000">
        <ele>467.30</ele>
        <time>2017-02-11T10:10:26Z</time>
      </trkpt>
      <trkpt lat="42.408510000" lon="-2.467187000">
        <ele>467.30</ele>
        <time>2017-02-11T10:10:27Z</time>
      </trkpt>
      <trkpt lat="42.408546000" lon="-2.467133000">
        <ele>467.30</ele>
        <time>2017-02-11T10:10:28Z</time>
      </trkpt>
      <trkpt lat="42.408583000" lon="-2.467081000">
        <ele>467.20</ele>
        <time>2017-02-11T10:10:29Z</time>
      </trkpt>
      <trkpt lat="42.408621000" lon="-2.467029000">
        <ele>467.10</ele>
        <time>2017-02-11T10:10:30Z</time>
      </trkpt>
      <trkpt lat="42.408658000" lon="-2.466979000">
        <ele>466.90</ele>
        <time>2017-02-11T10:10:31Z</time>
      </trkpt>
      <trkpt lat="42.408698000" lon="-2.466927000">
        <ele>466.70</ele>
        <time>2017-02-11T10:10:32Z</time>
      </trkpt>
      <trkpt lat="42.408737000" lon="-2.466878000">
        <ele>466.60</ele>
        <time>2017-02-11T10:10:33Z</time>
      </trkpt>
      <trkpt lat="42.408779000" lon="-2.466828000">
        <ele>466.40</ele>
        <time>2017-02-11T10:10:34Z</time>
      </trkpt>
      <trkpt lat="42.408864000" lon="-2.466748000">
        <ele>466.30</ele>
        <time>2017-02-11T10:10:36Z</time>
      </trkpt>
      <trkpt lat="42.408908000" lon="-2.466708000">
        <ele>466.20</ele>
        <time>2017-02-11T10:10:37Z</time>
      </trkpt>
      <trkpt lat="42.408951000" lon="-2.466671000">
        <ele>466.20</ele>
        <time>2017-02-11T10:10:38Z</time>
      </trkpt>
      <trkpt lat="42.408995000" lon="-2.466636000">
        <ele>466.30</ele>
        <time>2017-02-11T10:10:39Z</time>
      </trkpt>
      <trkpt lat="42.409039000" lon="-2.466601000">
        <ele>466.40</ele>
        <time>2017-02-11T10:10:40Z</time>
      </trkpt>
      <trkpt lat="42.409081000" lon="-2.466566000">
        <ele>466.50</ele>
        <time>2017-02-11T10:10:41Z</time>
      </trkpt>
      <trkpt lat="42.409125000" lon="-2.466533000">
        <ele>466.60</ele>
        <time>2017-02-11T10:10:42Z</time>
      </trkpt>
      <trkpt lat="42.409169000" lon="-2.466500000">
        <ele>466.60</ele>
        <time>2017-02-11T10:10:43Z</time>
      </trkpt>
      <trkpt lat="42.409210000" lon="-2.466464000">
        <ele>466.70</ele>
        <time>2017-02-11T10:10:44Z</time>
      </trkpt>
      <trkpt lat="42.409253000" lon="-2.466428000">
        <ele>466.60</ele>
        <time>2017-02-11T10:10:45Z</time>
      </trkpt>
      <trkpt lat="42.409296000" lon="-2.466396000">
        <ele>466.50</ele>
        <time>2017-02-11T10:10:46Z</time>
      </trkpt>
      <trkpt lat="42.409339000" lon="-2.466367000">
        <ele>466.40</ele>
        <time>2017-02-11T10:10:47Z</time>
      </trkpt>
      <trkpt lat="42.409380000" lon="-2.466338000">
        <ele>466.30</ele>
        <time>2017-02-11T10:10:48Z</time>
      </trkpt>
      <trkpt lat="42.409422000" lon="-2.466312000">
        <ele>466.10</ele>
        <time>2017-02-11T10:10:49Z</time>
      </trkpt>
      <trkpt lat="42.409465000" lon="-2.466287000">
        <ele>466.00</ele>
        <time>2017-02-11T10:10:50Z</time>
      </trkpt>
      <trkpt lat="42.409509000" lon="-2.466266000">
        <ele>465.90</ele>
        <time>2017-02-11T10:10:51Z</time>
      </trkpt>
      <trkpt lat="42.409553000" lon="-2.466250000">
        <ele>465.80</ele>
        <time>2017-02-11T10:10:52Z</time>
      </trkpt>
      <trkpt lat="42.409597000" lon="-2.466232000">
        <ele>465.70</ele>
        <time>2017-02-11T10:10:53Z</time>
      </trkpt>
      <trkpt lat="42.409640000" lon="-2.466215000">
        <ele>465.70</ele>
        <time>2017-02-11T10:10:54Z</time>
      </trkpt>
      <trkpt lat="42.409684000" lon="-2.466199000">
        <ele>465.60</ele>
        <time>2017-02-11T10:10:55Z</time>
      </trkpt>
      <trkpt lat="42.409729000" lon="-2.466183000">
        <ele>465.60</ele>
        <time>2017-02-11T10:10:56Z</time>
      </trkpt>
      <trkpt lat="42.409771000" lon="-2.466169000">
        <ele>465.50</ele>
        <time>2017-02-11T10:10:57Z</time>
      </trkpt>
      <trkpt lat="42.409814000" lon="-2.466155000">
        <ele>465.50</ele>
        <time>2017-02-11T10:10:58Z</time>
      </trkpt>
      <trkpt lat="42.409857000" lon="-2.466146000">
        <ele>465.60</ele>
        <time>2017-02-11T10:10:59Z</time>
      </trkpt>
      <trkpt lat="42.409899000" lon="-2.466132000">
        <ele>465.60</ele>
        <time>2017-02-11T10:11:00Z</time>
      </trkpt>
      <trkpt lat="42.409941000" lon="-2.466124000">
        <ele>466.00</ele>
        <time>2017-02-11T10:11:01Z</time>
      </trkpt>
      <trkpt lat="42.409984000" lon="-2.466119000">
        <ele>466.20</ele>
        <time>2017-02-11T10:11:02Z</time>
      </trkpt>
      <trkpt lat="42.410027000" lon="-2.466116000">
        <ele>466.40</ele>
        <time>2017-02-11T10:11:03Z</time>
      </trkpt>
      <trkpt lat="42.410070000" lon="-2.466114000">
        <ele>466.60</ele>
        <time>2017-02-11T10:11:04Z</time>
      </trkpt>
      <trkpt lat="42.410116000" lon="-2.466114000">
        <ele>466.60</ele>
        <time>2017-02-11T10:11:05Z</time>
      </trkpt>
      <trkpt lat="42.410160000" lon="-2.466117000">
        <ele>466.70</ele>
        <time>2017-02-11T10:11:06Z</time>
      </trkpt>
      <trkpt lat="42.410205000" lon="-2.466119000">
        <ele>466.70</ele>
        <time>2017-02-11T10:11:07Z</time>
      </trkpt>
      <trkpt lat="42.410249000" lon="-2.466123000">
        <ele>466.70</ele>
        <time>2017-02-11T10:11:08Z</time>
      </trkpt>
      <trkpt lat="42.410298000" lon="-2.466128000">
        <ele>466.70</ele>
        <time>2017-02-11T10:11:09Z</time>
      </trkpt>
      <trkpt lat="42.410345000" lon="-2.466135000">
        <ele>466.70</ele>
        <time>2017-02-11T10:11:10Z</time>
      </trkpt>
      <trkpt lat="42.410394000" lon="-2.466141000">
        <ele>466.60</ele>
        <time>2017-02-11T10:11:11Z</time>
      </trkpt>
      <trkpt lat="42.410445000" lon="-2.466149000">
        <ele>466.40</ele>
        <time>2017-02-11T10:11:12Z</time>
      </trkpt>
      <trkpt lat="42.410496000" lon="-2.466157000">
        <ele>466.30</ele>
        <time>2017-02-11T10:11:13Z</time>
      </trkpt>
      <trkpt lat="42.410548000" lon="-2.466166000">
        <ele>466.20</ele>
        <time>2017-02-11T10:11:14Z</time>
      </trkpt>
      <trkpt lat="42.410598000" lon="-2.466180000">
        <ele>466.10</ele>
        <time>2017-02-11T10:11:15Z</time>
      </trkpt>
      <trkpt lat="42.410651000" lon="-2.466195000">
        <ele>466.10</ele>
        <time>2017-02-11T10:11:16Z</time>
      </trkpt>
      <trkpt lat="42.410704000" lon="-2.466211000">
        <ele>466.00</ele>
        <time>2017-02-11T10:11:17Z</time>
      </trkpt>
      <trkpt lat="42.410760000" lon="-2.466226000">
        <ele>466.00</ele>
        <time>2017-02-11T10:11:18Z</time>
      </trkpt>
      <trkpt lat="42.410812000" lon="-2.466244000">
        <ele>466.00</ele>
        <time>2017-02-11T10:11:19Z</time>
      </trkpt>
      <trkpt lat="42.410866000" lon="-2.466265000">
        <ele>466.00</ele>
        <time>2017-02-11T10:11:20Z</time>
      </trkpt>
      <trkpt lat="42.410916000" lon="-2.466291000">
        <ele>465.80</ele>
        <time>2017-02-11T10:11:21Z</time>
      </trkpt>
      <trkpt lat="42.410967000" lon="-2.466322000">
        <ele>465.70</ele>
        <time>2017-02-11T10:11:22Z</time>
      </trkpt>
      <trkpt lat="42.411016000" lon="-2.466351000">
        <ele>465.60</ele>
        <time>2017-02-11T10:11:23Z</time>
      </trkpt>
      <trkpt lat="42.411066000" lon="-2.466381000">
        <ele>465.40</ele>
        <time>2017-02-11T10:11:24Z</time>
      </trkpt>
      <trkpt lat="42.411114000" lon="-2.466411000">
        <ele>465.30</ele>
        <time>2017-02-11T10:11:25Z</time>
      </trkpt>
      <trkpt lat="42.411163000" lon="-2.466441000">
        <ele>465.20</ele>
        <time>2017-02-11T10:11:26Z</time>
      </trkpt>
      <trkpt lat="42.411211000" lon="-2.466469000">
        <ele>465.10</ele>
        <time>2017-02-11T10:11:27Z</time>
      </trkpt>
      <trkpt lat="42.411258000" lon="-2.466492000">
        <ele>465.00</ele>
        <time>2017-02-11T10:11:28Z</time>
      </trkpt>
      <trkpt lat="42.411306000" lon="-2.466515000">
        <ele>465.10</ele>
        <time>2017-02-11T10:11:29Z</time>
      </trkpt>
      <trkpt lat="42.411356000" lon="-2.466539000">
        <ele>465.10</ele>
        <time>2017-02-11T10:11:30Z</time>
      </trkpt>
      <trkpt lat="42.411405000" lon="-2.466564000">
        <ele>465.10</ele>
        <time>2017-02-11T10:11:31Z</time>
      </trkpt>
      <trkpt lat="42.411454000" lon="-2.466589000">
        <ele>465.10</ele>
        <time>2017-02-11T10:11:32Z</time>
      </trkpt>
      <trkpt lat="42.411504000" lon="-2.466613000">
        <ele>465.10</ele>
        <time>2017-02-11T10:11:33Z</time>
      </trkpt>
      <trkpt lat="42.411553000" lon="-2.466634000">
        <ele>465.10</ele>
        <time>2017-02-11T10:11:34Z</time>
      </trkpt>
      <trkpt lat="42.411602000" lon="-2.466656000">
        <ele>465.10</ele>
        <time>2017-02-11T10:11:35Z</time>
      </trkpt>
      <trkpt lat="42.411701000" lon="-2.466694000">
        <ele>465.10</ele>
        <time>2017-02-11T10:11:37Z</time>
      </trkpt>
      <trkpt lat="42.411750000" lon="-2.466713000">
        <ele>465.10</ele>
        <time>2017-02-11T10:11:38Z</time>
      </trkpt>
      <trkpt lat="42.411798000" lon="-2.466731000">
        <ele>465.10</ele>
        <time>2017-02-11T10:11:39Z</time>
      </trkpt>
      <trkpt lat="42.411848000" lon="-2.466751000">
        <ele>465.10</ele>
        <time>2017-02-11T10:11:40Z</time>
      </trkpt>
      <trkpt lat="42.411898000" lon="-2.466773000">
        <ele>465.10</ele>
        <time>2017-02-11T10:11:41Z</time>
      </trkpt>
      <trkpt lat="42.411948000" lon="-2.466793000">
        <ele>465.10</ele>
        <time>2017-02-11T10:11:42Z</time>
      </trkpt>
      <trkpt lat="42.411996000" lon="-2.466813000">
        <ele>465.10</ele>
        <time>2017-02-11T10:11:43Z</time>
      </trkpt>
      <trkpt lat="42.412045000" lon="-2.466832000">
        <ele>465.10</ele>
        <time>2017-02-11T10:11:44Z</time>
      </trkpt>
      <trkpt lat="42.412093000" lon="-2.466854000">
        <ele>465.10</ele>
        <time>2017-02-11T10:11:45Z</time>
      </trkpt>
      <trkpt lat="42.412139000" lon="-2.466873000">
        <ele>465.10</ele>
        <time>2017-02-11T10:11:46Z</time>
      </trkpt>
      <trkpt lat="42.412186000" lon="-2.466893000">
        <ele>465.20</ele>
        <time>2017-02-11T10:11:47Z</time>
      </trkpt>
      <trkpt lat="42.412233000" lon="-2.466914000">
        <ele>465.20</ele>
        <time>2017-02-11T10:11:48Z</time>
      </trkpt>
      <trkpt lat="42.412280000" lon="-2.466937000">
        <ele>465.30</ele>
        <time>2017-02-11T10:11:49Z</time>
      </trkpt>
      <trkpt lat="42.412326000" lon="-2.466959000">
        <ele>465.30</ele>
        <time>2017-02-11T10:11:50Z</time>
      </trkpt>
      <trkpt lat="42.412375000" lon="-2.466977000">
        <ele>465.30</ele>
        <time>2017-02-11T10:11:51Z</time>
      </trkpt>
      <trkpt lat="42.412422000" lon="-2.467001000">
        <ele>465.30</ele>
        <time>2017-02-11T10:11:52Z</time>
      </trkpt>
      <trkpt lat="42.412469000" lon="-2.467025000">
        <ele>465.30</ele>
        <time>2017-02-11T10:11:53Z</time>
      </trkpt>
      <trkpt lat="42.412516000" lon="-2.467047000">
        <ele>465.20</ele>
        <time>2017-02-11T10:11:54Z</time>
      </trkpt>
      <trkpt lat="42.412562000" lon="-2.467067000">
        <ele>465.10</ele>
        <time>2017-02-11T10:11:55Z</time>
      </trkpt>
      <trkpt lat="42.412607000" lon="-2.467083000">
        <ele>465.10</ele>
        <time>2017-02-11T10:11:56Z</time>
      </trkpt>
      <trkpt lat="42.412651000" lon="-2.467094000">
        <ele>465.00</ele>
        <time>2017-02-11T10:11:57Z</time>
      </trkpt>
      <trkpt lat="42.412701000" lon="-2.467107000">
        <ele>465.00</ele>
        <time>2017-02-11T10:11:58Z</time>
      </trkpt>
      <trkpt lat="42.412750000" lon="-2.467117000">
        <ele>464.90</ele>
        <time>2017-02-11T10:11:59Z</time>
      </trkpt>
      <trkpt lat="42.412797000" lon="-2.467126000">
        <ele>464.90</ele>
        <time>2017-02-11T10:12:00Z</time>
      </trkpt>
      <trkpt lat="42.412845000" lon="-2.467136000">
        <ele>464.90</ele>
        <time>2017-02-11T10:12:01Z</time>
      </trkpt>
      <trkpt lat="42.412893000" lon="-2.467140000">
        <ele>464.90</ele>
        <time>2017-02-11T10:12:02Z</time>
      </trkpt>
      <trkpt lat="42.412941000" lon="-2.467142000">
        <ele>464.90</ele>
        <time>2017-02-11T10:12:03Z</time>
      </trkpt>
      <trkpt lat="42.412989000" lon="-2.467135000">
        <ele>464.90</ele>
        <time>2017-02-11T10:12:04Z</time>
      </trkpt>
      <trkpt lat="42.413037000" lon="-2.467129000">
        <ele>464.80</ele>
        <time>2017-02-11T10:12:05Z</time>
      </trkpt>
      <trkpt lat="42.413083000" lon="-2.467120000">
        <ele>464.80</ele>
        <time>2017-02-11T10:12:06Z</time>
      </trkpt>
      <trkpt lat="42.413130000" lon="-2.467110000">
        <ele>464.70</ele>
        <time>2017-02-11T10:12:07Z</time>
      </trkpt>
      <trkpt lat="42.413178000" lon="-2.467103000">
        <ele>464.70</ele>
        <time>2017-02-11T10:12:08Z</time>
      </trkpt>
      <trkpt lat="42.413227000" lon="-2.467095000">
        <ele>464.50</ele>
        <time>2017-02-11T10:12:09Z</time>
      </trkpt>
      <trkpt lat="42.413282000" lon="-2.467081000">
        <ele>464.30</ele>
        <time>2017-02-11T10:12:10Z</time>
      </trkpt>
      <trkpt lat="42.413344000" lon="-2.467055000">
        <ele>464.10</ele>
        <time>2017-02-11T10:12:11Z</time>
      </trkpt>
      <trkpt lat="42.413411000" lon="-2.467021000">
        <ele>463.90</ele>
        <time>2017-02-11T10:12:12Z</time>
      </trkpt>
      <trkpt lat="42.413482000" lon="-2.466964000">
        <ele>463.70</ele>
        <time>2017-02-11T10:12:13Z</time>
      </trkpt>
      <trkpt lat="42.413547000" lon="-2.466895000">
        <ele>463.50</ele>
        <time>2017-02-11T10:12:14Z</time>
      </trkpt>
      <trkpt lat="42.413603000" lon="-2.466795000">
        <ele>462.60</ele>
        <time>2017-02-11T10:12:15Z</time>
      </trkpt>
      <trkpt lat="42.413639000" lon="-2.466681000">
        <ele>462.00</ele>
        <time>2017-02-11T10:12:16Z</time>
      </trkpt>
      <trkpt lat="42.413705000" lon="-2.466625000">
        <ele>461.50</ele>
        <time>2017-02-11T10:12:17Z</time>
      </trkpt>
      <trkpt lat="42.413777000" lon="-2.466598000">
        <ele>461.10</ele>
        <time>2017-02-11T10:12:18Z</time>
      </trkpt>
      <trkpt lat="42.413851000" lon="-2.466604000">
        <ele>460.80</ele>
        <time>2017-02-11T10:12:19Z</time>
      </trkpt>
      <trkpt lat="42.413917000" lon="-2.466638000">
        <ele>460.60</ele>
        <time>2017-02-11T10:12:20Z</time>
      </trkpt>
      <trkpt lat="42.413971000" lon="-2.466693000">
        <ele>460.50</ele>
        <time>2017-02-11T10:12:21Z</time>
      </trkpt>
      <trkpt lat="42.414018000" lon="-2.466754000">
        <ele>460.50</ele>
        <time>2017-02-11T10:12:22Z</time>
      </trkpt>
      <trkpt lat="42.414056000" lon="-2.466810000">
        <ele>460.50</ele>
        <time>2017-02-11T10:12:23Z</time>
      </trkpt>
      <trkpt lat="42.414087000" lon="-2.466863000">
        <ele>460.60</ele>
        <time>2017-02-11T10:12:24Z</time>
      </trkpt>
      <trkpt lat="42.414114000" lon="-2.466913000">
        <ele>460.80</ele>
        <time>2017-02-11T10:12:25Z</time>
      </trkpt>
      <trkpt lat="42.414136000" lon="-2.466957000">
        <ele>460.90</ele>
        <time>2017-02-11T10:12:26Z</time>
      </trkpt>
      <trkpt lat="42.414157000" lon="-2.467004000">
        <ele>461.30</ele>
        <time>2017-02-11T10:12:27Z</time>
      </trkpt>
      <trkpt lat="42.414179000" lon="-2.467046000">
        <ele>461.50</ele>
        <time>2017-02-11T10:12:28Z</time>
      </trkpt>
      <trkpt lat="42.414202000" lon="-2.467085000">
        <ele>461.70</ele>
        <time>2017-02-11T10:12:29Z</time>
      </trkpt>
      <trkpt lat="42.414225000" lon="-2.467123000">
        <ele>461.90</ele>
        <time>2017-02-11T10:12:30Z</time>
      </trkpt>
      <trkpt lat="42.414247000" lon="-2.467161000">
        <ele>462.30</ele>
        <time>2017-02-11T10:12:31Z</time>
      </trkpt>
      <trkpt lat="42.414269000" lon="-2.467196000">
        <ele>462.50</ele>
        <time>2017-02-11T10:12:32Z</time>
      </trkpt>
      <trkpt lat="42.414291000" lon="-2.467235000">
        <ele>462.90</ele>
        <time>2017-02-11T10:12:33Z</time>
      </trkpt>
      <trkpt lat="42.414314000" lon="-2.467274000">
        <ele>463.10</ele>
        <time>2017-02-11T10:12:34Z</time>
      </trkpt>
      <trkpt lat="42.414336000" lon="-2.467314000">
        <ele>463.50</ele>
        <time>2017-02-11T10:12:35Z</time>
      </trkpt>
      <trkpt lat="42.414359000" lon="-2.467358000">
        <ele>463.70</ele>
        <time>2017-02-11T10:12:36Z</time>
      </trkpt>
      <trkpt lat="42.414406000" lon="-2.467446000">
        <ele>464.10</ele>
        <time>2017-02-11T10:12:38Z</time>
      </trkpt>
      <trkpt lat="42.414435000" lon="-2.467487000">
        <ele>464.30</ele>
        <time>2017-02-11T10:12:39Z</time>
      </trkpt>
      <trkpt lat="42.414462000" lon="-2.467527000">
        <ele>464.50</ele>
        <time>2017-02-11T10:12:40Z</time>
      </trkpt>
      <trkpt lat="42.414490000" lon="-2.467568000">
        <ele>464.60</ele>
        <time>2017-02-11T10:12:41Z</time>
      </trkpt>
      <trkpt lat="42.414520000" lon="-2.467610000">
        <ele>464.70</ele>
        <time>2017-02-11T10:12:42Z</time>
      </trkpt>
      <trkpt lat="42.414553000" lon="-2.467646000">
        <ele>464.90</ele>
        <time>2017-02-11T10:12:43Z</time>
      </trkpt>
      <trkpt lat="42.414588000" lon="-2.467684000">
        <ele>465.00</ele>
        <time>2017-02-11T10:12:44Z</time>
      </trkpt>
      <trkpt lat="42.414625000" lon="-2.467719000">
        <ele>465.10</ele>
        <time>2017-02-11T10:12:45Z</time>
      </trkpt>
      <trkpt lat="42.414664000" lon="-2.467748000">
        <ele>465.20</ele>
        <time>2017-02-11T10:12:46Z</time>
      </trkpt>
      <trkpt lat="42.414699000" lon="-2.467777000">
        <ele>465.30</ele>
        <time>2017-02-11T10:12:47Z</time>
      </trkpt>
      <trkpt lat="42.414738000" lon="-2.467803000">
        <ele>465.30</ele>
        <time>2017-02-11T10:12:48Z</time>
      </trkpt>
      <trkpt lat="42.414778000" lon="-2.467829000">
        <ele>465.30</ele>
        <time>2017-02-11T10:12:49Z</time>
      </trkpt>
      <trkpt lat="42.414820000" lon="-2.467852000">
        <ele>465.30</ele>
        <time>2017-02-11T10:12:50Z</time>
      </trkpt>
      <trkpt lat="42.414865000" lon="-2.467871000">
        <ele>465.50</ele>
        <time>2017-02-11T10:12:51Z</time>
      </trkpt>
      <trkpt lat="42.414906000" lon="-2.467895000">
        <ele>465.60</ele>
        <time>2017-02-11T10:12:52Z</time>
      </trkpt>
      <trkpt lat="42.414948000" lon="-2.467914000">
        <ele>465.70</ele>
        <time>2017-02-11T10:12:53Z</time>
      </trkpt>
      <trkpt lat="42.414991000" lon="-2.467938000">
        <ele>465.80</ele>
        <time>2017-02-11T10:12:54Z</time>
      </trkpt>
      <trkpt lat="42.415032000" lon="-2.467961000">
        <ele>465.90</ele>
        <time>2017-02-11T10:12:55Z</time>
      </trkpt>
      <trkpt lat="42.415075000" lon="-2.467981000">
        <ele>466.00</ele>
        <time>2017-02-11T10:12:56Z</time>
      </trkpt>
      <trkpt lat="42.415117000" lon="-2.467997000">
        <ele>466.00</ele>
        <time>2017-02-11T10:12:57Z</time>
      </trkpt>
      <trkpt lat="42.415162000" lon="-2.468009000">
        <ele>466.10</ele>
        <time>2017-02-11T10:12:58Z</time>
      </trkpt>
      <trkpt lat="42.415206000" lon="-2.468018000">
        <ele>466.00</ele>
        <time>2017-02-11T10:12:59Z</time>
      </trkpt>
      <trkpt lat="42.415251000" lon="-2.468028000">
        <ele>466.00</ele>
        <time>2017-02-11T10:13:00Z</time>
      </trkpt>
      <trkpt lat="42.415295000" lon="-2.468042000">
        <ele>466.00</ele>
        <time>2017-02-11T10:13:01Z</time>
      </trkpt>
      <trkpt lat="42.415339000" lon="-2.468058000">
        <ele>466.10</ele>
        <time>2017-02-11T10:13:02Z</time>
      </trkpt>
      <trkpt lat="42.415383000" lon="-2.468073000">
        <ele>466.10</ele>
        <time>2017-02-11T10:13:03Z</time>
      </trkpt>
      <trkpt lat="42.415426000" lon="-2.468088000">
        <ele>466.10</ele>
        <time>2017-02-11T10:13:04Z</time>
      </trkpt>
      <trkpt lat="42.415469000" lon="-2.468103000">
        <ele>466.10</ele>
        <time>2017-02-11T10:13:05Z</time>
      </trkpt>
      <trkpt lat="42.415510000" lon="-2.468119000">
        <ele>466.10</ele>
        <time>2017-02-11T10:13:06Z</time>
      </trkpt>
      <trkpt lat="42.415550000" lon="-2.468137000">
        <ele>466.20</ele>
        <time>2017-02-11T10:13:07Z</time>
      </trkpt>
      <trkpt lat="42.415591000" lon="-2.468154000">
        <ele>466.30</ele>
        <time>2017-02-11T10:13:08Z</time>
      </trkpt>
      <trkpt lat="42.415632000" lon="-2.468172000">
        <ele>466.40</ele>
        <time>2017-02-11T10:13:09Z</time>
      </trkpt>
      <trkpt lat="42.415674000" lon="-2.468189000">
        <ele>466.40</ele>
        <time>2017-02-11T10:13:10Z</time>
      </trkpt>
      <trkpt lat="42.415717000" lon="-2.468202000">
        <ele>466.40</ele>
        <time>2017-02-11T10:13:11Z</time>
      </trkpt>
      <trkpt lat="42.415762000" lon="-2.468216000">
        <ele>466.40</ele>
        <time>2017-02-11T10:13:12Z</time>
      </trkpt>
      <trkpt lat="42.415806000" lon="-2.468227000">
        <ele>466.30</ele>
        <time>2017-02-11T10:13:13Z</time>
      </trkpt>
      <trkpt lat="42.415853000" lon="-2.468239000">
        <ele>466.30</ele>
        <time>2017-02-11T10:13:14Z</time>
      </trkpt>
      <trkpt lat="42.415898000" lon="-2.468252000">
        <ele>466.20</ele>
        <time>2017-02-11T10:13:15Z</time>
      </trkpt>
      <trkpt lat="42.415945000" lon="-2.468266000">
        <ele>466.20</ele>
        <time>2017-02-11T10:13:16Z</time>
      </trkpt>
      <trkpt lat="42.415989000" lon="-2.468277000">
        <ele>466.20</ele>
        <time>2017-02-11T10:13:17Z</time>
      </trkpt>
      <trkpt lat="42.416033000" lon="-2.468291000">
        <ele>466.20</ele>
        <time>2017-02-11T10:13:18Z</time>
      </trkpt>
      <trkpt lat="42.416078000" lon="-2.468305000">
        <ele>466.10</ele>
        <time>2017-02-11T10:13:19Z</time>
      </trkpt>
      <trkpt lat="42.416122000" lon="-2.468316000">
        <ele>466.10</ele>
        <time>2017-02-11T10:13:20Z</time>
      </trkpt>
      <trkpt lat="42.416166000" lon="-2.468324000">
        <ele>466.10</ele>
        <time>2017-02-11T10:13:21Z</time>
      </trkpt>
      <trkpt lat="42.416210000" lon="-2.468334000">
        <ele>466.00</ele>
        <time>2017-02-11T10:13:22Z</time>
      </trkpt>
      <trkpt lat="42.416255000" lon="-2.468344000">
        <ele>466.00</ele>
        <time>2017-02-11T10:13:23Z</time>
      </trkpt>
      <trkpt lat="42.416300000" lon="-2.468355000">
        <ele>466.00</ele>
        <time>2017-02-11T10:13:24Z</time>
      </trkpt>
      <trkpt lat="42.416347000" lon="-2.468366000">
        <ele>466.10</ele>
        <time>2017-02-11T10:13:25Z</time>
      </trkpt>
      <trkpt lat="42.416392000" lon="-2.468370000">
        <ele>466.10</ele>
        <time>2017-02-11T10:13:26Z</time>
      </trkpt>
      <trkpt lat="42.416438000" lon="-2.468382000">
        <ele>466.10</ele>
        <time>2017-02-11T10:13:27Z</time>
      </trkpt>
      <trkpt lat="42.416484000" lon="-2.468389000">
        <ele>466.10</ele>
        <time>2017-02-11T10:13:28Z</time>
      </trkpt>
      <trkpt lat="42.416531000" lon="-2.468394000">
        <ele>466.10</ele>
        <time>2017-02-11T10:13:29Z</time>
      </trkpt>
      <trkpt lat="42.416577000" lon="-2.468400000">
        <ele>466.10</ele>
        <time>2017-02-11T10:13:30Z</time>
      </trkpt>
      <trkpt lat="42.416622000" lon="-2.468406000">
        <ele>466.10</ele>
        <time>2017-02-11T10:13:31Z</time>
      </trkpt>
      <trkpt lat="42.416666000" lon="-2.468412000">
        <ele>466.10</ele>
        <time>2017-02-11T10:13:32Z</time>
      </trkpt>
      <trkpt lat="42.416710000" lon="-2.468418000">
        <ele>466.20</ele>
        <time>2017-02-11T10:13:33Z</time>
      </trkpt>
      <trkpt lat="42.416754000" lon="-2.468424000">
        <ele>466.30</ele>
        <time>2017-02-11T10:13:34Z</time>
      </trkpt>
      <trkpt lat="42.416800000" lon="-2.468432000">
        <ele>466.30</ele>
        <time>2017-02-11T10:13:35Z</time>
      </trkpt>
      <trkpt lat="42.416842000" lon="-2.468435000">
        <ele>466.30</ele>
        <time>2017-02-11T10:13:36Z</time>
      </trkpt>
      <trkpt lat="42.416888000" lon="-2.468442000">
        <ele>466.20</ele>
        <time>2017-02-11T10:13:37Z</time>
      </trkpt>
      <trkpt lat="42.416980000" lon="-2.468454000">
        <ele>466.10</ele>
        <time>2017-02-11T10:13:39Z</time>
      </trkpt>
      <trkpt lat="42.417029000" lon="-2.468462000">
        <ele>466.10</ele>
        <time>2017-02-11T10:13:40Z</time>
      </trkpt>
      <trkpt lat="42.417076000" lon="-2.468468000">
        <ele>466.10</ele>
        <time>2017-02-11T10:13:41Z</time>
      </trkpt>
      <trkpt lat="42.417121000" lon="-2.468476000">
        <ele>466.00</ele>
        <time>2017-02-11T10:13:42Z</time>
      </trkpt>
      <trkpt lat="42.417170000" lon="-2.468482000">
        <ele>466.00</ele>
        <time>2017-02-11T10:13:43Z</time>
      </trkpt>
      <trkpt lat="42.417217000" lon="-2.468491000">
        <ele>466.00</ele>
        <time>2017-02-11T10:13:44Z</time>
      </trkpt>
      <trkpt lat="42.417261000" lon="-2.468496000">
        <ele>466.10</ele>
        <time>2017-02-11T10:13:45Z</time>
      </trkpt>
      <trkpt lat="42.417307000" lon="-2.468505000">
        <ele>466.20</ele>
        <time>2017-02-11T10:13:46Z</time>
      </trkpt>
      <trkpt lat="42.417351000" lon="-2.468512000">
        <ele>466.30</ele>
        <time>2017-02-11T10:13:47Z</time>
      </trkpt>
      <trkpt lat="42.417400000" lon="-2.468518000">
        <ele>466.30</ele>
        <time>2017-02-11T10:13:48Z</time>
      </trkpt>
      <trkpt lat="42.417446000" lon="-2.468524000">
        <ele>466.30</ele>
        <time>2017-02-11T10:13:49Z</time>
      </trkpt>
      <trkpt lat="42.417491000" lon="-2.468527000">
        <ele>466.40</ele>
        <time>2017-02-11T10:13:50Z</time>
      </trkpt>
      <trkpt lat="42.417535000" lon="-2.468530000">
        <ele>466.40</ele>
        <time>2017-02-11T10:13:51Z</time>
      </trkpt>
      <trkpt lat="42.417580000" lon="-2.468533000">
        <ele>466.40</ele>
        <time>2017-02-11T10:13:52Z</time>
      </trkpt>
      <trkpt lat="42.417626000" lon="-2.468537000">
        <ele>466.50</ele>
        <time>2017-02-11T10:13:53Z</time>
      </trkpt>
      <trkpt lat="42.417671000" lon="-2.468543000">
        <ele>466.50</ele>
        <time>2017-02-11T10:13:54Z</time>
      </trkpt>
      <trkpt lat="42.417714000" lon="-2.468549000">
        <ele>466.70</ele>
        <time>2017-02-11T10:13:55Z</time>
      </trkpt>
      <trkpt lat="42.417760000" lon="-2.468554000">
        <ele>466.80</ele>
        <time>2017-02-11T10:13:56Z</time>
      </trkpt>
      <trkpt lat="42.417809000" lon="-2.468557000">
        <ele>466.90</ele>
        <time>2017-02-11T10:13:57Z</time>
      </trkpt>
      <trkpt lat="42.417856000" lon="-2.468559000">
        <ele>466.90</ele>
        <time>2017-02-11T10:13:58Z</time>
      </trkpt>
      <trkpt lat="42.417902000" lon="-2.468559000">
        <ele>467.00</ele>
        <time>2017-02-11T10:13:59Z</time>
      </trkpt>
      <trkpt lat="42.417948000" lon="-2.468558000">
        <ele>467.00</ele>
        <time>2017-02-11T10:14:00Z</time>
      </trkpt>
      <trkpt lat="42.417994000" lon="-2.468559000">
        <ele>467.10</ele>
        <time>2017-02-11T10:14:01Z</time>
      </trkpt>
      <trkpt lat="42.418040000" lon="-2.468561000">
        <ele>467.10</ele>
        <time>2017-02-11T10:14:02Z</time>
      </trkpt>
      <trkpt lat="42.418084000" lon="-2.468559000">
        <ele>467.10</ele>
        <time>2017-02-11T10:14:03Z</time>
      </trkpt>
      <trkpt lat="42.418127000" lon="-2.468555000">
        <ele>467.10</ele>
        <time>2017-02-11T10:14:04Z</time>
      </trkpt>
      <trkpt lat="42.418171000" lon="-2.468552000">
        <ele>467.00</ele>
        <time>2017-02-11T10:14:05Z</time>
      </trkpt>
      <trkpt lat="42.418215000" lon="-2.468548000">
        <ele>466.90</ele>
        <time>2017-02-11T10:14:06Z</time>
      </trkpt>
      <trkpt lat="42.418259000" lon="-2.468543000">
        <ele>466.90</ele>
        <time>2017-02-11T10:14:07Z</time>
      </trkpt>
      <trkpt lat="42.418305000" lon="-2.468543000">
        <ele>466.90</ele>
        <time>2017-02-11T10:14:08Z</time>
      </trkpt>
      <trkpt lat="42.418349000" lon="-2.468537000">
        <ele>466.90</ele>
        <time>2017-02-11T10:14:09Z</time>
      </trkpt>
      <trkpt lat="42.418392000" lon="-2.468531000">
        <ele>466.90</ele>
        <time>2017-02-11T10:14:10Z</time>
      </trkpt>
      <trkpt lat="42.418437000" lon="-2.468523000">
        <ele>467.10</ele>
        <time>2017-02-11T10:14:11Z</time>
      </trkpt>
      <trkpt lat="42.418481000" lon="-2.468518000">
        <ele>467.20</ele>
        <time>2017-02-11T10:14:12Z</time>
      </trkpt>
      <trkpt lat="42.418527000" lon="-2.468514000">
        <ele>467.20</ele>
        <time>2017-02-11T10:14:13Z</time>
      </trkpt>
      <trkpt lat="42.418572000" lon="-2.468508000">
        <ele>467.30</ele>
        <time>2017-02-11T10:14:14Z</time>
      </trkpt>
      <trkpt lat="42.418612000" lon="-2.468495000">
        <ele>467.30</ele>
        <time>2017-02-11T10:14:15Z</time>
      </trkpt>
      <trkpt lat="42.418656000" lon="-2.468486000">
        <ele>467.30</ele>
        <time>2017-02-11T10:14:16Z</time>
      </trkpt>
      <trkpt lat="42.418698000" lon="-2.468479000">
        <ele>467.10</ele>
        <time>2017-02-11T10:14:17Z</time>
      </trkpt>
      <trkpt lat="42.418740000" lon="-2.468472000">
        <ele>467.00</ele>
        <time>2017-02-11T10:14:18Z</time>
      </trkpt>
      <trkpt lat="42.418783000" lon="-2.468462000">
        <ele>466.90</ele>
        <time>2017-02-11T10:14:19Z</time>
      </trkpt>
      <trkpt lat="42.418823000" lon="-2.468454000">
        <ele>466.80</ele>
        <time>2017-02-11T10:14:20Z</time>
      </trkpt>
      <trkpt lat="42.418866000" lon="-2.468449000">
        <ele>466.70</ele>
        <time>2017-02-11T10:14:21Z</time>
      </trkpt>
      <trkpt lat="42.418908000" lon="-2.468444000">
        <ele>466.70</ele>
        <time>2017-02-11T10:14:22Z</time>
      </trkpt>
      <trkpt lat="42.418950000" lon="-2.468440000">
        <ele>466.60</ele>
        <time>2017-02-11T10:14:23Z</time>
      </trkpt>
      <trkpt lat="42.418993000" lon="-2.468432000">
        <ele>466.60</ele>
        <time>2017-02-11T10:14:24Z</time>
      </trkpt>
      <trkpt lat="42.419036000" lon="-2.468428000">
        <ele>466.50</ele>
        <time>2017-02-11T10:14:25Z</time>
      </trkpt>
      <trkpt lat="42.419077000" lon="-2.468416000">
        <ele>466.40</ele>
        <time>2017-02-11T10:14:26Z</time>
      </trkpt>
      <trkpt lat="42.419112000" lon="-2.468409000">
        <ele>466.30</ele>
        <time>2017-02-11T10:14:27Z</time>
      </trkpt>
      <trkpt lat="42.419138000" lon="-2.468402000">
        <ele>466.20</ele>
        <time>2017-02-11T10:14:28Z</time>
      </trkpt>
      <trkpt lat="42.419157000" lon="-2.468395000">
        <ele>466.00</ele>
        <time>2017-02-11T10:14:29Z</time>
      </trkpt>
      <trkpt lat="42.419181000" lon="-2.468390000">
        <ele>465.80</ele>
        <time>2017-02-11T10:14:30Z</time>
      </trkpt>
      <trkpt lat="42.419211000" lon="-2.468386000">
        <ele>465.60</ele>
        <time>2017-02-11T10:14:31Z</time>
      </trkpt>
      <trkpt lat="42.419251000" lon="-2.468381000">
        <ele>465.50</ele>
        <time>2017-02-11T10:14:32Z</time>
      </trkpt>
      <trkpt lat="42.419295000" lon="-2.468370000">
        <ele>465.20</ele>
        <time>2017-02-11T10:14:33Z</time>
      </trkpt>
      <trkpt lat="42.419344000" lon="-2.468351000">
        <ele>465.00</ele>
        <time>2017-02-11T10:14:34Z</time>
      </trkpt>
      <trkpt lat="42.419398000" lon="-2.468333000">
        <ele>465.00</ele>
        <time>2017-02-11T10:14:35Z</time>
      </trkpt>
      <trkpt lat="42.419452000" lon="-2.468318000">
        <ele>465.00</ele>
        <time>2017-02-11T10:14:36Z</time>
      </trkpt>
      <trkpt lat="42.419507000" lon="-2.468307000">
        <ele>465.00</ele>
        <time>2017-02-11T10:14:37Z</time>
      </trkpt>
      <trkpt lat="42.419562000" lon="-2.468301000">
        <ele>465.00</ele>
        <time>2017-02-11T10:14:38Z</time>
      </trkpt>
      <trkpt lat="42.419663000" lon="-2.468313000">
        <ele>465.00</ele>
        <time>2017-02-11T10:14:40Z</time>
      </trkpt>
      <trkpt lat="42.419708000" lon="-2.468320000">
        <ele>465.00</ele>
        <time>2017-02-11T10:14:41Z</time>
      </trkpt>
      <trkpt lat="42.419748000" lon="-2.468327000">
        <ele>465.00</ele>
        <time>2017-02-11T10:14:42Z</time>
      </trkpt>
      <trkpt lat="42.419788000" lon="-2.468330000">
        <ele>465.00</ele>
        <time>2017-02-11T10:14:43Z</time>
      </trkpt>
      <trkpt lat="42.419830000" lon="-2.468321000">
        <ele>464.90</ele>
        <time>2017-02-11T10:14:44Z</time>
      </trkpt>
      <trkpt lat="42.419876000" lon="-2.468317000">
        <ele>464.90</ele>
        <time>2017-02-11T10:14:45Z</time>
      </trkpt>
      <trkpt lat="42.419924000" lon="-2.468315000">
        <ele>464.90</ele>
        <time>2017-02-11T10:14:46Z</time>
      </trkpt>
      <trkpt lat="42.419970000" lon="-2.468316000">
        <ele>464.70</ele>
        <time>2017-02-11T10:14:47Z</time>
      </trkpt>
      <trkpt lat="42.420020000" lon="-2.468310000">
        <ele>464.60</ele>
        <time>2017-02-11T10:14:48Z</time>
      </trkpt>
      <trkpt lat="42.420071000" lon="-2.468302000">
        <ele>464.50</ele>
        <time>2017-02-11T10:14:49Z</time>
      </trkpt>
      <trkpt lat="42.420121000" lon="-2.468290000">
        <ele>464.40</ele>
        <time>2017-02-11T10:14:50Z</time>
      </trkpt>
      <trkpt lat="42.420172000" lon="-2.468274000">
        <ele>464.40</ele>
        <time>2017-02-11T10:14:51Z</time>
      </trkpt>
      <trkpt lat="42.420222000" lon="-2.468258000">
        <ele>464.40</ele>
        <time>2017-02-11T10:14:52Z</time>
      </trkpt>
      <trkpt lat="42.420272000" lon="-2.468248000">
        <ele>464.30</ele>
        <time>2017-02-11T10:14:53Z</time>
      </trkpt>
      <trkpt lat="42.420318000" lon="-2.468234000">
        <ele>464.30</ele>
        <time>2017-02-11T10:14:54Z</time>
      </trkpt>
      <trkpt lat="42.420366000" lon="-2.468224000">
        <ele>464.30</ele>
        <time>2017-02-11T10:14:55Z</time>
      </trkpt>
      <trkpt lat="42.420409000" lon="-2.468213000">
        <ele>464.30</ele>
        <time>2017-02-11T10:14:56Z</time>
      </trkpt>
      <trkpt lat="42.420451000" lon="-2.468203000">
        <ele>464.00</ele>
        <time>2017-02-11T10:14:57Z</time>
      </trkpt>
      <trkpt lat="42.420493000" lon="-2.468192000">
        <ele>463.80</ele>
        <time>2017-02-11T10:14:58Z</time>
      </trkpt>
      <trkpt lat="42.420533000" lon="-2.468180000">
        <ele>463.70</ele>
        <time>2017-02-11T10:14:59Z</time>
      </trkpt>
      <trkpt lat="42.420577000" lon="-2.468170000">
        <ele>463.50</ele>
        <time>2017-02-11T10:15:00Z</time>
      </trkpt>
      <trkpt lat="42.420620000" lon="-2.468157000">
        <ele>463.60</ele>
        <time>2017-02-11T10:15:01Z</time>
      </trkpt>
      <trkpt lat="42.420663000" lon="-2.468142000">
        <ele>463.60</ele>
        <time>2017-02-11T10:15:02Z</time>
      </trkpt>
      <trkpt lat="42.420706000" lon="-2.468127000">
        <ele>463.60</ele>
        <time>2017-02-11T10:15:03Z</time>
      </trkpt>
      <trkpt lat="42.420750000" lon="-2.468113000">
        <ele>463.70</ele>
        <time>2017-02-11T10:15:04Z</time>
      </trkpt>
      <trkpt lat="42.420795000" lon="-2.468102000">
        <ele>463.60</ele>
        <time>2017-02-11T10:15:05Z</time>
      </trkpt>
      <trkpt lat="42.420840000" lon="-2.468089000">
        <ele>463.60</ele>
        <time>2017-02-11T10:15:06Z</time>
      </trkpt>
      <trkpt lat="42.420884000" lon="-2.468076000">
        <ele>463.50</ele>
        <time>2017-02-11T10:15:07Z</time>
      </trkpt>
      <trkpt lat="42.420926000" lon="-2.468064000">
        <ele>463.50</ele>
        <time>2017-02-11T10:15:08Z</time>
      </trkpt>
      <trkpt lat="42.420968000" lon="-2.468052000">
        <ele>463.60</ele>
        <time>2017-02-11T10:15:09Z</time>
      </trkpt>
      <trkpt lat="42.421010000" lon="-2.468041000">
        <ele>463.70</ele>
        <time>2017-02-11T10:15:10Z</time>
      </trkpt>
      <trkpt lat="42.421054000" lon="-2.468030000">
        <ele>463.80</ele>
        <time>2017-02-11T10:15:11Z</time>
      </trkpt>
      <trkpt lat="42.421099000" lon="-2.468022000">
        <ele>463.80</ele>
        <time>2017-02-11T10:15:12Z</time>
      </trkpt>
      <trkpt lat="42.421143000" lon="-2.468012000">
        <ele>463.70</ele>
        <time>2017-02-11T10:15:13Z</time>
      </trkpt>
      <trkpt lat="42.421188000" lon="-2.468002000">
        <ele>463.70</ele>
        <time>2017-02-11T10:15:14Z</time>
      </trkpt>
      <trkpt lat="42.421232000" lon="-2.467990000">
        <ele>463.50</ele>
        <time>2017-02-11T10:15:15Z</time>
      </trkpt>
      <trkpt lat="42.421274000" lon="-2.467980000">
        <ele>463.40</ele>
        <time>2017-02-11T10:15:16Z</time>
      </trkpt>
      <trkpt lat="42.421317000" lon="-2.467970000">
        <ele>463.30</ele>
        <time>2017-02-11T10:15:17Z</time>
      </trkpt>
      <trkpt lat="42.421360000" lon="-2.467958000">
        <ele>463.20</ele>
        <time>2017-02-11T10:15:18Z</time>
      </trkpt>
      <trkpt lat="42.421402000" lon="-2.467945000">
        <ele>463.20</ele>
        <time>2017-02-11T10:15:19Z</time>
      </trkpt>
      <trkpt lat="42.421444000" lon="-2.467932000">
        <ele>463.30</ele>
        <time>2017-02-11T10:15:20Z</time>
      </trkpt>
      <trkpt lat="42.421487000" lon="-2.467920000">
        <ele>463.30</ele>
        <time>2017-02-11T10:15:21Z</time>
      </trkpt>
      <trkpt lat="42.421528000" lon="-2.467908000">
        <ele>463.40</ele>
        <time>2017-02-11T10:15:22Z</time>
      </trkpt>
      <trkpt lat="42.421571000" lon="-2.467898000">
        <ele>463.30</ele>
        <time>2017-02-11T10:15:23Z</time>
      </trkpt>
      <trkpt lat="42.421612000" lon="-2.467883000">
        <ele>463.30</ele>
        <time>2017-02-11T10:15:24Z</time>
      </trkpt>
      <trkpt lat="42.421656000" lon="-2.467869000">
        <ele>463.30</ele>
        <time>2017-02-11T10:15:25Z</time>
      </trkpt>
      <trkpt lat="42.421699000" lon="-2.467850000">
        <ele>463.30</ele>
        <time>2017-02-11T10:15:26Z</time>
      </trkpt>
      <trkpt lat="42.421741000" lon="-2.467830000">
        <ele>463.30</ele>
        <time>2017-02-11T10:15:27Z</time>
      </trkpt>
      <trkpt lat="42.421784000" lon="-2.467809000">
        <ele>463.30</ele>
        <time>2017-02-11T10:15:28Z</time>
      </trkpt>
      <trkpt lat="42.421827000" lon="-2.467786000">
        <ele>463.40</ele>
        <time>2017-02-11T10:15:29Z</time>
      </trkpt>
      <trkpt lat="42.421867000" lon="-2.467757000">
        <ele>463.40</ele>
        <time>2017-02-11T10:15:30Z</time>
      </trkpt>
      <trkpt lat="42.421907000" lon="-2.467731000">
        <ele>463.40</ele>
        <time>2017-02-11T10:15:31Z</time>
      </trkpt>
      <trkpt lat="42.421948000" lon="-2.467708000">
        <ele>463.40</ele>
        <time>2017-02-11T10:15:32Z</time>
      </trkpt>
      <trkpt lat="42.421985000" lon="-2.467684000">
        <ele>463.50</ele>
        <time>2017-02-11T10:15:33Z</time>
      </trkpt>
      <trkpt lat="42.422019000" lon="-2.467660000">
        <ele>463.60</ele>
        <time>2017-02-11T10:15:34Z</time>
      </trkpt>
      <trkpt lat="42.422050000" lon="-2.467636000">
        <ele>463.60</ele>
        <time>2017-02-11T10:15:35Z</time>
      </trkpt>
      <trkpt lat="42.422083000" lon="-2.467614000">
        <ele>463.60</ele>
        <time>2017-02-11T10:15:36Z</time>
      </trkpt>
      <trkpt lat="42.422113000" lon="-2.467589000">
        <ele>463.60</ele>
        <time>2017-02-11T10:15:37Z</time>
      </trkpt>
      <trkpt lat="42.422144000" lon="-2.467562000">
        <ele>463.60</ele>
        <time>2017-02-11T10:15:38Z</time>
      </trkpt>
      <trkpt lat="42.422176000" lon="-2.467534000">
        <ele>463.60</ele>
        <time>2017-02-11T10:15:39Z</time>
      </trkpt>
      <trkpt lat="42.422241000" lon="-2.467482000">
        <ele>463.70</ele>
        <time>2017-02-11T10:15:41Z</time>
      </trkpt>
      <trkpt lat="42.422273000" lon="-2.467457000">
        <ele>463.70</ele>
        <time>2017-02-11T10:15:42Z</time>
      </trkpt>
      <trkpt lat="42.422306000" lon="-2.467430000">
        <ele>463.80</ele>
        <time>2017-02-11T10:15:43Z</time>
      </trkpt>
      <trkpt lat="42.422339000" lon="-2.467402000">
        <ele>463.80</ele>
        <time>2017-02-11T10:15:44Z</time>
      </trkpt>
      <trkpt lat="42.422371000" lon="-2.467372000">
        <ele>463.80</ele>
        <time>2017-02-11T10:15:45Z</time>
      </trkpt>
      <trkpt lat="42.422403000" lon="-2.467341000">
        <ele>463.80</ele>
        <time>2017-02-11T10:15:46Z</time>
      </trkpt>
      <trkpt lat="42.422435000" lon="-2.467312000">
        <ele>463.80</ele>
        <time>2017-02-11T10:15:47Z</time>
      </trkpt>
      <trkpt lat="42.422470000" lon="-2.467285000">
        <ele>463.80</ele>
        <time>2017-02-11T10:15:48Z</time>
      </trkpt>
      <trkpt lat="42.422504000" lon="-2.467259000">
        <ele>463.80</ele>
        <time>2017-02-11T10:15:49Z</time>
      </trkpt>
      <trkpt lat="42.422539000" lon="-2.467233000">
        <ele>463.90</ele>
        <time>2017-02-11T10:15:50Z</time>
      </trkpt>
      <trkpt lat="42.422574000" lon="-2.467207000">
        <ele>463.90</ele>
        <time>2017-02-11T10:15:51Z</time>
      </trkpt>
      <trkpt lat="42.422611000" lon="-2.467181000">
        <ele>464.00</ele>
        <time>2017-02-11T10:15:52Z</time>
      </trkpt>
      <trkpt lat="42.422647000" lon="-2.467153000">
        <ele>464.00</ele>
        <time>2017-02-11T10:15:53Z</time>
      </trkpt>
      <trkpt lat="42.422682000" lon="-2.467125000">
        <ele>464.00</ele>
        <time>2017-02-11T10:15:54Z</time>
      </trkpt>
      <trkpt lat="42.422718000" lon="-2.467097000">
        <ele>464.00</ele>
        <time>2017-02-11T10:15:55Z</time>
      </trkpt>
      <trkpt lat="42.422755000" lon="-2.467073000">
        <ele>464.00</ele>
        <time>2017-02-11T10:15:56Z</time>
      </trkpt>
      <trkpt lat="42.422793000" lon="-2.467049000">
        <ele>463.80</ele>
        <time>2017-02-11T10:15:57Z</time>
      </trkpt>
      <trkpt lat="42.422831000" lon="-2.467026000">
        <ele>463.70</ele>
        <time>2017-02-11T10:15:58Z</time>
      </trkpt>
      <trkpt lat="42.422868000" lon="-2.467003000">
        <ele>463.60</ele>
        <time>2017-02-11T10:15:59Z</time>
      </trkpt>
      <trkpt lat="42.422902000" lon="-2.466977000">
        <ele>463.50</ele>
        <time>2017-02-11T10:16:00Z</time>
      </trkpt>
      <trkpt lat="42.422939000" lon="-2.466951000">
        <ele>463.50</ele>
        <time>2017-02-11T10:16:01Z</time>
      </trkpt>
      <trkpt lat="42.422974000" lon="-2.466922000">
        <ele>463.40</ele>
        <time>2017-02-11T10:16:02Z</time>
      </trkpt>
      <trkpt lat="42.423011000" lon="-2.466894000">
        <ele>463.40</ele>
        <time>2017-02-11T10:16:03Z</time>
      </trkpt>
      <trkpt lat="42.423048000" lon="-2.466865000">
        <ele>463.40</ele>
        <time>2017-02-11T10:16:04Z</time>
      </trkpt>
      <trkpt lat="42.423085000" lon="-2.466836000">
        <ele>463.30</ele>
        <time>2017-02-11T10:16:05Z</time>
      </trkpt>
      <trkpt lat="42.423122000" lon="-2.466807000">
        <ele>463.30</ele>
        <time>2017-02-11T10:16:06Z</time>
      </trkpt>
      <trkpt lat="42.423161000" lon="-2.466780000">
        <ele>463.30</ele>
        <time>2017-02-11T10:16:07Z</time>
      </trkpt>
      <trkpt lat="42.423199000" lon="-2.466749000">
        <ele>463.20</ele>
        <time>2017-02-11T10:16:08Z</time>
      </trkpt>
      <trkpt lat="42.423237000" lon="-2.466719000">
        <ele>463.20</ele>
        <time>2017-02-11T10:16:09Z</time>
      </trkpt>
      <trkpt lat="42.423276000" lon="-2.466690000">
        <ele>463.20</ele>
        <time>2017-02-11T10:16:10Z</time>
      </trkpt>
      <trkpt lat="42.423314000" lon="-2.466657000">
        <ele>463.10</ele>
        <time>2017-02-11T10:16:11Z</time>
      </trkpt>
      <trkpt lat="42.423349000" lon="-2.466623000">
        <ele>463.10</ele>
        <time>2017-02-11T10:16:12Z</time>
      </trkpt>
      <trkpt lat="42.423385000" lon="-2.466587000">
        <ele>463.10</ele>
        <time>2017-02-11T10:16:13Z</time>
      </trkpt>
      <trkpt lat="42.423421000" lon="-2.466552000">
        <ele>463.00</ele>
        <time>2017-02-11T10:16:14Z</time>
      </trkpt>
      <trkpt lat="42.423455000" lon="-2.466512000">
        <ele>462.90</ele>
        <time>2017-02-11T10:16:15Z</time>
      </trkpt>
      <trkpt lat="42.423490000" lon="-2.466472000">
        <ele>462.90</ele>
        <time>2017-02-11T10:16:16Z</time>
      </trkpt>
      <trkpt lat="42.423526000" lon="-2.466430000">
        <ele>462.90</ele>
        <time>2017-02-11T10:16:17Z</time>
      </trkpt>
      <trkpt lat="42.423562000" lon="-2.466385000">
        <ele>462.80</ele>
        <time>2017-02-11T10:16:18Z</time>
      </trkpt>
      <trkpt lat="42.423597000" lon="-2.466341000">
        <ele>462.80</ele>
        <time>2017-02-11T10:16:19Z</time>
      </trkpt>
      <trkpt lat="42.423631000" lon="-2.466294000">
        <ele>462.60</ele>
        <time>2017-02-11T10:16:20Z</time>
      </trkpt>
      <trkpt lat="42.423665000" lon="-2.466246000">
        <ele>462.50</ele>
        <time>2017-02-11T10:16:21Z</time>
      </trkpt>
      <trkpt lat="42.423698000" lon="-2.466196000">
        <ele>462.30</ele>
        <time>2017-02-11T10:16:22Z</time>
      </trkpt>
      <trkpt lat="42.423731000" lon="-2.466144000">
        <ele>462.10</ele>
        <time>2017-02-11T10:16:23Z</time>
      </trkpt>
      <trkpt lat="42.423765000" lon="-2.466091000">
        <ele>462.00</ele>
        <time>2017-02-11T10:16:24Z</time>
      </trkpt>
      <trkpt lat="42.423798000" lon="-2.466032000">
        <ele>462.00</ele>
        <time>2017-02-11T10:16:25Z</time>
      </trkpt>
      <trkpt lat="42.423832000" lon="-2.465970000">
        <ele>461.70</ele>
        <time>2017-02-11T10:16:26Z</time>
      </trkpt>
      <trkpt lat="42.423866000" lon="-2.465909000">
        <ele>461.60</ele>
        <time>2017-02-11T10:16:27Z</time>
      </trkpt>
      <trkpt lat="42.423902000" lon="-2.465850000">
        <ele>461.40</ele>
        <time>2017-02-11T10:16:28Z</time>
      </trkpt>
      <trkpt lat="42.423939000" lon="-2.465793000">
        <ele>461.20</ele>
        <time>2017-02-11T10:16:29Z</time>
      </trkpt>
      <trkpt lat="42.423975000" lon="-2.465733000">
        <ele>460.90</ele>
        <time>2017-02-11T10:16:30Z</time>
      </trkpt>
      <trkpt lat="42.424012000" lon="-2.465672000">
        <ele>460.70</ele>
        <time>2017-02-11T10:16:31Z</time>
      </trkpt>
      <trkpt lat="42.424048000" lon="-2.465606000">
        <ele>460.40</ele>
        <time>2017-02-11T10:16:32Z</time>
      </trkpt>
      <trkpt lat="42.424086000" lon="-2.465541000">
        <ele>460.20</ele>
        <time>2017-02-11T10:16:33Z</time>
      </trkpt>
      <trkpt lat="42.424123000" lon="-2.465473000">
        <ele>459.90</ele>
        <time>2017-02-11T10:16:34Z</time>
      </trkpt>
      <trkpt lat="42.424160000" lon="-2.465406000">
        <ele>459.70</ele>
        <time>2017-02-11T10:16:35Z</time>
      </trkpt>
      <trkpt lat="42.424198000" lon="-2.465339000">
        <ele>459.40</ele>
        <time>2017-02-11T10:16:36Z</time>
      </trkpt>
      <trkpt lat="42.424235000" lon="-2.465269000">
        <ele>459.20</ele>
        <time>2017-02-11T10:16:37Z</time>
      </trkpt>
      <trkpt lat="42.424273000" lon="-2.465196000">
        <ele>458.70</ele>
        <time>2017-02-11T10:16:38Z</time>
      </trkpt>
      <trkpt lat="42.424311000" lon="-2.465125000">
        <ele>458.30</ele>
        <time>2017-02-11T10:16:39Z</time>
      </trkpt>
      <trkpt lat="42.424352000" lon="-2.465053000">
        <ele>458.00</ele>
        <time>2017-02-11T10:16:40Z</time>
      </trkpt>
      <trkpt lat="42.424439000" lon="-2.464916000">
        <ele>457.30</ele>
        <time>2017-02-11T10:16:42Z</time>
      </trkpt>
      <trkpt lat="42.424485000" lon="-2.464851000">
        <ele>457.00</ele>
        <time>2017-02-11T10:16:43Z</time>
      </trkpt>
      <trkpt lat="42.424535000" lon="-2.464788000">
        <ele>456.70</ele>
        <time>2017-02-11T10:16:44Z</time>
      </trkpt>
      <trkpt lat="42.424591000" lon="-2.464728000">
        <ele>456.50</ele>
        <time>2017-02-11T10:16:45Z</time>
      </trkpt>
      <trkpt lat="42.424652000" lon="-2.464671000">
        <ele>456.40</ele>
        <time>2017-02-11T10:16:46Z</time>
      </trkpt>
      <trkpt lat="42.424711000" lon="-2.464620000">
        <ele>456.30</ele>
        <time>2017-02-11T10:16:47Z</time>
      </trkpt>
      <trkpt lat="42.424774000" lon="-2.464575000">
        <ele>455.90</ele>
        <time>2017-02-11T10:16:48Z</time>
      </trkpt>
      <trkpt lat="42.424837000" lon="-2.464530000">
        <ele>455.50</ele>
        <time>2017-02-11T10:16:49Z</time>
      </trkpt>
      <trkpt lat="42.424905000" lon="-2.464486000">
        <ele>454.90</ele>
        <time>2017-02-11T10:16:50Z</time>
      </trkpt>
      <trkpt lat="42.424974000" lon="-2.464445000">
        <ele>454.50</ele>
        <time>2017-02-11T10:16:51Z</time>
      </trkpt>
      <trkpt lat="42.425046000" lon="-2.464400000">
        <ele>454.00</ele>
        <time>2017-02-11T10:16:52Z</time>
      </trkpt>
      <trkpt lat="42.425122000" lon="-2.464347000">
        <ele>453.70</ele>
        <time>2017-02-11T10:16:53Z</time>
      </trkpt>
      <trkpt lat="42.425198000" lon="-2.464298000">
        <ele>453.10</ele>
        <time>2017-02-11T10:16:54Z</time>
      </trkpt>
      <trkpt lat="42.425270000" lon="-2.464246000">
        <ele>452.60</ele>
        <time>2017-02-11T10:16:55Z</time>
      </trkpt>
      <trkpt lat="42.425345000" lon="-2.464191000">
        <ele>452.00</ele>
        <time>2017-02-11T10:16:56Z</time>
      </trkpt>
      <trkpt lat="42.425420000" lon="-2.464134000">
        <ele>451.60</ele>
        <time>2017-02-11T10:16:57Z</time>
      </trkpt>
      <trkpt lat="42.425497000" lon="-2.464081000">
        <ele>450.80</ele>
        <time>2017-02-11T10:16:58Z</time>
      </trkpt>
      <trkpt lat="42.425575000" lon="-2.464030000">
        <ele>450.10</ele>
        <time>2017-02-11T10:16:59Z</time>
      </trkpt>
      <trkpt lat="42.425651000" lon="-2.463980000">
        <ele>449.40</ele>
        <time>2017-02-11T10:17:00Z</time>
      </trkpt>
      <trkpt lat="42.425723000" lon="-2.463937000">
        <ele>448.90</ele>
        <time>2017-02-11T10:17:01Z</time>
      </trkpt>
      <trkpt lat="42.425782000" lon="-2.463888000">
        <ele>448.40</ele>
        <time>2017-02-11T10:17:02Z</time>
      </trkpt>
      <trkpt lat="42.425840000" lon="-2.463848000">
        <ele>448.10</ele>
        <time>2017-02-11T10:17:03Z</time>
      </trkpt>
      <trkpt lat="42.425891000" lon="-2.463812000">
        <ele>447.80</ele>
        <time>2017-02-11T10:17:04Z</time>
      </trkpt>
      <trkpt lat="42.425946000" lon="-2.463779000">
        <ele>447.50</ele>
        <time>2017-02-11T10:17:05Z</time>
      </trkpt>
      <trkpt lat="42.426008000" lon="-2.463741000">
        <ele>447.20</ele>
        <time>2017-02-11T10:17:06Z</time>
      </trkpt>
      <trkpt lat="42.426072000" lon="-2.463701000">
        <ele>446.90</ele>
        <time>2017-02-11T10:17:07Z</time>
      </trkpt>
      <trkpt lat="42.426137000" lon="-2.463655000">
        <ele>446.60</ele>
        <time>2017-02-11T10:17:08Z</time>
      </trkpt>
      <trkpt lat="42.426205000" lon="-2.463608000">
        <ele>446.40</ele>
        <time>2017-02-11T10:17:09Z</time>
      </trkpt>
      <trkpt lat="42.426279000" lon="-2.463560000">
        <ele>446.20</ele>
        <time>2017-02-11T10:17:10Z</time>
      </trkpt>
      <trkpt lat="42.426347000" lon="-2.463519000">
        <ele>445.80</ele>
        <time>2017-02-11T10:17:11Z</time>
      </trkpt>
      <trkpt lat="42.426416000" lon="-2.463477000">
        <ele>445.50</ele>
        <time>2017-02-11T10:17:12Z</time>
      </trkpt>
      <trkpt lat="42.426481000" lon="-2.463430000">
        <ele>445.20</ele>
        <time>2017-02-11T10:17:13Z</time>
      </trkpt>
      <trkpt lat="42.426544000" lon="-2.463382000">
        <ele>444.90</ele>
        <time>2017-02-11T10:17:14Z</time>
      </trkpt>
      <trkpt lat="42.426606000" lon="-2.463339000">
        <ele>444.70</ele>
        <time>2017-02-11T10:17:15Z</time>
      </trkpt>
      <trkpt lat="42.426667000" lon="-2.463294000">
        <ele>444.50</ele>
        <time>2017-02-11T10:17:16Z</time>
      </trkpt>
      <trkpt lat="42.426725000" lon="-2.463246000">
        <ele>444.30</ele>
        <time>2017-02-11T10:17:17Z</time>
      </trkpt>
      <trkpt lat="42.426779000" lon="-2.463188000">
        <ele>444.20</ele>
        <time>2017-02-11T10:17:18Z</time>
      </trkpt>
      <trkpt lat="42.426835000" lon="-2.463133000">
        <ele>444.10</ele>
        <time>2017-02-11T10:17:19Z</time>
      </trkpt>
      <trkpt lat="42.426878000" lon="-2.463063000">
        <ele>444.00</ele>
        <time>2017-02-11T10:17:20Z</time>
      </trkpt>
      <trkpt lat="42.426912000" lon="-2.462982000">
        <ele>443.80</ele>
        <time>2017-02-11T10:17:21Z</time>
      </trkpt>
      <trkpt lat="42.426944000" lon="-2.462898000">
        <ele>443.70</ele>
        <time>2017-02-11T10:17:22Z</time>
      </trkpt>
      <trkpt lat="42.426973000" lon="-2.462811000">
        <ele>443.40</ele>
        <time>2017-02-11T10:17:23Z</time>
      </trkpt>
      <trkpt lat="42.427004000" lon="-2.462721000">
        <ele>443.20</ele>
        <time>2017-02-11T10:17:24Z</time>
      </trkpt>
      <trkpt lat="42.427035000" lon="-2.462636000">
        <ele>443.00</ele>
        <time>2017-02-11T10:17:25Z</time>
      </trkpt>
      <trkpt lat="42.427074000" lon="-2.462565000">
        <ele>442.80</ele>
        <time>2017-02-11T10:17:26Z</time>
      </trkpt>
      <trkpt lat="42.427112000" lon="-2.462494000">
        <ele>442.30</ele>
        <time>2017-02-11T10:17:27Z</time>
      </trkpt>
      <trkpt lat="42.427153000" lon="-2.462426000">
        <ele>441.90</ele>
        <time>2017-02-11T10:17:28Z</time>
      </trkpt>
      <trkpt lat="42.427193000" lon="-2.462349000">
        <ele>441.60</ele>
        <time>2017-02-11T10:17:29Z</time>
      </trkpt>
      <trkpt lat="42.427227000" lon="-2.462269000">
        <ele>441.30</ele>
        <time>2017-02-11T10:17:30Z</time>
      </trkpt>
      <trkpt lat="42.427262000" lon="-2.462196000">
        <ele>441.10</ele>
        <time>2017-02-11T10:17:31Z</time>
      </trkpt>
      <trkpt lat="42.427295000" lon="-2.462124000">
        <ele>441.10</ele>
        <time>2017-02-11T10:17:32Z</time>
      </trkpt>
      <trkpt lat="42.427327000" lon="-2.462050000">
        <ele>441.10</ele>
        <time>2017-02-11T10:17:33Z</time>
      </trkpt>
      <trkpt lat="42.427360000" lon="-2.461975000">
        <ele>440.90</ele>
        <time>2017-02-11T10:17:34Z</time>
      </trkpt>
      <trkpt lat="42.427400000" lon="-2.461917000">
        <ele>440.80</ele>
        <time>2017-02-11T10:17:35Z</time>
      </trkpt>
      <trkpt lat="42.427444000" lon="-2.461869000">
        <ele>440.80</ele>
        <time>2017-02-11T10:17:36Z</time>
      </trkpt>
      <trkpt lat="42.427491000" lon="-2.461831000">
        <ele>440.80</ele>
        <time>2017-02-11T10:17:37Z</time>
      </trkpt>
      <trkpt lat="42.427534000" lon="-2.461786000">
        <ele>440.60</ele>
        <time>2017-02-11T10:17:38Z</time>
      </trkpt>
      <trkpt lat="42.427575000" lon="-2.461735000">
        <ele>440.40</ele>
        <time>2017-02-11T10:17:39Z</time>
      </trkpt>
      <trkpt lat="42.427615000" lon="-2.461679000">
        <ele>440.20</ele>
        <time>2017-02-11T10:17:40Z</time>
      </trkpt>
      <trkpt lat="42.427653000" lon="-2.461625000">
        <ele>440.10</ele>
        <time>2017-02-11T10:17:41Z</time>
      </trkpt>
      <trkpt lat="42.427715000" lon="-2.461504000">
        <ele>439.90</ele>
        <time>2017-02-11T10:17:43Z</time>
      </trkpt>
      <trkpt lat="42.427749000" lon="-2.461446000">
        <ele>439.90</ele>
        <time>2017-02-11T10:17:44Z</time>
      </trkpt>
      <trkpt lat="42.427781000" lon="-2.461393000">
        <ele>439.90</ele>
        <time>2017-02-11T10:17:45Z</time>
      </trkpt>
      <trkpt lat="42.427815000" lon="-2.461346000">
        <ele>439.90</ele>
        <time>2017-02-11T10:17:46Z</time>
      </trkpt>
      <trkpt lat="42.427836000" lon="-2.461290000">
        <ele>439.80</ele>
        <time>2017-02-11T10:17:47Z</time>
      </trkpt>
      <trkpt lat="42.427855000" lon="-2.461229000">
        <ele>439.60</ele>
        <time>2017-02-11T10:17:48Z</time>
      </trkpt>
      <trkpt lat="42.427884000" lon="-2.461169000">
        <ele>439.30</ele>
        <time>2017-02-11T10:17:49Z</time>
      </trkpt>
      <trkpt lat="42.427911000" lon="-2.461109000">
        <ele>439.20</ele>
        <time>2017-02-11T10:17:50Z</time>
      </trkpt>
      <trkpt lat="42.427942000" lon="-2.461050000">
        <ele>439.10</ele>
        <time>2017-02-11T10:17:51Z</time>
      </trkpt>
      <trkpt lat="42.427972000" lon="-2.460988000">
        <ele>439.00</ele>
        <time>2017-02-11T10:17:52Z</time>
      </trkpt>
      <trkpt lat="42.427999000" lon="-2.460925000">
        <ele>438.90</ele>
        <time>2017-02-11T10:17:53Z</time>
      </trkpt>
      <trkpt lat="42.428031000" lon="-2.460871000">
        <ele>438.70</ele>
        <time>2017-02-11T10:17:54Z</time>
      </trkpt>
      <trkpt lat="42.428058000" lon="-2.460809000">
        <ele>438.50</ele>
        <time>2017-02-11T10:17:55Z</time>
      </trkpt>
      <trkpt lat="42.428087000" lon="-2.460758000">
        <ele>438.20</ele>
        <time>2017-02-11T10:17:56Z</time>
      </trkpt>
      <trkpt lat="42.428108000" lon="-2.460700000">
        <ele>438.00</ele>
        <time>2017-02-11T10:17:57Z</time>
      </trkpt>
      <trkpt lat="42.428129000" lon="-2.460636000">
        <ele>437.70</ele>
        <time>2017-02-11T10:17:58Z</time>
      </trkpt>
      <trkpt lat="42.428159000" lon="-2.460569000">
        <ele>437.40</ele>
        <time>2017-02-11T10:17:59Z</time>
      </trkpt>
      <trkpt lat="42.428205000" lon="-2.460513000">
        <ele>436.80</ele>
        <time>2017-02-11T10:18:00Z</time>
      </trkpt>
      <trkpt lat="42.428259000" lon="-2.460465000">
        <ele>436.20</ele>
        <time>2017-02-11T10:18:01Z</time>
      </trkpt>
      <trkpt lat="42.428326000" lon="-2.460423000">
        <ele>435.60</ele>
        <time>2017-02-11T10:18:02Z</time>
      </trkpt>
      <trkpt lat="42.428398000" lon="-2.460387000">
        <ele>435.10</ele>
        <time>2017-02-11T10:18:03Z</time>
      </trkpt>
      <trkpt lat="42.428476000" lon="-2.460358000">
        <ele>434.80</ele>
        <time>2017-02-11T10:18:04Z</time>
      </trkpt>
      <trkpt lat="42.428555000" lon="-2.460341000">
        <ele>433.90</ele>
        <time>2017-02-11T10:18:05Z</time>
      </trkpt>
      <trkpt lat="42.428629000" lon="-2.460340000">
        <ele>433.30</ele>
        <time>2017-02-11T10:18:06Z</time>
      </trkpt>
      <trkpt lat="42.428703000" lon="-2.460343000">
        <ele>432.80</ele>
        <time>2017-02-11T10:18:07Z</time>
      </trkpt>
      <trkpt lat="42.428777000" lon="-2.460346000">
        <ele>432.50</ele>
        <time>2017-02-11T10:18:08Z</time>
      </trkpt>
      <trkpt lat="42.428854000" lon="-2.460354000">
        <ele>432.20</ele>
        <time>2017-02-11T10:18:09Z</time>
      </trkpt>
      <trkpt lat="42.428926000" lon="-2.460369000">
        <ele>432.00</ele>
        <time>2017-02-11T10:18:10Z</time>
      </trkpt>
      <trkpt lat="42.428991000" lon="-2.460381000">
        <ele>432.00</ele>
        <time>2017-02-11T10:18:11Z</time>
      </trkpt>
      <trkpt lat="42.429060000" lon="-2.460404000">
        <ele>432.00</ele>
        <time>2017-02-11T10:18:12Z</time>
      </trkpt>
      <trkpt lat="42.429130000" lon="-2.460431000">
        <ele>431.70</ele>
        <time>2017-02-11T10:18:13Z</time>
      </trkpt>
      <trkpt lat="42.429196000" lon="-2.460461000">
        <ele>431.50</ele>
        <time>2017-02-11T10:18:14Z</time>
      </trkpt>
      <trkpt lat="42.429258000" lon="-2.460493000">
        <ele>431.00</ele>
        <time>2017-02-11T10:18:15Z</time>
      </trkpt>
      <trkpt lat="42.429320000" lon="-2.460528000">
        <ele>430.70</ele>
        <time>2017-02-11T10:18:16Z</time>
      </trkpt>
      <trkpt lat="42.429383000" lon="-2.460566000">
        <ele>430.20</ele>
        <time>2017-02-11T10:18:17Z</time>
      </trkpt>
      <trkpt lat="42.429449000" lon="-2.460609000">
        <ele>429.90</ele>
        <time>2017-02-11T10:18:18Z</time>
      </trkpt>
      <trkpt lat="42.429514000" lon="-2.460653000">
        <ele>429.60</ele>
        <time>2017-02-11T10:18:19Z</time>
      </trkpt>
      <trkpt lat="42.429576000" lon="-2.460693000">
        <ele>429.40</ele>
        <time>2017-02-11T10:18:20Z</time>
      </trkpt>
      <trkpt lat="42.429636000" lon="-2.460733000">
        <ele>429.20</ele>
        <time>2017-02-11T10:18:21Z</time>
      </trkpt>
      <trkpt lat="42.429696000" lon="-2.460776000">
        <ele>429.10</ele>
        <time>2017-02-11T10:18:22Z</time>
      </trkpt>
      <trkpt lat="42.429756000" lon="-2.460814000">
        <ele>428.80</ele>
        <time>2017-02-11T10:18:23Z</time>
      </trkpt>
      <trkpt lat="42.429818000" lon="-2.460850000">
        <ele>428.50</ele>
        <time>2017-02-11T10:18:24Z</time>
      </trkpt>
      <trkpt lat="42.429880000" lon="-2.460884000">
        <ele>428.40</ele>
        <time>2017-02-11T10:18:25Z</time>
      </trkpt>
      <trkpt lat="42.429942000" lon="-2.460916000">
        <ele>428.20</ele>
        <time>2017-02-11T10:18:26Z</time>
      </trkpt>
      <trkpt lat="42.430005000" lon="-2.460943000">
        <ele>428.30</ele>
        <time>2017-02-11T10:18:27Z</time>
      </trkpt>
      <trkpt lat="42.430067000" lon="-2.460968000">
        <ele>428.40</ele>
        <time>2017-02-11T10:18:28Z</time>
      </trkpt>
      <trkpt lat="42.430129000" lon="-2.460988000">
        <ele>428.50</ele>
        <time>2017-02-11T10:18:29Z</time>
      </trkpt>
      <trkpt lat="42.430189000" lon="-2.461007000">
        <ele>428.50</ele>
        <time>2017-02-11T10:18:30Z</time>
      </trkpt>
      <trkpt lat="42.430249000" lon="-2.461029000">
        <ele>428.20</ele>
        <time>2017-02-11T10:18:31Z</time>
      </trkpt>
      <trkpt lat="42.430307000" lon="-2.461051000">
        <ele>428.00</ele>
        <time>2017-02-11T10:18:32Z</time>
      </trkpt>
      <trkpt lat="42.430359000" lon="-2.461081000">
        <ele>427.80</ele>
        <time>2017-02-11T10:18:33Z</time>
      </trkpt>
      <trkpt lat="42.430409000" lon="-2.461111000">
        <ele>427.70</ele>
        <time>2017-02-11T10:18:34Z</time>
      </trkpt>
      <trkpt lat="42.430458000" lon="-2.461140000">
        <ele>427.60</ele>
        <time>2017-02-11T10:18:35Z</time>
      </trkpt>
      <trkpt lat="42.430510000" lon="-2.461163000">
        <ele>427.50</ele>
        <time>2017-02-11T10:18:36Z</time>
      </trkpt>
      <trkpt lat="42.430562000" lon="-2.461184000">
        <ele>427.70</ele>
        <time>2017-02-11T10:18:37Z</time>
      </trkpt>
      <trkpt lat="42.430615000" lon="-2.461195000">
        <ele>427.80</ele>
        <time>2017-02-11T10:18:38Z</time>
      </trkpt>
      <trkpt lat="42.430665000" lon="-2.461205000">
        <ele>428.00</ele>
        <time>2017-02-11T10:18:39Z</time>
      </trkpt>
      <trkpt lat="42.430716000" lon="-2.461207000">
        <ele>428.20</ele>
        <time>2017-02-11T10:18:40Z</time>
      </trkpt>
      <trkpt lat="42.430767000" lon="-2.461210000">
        <ele>428.30</ele>
        <time>2017-02-11T10:18:41Z</time>
      </trkpt>
      <trkpt lat="42.430813000" lon="-2.461200000">
        <ele>428.40</ele>
        <time>2017-02-11T10:18:42Z</time>
      </trkpt>
      <trkpt lat="42.430906000" lon="-2.461155000">
        <ele>428.40</ele>
        <time>2017-02-11T10:18:44Z</time>
      </trkpt>
      <trkpt lat="42.430950000" lon="-2.461128000">
        <ele>428.40</ele>
        <time>2017-02-11T10:18:45Z</time>
      </trkpt>
      <trkpt lat="42.430989000" lon="-2.461096000">
        <ele>428.40</ele>
        <time>2017-02-11T10:18:46Z</time>
      </trkpt>
      <trkpt lat="42.431026000" lon="-2.461063000">
        <ele>428.40</ele>
        <time>2017-02-11T10:18:47Z</time>
      </trkpt>
      <trkpt lat="42.431066000" lon="-2.461035000">
        <ele>428.50</ele>
        <time>2017-02-11T10:18:48Z</time>
      </trkpt>
      <trkpt lat="42.431104000" lon="-2.461012000">
        <ele>428.80</ele>
        <time>2017-02-11T10:18:49Z</time>
      </trkpt>
      <trkpt lat="42.431147000" lon="-2.460997000">
        <ele>429.00</ele>
        <time>2017-02-11T10:18:50Z</time>
      </trkpt>
      <trkpt lat="42.431187000" lon="-2.460987000">
        <ele>429.20</ele>
        <time>2017-02-11T10:18:51Z</time>
      </trkpt>
      <trkpt lat="42.431229000" lon="-2.460986000">
        <ele>429.30</ele>
        <time>2017-02-11T10:18:52Z</time>
      </trkpt>
      <trkpt lat="42.431271000" lon="-2.460985000">
        <ele>429.30</ele>
        <time>2017-02-11T10:18:53Z</time>
      </trkpt>
      <trkpt lat="42.431314000" lon="-2.460983000">
        <ele>429.40</ele>
        <time>2017-02-11T10:18:54Z</time>
      </trkpt>
      <trkpt lat="42.431358000" lon="-2.460986000">
        <ele>429.20</ele>
        <time>2017-02-11T10:18:55Z</time>
      </trkpt>
      <trkpt lat="42.431405000" lon="-2.460988000">
        <ele>429.20</ele>
        <time>2017-02-11T10:18:56Z</time>
      </trkpt>
      <trkpt lat="42.431451000" lon="-2.460989000">
        <ele>429.20</ele>
        <time>2017-02-11T10:18:57Z</time>
      </trkpt>
      <trkpt lat="42.431498000" lon="-2.460988000">
        <ele>429.20</ele>
        <time>2017-02-11T10:18:58Z</time>
      </trkpt>
      <trkpt lat="42.431545000" lon="-2.460988000">
        <ele>429.20</ele>
        <time>2017-02-11T10:18:59Z</time>
      </trkpt>
      <trkpt lat="42.431591000" lon="-2.460987000">
        <ele>429.20</ele>
        <time>2017-02-11T10:19:00Z</time>
      </trkpt>
      <trkpt lat="42.431640000" lon="-2.460985000">
        <ele>429.30</ele>
        <time>2017-02-11T10:19:01Z</time>
      </trkpt>
      <trkpt lat="42.431687000" lon="-2.460984000">
        <ele>429.30</ele>
        <time>2017-02-11T10:19:02Z</time>
      </trkpt>
      <trkpt lat="42.431735000" lon="-2.460981000">
        <ele>429.30</ele>
        <time>2017-02-11T10:19:03Z</time>
      </trkpt>
      <trkpt lat="42.431778000" lon="-2.460980000">
        <ele>429.40</ele>
        <time>2017-02-11T10:19:04Z</time>
      </trkpt>
      <trkpt lat="42.431823000" lon="-2.460976000">
        <ele>429.40</ele>
        <time>2017-02-11T10:19:05Z</time>
      </trkpt>
      <trkpt lat="42.431865000" lon="-2.460973000">
        <ele>429.10</ele>
        <time>2017-02-11T10:19:06Z</time>
      </trkpt>
      <trkpt lat="42.431908000" lon="-2.460979000">
        <ele>428.80</ele>
        <time>2017-02-11T10:19:07Z</time>
      </trkpt>
      <trkpt lat="42.431952000" lon="-2.460983000">
        <ele>428.60</ele>
        <time>2017-02-11T10:19:08Z</time>
      </trkpt>
      <trkpt lat="42.431999000" lon="-2.460985000">
        <ele>428.40</ele>
        <time>2017-02-11T10:19:09Z</time>
      </trkpt>
      <trkpt lat="42.432047000" lon="-2.460979000">
        <ele>428.30</ele>
        <time>2017-02-11T10:19:10Z</time>
      </trkpt>
      <trkpt lat="42.432096000" lon="-2.460968000">
        <ele>428.30</ele>
        <time>2017-02-11T10:19:11Z</time>
      </trkpt>
      <trkpt lat="42.432150000" lon="-2.460949000">
        <ele>428.20</ele>
        <time>2017-02-11T10:19:12Z</time>
      </trkpt>
      <trkpt lat="42.432206000" lon="-2.460926000">
        <ele>428.10</ele>
        <time>2017-02-11T10:19:13Z</time>
      </trkpt>
      <trkpt lat="42.432263000" lon="-2.460894000">
        <ele>427.80</ele>
        <time>2017-02-11T10:19:14Z</time>
      </trkpt>
      <trkpt lat="42.432316000" lon="-2.460859000">
        <ele>427.60</ele>
        <time>2017-02-11T10:19:15Z</time>
      </trkpt>
      <trkpt lat="42.432365000" lon="-2.460819000">
        <ele>427.10</ele>
        <time>2017-02-11T10:19:16Z</time>
      </trkpt>
      <trkpt lat="42.432409000" lon="-2.460781000">
        <ele>426.70</ele>
        <time>2017-02-11T10:19:17Z</time>
      </trkpt>
      <trkpt lat="42.432450000" lon="-2.460751000">
        <ele>426.10</ele>
        <time>2017-02-11T10:19:18Z</time>
      </trkpt>
      <trkpt lat="42.432492000" lon="-2.460722000">
        <ele>425.60</ele>
        <time>2017-02-11T10:19:19Z</time>
      </trkpt>
      <trkpt lat="42.432547000" lon="-2.460717000">
        <ele>424.90</ele>
        <time>2017-02-11T10:19:20Z</time>
      </trkpt>
      <trkpt lat="42.432599000" lon="-2.460657000">
        <ele>424.40</ele>
        <time>2017-02-11T10:19:21Z</time>
      </trkpt>
      <trkpt lat="42.432664000" lon="-2.460641000">
        <ele>424.00</ele>
        <time>2017-02-11T10:19:22Z</time>
      </trkpt>
      <trkpt lat="42.432731000" lon="-2.460638000">
        <ele>423.80</ele>
        <time>2017-02-11T10:19:23Z</time>
      </trkpt>
      <trkpt lat="42.432800000" lon="-2.460640000">
        <ele>423.50</ele>
        <time>2017-02-11T10:19:24Z</time>
      </trkpt>
      <trkpt lat="42.433150000" lon="-2.460711000">
        <ele>423.00</ele>
        <time>2017-02-11T10:19:29Z</time>
      </trkpt>
      <trkpt lat="42.433393000" lon="-2.460629000">
        <ele>423.90</ele>
        <time>2017-02-11T10:19:34Z</time>
      </trkpt>
      <trkpt lat="42.433428000" lon="-2.460586000">
        <ele>424.10</ele>
        <time>2017-02-11T10:19:35Z</time>
      </trkpt>
      <trkpt lat="42.433458000" lon="-2.460535000">
        <ele>424.20</ele>
        <time>2017-02-11T10:19:36Z</time>
      </trkpt>
      <trkpt lat="42.433488000" lon="-2.460494000">
        <ele>424.20</ele>
        <time>2017-02-11T10:19:37Z</time>
      </trkpt>
      <trkpt lat="42.433524000" lon="-2.460446000">
        <ele>424.20</ele>
        <time>2017-02-11T10:19:38Z</time>
      </trkpt>
      <trkpt lat="42.433555000" lon="-2.460383000">
        <ele>424.10</ele>
        <time>2017-02-11T10:19:39Z</time>
      </trkpt>
      <trkpt lat="42.433583000" lon="-2.460329000">
        <ele>424.10</ele>
        <time>2017-02-11T10:19:40Z</time>
      </trkpt>
      <trkpt lat="42.433609000" lon="-2.460275000">
        <ele>424.00</ele>
        <time>2017-02-11T10:19:41Z</time>
      </trkpt>
      <trkpt lat="42.433634000" lon="-2.460219000">
        <ele>424.10</ele>
        <time>2017-02-11T10:19:42Z</time>
      </trkpt>
      <trkpt lat="42.433664000" lon="-2.460169000">
        <ele>424.10</ele>
        <time>2017-02-11T10:19:43Z</time>
      </trkpt>
      <trkpt lat="42.433736000" lon="-2.460077000">
        <ele>424.20</ele>
        <time>2017-02-11T10:19:45Z</time>
      </trkpt>
      <trkpt lat="42.433779000" lon="-2.460039000">
        <ele>424.20</ele>
        <time>2017-02-11T10:19:46Z</time>
      </trkpt>
      <trkpt lat="42.433822000" lon="-2.460006000">
        <ele>424.20</ele>
        <time>2017-02-11T10:19:47Z</time>
      </trkpt>
      <trkpt lat="42.433864000" lon="-2.459975000">
        <ele>424.20</ele>
        <time>2017-02-11T10:19:48Z</time>
      </trkpt>
      <trkpt lat="42.433912000" lon="-2.459947000">
        <ele>424.20</ele>
        <time>2017-02-11T10:19:49Z</time>
      </trkpt>
      <trkpt lat="42.433959000" lon="-2.459923000">
        <ele>423.90</ele>
        <time>2017-02-11T10:19:50Z</time>
      </trkpt>
      <trkpt lat="42.434003000" lon="-2.459899000">
        <ele>423.70</ele>
        <time>2017-02-11T10:19:51Z</time>
      </trkpt>
      <trkpt lat="42.434040000" lon="-2.459864000">
        <ele>423.50</ele>
        <time>2017-02-11T10:19:52Z</time>
      </trkpt>
      <trkpt lat="42.434060000" lon="-2.459812000">
        <ele>423.40</ele>
        <time>2017-02-11T10:19:53Z</time>
      </trkpt>
      <trkpt lat="42.434062000" lon="-2.459754000">
        <ele>423.30</ele>
        <time>2017-02-11T10:19:54Z</time>
      </trkpt>
      <trkpt lat="42.434048000" lon="-2.459688000">
        <ele>423.20</ele>
        <time>2017-02-11T10:19:55Z</time>
      </trkpt>
      <trkpt lat="42.434032000" lon="-2.459617000">
        <ele>423.10</ele>
        <time>2017-02-11T10:19:56Z</time>
      </trkpt>
      <trkpt lat="42.434018000" lon="-2.459547000">
        <ele>423.10</ele>
        <time>2017-02-11T10:19:57Z</time>
      </trkpt>
      <trkpt lat="42.434002000" lon="-2.459478000">
        <ele>422.90</ele>
        <time>2017-02-11T10:19:58Z</time>
      </trkpt>
      <trkpt lat="42.433990000" lon="-2.459406000">
        <ele>422.80</ele>
        <time>2017-02-11T10:19:59Z</time>
      </trkpt>
      <trkpt lat="42.433976000" lon="-2.459332000">
        <ele>422.60</ele>
        <time>2017-02-11T10:20:00Z</time>
      </trkpt>
      <trkpt lat="42.433961000" lon="-2.459261000">
        <ele>422.40</ele>
        <time>2017-02-11T10:20:01Z</time>
      </trkpt>
      <trkpt lat="42.433948000" lon="-2.459193000">
        <ele>422.30</ele>
        <time>2017-02-11T10:20:02Z</time>
      </trkpt>
      <trkpt lat="42.433934000" lon="-2.459127000">
        <ele>422.20</ele>
        <time>2017-02-11T10:20:03Z</time>
      </trkpt>
      <trkpt lat="42.433924000" lon="-2.459060000">
        <ele>422.20</ele>
        <time>2017-02-11T10:20:04Z</time>
      </trkpt>
      <trkpt lat="42.433915000" lon="-2.458995000">
        <ele>422.10</ele>
        <time>2017-02-11T10:20:05Z</time>
      </trkpt>
      <trkpt lat="42.433905000" lon="-2.458931000">
        <ele>422.10</ele>
        <time>2017-02-11T10:20:06Z</time>
      </trkpt>
      <trkpt lat="42.433896000" lon="-2.458870000">
        <ele>422.00</ele>
        <time>2017-02-11T10:20:07Z</time>
      </trkpt>
      <trkpt lat="42.433897000" lon="-2.458817000">
        <ele>422.00</ele>
        <time>2017-02-11T10:20:08Z</time>
      </trkpt>
      <trkpt lat="42.433912000" lon="-2.458768000">
        <ele>422.00</ele>
        <time>2017-02-11T10:20:09Z</time>
      </trkpt>
      <trkpt lat="42.433941000" lon="-2.458733000">
        <ele>422.00</ele>
        <time>2017-02-11T10:20:10Z</time>
      </trkpt>
      <trkpt lat="42.433980000" lon="-2.458711000">
        <ele>422.00</ele>
        <time>2017-02-11T10:20:11Z</time>
      </trkpt>
      <trkpt lat="42.434024000" lon="-2.458696000">
        <ele>422.00</ele>
        <time>2017-02-11T10:20:12Z</time>
      </trkpt>
      <trkpt lat="42.434070000" lon="-2.458683000">
        <ele>422.00</ele>
        <time>2017-02-11T10:20:13Z</time>
      </trkpt>
      <trkpt lat="42.434118000" lon="-2.458672000">
        <ele>421.80</ele>
        <time>2017-02-11T10:20:14Z</time>
      </trkpt>
      <trkpt lat="42.434166000" lon="-2.458660000">
        <ele>421.70</ele>
        <time>2017-02-11T10:20:15Z</time>
      </trkpt>
      <trkpt lat="42.434214000" lon="-2.458647000">
        <ele>421.70</ele>
        <time>2017-02-11T10:20:16Z</time>
      </trkpt>
      <trkpt lat="42.434265000" lon="-2.458632000">
        <ele>421.60</ele>
        <time>2017-02-11T10:20:17Z</time>
      </trkpt>
      <trkpt lat="42.434316000" lon="-2.458618000">
        <ele>421.50</ele>
        <time>2017-02-11T10:20:18Z</time>
      </trkpt>
      <trkpt lat="42.434366000" lon="-2.458603000">
        <ele>421.40</ele>
        <time>2017-02-11T10:20:19Z</time>
      </trkpt>
      <trkpt lat="42.434418000" lon="-2.458586000">
        <ele>421.20</ele>
        <time>2017-02-11T10:20:20Z</time>
      </trkpt>
      <trkpt lat="42.434471000" lon="-2.458569000">
        <ele>421.20</ele>
        <time>2017-02-11T10:20:21Z</time>
      </trkpt>
      <trkpt lat="42.434522000" lon="-2.458552000">
        <ele>421.10</ele>
        <time>2017-02-11T10:20:22Z</time>
      </trkpt>
      <trkpt lat="42.434573000" lon="-2.458535000">
        <ele>420.90</ele>
        <time>2017-02-11T10:20:23Z</time>
      </trkpt>
      <trkpt lat="42.434625000" lon="-2.458518000">
        <ele>420.70</ele>
        <time>2017-02-11T10:20:24Z</time>
      </trkpt>
      <trkpt lat="42.434679000" lon="-2.458503000">
        <ele>420.50</ele>
        <time>2017-02-11T10:20:25Z</time>
      </trkpt>
      <trkpt lat="42.434733000" lon="-2.458487000">
        <ele>420.40</ele>
        <time>2017-02-11T10:20:26Z</time>
      </trkpt>
      <trkpt lat="42.434787000" lon="-2.458471000">
        <ele>420.30</ele>
        <time>2017-02-11T10:20:27Z</time>
      </trkpt>
      <trkpt lat="42.434836000" lon="-2.458458000">
        <ele>420.20</ele>
        <time>2017-02-11T10:20:28Z</time>
      </trkpt>
      <trkpt lat="42.434888000" lon="-2.458443000">
        <ele>420.20</ele>
        <time>2017-02-11T10:20:29Z</time>
      </trkpt>
      <trkpt lat="42.434943000" lon="-2.458424000">
        <ele>420.10</ele>
        <time>2017-02-11T10:20:30Z</time>
      </trkpt>
      <trkpt lat="42.435000000" lon="-2.458411000">
        <ele>420.00</ele>
        <time>2017-02-11T10:20:31Z</time>
      </trkpt>
      <trkpt lat="42.435053000" lon="-2.458398000">
        <ele>419.80</ele>
        <time>2017-02-11T10:20:32Z</time>
      </trkpt>
      <trkpt lat="42.435101000" lon="-2.458381000">
        <ele>419.60</ele>
        <time>2017-02-11T10:20:33Z</time>
      </trkpt>
      <trkpt lat="42.435146000" lon="-2.458367000">
        <ele>419.40</ele>
        <time>2017-02-11T10:20:34Z</time>
      </trkpt>
      <trkpt lat="42.435187000" lon="-2.458354000">
        <ele>419.30</ele>
        <time>2017-02-11T10:20:35Z</time>
      </trkpt>
      <trkpt lat="42.435234000" lon="-2.458338000">
        <ele>419.20</ele>
        <time>2017-02-11T10:20:36Z</time>
      </trkpt>
      <trkpt lat="42.435284000" lon="-2.458328000">
        <ele>419.10</ele>
        <time>2017-02-11T10:20:37Z</time>
      </trkpt>
      <trkpt lat="42.435333000" lon="-2.458320000">
        <ele>419.10</ele>
        <time>2017-02-11T10:20:38Z</time>
      </trkpt>
      <trkpt lat="42.435371000" lon="-2.458313000">
        <ele>418.90</ele>
        <time>2017-02-11T10:20:39Z</time>
      </trkpt>
      <trkpt lat="42.435399000" lon="-2.458306000">
        <ele>418.70</ele>
        <time>2017-02-11T10:20:40Z</time>
      </trkpt>
      <trkpt lat="42.435426000" lon="-2.458300000">
        <ele>418.50</ele>
        <time>2017-02-11T10:20:41Z</time>
      </trkpt>
      <trkpt lat="42.435459000" lon="-2.458280000">
        <ele>418.40</ele>
        <time>2017-02-11T10:20:42Z</time>
      </trkpt>
      <trkpt lat="42.435497000" lon="-2.458267000">
        <ele>418.40</ele>
        <time>2017-02-11T10:20:43Z</time>
      </trkpt>
      <trkpt lat="42.435538000" lon="-2.458254000">
        <ele>418.30</ele>
        <time>2017-02-11T10:20:44Z</time>
      </trkpt>
      <trkpt lat="42.435617000" lon="-2.458228000">
        <ele>418.40</ele>
        <time>2017-02-11T10:20:46Z</time>
      </trkpt>
      <trkpt lat="42.435657000" lon="-2.458214000">
        <ele>418.40</ele>
        <time>2017-02-11T10:20:47Z</time>
      </trkpt>
      <trkpt lat="42.435699000" lon="-2.458196000">
        <ele>418.40</ele>
        <time>2017-02-11T10:20:48Z</time>
      </trkpt>
      <trkpt lat="42.435743000" lon="-2.458181000">
        <ele>418.40</ele>
        <time>2017-02-11T10:20:49Z</time>
      </trkpt>
      <trkpt lat="42.435786000" lon="-2.458168000">
        <ele>418.40</ele>
        <time>2017-02-11T10:20:50Z</time>
      </trkpt>
      <trkpt lat="42.435833000" lon="-2.458154000">
        <ele>418.40</ele>
        <time>2017-02-11T10:20:51Z</time>
      </trkpt>
      <trkpt lat="42.435879000" lon="-2.458147000">
        <ele>418.40</ele>
        <time>2017-02-11T10:20:52Z</time>
      </trkpt>
      <trkpt lat="42.435925000" lon="-2.458135000">
        <ele>418.30</ele>
        <time>2017-02-11T10:20:53Z</time>
      </trkpt>
      <trkpt lat="42.435974000" lon="-2.458118000">
        <ele>418.30</ele>
        <time>2017-02-11T10:20:54Z</time>
      </trkpt>
      <trkpt lat="42.436023000" lon="-2.458099000">
        <ele>418.10</ele>
        <time>2017-02-11T10:20:55Z</time>
      </trkpt>
      <trkpt lat="42.436070000" lon="-2.458081000">
        <ele>418.00</ele>
        <time>2017-02-11T10:20:56Z</time>
      </trkpt>
      <trkpt lat="42.436119000" lon="-2.458062000">
        <ele>418.00</ele>
        <time>2017-02-11T10:20:57Z</time>
      </trkpt>
      <trkpt lat="42.436168000" lon="-2.458046000">
        <ele>417.90</ele>
        <time>2017-02-11T10:20:58Z</time>
      </trkpt>
      <trkpt lat="42.436214000" lon="-2.458026000">
        <ele>417.80</ele>
        <time>2017-02-11T10:20:59Z</time>
      </trkpt>
      <trkpt lat="42.436262000" lon="-2.458003000">
        <ele>417.70</ele>
        <time>2017-02-11T10:21:00Z</time>
      </trkpt>
      <trkpt lat="42.436311000" lon="-2.457983000">
        <ele>417.60</ele>
        <time>2017-02-11T10:21:01Z</time>
      </trkpt>
      <trkpt lat="42.436361000" lon="-2.457968000">
        <ele>417.60</ele>
        <time>2017-02-11T10:21:02Z</time>
      </trkpt>
      <trkpt lat="42.436410000" lon="-2.457955000">
        <ele>417.60</ele>
        <time>2017-02-11T10:21:03Z</time>
      </trkpt>
      <trkpt lat="42.436459000" lon="-2.457942000">
        <ele>417.50</ele>
        <time>2017-02-11T10:21:04Z</time>
      </trkpt>
      <trkpt lat="42.436501000" lon="-2.457933000">
        <ele>417.30</ele>
        <time>2017-02-11T10:21:05Z</time>
      </trkpt>
      <trkpt lat="42.436544000" lon="-2.457923000">
        <ele>417.20</ele>
        <time>2017-02-11T10:21:06Z</time>
      </trkpt>
      <trkpt lat="42.436591000" lon="-2.457908000">
        <ele>417.30</ele>
        <time>2017-02-11T10:21:07Z</time>
      </trkpt>
      <trkpt lat="42.436637000" lon="-2.457896000">
        <ele>417.30</ele>
        <time>2017-02-11T10:21:08Z</time>
      </trkpt>
      <trkpt lat="42.436684000" lon="-2.457883000">
        <ele>417.20</ele>
        <time>2017-02-11T10:21:09Z</time>
      </trkpt>
      <trkpt lat="42.436732000" lon="-2.457871000">
        <ele>417.10</ele>
        <time>2017-02-11T10:21:10Z</time>
      </trkpt>
      <trkpt lat="42.436774000" lon="-2.457863000">
        <ele>416.90</ele>
        <time>2017-02-11T10:21:11Z</time>
      </trkpt>
      <trkpt lat="42.436822000" lon="-2.457852000">
        <ele>416.70</ele>
        <time>2017-02-11T10:21:12Z</time>
      </trkpt>
      <trkpt lat="42.436869000" lon="-2.457846000">
        <ele>416.60</ele>
        <time>2017-02-11T10:21:13Z</time>
      </trkpt>
      <trkpt lat="42.436914000" lon="-2.457838000">
        <ele>416.50</ele>
        <time>2017-02-11T10:21:14Z</time>
      </trkpt>
      <trkpt lat="42.436958000" lon="-2.457827000">
        <ele>416.50</ele>
        <time>2017-02-11T10:21:15Z</time>
      </trkpt>
      <trkpt lat="42.437002000" lon="-2.457817000">
        <ele>416.50</ele>
        <time>2017-02-11T10:21:16Z</time>
      </trkpt>
      <trkpt lat="42.437051000" lon="-2.457804000">
        <ele>416.70</ele>
        <time>2017-02-11T10:21:17Z</time>
      </trkpt>
      <trkpt lat="42.437097000" lon="-2.457792000">
        <ele>416.80</ele>
        <time>2017-02-11T10:21:18Z</time>
      </trkpt>
      <trkpt lat="42.437143000" lon="-2.457783000">
        <ele>417.00</ele>
        <time>2017-02-11T10:21:19Z</time>
      </trkpt>
      <trkpt lat="42.437188000" lon="-2.457777000">
        <ele>417.20</ele>
        <time>2017-02-11T10:21:20Z</time>
      </trkpt>
      <trkpt lat="42.437232000" lon="-2.457768000">
        <ele>417.30</ele>
        <time>2017-02-11T10:21:21Z</time>
      </trkpt>
      <trkpt lat="42.437280000" lon="-2.457762000">
        <ele>417.40</ele>
        <time>2017-02-11T10:21:22Z</time>
      </trkpt>
      <trkpt lat="42.437328000" lon="-2.457756000">
        <ele>417.40</ele>
        <time>2017-02-11T10:21:23Z</time>
      </trkpt>
      <trkpt lat="42.437379000" lon="-2.457750000">
        <ele>417.30</ele>
        <time>2017-02-11T10:21:24Z</time>
      </trkpt>
      <trkpt lat="42.437430000" lon="-2.457745000">
        <ele>417.10</ele>
        <time>2017-02-11T10:21:25Z</time>
      </trkpt>
      <trkpt lat="42.437482000" lon="-2.457739000">
        <ele>417.00</ele>
        <time>2017-02-11T10:21:26Z</time>
      </trkpt>
      <trkpt lat="42.437535000" lon="-2.457737000">
        <ele>416.60</ele>
        <time>2017-02-11T10:21:27Z</time>
      </trkpt>
      <trkpt lat="42.437588000" lon="-2.457733000">
        <ele>416.30</ele>
        <time>2017-02-11T10:21:28Z</time>
      </trkpt>
      <trkpt lat="42.437640000" lon="-2.457731000">
        <ele>416.10</ele>
        <time>2017-02-11T10:21:29Z</time>
      </trkpt>
      <trkpt lat="42.437687000" lon="-2.457729000">
        <ele>416.00</ele>
        <time>2017-02-11T10:21:30Z</time>
      </trkpt>
      <trkpt lat="42.437735000" lon="-2.457729000">
        <ele>415.90</ele>
        <time>2017-02-11T10:21:31Z</time>
      </trkpt>
      <trkpt lat="42.437784000" lon="-2.457730000">
        <ele>415.80</ele>
        <time>2017-02-11T10:21:32Z</time>
      </trkpt>
      <trkpt lat="42.437835000" lon="-2.457734000">
        <ele>415.90</ele>
        <time>2017-02-11T10:21:33Z</time>
      </trkpt>
      <trkpt lat="42.437886000" lon="-2.457736000">
        <ele>415.90</ele>
        <time>2017-02-11T10:21:34Z</time>
      </trkpt>
      <trkpt lat="42.437937000" lon="-2.457738000">
        <ele>415.90</ele>
        <time>2017-02-11T10:21:35Z</time>
      </trkpt>
      <trkpt lat="42.437988000" lon="-2.457738000">
        <ele>415.90</ele>
        <time>2017-02-11T10:21:36Z</time>
      </trkpt>
      <trkpt lat="42.438040000" lon="-2.457737000">
        <ele>415.90</ele>
        <time>2017-02-11T10:21:37Z</time>
      </trkpt>
      <trkpt lat="42.438098000" lon="-2.457735000">
        <ele>416.00</ele>
        <time>2017-02-11T10:21:38Z</time>
      </trkpt>
      <trkpt lat="42.438150000" lon="-2.457736000">
        <ele>416.00</ele>
        <time>2017-02-11T10:21:39Z</time>
      </trkpt>
      <trkpt lat="42.438202000" lon="-2.457738000">
        <ele>416.00</ele>
        <time>2017-02-11T10:21:40Z</time>
      </trkpt>
      <trkpt lat="42.438254000" lon="-2.457735000">
        <ele>416.00</ele>
        <time>2017-02-11T10:21:41Z</time>
      </trkpt>
      <trkpt lat="42.438306000" lon="-2.457732000">
        <ele>416.00</ele>
        <time>2017-02-11T10:21:42Z</time>
      </trkpt>
      <trkpt lat="42.438360000" lon="-2.457730000">
        <ele>415.90</ele>
        <time>2017-02-11T10:21:43Z</time>
      </trkpt>
      <trkpt lat="42.438411000" lon="-2.457728000">
        <ele>415.80</ele>
        <time>2017-02-11T10:21:44Z</time>
      </trkpt>
      <trkpt lat="42.438461000" lon="-2.457727000">
        <ele>415.80</ele>
        <time>2017-02-11T10:21:45Z</time>
      </trkpt>
      <trkpt lat="42.438562000" lon="-2.457720000">
        <ele>415.70</ele>
        <time>2017-02-11T10:21:47Z</time>
      </trkpt>
      <trkpt lat="42.438607000" lon="-2.457721000">
        <ele>415.60</ele>
        <time>2017-02-11T10:21:48Z</time>
      </trkpt>
      <trkpt lat="42.438653000" lon="-2.457724000">
        <ele>415.70</ele>
        <time>2017-02-11T10:21:49Z</time>
      </trkpt>
      <trkpt lat="42.438699000" lon="-2.457723000">
        <ele>415.80</ele>
        <time>2017-02-11T10:21:50Z</time>
      </trkpt>
      <trkpt lat="42.438744000" lon="-2.457722000">
        <ele>415.90</ele>
        <time>2017-02-11T10:21:51Z</time>
      </trkpt>
      <trkpt lat="42.438788000" lon="-2.457723000">
        <ele>415.90</ele>
        <time>2017-02-11T10:21:52Z</time>
      </trkpt>
      <trkpt lat="42.438833000" lon="-2.457724000">
        <ele>416.00</ele>
        <time>2017-02-11T10:21:53Z</time>
      </trkpt>
      <trkpt lat="42.438879000" lon="-2.457724000">
        <ele>416.00</ele>
        <time>2017-02-11T10:21:54Z</time>
      </trkpt>
      <trkpt lat="42.438923000" lon="-2.457725000">
        <ele>416.00</ele>
        <time>2017-02-11T10:21:55Z</time>
      </trkpt>
      <trkpt lat="42.438966000" lon="-2.457732000">
        <ele>416.00</ele>
        <time>2017-02-11T10:21:56Z</time>
      </trkpt>
      <trkpt lat="42.439010000" lon="-2.457737000">
        <ele>416.00</ele>
        <time>2017-02-11T10:21:57Z</time>
      </trkpt>
      <trkpt lat="42.439055000" lon="-2.457738000">
        <ele>415.90</ele>
        <time>2017-02-11T10:21:58Z</time>
      </trkpt>
      <trkpt lat="42.439100000" lon="-2.457737000">
        <ele>415.90</ele>
        <time>2017-02-11T10:21:59Z</time>
      </trkpt>
      <trkpt lat="42.439142000" lon="-2.457733000">
        <ele>415.90</ele>
        <time>2017-02-11T10:22:00Z</time>
      </trkpt>
      <trkpt lat="42.439184000" lon="-2.457727000">
        <ele>415.70</ele>
        <time>2017-02-11T10:22:01Z</time>
      </trkpt>
      <trkpt lat="42.439226000" lon="-2.457725000">
        <ele>415.60</ele>
        <time>2017-02-11T10:22:02Z</time>
      </trkpt>
      <trkpt lat="42.439266000" lon="-2.457721000">
        <ele>415.50</ele>
        <time>2017-02-11T10:22:03Z</time>
      </trkpt>
      <trkpt lat="42.439306000" lon="-2.457720000">
        <ele>415.50</ele>
        <time>2017-02-11T10:22:04Z</time>
      </trkpt>
      <trkpt lat="42.439351000" lon="-2.457716000">
        <ele>415.40</ele>
        <time>2017-02-11T10:22:05Z</time>
      </trkpt>
      <trkpt lat="42.439392000" lon="-2.457720000">
        <ele>415.40</ele>
        <time>2017-02-11T10:22:06Z</time>
      </trkpt>
      <trkpt lat="42.439435000" lon="-2.457721000">
        <ele>415.50</ele>
        <time>2017-02-11T10:22:07Z</time>
      </trkpt>
      <trkpt lat="42.439478000" lon="-2.457721000">
        <ele>415.60</ele>
        <time>2017-02-11T10:22:08Z</time>
      </trkpt>
      <trkpt lat="42.439524000" lon="-2.457719000">
        <ele>415.40</ele>
        <time>2017-02-11T10:22:09Z</time>
      </trkpt>
      <trkpt lat="42.439569000" lon="-2.457715000">
        <ele>415.30</ele>
        <time>2017-02-11T10:22:10Z</time>
      </trkpt>
      <trkpt lat="42.439614000" lon="-2.457712000">
        <ele>415.30</ele>
        <time>2017-02-11T10:22:11Z</time>
      </trkpt>
      <trkpt lat="42.439655000" lon="-2.457715000">
        <ele>415.20</ele>
        <time>2017-02-11T10:22:12Z</time>
      </trkpt>
      <trkpt lat="42.439690000" lon="-2.457724000">
        <ele>415.00</ele>
        <time>2017-02-11T10:22:13Z</time>
      </trkpt>
      <trkpt lat="42.439735000" lon="-2.457719000">
        <ele>414.90</ele>
        <time>2017-02-11T10:22:14Z</time>
      </trkpt>
      <trkpt lat="42.439778000" lon="-2.457716000">
        <ele>414.80</ele>
        <time>2017-02-11T10:22:15Z</time>
      </trkpt>
      <trkpt lat="42.439823000" lon="-2.457713000">
        <ele>414.70</ele>
        <time>2017-02-11T10:22:16Z</time>
      </trkpt>
      <trkpt lat="42.439870000" lon="-2.457708000">
        <ele>414.70</ele>
        <time>2017-02-11T10:22:17Z</time>
      </trkpt>
      <trkpt lat="42.439915000" lon="-2.457707000">
        <ele>414.60</ele>
        <time>2017-02-11T10:22:18Z</time>
      </trkpt>
      <trkpt lat="42.439961000" lon="-2.457704000">
        <ele>414.60</ele>
        <time>2017-02-11T10:22:19Z</time>
      </trkpt>
      <trkpt lat="42.440011000" lon="-2.457699000">
        <ele>414.60</ele>
        <time>2017-02-11T10:22:20Z</time>
      </trkpt>
      <trkpt lat="42.440066000" lon="-2.457691000">
        <ele>414.60</ele>
        <time>2017-02-11T10:22:21Z</time>
      </trkpt>
      <trkpt lat="42.440123000" lon="-2.457684000">
        <ele>414.50</ele>
        <time>2017-02-11T10:22:22Z</time>
      </trkpt>
      <trkpt lat="42.440175000" lon="-2.457684000">
        <ele>414.50</ele>
        <time>2017-02-11T10:22:23Z</time>
      </trkpt>
      <trkpt lat="42.440226000" lon="-2.457681000">
        <ele>414.50</ele>
        <time>2017-02-11T10:22:24Z</time>
      </trkpt>
      <trkpt lat="42.440276000" lon="-2.457667000">
        <ele>414.50</ele>
        <time>2017-02-11T10:22:25Z</time>
      </trkpt>
      <trkpt lat="42.440326000" lon="-2.457654000">
        <ele>414.50</ele>
        <time>2017-02-11T10:22:26Z</time>
      </trkpt>
      <trkpt lat="42.440378000" lon="-2.457645000">
        <ele>414.50</ele>
        <time>2017-02-11T10:22:27Z</time>
      </trkpt>
      <trkpt lat="42.440430000" lon="-2.457638000">
        <ele>414.60</ele>
        <time>2017-02-11T10:22:28Z</time>
      </trkpt>
      <trkpt lat="42.440485000" lon="-2.457633000">
        <ele>414.60</ele>
        <time>2017-02-11T10:22:29Z</time>
      </trkpt>
      <trkpt lat="42.440540000" lon="-2.457622000">
        <ele>414.60</ele>
        <time>2017-02-11T10:22:30Z</time>
      </trkpt>
      <trkpt lat="42.440595000" lon="-2.457614000">
        <ele>414.50</ele>
        <time>2017-02-11T10:22:31Z</time>
      </trkpt>
      <trkpt lat="42.440650000" lon="-2.457604000">
        <ele>414.50</ele>
        <time>2017-02-11T10:22:32Z</time>
      </trkpt>
      <trkpt lat="42.440707000" lon="-2.457599000">
        <ele>414.40</ele>
        <time>2017-02-11T10:22:33Z</time>
      </trkpt>
      <trkpt lat="42.440762000" lon="-2.457593000">
        <ele>414.40</ele>
        <time>2017-02-11T10:22:34Z</time>
      </trkpt>
      <trkpt lat="42.440816000" lon="-2.457585000">
        <ele>414.40</ele>
        <time>2017-02-11T10:22:35Z</time>
      </trkpt>
      <trkpt lat="42.440869000" lon="-2.457574000">
        <ele>414.40</ele>
        <time>2017-02-11T10:22:36Z</time>
      </trkpt>
      <trkpt lat="42.440922000" lon="-2.457565000">
        <ele>414.20</ele>
        <time>2017-02-11T10:22:37Z</time>
      </trkpt>
      <trkpt lat="42.440979000" lon="-2.457560000">
        <ele>414.10</ele>
        <time>2017-02-11T10:22:38Z</time>
      </trkpt>
      <trkpt lat="42.441035000" lon="-2.457559000">
        <ele>414.10</ele>
        <time>2017-02-11T10:22:39Z</time>
      </trkpt>
      <trkpt lat="42.441089000" lon="-2.457562000">
        <ele>414.00</ele>
        <time>2017-02-11T10:22:40Z</time>
      </trkpt>
      <trkpt lat="42.441139000" lon="-2.457564000">
        <ele>413.70</ele>
        <time>2017-02-11T10:22:41Z</time>
      </trkpt>
      <trkpt lat="42.441190000" lon="-2.457571000">
        <ele>413.50</ele>
        <time>2017-02-11T10:22:42Z</time>
      </trkpt>
      <trkpt lat="42.441240000" lon="-2.457580000">
        <ele>413.20</ele>
        <time>2017-02-11T10:22:43Z</time>
      </trkpt>
      <trkpt lat="42.441285000" lon="-2.457594000">
        <ele>413.10</ele>
        <time>2017-02-11T10:22:44Z</time>
      </trkpt>
      <trkpt lat="42.441320000" lon="-2.457611000">
        <ele>412.90</ele>
        <time>2017-02-11T10:22:45Z</time>
      </trkpt>
      <trkpt lat="42.441346000" lon="-2.457621000">
        <ele>412.70</ele>
        <time>2017-02-11T10:22:46Z</time>
      </trkpt>
      <trkpt lat="42.441402000" lon="-2.457645000">
        <ele>412.30</ele>
        <time>2017-02-11T10:22:48Z</time>
      </trkpt>
      <trkpt lat="42.441427000" lon="-2.457659000">
        <ele>412.10</ele>
        <time>2017-02-11T10:22:49Z</time>
      </trkpt>
      <trkpt lat="42.441444000" lon="-2.457698000">
        <ele>412.00</ele>
        <time>2017-02-11T10:22:50Z</time>
      </trkpt>
      <trkpt lat="42.441439000" lon="-2.457745000">
        <ele>411.80</ele>
        <time>2017-02-11T10:22:51Z</time>
      </trkpt>
      <trkpt lat="42.441416000" lon="-2.457786000">
        <ele>411.60</ele>
        <time>2017-02-11T10:22:52Z</time>
      </trkpt>
      <trkpt lat="42.441394000" lon="-2.457822000">
        <ele>411.30</ele>
        <time>2017-02-11T10:22:53Z</time>
      </trkpt>
      <trkpt lat="42.441371000" lon="-2.457859000">
        <ele>411.10</ele>
        <time>2017-02-11T10:22:54Z</time>
      </trkpt>
      <trkpt lat="42.441346000" lon="-2.457894000">
        <ele>411.00</ele>
        <time>2017-02-11T10:22:55Z</time>
      </trkpt>
      <trkpt lat="42.441320000" lon="-2.457930000">
        <ele>410.90</ele>
        <time>2017-02-11T10:22:56Z</time>
      </trkpt>
      <trkpt lat="42.441294000" lon="-2.457965000">
        <ele>410.90</ele>
        <time>2017-02-11T10:22:57Z</time>
      </trkpt>
      <trkpt lat="42.441268000" lon="-2.457997000">
        <ele>410.90</ele>
        <time>2017-02-11T10:22:58Z</time>
      </trkpt>
      <trkpt lat="42.441246000" lon="-2.458030000">
        <ele>411.00</ele>
        <time>2017-02-11T10:22:59Z</time>
      </trkpt>
      <trkpt lat="42.441218000" lon="-2.458059000">
        <ele>410.90</ele>
        <time>2017-02-11T10:23:00Z</time>
      </trkpt>
      <trkpt lat="42.441194000" lon="-2.458091000">
        <ele>410.90</ele>
        <time>2017-02-11T10:23:01Z</time>
      </trkpt>
      <trkpt lat="42.441172000" lon="-2.458121000">
        <ele>410.90</ele>
        <time>2017-02-11T10:23:02Z</time>
      </trkpt>
      <trkpt lat="42.441150000" lon="-2.458154000">
        <ele>410.80</ele>
        <time>2017-02-11T10:23:03Z</time>
      </trkpt>
      <trkpt lat="42.441134000" lon="-2.458191000">
        <ele>411.00</ele>
        <time>2017-02-11T10:23:04Z</time>
      </trkpt>
      <trkpt lat="42.441126000" lon="-2.458230000">
        <ele>411.20</ele>
        <time>2017-02-11T10:23:05Z</time>
      </trkpt>
      <trkpt lat="42.441131000" lon="-2.458274000">
        <ele>411.30</ele>
        <time>2017-02-11T10:23:06Z</time>
      </trkpt>
      <trkpt lat="42.441152000" lon="-2.458315000">
        <ele>411.30</ele>
        <time>2017-02-11T10:23:07Z</time>
      </trkpt>
      <trkpt lat="42.441180000" lon="-2.458346000">
        <ele>411.50</ele>
        <time>2017-02-11T10:23:08Z</time>
      </trkpt>
      <trkpt lat="42.441217000" lon="-2.458370000">
        <ele>411.60</ele>
        <time>2017-02-11T10:23:09Z</time>
      </trkpt>
      <trkpt lat="42.441259000" lon="-2.458385000">
        <ele>411.60</ele>
        <time>2017-02-11T10:23:10Z</time>
      </trkpt>
      <trkpt lat="42.441303000" lon="-2.458396000">
        <ele>411.70</ele>
        <time>2017-02-11T10:23:11Z</time>
      </trkpt>
      <trkpt lat="42.441348000" lon="-2.458406000">
        <ele>411.90</ele>
        <time>2017-02-11T10:23:12Z</time>
      </trkpt>
      <trkpt lat="42.441399000" lon="-2.458414000">
        <ele>412.20</ele>
        <time>2017-02-11T10:23:13Z</time>
      </trkpt>
      <trkpt lat="42.441448000" lon="-2.458420000">
        <ele>412.30</ele>
        <time>2017-02-11T10:23:14Z</time>
      </trkpt>
      <trkpt lat="42.441499000" lon="-2.458424000">
        <ele>412.40</ele>
        <time>2017-02-11T10:23:15Z</time>
      </trkpt>
      <trkpt lat="42.441551000" lon="-2.458431000">
        <ele>412.30</ele>
        <time>2017-02-11T10:23:16Z</time>
      </trkpt>
      <trkpt lat="42.441601000" lon="-2.458435000">
        <ele>412.20</ele>
        <time>2017-02-11T10:23:17Z</time>
      </trkpt>
      <trkpt lat="42.441651000" lon="-2.458440000">
        <ele>412.00</ele>
        <time>2017-02-11T10:23:18Z</time>
      </trkpt>
      <trkpt lat="42.441698000" lon="-2.458444000">
        <ele>411.90</ele>
        <time>2017-02-11T10:23:19Z</time>
      </trkpt>
      <trkpt lat="42.441748000" lon="-2.458448000">
        <ele>411.80</ele>
        <time>2017-02-11T10:23:20Z</time>
      </trkpt>
      <trkpt lat="42.441798000" lon="-2.458455000">
        <ele>411.60</ele>
        <time>2017-02-11T10:23:21Z</time>
      </trkpt>
      <trkpt lat="42.441848000" lon="-2.458465000">
        <ele>411.60</ele>
        <time>2017-02-11T10:23:22Z</time>
      </trkpt>
      <trkpt lat="42.441897000" lon="-2.458478000">
        <ele>411.50</ele>
        <time>2017-02-11T10:23:23Z</time>
      </trkpt>
      <trkpt lat="42.441947000" lon="-2.458489000">
        <ele>411.40</ele>
        <time>2017-02-11T10:23:24Z</time>
      </trkpt>
      <trkpt lat="42.442000000" lon="-2.458498000">
        <ele>411.30</ele>
        <time>2017-02-11T10:23:25Z</time>
      </trkpt>
      <trkpt lat="42.442050000" lon="-2.458507000">
        <ele>411.20</ele>
        <time>2017-02-11T10:23:26Z</time>
      </trkpt>
      <trkpt lat="42.442105000" lon="-2.458518000">
        <ele>411.10</ele>
        <time>2017-02-11T10:23:27Z</time>
      </trkpt>
      <trkpt lat="42.442158000" lon="-2.458529000">
        <ele>411.00</ele>
        <time>2017-02-11T10:23:28Z</time>
      </trkpt>
      <trkpt lat="42.442213000" lon="-2.458542000">
        <ele>411.00</ele>
        <time>2017-02-11T10:23:29Z</time>
      </trkpt>
      <trkpt lat="42.442263000" lon="-2.458554000">
        <ele>410.90</ele>
        <time>2017-02-11T10:23:30Z</time>
      </trkpt>
      <trkpt lat="42.442316000" lon="-2.458566000">
        <ele>410.90</ele>
        <time>2017-02-11T10:23:31Z</time>
      </trkpt>
      <trkpt lat="42.442370000" lon="-2.458576000">
        <ele>410.90</ele>
        <time>2017-02-11T10:23:32Z</time>
      </trkpt>
      <trkpt lat="42.442424000" lon="-2.458584000">
        <ele>410.80</ele>
        <time>2017-02-11T10:23:33Z</time>
      </trkpt>
      <trkpt lat="42.442479000" lon="-2.458592000">
        <ele>410.80</ele>
        <time>2017-02-11T10:23:34Z</time>
      </trkpt>
      <trkpt lat="42.442535000" lon="-2.458603000">
        <ele>410.80</ele>
        <time>2017-02-11T10:23:35Z</time>
      </trkpt>
      <trkpt lat="42.442590000" lon="-2.458613000">
        <ele>410.60</ele>
        <time>2017-02-11T10:23:36Z</time>
      </trkpt>
      <trkpt lat="42.442646000" lon="-2.458620000">
        <ele>410.50</ele>
        <time>2017-02-11T10:23:37Z</time>
      </trkpt>
      <trkpt lat="42.442701000" lon="-2.458627000">
        <ele>410.30</ele>
        <time>2017-02-11T10:23:38Z</time>
      </trkpt>
      <trkpt lat="42.442758000" lon="-2.458624000">
        <ele>410.20</ele>
        <time>2017-02-11T10:23:39Z</time>
      </trkpt>
      <trkpt lat="42.442815000" lon="-2.458627000">
        <ele>410.20</ele>
        <time>2017-02-11T10:23:40Z</time>
      </trkpt>
      <trkpt lat="42.442870000" lon="-2.458634000">
        <ele>410.20</ele>
        <time>2017-02-11T10:23:41Z</time>
      </trkpt>
      <trkpt lat="42.442923000" lon="-2.458642000">
        <ele>410.30</ele>
        <time>2017-02-11T10:23:42Z</time>
      </trkpt>
      <trkpt lat="42.442976000" lon="-2.458654000">
        <ele>410.30</ele>
        <time>2017-02-11T10:23:43Z</time>
      </trkpt>
      <trkpt lat="42.443027000" lon="-2.458668000">
        <ele>410.40</ele>
        <time>2017-02-11T10:23:44Z</time>
      </trkpt>
      <trkpt lat="42.443076000" lon="-2.458680000">
        <ele>410.40</ele>
        <time>2017-02-11T10:23:45Z</time>
      </trkpt>
      <trkpt lat="42.443127000" lon="-2.458688000">
        <ele>410.40</ele>
        <time>2017-02-11T10:23:46Z</time>
      </trkpt>
      <trkpt lat="42.443179000" lon="-2.458699000">
        <ele>410.30</ele>
        <time>2017-02-11T10:23:47Z</time>
      </trkpt>
      <trkpt lat="42.443286000" lon="-2.458715000">
        <ele>410.30</ele>
        <time>2017-02-11T10:23:49Z</time>
      </trkpt>
      <trkpt lat="42.443337000" lon="-2.458719000">
        <ele>410.30</ele>
        <time>2017-02-11T10:23:50Z</time>
      </trkpt>
      <trkpt lat="42.443387000" lon="-2.458727000">
        <ele>410.20</ele>
        <time>2017-02-11T10:23:51Z</time>
      </trkpt>
      <trkpt lat="42.443440000" lon="-2.458737000">
        <ele>410.20</ele>
        <time>2017-02-11T10:23:52Z</time>
      </trkpt>
      <trkpt lat="42.443493000" lon="-2.458742000">
        <ele>410.10</ele>
        <time>2017-02-11T10:23:53Z</time>
      </trkpt>
      <trkpt lat="42.443546000" lon="-2.458751000">
        <ele>410.00</ele>
        <time>2017-02-11T10:23:54Z</time>
      </trkpt>
      <trkpt lat="42.443601000" lon="-2.458760000">
        <ele>409.90</ele>
        <time>2017-02-11T10:23:55Z</time>
      </trkpt>
      <trkpt lat="42.443655000" lon="-2.458772000">
        <ele>409.80</ele>
        <time>2017-02-11T10:23:56Z</time>
      </trkpt>
      <trkpt lat="42.443708000" lon="-2.458786000">
        <ele>409.80</ele>
        <time>2017-02-11T10:23:57Z</time>
      </trkpt>
      <trkpt lat="42.443760000" lon="-2.458803000">
        <ele>409.60</ele>
        <time>2017-02-11T10:23:58Z</time>
      </trkpt>
      <trkpt lat="42.443810000" lon="-2.458814000">
        <ele>409.50</ele>
        <time>2017-02-11T10:23:59Z</time>
      </trkpt>
      <trkpt lat="42.443860000" lon="-2.458827000">
        <ele>409.50</ele>
        <time>2017-02-11T10:24:00Z</time>
      </trkpt>
      <trkpt lat="42.443913000" lon="-2.458832000">
        <ele>409.50</ele>
        <time>2017-02-11T10:24:01Z</time>
      </trkpt>
      <trkpt lat="42.443963000" lon="-2.458837000">
        <ele>409.40</ele>
        <time>2017-02-11T10:24:02Z</time>
      </trkpt>
      <trkpt lat="42.444014000" lon="-2.458842000">
        <ele>409.30</ele>
        <time>2017-02-11T10:24:03Z</time>
      </trkpt>
      <trkpt lat="42.444068000" lon="-2.458847000">
        <ele>409.20</ele>
        <time>2017-02-11T10:24:04Z</time>
      </trkpt>
      <trkpt lat="42.444121000" lon="-2.458853000">
        <ele>409.10</ele>
        <time>2017-02-11T10:24:05Z</time>
      </trkpt>
      <trkpt lat="42.444172000" lon="-2.458861000">
        <ele>409.00</ele>
        <time>2017-02-11T10:24:06Z</time>
      </trkpt>
      <trkpt lat="42.444225000" lon="-2.458865000">
        <ele>408.90</ele>
        <time>2017-02-11T10:24:07Z</time>
      </trkpt>
      <trkpt lat="42.444279000" lon="-2.458869000">
        <ele>408.80</ele>
        <time>2017-02-11T10:24:08Z</time>
      </trkpt>
      <trkpt lat="42.444337000" lon="-2.458871000">
        <ele>408.80</ele>
        <time>2017-02-11T10:24:09Z</time>
      </trkpt>
      <trkpt lat="42.444390000" lon="-2.458863000">
        <ele>408.70</ele>
        <time>2017-02-11T10:24:10Z</time>
      </trkpt>
      <trkpt lat="42.444444000" lon="-2.458849000">
        <ele>408.70</ele>
        <time>2017-02-11T10:24:11Z</time>
      </trkpt>
      <trkpt lat="42.444496000" lon="-2.458831000">
        <ele>408.70</ele>
        <time>2017-02-11T10:24:12Z</time>
      </trkpt>
      <trkpt lat="42.444545000" lon="-2.458803000">
        <ele>408.70</ele>
        <time>2017-02-11T10:24:13Z</time>
      </trkpt>
      <trkpt lat="42.444596000" lon="-2.458779000">
        <ele>408.70</ele>
        <time>2017-02-11T10:24:14Z</time>
      </trkpt>
      <trkpt lat="42.444646000" lon="-2.458758000">
        <ele>408.70</ele>
        <time>2017-02-11T10:24:15Z</time>
      </trkpt>
      <trkpt lat="42.444693000" lon="-2.458733000">
        <ele>408.80</ele>
        <time>2017-02-11T10:24:16Z</time>
      </trkpt>
      <trkpt lat="42.444741000" lon="-2.458714000">
        <ele>408.90</ele>
        <time>2017-02-11T10:24:17Z</time>
      </trkpt>
      <trkpt lat="42.444788000" lon="-2.458699000">
        <ele>409.10</ele>
        <time>2017-02-11T10:24:18Z</time>
      </trkpt>
      <trkpt lat="42.444837000" lon="-2.458687000">
        <ele>409.20</ele>
        <time>2017-02-11T10:24:19Z</time>
      </trkpt>
      <trkpt lat="42.444887000" lon="-2.458682000">
        <ele>409.30</ele>
        <time>2017-02-11T10:24:20Z</time>
      </trkpt>
      <trkpt lat="42.444935000" lon="-2.458672000">
        <ele>409.40</ele>
        <time>2017-02-11T10:24:21Z</time>
      </trkpt>
      <trkpt lat="42.444982000" lon="-2.458666000">
        <ele>409.50</ele>
        <time>2017-02-11T10:24:22Z</time>
      </trkpt>
      <trkpt lat="42.445030000" lon="-2.458658000">
        <ele>409.50</ele>
        <time>2017-02-11T10:24:23Z</time>
      </trkpt>
      <trkpt lat="42.445079000" lon="-2.458653000">
        <ele>409.40</ele>
        <time>2017-02-11T10:24:24Z</time>
      </trkpt>
      <trkpt lat="42.445128000" lon="-2.458646000">
        <ele>409.40</ele>
        <time>2017-02-11T10:24:25Z</time>
      </trkpt>
      <trkpt lat="42.445174000" lon="-2.458642000">
        <ele>409.20</ele>
        <time>2017-02-11T10:24:26Z</time>
      </trkpt>
      <trkpt lat="42.445222000" lon="-2.458637000">
        <ele>409.00</ele>
        <time>2017-02-11T10:24:27Z</time>
      </trkpt>
      <trkpt lat="42.445272000" lon="-2.458627000">
        <ele>408.90</ele>
        <time>2017-02-11T10:24:28Z</time>
      </trkpt>
      <trkpt lat="42.445320000" lon="-2.458618000">
        <ele>408.70</ele>
        <time>2017-02-11T10:24:29Z</time>
      </trkpt>
      <trkpt lat="42.445368000" lon="-2.458609000">
        <ele>408.60</ele>
        <time>2017-02-11T10:24:30Z</time>
      </trkpt>
      <trkpt lat="42.445416000" lon="-2.458604000">
        <ele>408.60</ele>
        <time>2017-02-11T10:24:31Z</time>
      </trkpt>
      <trkpt lat="42.445464000" lon="-2.458599000">
        <ele>408.50</ele>
        <time>2017-02-11T10:24:32Z</time>
      </trkpt>
      <trkpt lat="42.445508000" lon="-2.458594000">
        <ele>408.50</ele>
        <time>2017-02-11T10:24:33Z</time>
      </trkpt>
      <trkpt lat="42.445558000" lon="-2.458593000">
        <ele>408.30</ele>
        <time>2017-02-11T10:24:34Z</time>
      </trkpt>
      <trkpt lat="42.445603000" lon="-2.458591000">
        <ele>408.20</ele>
        <time>2017-02-11T10:24:35Z</time>
      </trkpt>
      <trkpt lat="42.445650000" lon="-2.458588000">
        <ele>408.00</ele>
        <time>2017-02-11T10:24:36Z</time>
      </trkpt>
      <trkpt lat="42.445698000" lon="-2.458588000">
        <ele>407.90</ele>
        <time>2017-02-11T10:24:37Z</time>
      </trkpt>
      <trkpt lat="42.445746000" lon="-2.458588000">
        <ele>407.80</ele>
        <time>2017-02-11T10:24:38Z</time>
      </trkpt>
      <trkpt lat="42.445793000" lon="-2.458591000">
        <ele>407.70</ele>
        <time>2017-02-11T10:24:39Z</time>
      </trkpt>
      <trkpt lat="42.445842000" lon="-2.458593000">
        <ele>407.70</ele>
        <time>2017-02-11T10:24:40Z</time>
      </trkpt>
      <trkpt lat="42.445893000" lon="-2.458600000">
        <ele>407.80</ele>
        <time>2017-02-11T10:24:41Z</time>
      </trkpt>
      <trkpt lat="42.445943000" lon="-2.458608000">
        <ele>407.80</ele>
        <time>2017-02-11T10:24:42Z</time>
      </trkpt>
      <trkpt lat="42.445994000" lon="-2.458613000">
        <ele>407.90</ele>
        <time>2017-02-11T10:24:43Z</time>
      </trkpt>
      <trkpt lat="42.446042000" lon="-2.458616000">
        <ele>407.90</ele>
        <time>2017-02-11T10:24:44Z</time>
      </trkpt>
      <trkpt lat="42.446092000" lon="-2.458612000">
        <ele>407.90</ele>
        <time>2017-02-11T10:24:45Z</time>
      </trkpt>
      <trkpt lat="42.446140000" lon="-2.458596000">
        <ele>407.90</ele>
        <time>2017-02-11T10:24:46Z</time>
      </trkpt>
      <trkpt lat="42.446186000" lon="-2.458574000">
        <ele>407.90</ele>
        <time>2017-02-11T10:24:47Z</time>
      </trkpt>
      <trkpt lat="42.446229000" lon="-2.458542000">
        <ele>408.10</ele>
        <time>2017-02-11T10:24:48Z</time>
      </trkpt>
      <trkpt lat="42.446271000" lon="-2.458511000">
        <ele>408.20</ele>
        <time>2017-02-11T10:24:49Z</time>
      </trkpt>
      <trkpt lat="42.446356000" lon="-2.458451000">
        <ele>408.30</ele>
        <time>2017-02-11T10:24:51Z</time>
      </trkpt>
      <trkpt lat="42.446403000" lon="-2.458422000">
        <ele>408.40</ele>
        <time>2017-02-11T10:24:52Z</time>
      </trkpt>
      <trkpt lat="42.446448000" lon="-2.458394000">
        <ele>408.40</ele>
        <time>2017-02-11T10:24:53Z</time>
      </trkpt>
      <trkpt lat="42.446494000" lon="-2.458368000">
        <ele>408.10</ele>
        <time>2017-02-11T10:24:54Z</time>
      </trkpt>
      <trkpt lat="42.446540000" lon="-2.458341000">
        <ele>407.80</ele>
        <time>2017-02-11T10:24:55Z</time>
      </trkpt>
      <trkpt lat="42.446587000" lon="-2.458314000">
        <ele>407.70</ele>
        <time>2017-02-11T10:24:56Z</time>
      </trkpt>
      <trkpt lat="42.446633000" lon="-2.458285000">
        <ele>407.50</ele>
        <time>2017-02-11T10:24:57Z</time>
      </trkpt>
      <trkpt lat="42.446676000" lon="-2.458258000">
        <ele>407.50</ele>
        <time>2017-02-11T10:24:58Z</time>
      </trkpt>
      <trkpt lat="42.446723000" lon="-2.458236000">
        <ele>407.50</ele>
        <time>2017-02-11T10:24:59Z</time>
      </trkpt>
      <trkpt lat="42.446772000" lon="-2.458218000">
        <ele>407.50</ele>
        <time>2017-02-11T10:25:00Z</time>
      </trkpt>
      <trkpt lat="42.446820000" lon="-2.458198000">
        <ele>407.50</ele>
        <time>2017-02-11T10:25:01Z</time>
      </trkpt>
      <trkpt lat="42.446868000" lon="-2.458179000">
        <ele>407.40</ele>
        <time>2017-02-11T10:25:02Z</time>
      </trkpt>
      <trkpt lat="42.446915000" lon="-2.458161000">
        <ele>407.30</ele>
        <time>2017-02-11T10:25:03Z</time>
      </trkpt>
      <trkpt lat="42.446964000" lon="-2.458139000">
        <ele>407.20</ele>
        <time>2017-02-11T10:25:04Z</time>
      </trkpt>
      <trkpt lat="42.447012000" lon="-2.458121000">
        <ele>407.10</ele>
        <time>2017-02-11T10:25:05Z</time>
      </trkpt>
      <trkpt lat="42.447062000" lon="-2.458102000">
        <ele>407.10</ele>
        <time>2017-02-11T10:25:06Z</time>
      </trkpt>
      <trkpt lat="42.447107000" lon="-2.458080000">
        <ele>407.10</ele>
        <time>2017-02-11T10:25:07Z</time>
      </trkpt>
      <trkpt lat="42.447144000" lon="-2.458062000">
        <ele>407.10</ele>
        <time>2017-02-11T10:25:08Z</time>
      </trkpt>
      <trkpt lat="42.447176000" lon="-2.458040000">
        <ele>407.00</ele>
        <time>2017-02-11T10:25:09Z</time>
      </trkpt>
      <trkpt lat="42.447207000" lon="-2.458013000">
        <ele>407.00</ele>
        <time>2017-02-11T10:25:10Z</time>
      </trkpt>
      <trkpt lat="42.447240000" lon="-2.457982000">
        <ele>407.00</ele>
        <time>2017-02-11T10:25:11Z</time>
      </trkpt>
      <trkpt lat="42.447277000" lon="-2.457953000">
        <ele>406.80</ele>
        <time>2017-02-11T10:25:12Z</time>
      </trkpt>
      <trkpt lat="42.447314000" lon="-2.457921000">
        <ele>406.60</ele>
        <time>2017-02-11T10:25:13Z</time>
      </trkpt>
      <trkpt lat="42.447354000" lon="-2.457895000">
        <ele>406.50</ele>
        <time>2017-02-11T10:25:14Z</time>
      </trkpt>
      <trkpt lat="42.447397000" lon="-2.457875000">
        <ele>406.40</ele>
        <time>2017-02-11T10:25:15Z</time>
      </trkpt>
      <trkpt lat="42.447441000" lon="-2.457856000">
        <ele>406.50</ele>
        <time>2017-02-11T10:25:16Z</time>
      </trkpt>
      <trkpt lat="42.447485000" lon="-2.457835000">
        <ele>406.50</ele>
        <time>2017-02-11T10:25:17Z</time>
      </trkpt>
      <trkpt lat="42.447529000" lon="-2.457809000">
        <ele>406.60</ele>
        <time>2017-02-11T10:25:18Z</time>
      </trkpt>
      <trkpt lat="42.447576000" lon="-2.457787000">
        <ele>406.70</ele>
        <time>2017-02-11T10:25:19Z</time>
      </trkpt>
      <trkpt lat="42.447626000" lon="-2.457768000">
        <ele>406.70</ele>
        <time>2017-02-11T10:25:20Z</time>
      </trkpt>
      <trkpt lat="42.447679000" lon="-2.457752000">
        <ele>406.70</ele>
        <time>2017-02-11T10:25:21Z</time>
      </trkpt>
      <trkpt lat="42.447729000" lon="-2.457735000">
        <ele>406.40</ele>
        <time>2017-02-11T10:25:22Z</time>
      </trkpt>
      <trkpt lat="42.447780000" lon="-2.457721000">
        <ele>406.10</ele>
        <time>2017-02-11T10:25:23Z</time>
      </trkpt>
      <trkpt lat="42.447832000" lon="-2.457709000">
        <ele>405.90</ele>
        <time>2017-02-11T10:25:24Z</time>
      </trkpt>
      <trkpt lat="42.447883000" lon="-2.457696000">
        <ele>405.80</ele>
        <time>2017-02-11T10:25:25Z</time>
      </trkpt>
      <trkpt lat="42.447936000" lon="-2.457678000">
        <ele>405.70</ele>
        <time>2017-02-11T10:25:26Z</time>
      </trkpt>
      <trkpt lat="42.447985000" lon="-2.457651000">
        <ele>405.60</ele>
        <time>2017-02-11T10:25:27Z</time>
      </trkpt>
      <trkpt lat="42.448037000" lon="-2.457623000">
        <ele>405.70</ele>
        <time>2017-02-11T10:25:28Z</time>
      </trkpt>
      <trkpt lat="42.448086000" lon="-2.457581000">
        <ele>405.80</ele>
        <time>2017-02-11T10:25:29Z</time>
      </trkpt>
      <trkpt lat="42.448130000" lon="-2.457530000">
        <ele>405.80</ele>
        <time>2017-02-11T10:25:30Z</time>
      </trkpt>
      <trkpt lat="42.448170000" lon="-2.457476000">
        <ele>405.80</ele>
        <time>2017-02-11T10:25:31Z</time>
      </trkpt>
      <trkpt lat="42.448209000" lon="-2.457423000">
        <ele>405.30</ele>
        <time>2017-02-11T10:25:32Z</time>
      </trkpt>
      <trkpt lat="42.448244000" lon="-2.457367000">
        <ele>404.90</ele>
        <time>2017-02-11T10:25:33Z</time>
      </trkpt>
      <trkpt lat="42.448280000" lon="-2.457312000">
        <ele>404.60</ele>
        <time>2017-02-11T10:25:34Z</time>
      </trkpt>
      <trkpt lat="42.448312000" lon="-2.457258000">
        <ele>404.40</ele>
        <time>2017-02-11T10:25:35Z</time>
      </trkpt>
      <trkpt lat="42.448343000" lon="-2.457209000">
        <ele>404.10</ele>
        <time>2017-02-11T10:25:36Z</time>
      </trkpt>
      <trkpt lat="42.448375000" lon="-2.457157000">
        <ele>404.00</ele>
        <time>2017-02-11T10:25:37Z</time>
      </trkpt>
      <trkpt lat="42.448408000" lon="-2.457107000">
        <ele>403.90</ele>
        <time>2017-02-11T10:25:38Z</time>
      </trkpt>
      <trkpt lat="42.448443000" lon="-2.457058000">
        <ele>403.90</ele>
        <time>2017-02-11T10:25:39Z</time>
      </trkpt>
      <trkpt lat="42.448472000" lon="-2.457005000">
        <ele>403.50</ele>
        <time>2017-02-11T10:25:40Z</time>
      </trkpt>
      <trkpt lat="42.448499000" lon="-2.456953000">
        <ele>403.30</ele>
        <time>2017-02-11T10:25:41Z</time>
      </trkpt>
      <trkpt lat="42.448524000" lon="-2.456907000">
        <ele>403.30</ele>
        <time>2017-02-11T10:25:42Z</time>
      </trkpt>
      <trkpt lat="42.448552000" lon="-2.456865000">
        <ele>403.30</ele>
        <time>2017-02-11T10:25:43Z</time>
      </trkpt>
      <trkpt lat="42.448582000" lon="-2.456823000">
        <ele>403.20</ele>
        <time>2017-02-11T10:25:44Z</time>
      </trkpt>
      <trkpt lat="42.448616000" lon="-2.456783000">
        <ele>403.10</ele>
        <time>2017-02-11T10:25:45Z</time>
      </trkpt>
      <trkpt lat="42.448652000" lon="-2.456741000">
        <ele>403.20</ele>
        <time>2017-02-11T10:25:46Z</time>
      </trkpt>
      <trkpt lat="42.448692000" lon="-2.456696000">
        <ele>403.30</ele>
        <time>2017-02-11T10:25:47Z</time>
      </trkpt>
      <trkpt lat="42.448732000" lon="-2.456647000">
        <ele>403.40</ele>
        <time>2017-02-11T10:25:48Z</time>
      </trkpt>
      <trkpt lat="42.448772000" lon="-2.456598000">
        <ele>403.50</ele>
        <time>2017-02-11T10:25:49Z</time>
      </trkpt>
      <trkpt lat="42.448812000" lon="-2.456546000">
        <ele>403.50</ele>
        <time>2017-02-11T10:25:50Z</time>
      </trkpt>
      <trkpt lat="42.448902000" lon="-2.456448000">
        <ele>403.60</ele>
        <time>2017-02-11T10:25:52Z</time>
      </trkpt>
      <trkpt lat="42.448945000" lon="-2.456398000">
        <ele>403.60</ele>
        <time>2017-02-11T10:25:53Z</time>
      </trkpt>
      <trkpt lat="42.448987000" lon="-2.456347000">
        <ele>403.40</ele>
        <time>2017-02-11T10:25:54Z</time>
      </trkpt>
      <trkpt lat="42.449029000" lon="-2.456295000">
        <ele>403.30</ele>
        <time>2017-02-11T10:25:55Z</time>
      </trkpt>
      <trkpt lat="42.449069000" lon="-2.456245000">
        <ele>403.10</ele>
        <time>2017-02-11T10:25:56Z</time>
      </trkpt>
      <trkpt lat="42.449111000" lon="-2.456196000">
        <ele>402.90</ele>
        <time>2017-02-11T10:25:57Z</time>
      </trkpt>
      <trkpt lat="42.449146000" lon="-2.456147000">
        <ele>402.80</ele>
        <time>2017-02-11T10:25:58Z</time>
      </trkpt>
      <trkpt lat="42.449175000" lon="-2.456108000">
        <ele>402.70</ele>
        <time>2017-02-11T10:25:59Z</time>
      </trkpt>
      <trkpt lat="42.449201000" lon="-2.456075000">
        <ele>402.60</ele>
        <time>2017-02-11T10:26:00Z</time>
      </trkpt>
      <trkpt lat="42.449227000" lon="-2.456038000">
        <ele>402.60</ele>
        <time>2017-02-11T10:26:01Z</time>
      </trkpt>
      <trkpt lat="42.449246000" lon="-2.455998000">
        <ele>402.40</ele>
        <time>2017-02-11T10:26:02Z</time>
      </trkpt>
      <trkpt lat="42.449269000" lon="-2.455958000">
        <ele>402.30</ele>
        <time>2017-02-11T10:26:03Z</time>
      </trkpt>
      <trkpt lat="42.449293000" lon="-2.455917000">
        <ele>402.20</ele>
        <time>2017-02-11T10:26:04Z</time>
      </trkpt>
      <trkpt lat="42.449316000" lon="-2.455878000">
        <ele>402.10</ele>
        <time>2017-02-11T10:26:05Z</time>
      </trkpt>
      <trkpt lat="42.449339000" lon="-2.455843000">
        <ele>402.00</ele>
        <time>2017-02-11T10:26:06Z</time>
      </trkpt>
      <trkpt lat="42.449359000" lon="-2.455808000">
        <ele>402.00</ele>
        <time>2017-02-11T10:26:07Z</time>
      </trkpt>
      <trkpt lat="42.449382000" lon="-2.455777000">
        <ele>402.00</ele>
        <time>2017-02-11T10:26:08Z</time>
      </trkpt>
      <trkpt lat="42.449401000" lon="-2.455746000">
        <ele>401.90</ele>
        <time>2017-02-11T10:26:09Z</time>
      </trkpt>
      <trkpt lat="42.449425000" lon="-2.455715000">
        <ele>401.90</ele>
        <time>2017-02-11T10:26:10Z</time>
      </trkpt>
      <trkpt lat="42.449446000" lon="-2.455681000">
        <ele>401.90</ele>
        <time>2017-02-11T10:26:11Z</time>
      </trkpt>
      <trkpt lat="42.449470000" lon="-2.455649000">
        <ele>402.00</ele>
        <time>2017-02-11T10:26:12Z</time>
      </trkpt>
      <trkpt lat="42.449501000" lon="-2.455627000">
        <ele>402.10</ele>
        <time>2017-02-11T10:26:13Z</time>
      </trkpt>
      <trkpt lat="42.449536000" lon="-2.455606000">
        <ele>402.20</ele>
        <time>2017-02-11T10:26:14Z</time>
      </trkpt>
      <trkpt lat="42.449574000" lon="-2.455598000">
        <ele>402.20</ele>
        <time>2017-02-11T10:26:15Z</time>
      </trkpt>
      <trkpt lat="42.449616000" lon="-2.455595000">
        <ele>402.30</ele>
        <time>2017-02-11T10:26:16Z</time>
      </trkpt>
      <trkpt lat="42.449659000" lon="-2.455598000">
        <ele>402.30</ele>
        <time>2017-02-11T10:26:17Z</time>
      </trkpt>
      <trkpt lat="42.449701000" lon="-2.455601000">
        <ele>402.30</ele>
        <time>2017-02-11T10:26:18Z</time>
      </trkpt>
      <trkpt lat="42.449742000" lon="-2.455591000">
        <ele>402.30</ele>
        <time>2017-02-11T10:26:19Z</time>
      </trkpt>
      <trkpt lat="42.449779000" lon="-2.455579000">
        <ele>402.70</ele>
        <time>2017-02-11T10:26:20Z</time>
      </trkpt>
      <trkpt lat="42.449818000" lon="-2.455564000">
        <ele>402.90</ele>
        <time>2017-02-11T10:26:21Z</time>
      </trkpt>
      <trkpt lat="42.449853000" lon="-2.455545000">
        <ele>403.10</ele>
        <time>2017-02-11T10:26:22Z</time>
      </trkpt>
      <trkpt lat="42.449890000" lon="-2.455523000">
        <ele>403.30</ele>
        <time>2017-02-11T10:26:23Z</time>
      </trkpt>
      <trkpt lat="42.449928000" lon="-2.455505000">
        <ele>403.20</ele>
        <time>2017-02-11T10:26:24Z</time>
      </trkpt>
      <trkpt lat="42.449968000" lon="-2.455490000">
        <ele>403.10</ele>
        <time>2017-02-11T10:26:25Z</time>
      </trkpt>
      <trkpt lat="42.450007000" lon="-2.455474000">
        <ele>402.90</ele>
        <time>2017-02-11T10:26:26Z</time>
      </trkpt>
      <trkpt lat="42.450047000" lon="-2.455455000">
        <ele>402.80</ele>
        <time>2017-02-11T10:26:27Z</time>
      </trkpt>
      <trkpt lat="42.450087000" lon="-2.455440000">
        <ele>402.70</ele>
        <time>2017-02-11T10:26:28Z</time>
      </trkpt>
      <trkpt lat="42.450128000" lon="-2.455427000">
        <ele>402.60</ele>
        <time>2017-02-11T10:26:29Z</time>
      </trkpt>
      <trkpt lat="42.450176000" lon="-2.455420000">
        <ele>402.50</ele>
        <time>2017-02-11T10:26:30Z</time>
      </trkpt>
      <trkpt lat="42.450223000" lon="-2.455410000">
        <ele>402.40</ele>
        <time>2017-02-11T10:26:31Z</time>
      </trkpt>
      <trkpt lat="42.450269000" lon="-2.455400000">
        <ele>402.30</ele>
        <time>2017-02-11T10:26:32Z</time>
      </trkpt>
      <trkpt lat="42.450316000" lon="-2.455391000">
        <ele>402.20</ele>
        <time>2017-02-11T10:26:33Z</time>
      </trkpt>
      <trkpt lat="42.450363000" lon="-2.455382000">
        <ele>402.20</ele>
        <time>2017-02-11T10:26:34Z</time>
      </trkpt>
      <trkpt lat="42.450411000" lon="-2.455372000">
        <ele>402.20</ele>
        <time>2017-02-11T10:26:35Z</time>
      </trkpt>
      <trkpt lat="42.450458000" lon="-2.455361000">
        <ele>402.10</ele>
        <time>2017-02-11T10:26:36Z</time>
      </trkpt>
      <trkpt lat="42.450507000" lon="-2.455348000">
        <ele>402.00</ele>
        <time>2017-02-11T10:26:37Z</time>
      </trkpt>
      <trkpt lat="42.450556000" lon="-2.455338000">
        <ele>402.00</ele>
        <time>2017-02-11T10:26:38Z</time>
      </trkpt>
      <trkpt lat="42.450604000" lon="-2.455330000">
        <ele>401.90</ele>
        <time>2017-02-11T10:26:39Z</time>
      </trkpt>
      <trkpt lat="42.450653000" lon="-2.455320000">
        <ele>401.80</ele>
        <time>2017-02-11T10:26:40Z</time>
      </trkpt>
      <trkpt lat="42.450701000" lon="-2.455307000">
        <ele>401.80</ele>
        <time>2017-02-11T10:26:41Z</time>
      </trkpt>
      <trkpt lat="42.450749000" lon="-2.455288000">
        <ele>401.80</ele>
        <time>2017-02-11T10:26:42Z</time>
      </trkpt>
      <trkpt lat="42.450798000" lon="-2.455273000">
        <ele>401.70</ele>
        <time>2017-02-11T10:26:43Z</time>
      </trkpt>
      <trkpt lat="42.450845000" lon="-2.455252000">
        <ele>401.60</ele>
        <time>2017-02-11T10:26:44Z</time>
      </trkpt>
      <trkpt lat="42.450891000" lon="-2.455228000">
        <ele>401.70</ele>
        <time>2017-02-11T10:26:45Z</time>
      </trkpt>
      <trkpt lat="42.450940000" lon="-2.455213000">
        <ele>401.70</ele>
        <time>2017-02-11T10:26:46Z</time>
      </trkpt>
      <trkpt lat="42.450991000" lon="-2.455202000">
        <ele>401.60</ele>
        <time>2017-02-11T10:26:47Z</time>
      </trkpt>
      <trkpt lat="42.451041000" lon="-2.455185000">
        <ele>401.60</ele>
        <time>2017-02-11T10:26:48Z</time>
      </trkpt>
      <trkpt lat="42.451092000" lon="-2.455167000">
        <ele>401.60</ele>
        <time>2017-02-11T10:26:49Z</time>
      </trkpt>
      <trkpt lat="42.451142000" lon="-2.455157000">
        <ele>401.60</ele>
        <time>2017-02-11T10:26:50Z</time>
      </trkpt>
      <trkpt lat="42.451192000" lon="-2.455147000">
        <ele>401.70</ele>
        <time>2017-02-11T10:26:51Z</time>
      </trkpt>
      <trkpt lat="42.451242000" lon="-2.455139000">
        <ele>401.80</ele>
        <time>2017-02-11T10:26:52Z</time>
      </trkpt>
      <trkpt lat="42.451338000" lon="-2.455120000">
        <ele>401.90</ele>
        <time>2017-02-11T10:26:54Z</time>
      </trkpt>
      <trkpt lat="42.451387000" lon="-2.455109000">
        <ele>401.80</ele>
        <time>2017-02-11T10:26:55Z</time>
      </trkpt>
      <trkpt lat="42.451435000" lon="-2.455097000">
        <ele>401.60</ele>
        <time>2017-02-11T10:26:56Z</time>
      </trkpt>
      <trkpt lat="42.451483000" lon="-2.455088000">
        <ele>401.50</ele>
        <time>2017-02-11T10:26:57Z</time>
      </trkpt>
      <trkpt lat="42.451532000" lon="-2.455078000">
        <ele>401.40</ele>
        <time>2017-02-11T10:26:58Z</time>
      </trkpt>
      <trkpt lat="42.451582000" lon="-2.455066000">
        <ele>401.40</ele>
        <time>2017-02-11T10:26:59Z</time>
      </trkpt>
      <trkpt lat="42.451629000" lon="-2.455052000">
        <ele>401.30</ele>
        <time>2017-02-11T10:27:00Z</time>
      </trkpt>
      <trkpt lat="42.451675000" lon="-2.455036000">
        <ele>401.20</ele>
        <time>2017-02-11T10:27:01Z</time>
      </trkpt>
      <trkpt lat="42.451720000" lon="-2.455016000">
        <ele>401.10</ele>
        <time>2017-02-11T10:27:02Z</time>
      </trkpt>
      <trkpt lat="42.451765000" lon="-2.454999000">
        <ele>401.10</ele>
        <time>2017-02-11T10:27:03Z</time>
      </trkpt>
      <trkpt lat="42.451808000" lon="-2.454990000">
        <ele>401.00</ele>
        <time>2017-02-11T10:27:04Z</time>
      </trkpt>
      <trkpt lat="42.451854000" lon="-2.454977000">
        <ele>401.00</ele>
        <time>2017-02-11T10:27:05Z</time>
      </trkpt>
      <trkpt lat="42.451899000" lon="-2.454965000">
        <ele>401.00</ele>
        <time>2017-02-11T10:27:06Z</time>
      </trkpt>
      <trkpt lat="42.451944000" lon="-2.454952000">
        <ele>401.00</ele>
        <time>2017-02-11T10:27:07Z</time>
      </trkpt>
      <trkpt lat="42.451989000" lon="-2.454942000">
        <ele>400.70</ele>
        <time>2017-02-11T10:27:08Z</time>
      </trkpt>
      <trkpt lat="42.452031000" lon="-2.454925000">
        <ele>400.40</ele>
        <time>2017-02-11T10:27:09Z</time>
      </trkpt>
      <trkpt lat="42.452076000" lon="-2.454913000">
        <ele>400.20</ele>
        <time>2017-02-11T10:27:10Z</time>
      </trkpt>
      <trkpt lat="42.452118000" lon="-2.454903000">
        <ele>400.00</ele>
        <time>2017-02-11T10:27:11Z</time>
      </trkpt>
      <trkpt lat="42.452159000" lon="-2.454892000">
        <ele>399.90</ele>
        <time>2017-02-11T10:27:12Z</time>
      </trkpt>
      <trkpt lat="42.452199000" lon="-2.454876000">
        <ele>399.80</ele>
        <time>2017-02-11T10:27:13Z</time>
      </trkpt>
      <trkpt lat="42.452238000" lon="-2.454860000">
        <ele>399.70</ele>
        <time>2017-02-11T10:27:14Z</time>
      </trkpt>
      <trkpt lat="42.452276000" lon="-2.454840000">
        <ele>399.60</ele>
        <time>2017-02-11T10:27:15Z</time>
      </trkpt>
      <trkpt lat="42.452315000" lon="-2.454820000">
        <ele>399.60</ele>
        <time>2017-02-11T10:27:16Z</time>
      </trkpt>
      <trkpt lat="42.452357000" lon="-2.454809000">
        <ele>399.60</ele>
        <time>2017-02-11T10:27:17Z</time>
      </trkpt>
      <trkpt lat="42.452400000" lon="-2.454804000">
        <ele>399.50</ele>
        <time>2017-02-11T10:27:18Z</time>
      </trkpt>
      <trkpt lat="42.452444000" lon="-2.454815000">
        <ele>399.40</ele>
        <time>2017-02-11T10:27:19Z</time>
      </trkpt>
      <trkpt lat="42.452491000" lon="-2.454826000">
        <ele>399.40</ele>
        <time>2017-02-11T10:27:20Z</time>
      </trkpt>
      <trkpt lat="42.452542000" lon="-2.454835000">
        <ele>399.30</ele>
        <time>2017-02-11T10:27:21Z</time>
      </trkpt>
      <trkpt lat="42.452595000" lon="-2.454827000">
        <ele>399.20</ele>
        <time>2017-02-11T10:27:22Z</time>
      </trkpt>
      <trkpt lat="42.452649000" lon="-2.454812000">
        <ele>399.00</ele>
        <time>2017-02-11T10:27:23Z</time>
      </trkpt>
      <trkpt lat="42.452701000" lon="-2.454790000">
        <ele>398.90</ele>
        <time>2017-02-11T10:27:24Z</time>
      </trkpt>
      <trkpt lat="42.452756000" lon="-2.454772000">
        <ele>398.60</ele>
        <time>2017-02-11T10:27:25Z</time>
      </trkpt>
      <trkpt lat="42.452811000" lon="-2.454756000">
        <ele>398.50</ele>
        <time>2017-02-11T10:27:26Z</time>
      </trkpt>
      <trkpt lat="42.452865000" lon="-2.454741000">
        <ele>398.40</ele>
        <time>2017-02-11T10:27:27Z</time>
      </trkpt>
      <trkpt lat="42.452921000" lon="-2.454726000">
        <ele>398.30</ele>
        <time>2017-02-11T10:27:28Z</time>
      </trkpt>
      <trkpt lat="42.452973000" lon="-2.454707000">
        <ele>398.30</ele>
        <time>2017-02-11T10:27:29Z</time>
      </trkpt>
      <trkpt lat="42.453025000" lon="-2.454692000">
        <ele>398.30</ele>
        <time>2017-02-11T10:27:30Z</time>
      </trkpt>
      <trkpt lat="42.453078000" lon="-2.454679000">
        <ele>398.40</ele>
        <time>2017-02-11T10:27:31Z</time>
      </trkpt>
      <trkpt lat="42.453131000" lon="-2.454668000">
        <ele>398.40</ele>
        <time>2017-02-11T10:27:32Z</time>
      </trkpt>
      <trkpt lat="42.453183000" lon="-2.454650000">
        <ele>398.30</ele>
        <time>2017-02-11T10:27:33Z</time>
      </trkpt>
      <trkpt lat="42.453230000" lon="-2.454637000">
        <ele>398.30</ele>
        <time>2017-02-11T10:27:34Z</time>
      </trkpt>
      <trkpt lat="42.453275000" lon="-2.454629000">
        <ele>398.20</ele>
        <time>2017-02-11T10:27:35Z</time>
      </trkpt>
      <trkpt lat="42.453319000" lon="-2.454616000">
        <ele>398.20</ele>
        <time>2017-02-11T10:27:36Z</time>
      </trkpt>
      <trkpt lat="42.453363000" lon="-2.454601000">
        <ele>398.30</ele>
        <time>2017-02-11T10:27:37Z</time>
      </trkpt>
      <trkpt lat="42.453407000" lon="-2.454583000">
        <ele>398.30</ele>
        <time>2017-02-11T10:27:38Z</time>
      </trkpt>
      <trkpt lat="42.453446000" lon="-2.454561000">
        <ele>398.30</ele>
        <time>2017-02-11T10:27:39Z</time>
      </trkpt>
      <trkpt lat="42.453487000" lon="-2.454543000">
        <ele>398.40</ele>
        <time>2017-02-11T10:27:40Z</time>
      </trkpt>
      <trkpt lat="42.453531000" lon="-2.454525000">
        <ele>398.40</ele>
        <time>2017-02-11T10:27:41Z</time>
      </trkpt>
      <trkpt lat="42.453576000" lon="-2.454513000">
        <ele>398.40</ele>
        <time>2017-02-11T10:27:42Z</time>
      </trkpt>
      <trkpt lat="42.453623000" lon="-2.454514000">
        <ele>398.40</ele>
        <time>2017-02-11T10:27:43Z</time>
      </trkpt>
      <trkpt lat="42.453669000" lon="-2.454526000">
        <ele>398.40</ele>
        <time>2017-02-11T10:27:44Z</time>
      </trkpt>
      <trkpt lat="42.453706000" lon="-2.454557000">
        <ele>398.30</ele>
        <time>2017-02-11T10:27:45Z</time>
      </trkpt>
      <trkpt lat="42.453733000" lon="-2.454598000">
        <ele>398.30</ele>
        <time>2017-02-11T10:27:46Z</time>
      </trkpt>
      <trkpt lat="42.453750000" lon="-2.454646000">
        <ele>398.20</ele>
        <time>2017-02-11T10:27:47Z</time>
      </trkpt>
      <trkpt lat="42.453762000" lon="-2.454693000">
        <ele>398.20</ele>
        <time>2017-02-11T10:27:48Z</time>
      </trkpt>
      <trkpt lat="42.453772000" lon="-2.454739000">
        <ele>398.20</ele>
        <time>2017-02-11T10:27:49Z</time>
      </trkpt>
      <trkpt lat="42.453777000" lon="-2.454786000">
        <ele>398.30</ele>
        <time>2017-02-11T10:27:50Z</time>
      </trkpt>
      <trkpt lat="42.453787000" lon="-2.454826000">
        <ele>398.30</ele>
        <time>2017-02-11T10:27:51Z</time>
      </trkpt>
      <trkpt lat="42.453804000" lon="-2.454860000">
        <ele>398.30</ele>
        <time>2017-02-11T10:27:52Z</time>
      </trkpt>
      <trkpt lat="42.453820000" lon="-2.454888000">
        <ele>398.50</ele>
        <time>2017-02-11T10:27:53Z</time>
      </trkpt>
      <trkpt lat="42.453844000" lon="-2.454960000">
        <ele>398.70</ele>
        <time>2017-02-11T10:27:55Z</time>
      </trkpt>
      <trkpt lat="42.453850000" lon="-2.455005000">
        <ele>398.70</ele>
        <time>2017-02-11T10:27:56Z</time>
      </trkpt>
      <trkpt lat="42.453857000" lon="-2.455052000">
        <ele>398.70</ele>
        <time>2017-02-11T10:27:57Z</time>
      </trkpt>
      <trkpt lat="42.453863000" lon="-2.455105000">
        <ele>398.70</ele>
        <time>2017-02-11T10:27:58Z</time>
      </trkpt>
      <trkpt lat="42.453867000" lon="-2.455162000">
        <ele>398.70</ele>
        <time>2017-02-11T10:27:59Z</time>
      </trkpt>
      <trkpt lat="42.453877000" lon="-2.455217000">
        <ele>398.60</ele>
        <time>2017-02-11T10:28:00Z</time>
      </trkpt>
      <trkpt lat="42.453885000" lon="-2.455276000">
        <ele>398.60</ele>
        <time>2017-02-11T10:28:01Z</time>
      </trkpt>
      <trkpt lat="42.453893000" lon="-2.455334000">
        <ele>398.60</ele>
        <time>2017-02-11T10:28:02Z</time>
      </trkpt>
      <trkpt lat="42.453903000" lon="-2.455389000">
        <ele>398.60</ele>
        <time>2017-02-11T10:28:03Z</time>
      </trkpt>
      <trkpt lat="42.453910000" lon="-2.455443000">
        <ele>398.50</ele>
        <time>2017-02-11T10:28:04Z</time>
      </trkpt>
      <trkpt lat="42.453920000" lon="-2.455498000">
        <ele>398.80</ele>
        <time>2017-02-11T10:28:05Z</time>
      </trkpt>
      <trkpt lat="42.453930000" lon="-2.455554000">
        <ele>398.90</ele>
        <time>2017-02-11T10:28:06Z</time>
      </trkpt>
      <trkpt lat="42.453939000" lon="-2.455612000">
        <ele>399.10</ele>
        <time>2017-02-11T10:28:07Z</time>
      </trkpt>
      <trkpt lat="42.453945000" lon="-2.455668000">
        <ele>399.20</ele>
        <time>2017-02-11T10:28:08Z</time>
      </trkpt>
      <trkpt lat="42.453952000" lon="-2.455725000">
        <ele>399.20</ele>
        <time>2017-02-11T10:28:09Z</time>
      </trkpt>
      <trkpt lat="42.453959000" lon="-2.455782000">
        <ele>399.30</ele>
        <time>2017-02-11T10:28:10Z</time>
      </trkpt>
      <trkpt lat="42.453970000" lon="-2.455839000">
        <ele>399.30</ele>
        <time>2017-02-11T10:28:11Z</time>
      </trkpt>
      <trkpt lat="42.453978000" lon="-2.455893000">
        <ele>399.20</ele>
        <time>2017-02-11T10:28:12Z</time>
      </trkpt>
      <trkpt lat="42.453987000" lon="-2.455947000">
        <ele>399.20</ele>
        <time>2017-02-11T10:28:13Z</time>
      </trkpt>
      <trkpt lat="42.453997000" lon="-2.456003000">
        <ele>399.20</ele>
        <time>2017-02-11T10:28:14Z</time>
      </trkpt>
      <trkpt lat="42.454007000" lon="-2.456060000">
        <ele>399.20</ele>
        <time>2017-02-11T10:28:15Z</time>
      </trkpt>
      <trkpt lat="42.454011000" lon="-2.456119000">
        <ele>399.10</ele>
        <time>2017-02-11T10:28:16Z</time>
      </trkpt>
      <trkpt lat="42.454017000" lon="-2.456176000">
        <ele>399.00</ele>
        <time>2017-02-11T10:28:17Z</time>
      </trkpt>
      <trkpt lat="42.454026000" lon="-2.456235000">
        <ele>399.00</ele>
        <time>2017-02-11T10:28:18Z</time>
      </trkpt>
      <trkpt lat="42.454033000" lon="-2.456291000">
        <ele>398.90</ele>
        <time>2017-02-11T10:28:19Z</time>
      </trkpt>
      <trkpt lat="42.454041000" lon="-2.456349000">
        <ele>398.90</ele>
        <time>2017-02-11T10:28:20Z</time>
      </trkpt>
      <trkpt lat="42.454052000" lon="-2.456401000">
        <ele>399.00</ele>
        <time>2017-02-11T10:28:21Z</time>
      </trkpt>
      <trkpt lat="42.454062000" lon="-2.456456000">
        <ele>399.10</ele>
        <time>2017-02-11T10:28:22Z</time>
      </trkpt>
      <trkpt lat="42.454074000" lon="-2.456506000">
        <ele>399.10</ele>
        <time>2017-02-11T10:28:23Z</time>
      </trkpt>
      <trkpt lat="42.454096000" lon="-2.456552000">
        <ele>399.20</ele>
        <time>2017-02-11T10:28:24Z</time>
      </trkpt>
      <trkpt lat="42.454128000" lon="-2.456591000">
        <ele>399.20</ele>
        <time>2017-02-11T10:28:25Z</time>
      </trkpt>
      <trkpt lat="42.454167000" lon="-2.456629000">
        <ele>399.20</ele>
        <time>2017-02-11T10:28:26Z</time>
      </trkpt>
      <trkpt lat="42.454213000" lon="-2.456669000">
        <ele>399.20</ele>
        <time>2017-02-11T10:28:27Z</time>
      </trkpt>
      <trkpt lat="42.454263000" lon="-2.456709000">
        <ele>399.20</ele>
        <time>2017-02-11T10:28:28Z</time>
      </trkpt>
      <trkpt lat="42.454315000" lon="-2.456752000">
        <ele>399.10</ele>
        <time>2017-02-11T10:28:29Z</time>
      </trkpt>
      <trkpt lat="42.454365000" lon="-2.456791000">
        <ele>398.90</ele>
        <time>2017-02-11T10:28:30Z</time>
      </trkpt>
      <trkpt lat="42.454412000" lon="-2.456836000">
        <ele>398.60</ele>
        <time>2017-02-11T10:28:31Z</time>
      </trkpt>
      <trkpt lat="42.454475000" lon="-2.456871000">
        <ele>398.30</ele>
        <time>2017-02-11T10:28:32Z</time>
      </trkpt>
      <trkpt lat="42.454534000" lon="-2.456898000">
        <ele>398.10</ele>
        <time>2017-02-11T10:28:33Z</time>
      </trkpt>
      <trkpt lat="42.454581000" lon="-2.456940000">
        <ele>398.00</ele>
        <time>2017-02-11T10:28:34Z</time>
      </trkpt>
      <trkpt lat="42.454618000" lon="-2.456994000">
        <ele>397.90</ele>
        <time>2017-02-11T10:28:35Z</time>
      </trkpt>
      <trkpt lat="42.454652000" lon="-2.457037000">
        <ele>397.80</ele>
        <time>2017-02-11T10:28:36Z</time>
      </trkpt>
      <trkpt lat="42.454683000" lon="-2.457075000">
        <ele>397.90</ele>
        <time>2017-02-11T10:28:37Z</time>
      </trkpt>
      <trkpt lat="42.454714000" lon="-2.457114000">
        <ele>397.90</ele>
        <time>2017-02-11T10:28:38Z</time>
      </trkpt>
      <trkpt lat="42.454744000" lon="-2.457151000">
        <ele>398.20</ele>
        <time>2017-02-11T10:28:39Z</time>
      </trkpt>
      <trkpt lat="42.454772000" lon="-2.457181000">
        <ele>398.40</ele>
        <time>2017-02-11T10:28:40Z</time>
      </trkpt>
      <trkpt lat="42.454801000" lon="-2.457213000">
        <ele>398.80</ele>
        <time>2017-02-11T10:28:41Z</time>
      </trkpt>
      <trkpt lat="42.454829000" lon="-2.457238000">
        <ele>399.10</ele>
        <time>2017-02-11T10:28:42Z</time>
      </trkpt>
      <trkpt lat="42.454859000" lon="-2.457263000">
        <ele>399.40</ele>
        <time>2017-02-11T10:28:43Z</time>
      </trkpt>
      <trkpt lat="42.454889000" lon="-2.457286000">
        <ele>399.70</ele>
        <time>2017-02-11T10:28:44Z</time>
      </trkpt>
      <trkpt lat="42.454917000" lon="-2.457314000">
        <ele>399.90</ele>
        <time>2017-02-11T10:28:45Z</time>
      </trkpt>
      <trkpt lat="42.454936000" lon="-2.457359000">
        <ele>400.10</ele>
        <time>2017-02-11T10:28:46Z</time>
      </trkpt>
      <trkpt lat="42.454943000" lon="-2.457407000">
        <ele>400.10</ele>
        <time>2017-02-11T10:28:47Z</time>
      </trkpt>
      <trkpt lat="42.454952000" lon="-2.457457000">
        <ele>400.20</ele>
        <time>2017-02-11T10:28:48Z</time>
      </trkpt>
      <trkpt lat="42.454960000" lon="-2.457509000">
        <ele>400.20</ele>
        <time>2017-02-11T10:28:49Z</time>
      </trkpt>
      <trkpt lat="42.454967000" lon="-2.457561000">
        <ele>400.20</ele>
        <time>2017-02-11T10:28:50Z</time>
      </trkpt>
      <trkpt lat="42.454974000" lon="-2.457615000">
        <ele>400.30</ele>
        <time>2017-02-11T10:28:51Z</time>
      </trkpt>
      <trkpt lat="42.454981000" lon="-2.457670000">
        <ele>400.30</ele>
        <time>2017-02-11T10:28:52Z</time>
      </trkpt>
      <trkpt lat="42.454988000" lon="-2.457721000">
        <ele>400.30</ele>
        <time>2017-02-11T10:28:53Z</time>
      </trkpt>
      <trkpt lat="42.454993000" lon="-2.457769000">
        <ele>400.30</ele>
        <time>2017-02-11T10:28:54Z</time>
      </trkpt>
      <trkpt lat="42.455006000" lon="-2.457867000">
        <ele>400.10</ele>
        <time>2017-02-11T10:28:56Z</time>
      </trkpt>
      <trkpt lat="42.455013000" lon="-2.457916000">
        <ele>400.10</ele>
        <time>2017-02-11T10:28:57Z</time>
      </trkpt>
      <trkpt lat="42.455022000" lon="-2.457956000">
        <ele>400.00</ele>
        <time>2017-02-11T10:28:58Z</time>
      </trkpt>
      <trkpt lat="42.455033000" lon="-2.457991000">
        <ele>400.00</ele>
        <time>2017-02-11T10:28:59Z</time>
      </trkpt>
      <trkpt lat="42.455052000" lon="-2.458020000">
        <ele>400.00</ele>
        <time>2017-02-11T10:29:00Z</time>
      </trkpt>
      <trkpt lat="42.455074000" lon="-2.458039000">
        <ele>399.90</ele>
        <time>2017-02-11T10:29:01Z</time>
      </trkpt>
      <trkpt lat="42.455096000" lon="-2.458036000">
        <ele>399.80</ele>
        <time>2017-02-11T10:29:02Z</time>
      </trkpt>
      <trkpt lat="42.455122000" lon="-2.458027000">
        <ele>399.70</ele>
        <time>2017-02-11T10:29:03Z</time>
      </trkpt>
      <trkpt lat="42.455148000" lon="-2.458018000">
        <ele>399.60</ele>
        <time>2017-02-11T10:29:04Z</time>
      </trkpt>
      <trkpt lat="42.455175000" lon="-2.458011000">
        <ele>399.50</ele>
        <time>2017-02-11T10:29:05Z</time>
      </trkpt>
      <trkpt lat="42.455198000" lon="-2.458009000">
        <ele>399.40</ele>
        <time>2017-02-11T10:29:06Z</time>
      </trkpt>
      <trkpt lat="42.455230000" lon="-2.458001000">
        <ele>399.30</ele>
        <time>2017-02-11T10:29:07Z</time>
      </trkpt>
      <trkpt lat="42.455267000" lon="-2.457982000">
        <ele>399.30</ele>
        <time>2017-02-11T10:29:08Z</time>
      </trkpt>
      <trkpt lat="42.455306000" lon="-2.457954000">
        <ele>399.70</ele>
        <time>2017-02-11T10:29:09Z</time>
      </trkpt>
      <trkpt lat="42.455338000" lon="-2.457922000">
        <ele>400.10</ele>
        <time>2017-02-11T10:29:10Z</time>
      </trkpt>
      <trkpt lat="42.455371000" lon="-2.457891000">
        <ele>400.30</ele>
        <time>2017-02-11T10:29:11Z</time>
      </trkpt>
      <trkpt lat="42.455405000" lon="-2.457862000">
        <ele>400.50</ele>
        <time>2017-02-11T10:29:12Z</time>
      </trkpt>
      <trkpt lat="42.455438000" lon="-2.457834000">
        <ele>400.50</ele>
        <time>2017-02-11T10:29:13Z</time>
      </trkpt>
      <trkpt lat="42.455468000" lon="-2.457805000">
        <ele>400.50</ele>
        <time>2017-02-11T10:29:14Z</time>
      </trkpt>
      <trkpt lat="42.455501000" lon="-2.457780000">
        <ele>400.10</ele>
        <time>2017-02-11T10:29:15Z</time>
      </trkpt>
      <trkpt lat="42.455533000" lon="-2.457764000">
        <ele>399.80</ele>
        <time>2017-02-11T10:29:16Z</time>
      </trkpt>
      <trkpt lat="42.455574000" lon="-2.457763000">
        <ele>399.50</ele>
        <time>2017-02-11T10:29:17Z</time>
      </trkpt>
      <trkpt lat="42.455621000" lon="-2.457787000">
        <ele>399.40</ele>
        <time>2017-02-11T10:29:18Z</time>
      </trkpt>
      <trkpt lat="42.455662000" lon="-2.457811000">
        <ele>399.10</ele>
        <time>2017-02-11T10:29:19Z</time>
      </trkpt>
      <trkpt lat="42.455704000" lon="-2.457854000">
        <ele>398.90</ele>
        <time>2017-02-11T10:29:20Z</time>
      </trkpt>
      <trkpt lat="42.455748000" lon="-2.457894000">
        <ele>398.60</ele>
        <time>2017-02-11T10:29:21Z</time>
      </trkpt>
      <trkpt lat="42.455790000" lon="-2.457922000">
        <ele>398.40</ele>
        <time>2017-02-11T10:29:22Z</time>
      </trkpt>
      <trkpt lat="42.455840000" lon="-2.457948000">
        <ele>398.20</ele>
        <time>2017-02-11T10:29:23Z</time>
      </trkpt>
      <trkpt lat="42.455890000" lon="-2.457953000">
        <ele>398.00</ele>
        <time>2017-02-11T10:29:24Z</time>
      </trkpt>
      <trkpt lat="42.455934000" lon="-2.457948000">
        <ele>397.90</ele>
        <time>2017-02-11T10:29:25Z</time>
      </trkpt>
      <trkpt lat="42.455978000" lon="-2.457938000">
        <ele>397.80</ele>
        <time>2017-02-11T10:29:26Z</time>
      </trkpt>
      <trkpt lat="42.456013000" lon="-2.457924000">
        <ele>397.80</ele>
        <time>2017-02-11T10:29:27Z</time>
      </trkpt>
      <trkpt lat="42.456047000" lon="-2.457911000">
        <ele>397.70</ele>
        <time>2017-02-11T10:29:28Z</time>
      </trkpt>
      <trkpt lat="42.456076000" lon="-2.457908000">
        <ele>398.00</ele>
        <time>2017-02-11T10:29:29Z</time>
      </trkpt>
      <trkpt lat="42.456104000" lon="-2.457916000">
        <ele>398.20</ele>
        <time>2017-02-11T10:29:30Z</time>
      </trkpt>
      <trkpt lat="42.456125000" lon="-2.457944000">
        <ele>398.50</ele>
        <time>2017-02-11T10:29:31Z</time>
      </trkpt>
      <trkpt lat="42.456129000" lon="-2.457977000">
        <ele>398.70</ele>
        <time>2017-02-11T10:29:32Z</time>
      </trkpt>
      <trkpt lat="42.456135000" lon="-2.458014000">
        <ele>398.90</ele>
        <time>2017-02-11T10:29:33Z</time>
      </trkpt>
      <trkpt lat="42.456142000" lon="-2.458060000">
        <ele>399.00</ele>
        <time>2017-02-11T10:29:34Z</time>
      </trkpt>
      <trkpt lat="42.456148000" lon="-2.458104000">
        <ele>399.00</ele>
        <time>2017-02-11T10:29:35Z</time>
      </trkpt>
      <trkpt lat="42.456156000" lon="-2.458149000">
        <ele>399.10</ele>
        <time>2017-02-11T10:29:36Z</time>
      </trkpt>
      <trkpt lat="42.456163000" lon="-2.458192000">
        <ele>399.10</ele>
        <time>2017-02-11T10:29:37Z</time>
      </trkpt>
      <trkpt lat="42.456169000" lon="-2.458239000">
        <ele>399.10</ele>
        <time>2017-02-11T10:29:38Z</time>
      </trkpt>
      <trkpt lat="42.456175000" lon="-2.458285000">
        <ele>399.10</ele>
        <time>2017-02-11T10:29:39Z</time>
      </trkpt>
      <trkpt lat="42.456181000" lon="-2.458332000">
        <ele>399.10</ele>
        <time>2017-02-11T10:29:40Z</time>
      </trkpt>
      <trkpt lat="42.456188000" lon="-2.458381000">
        <ele>399.10</ele>
        <time>2017-02-11T10:29:41Z</time>
      </trkpt>
      <trkpt lat="42.456197000" lon="-2.458428000">
        <ele>399.10</ele>
        <time>2017-02-11T10:29:42Z</time>
      </trkpt>
      <trkpt lat="42.456206000" lon="-2.458477000">
        <ele>399.20</ele>
        <time>2017-02-11T10:29:43Z</time>
      </trkpt>
      <trkpt lat="42.456214000" lon="-2.458527000">
        <ele>399.20</ele>
        <time>2017-02-11T10:29:44Z</time>
      </trkpt>
      <trkpt lat="42.456223000" lon="-2.458578000">
        <ele>399.10</ele>
        <time>2017-02-11T10:29:45Z</time>
      </trkpt>
      <trkpt lat="42.456232000" lon="-2.458628000">
        <ele>399.10</ele>
        <time>2017-02-11T10:29:46Z</time>
      </trkpt>
      <trkpt lat="42.456242000" lon="-2.458678000">
        <ele>399.10</ele>
        <time>2017-02-11T10:29:47Z</time>
      </trkpt>
      <trkpt lat="42.456253000" lon="-2.458726000">
        <ele>399.20</ele>
        <time>2017-02-11T10:29:48Z</time>
      </trkpt>
      <trkpt lat="42.456262000" lon="-2.458773000">
        <ele>399.30</ele>
        <time>2017-02-11T10:29:49Z</time>
      </trkpt>
      <trkpt lat="42.456271000" lon="-2.458821000">
        <ele>399.40</ele>
        <time>2017-02-11T10:29:50Z</time>
      </trkpt>
      <trkpt lat="42.456279000" lon="-2.458868000">
        <ele>399.40</ele>
        <time>2017-02-11T10:29:51Z</time>
      </trkpt>
      <trkpt lat="42.456289000" lon="-2.458916000">
        <ele>399.50</ele>
        <time>2017-02-11T10:29:52Z</time>
      </trkpt>
      <trkpt lat="42.456303000" lon="-2.458964000">
        <ele>399.50</ele>
        <time>2017-02-11T10:29:53Z</time>
      </trkpt>
      <trkpt lat="42.456318000" lon="-2.459008000">
        <ele>399.40</ele>
        <time>2017-02-11T10:29:54Z</time>
      </trkpt>
      <trkpt lat="42.456330000" lon="-2.459052000">
        <ele>399.40</ele>
        <time>2017-02-11T10:29:55Z</time>
      </trkpt>
      <trkpt lat="42.456341000" lon="-2.459116000">
        <ele>399.20</ele>
        <time>2017-02-11T10:29:57Z</time>
      </trkpt>
      <trkpt lat="42.456348000" lon="-2.459131000">
        <ele>399.20</ele>
        <time>2017-02-11T10:29:58Z</time>
      </trkpt>
      <trkpt lat="42.456354000" lon="-2.459150000">
        <ele>399.10</ele>
        <time>2017-02-11T10:29:59Z</time>
      </trkpt>
      <trkpt lat="42.456360000" lon="-2.459177000">
        <ele>399.10</ele>
        <time>2017-02-11T10:30:00Z</time>
      </trkpt>
      <trkpt lat="42.456363000" lon="-2.459214000">
        <ele>399.10</ele>
        <time>2017-02-11T10:30:01Z</time>
      </trkpt>
      <trkpt lat="42.456365000" lon="-2.459258000">
        <ele>399.10</ele>
        <time>2017-02-11T10:30:02Z</time>
      </trkpt>
      <trkpt lat="42.456364000" lon="-2.459306000">
        <ele>399.00</ele>
        <time>2017-02-11T10:30:03Z</time>
      </trkpt>
      <trkpt lat="42.456370000" lon="-2.459352000">
        <ele>399.00</ele>
        <time>2017-02-11T10:30:04Z</time>
      </trkpt>
      <trkpt lat="42.456373000" lon="-2.459400000">
        <ele>398.90</ele>
        <time>2017-02-11T10:30:05Z</time>
      </trkpt>
      <trkpt lat="42.456378000" lon="-2.459448000">
        <ele>398.90</ele>
        <time>2017-02-11T10:30:06Z</time>
      </trkpt>
      <trkpt lat="42.456384000" lon="-2.459496000">
        <ele>398.90</ele>
        <time>2017-02-11T10:30:07Z</time>
      </trkpt>
      <trkpt lat="42.456391000" lon="-2.459540000">
        <ele>398.90</ele>
        <time>2017-02-11T10:30:08Z</time>
      </trkpt>
      <trkpt lat="42.456400000" lon="-2.459588000">
        <ele>398.90</ele>
        <time>2017-02-11T10:30:09Z</time>
      </trkpt>
      <trkpt lat="42.456410000" lon="-2.459637000">
        <ele>398.90</ele>
        <time>2017-02-11T10:30:10Z</time>
      </trkpt>
      <trkpt lat="42.456418000" lon="-2.459686000">
        <ele>398.90</ele>
        <time>2017-02-11T10:30:11Z</time>
      </trkpt>
      <trkpt lat="42.456428000" lon="-2.459732000">
        <ele>398.90</ele>
        <time>2017-02-11T10:30:12Z</time>
      </trkpt>
      <trkpt lat="42.456439000" lon="-2.459779000">
        <ele>398.90</ele>
        <time>2017-02-11T10:30:13Z</time>
      </trkpt>
      <trkpt lat="42.456445000" lon="-2.459828000">
        <ele>398.90</ele>
        <time>2017-02-11T10:30:14Z</time>
      </trkpt>
      <trkpt lat="42.456449000" lon="-2.459878000">
        <ele>399.00</ele>
        <time>2017-02-11T10:30:15Z</time>
      </trkpt>
      <trkpt lat="42.456454000" lon="-2.459927000">
        <ele>399.10</ele>
        <time>2017-02-11T10:30:16Z</time>
      </trkpt>
      <trkpt lat="42.456463000" lon="-2.459977000">
        <ele>399.20</ele>
        <time>2017-02-11T10:30:17Z</time>
      </trkpt>
      <trkpt lat="42.456471000" lon="-2.460026000">
        <ele>399.20</ele>
        <time>2017-02-11T10:30:18Z</time>
      </trkpt>
      <trkpt lat="42.456479000" lon="-2.460074000">
        <ele>399.30</ele>
        <time>2017-02-11T10:30:19Z</time>
      </trkpt>
      <trkpt lat="42.456486000" lon="-2.460121000">
        <ele>399.40</ele>
        <time>2017-02-11T10:30:20Z</time>
      </trkpt>
      <trkpt lat="42.456490000" lon="-2.460165000">
        <ele>399.50</ele>
        <time>2017-02-11T10:30:21Z</time>
      </trkpt>
      <trkpt lat="42.456499000" lon="-2.460206000">
        <ele>399.50</ele>
        <time>2017-02-11T10:30:22Z</time>
      </trkpt>
      <trkpt lat="42.456506000" lon="-2.460255000">
        <ele>399.50</ele>
        <time>2017-02-11T10:30:23Z</time>
      </trkpt>
      <trkpt lat="42.456513000" lon="-2.460302000">
        <ele>399.60</ele>
        <time>2017-02-11T10:30:24Z</time>
      </trkpt>
      <trkpt lat="42.456520000" lon="-2.460350000">
        <ele>399.60</ele>
        <time>2017-02-11T10:30:25Z</time>
      </trkpt>
      <trkpt lat="42.456524000" lon="-2.460396000">
        <ele>399.60</ele>
        <time>2017-02-11T10:30:26Z</time>
      </trkpt>
      <trkpt lat="42.456526000" lon="-2.460425000">
        <ele>399.60</ele>
        <time>2017-02-11T10:30:27Z</time>
      </trkpt>
      <trkpt lat="42.456535000" lon="-2.460450000">
        <ele>399.50</ele>
        <time>2017-02-11T10:30:28Z</time>
      </trkpt>
      <trkpt lat="42.456552000" lon="-2.460472000">
        <ele>399.50</ele>
        <time>2017-02-11T10:30:29Z</time>
      </trkpt>
      <trkpt lat="42.456566000" lon="-2.460497000">
        <ele>399.50</ele>
        <time>2017-02-11T10:30:30Z</time>
      </trkpt>
      <trkpt lat="42.456583000" lon="-2.460519000">
        <ele>399.50</ele>
        <time>2017-02-11T10:30:31Z</time>
      </trkpt>
      <trkpt lat="42.456603000" lon="-2.460541000">
        <ele>399.50</ele>
        <time>2017-02-11T10:30:32Z</time>
      </trkpt>
      <trkpt lat="42.456612000" lon="-2.460574000">
        <ele>399.50</ele>
        <time>2017-02-11T10:30:33Z</time>
      </trkpt>
      <trkpt lat="42.456619000" lon="-2.460609000">
        <ele>399.60</ele>
        <time>2017-02-11T10:30:34Z</time>
      </trkpt>
      <trkpt lat="42.456631000" lon="-2.460641000">
        <ele>399.60</ele>
        <time>2017-02-11T10:30:35Z</time>
      </trkpt>
      <trkpt lat="42.456635000" lon="-2.460676000">
        <ele>399.60</ele>
        <time>2017-02-11T10:30:36Z</time>
      </trkpt>
      <trkpt lat="42.456647000" lon="-2.460708000">
        <ele>399.70</ele>
        <time>2017-02-11T10:30:37Z</time>
      </trkpt>
      <trkpt lat="42.456652000" lon="-2.460744000">
        <ele>399.70</ele>
        <time>2017-02-11T10:30:38Z</time>
      </trkpt>
      <trkpt lat="42.456657000" lon="-2.460778000">
        <ele>399.80</ele>
        <time>2017-02-11T10:30:39Z</time>
      </trkpt>
      <trkpt lat="42.456661000" lon="-2.460817000">
        <ele>399.80</ele>
        <time>2017-02-11T10:30:40Z</time>
      </trkpt>
      <trkpt lat="42.456665000" lon="-2.460856000">
        <ele>399.80</ele>
        <time>2017-02-11T10:30:41Z</time>
      </trkpt>
      <trkpt lat="42.456671000" lon="-2.460892000">
        <ele>399.80</ele>
        <time>2017-02-11T10:30:42Z</time>
      </trkpt>
      <trkpt lat="42.456675000" lon="-2.460931000">
        <ele>399.90</ele>
        <time>2017-02-11T10:30:43Z</time>
      </trkpt>
      <trkpt lat="42.456679000" lon="-2.460969000">
        <ele>399.90</ele>
        <time>2017-02-11T10:30:44Z</time>
      </trkpt>
      <trkpt lat="42.456686000" lon="-2.460993000">
        <ele>400.00</ele>
        <time>2017-02-11T10:30:45Z</time>
      </trkpt>
      <trkpt lat="42.456693000" lon="-2.461024000">
        <ele>400.00</ele>
        <time>2017-02-11T10:30:46Z</time>
      </trkpt>
      <trkpt lat="42.456694000" lon="-2.461061000">
        <ele>399.90</ele>
        <time>2017-02-11T10:30:47Z</time>
      </trkpt>
      <trkpt lat="42.456696000" lon="-2.461097000">
        <ele>399.90</ele>
        <time>2017-02-11T10:30:48Z</time>
      </trkpt>
      <trkpt lat="42.456699000" lon="-2.461140000">
        <ele>400.00</ele>
        <time>2017-02-11T10:30:49Z</time>
      </trkpt>
      <trkpt lat="42.456702000" lon="-2.461182000">
        <ele>400.00</ele>
        <time>2017-02-11T10:30:50Z</time>
      </trkpt>
      <trkpt lat="42.456704000" lon="-2.461221000">
        <ele>400.20</ele>
        <time>2017-02-11T10:30:51Z</time>
      </trkpt>
      <trkpt lat="42.456705000" lon="-2.461255000">
        <ele>400.30</ele>
        <time>2017-02-11T10:30:52Z</time>
      </trkpt>
      <trkpt lat="42.456710000" lon="-2.461290000">
        <ele>400.40</ele>
        <time>2017-02-11T10:30:53Z</time>
      </trkpt>
      <trkpt lat="42.456719000" lon="-2.461315000">
        <ele>400.50</ele>
        <time>2017-02-11T10:30:54Z</time>
      </trkpt>
      <trkpt lat="42.456729000" lon="-2.461334000">
        <ele>400.60</ele>
        <time>2017-02-11T10:30:55Z</time>
      </trkpt>
      <trkpt lat="42.456736000" lon="-2.461353000">
        <ele>400.70</ele>
        <time>2017-02-11T10:30:56Z</time>
      </trkpt>
      <trkpt lat="42.456743000" lon="-2.461371000">
        <ele>400.60</ele>
        <time>2017-02-11T10:30:57Z</time>
      </trkpt>
      <trkpt lat="42.456753000" lon="-2.461401000">
        <ele>400.60</ele>
        <time>2017-02-11T10:30:59Z</time>
      </trkpt>
      <trkpt lat="42.456752000" lon="-2.461419000">
        <ele>400.70</ele>
        <time>2017-02-11T10:31:00Z</time>
      </trkpt>
      <trkpt lat="42.456750000" lon="-2.461435000">
        <ele>400.80</ele>
        <time>2017-02-11T10:31:01Z</time>
      </trkpt>
      <trkpt lat="42.456752000" lon="-2.461443000">
        <ele>400.90</ele>
        <time>2017-02-11T10:31:02Z</time>
      </trkpt>
      <trkpt lat="42.456757000" lon="-2.461459000">
        <ele>401.00</ele>
        <time>2017-02-11T10:31:03Z</time>
      </trkpt>
      <trkpt lat="42.456769000" lon="-2.461468000">
        <ele>401.00</ele>
        <time>2017-02-11T10:31:04Z</time>
      </trkpt>
      <trkpt lat="42.456772000" lon="-2.461475000">
        <ele>401.00</ele>
        <time>2017-02-11T10:31:05Z</time>
      </trkpt>
      <trkpt lat="42.456775000" lon="-2.461481000">
        <ele>400.90</ele>
        <time>2017-02-11T10:31:06Z</time>
      </trkpt>
      <trkpt lat="42.456789000" lon="-2.461487000">
        <ele>400.90</ele>
        <time>2017-02-11T10:31:07Z</time>
      </trkpt>
      <trkpt lat="42.456814000" lon="-2.461497000">
        <ele>400.80</ele>
        <time>2017-02-11T10:31:08Z</time>
      </trkpt>
      <trkpt lat="42.456847000" lon="-2.461494000">
        <ele>400.80</ele>
        <time>2017-02-11T10:31:09Z</time>
      </trkpt>
      <trkpt lat="42.456889000" lon="-2.461487000">
        <ele>400.80</ele>
        <time>2017-02-11T10:31:10Z</time>
      </trkpt>
      <trkpt lat="42.456934000" lon="-2.461469000">
        <ele>400.80</ele>
        <time>2017-02-11T10:31:11Z</time>
      </trkpt>
      <trkpt lat="42.456977000" lon="-2.461446000">
        <ele>400.80</ele>
        <time>2017-02-11T10:31:12Z</time>
      </trkpt>
      <trkpt lat="42.457022000" lon="-2.461430000">
        <ele>400.70</ele>
        <time>2017-02-11T10:31:13Z</time>
      </trkpt>
      <trkpt lat="42.457064000" lon="-2.461414000">
        <ele>400.60</ele>
        <time>2017-02-11T10:31:14Z</time>
      </trkpt>
      <trkpt lat="42.457103000" lon="-2.461397000">
        <ele>400.70</ele>
        <time>2017-02-11T10:31:15Z</time>
      </trkpt>
      <trkpt lat="42.457141000" lon="-2.461383000">
        <ele>400.80</ele>
        <time>2017-02-11T10:31:16Z</time>
      </trkpt>
      <trkpt lat="42.457176000" lon="-2.461368000">
        <ele>400.70</ele>
        <time>2017-02-11T10:31:17Z</time>
      </trkpt>
      <trkpt lat="42.457212000" lon="-2.461348000">
        <ele>400.60</ele>
        <time>2017-02-11T10:31:18Z</time>
      </trkpt>
      <trkpt lat="42.457247000" lon="-2.461336000">
        <ele>400.60</ele>
        <time>2017-02-11T10:31:19Z</time>
      </trkpt>
      <trkpt lat="42.457276000" lon="-2.461320000">
        <ele>400.60</ele>
        <time>2017-02-11T10:31:20Z</time>
      </trkpt>
      <trkpt lat="42.457307000" lon="-2.461296000">
        <ele>400.60</ele>
        <time>2017-02-11T10:31:21Z</time>
      </trkpt>
      <trkpt lat="42.457344000" lon="-2.461289000">
        <ele>400.50</ele>
        <time>2017-02-11T10:31:22Z</time>
      </trkpt>
      <trkpt lat="42.457380000" lon="-2.461278000">
        <ele>400.50</ele>
        <time>2017-02-11T10:31:23Z</time>
      </trkpt>
      <trkpt lat="42.457414000" lon="-2.461267000">
        <ele>400.50</ele>
        <time>2017-02-11T10:31:24Z</time>
      </trkpt>
      <trkpt lat="42.457451000" lon="-2.461255000">
        <ele>400.60</ele>
        <time>2017-02-11T10:31:25Z</time>
      </trkpt>
      <trkpt lat="42.457490000" lon="-2.461237000">
        <ele>400.60</ele>
        <time>2017-02-11T10:31:26Z</time>
      </trkpt>
      <trkpt lat="42.457529000" lon="-2.461212000">
        <ele>400.70</ele>
        <time>2017-02-11T10:31:27Z</time>
      </trkpt>
      <trkpt lat="42.457570000" lon="-2.461194000">
        <ele>400.70</ele>
        <time>2017-02-11T10:31:28Z</time>
      </trkpt>
      <trkpt lat="42.457608000" lon="-2.461184000">
        <ele>400.70</ele>
        <time>2017-02-11T10:31:29Z</time>
      </trkpt>
      <trkpt lat="42.457641000" lon="-2.461164000">
        <ele>400.70</ele>
        <time>2017-02-11T10:31:30Z</time>
      </trkpt>
      <trkpt lat="42.457676000" lon="-2.461154000">
        <ele>400.70</ele>
        <time>2017-02-11T10:31:31Z</time>
      </trkpt>
      <trkpt lat="42.457696000" lon="-2.461142000">
        <ele>400.60</ele>
        <time>2017-02-11T10:31:32Z</time>
      </trkpt>
      <trkpt lat="42.457700000" lon="-2.461144000">
        <ele>400.50</ele>
        <time>2017-02-11T10:31:33Z</time>
      </trkpt>
      <trkpt lat="42.457704000" lon="-2.461142000">
        <ele>400.30</ele>
        <time>2017-02-11T10:31:34Z</time>
      </trkpt>
      <trkpt lat="42.457713000" lon="-2.461150000">
        <ele>400.40</ele>
        <time>2017-02-11T10:31:35Z</time>
      </trkpt>
      <trkpt lat="42.457716000" lon="-2.461149000">
        <ele>400.40</ele>
        <time>2017-02-11T10:31:36Z</time>
      </trkpt>
      <trkpt lat="42.457721000" lon="-2.461158000">
        <ele>400.40</ele>
        <time>2017-02-11T10:31:37Z</time>
      </trkpt>
      <trkpt lat="42.457722000" lon="-2.461157000">
        <ele>400.40</ele>
        <time>2017-02-11T10:31:38Z</time>
      </trkpt>
      <trkpt lat="42.457726000" lon="-2.461177000">
        <ele>400.50</ele>
        <time>2017-02-11T10:31:39Z</time>
      </trkpt>
      <trkpt lat="42.457729000" lon="-2.461195000">
        <ele>400.50</ele>
        <time>2017-02-11T10:31:40Z</time>
      </trkpt>
      <trkpt lat="42.457731000" lon="-2.461219000">
        <ele>400.30</ele>
        <time>2017-02-11T10:31:41Z</time>
      </trkpt>
      <trkpt lat="42.457735000" lon="-2.461239000">
        <ele>400.20</ele>
        <time>2017-02-11T10:31:42Z</time>
      </trkpt>
      <trkpt lat="42.457740000" lon="-2.461251000">
        <ele>400.20</ele>
        <time>2017-02-11T10:31:43Z</time>
      </trkpt>
      <trkpt lat="42.457742000" lon="-2.461256000">
        <ele>400.10</ele>
        <time>2017-02-11T10:31:44Z</time>
      </trkpt>
      <trkpt lat="42.457742000" lon="-2.461260000">
        <ele>400.10</ele>
        <time>2017-02-11T10:31:45Z</time>
      </trkpt>
      <trkpt lat="42.457743000" lon="-2.461262000">
        <ele>400.10</ele>
        <time>2017-02-11T10:31:46Z</time>
      </trkpt>
      <trkpt lat="42.457741000" lon="-2.461264000">
        <ele>400.00</ele>
        <time>2017-02-11T10:31:47Z</time>
      </trkpt>
      <trkpt lat="42.457739000" lon="-2.461271000">
        <ele>399.90</ele>
        <time>2017-02-11T10:31:48Z</time>
      </trkpt>
      <trkpt lat="42.457742000" lon="-2.461280000">
        <ele>399.90</ele>
        <time>2017-02-11T10:31:49Z</time>
      </trkpt>
      <trkpt lat="42.457745000" lon="-2.461283000">
        <ele>399.80</ele>
        <time>2017-02-11T10:31:50Z</time>
      </trkpt>
      <trkpt lat="42.457746000" lon="-2.461286000">
        <ele>400.00</ele>
        <time>2017-02-11T10:31:51Z</time>
      </trkpt>
      <trkpt lat="42.457747000" lon="-2.461289000">
        <ele>400.10</ele>
        <time>2017-02-11T10:31:52Z</time>
      </trkpt>
      <trkpt lat="42.457747000" lon="-2.461292000">
        <ele>400.20</ele>
        <time>2017-02-11T10:31:53Z</time>
      </trkpt>
      <trkpt lat="42.457745000" lon="-2.461288000">
        <ele>400.30</ele>
        <time>2017-02-11T10:31:54Z</time>
      </trkpt>
      <trkpt lat="42.457743000" lon="-2.461285000">
        <ele>400.30</ele>
        <time>2017-02-11T10:31:55Z</time>
      </trkpt>
      <trkpt lat="42.457740000" lon="-2.461281000">
        <ele>400.40</ele>
        <time>2017-02-11T10:31:56Z</time>
      </trkpt>
      <trkpt lat="42.457740000" lon="-2.461279000">
        <ele>400.40</ele>
        <time>2017-02-11T10:31:57Z</time>
      </trkpt>
      <trkpt lat="42.457740000" lon="-2.461278000">
        <ele>400.40</ele>
        <time>2017-02-11T10:31:58Z</time>
      </trkpt>
      <trkpt lat="42.457742000" lon="-2.461280000">
        <ele>400.30</ele>
        <time>2017-02-11T10:31:59Z</time>
      </trkpt>
      <trkpt lat="42.457747000" lon="-2.461285000">
        <ele>400.20</ele>
        <time>2017-02-11T10:32:01Z</time>
      </trkpt>
      <trkpt lat="42.457747000" lon="-2.461286000">
        <ele>400.10</ele>
        <time>2017-02-11T10:32:02Z</time>
      </trkpt>
      <trkpt lat="42.457745000" lon="-2.461287000">
        <ele>400.10</ele>
        <time>2017-02-11T10:32:03Z</time>
      </trkpt>
      <trkpt lat="42.457742000" lon="-2.461290000">
        <ele>400.10</ele>
        <time>2017-02-11T10:32:04Z</time>
      </trkpt>
      <trkpt lat="42.457740000" lon="-2.461293000">
        <ele>400.20</ele>
        <time>2017-02-11T10:32:05Z</time>
      </trkpt>
      <trkpt lat="42.457739000" lon="-2.461295000">
        <ele>400.20</ele>
        <time>2017-02-11T10:32:06Z</time>
      </trkpt>
      <trkpt lat="42.457738000" lon="-2.461296000">
        <ele>400.20</ele>
        <time>2017-02-11T10:32:07Z</time>
      </trkpt>
      <trkpt lat="42.457737000" lon="-2.461296000">
        <ele>400.10</ele>
        <time>2017-02-11T10:32:08Z</time>
      </trkpt>
      <trkpt lat="42.457736000" lon="-2.461297000">
        <ele>400.20</ele>
        <time>2017-02-11T10:32:09Z</time>
      </trkpt>
      <trkpt lat="42.457737000" lon="-2.461305000">
        <ele>400.30</ele>
        <time>2017-02-11T10:32:10Z</time>
      </trkpt>
      <trkpt lat="42.457739000" lon="-2.461311000">
        <ele>400.20</ele>
        <time>2017-02-11T10:32:11Z</time>
      </trkpt>
      <trkpt lat="42.457738000" lon="-2.461315000">
        <ele>400.20</ele>
        <time>2017-02-11T10:32:12Z</time>
      </trkpt>
      <trkpt lat="42.457739000" lon="-2.461316000">
        <ele>400.20</ele>
        <time>2017-02-11T10:32:13Z</time>
      </trkpt>
      <trkpt lat="42.457740000" lon="-2.461319000">
        <ele>400.20</ele>
        <time>2017-02-11T10:32:14Z</time>
      </trkpt>
      <trkpt lat="42.457740000" lon="-2.461322000">
        <ele>400.20</ele>
        <time>2017-02-11T10:32:15Z</time>
      </trkpt>
      <trkpt lat="42.457739000" lon="-2.461325000">
        <ele>400.20</ele>
        <time>2017-02-11T10:32:16Z</time>
      </trkpt>
      <trkpt lat="42.457738000" lon="-2.461326000">
        <ele>400.20</ele>
        <time>2017-02-11T10:32:17Z</time>
      </trkpt>
      <trkpt lat="42.457735000" lon="-2.461327000">
        <ele>400.20</ele>
        <time>2017-02-11T10:32:18Z</time>
      </trkpt>
      <trkpt lat="42.457733000" lon="-2.461333000">
        <ele>400.20</ele>
        <time>2017-02-11T10:32:19Z</time>
      </trkpt>
      <trkpt lat="42.457728000" lon="-2.461336000">
        <ele>400.20</ele>
        <time>2017-02-11T10:32:20Z</time>
      </trkpt>
      <trkpt lat="42.457725000" lon="-2.461339000">
        <ele>400.20</ele>
        <time>2017-02-11T10:32:21Z</time>
      </trkpt>
      <trkpt lat="42.457721000" lon="-2.461345000">
        <ele>400.20</ele>
        <time>2017-02-11T10:32:22Z</time>
      </trkpt>
      <trkpt lat="42.457719000" lon="-2.461349000">
        <ele>400.10</ele>
        <time>2017-02-11T10:32:23Z</time>
      </trkpt>
      <trkpt lat="42.457723000" lon="-2.461347000">
        <ele>400.10</ele>
        <time>2017-02-11T10:32:24Z</time>
      </trkpt>
      <trkpt lat="42.457739000" lon="-2.461338000">
        <ele>400.10</ele>
        <time>2017-02-11T10:32:25Z</time>
      </trkpt>
      <trkpt lat="42.457758000" lon="-2.461329000">
        <ele>400.10</ele>
        <time>2017-02-11T10:32:26Z</time>
      </trkpt>
      <trkpt lat="42.457775000" lon="-2.461315000">
        <ele>400.10</ele>
        <time>2017-02-11T10:32:27Z</time>
      </trkpt>
      <trkpt lat="42.457789000" lon="-2.461297000">
        <ele>400.10</ele>
        <time>2017-02-11T10:32:28Z</time>
      </trkpt>
      <trkpt lat="42.457808000" lon="-2.461275000">
        <ele>400.10</ele>
        <time>2017-02-11T10:32:29Z</time>
      </trkpt>
      <trkpt lat="42.457833000" lon="-2.461254000">
        <ele>400.10</ele>
        <time>2017-02-11T10:32:30Z</time>
      </trkpt>
      <trkpt lat="42.457873000" lon="-2.461204000">
        <ele>400.10</ele>
        <time>2017-02-11T10:32:31Z</time>
      </trkpt>
      <trkpt lat="42.457911000" lon="-2.461152000">
        <ele>400.10</ele>
        <time>2017-02-11T10:32:32Z</time>
      </trkpt>
      <trkpt lat="42.457945000" lon="-2.461106000">
        <ele>400.10</ele>
        <time>2017-02-11T10:32:33Z</time>
      </trkpt>
      <trkpt lat="42.457979000" lon="-2.461066000">
        <ele>400.20</ele>
        <time>2017-02-11T10:32:34Z</time>
      </trkpt>
      <trkpt lat="42.458014000" lon="-2.461038000">
        <ele>400.30</ele>
        <time>2017-02-11T10:32:35Z</time>
      </trkpt>
      <trkpt lat="42.458048000" lon="-2.461020000">
        <ele>400.40</ele>
        <time>2017-02-11T10:32:36Z</time>
      </trkpt>
      <trkpt lat="42.458079000" lon="-2.461008000">
        <ele>400.60</ele>
        <time>2017-02-11T10:32:37Z</time>
      </trkpt>
      <trkpt lat="42.458110000" lon="-2.460994000">
        <ele>400.70</ele>
        <time>2017-02-11T10:32:38Z</time>
      </trkpt>
      <trkpt lat="42.458145000" lon="-2.460982000">
        <ele>400.80</ele>
        <time>2017-02-11T10:32:39Z</time>
      </trkpt>
      <trkpt lat="42.458182000" lon="-2.460972000">
        <ele>400.80</ele>
        <time>2017-02-11T10:32:40Z</time>
      </trkpt>
      <trkpt lat="42.458216000" lon="-2.460960000">
        <ele>400.80</ele>
        <time>2017-02-11T10:32:41Z</time>
      </trkpt>
      <trkpt lat="42.458253000" lon="-2.460951000">
        <ele>400.70</ele>
        <time>2017-02-11T10:32:42Z</time>
      </trkpt>
      <trkpt lat="42.458293000" lon="-2.460943000">
        <ele>400.70</ele>
        <time>2017-02-11T10:32:43Z</time>
      </trkpt>
      <trkpt lat="42.458331000" lon="-2.460932000">
        <ele>400.70</ele>
        <time>2017-02-11T10:32:44Z</time>
      </trkpt>
      <trkpt lat="42.458370000" lon="-2.460924000">
        <ele>400.60</ele>
        <time>2017-02-11T10:32:45Z</time>
      </trkpt>
      <trkpt lat="42.458408000" lon="-2.460907000">
        <ele>400.60</ele>
        <time>2017-02-11T10:32:46Z</time>
      </trkpt>
      <trkpt lat="42.458449000" lon="-2.460892000">
        <ele>400.70</ele>
        <time>2017-02-11T10:32:47Z</time>
      </trkpt>
      <trkpt lat="42.458490000" lon="-2.460875000">
        <ele>400.70</ele>
        <time>2017-02-11T10:32:48Z</time>
      </trkpt>
      <trkpt lat="42.458530000" lon="-2.460857000">
        <ele>400.80</ele>
        <time>2017-02-11T10:32:49Z</time>
      </trkpt>
      <trkpt lat="42.458568000" lon="-2.460840000">
        <ele>400.90</ele>
        <time>2017-02-11T10:32:50Z</time>
      </trkpt>
      <trkpt lat="42.458609000" lon="-2.460827000">
        <ele>401.00</ele>
        <time>2017-02-11T10:32:51Z</time>
      </trkpt>
      <trkpt lat="42.458648000" lon="-2.460810000">
        <ele>401.20</ele>
        <time>2017-02-11T10:32:52Z</time>
      </trkpt>
      <trkpt lat="42.458686000" lon="-2.460790000">
        <ele>401.30</ele>
        <time>2017-02-11T10:32:53Z</time>
      </trkpt>
      <trkpt lat="42.458750000" lon="-2.460727000">
        <ele>401.40</ele>
        <time>2017-02-11T10:32:54Z</time>
      </trkpt>
      <trkpt lat="42.458790000" lon="-2.460698000">
        <ele>401.50</ele>
        <time>2017-02-11T10:32:55Z</time>
      </trkpt>
      <trkpt lat="42.458843000" lon="-2.460647000">
        <ele>401.60</ele>
        <time>2017-02-11T10:32:56Z</time>
      </trkpt>
      <trkpt lat="42.458880000" lon="-2.460624000">
        <ele>401.50</ele>
        <time>2017-02-11T10:32:57Z</time>
      </trkpt>
      <trkpt lat="42.458914000" lon="-2.460603000">
        <ele>401.50</ele>
        <time>2017-02-11T10:32:58Z</time>
      </trkpt>
      <trkpt lat="42.458943000" lon="-2.460558000">
        <ele>401.20</ele>
        <time>2017-02-11T10:32:59Z</time>
      </trkpt>
      <trkpt lat="42.458954000" lon="-2.460522000">
        <ele>401.00</ele>
        <time>2017-02-11T10:33:00Z</time>
      </trkpt>
      <trkpt lat="42.458985000" lon="-2.460485000">
        <ele>400.70</ele>
        <time>2017-02-11T10:33:02Z</time>
      </trkpt>
      <trkpt lat="42.458993000" lon="-2.460488000">
        <ele>400.50</ele>
        <time>2017-02-11T10:33:03Z</time>
      </trkpt>
      <trkpt lat="42.458995000" lon="-2.460490000">
        <ele>400.30</ele>
        <time>2017-02-11T10:33:04Z</time>
      </trkpt>
      <trkpt lat="42.458993000" lon="-2.460503000">
        <ele>400.30</ele>
        <time>2017-02-11T10:33:05Z</time>
      </trkpt>
      <trkpt lat="42.458996000" lon="-2.460507000">
        <ele>400.30</ele>
        <time>2017-02-11T10:33:06Z</time>
      </trkpt>
      <trkpt lat="42.458998000" lon="-2.460511000">
        <ele>400.20</ele>
        <time>2017-02-11T10:33:07Z</time>
      </trkpt>
      <trkpt lat="42.458999000" lon="-2.460511000">
        <ele>400.20</ele>
        <time>2017-02-11T10:33:08Z</time>
      </trkpt>
      <trkpt lat="42.459011000" lon="-2.460509000">
        <ele>400.20</ele>
        <time>2017-02-11T10:33:09Z</time>
      </trkpt>
      <trkpt lat="42.459024000" lon="-2.460514000">
        <ele>400.10</ele>
        <time>2017-02-11T10:33:10Z</time>
      </trkpt>
      <trkpt lat="42.459039000" lon="-2.460528000">
        <ele>400.10</ele>
        <time>2017-02-11T10:33:11Z</time>
      </trkpt>
      <trkpt lat="42.459052000" lon="-2.460549000">
        <ele>400.10</ele>
        <time>2017-02-11T10:33:12Z</time>
      </trkpt>
      <trkpt lat="42.459076000" lon="-2.460570000">
        <ele>400.20</ele>
        <time>2017-02-11T10:33:13Z</time>
      </trkpt>
      <trkpt lat="42.459099000" lon="-2.460592000">
        <ele>400.20</ele>
        <time>2017-02-11T10:33:14Z</time>
      </trkpt>
      <trkpt lat="42.459122000" lon="-2.460612000">
        <ele>400.30</ele>
        <time>2017-02-11T10:33:15Z</time>
      </trkpt>
      <trkpt lat="42.459143000" lon="-2.460631000">
        <ele>400.40</ele>
        <time>2017-02-11T10:33:16Z</time>
      </trkpt>
      <trkpt lat="42.459160000" lon="-2.460654000">
        <ele>400.50</ele>
        <time>2017-02-11T10:33:17Z</time>
      </trkpt>
      <trkpt lat="42.459176000" lon="-2.460680000">
        <ele>400.60</ele>
        <time>2017-02-11T10:33:18Z</time>
      </trkpt>
      <trkpt lat="42.459190000" lon="-2.460708000">
        <ele>401.00</ele>
        <time>2017-02-11T10:33:19Z</time>
      </trkpt>
      <trkpt lat="42.459206000" lon="-2.460740000">
        <ele>401.40</ele>
        <time>2017-02-11T10:33:20Z</time>
      </trkpt>
      <trkpt lat="42.459225000" lon="-2.460769000">
        <ele>401.60</ele>
        <time>2017-02-11T10:33:21Z</time>
      </trkpt>
      <trkpt lat="42.459245000" lon="-2.460796000">
        <ele>401.80</ele>
        <time>2017-02-11T10:33:22Z</time>
      </trkpt>
      <trkpt lat="42.459264000" lon="-2.460824000">
        <ele>401.60</ele>
        <time>2017-02-11T10:33:23Z</time>
      </trkpt>
      <trkpt lat="42.459280000" lon="-2.460856000">
        <ele>401.50</ele>
        <time>2017-02-11T10:33:24Z</time>
      </trkpt>
      <trkpt lat="42.459291000" lon="-2.460893000">
        <ele>401.40</ele>
        <time>2017-02-11T10:33:25Z</time>
      </trkpt>
      <trkpt lat="42.459303000" lon="-2.460930000">
        <ele>401.30</ele>
        <time>2017-02-11T10:33:26Z</time>
      </trkpt>
      <trkpt lat="42.459316000" lon="-2.460967000">
        <ele>401.30</ele>
        <time>2017-02-11T10:33:27Z</time>
      </trkpt>
      <trkpt lat="42.459328000" lon="-2.461003000">
        <ele>401.20</ele>
        <time>2017-02-11T10:33:28Z</time>
      </trkpt>
      <trkpt lat="42.459345000" lon="-2.461035000">
        <ele>401.20</ele>
        <time>2017-02-11T10:33:29Z</time>
      </trkpt>
      <trkpt lat="42.459358000" lon="-2.461069000">
        <ele>401.20</ele>
        <time>2017-02-11T10:33:30Z</time>
      </trkpt>
      <trkpt lat="42.459374000" lon="-2.461099000">
        <ele>401.20</ele>
        <time>2017-02-11T10:33:31Z</time>
      </trkpt>
      <trkpt lat="42.459392000" lon="-2.461129000">
        <ele>401.10</ele>
        <time>2017-02-11T10:33:32Z</time>
      </trkpt>
      <trkpt lat="42.459408000" lon="-2.461159000">
        <ele>401.20</ele>
        <time>2017-02-11T10:33:33Z</time>
      </trkpt>
      <trkpt lat="42.459427000" lon="-2.461190000">
        <ele>401.20</ele>
        <time>2017-02-11T10:33:34Z</time>
      </trkpt>
      <trkpt lat="42.459444000" lon="-2.461223000">
        <ele>401.30</ele>
        <time>2017-02-11T10:33:35Z</time>
      </trkpt>
      <trkpt lat="42.459459000" lon="-2.461253000">
        <ele>401.40</ele>
        <time>2017-02-11T10:33:36Z</time>
      </trkpt>
      <trkpt lat="42.459469000" lon="-2.461279000">
        <ele>401.70</ele>
        <time>2017-02-11T10:33:37Z</time>
      </trkpt>
      <trkpt lat="42.459483000" lon="-2.461302000">
        <ele>401.80</ele>
        <time>2017-02-11T10:33:38Z</time>
      </trkpt>
      <trkpt lat="42.459494000" lon="-2.461326000">
        <ele>402.00</ele>
        <time>2017-02-11T10:33:39Z</time>
      </trkpt>
      <trkpt lat="42.459504000" lon="-2.461353000">
        <ele>402.10</ele>
        <time>2017-02-11T10:33:40Z</time>
      </trkpt>
      <trkpt lat="42.459515000" lon="-2.461380000">
        <ele>402.20</ele>
        <time>2017-02-11T10:33:41Z</time>
      </trkpt>
      <trkpt lat="42.459529000" lon="-2.461403000">
        <ele>402.20</ele>
        <time>2017-02-11T10:33:42Z</time>
      </trkpt>
      <trkpt lat="42.459541000" lon="-2.461427000">
        <ele>402.40</ele>
        <time>2017-02-11T10:33:43Z</time>
      </trkpt>
      <trkpt lat="42.459554000" lon="-2.461455000">
        <ele>402.50</ele>
        <time>2017-02-11T10:33:44Z</time>
      </trkpt>
      <trkpt lat="42.459567000" lon="-2.461483000">
        <ele>402.60</ele>
        <time>2017-02-11T10:33:45Z</time>
      </trkpt>
      <trkpt lat="42.459580000" lon="-2.461507000">
        <ele>402.70</ele>
        <time>2017-02-11T10:33:46Z</time>
      </trkpt>
      <trkpt lat="42.459595000" lon="-2.461534000">
        <ele>402.70</ele>
        <time>2017-02-11T10:33:47Z</time>
      </trkpt>
      <trkpt lat="42.459611000" lon="-2.461568000">
        <ele>402.80</ele>
        <time>2017-02-11T10:33:48Z</time>
      </trkpt>
      <trkpt lat="42.459627000" lon="-2.461600000">
        <ele>402.80</ele>
        <time>2017-02-11T10:33:49Z</time>
      </trkpt>
      <trkpt lat="42.459641000" lon="-2.461631000">
        <ele>402.70</ele>
        <time>2017-02-11T10:33:50Z</time>
      </trkpt>
      <trkpt lat="42.459654000" lon="-2.461658000">
        <ele>402.90</ele>
        <time>2017-02-11T10:33:51Z</time>
      </trkpt>
      <trkpt lat="42.459671000" lon="-2.461691000">
        <ele>403.00</ele>
        <time>2017-02-11T10:33:52Z</time>
      </trkpt>
      <trkpt lat="42.459689000" lon="-2.461725000">
        <ele>403.10</ele>
        <time>2017-02-11T10:33:53Z</time>
      </trkpt>
      <trkpt lat="42.459710000" lon="-2.461758000">
        <ele>403.20</ele>
        <time>2017-02-11T10:33:54Z</time>
      </trkpt>
      <trkpt lat="42.459731000" lon="-2.461785000">
        <ele>403.30</ele>
        <time>2017-02-11T10:33:55Z</time>
      </trkpt>
      <trkpt lat="42.459749000" lon="-2.461814000">
        <ele>403.40</ele>
        <time>2017-02-11T10:33:56Z</time>
      </trkpt>
      <trkpt lat="42.459771000" lon="-2.461842000">
        <ele>403.60</ele>
        <time>2017-02-11T10:33:57Z</time>
      </trkpt>
      <trkpt lat="42.459795000" lon="-2.461875000">
        <ele>403.70</ele>
        <time>2017-02-11T10:33:58Z</time>
      </trkpt>
      <trkpt lat="42.459815000" lon="-2.461911000">
        <ele>403.70</ele>
        <time>2017-02-11T10:33:59Z</time>
      </trkpt>
      <trkpt lat="42.459837000" lon="-2.461944000">
        <ele>403.70</ele>
        <time>2017-02-11T10:34:00Z</time>
      </trkpt>
      <trkpt lat="42.459866000" lon="-2.461981000">
        <ele>403.60</ele>
        <time>2017-02-11T10:34:01Z</time>
      </trkpt>
      <trkpt lat="42.459917000" lon="-2.462055000">
        <ele>403.50</ele>
        <time>2017-02-11T10:34:03Z</time>
      </trkpt>
      <trkpt lat="42.459938000" lon="-2.462090000">
        <ele>403.40</ele>
        <time>2017-02-11T10:34:04Z</time>
      </trkpt>
      <trkpt lat="42.459962000" lon="-2.462119000">
        <ele>403.20</ele>
        <time>2017-02-11T10:34:05Z</time>
      </trkpt>
      <trkpt lat="42.459986000" lon="-2.462148000">
        <ele>403.10</ele>
        <time>2017-02-11T10:34:06Z</time>
      </trkpt>
      <trkpt lat="42.460011000" lon="-2.462176000">
        <ele>403.00</ele>
        <time>2017-02-11T10:34:07Z</time>
      </trkpt>
      <trkpt lat="42.460037000" lon="-2.462204000">
        <ele>402.90</ele>
        <time>2017-02-11T10:34:08Z</time>
      </trkpt>
      <trkpt lat="42.460065000" lon="-2.462234000">
        <ele>402.90</ele>
        <time>2017-02-11T10:34:09Z</time>
      </trkpt>
      <trkpt lat="42.460092000" lon="-2.462267000">
        <ele>402.90</ele>
        <time>2017-02-11T10:34:10Z</time>
      </trkpt>
      <trkpt lat="42.460118000" lon="-2.462301000">
        <ele>402.90</ele>
        <time>2017-02-11T10:34:11Z</time>
      </trkpt>
      <trkpt lat="42.460144000" lon="-2.462330000">
        <ele>402.90</ele>
        <time>2017-02-11T10:34:12Z</time>
      </trkpt>
      <trkpt lat="42.460168000" lon="-2.462357000">
        <ele>402.90</ele>
        <time>2017-02-11T10:34:13Z</time>
      </trkpt>
      <trkpt lat="42.460191000" lon="-2.462391000">
        <ele>402.90</ele>
        <time>2017-02-11T10:34:14Z</time>
      </trkpt>
      <trkpt lat="42.460214000" lon="-2.462424000">
        <ele>402.90</ele>
        <time>2017-02-11T10:34:15Z</time>
      </trkpt>
      <trkpt lat="42.460230000" lon="-2.462457000">
        <ele>402.90</ele>
        <time>2017-02-11T10:34:16Z</time>
      </trkpt>
      <trkpt lat="42.460247000" lon="-2.462497000">
        <ele>402.80</ele>
        <time>2017-02-11T10:34:17Z</time>
      </trkpt>
      <trkpt lat="42.460262000" lon="-2.462540000">
        <ele>402.80</ele>
        <time>2017-02-11T10:34:18Z</time>
      </trkpt>
      <trkpt lat="42.460279000" lon="-2.462587000">
        <ele>402.80</ele>
        <time>2017-02-11T10:34:19Z</time>
      </trkpt>
      <trkpt lat="42.460299000" lon="-2.462628000">
        <ele>402.80</ele>
        <time>2017-02-11T10:34:20Z</time>
      </trkpt>
      <trkpt lat="42.460316000" lon="-2.462673000">
        <ele>402.90</ele>
        <time>2017-02-11T10:34:21Z</time>
      </trkpt>
      <trkpt lat="42.460332000" lon="-2.462711000">
        <ele>402.90</ele>
        <time>2017-02-11T10:34:22Z</time>
      </trkpt>
      <trkpt lat="42.460347000" lon="-2.462754000">
        <ele>403.00</ele>
        <time>2017-02-11T10:34:23Z</time>
      </trkpt>
      <trkpt lat="42.460367000" lon="-2.462793000">
        <ele>403.00</ele>
        <time>2017-02-11T10:34:24Z</time>
      </trkpt>
      <trkpt lat="42.460382000" lon="-2.462838000">
        <ele>403.10</ele>
        <time>2017-02-11T10:34:25Z</time>
      </trkpt>
      <trkpt lat="42.460400000" lon="-2.462877000">
        <ele>403.20</ele>
        <time>2017-02-11T10:34:26Z</time>
      </trkpt>
      <trkpt lat="42.460418000" lon="-2.462916000">
        <ele>403.30</ele>
        <time>2017-02-11T10:34:27Z</time>
      </trkpt>
      <trkpt lat="42.460435000" lon="-2.462952000">
        <ele>403.30</ele>
        <time>2017-02-11T10:34:28Z</time>
      </trkpt>
      <trkpt lat="42.460452000" lon="-2.462992000">
        <ele>403.30</ele>
        <time>2017-02-11T10:34:29Z</time>
      </trkpt>
      <trkpt lat="42.460466000" lon="-2.463034000">
        <ele>403.40</ele>
        <time>2017-02-11T10:34:30Z</time>
      </trkpt>
      <trkpt lat="42.460486000" lon="-2.463074000">
        <ele>403.30</ele>
        <time>2017-02-11T10:34:31Z</time>
      </trkpt>
      <trkpt lat="42.460506000" lon="-2.463113000">
        <ele>403.30</ele>
        <time>2017-02-11T10:34:32Z</time>
      </trkpt>
      <trkpt lat="42.460526000" lon="-2.463153000">
        <ele>403.30</ele>
        <time>2017-02-11T10:34:33Z</time>
      </trkpt>
      <trkpt lat="42.460546000" lon="-2.463196000">
        <ele>403.20</ele>
        <time>2017-02-11T10:34:34Z</time>
      </trkpt>
      <trkpt lat="42.460567000" lon="-2.463236000">
        <ele>403.20</ele>
        <time>2017-02-11T10:34:35Z</time>
      </trkpt>
      <trkpt lat="42.460591000" lon="-2.463280000">
        <ele>403.10</ele>
        <time>2017-02-11T10:34:36Z</time>
      </trkpt>
      <trkpt lat="42.460613000" lon="-2.463335000">
        <ele>402.90</ele>
        <time>2017-02-11T10:34:37Z</time>
      </trkpt>
      <trkpt lat="42.460632000" lon="-2.463387000">
        <ele>402.80</ele>
        <time>2017-02-11T10:34:38Z</time>
      </trkpt>
      <trkpt lat="42.460652000" lon="-2.463429000">
        <ele>402.70</ele>
        <time>2017-02-11T10:34:39Z</time>
      </trkpt>
      <trkpt lat="42.460666000" lon="-2.463474000">
        <ele>402.60</ele>
        <time>2017-02-11T10:34:40Z</time>
      </trkpt>
      <trkpt lat="42.460682000" lon="-2.463512000">
        <ele>402.40</ele>
        <time>2017-02-11T10:34:41Z</time>
      </trkpt>
      <trkpt lat="42.460700000" lon="-2.463539000">
        <ele>402.30</ele>
        <time>2017-02-11T10:34:42Z</time>
      </trkpt>
      <trkpt lat="42.460716000" lon="-2.463563000">
        <ele>402.00</ele>
        <time>2017-02-11T10:34:43Z</time>
      </trkpt>
      <trkpt lat="42.460736000" lon="-2.463579000">
        <ele>401.70</ele>
        <time>2017-02-11T10:34:44Z</time>
      </trkpt>
      <trkpt lat="42.460758000" lon="-2.463592000">
        <ele>401.50</ele>
        <time>2017-02-11T10:34:45Z</time>
      </trkpt>
      <trkpt lat="42.460785000" lon="-2.463594000">
        <ele>401.40</ele>
        <time>2017-02-11T10:34:46Z</time>
      </trkpt>
      <trkpt lat="42.460809000" lon="-2.463600000">
        <ele>401.30</ele>
        <time>2017-02-11T10:34:47Z</time>
      </trkpt>
      <trkpt lat="42.460836000" lon="-2.463601000">
        <ele>401.20</ele>
        <time>2017-02-11T10:34:48Z</time>
      </trkpt>
      <trkpt lat="42.460865000" lon="-2.463597000">
        <ele>401.10</ele>
        <time>2017-02-11T10:34:49Z</time>
      </trkpt>
      <trkpt lat="42.460893000" lon="-2.463598000">
        <ele>401.10</ele>
        <time>2017-02-11T10:34:50Z</time>
      </trkpt>
      <trkpt lat="42.460922000" lon="-2.463597000">
        <ele>401.00</ele>
        <time>2017-02-11T10:34:51Z</time>
      </trkpt>
      <trkpt lat="42.460951000" lon="-2.463590000">
        <ele>400.90</ele>
        <time>2017-02-11T10:34:52Z</time>
      </trkpt>
      <trkpt lat="42.460989000" lon="-2.463587000">
        <ele>401.00</ele>
        <time>2017-02-11T10:34:53Z</time>
      </trkpt>
      <trkpt lat="42.461029000" lon="-2.463603000">
        <ele>401.00</ele>
        <time>2017-02-11T10:34:54Z</time>
      </trkpt>
      <trkpt lat="42.461056000" lon="-2.463603000">
        <ele>400.90</ele>
        <time>2017-02-11T10:34:55Z</time>
      </trkpt>
      <trkpt lat="42.461069000" lon="-2.463680000">
        <ele>400.90</ele>
        <time>2017-02-11T10:34:56Z</time>
      </trkpt>
      <trkpt lat="42.461070000" lon="-2.463734000">
        <ele>400.90</ele>
        <time>2017-02-11T10:34:57Z</time>
      </trkpt>
      <trkpt lat="42.461070000" lon="-2.463790000">
        <ele>400.90</ele>
        <time>2017-02-11T10:34:58Z</time>
      </trkpt>
      <trkpt lat="42.461063000" lon="-2.463831000">
        <ele>401.10</ele>
        <time>2017-02-11T10:34:59Z</time>
      </trkpt>
      <trkpt lat="42.461056000" lon="-2.463866000">
        <ele>401.20</ele>
        <time>2017-02-11T10:35:00Z</time>
      </trkpt>
      <trkpt lat="42.461038000" lon="-2.463898000">
        <ele>401.30</ele>
        <time>2017-02-11T10:35:01Z</time>
      </trkpt>
      <trkpt lat="42.461029000" lon="-2.463926000">
        <ele>401.30</ele>
        <time>2017-02-11T10:35:02Z</time>
      </trkpt>
      <trkpt lat="42.461030000" lon="-2.463954000">
        <ele>401.50</ele>
        <time>2017-02-11T10:35:03Z</time>
      </trkpt>
      <trkpt lat="42.460991000" lon="-2.464000000">
        <ele>401.70</ele>
        <time>2017-02-11T10:35:05Z</time>
      </trkpt>
      <trkpt lat="42.460983000" lon="-2.464025000">
        <ele>401.80</ele>
        <time>2017-02-11T10:35:06Z</time>
      </trkpt>
      <trkpt lat="42.460976000" lon="-2.464047000">
        <ele>401.80</ele>
        <time>2017-02-11T10:35:07Z</time>
      </trkpt>
      <trkpt lat="42.460969000" lon="-2.464067000">
        <ele>401.90</ele>
        <time>2017-02-11T10:35:08Z</time>
      </trkpt>
      <trkpt lat="42.460960000" lon="-2.464087000">
        <ele>401.80</ele>
        <time>2017-02-11T10:35:09Z</time>
      </trkpt>
      <trkpt lat="42.460962000" lon="-2.464107000">
        <ele>401.70</ele>
        <time>2017-02-11T10:35:10Z</time>
      </trkpt>
      <trkpt lat="42.460959000" lon="-2.464111000">
        <ele>401.60</ele>
        <time>2017-02-11T10:35:11Z</time>
      </trkpt>
      <trkpt lat="42.460960000" lon="-2.464112000">
        <ele>401.50</ele>
        <time>2017-02-11T10:35:12Z</time>
      </trkpt>
      <trkpt lat="42.460965000" lon="-2.464117000">
        <ele>401.50</ele>
        <time>2017-02-11T10:35:13Z</time>
      </trkpt>
      <trkpt lat="42.460968000" lon="-2.464121000">
        <ele>401.40</ele>
        <time>2017-02-11T10:35:14Z</time>
      </trkpt>
      <trkpt lat="42.460970000" lon="-2.464123000">
        <ele>401.50</ele>
        <time>2017-02-11T10:35:15Z</time>
      </trkpt>
      <trkpt lat="42.460970000" lon="-2.464123000">
        <ele>401.50</ele>
        <time>2017-02-11T10:35:15Z</time>
      </trkpt>
    </trkseg>
  </trk>
</gpx>
